<?xml version='1.0' encoding='UTF-8'?><gpx version="1.1" creator="JPX - https://github.com/jenetics/jpx" xmlns="http://www.topografix.com/GPX/1/1"><trk><trkseg><trkpt lat="43.8692575" lon="6.449343"><ele>1058.0</ele><time>2026-05-02T08:24:51.004Z</time></trkpt><trkpt lat="43.869267" lon="6.4494537"><ele>1058.0</ele><time>2026-05-02T08:24:56.004Z</time></trkpt><trkpt lat="43.8692582" lon="6.4495623"><ele>1058.0</ele><time>2026-05-02T08:25:00.004Z</time></trkpt><trkpt lat="43.8692978" lon="6.4496391"><ele>1058.0</ele><time>2026-05-02T08:25:02.004Z</time></trkpt><trkpt lat="43.8693733" lon="6.4497013"><ele>1058.0</ele><time>2026-05-02T08:25:04.003Z</time></trkpt><trkpt lat="43.8694522" lon="6.4497731"><ele>1058.0</ele><time>2026-05-02T08:25:06.004Z</time></trkpt><trkpt lat="43.8695459" lon="6.4498805"><ele>1057.5</ele><time>2026-05-02T08:25:08.004Z</time></trkpt><trkpt lat="43.869638" lon="6.4499907"><ele>1057.0</ele><time>2026-05-02T08:25:10.003Z</time></trkpt><trkpt lat="43.8696834" lon="6.4501217"><ele>1056.5</ele><time>2026-05-02T08:25:12.004Z</time></trkpt><trkpt lat="43.8696674" lon="6.4502772"><ele>1056.0</ele><time>2026-05-02T08:25:14.003Z</time></trkpt><trkpt lat="43.8695635" lon="6.4504636"><ele>1056.25</ele><time>2026-05-02T08:25:16.004Z</time></trkpt><trkpt lat="43.8694846" lon="6.4505842"><ele>1056.5</ele><time>2026-05-02T08:25:17.004Z</time></trkpt><trkpt lat="43.8694204" lon="6.4507207"><ele>1056.75</ele><time>2026-05-02T08:25:18.004Z</time></trkpt><trkpt lat="43.8693329" lon="6.4508679"><ele>1057.0</ele><time>2026-05-02T08:25:19.004Z</time></trkpt><trkpt lat="43.8692404" lon="6.451023"><ele>1057.0</ele><time>2026-05-02T08:25:20.004Z</time></trkpt><trkpt lat="43.8691317" lon="6.4512036"><ele>1057.0</ele><time>2026-05-02T08:25:21.004Z</time></trkpt><trkpt lat="43.8690245" lon="6.4513686"><ele>1057.0</ele><time>2026-05-02T08:25:22.004Z</time></trkpt><trkpt lat="43.868926" lon="6.4515338"><ele>1060.0</ele><time>2026-05-02T08:25:23.004Z</time></trkpt><trkpt lat="43.8687941" lon="6.4517525"><ele>1063.0</ele><time>2026-05-02T08:25:24.004Z</time></trkpt><trkpt lat="43.8686727" lon="6.4519416"><ele>1066.0</ele><time>2026-05-02T08:25:25.004Z</time></trkpt><trkpt lat="43.8685614" lon="6.4521132"><ele>1067.3333333333333</ele><time>2026-05-02T08:25:26.004Z</time></trkpt><trkpt lat="43.8684433" lon="6.4523056"><ele>1068.6666666666667</ele><time>2026-05-02T08:25:27.004Z</time></trkpt><trkpt lat="43.8683223" lon="6.4524971"><ele>1070.0</ele><time>2026-05-02T08:25:28.004Z</time></trkpt><trkpt lat="43.868192" lon="6.4526765"><ele>1070.0</ele><time>2026-05-02T08:25:29.004Z</time></trkpt><trkpt lat="43.868077" lon="6.4528809"><ele>1070.0</ele><time>2026-05-02T08:25:30.004Z</time></trkpt><trkpt lat="43.8680337" lon="6.4531301"><ele>1070.0</ele><time>2026-05-02T08:25:31.003Z</time></trkpt><trkpt lat="43.8679826" lon="6.4533472"><ele>1071.0</ele><time>2026-05-02T08:25:32.004Z</time></trkpt><trkpt lat="43.8679131" lon="6.4535476"><ele>1072.0</ele><time>2026-05-02T08:25:33.004Z</time></trkpt><trkpt lat="43.8678246" lon="6.4537192"><ele>1073.0</ele><time>2026-05-02T08:25:34.004Z</time></trkpt><trkpt lat="43.8677225" lon="6.4538529"><ele>1072.0</ele><time>2026-05-02T08:25:35.004Z</time></trkpt><trkpt lat="43.8675952" lon="6.4539942"><ele>1071.0</ele><time>2026-05-02T08:25:36.003Z</time></trkpt><trkpt lat="43.8674738" lon="6.4541152"><ele>1070.0</ele><time>2026-05-02T08:25:37.004Z</time></trkpt><trkpt lat="43.8673419" lon="6.4542185"><ele>1070.0</ele><time>2026-05-02T08:25:38.004Z</time></trkpt><trkpt lat="43.8672062" lon="6.4542618"><ele>1070.0</ele><time>2026-05-02T08:25:39.004Z</time></trkpt><trkpt lat="43.8670539" lon="6.4542829"><ele>1070.0</ele><time>2026-05-02T08:25:40.004Z</time></trkpt><trkpt lat="43.8669123" lon="6.4543377"><ele>1070.0</ele><time>2026-05-02T08:25:41.004Z</time></trkpt><trkpt lat="43.8667829" lon="6.4543899"><ele>1070.25</ele><time>2026-05-02T08:25:42.004Z</time></trkpt><trkpt lat="43.8666428" lon="6.4545005"><ele>1070.5</ele><time>2026-05-02T08:25:43.004Z</time></trkpt><trkpt lat="43.8665135" lon="6.4545772"><ele>1070.75</ele><time>2026-05-02T08:25:44.004Z</time></trkpt><trkpt lat="43.8663896" lon="6.4546784"><ele>1071.0</ele><time>2026-05-02T08:25:45.004Z</time></trkpt><trkpt lat="43.8662841" lon="6.4548664"><ele>1073.6666666666667</ele><time>2026-05-02T08:25:46.004Z</time></trkpt><trkpt lat="43.866195" lon="6.4550281"><ele>1076.3333333333335</ele><time>2026-05-02T08:25:47.004Z</time></trkpt><trkpt lat="43.8660924" lon="6.4552144"><ele>1079.0</ele><time>2026-05-02T08:25:48.004Z</time></trkpt><trkpt lat="43.8660285" lon="6.4554192"><ele>1081.0</ele><time>2026-05-02T08:25:49.003Z</time></trkpt><trkpt lat="43.8659816" lon="6.4556445"><ele>1083.0</ele><time>2026-05-02T08:25:50.003Z</time></trkpt><trkpt lat="43.8659311" lon="6.4558677"><ele>1085.0</ele><time>2026-05-02T08:25:51.004Z</time></trkpt><trkpt lat="43.8658579" lon="6.4560776"><ele>1086.0</ele><time>2026-05-02T08:25:52.003Z</time></trkpt><trkpt lat="43.8657921" lon="6.4562883"><ele>1087.0</ele><time>2026-05-02T08:25:53.003Z</time></trkpt><trkpt lat="43.865736" lon="6.4565131"><ele>1088.0</ele><time>2026-05-02T08:25:54.004Z</time></trkpt><trkpt lat="43.8656951" lon="6.4567368"><ele>1088.0</ele><time>2026-05-02T08:25:55.004Z</time></trkpt><trkpt lat="43.8656818" lon="6.4569612"><ele>1088.0</ele><time>2026-05-02T08:25:56.004Z</time></trkpt><trkpt lat="43.8656572" lon="6.4571775"><ele>1088.0</ele><time>2026-05-02T08:25:57.004Z</time></trkpt><trkpt lat="43.8656422" lon="6.4574049"><ele>1090.3333333333335</ele><time>2026-05-02T08:25:58.004Z</time></trkpt><trkpt lat="43.8656076" lon="6.4576412"><ele>1092.6666666666667</ele><time>2026-05-02T08:25:59.004Z</time></trkpt><trkpt lat="43.8655635" lon="6.4578722"><ele>1095.0</ele><time>2026-05-02T08:26:00.004Z</time></trkpt><trkpt lat="43.8654778" lon="6.4580871"><ele>1098.6666666666667</ele><time>2026-05-02T08:26:01.004Z</time></trkpt><trkpt lat="43.8654239" lon="6.4583094"><ele>1102.3333333333335</ele><time>2026-05-02T08:26:02.003Z</time></trkpt><trkpt lat="43.8653764" lon="6.4585207"><ele>1106.0</ele><time>2026-05-02T08:26:03.004Z</time></trkpt><trkpt lat="43.8653143" lon="6.4587168"><ele>1109.3333333333335</ele><time>2026-05-02T08:26:04.003Z</time></trkpt><trkpt lat="43.8652311" lon="6.4589416"><ele>1112.6666666666667</ele><time>2026-05-02T08:26:05.003Z</time></trkpt><trkpt lat="43.8651798" lon="6.4591498"><ele>1116.0</ele><time>2026-05-02T08:26:06.004Z</time></trkpt><trkpt lat="43.865138" lon="6.4593627"><ele>1116.0</ele><time>2026-05-02T08:26:07.004Z</time></trkpt><trkpt lat="43.8651129" lon="6.4595862"><ele>1116.0</ele><time>2026-05-02T08:26:08.004Z</time></trkpt><trkpt lat="43.8650814" lon="6.4597941"><ele>1116.0</ele><time>2026-05-02T08:26:09.003Z</time></trkpt><trkpt lat="43.8650556" lon="6.4600109"><ele>1114.6666666666667</ele><time>2026-05-02T08:26:10.004Z</time></trkpt><trkpt lat="43.8650292" lon="6.4602202"><ele>1113.3333333333335</ele><time>2026-05-02T08:26:11.003Z</time></trkpt><trkpt lat="43.8649962" lon="6.4604311"><ele>1112.0</ele><time>2026-05-02T08:26:12.004Z</time></trkpt><trkpt lat="43.8649724" lon="6.4606406"><ele>1112.0</ele><time>2026-05-02T08:26:13.004Z</time></trkpt><trkpt lat="43.864951" lon="6.4608051"><ele>1112.0</ele><time>2026-05-02T08:26:14.004Z</time></trkpt><trkpt lat="43.8649318" lon="6.4609584"><ele>1112.0</ele><time>2026-05-02T08:26:15.004Z</time></trkpt><trkpt lat="43.8649136" lon="6.4610774"><ele>1112.0</ele><time>2026-05-02T08:26:16.004Z</time></trkpt><trkpt lat="43.8649074" lon="6.4611933"><ele>1112.0</ele><time>2026-05-02T08:26:17.004Z</time></trkpt><trkpt lat="43.8649044" lon="6.4613211"><ele>1114.0</ele><time>2026-05-02T08:26:18.004Z</time></trkpt><trkpt lat="43.8649165" lon="6.4614326"><ele>1116.0</ele><time>2026-05-02T08:26:19.004Z</time></trkpt><trkpt lat="43.8649588" lon="6.4615188"><ele>1118.0</ele><time>2026-05-02T08:26:20.003Z</time></trkpt><trkpt lat="43.8650113" lon="6.4615692"><ele>1120.0</ele><time>2026-05-02T08:26:21.004Z</time></trkpt><trkpt lat="43.8650846" lon="6.4615671"><ele>1122.0</ele><time>2026-05-02T08:26:22.004Z</time></trkpt><trkpt lat="43.8651694" lon="6.4615759"><ele>1124.0</ele><time>2026-05-02T08:26:23.004Z</time></trkpt><trkpt lat="43.8652521" lon="6.461224"><ele>1126.0</ele><time>2026-05-02T08:26:24.003Z</time></trkpt><trkpt lat="43.8653167" lon="6.4610589"><ele>1128.0</ele><time>2026-05-02T08:26:25.004Z</time></trkpt><trkpt lat="43.8653716" lon="6.4608205"><ele>1130.0</ele><time>2026-05-02T08:26:26.004Z</time></trkpt><trkpt lat="43.8654358" lon="6.4606017"><ele>1128.0</ele><time>2026-05-02T08:26:27.003Z</time></trkpt><trkpt lat="43.8654982" lon="6.46041"><ele>1126.0</ele><time>2026-05-02T08:26:28.004Z</time></trkpt><trkpt lat="43.8655722" lon="6.4602071"><ele>1124.0</ele><time>2026-05-02T08:26:29.004Z</time></trkpt><trkpt lat="43.8656424" lon="6.4600353"><ele>1124.0</ele><time>2026-05-02T08:26:30.003Z</time></trkpt><trkpt lat="43.8657145" lon="6.4598644"><ele>1124.0</ele><time>2026-05-02T08:26:31.004Z</time></trkpt><trkpt lat="43.8657862" lon="6.45969"><ele>1124.0</ele><time>2026-05-02T08:26:32.004Z</time></trkpt><trkpt lat="43.8658962" lon="6.4595777"><ele>1124.0</ele><time>2026-05-02T08:26:33.004Z</time></trkpt><trkpt lat="43.8660021" lon="6.4594741"><ele>1126.6000000000001</ele><time>2026-05-02T08:26:34.004Z</time></trkpt><trkpt lat="43.8661042" lon="6.4593866"><ele>1129.2</ele><time>2026-05-02T08:26:35.003Z</time></trkpt><trkpt lat="43.8661947" lon="6.4593006"><ele>1131.8000000000002</ele><time>2026-05-02T08:26:36.004Z</time></trkpt><trkpt lat="43.8662633" lon="6.4592292"><ele>1134.4</ele><time>2026-05-02T08:26:37.004Z</time></trkpt><trkpt lat="43.8663811" lon="6.4591946"><ele>1137.0</ele><time>2026-05-02T08:26:39.004Z</time></trkpt><trkpt lat="43.8664539" lon="6.4592414"><ele>1137.0</ele><time>2026-05-02T08:26:41.004Z</time></trkpt><trkpt lat="43.8664078" lon="6.4594404"><ele>1137.0</ele><time>2026-05-02T08:26:43.004Z</time></trkpt><trkpt lat="43.8663632" lon="6.4595674"><ele>1137.0</ele><time>2026-05-02T08:26:44.004Z</time></trkpt><trkpt lat="43.8663146" lon="6.4597168"><ele>1137.0</ele><time>2026-05-02T08:26:45.004Z</time></trkpt><trkpt lat="43.8662701" lon="6.4599582"><ele>1139.6666666666667</ele><time>2026-05-02T08:26:46.004Z</time></trkpt><trkpt lat="43.8662124" lon="6.4601353"><ele>1142.3333333333335</ele><time>2026-05-02T08:26:47.004Z</time></trkpt><trkpt lat="43.8661335" lon="6.4603376"><ele>1145.0</ele><time>2026-05-02T08:26:48.004Z</time></trkpt><trkpt lat="43.8660776" lon="6.4605283"><ele>1145.3333333333335</ele><time>2026-05-02T08:26:49.004Z</time></trkpt><trkpt lat="43.8659846" lon="6.4607296"><ele>1145.6666666666667</ele><time>2026-05-02T08:26:50.004Z</time></trkpt><trkpt lat="43.8659076" lon="6.4609216"><ele>1146.0</ele><time>2026-05-02T08:26:51.003Z</time></trkpt><trkpt lat="43.8658356" lon="6.4611214"><ele>1143.6666666666667</ele><time>2026-05-02T08:26:52.004Z</time></trkpt><trkpt lat="43.8657582" lon="6.4613393"><ele>1141.3333333333335</ele><time>2026-05-02T08:26:53.004Z</time></trkpt><trkpt lat="43.8656676" lon="6.4615464"><ele>1139.0</ele><time>2026-05-02T08:26:54.004Z</time></trkpt><trkpt lat="43.8655954" lon="6.4617379"><ele>1139.0</ele><time>2026-05-02T08:26:55.004Z</time></trkpt><trkpt lat="43.8655402" lon="6.4619059"><ele>1139.0</ele><time>2026-05-02T08:26:56.004Z</time></trkpt><trkpt lat="43.8655025" lon="6.4620721"><ele>1139.0</ele><time>2026-05-02T08:26:57.004Z</time></trkpt><trkpt lat="43.8654842" lon="6.4622554"><ele>1139.0</ele><time>2026-05-02T08:26:58.004Z</time></trkpt><trkpt lat="43.8654583" lon="6.4624326"><ele>1141.3333333333335</ele><time>2026-05-02T08:26:59.004Z</time></trkpt><trkpt lat="43.8654617" lon="6.4626741"><ele>1143.6666666666667</ele><time>2026-05-02T08:27:00.004Z</time></trkpt><trkpt lat="43.8654448" lon="6.4628697"><ele>1146.0</ele><time>2026-05-02T08:27:01.004Z</time></trkpt><trkpt lat="43.865428" lon="6.4630804"><ele>1146.75</ele><time>2026-05-02T08:27:02.004Z</time></trkpt><trkpt lat="43.8654232" lon="6.4632978"><ele>1147.5</ele><time>2026-05-02T08:27:03.004Z</time></trkpt><trkpt lat="43.8654216" lon="6.4634974"><ele>1148.25</ele><time>2026-05-02T08:27:04.004Z</time></trkpt><trkpt lat="43.8654274" lon="6.4637036"><ele>1149.0</ele><time>2026-05-02T08:27:05.004Z</time></trkpt><trkpt lat="43.8654317" lon="6.4638781"><ele>1149.25</ele><time>2026-05-02T08:27:06.004Z</time></trkpt><trkpt lat="43.8654139" lon="6.4640553"><ele>1149.5</ele><time>2026-05-02T08:27:07.004Z</time></trkpt><trkpt lat="43.8653886" lon="6.4642354"><ele>1149.75</ele><time>2026-05-02T08:27:08.004Z</time></trkpt><trkpt lat="43.8653684" lon="6.4644119"><ele>1150.0</ele><time>2026-05-02T08:27:09.004Z</time></trkpt><trkpt lat="43.8653382" lon="6.4645363"><ele>1150.5</ele><time>2026-05-02T08:27:10.004Z</time></trkpt><trkpt lat="43.8652813" lon="6.4646974"><ele>1151.0</ele><time>2026-05-02T08:27:11.003Z</time></trkpt><trkpt lat="43.8652123" lon="6.4648658"><ele>1151.5</ele><time>2026-05-02T08:27:12.003Z</time></trkpt><trkpt lat="43.8651438" lon="6.4650175"><ele>1152.0</ele><time>2026-05-02T08:27:13.004Z</time></trkpt><trkpt lat="43.865081" lon="6.4651914"><ele>1149.5</ele><time>2026-05-02T08:27:14.004Z</time></trkpt><trkpt lat="43.8650366" lon="6.4653718"><ele>1147.0</ele><time>2026-05-02T08:27:15.004Z</time></trkpt><trkpt lat="43.8649938" lon="6.4655516"><ele>1144.5</ele><time>2026-05-02T08:27:16.004Z</time></trkpt><trkpt lat="43.8649472" lon="6.4657411"><ele>1142.0</ele><time>2026-05-02T08:27:17.003Z</time></trkpt><trkpt lat="43.8649295" lon="6.4658936"><ele>1141.8</ele><time>2026-05-02T08:27:18.004Z</time></trkpt><trkpt lat="43.8649067" lon="6.4660359"><ele>1141.6</ele><time>2026-05-02T08:27:19.004Z</time></trkpt><trkpt lat="43.8649047" lon="6.4661662"><ele>1141.3999999999999</ele><time>2026-05-02T08:27:20.004Z</time></trkpt><trkpt lat="43.8648823" lon="6.4663018"><ele>1141.2</ele><time>2026-05-02T08:27:21.004Z</time></trkpt><trkpt lat="43.8648917" lon="6.4664122"><ele>1141.0</ele><time>2026-05-02T08:27:22.004Z</time></trkpt><trkpt lat="43.8649366" lon="6.4665326"><ele>1139.5</ele><time>2026-05-02T08:27:23.004Z</time></trkpt><trkpt lat="43.8650219" lon="6.4666174"><ele>1138.0</ele><time>2026-05-02T08:27:24.004Z</time></trkpt><trkpt lat="43.8651043" lon="6.4667003"><ele>1136.5</ele><time>2026-05-02T08:27:25.003Z</time></trkpt><trkpt lat="43.8652565" lon="6.4668017"><ele>1135.0</ele><time>2026-05-02T08:27:26.004Z</time></trkpt><trkpt lat="43.8653694" lon="6.4669258"><ele>1134.6666666666665</ele><time>2026-05-02T08:27:27.004Z</time></trkpt><trkpt lat="43.8655328" lon="6.4670369"><ele>1134.3333333333333</ele><time>2026-05-02T08:27:28.004Z</time></trkpt><trkpt lat="43.8656368" lon="6.4671634"><ele>1134.0</ele><time>2026-05-02T08:27:29.003Z</time></trkpt><trkpt lat="43.8657218" lon="6.4673047"><ele>1134.0</ele><time>2026-05-02T08:27:30.003Z</time></trkpt><trkpt lat="43.8657994" lon="6.4674687"><ele>1134.0</ele><time>2026-05-02T08:27:31.004Z</time></trkpt><trkpt lat="43.8658623" lon="6.4676256"><ele>1134.0</ele><time>2026-05-02T08:27:32.004Z</time></trkpt><trkpt lat="43.8659088" lon="6.4677935"><ele>1134.0</ele><time>2026-05-02T08:27:33.004Z</time></trkpt><trkpt lat="43.8659649" lon="6.4679483"><ele>1132.4</ele><time>2026-05-02T08:27:34.004Z</time></trkpt><trkpt lat="43.8660294" lon="6.4680038"><ele>1130.8000000000002</ele><time>2026-05-02T08:27:35.004Z</time></trkpt><trkpt lat="43.866123" lon="6.4680322"><ele>1129.1999999999998</ele><time>2026-05-02T08:27:36.004Z</time></trkpt><trkpt lat="43.866249" lon="6.4680176"><ele>1127.6</ele><time>2026-05-02T08:27:37.004Z</time></trkpt><trkpt lat="43.8663569" lon="6.4680589"><ele>1126.0</ele><time>2026-05-02T08:27:38.004Z</time></trkpt><trkpt lat="43.8664869" lon="6.4680415"><ele>1127.3333333333333</ele><time>2026-05-02T08:27:39.004Z</time></trkpt><trkpt lat="43.8666335" lon="6.4679118"><ele>1128.6666666666667</ele><time>2026-05-02T08:27:40.004Z</time></trkpt><trkpt lat="43.866771" lon="6.4678069"><ele>1130.0</ele><time>2026-05-02T08:27:41.004Z</time></trkpt><trkpt lat="43.8668855" lon="6.4677625"><ele>1130.0</ele><time>2026-05-02T08:27:42.004Z</time></trkpt><trkpt lat="43.8670308" lon="6.4677073"><ele>1130.0</ele><time>2026-05-02T08:27:43.004Z</time></trkpt><trkpt lat="43.8671749" lon="6.4676863"><ele>1130.0</ele><time>2026-05-02T08:27:44.004Z</time></trkpt><trkpt lat="43.8673054" lon="6.4676988"><ele>1130.0</ele><time>2026-05-02T08:27:45.004Z</time></trkpt><trkpt lat="43.8674482" lon="6.4677366"><ele>1130.0</ele><time>2026-05-02T08:27:46.003Z</time></trkpt><trkpt lat="43.8676104" lon="6.4677544"><ele>1130.0</ele><time>2026-05-02T08:27:47.003Z</time></trkpt><trkpt lat="43.8677391" lon="6.4677311"><ele>1130.0</ele><time>2026-05-02T08:27:48.004Z</time></trkpt><trkpt lat="43.8678621" lon="6.4677084"><ele>1130.0</ele><time>2026-05-02T08:27:49.003Z</time></trkpt><trkpt lat="43.8679804" lon="6.4676377"><ele>1130.0</ele><time>2026-05-02T08:27:50.004Z</time></trkpt><trkpt lat="43.8680985" lon="6.4675433"><ele>1130.0</ele><time>2026-05-02T08:27:51.004Z</time></trkpt><trkpt lat="43.8682145" lon="6.4674658"><ele>1130.0</ele><time>2026-05-02T08:27:52.004Z</time></trkpt><trkpt lat="43.8683397" lon="6.4673949"><ele>1130.0</ele><time>2026-05-02T08:27:53.004Z</time></trkpt><trkpt lat="43.8684557" lon="6.4673568"><ele>1132.0</ele><time>2026-05-02T08:27:54.004Z</time></trkpt><trkpt lat="43.8685305" lon="6.4674404"><ele>1134.0</ele><time>2026-05-02T08:27:55.004Z</time></trkpt><trkpt lat="43.8686225" lon="6.4675536"><ele>1136.0</ele><time>2026-05-02T08:27:56.004Z</time></trkpt><trkpt lat="43.868713" lon="6.4676851"><ele>1138.0</ele><time>2026-05-02T08:27:57.004Z</time></trkpt><trkpt lat="43.8688244" lon="6.4678099"><ele>1136.75</ele><time>2026-05-02T08:27:58.003Z</time></trkpt><trkpt lat="43.8688863" lon="6.4679437"><ele>1135.5</ele><time>2026-05-02T08:27:59.004Z</time></trkpt><trkpt lat="43.8689404" lon="6.4680883"><ele>1134.25</ele><time>2026-05-02T08:28:00.004Z</time></trkpt><trkpt lat="43.8689784" lon="6.468263"><ele>1133.0</ele><time>2026-05-02T08:28:01.004Z</time></trkpt><trkpt lat="43.8689736" lon="6.4684375"><ele>1133.0</ele><time>2026-05-02T08:28:02.004Z</time></trkpt><trkpt lat="43.8689332" lon="6.4686038"><ele>1133.0</ele><time>2026-05-02T08:28:03.004Z</time></trkpt><trkpt lat="43.8689025" lon="6.4687553"><ele>1133.0</ele><time>2026-05-02T08:28:04.003Z</time></trkpt><trkpt lat="43.8688756" lon="6.4689393"><ele>1133.0</ele><time>2026-05-02T08:28:05.004Z</time></trkpt><trkpt lat="43.8688642" lon="6.4690915"><ele>1132.8</ele><time>2026-05-02T08:28:06.004Z</time></trkpt><trkpt lat="43.8689041" lon="6.4692518"><ele>1132.6</ele><time>2026-05-02T08:28:07.004Z</time></trkpt><trkpt lat="43.8689319" lon="6.4693687"><ele>1132.4</ele><time>2026-05-02T08:28:08.004Z</time></trkpt><trkpt lat="43.8689537" lon="6.4694973"><ele>1132.2</ele><time>2026-05-02T08:28:09.004Z</time></trkpt><trkpt lat="43.8688904" lon="6.4696051"><ele>1132.0</ele><time>2026-05-02T08:28:10.004Z</time></trkpt><trkpt lat="43.8688322" lon="6.4697247"><ele>1133.5</ele><time>2026-05-02T08:28:11.004Z</time></trkpt><trkpt lat="43.8687767" lon="6.4698676"><ele>1135.0</ele><time>2026-05-02T08:28:12.004Z</time></trkpt><trkpt lat="43.868726" lon="6.4700322"><ele>1136.5</ele><time>2026-05-02T08:28:13.004Z</time></trkpt><trkpt lat="43.8686719" lon="6.4702193"><ele>1138.0</ele><time>2026-05-02T08:28:14.004Z</time></trkpt><trkpt lat="43.8686208" lon="6.4704203"><ele>1140.25</ele><time>2026-05-02T08:28:15.004Z</time></trkpt><trkpt lat="43.8686075" lon="6.4706192"><ele>1142.5</ele><time>2026-05-02T08:28:16.004Z</time></trkpt><trkpt lat="43.8686166" lon="6.4707951"><ele>1144.75</ele><time>2026-05-02T08:28:17.004Z</time></trkpt><trkpt lat="43.8686191" lon="6.4709722"><ele>1147.0</ele><time>2026-05-02T08:28:18.004Z</time></trkpt><trkpt lat="43.8686177" lon="6.4711229"><ele>1149.4</ele><time>2026-05-02T08:28:19.003Z</time></trkpt><trkpt lat="43.8686068" lon="6.4712852"><ele>1151.8000000000002</ele><time>2026-05-02T08:28:20.004Z</time></trkpt><trkpt lat="43.8685327" lon="6.471396"><ele>1154.2</ele><time>2026-05-02T08:28:21.003Z</time></trkpt><trkpt lat="43.8684662" lon="6.471487"><ele>1156.6000000000001</ele><time>2026-05-02T08:28:22.004Z</time></trkpt><trkpt lat="43.868349" lon="6.4715002"><ele>1159.0</ele><time>2026-05-02T08:28:23.004Z</time></trkpt><trkpt lat="43.8682446" lon="6.4715415"><ele>1154.5</ele><time>2026-05-02T08:28:24.004Z</time></trkpt><trkpt lat="43.8681654" lon="6.4716399"><ele>1150.0</ele><time>2026-05-02T08:28:25.004Z</time></trkpt><trkpt lat="43.8680955" lon="6.4717742"><ele>1145.5</ele><time>2026-05-02T08:28:26.004Z</time></trkpt><trkpt lat="43.8680177" lon="6.4719433"><ele>1141.0</ele><time>2026-05-02T08:28:27.004Z</time></trkpt><trkpt lat="43.8679446" lon="6.4721123"><ele>1141.0</ele><time>2026-05-02T08:28:28.004Z</time></trkpt><trkpt lat="43.8678436" lon="6.4723069"><ele>1141.0</ele><time>2026-05-02T08:28:29.004Z</time></trkpt><trkpt lat="43.867749" lon="6.472496"><ele>1141.0</ele><time>2026-05-02T08:28:30.004Z</time></trkpt><trkpt lat="43.8676547" lon="6.4726813"><ele>1132.0</ele><time>2026-05-02T08:28:31.004Z</time></trkpt><trkpt lat="43.8675639" lon="6.4728593"><ele>1123.0</ele><time>2026-05-02T08:28:32.004Z</time></trkpt><trkpt lat="43.867475" lon="6.4730357"><ele>1114.0</ele><time>2026-05-02T08:28:33.004Z</time></trkpt><trkpt lat="43.8673989" lon="6.4731849"><ele>1105.0</ele><time>2026-05-02T08:28:34.004Z</time></trkpt><trkpt lat="43.8673069" lon="6.4733391"><ele>1105.0</ele><time>2026-05-02T08:28:35.003Z</time></trkpt><trkpt lat="43.8672698" lon="6.4734467"><ele>1105.0</ele><time>2026-05-02T08:28:36.004Z</time></trkpt><trkpt lat="43.8672231" lon="6.4735808"><ele>1105.0</ele><time>2026-05-02T08:28:37.004Z</time></trkpt><trkpt lat="43.8672029" lon="6.473737"><ele>1105.0</ele><time>2026-05-02T08:28:38.004Z</time></trkpt><trkpt lat="43.8672524" lon="6.4738935"><ele>1105.0</ele><time>2026-05-02T08:28:39.003Z</time></trkpt><trkpt lat="43.8672504" lon="6.4740417"><ele>1106.0</ele><time>2026-05-02T08:28:40.004Z</time></trkpt><trkpt lat="43.8671997" lon="6.4741918"><ele>1107.0</ele><time>2026-05-02T08:28:41.003Z</time></trkpt><trkpt lat="43.8671307" lon="6.4743325"><ele>1108.0</ele><time>2026-05-02T08:28:42.003Z</time></trkpt><trkpt lat="43.8670274" lon="6.4744858"><ele>1109.0</ele><time>2026-05-02T08:28:43.004Z</time></trkpt><trkpt lat="43.8669487" lon="6.4746224"><ele>1112.25</ele><time>2026-05-02T08:28:44.004Z</time></trkpt><trkpt lat="43.8668641" lon="6.4747657"><ele>1115.5</ele><time>2026-05-02T08:28:45.004Z</time></trkpt><trkpt lat="43.8667567" lon="6.4749369"><ele>1118.75</ele><time>2026-05-02T08:28:46.004Z</time></trkpt><trkpt lat="43.8666649" lon="6.475101"><ele>1122.0</ele><time>2026-05-02T08:28:47.003Z</time></trkpt><trkpt lat="43.8665917" lon="6.4752894"><ele>1115.6666666666667</ele><time>2026-05-02T08:28:48.004Z</time></trkpt><trkpt lat="43.8665339" lon="6.4755026"><ele>1109.3333333333335</ele><time>2026-05-02T08:28:49.003Z</time></trkpt><trkpt lat="43.8665209" lon="6.4757379"><ele>1103.0</ele><time>2026-05-02T08:28:50.004Z</time></trkpt><trkpt lat="43.8664896" lon="6.4759732"><ele>1103.0</ele><time>2026-05-02T08:28:51.004Z</time></trkpt><trkpt lat="43.8664731" lon="6.476185"><ele>1103.0</ele><time>2026-05-02T08:28:52.003Z</time></trkpt><trkpt lat="43.8664602" lon="6.4763862"><ele>1103.0</ele><time>2026-05-02T08:28:53.004Z</time></trkpt><trkpt lat="43.8664367" lon="6.4765666"><ele>1103.0</ele><time>2026-05-02T08:28:54.003Z</time></trkpt><trkpt lat="43.8664177" lon="6.4767108"><ele>1104.3333333333335</ele><time>2026-05-02T08:28:55.004Z</time></trkpt><trkpt lat="43.8663125" lon="6.4768889"><ele>1105.6666666666667</ele><time>2026-05-02T08:28:56.004Z</time></trkpt><trkpt lat="43.8662297" lon="6.477069"><ele>1107.0</ele><time>2026-05-02T08:28:57.004Z</time></trkpt><trkpt lat="43.8661264" lon="6.477233"><ele>1109.5</ele><time>2026-05-02T08:28:58.004Z</time></trkpt><trkpt lat="43.8660171" lon="6.4773647"><ele>1112.0</ele><time>2026-05-02T08:28:59.004Z</time></trkpt><trkpt lat="43.8659148" lon="6.4774961"><ele>1114.5</ele><time>2026-05-02T08:29:00.004Z</time></trkpt><trkpt lat="43.8658123" lon="6.4776427"><ele>1117.0</ele><time>2026-05-02T08:29:01.004Z</time></trkpt><trkpt lat="43.8657059" lon="6.4777619"><ele>1114.25</ele><time>2026-05-02T08:29:02.004Z</time></trkpt><trkpt lat="43.8656026" lon="6.4778739"><ele>1111.5</ele><time>2026-05-02T08:29:03.004Z</time></trkpt><trkpt lat="43.8655019" lon="6.4779754"><ele>1108.75</ele><time>2026-05-02T08:29:04.004Z</time></trkpt><trkpt lat="43.8654179" lon="6.4780907"><ele>1106.0</ele><time>2026-05-02T08:29:05.004Z</time></trkpt><trkpt lat="43.8653414" lon="6.4781956"><ele>1106.0</ele><time>2026-05-02T08:29:06.004Z</time></trkpt><trkpt lat="43.8652828" lon="6.4783112"><ele>1106.0</ele><time>2026-05-02T08:29:07.003Z</time></trkpt><trkpt lat="43.8652868" lon="6.4784977"><ele>1106.0</ele><time>2026-05-02T08:29:08.004Z</time></trkpt><trkpt lat="43.865263" lon="6.4786818"><ele>1106.0</ele><time>2026-05-02T08:29:09.004Z</time></trkpt><trkpt lat="43.8652669" lon="6.4788963"><ele>1108.3333333333335</ele><time>2026-05-02T08:29:10.004Z</time></trkpt><trkpt lat="43.8652396" lon="6.4790995"><ele>1110.6666666666667</ele><time>2026-05-02T08:29:11.003Z</time></trkpt><trkpt lat="43.8652138" lon="6.4793193"><ele>1113.0</ele><time>2026-05-02T08:29:12.004Z</time></trkpt><trkpt lat="43.865177" lon="6.4795421"><ele>1113.6666666666667</ele><time>2026-05-02T08:29:13.004Z</time></trkpt><trkpt lat="43.8651268" lon="6.4797746"><ele>1114.3333333333335</ele><time>2026-05-02T08:29:14.004Z</time></trkpt><trkpt lat="43.8650787" lon="6.4799528"><ele>1115.0</ele><time>2026-05-02T08:29:15.003Z</time></trkpt><trkpt lat="43.8650254" lon="6.4801421"><ele>1107.75</ele><time>2026-05-02T08:29:16.004Z</time></trkpt><trkpt lat="43.8649667" lon="6.4803413"><ele>1100.5</ele><time>2026-05-02T08:29:17.004Z</time></trkpt><trkpt lat="43.8649219" lon="6.4805349"><ele>1093.25</ele><time>2026-05-02T08:29:18.004Z</time></trkpt><trkpt lat="43.8648868" lon="6.4807122"><ele>1086.0</ele><time>2026-05-02T08:29:19.004Z</time></trkpt><trkpt lat="43.8648548" lon="6.4809347"><ele>1086.0</ele><time>2026-05-02T08:29:20.004Z</time></trkpt><trkpt lat="43.8648006" lon="6.4811073"><ele>1086.0</ele><time>2026-05-02T08:29:21.004Z</time></trkpt><trkpt lat="43.8647185" lon="6.4813182"><ele>1086.0</ele><time>2026-05-02T08:29:22.004Z</time></trkpt><trkpt lat="43.8646099" lon="6.4814593"><ele>1089.5</ele><time>2026-05-02T08:29:23.004Z</time></trkpt><trkpt lat="43.8644943" lon="6.4815901"><ele>1093.0</ele><time>2026-05-02T08:29:24.004Z</time></trkpt><trkpt lat="43.8643748" lon="6.4817106"><ele>1096.5</ele><time>2026-05-02T08:29:25.004Z</time></trkpt><trkpt lat="43.8642821" lon="6.4818221"><ele>1100.0</ele><time>2026-05-02T08:29:26.004Z</time></trkpt><trkpt lat="43.8642024" lon="6.4819652"><ele>1092.5</ele><time>2026-05-02T08:29:27.003Z</time></trkpt><trkpt lat="43.8641271" lon="6.4821273"><ele>1085.0</ele><time>2026-05-02T08:29:28.004Z</time></trkpt><trkpt lat="43.8640652" lon="6.4823035"><ele>1077.5</ele><time>2026-05-02T08:29:29.004Z</time></trkpt><trkpt lat="43.8640251" lon="6.4824602"><ele>1070.0</ele><time>2026-05-02T08:29:30.004Z</time></trkpt><trkpt lat="43.8639795" lon="6.4826798"><ele>1070.0</ele><time>2026-05-02T08:29:31.004Z</time></trkpt><trkpt lat="43.863947" lon="6.4828716"><ele>1070.0</ele><time>2026-05-02T08:29:32.004Z</time></trkpt><trkpt lat="43.8639143" lon="6.4831013"><ele>1070.0</ele><time>2026-05-02T08:29:33.004Z</time></trkpt><trkpt lat="43.8639156" lon="6.4832842"><ele>1070.0</ele><time>2026-05-02T08:29:34.004Z</time></trkpt><trkpt lat="43.8639083" lon="6.4834586"><ele>1070.5</ele><time>2026-05-02T08:29:35.004Z</time></trkpt><trkpt lat="43.8639058" lon="6.4836306"><ele>1071.0</ele><time>2026-05-02T08:29:36.004Z</time></trkpt><trkpt lat="43.8639319" lon="6.483791"><ele>1071.5</ele><time>2026-05-02T08:29:37.004Z</time></trkpt><trkpt lat="43.8639719" lon="6.4839576"><ele>1072.0</ele><time>2026-05-02T08:29:38.003Z</time></trkpt><trkpt lat="43.8640278" lon="6.4841182"><ele>1069.5</ele><time>2026-05-02T08:29:39.003Z</time></trkpt><trkpt lat="43.8640671" lon="6.4842863"><ele>1067.0</ele><time>2026-05-02T08:29:40.004Z</time></trkpt><trkpt lat="43.8640899" lon="6.4844537"><ele>1064.5</ele><time>2026-05-02T08:29:41.004Z</time></trkpt><trkpt lat="43.8640998" lon="6.4846251"><ele>1062.0</ele><time>2026-05-02T08:29:42.004Z</time></trkpt><trkpt lat="43.8640979" lon="6.4847485"><ele>1061.4</ele><time>2026-05-02T08:29:43.003Z</time></trkpt><trkpt lat="43.8641142" lon="6.4848797"><ele>1060.8000000000002</ele><time>2026-05-02T08:29:44.004Z</time></trkpt><trkpt lat="43.8641497" lon="6.4849929"><ele>1060.2</ele><time>2026-05-02T08:29:45.004Z</time></trkpt><trkpt lat="43.8642105" lon="6.4850924"><ele>1059.6000000000001</ele><time>2026-05-02T08:29:46.004Z</time></trkpt><trkpt lat="43.8642628" lon="6.4851923"><ele>1059.0</ele><time>2026-05-02T08:29:47.003Z</time></trkpt><trkpt lat="43.8643399" lon="6.4852494"><ele>1059.0</ele><time>2026-05-02T08:29:48.004Z</time></trkpt><trkpt lat="43.8644477" lon="6.4852767"><ele>1059.0</ele><time>2026-05-02T08:29:49.004Z</time></trkpt><trkpt lat="43.8645538" lon="6.4852057"><ele>1059.0</ele><time>2026-05-02T08:29:50.004Z</time></trkpt><trkpt lat="43.8646526" lon="6.4851599"><ele>1059.0</ele><time>2026-05-02T08:29:51.003Z</time></trkpt><trkpt lat="43.8647464" lon="6.4851324"><ele>1059.0</ele><time>2026-05-02T08:29:52.004Z</time></trkpt><trkpt lat="43.8648242" lon="6.4850952"><ele>1059.0</ele><time>2026-05-02T08:29:53.004Z</time></trkpt><trkpt lat="43.8649227" lon="6.4851466"><ele>1059.0</ele><time>2026-05-02T08:29:55.004Z</time></trkpt><trkpt lat="43.8649008" lon="6.4852885"><ele>1059.0</ele><time>2026-05-02T08:29:57.004Z</time></trkpt><trkpt lat="43.8647606" lon="6.4853726"><ele>1059.0</ele><time>2026-05-02T08:29:59.004Z</time></trkpt><trkpt lat="43.864664" lon="6.4854144"><ele>1056.75</ele><time>2026-05-02T08:30:00.004Z</time></trkpt><trkpt lat="43.8645612" lon="6.4854577"><ele>1054.5</ele><time>2026-05-02T08:30:01.004Z</time></trkpt><trkpt lat="43.8644402" lon="6.4855188"><ele>1052.25</ele><time>2026-05-02T08:30:02.004Z</time></trkpt><trkpt lat="43.8643187" lon="6.4855801"><ele>1050.0</ele><time>2026-05-02T08:30:03.004Z</time></trkpt><trkpt lat="43.8641971" lon="6.48562"><ele>1050.0</ele><time>2026-05-02T08:30:04.004Z</time></trkpt><trkpt lat="43.864073" lon="6.4856379"><ele>1050.0</ele><time>2026-05-02T08:30:05.004Z</time></trkpt><trkpt lat="43.8639639" lon="6.4856312"><ele>1050.0</ele><time>2026-05-02T08:30:06.003Z</time></trkpt><trkpt lat="43.8638526" lon="6.485559"><ele>1050.0</ele><time>2026-05-02T08:30:07.004Z</time></trkpt><trkpt lat="43.8637483" lon="6.4854748"><ele>1051.5</ele><time>2026-05-02T08:30:08.003Z</time></trkpt><trkpt lat="43.8636527" lon="6.4854051"><ele>1053.0</ele><time>2026-05-02T08:30:09.004Z</time></trkpt><trkpt lat="43.8635678" lon="6.4853421"><ele>1054.5</ele><time>2026-05-02T08:30:10.004Z</time></trkpt><trkpt lat="43.8634393" lon="6.4853518"><ele>1056.0</ele><time>2026-05-02T08:30:12.004Z</time></trkpt><trkpt lat="43.8633752" lon="6.4855103"><ele>1054.5</ele><time>2026-05-02T08:30:14.004Z</time></trkpt><trkpt lat="43.8633675" lon="6.4856138"><ele>1053.0</ele><time>2026-05-02T08:30:15.004Z</time></trkpt><trkpt lat="43.863371" lon="6.4857326"><ele>1051.5</ele><time>2026-05-02T08:30:16.004Z</time></trkpt><trkpt lat="43.8635519" lon="6.4858057"><ele>1050.0</ele><time>2026-05-02T08:30:17.004Z</time></trkpt><trkpt lat="43.8636625" lon="6.485889"><ele>1050.0</ele><time>2026-05-02T08:30:18.004Z</time></trkpt><trkpt lat="43.8637594" lon="6.4860128"><ele>1050.0</ele><time>2026-05-02T08:30:19.003Z</time></trkpt><trkpt lat="43.8638585" lon="6.4861662"><ele>1050.0</ele><time>2026-05-02T08:30:20.004Z</time></trkpt><trkpt lat="43.863952" lon="6.4863165"><ele>1050.0</ele><time>2026-05-02T08:30:21.004Z</time></trkpt><trkpt lat="43.8640473" lon="6.4864607"><ele>1047.0</ele><time>2026-05-02T08:30:22.004Z</time></trkpt><trkpt lat="43.8641412" lon="6.4865937"><ele>1044.0</ele><time>2026-05-02T08:30:23.003Z</time></trkpt><trkpt lat="43.8642362" lon="6.4867463"><ele>1041.0</ele><time>2026-05-02T08:30:24.004Z</time></trkpt><trkpt lat="43.8643361" lon="6.4868535"><ele>1038.0</ele><time>2026-05-02T08:30:25.004Z</time></trkpt><trkpt lat="43.8644501" lon="6.4869538"><ele>1037.0</ele><time>2026-05-02T08:30:26.004Z</time></trkpt><trkpt lat="43.8645714" lon="6.4870533"><ele>1036.0</ele><time>2026-05-02T08:30:27.004Z</time></trkpt><trkpt lat="43.8646874" lon="6.4870739"><ele>1035.0</ele><time>2026-05-02T08:30:28.004Z</time></trkpt><trkpt lat="43.8648302" lon="6.487091"><ele>1034.0</ele><time>2026-05-02T08:30:29.004Z</time></trkpt><trkpt lat="43.8649521" lon="6.4870923"><ele>1034.0</ele><time>2026-05-02T08:30:30.003Z</time></trkpt><trkpt lat="43.8650542" lon="6.4870752"><ele>1034.0</ele><time>2026-05-02T08:30:31.004Z</time></trkpt><trkpt lat="43.8651547" lon="6.4869722"><ele>1034.0</ele><time>2026-05-02T08:30:32.004Z</time></trkpt><trkpt lat="43.8652499" lon="6.4868526"><ele>1034.0</ele><time>2026-05-02T08:30:33.004Z</time></trkpt><trkpt lat="43.8653284" lon="6.4867286"><ele>1031.25</ele><time>2026-05-02T08:30:34.004Z</time></trkpt><trkpt lat="43.8653761" lon="6.4865748"><ele>1028.5</ele><time>2026-05-02T08:30:35.004Z</time></trkpt><trkpt lat="43.8654545" lon="6.4864537"><ele>1025.75</ele><time>2026-05-02T08:30:36.003Z</time></trkpt><trkpt lat="43.8655525" lon="6.4863722"><ele>1023.0</ele><time>2026-05-02T08:30:37.004Z</time></trkpt><trkpt lat="43.8656534" lon="6.4863883"><ele>1023.0</ele><time>2026-05-02T08:30:38.004Z</time></trkpt><trkpt lat="43.8657509" lon="6.4864122"><ele>1023.0</ele><time>2026-05-02T08:30:39.004Z</time></trkpt><trkpt lat="43.8658452" lon="6.4864403"><ele>1023.0</ele><time>2026-05-02T08:30:40.003Z</time></trkpt><trkpt lat="43.865947" lon="6.4864839"><ele>1023.0</ele><time>2026-05-02T08:30:41.003Z</time></trkpt><trkpt lat="43.8660706" lon="6.4865422"><ele>1023.0</ele><time>2026-05-02T08:30:42.003Z</time></trkpt><trkpt lat="43.8661886" lon="6.4865766"><ele>1021.0</ele><time>2026-05-02T08:30:43.004Z</time></trkpt><trkpt lat="43.8663405" lon="6.4865913"><ele>1019.0</ele><time>2026-05-02T08:30:44.004Z</time></trkpt><trkpt lat="43.8664687" lon="6.4865876"><ele>1017.0</ele><time>2026-05-02T08:30:45.003Z</time></trkpt><trkpt lat="43.8665861" lon="6.4865608"><ele>1015.0</ele><time>2026-05-02T08:30:46.004Z</time></trkpt><trkpt lat="43.8667128" lon="6.4864837"><ele>1015.25</ele><time>2026-05-02T08:30:47.003Z</time></trkpt><trkpt lat="43.8668357" lon="6.4863933"><ele>1015.5</ele><time>2026-05-02T08:30:48.004Z</time></trkpt><trkpt lat="43.8669532" lon="6.4863002"><ele>1015.75</ele><time>2026-05-02T08:30:49.003Z</time></trkpt><trkpt lat="43.8670503" lon="6.4862345"><ele>1016.0</ele><time>2026-05-02T08:30:50.004Z</time></trkpt><trkpt lat="43.867146" lon="6.4861798"><ele>1016.0</ele><time>2026-05-02T08:30:51.004Z</time></trkpt><trkpt lat="43.867228" lon="6.4861478"><ele>1015.9999999999999</ele><time>2026-05-02T08:30:52.003Z</time></trkpt><trkpt lat="43.8673226" lon="6.4861241"><ele>1015.9999999999999</ele><time>2026-05-02T08:30:53.004Z</time></trkpt><trkpt lat="43.8673914" lon="6.4861383"><ele>1016.0</ele><time>2026-05-02T08:30:54.004Z</time></trkpt><trkpt lat="43.8675099" lon="6.486349"><ele>1016.0</ele><time>2026-05-02T08:30:56.004Z</time></trkpt><trkpt lat="43.8674749" lon="6.4865002"><ele>1013.0</ele><time>2026-05-02T08:30:57.004Z</time></trkpt><trkpt lat="43.8674358" lon="6.4866316"><ele>1010.0</ele><time>2026-05-02T08:30:58.004Z</time></trkpt><trkpt lat="43.8673427" lon="6.4867988"><ele>1007.0</ele><time>2026-05-02T08:30:59.004Z</time></trkpt><trkpt lat="43.8671963" lon="6.4869054"><ele>1004.0</ele><time>2026-05-02T08:31:00.004Z</time></trkpt><trkpt lat="43.8670916" lon="6.4870536"><ele>1002.0</ele><time>2026-05-02T08:31:01.004Z</time></trkpt><trkpt lat="43.8669844" lon="6.4871591"><ele>1000.0</ele><time>2026-05-02T08:31:02.004Z</time></trkpt><trkpt lat="43.8668744" lon="6.4872602"><ele>998.0</ele><time>2026-05-02T08:31:03.004Z</time></trkpt><trkpt lat="43.866747" lon="6.4873266"><ele>996.0</ele><time>2026-05-02T08:31:04.004Z</time></trkpt><trkpt lat="43.8666334" lon="6.4874031"><ele>996.0</ele><time>2026-05-02T08:31:05.003Z</time></trkpt><trkpt lat="43.8665107" lon="6.4873864"><ele>996.0</ele><time>2026-05-02T08:31:06.004Z</time></trkpt><trkpt lat="43.8654545" lon="6.4864537"><ele>999.8</ele><time>2026-05-02T08:30:36.003Z</time></trkpt><trkpt lat="43.8655525" lon="6.4863722"><ele>1003.5999999999999</ele><time>2026-05-02T08:30:37.004Z</time></trkpt><trkpt lat="43.8656534" lon="6.4863883"><ele>1007.4</ele><time>2026-05-02T08:30:38.004Z</time></trkpt><trkpt lat="43.8657509" lon="6.4864122"><ele>1011.2</ele><time>2026-05-02T08:30:39.004Z</time></trkpt><trkpt lat="43.8658452" lon="6.4864403"><ele>1015.0</ele><time>2026-05-02T08:30:40.003Z</time></trkpt><trkpt lat="43.865947" lon="6.4864839"><ele>1015.0</ele><time>2026-05-02T08:30:41.003Z</time></trkpt><trkpt lat="43.8660706" lon="6.4865422"><ele>1015.0</ele><time>2026-05-02T08:30:42.003Z</time></trkpt><trkpt lat="43.8661886" lon="6.4865766"><ele>1015.0</ele><time>2026-05-02T08:30:43.004Z</time></trkpt><trkpt lat="43.8663405" lon="6.4865913"><ele>1015.0</ele><time>2026-05-02T08:30:44.004Z</time></trkpt><trkpt lat="43.8664687" lon="6.4865876"><ele>1015.0</ele><time>2026-05-02T08:30:45.003Z</time></trkpt><trkpt lat="43.8665861" lon="6.4865608"><ele>1015.0</ele><time>2026-05-02T08:30:46.004Z</time></trkpt><trkpt lat="43.8667128" lon="6.4864837"><ele>1015.0</ele><time>2026-05-02T08:30:47.003Z</time></trkpt><trkpt lat="43.8668357" lon="6.4863933"><ele>1015.0</ele><time>2026-05-02T08:30:48.004Z</time></trkpt><trkpt lat="43.8669532" lon="6.4863002"><ele>1015.2</ele><time>2026-05-02T08:30:49.003Z</time></trkpt><trkpt lat="43.8670503" lon="6.4862345"><ele>1015.4</ele><time>2026-05-02T08:30:50.004Z</time></trkpt><trkpt lat="43.867146" lon="6.4861798"><ele>1015.5999999999999</ele><time>2026-05-02T08:30:51.004Z</time></trkpt><trkpt lat="43.867228" lon="6.4861478"><ele>1015.8</ele><time>2026-05-02T08:30:52.003Z</time></trkpt><trkpt lat="43.8673226" lon="6.4861241"><ele>1016.0</ele><time>2026-05-02T08:30:53.004Z</time></trkpt><trkpt lat="43.8673914" lon="6.4861383"><ele>1013.0</ele><time>2026-05-02T08:30:54.004Z</time></trkpt><trkpt lat="43.8675099" lon="6.486349"><ele>1010.0</ele><time>2026-05-02T08:30:56.004Z</time></trkpt><trkpt lat="43.8674749" lon="6.4865002"><ele>1007.0</ele><time>2026-05-02T08:30:57.004Z</time></trkpt><trkpt lat="43.8674358" lon="6.4866316"><ele>1004.0</ele><time>2026-05-02T08:30:58.004Z</time></trkpt><trkpt lat="43.8673427" lon="6.4867988"><ele>1004.0</ele><time>2026-05-02T08:30:59.004Z</time></trkpt><trkpt lat="43.8671963" lon="6.4869054"><ele>1004.0</ele><time>2026-05-02T08:31:00.004Z</time></trkpt><trkpt lat="43.8670916" lon="6.4870536"><ele>1004.0</ele><time>2026-05-02T08:31:01.004Z</time></trkpt><trkpt lat="43.8669844" lon="6.4871591"><ele>1004.0</ele><time>2026-05-02T08:31:02.004Z</time></trkpt><trkpt lat="43.8668744" lon="6.4872602"><ele>1002.0</ele><time>2026-05-02T08:31:03.004Z</time></trkpt><trkpt lat="43.866747" lon="6.4873266"><ele>1000.0</ele><time>2026-05-02T08:31:04.004Z</time></trkpt><trkpt lat="43.8666334" lon="6.4874031"><ele>998.0</ele><time>2026-05-02T08:31:05.003Z</time></trkpt><trkpt lat="43.8665107" lon="6.4873864"><ele>996.0</ele><time>2026-05-02T08:31:06.004Z</time></trkpt><trkpt lat="43.8663928" lon="6.4873993"><ele>996.0</ele><time>2026-05-02T08:31:07.003Z</time></trkpt><trkpt lat="43.86628" lon="6.4874399"><ele>996.0</ele><time>2026-05-02T08:31:08.004Z</time></trkpt><trkpt lat="43.866193" lon="6.4875279"><ele>996.0</ele><time>2026-05-02T08:31:09.004Z</time></trkpt><trkpt lat="43.8661344" lon="6.4877013"><ele>996.0</ele><time>2026-05-02T08:31:10.003Z</time></trkpt><trkpt lat="43.8661011" lon="6.4878688"><ele>996.25</ele><time>2026-05-02T08:31:11.004Z</time></trkpt><trkpt lat="43.8660475" lon="6.4880548"><ele>996.5</ele><time>2026-05-02T08:31:12.004Z</time></trkpt><trkpt lat="43.8659885" lon="6.4882157"><ele>996.75</ele><time>2026-05-02T08:31:13.003Z</time></trkpt><trkpt lat="43.8659121" lon="6.4883833"><ele>997.0</ele><time>2026-05-02T08:31:14.004Z</time></trkpt><trkpt lat="43.8658411" lon="6.4885377"><ele>997.0</ele><time>2026-05-02T08:31:15.004Z</time></trkpt><trkpt lat="43.865759" lon="6.4886904"><ele>997.0</ele><time>2026-05-02T08:31:16.004Z</time></trkpt><trkpt lat="43.8656785" lon="6.4888249"><ele>997.0</ele><time>2026-05-02T08:31:17.004Z</time></trkpt><trkpt lat="43.8655754" lon="6.4889499"><ele>997.0</ele><time>2026-05-02T08:31:18.004Z</time></trkpt><trkpt lat="43.865481" lon="6.4890756"><ele>994.75</ele><time>2026-05-02T08:31:19.003Z</time></trkpt><trkpt lat="43.8653576" lon="6.4891382"><ele>992.5</ele><time>2026-05-02T08:31:20.004Z</time></trkpt><trkpt lat="43.8652143" lon="6.4891978"><ele>990.25</ele><time>2026-05-02T08:31:21.004Z</time></trkpt><trkpt lat="43.8650679" lon="6.4892366"><ele>988.0</ele><time>2026-05-02T08:31:22.004Z</time></trkpt><trkpt lat="43.8649421" lon="6.4892978"><ele>988.0</ele><time>2026-05-02T08:31:23.004Z</time></trkpt><trkpt lat="43.8648198" lon="6.4893671"><ele>988.0</ele><time>2026-05-02T08:31:24.004Z</time></trkpt><trkpt lat="43.8647178" lon="6.4894672"><ele>988.0</ele><time>2026-05-02T08:31:25.004Z</time></trkpt><trkpt lat="43.8646065" lon="6.4895618"><ele>988.0</ele><time>2026-05-02T08:31:26.004Z</time></trkpt><trkpt lat="43.8644705" lon="6.4896438"><ele>983.25</ele><time>2026-05-02T08:31:27.004Z</time></trkpt><trkpt lat="43.8643313" lon="6.48968"><ele>978.5</ele><time>2026-05-02T08:31:28.004Z</time></trkpt><trkpt lat="43.8641993" lon="6.4897133"><ele>973.75</ele><time>2026-05-02T08:31:29.003Z</time></trkpt><trkpt lat="43.864051" lon="6.489751"><ele>969.0</ele><time>2026-05-02T08:31:30.004Z</time></trkpt><trkpt lat="43.8639127" lon="6.4897974"><ele>969.5</ele><time>2026-05-02T08:31:31.003Z</time></trkpt><trkpt lat="43.8637703" lon="6.489853"><ele>970.0</ele><time>2026-05-02T08:31:32.004Z</time></trkpt><trkpt lat="43.8636201" lon="6.4899079"><ele>970.5</ele><time>2026-05-02T08:31:33.004Z</time></trkpt><trkpt lat="43.8634958" lon="6.4899704"><ele>971.0</ele><time>2026-05-02T08:31:34.004Z</time></trkpt><trkpt lat="43.8633628" lon="6.490032"><ele>971.0</ele><time>2026-05-02T08:31:35.004Z</time></trkpt><trkpt lat="43.8632389" lon="6.4900544"><ele>971.0</ele><time>2026-05-02T08:31:36.004Z</time></trkpt><trkpt lat="43.86312" lon="6.4900034"><ele>971.0</ele><time>2026-05-02T08:31:37.004Z</time></trkpt><trkpt lat="43.8629779" lon="6.489947"><ele>971.0</ele><time>2026-05-02T08:31:38.004Z</time></trkpt><trkpt lat="43.8628391" lon="6.4898923"><ele>971.0</ele><time>2026-05-02T08:31:39.004Z</time></trkpt><trkpt lat="43.8626988" lon="6.4898413"><ele>971.0</ele><time>2026-05-02T08:31:40.004Z</time></trkpt><trkpt lat="43.8625626" lon="6.4897968"><ele>971.0</ele><time>2026-05-02T08:31:41.004Z</time></trkpt><trkpt lat="43.8624297" lon="6.4897747"><ele>971.0</ele><time>2026-05-02T08:31:42.004Z</time></trkpt><trkpt lat="43.8622985" lon="6.4897635"><ele>970.5999999999999</ele><time>2026-05-02T08:31:43.003Z</time></trkpt><trkpt lat="43.862178" lon="6.4897712"><ele>970.1999999999999</ele><time>2026-05-02T08:31:44.004Z</time></trkpt><trkpt lat="43.8620566" lon="6.4897838"><ele>969.8000000000001</ele><time>2026-05-02T08:31:45.004Z</time></trkpt><trkpt lat="43.8619609" lon="6.4897546"><ele>969.4000000000001</ele><time>2026-05-02T08:31:46.004Z</time></trkpt><trkpt lat="43.8618719" lon="6.4897"><ele>969.0</ele><time>2026-05-02T08:31:47.004Z</time></trkpt><trkpt lat="43.8617887" lon="6.4896651"><ele>968.0</ele><time>2026-05-02T08:31:48.004Z</time></trkpt><trkpt lat="43.861755" lon="6.4895437"><ele>967.0000000000001</ele><time>2026-05-02T08:31:49.004Z</time></trkpt><trkpt lat="43.8617131" lon="6.4894595"><ele>966.0000000000001</ele><time>2026-05-02T08:31:50.004Z</time></trkpt><trkpt lat="43.861632" lon="6.4894016"><ele>965.0</ele><time>2026-05-02T08:31:52.003Z</time></trkpt><trkpt lat="43.8615482" lon="6.4894095"><ele>964.0</ele><time>2026-05-02T08:31:54.004Z</time></trkpt><trkpt lat="43.8615088" lon="6.489571"><ele>965.25</ele><time>2026-05-02T08:31:56.004Z</time></trkpt><trkpt lat="43.8616152" lon="6.4897297"><ele>966.5</ele><time>2026-05-02T08:31:57.004Z</time></trkpt><trkpt lat="43.8617259" lon="6.4898883"><ele>967.75</ele><time>2026-05-02T08:31:58.004Z</time></trkpt><trkpt lat="43.8617884" lon="6.4900363"><ele>969.0</ele><time>2026-05-02T08:31:59.004Z</time></trkpt><trkpt lat="43.861909" lon="6.4902117"><ele>969.0</ele><time>2026-05-02T08:32:00.003Z</time></trkpt><trkpt lat="43.8620125" lon="6.4903586"><ele>969.0</ele><time>2026-05-02T08:32:01.003Z</time></trkpt><trkpt lat="43.8621132" lon="6.4905032"><ele>969.0</ele><time>2026-05-02T08:32:02.004Z</time></trkpt><trkpt lat="43.8622325" lon="6.4906665"><ele>964.75</ele><time>2026-05-02T08:32:03.004Z</time></trkpt><trkpt lat="43.8623242" lon="6.4908029"><ele>960.5</ele><time>2026-05-02T08:32:04.004Z</time></trkpt><trkpt lat="43.8624214" lon="6.4909393"><ele>956.25</ele><time>2026-05-02T08:32:05.003Z</time></trkpt><trkpt lat="43.8625053" lon="6.4910469"><ele>952.0</ele><time>2026-05-02T08:32:06.004Z</time></trkpt><trkpt lat="43.8625701" lon="6.4911065"><ele>950.75</ele><time>2026-05-02T08:32:07.004Z</time></trkpt><trkpt lat="43.8626569" lon="6.4911237"><ele>949.5</ele><time>2026-05-02T08:32:08.004Z</time></trkpt><trkpt lat="43.8627709" lon="6.4911352"><ele>948.25</ele><time>2026-05-02T08:32:09.004Z</time></trkpt><trkpt lat="43.8629069" lon="6.4912013"><ele>947.0</ele><time>2026-05-02T08:32:10.004Z</time></trkpt><trkpt lat="43.8630252" lon="6.491099"><ele>947.0</ele><time>2026-05-02T08:32:11.004Z</time></trkpt><trkpt lat="43.8631609" lon="6.4910733"><ele>947.0</ele><time>2026-05-02T08:32:12.004Z</time></trkpt><trkpt lat="43.8633275" lon="6.4909547"><ele>947.0</ele><time>2026-05-02T08:32:13.003Z</time></trkpt><trkpt lat="43.863482" lon="6.4908673"><ele>942.6666666666667</ele><time>2026-05-02T08:32:14.004Z</time></trkpt><trkpt lat="43.8636474" lon="6.4908037"><ele>938.3333333333333</ele><time>2026-05-02T08:32:15.004Z</time></trkpt><trkpt lat="43.863848" lon="6.4906893"><ele>934.0</ele><time>2026-05-02T08:32:16.003Z</time></trkpt><trkpt lat="43.8640456" lon="6.4906409"><ele>934.0</ele><time>2026-05-02T08:32:17.004Z</time></trkpt><trkpt lat="43.8641919" lon="6.4906333"><ele>934.0</ele><time>2026-05-02T08:32:18.004Z</time></trkpt><trkpt lat="43.8643452" lon="6.4906263"><ele>934.0</ele><time>2026-05-02T08:32:19.004Z</time></trkpt><trkpt lat="43.8644859" lon="6.4906259"><ele>934.0</ele><time>2026-05-02T08:32:20.004Z</time></trkpt><trkpt lat="43.8646365" lon="6.4906342"><ele>932.6666666666666</ele><time>2026-05-02T08:32:21.004Z</time></trkpt><trkpt lat="43.8647778" lon="6.4906245"><ele>931.3333333333333</ele><time>2026-05-02T08:32:22.004Z</time></trkpt><trkpt lat="43.864934" lon="6.4906227"><ele>930.0</ele><time>2026-05-02T08:32:23.004Z</time></trkpt><trkpt lat="43.8650887" lon="6.4906135"><ele>931.75</ele><time>2026-05-02T08:32:24.004Z</time></trkpt><trkpt lat="43.8652444" lon="6.4906211"><ele>933.5</ele><time>2026-05-02T08:32:25.004Z</time></trkpt><trkpt lat="43.8653806" lon="6.4906526"><ele>935.25</ele><time>2026-05-02T08:32:26.004Z</time></trkpt><trkpt lat="43.8655105" lon="6.490713"><ele>937.0</ele><time>2026-05-02T08:32:27.004Z</time></trkpt><trkpt lat="43.865638" lon="6.4908162"><ele>937.0</ele><time>2026-05-02T08:32:28.004Z</time></trkpt><trkpt lat="43.8657504" lon="6.4909089"><ele>937.0</ele><time>2026-05-02T08:32:29.004Z</time></trkpt><trkpt lat="43.865877" lon="6.4909706"><ele>937.0</ele><time>2026-05-02T08:32:30.004Z</time></trkpt><trkpt lat="43.8659811" lon="6.4910307"><ele>937.0</ele><time>2026-05-02T08:32:31.004Z</time></trkpt><trkpt lat="43.8661026" lon="6.4911002"><ele>935.2</ele><time>2026-05-02T08:32:32.004Z</time></trkpt><trkpt lat="43.8662375" lon="6.4911336"><ele>933.4000000000001</ele><time>2026-05-02T08:32:33.003Z</time></trkpt><trkpt lat="43.8663511" lon="6.4911331"><ele>931.5999999999999</ele><time>2026-05-02T08:32:34.004Z</time></trkpt><trkpt lat="43.8664442" lon="6.4911412"><ele>929.8</ele><time>2026-05-02T08:32:35.004Z</time></trkpt><trkpt lat="43.8665366" lon="6.4911571"><ele>928.0</ele><time>2026-05-02T08:32:36.003Z</time></trkpt><trkpt lat="43.8665429" lon="6.4912528"><ele>922.5999999999999</ele><time>2026-05-02T08:32:37.003Z</time></trkpt><trkpt lat="43.8665426" lon="6.4914467"><ele>917.1999999999999</ele><time>2026-05-02T08:32:39.004Z</time></trkpt><trkpt lat="43.8664701" lon="6.4915026"><ele>911.8</ele><time>2026-05-02T08:32:40.004Z</time></trkpt><trkpt lat="43.8664066" lon="6.4915511"><ele>906.4</ele><time>2026-05-02T08:32:41.004Z</time></trkpt><trkpt lat="43.8663206" lon="6.4915269"><ele>901.0</ele><time>2026-05-02T08:32:42.004Z</time></trkpt><trkpt lat="43.8662243" lon="6.4915112"><ele>901.0</ele><time>2026-05-02T08:32:43.004Z</time></trkpt><trkpt lat="43.866108" lon="6.4914644"><ele>901.0</ele><time>2026-05-02T08:32:44.004Z</time></trkpt><trkpt lat="43.8658992" lon="6.4913408"><ele>901.0</ele><time>2026-05-02T08:32:45.003Z</time></trkpt><trkpt lat="43.8657359" lon="6.4912692"><ele>913.0</ele><time>2026-05-02T08:32:46.004Z</time></trkpt><trkpt lat="43.8655924" lon="6.4912175"><ele>925.0</ele><time>2026-05-02T08:32:47.004Z</time></trkpt><trkpt lat="43.8654199" lon="6.4911479"><ele>937.0</ele><time>2026-05-02T08:32:48.004Z</time></trkpt><trkpt lat="43.8652848" lon="6.4911102"><ele>934.6666666666666</ele><time>2026-05-02T08:32:49.003Z</time></trkpt><trkpt lat="43.8651095" lon="6.4910891"><ele>932.3333333333333</ele><time>2026-05-02T08:32:50.004Z</time></trkpt><trkpt lat="43.8649421" lon="6.4911139"><ele>930.0</ele><time>2026-05-02T08:32:51.004Z</time></trkpt><trkpt lat="43.8647766" lon="6.4911636"><ele>930.0</ele><time>2026-05-02T08:32:52.004Z</time></trkpt><trkpt lat="43.8646101" lon="6.491202"><ele>930.0</ele><time>2026-05-02T08:32:53.004Z</time></trkpt><trkpt lat="43.864456" lon="6.4912535"><ele>930.0</ele><time>2026-05-02T08:32:54.004Z</time></trkpt><trkpt lat="43.8642907" lon="6.4913298"><ele>918.6666666666667</ele><time>2026-05-02T08:32:55.004Z</time></trkpt><trkpt lat="43.8641341" lon="6.4914192"><ele>907.3333333333334</ele><time>2026-05-02T08:32:56.004Z</time></trkpt><trkpt lat="43.8639743" lon="6.4915333"><ele>896.0</ele><time>2026-05-02T08:32:57.004Z</time></trkpt><trkpt lat="43.8638367" lon="6.4916488"><ele>896.0</ele><time>2026-05-02T08:32:58.003Z</time></trkpt><trkpt lat="43.8637048" lon="6.4917688"><ele>896.0</ele><time>2026-05-02T08:32:59.004Z</time></trkpt><trkpt lat="43.8635776" lon="6.4918829"><ele>896.0</ele><time>2026-05-02T08:33:00.003Z</time></trkpt><trkpt lat="43.8634272" lon="6.4920276"><ele>890.3333333333334</ele><time>2026-05-02T08:33:01.003Z</time></trkpt><trkpt lat="43.8632739" lon="6.4921508"><ele>884.6666666666667</ele><time>2026-05-02T08:33:02.004Z</time></trkpt><trkpt lat="43.8631738" lon="6.492234"><ele>879.0</ele><time>2026-05-02T08:33:03.004Z</time></trkpt><trkpt lat="43.8629866" lon="6.4922762"><ele>879.0</ele><time>2026-05-02T08:33:04.004Z</time></trkpt><trkpt lat="43.8628273" lon="6.4923508"><ele>879.0</ele><time>2026-05-02T08:33:05.003Z</time></trkpt><trkpt lat="43.8626801" lon="6.4924107"><ele>879.0</ele><time>2026-05-02T08:33:06.004Z</time></trkpt><trkpt lat="43.8625324" lon="6.4924646"><ele>882.75</ele><time>2026-05-02T08:33:07.003Z</time></trkpt><trkpt lat="43.8623959" lon="6.4925228"><ele>886.5</ele><time>2026-05-02T08:33:08.004Z</time></trkpt><trkpt lat="43.8622767" lon="6.4926"><ele>890.25</ele><time>2026-05-02T08:33:09.004Z</time></trkpt><trkpt lat="43.862139" lon="6.4926682"><ele>894.0</ele><time>2026-05-02T08:33:10.003Z</time></trkpt><trkpt lat="43.8619961" lon="6.4927278"><ele>894.0</ele><time>2026-05-02T08:33:11.004Z</time></trkpt><trkpt lat="43.8618646" lon="6.492787"><ele>894.0</ele><time>2026-05-02T08:33:12.004Z</time></trkpt><trkpt lat="43.8617325" lon="6.4928193"><ele>894.0</ele><time>2026-05-02T08:33:13.004Z</time></trkpt><trkpt lat="43.8615913" lon="6.4927928"><ele>894.0</ele><time>2026-05-02T08:33:14.004Z</time></trkpt><trkpt lat="43.8614728" lon="6.4927608"><ele>897.0</ele><time>2026-05-02T08:33:15.004Z</time></trkpt><trkpt lat="43.8613177" lon="6.4927588"><ele>900.0</ele><time>2026-05-02T08:33:16.004Z</time></trkpt><trkpt lat="43.8611603" lon="6.4927532"><ele>903.0</ele><time>2026-05-02T08:33:17.004Z</time></trkpt><trkpt lat="43.8610219" lon="6.4927363"><ele>900.0</ele><time>2026-05-02T08:33:18.004Z</time></trkpt><trkpt lat="43.8608719" lon="6.4927075"><ele>897.0</ele><time>2026-05-02T08:33:19.004Z</time></trkpt><trkpt lat="43.8607378" lon="6.4926782"><ele>894.0</ele><time>2026-05-02T08:33:20.003Z</time></trkpt><trkpt lat="43.8605833" lon="6.4926452"><ele>891.0</ele><time>2026-05-02T08:33:21.004Z</time></trkpt><trkpt lat="43.8604581" lon="6.4926562"><ele>891.0</ele><time>2026-05-02T08:33:22.004Z</time></trkpt><trkpt lat="43.8603273" lon="6.4926647"><ele>891.0</ele><time>2026-05-02T08:33:23.003Z</time></trkpt><trkpt lat="43.8601859" lon="6.4927044"><ele>891.0</ele><time>2026-05-02T08:33:24.004Z</time></trkpt><trkpt lat="43.8600486" lon="6.492735"><ele>891.0</ele><time>2026-05-02T08:33:25.004Z</time></trkpt><trkpt lat="43.8599615" lon="6.4927678"><ele>887.4</ele><time>2026-05-02T08:33:26.003Z</time></trkpt><trkpt lat="43.8598743" lon="6.4928114"><ele>883.8</ele><time>2026-05-02T08:33:27.004Z</time></trkpt><trkpt lat="43.8597964" lon="6.4928339"><ele>880.1999999999999</ele><time>2026-05-02T08:33:28.004Z</time></trkpt><trkpt lat="43.8597351" lon="6.4928025"><ele>876.5999999999999</ele><time>2026-05-02T08:33:29.004Z</time></trkpt><trkpt lat="43.859644" lon="6.4927093"><ele>873.0</ele><time>2026-05-02T08:33:31.004Z</time></trkpt><trkpt lat="43.8596706" lon="6.4924687"><ele>873.0</ele><time>2026-05-02T08:33:33.003Z</time></trkpt><trkpt lat="43.859736" lon="6.492302"><ele>873.0</ele><time>2026-05-02T08:33:34.004Z</time></trkpt><trkpt lat="43.85985" lon="6.492042"><ele>873.0</ele><time>2026-05-02T08:33:35.003Z</time></trkpt><trkpt lat="43.8599243" lon="6.4918505"><ele>869.75</ele><time>2026-05-02T08:33:36.003Z</time></trkpt><trkpt lat="43.8599761" lon="6.4916945"><ele>866.5</ele><time>2026-05-02T08:33:37.004Z</time></trkpt><trkpt lat="43.8600722" lon="6.4915667"><ele>863.25</ele><time>2026-05-02T08:33:38.004Z</time></trkpt><trkpt lat="43.860154" lon="6.4914578"><ele>860.0</ele><time>2026-05-02T08:33:39.004Z</time></trkpt><trkpt lat="43.8602582" lon="6.4913343"><ele>868.6</ele><time>2026-05-02T08:33:40.004Z</time></trkpt><trkpt lat="43.8603733" lon="6.4911965"><ele>877.2</ele><time>2026-05-02T08:33:41.004Z</time></trkpt><trkpt lat="43.8604033" lon="6.4910861"><ele>885.8</ele><time>2026-05-02T08:33:42.004Z</time></trkpt><trkpt lat="43.8604186" lon="6.4909575"><ele>894.4</ele><time>2026-05-02T08:33:43.003Z</time></trkpt><trkpt lat="43.8603881" lon="6.4908342"><ele>903.0</ele><time>2026-05-02T08:33:44.004Z</time></trkpt><trkpt lat="43.8603096" lon="6.4906988"><ele>903.0</ele><time>2026-05-02T08:33:45.004Z</time></trkpt><trkpt lat="43.8602498" lon="6.4905741"><ele>903.0</ele><time>2026-05-02T08:33:46.003Z</time></trkpt><trkpt lat="43.8601893" lon="6.4904564"><ele>903.0</ele><time>2026-05-02T08:33:47.004Z</time></trkpt><trkpt lat="43.8602117" lon="6.4902509"><ele>903.0</ele><time>2026-05-02T08:33:48.004Z</time></trkpt><trkpt lat="43.8602254" lon="6.4900801"><ele>903.8</ele><time>2026-05-02T08:33:49.004Z</time></trkpt><trkpt lat="43.8602293" lon="6.4899207"><ele>904.5999999999999</ele><time>2026-05-02T08:33:50.004Z</time></trkpt><trkpt lat="43.8602231" lon="6.489795"><ele>905.4000000000001</ele><time>2026-05-02T08:33:51.004Z</time></trkpt><trkpt lat="43.860207" lon="6.4896765"><ele>906.2</ele><time>2026-05-02T08:33:52.003Z</time></trkpt><trkpt lat="43.8601892" lon="6.4895529"><ele>907.0</ele><time>2026-05-02T08:33:53.003Z</time></trkpt><trkpt lat="43.860178" lon="6.48942"><ele>908.6666666666666</ele><time>2026-05-02T08:33:54.003Z</time></trkpt><trkpt lat="43.8601413" lon="6.4893384"><ele>910.3333333333333</ele><time>2026-05-02T08:33:55.004Z</time></trkpt><trkpt lat="43.8600801" lon="6.4892665"><ele>912.0</ele><time>2026-05-02T08:33:56.004Z</time></trkpt><trkpt lat="43.8600098" lon="6.4892244"><ele>913.6666666666667</ele><time>2026-05-02T08:33:57.004Z</time></trkpt><trkpt lat="43.8599346" lon="6.4892203"><ele>915.3333333333334</ele><time>2026-05-02T08:33:58.004Z</time></trkpt><trkpt lat="43.8598651" lon="6.4892526"><ele>917.0</ele><time>2026-05-02T08:33:59.004Z</time></trkpt><trkpt lat="43.8598097" lon="6.4893234"><ele>902.5</ele><time>2026-05-02T08:34:00.004Z</time></trkpt><trkpt lat="43.8599167" lon="6.4895249"><ele>888.0</ele><time>2026-05-02T08:34:01.004Z</time></trkpt><trkpt lat="43.8599419" lon="6.4896551"><ele>873.5</ele><time>2026-05-02T08:34:02.003Z</time></trkpt><trkpt lat="43.8599778" lon="6.4898273"><ele>859.0</ele><time>2026-05-02T08:34:03.003Z</time></trkpt><trkpt lat="43.859967" lon="6.490004"><ele>858.5</ele><time>2026-05-02T08:34:04.004Z</time></trkpt><trkpt lat="43.8599538" lon="6.49017"><ele>858.0</ele><time>2026-05-02T08:34:05.004Z</time></trkpt><trkpt lat="43.8599391" lon="6.4903658"><ele>857.5</ele><time>2026-05-02T08:34:06.003Z</time></trkpt><trkpt lat="43.8599419" lon="6.4905153"><ele>857.0</ele><time>2026-05-02T08:34:07.004Z</time></trkpt><trkpt lat="43.8599682" lon="6.4906752"><ele>857.75</ele><time>2026-05-02T08:34:08.004Z</time></trkpt><trkpt lat="43.8600167" lon="6.4908084"><ele>858.5</ele><time>2026-05-02T08:34:09.003Z</time></trkpt><trkpt lat="43.8600615" lon="6.4909317"><ele>859.25</ele><time>2026-05-02T08:34:10.004Z</time></trkpt><trkpt lat="43.8600725" lon="6.4910615"><ele>860.0</ele><time>2026-05-02T08:34:11.004Z</time></trkpt><trkpt lat="43.8599997" lon="6.4912849"><ele>860.0</ele><time>2026-05-02T08:34:13.004Z</time></trkpt><trkpt lat="43.8598449" lon="6.4914387"><ele>860.0</ele><time>2026-05-02T08:34:14.004Z</time></trkpt><trkpt lat="43.8596469" lon="6.4915586"><ele>860.0</ele><time>2026-05-02T08:34:15.004Z</time></trkpt><trkpt lat="43.8594992" lon="6.4917047"><ele>860.0</ele><time>2026-05-02T08:34:16.004Z</time></trkpt><trkpt lat="43.8593704" lon="6.4918468"><ele>860.0</ele><time>2026-05-02T08:34:17.004Z</time></trkpt><trkpt lat="43.8592527" lon="6.4919711"><ele>860.0</ele><time>2026-05-02T08:34:18.004Z</time></trkpt><trkpt lat="43.8591393" lon="6.4921199"><ele>853.0</ele><time>2026-05-02T08:34:19.004Z</time></trkpt><trkpt lat="43.8590445" lon="6.4923059"><ele>846.0</ele><time>2026-05-02T08:34:20.004Z</time></trkpt><trkpt lat="43.8589858" lon="6.4925153"><ele>839.0</ele><time>2026-05-02T08:34:21.004Z</time></trkpt><trkpt lat="43.8589151" lon="6.4926887"><ele>839.0</ele><time>2026-05-02T08:34:22.003Z</time></trkpt><trkpt lat="43.8588351" lon="6.4928706"><ele>839.0</ele><time>2026-05-02T08:34:23.004Z</time></trkpt><trkpt lat="43.8587538" lon="6.4930217"><ele>839.0</ele><time>2026-05-02T08:34:24.004Z</time></trkpt><trkpt lat="43.8586557" lon="6.4931576"><ele>839.0</ele><time>2026-05-02T08:34:25.004Z</time></trkpt><trkpt lat="43.8585622" lon="6.4933159"><ele>840.0</ele><time>2026-05-02T08:34:26.004Z</time></trkpt><trkpt lat="43.8585159" lon="6.4934359"><ele>841.0</ele><time>2026-05-02T08:34:27.004Z</time></trkpt><trkpt lat="43.8584621" lon="6.4935594"><ele>842.0</ele><time>2026-05-02T08:34:28.003Z</time></trkpt><trkpt lat="43.8584111" lon="6.4936784"><ele>843.0</ele><time>2026-05-02T08:34:29.004Z</time></trkpt><trkpt lat="43.8584214" lon="6.4938129"><ele>844.0</ele><time>2026-05-02T08:34:30.004Z</time></trkpt><trkpt lat="43.8584197" lon="6.4939445"><ele>840.0</ele><time>2026-05-02T08:34:31.004Z</time></trkpt><trkpt lat="43.8584518" lon="6.4940811"><ele>836.0</ele><time>2026-05-02T08:34:32.004Z</time></trkpt><trkpt lat="43.8584987" lon="6.4942088"><ele>832.0</ele><time>2026-05-02T08:34:33.004Z</time></trkpt><trkpt lat="43.8585905" lon="6.4943061"><ele>828.0</ele><time>2026-05-02T08:34:34.004Z</time></trkpt><trkpt lat="43.8586798" lon="6.4944074"><ele>824.0</ele><time>2026-05-02T08:34:35.004Z</time></trkpt><trkpt lat="43.8587612" lon="6.4945037"><ele>824.0</ele><time>2026-05-02T08:34:36.004Z</time></trkpt><trkpt lat="43.8589021" lon="6.4945736"><ele>824.0</ele><time>2026-05-02T08:34:37.003Z</time></trkpt><trkpt lat="43.8591041" lon="6.494587"><ele>824.0</ele><time>2026-05-02T08:34:38.004Z</time></trkpt><trkpt lat="43.8592782" lon="6.4946386"><ele>815.6666666666667</ele><time>2026-05-02T08:34:39.004Z</time></trkpt><trkpt lat="43.8594215" lon="6.4946926"><ele>807.3333333333333</ele><time>2026-05-02T08:34:40.004Z</time></trkpt><trkpt lat="43.8595744" lon="6.4947167"><ele>799.0</ele><time>2026-05-02T08:34:41.004Z</time></trkpt><trkpt lat="43.8597543" lon="6.4947368"><ele>799.0</ele><time>2026-05-02T08:34:42.004Z</time></trkpt><trkpt lat="43.8598955" lon="6.4947507"><ele>799.0</ele><time>2026-05-02T08:34:43.003Z</time></trkpt><trkpt lat="43.860106" lon="6.4947237"><ele>799.0</ele><time>2026-05-02T08:34:44.004Z</time></trkpt><trkpt lat="43.8602692" lon="6.4946931"><ele>800.0</ele><time>2026-05-02T08:34:45.004Z</time></trkpt><trkpt lat="43.8604108" lon="6.4947383"><ele>801.0</ele><time>2026-05-02T08:34:46.004Z</time></trkpt><trkpt lat="43.8605507" lon="6.4947698"><ele>802.0</ele><time>2026-05-02T08:34:47.004Z</time></trkpt><trkpt lat="43.8606801" lon="6.4947896"><ele>803.0</ele><time>2026-05-02T08:34:48.004Z</time></trkpt><trkpt lat="43.8607813" lon="6.494818"><ele>803.0000000000001</ele><time>2026-05-02T08:34:49.003Z</time></trkpt><trkpt lat="43.8608512" lon="6.4948899"><ele>803.0</ele><time>2026-05-02T08:34:50.004Z</time></trkpt><trkpt lat="43.8609293" lon="6.4949609"><ele>803.0</ele><time>2026-05-02T08:34:51.004Z</time></trkpt><trkpt lat="43.8609836" lon="6.4950589"><ele>803.0</ele><time>2026-05-02T08:34:52.004Z</time></trkpt><trkpt lat="43.8610126" lon="6.49514"><ele>803.0000000000001</ele><time>2026-05-02T08:34:53.003Z</time></trkpt><trkpt lat="43.8609802" lon="6.4952812"><ele>803.0</ele><time>2026-05-02T08:34:54.004Z</time></trkpt><trkpt lat="43.8609189" lon="6.4954239"><ele>803.0</ele><time>2026-05-02T08:34:55.004Z</time></trkpt><trkpt lat="43.8608646" lon="6.49548"><ele>803.0</ele><time>2026-05-02T08:34:56.004Z</time></trkpt><trkpt lat="43.8607645" lon="6.4955402"><ele>803.0</ele><time>2026-05-02T08:34:57.004Z</time></trkpt><trkpt lat="43.860649" lon="6.4955428"><ele>803.0</ele><time>2026-05-02T08:34:58.003Z</time></trkpt><trkpt lat="43.8605424" lon="6.495486"><ele>803.0</ele><time>2026-05-02T08:34:59.004Z</time></trkpt><trkpt lat="43.8603874" lon="6.4953922"><ele>803.0</ele><time>2026-05-02T08:35:00.004Z</time></trkpt><trkpt lat="43.8602664" lon="6.4953204"><ele>803.0</ele><time>2026-05-02T08:35:01.004Z</time></trkpt><trkpt lat="43.8600954" lon="6.4951962"><ele>803.0</ele><time>2026-05-02T08:35:02.004Z</time></trkpt><trkpt lat="43.8599803" lon="6.495099"><ele>801.6666666666667</ele><time>2026-05-02T08:35:03.003Z</time></trkpt><trkpt lat="43.8598369" lon="6.4950884"><ele>800.3333333333333</ele><time>2026-05-02T08:35:04.003Z</time></trkpt><trkpt lat="43.8596875" lon="6.4950784"><ele>799.0</ele><time>2026-05-02T08:35:05.004Z</time></trkpt><trkpt lat="43.8595231" lon="6.4950383"><ele>799.0</ele><time>2026-05-02T08:35:06.004Z</time></trkpt><trkpt lat="43.8593807" lon="6.4950137"><ele>799.0</ele><time>2026-05-02T08:35:07.004Z</time></trkpt><trkpt lat="43.8592075" lon="6.4949893"><ele>799.0</ele><time>2026-05-02T08:35:08.003Z</time></trkpt><trkpt lat="43.8590463" lon="6.4949495"><ele>796.3333333333333</ele><time>2026-05-02T08:35:09.004Z</time></trkpt><trkpt lat="43.8588596" lon="6.4949549"><ele>793.6666666666667</ele><time>2026-05-02T08:35:10.003Z</time></trkpt><trkpt lat="43.8586989" lon="6.4949491"><ele>791.0</ele><time>2026-05-02T08:35:11.004Z</time></trkpt><trkpt lat="43.8585182" lon="6.4950187"><ele>789.3333333333334</ele><time>2026-05-02T08:35:12.003Z</time></trkpt><trkpt lat="43.8583516" lon="6.4950494"><ele>787.6666666666667</ele><time>2026-05-02T08:35:13.003Z</time></trkpt><trkpt lat="43.8582022" lon="6.4950911"><ele>786.0</ele><time>2026-05-02T08:35:14.003Z</time></trkpt><trkpt lat="43.858045" lon="6.4951079"><ele>786.0</ele><time>2026-05-02T08:35:15.004Z</time></trkpt><trkpt lat="43.8579142" lon="6.495116"><ele>786.0</ele><time>2026-05-02T08:35:16.004Z</time></trkpt><trkpt lat="43.8577788" lon="6.4951285"><ele>786.0</ele><time>2026-05-02T08:35:17.004Z</time></trkpt><trkpt lat="43.8576728" lon="6.4951601"><ele>786.0</ele><time>2026-05-02T08:35:18.004Z</time></trkpt><trkpt lat="43.8575669" lon="6.4951726"><ele>785.5</ele><time>2026-05-02T08:35:19.004Z</time></trkpt><trkpt lat="43.8574588" lon="6.495189"><ele>785.0</ele><time>2026-05-02T08:35:20.004Z</time></trkpt><trkpt lat="43.857362" lon="6.4953258"><ele>784.5</ele><time>2026-05-02T08:35:21.003Z</time></trkpt><trkpt lat="43.8572396" lon="6.4954259"><ele>784.0</ele><time>2026-05-02T08:35:22.003Z</time></trkpt><trkpt lat="43.857144" lon="6.4955255"><ele>780.0</ele><time>2026-05-02T08:35:23.004Z</time></trkpt><trkpt lat="43.8570628" lon="6.4955821"><ele>776.0</ele><time>2026-05-02T08:35:24.004Z</time></trkpt><trkpt lat="43.8569385" lon="6.4956196"><ele>772.0</ele><time>2026-05-02T08:35:25.004Z</time></trkpt><trkpt lat="43.8568194" lon="6.4956168"><ele>768.0</ele><time>2026-05-02T08:35:26.004Z</time></trkpt><trkpt lat="43.856665" lon="6.4955817"><ele>768.0</ele><time>2026-05-02T08:35:27.004Z</time></trkpt><trkpt lat="43.8565404" lon="6.4955399"><ele>768.0</ele><time>2026-05-02T08:35:28.004Z</time></trkpt><trkpt lat="43.8564061" lon="6.4955072"><ele>768.0</ele><time>2026-05-02T08:35:29.004Z</time></trkpt><trkpt lat="43.8562721" lon="6.4955145"><ele>768.0</ele><time>2026-05-02T08:35:30.004Z</time></trkpt><trkpt lat="43.8561652" lon="6.4955813"><ele>768.0</ele><time>2026-05-02T08:35:31.004Z</time></trkpt><trkpt lat="43.8560506" lon="6.4956205"><ele>768.0</ele><time>2026-05-02T08:35:32.004Z</time></trkpt><trkpt lat="43.8559516" lon="6.4957066"><ele>768.0</ele><time>2026-05-02T08:35:33.004Z</time></trkpt><trkpt lat="43.8558711" lon="6.49581"><ele>768.0</ele><time>2026-05-02T08:35:34.003Z</time></trkpt><trkpt lat="43.8558634" lon="6.4960356"><ele>766.6666666666666</ele><time>2026-05-02T08:35:35.004Z</time></trkpt><trkpt lat="43.8558334" lon="6.4962339"><ele>765.3333333333333</ele><time>2026-05-02T08:35:36.003Z</time></trkpt><trkpt lat="43.855796" lon="6.4964719"><ele>764.0</ele><time>2026-05-02T08:35:37.004Z</time></trkpt><trkpt lat="43.8557699" lon="6.4966932"><ele>762.6666666666666</ele><time>2026-05-02T08:35:38.003Z</time></trkpt><trkpt lat="43.8557496" lon="6.4969501"><ele>761.3333333333334</ele><time>2026-05-02T08:35:39.004Z</time></trkpt><trkpt lat="43.855759" lon="6.4972697"><ele>760.0</ele><time>2026-05-02T08:35:40.004Z</time></trkpt><trkpt lat="43.8557563" lon="6.4975108"><ele>759.6666666666667</ele><time>2026-05-02T08:35:41.004Z</time></trkpt><trkpt lat="43.8557586" lon="6.4977671"><ele>759.3333333333334</ele><time>2026-05-02T08:35:42.003Z</time></trkpt><trkpt lat="43.855749" lon="6.4980248"><ele>759.0</ele><time>2026-05-02T08:35:43.004Z</time></trkpt><trkpt lat="43.8557392" lon="6.4982711"><ele>758.3333333333334</ele><time>2026-05-02T08:35:44.004Z</time></trkpt><trkpt lat="43.8557341" lon="6.4985068"><ele>757.6666666666667</ele><time>2026-05-02T08:35:45.003Z</time></trkpt><trkpt lat="43.8557297" lon="6.4987355"><ele>757.0</ele><time>2026-05-02T08:35:46.004Z</time></trkpt><trkpt lat="43.8557282" lon="6.4989618"><ele>756.75</ele><time>2026-05-02T08:35:47.004Z</time></trkpt><trkpt lat="43.8557238" lon="6.499175"><ele>756.5</ele><time>2026-05-02T08:35:48.004Z</time></trkpt><trkpt lat="43.8557333" lon="6.4993877"><ele>756.25</ele><time>2026-05-02T08:35:49.004Z</time></trkpt><trkpt lat="43.8557309" lon="6.4995533"><ele>756.0</ele><time>2026-05-02T08:35:50.004Z</time></trkpt><trkpt lat="43.8557337" lon="6.4997341"><ele>755.5</ele><time>2026-05-02T08:35:51.004Z</time></trkpt><trkpt lat="43.8557249" lon="6.4998699"><ele>755.0</ele><time>2026-05-02T08:35:52.003Z</time></trkpt><trkpt lat="43.8557028" lon="6.5000268"><ele>754.5</ele><time>2026-05-02T08:35:53.004Z</time></trkpt><trkpt lat="43.8556883" lon="6.500169"><ele>754.0</ele><time>2026-05-02T08:35:54.003Z</time></trkpt><trkpt lat="43.8556371" lon="6.5003502"><ele>753.25</ele><time>2026-05-02T08:35:55.003Z</time></trkpt><trkpt lat="43.8555828" lon="6.5005099"><ele>752.5</ele><time>2026-05-02T08:35:56.004Z</time></trkpt><trkpt lat="43.8554804" lon="6.500614"><ele>751.75</ele><time>2026-05-02T08:35:57.004Z</time></trkpt><trkpt lat="43.8553871" lon="6.5007271"><ele>751.0</ele><time>2026-05-02T08:35:58.004Z</time></trkpt><trkpt lat="43.8552868" lon="6.5008543"><ele>751.0</ele><time>2026-05-02T08:35:59.004Z</time></trkpt><trkpt lat="43.8551956" lon="6.5010128"><ele>751.0</ele><time>2026-05-02T08:36:00.003Z</time></trkpt><trkpt lat="43.855101" lon="6.501135"><ele>751.0</ele><time>2026-05-02T08:36:01.004Z</time></trkpt><trkpt lat="43.8550121" lon="6.5012769"><ele>751.0</ele><time>2026-05-02T08:36:02.004Z</time></trkpt><trkpt lat="43.8549113" lon="6.5014136"><ele>750.25</ele><time>2026-05-02T08:36:03.004Z</time></trkpt><trkpt lat="43.8548122" lon="6.5015342"><ele>749.5</ele><time>2026-05-02T08:36:04.004Z</time></trkpt><trkpt lat="43.8547052" lon="6.5016608"><ele>748.75</ele><time>2026-05-02T08:36:05.003Z</time></trkpt><trkpt lat="43.8546019" lon="6.501802"><ele>748.0</ele><time>2026-05-02T08:36:06.004Z</time></trkpt><trkpt lat="43.8545089" lon="6.5019327"><ele>748.0</ele><time>2026-05-02T08:36:07.004Z</time></trkpt><trkpt lat="43.8544114" lon="6.502058"><ele>748.0</ele><time>2026-05-02T08:36:08.004Z</time></trkpt><trkpt lat="43.8543049" lon="6.5021978"><ele>748.0</ele><time>2026-05-02T08:36:09.004Z</time></trkpt><trkpt lat="43.8542207" lon="6.5023507"><ele>748.0</ele><time>2026-05-02T08:36:10.004Z</time></trkpt><trkpt lat="43.8541436" lon="6.5025003"><ele>747.25</ele><time>2026-05-02T08:36:11.004Z</time></trkpt><trkpt lat="43.854073" lon="6.5026539"><ele>746.5</ele><time>2026-05-02T08:36:12.004Z</time></trkpt><trkpt lat="43.854006" lon="6.502798"><ele>745.75</ele><time>2026-05-02T08:36:13.004Z</time></trkpt><trkpt lat="43.8539434" lon="6.5029414"><ele>745.0</ele><time>2026-05-02T08:36:14.003Z</time></trkpt><trkpt lat="43.8538846" lon="6.5030741"><ele>744.25</ele><time>2026-05-02T08:36:15.003Z</time></trkpt><trkpt lat="43.8538244" lon="6.5032248"><ele>743.5</ele><time>2026-05-02T08:36:16.004Z</time></trkpt><trkpt lat="43.853759" lon="6.5033695"><ele>742.75</ele><time>2026-05-02T08:36:17.004Z</time></trkpt><trkpt lat="43.8537062" lon="6.5035147"><ele>742.0</ele><time>2026-05-02T08:36:18.004Z</time></trkpt><trkpt lat="43.8536496" lon="6.5036547"><ele>741.75</ele><time>2026-05-02T08:36:19.004Z</time></trkpt><trkpt lat="43.8535973" lon="6.5037906"><ele>741.5</ele><time>2026-05-02T08:36:20.004Z</time></trkpt><trkpt lat="43.8535295" lon="6.5039255"><ele>741.25</ele><time>2026-05-02T08:36:21.004Z</time></trkpt><trkpt lat="43.85347" lon="6.5040567"><ele>741.0</ele><time>2026-05-02T08:36:22.004Z</time></trkpt><trkpt lat="43.8534081" lon="6.5041829"><ele>741.0</ele><time>2026-05-02T08:36:23.004Z</time></trkpt><trkpt lat="43.853356" lon="6.504282"><ele>741.0</ele><time>2026-05-02T08:36:24.004Z</time></trkpt><trkpt lat="43.8532836" lon="6.504398"><ele>741.0</ele><time>2026-05-02T08:36:25.004Z</time></trkpt><trkpt lat="43.8532283" lon="6.5045239"><ele>741.0</ele><time>2026-05-02T08:36:26.004Z</time></trkpt><trkpt lat="43.853174" lon="6.5046501"><ele>741.0</ele><time>2026-05-02T08:36:27.004Z</time></trkpt><trkpt lat="43.8531062" lon="6.5048203"><ele>741.0</ele><time>2026-05-02T08:36:28.004Z</time></trkpt><trkpt lat="43.8530459" lon="6.5049791"><ele>741.0</ele><time>2026-05-02T08:36:29.004Z</time></trkpt><trkpt lat="43.8529746" lon="6.5051456"><ele>741.0</ele><time>2026-05-02T08:36:30.004Z</time></trkpt><trkpt lat="43.8529135" lon="6.5052997"><ele>741.0</ele><time>2026-05-02T08:36:31.004Z</time></trkpt><trkpt lat="43.8528408" lon="6.5054528"><ele>741.0</ele><time>2026-05-02T08:36:32.004Z</time></trkpt><trkpt lat="43.8527765" lon="6.505605"><ele>741.0</ele><time>2026-05-02T08:36:33.004Z</time></trkpt><trkpt lat="43.8527155" lon="6.5057439"><ele>741.0</ele><time>2026-05-02T08:36:34.004Z</time></trkpt><trkpt lat="43.8526468" lon="6.5059053"><ele>741.0</ele><time>2026-05-02T08:36:35.004Z</time></trkpt><trkpt lat="43.8525652" lon="6.5060627"><ele>742.0</ele><time>2026-05-02T08:36:36.003Z</time></trkpt><trkpt lat="43.8525074" lon="6.5061961"><ele>743.0</ele><time>2026-05-02T08:36:37.004Z</time></trkpt><trkpt lat="43.8524401" lon="6.5063414"><ele>744.0</ele><time>2026-05-02T08:36:38.004Z</time></trkpt><trkpt lat="43.8523721" lon="6.5064884"><ele>745.0</ele><time>2026-05-02T08:36:39.004Z</time></trkpt><trkpt lat="43.8523086" lon="6.506629"><ele>745.0</ele><time>2026-05-02T08:36:40.004Z</time></trkpt><trkpt lat="43.8522502" lon="6.5067612"><ele>745.0</ele><time>2026-05-02T08:36:41.004Z</time></trkpt><trkpt lat="43.852195" lon="6.5068785"><ele>745.0</ele><time>2026-05-02T08:36:42.004Z</time></trkpt><trkpt lat="43.8521595" lon="6.5069735"><ele>745.0</ele><time>2026-05-02T08:36:43.004Z</time></trkpt><trkpt lat="43.8521182" lon="6.5070525"><ele>745.0</ele><time>2026-05-02T08:36:44.004Z</time></trkpt><trkpt lat="43.8520419" lon="6.5071577"><ele>745.0</ele><time>2026-05-02T08:36:46.003Z</time></trkpt><trkpt lat="43.8519504" lon="6.5072955"><ele>745.0</ele><time>2026-05-02T08:36:48.004Z</time></trkpt><trkpt lat="43.8519041" lon="6.5073814"><ele>745.0</ele><time>2026-05-02T08:36:49.004Z</time></trkpt><trkpt lat="43.8518433" lon="6.5074596"><ele>745.0</ele><time>2026-05-02T08:36:50.003Z</time></trkpt><trkpt lat="43.8517786" lon="6.5075356"><ele>745.0</ele><time>2026-05-02T08:36:51.003Z</time></trkpt><trkpt lat="43.8517119" lon="6.5075815"><ele>745.2857142857142</ele><time>2026-05-02T08:36:52.004Z</time></trkpt><trkpt lat="43.8516364" lon="6.5076325"><ele>745.5714285714286</ele><time>2026-05-02T08:36:53.004Z</time></trkpt><trkpt lat="43.8515635" lon="6.5076602"><ele>745.8571428571429</ele><time>2026-05-02T08:36:54.004Z</time></trkpt><trkpt lat="43.8514987" lon="6.5076951"><ele>746.1428571428571</ele><time>2026-05-02T08:36:55.004Z</time></trkpt><trkpt lat="43.8514354" lon="6.5077283"><ele>746.4285714285714</ele><time>2026-05-02T08:36:56.004Z</time></trkpt><trkpt lat="43.8513988" lon="6.5078032"><ele>746.7142857142857</ele><time>2026-05-02T08:36:57.004Z</time></trkpt><trkpt lat="43.8513894" lon="6.5079014"><ele>747.0</ele><time>2026-05-02T08:36:58.003Z</time></trkpt><trkpt lat="43.8514077" lon="6.5079873"><ele>747.0</ele><time>2026-05-02T08:36:59.003Z</time></trkpt><trkpt lat="43.8514946" lon="6.5080816"><ele>747.0</ele><time>2026-05-02T08:37:01.004Z</time></trkpt><trkpt lat="43.8515546" lon="6.5081101"><ele>747.0</ele><time>2026-05-02T08:37:02.004Z</time></trkpt><trkpt lat="43.8516392" lon="6.5081274"><ele>747.0</ele><time>2026-05-02T08:37:03.004Z</time></trkpt><trkpt lat="43.851719" lon="6.5081543"><ele>747.0</ele><time>2026-05-02T08:37:04.004Z</time></trkpt><trkpt lat="43.8517937" lon="6.5082033"><ele>747.0</ele><time>2026-05-02T08:37:05.003Z</time></trkpt><trkpt lat="43.8518579" lon="6.5082529"><ele>747.0</ele><time>2026-05-02T08:37:06.004Z</time></trkpt><trkpt lat="43.8519155" lon="6.5083048"><ele>747.0</ele><time>2026-05-02T08:37:07.003Z</time></trkpt><trkpt lat="43.8520226" lon="6.5083348"><ele>747.0</ele><time>2026-05-02T08:37:09.003Z</time></trkpt><trkpt lat="43.8521009" lon="6.5082908"><ele>747.0</ele><time>2026-05-02T08:37:11.004Z</time></trkpt><trkpt lat="43.8521312" lon="6.5081757"><ele>747.0</ele><time>2026-05-02T08:37:13.003Z</time></trkpt><trkpt lat="43.8521146" lon="6.5080604"><ele>747.0</ele><time>2026-05-02T08:37:15.003Z</time></trkpt><trkpt lat="43.8520665" lon="6.5079439"><ele>747.0</ele><time>2026-05-02T08:37:17.004Z</time></trkpt><trkpt lat="43.8520192" lon="6.50784"><ele>747.0</ele><time>2026-05-02T08:37:19.004Z</time></trkpt><trkpt lat="43.851982" lon="6.5077444"><ele>747.0</ele><time>2026-05-02T08:37:21.004Z</time></trkpt><trkpt lat="43.8519091" lon="6.5076891"><ele>747.0</ele><time>2026-05-02T08:37:24.004Z</time></trkpt><trkpt lat="43.8518608" lon="6.5077547"><ele>747.0</ele><time>2026-05-02T08:37:27.004Z</time></trkpt><trkpt lat="43.8519599" lon="6.5079766"><ele>746.9999999999999</ele><time>2026-05-02T08:42:52.004Z</time></trkpt><trkpt lat="43.852012" lon="6.5080419"><ele>747.0</ele><time>2026-05-02T08:42:56.003Z</time></trkpt><trkpt lat="43.8520849" lon="6.5080258"><ele>747.0</ele><time>2026-05-02T08:43:05.004Z</time></trkpt><trkpt lat="43.8521265" lon="6.5079579"><ele>747.0</ele><time>2026-05-02T08:43:12.004Z</time></trkpt><trkpt lat="43.8521853" lon="6.5079093"><ele>747.0</ele><time>2026-05-02T08:43:16.004Z</time></trkpt><trkpt lat="43.8522545" lon="6.5079122"><ele>746.9999999999999</ele><time>2026-05-02T08:43:22.004Z</time></trkpt><trkpt lat="43.8521989" lon="6.5079625"><ele>747.0</ele><time>2026-05-02T08:44:13.004Z</time></trkpt><trkpt lat="43.8521338" lon="6.5079773"><ele>747.0</ele><time>2026-05-02T08:44:18.004Z</time></trkpt><trkpt lat="43.8521173" lon="6.5080625"><ele>747.0</ele><time>2026-05-02T08:44:20.004Z</time></trkpt><trkpt lat="43.8520675" lon="6.5081645"><ele>747.0</ele><time>2026-05-02T08:44:24.004Z</time></trkpt><trkpt lat="43.8519998" lon="6.5081759"><ele>747.0</ele><time>2026-05-02T08:44:25.004Z</time></trkpt><trkpt lat="43.8518967" lon="6.5081277"><ele>747.0</ele><time>2026-05-02T08:44:27.004Z</time></trkpt><trkpt lat="43.851792" lon="6.5080193"><ele>747.0</ele><time>2026-05-02T08:44:29.003Z</time></trkpt><trkpt lat="43.8517405" lon="6.5079435"><ele>747.0</ele><time>2026-05-02T08:44:30.004Z</time></trkpt><trkpt lat="43.8517051" lon="6.5078673"><ele>747.0</ele><time>2026-05-02T08:44:31.003Z</time></trkpt><trkpt lat="43.8516239" lon="6.5077397"><ele>747.0</ele><time>2026-05-02T08:44:33.004Z</time></trkpt><trkpt lat="43.8514851" lon="6.5077538"><ele>747.0</ele><time>2026-05-02T08:44:35.004Z</time></trkpt><trkpt lat="43.851401" lon="6.507842"><ele>747.0</ele><time>2026-05-02T08:44:36.003Z</time></trkpt><trkpt lat="43.851345" lon="6.5078995"><ele>747.0</ele><time>2026-05-02T08:44:37.004Z</time></trkpt><trkpt lat="43.8512537" lon="6.5079428"><ele>747.0</ele><time>2026-05-02T08:44:38.004Z</time></trkpt><trkpt lat="43.8511531" lon="6.5080211"><ele>747.0</ele><time>2026-05-02T08:44:39.004Z</time></trkpt><trkpt lat="43.8510186" lon="6.5081113"><ele>747.0</ele><time>2026-05-02T08:44:40.004Z</time></trkpt><trkpt lat="43.8509112" lon="6.5081833"><ele>746.75</ele><time>2026-05-02T08:44:41.003Z</time></trkpt><trkpt lat="43.8508161" lon="6.5082538"><ele>746.5</ele><time>2026-05-02T08:44:42.004Z</time></trkpt><trkpt lat="43.8506969" lon="6.508304"><ele>746.25</ele><time>2026-05-02T08:44:43.004Z</time></trkpt><trkpt lat="43.8505726" lon="6.5083622"><ele>746.0</ele><time>2026-05-02T08:44:44.003Z</time></trkpt><trkpt lat="43.850449" lon="6.5084111"><ele>746.0</ele><time>2026-05-02T08:44:45.004Z</time></trkpt><trkpt lat="43.8503658" lon="6.5084424"><ele>746.0</ele><time>2026-05-02T08:44:46.004Z</time></trkpt><trkpt lat="43.850258" lon="6.5084934"><ele>746.0</ele><time>2026-05-02T08:44:47.004Z</time></trkpt><trkpt lat="43.8501734" lon="6.5085244"><ele>746.0</ele><time>2026-05-02T08:44:48.004Z</time></trkpt><trkpt lat="43.8500791" lon="6.5085894"><ele>746.0</ele><time>2026-05-02T08:44:49.004Z</time></trkpt><trkpt lat="43.8499509" lon="6.5086401"><ele>746.75</ele><time>2026-05-02T08:44:50.004Z</time></trkpt><trkpt lat="43.8498425" lon="6.5086961"><ele>747.5</ele><time>2026-05-02T08:44:51.004Z</time></trkpt><trkpt lat="43.8497241" lon="6.508761"><ele>748.25</ele><time>2026-05-02T08:44:52.004Z</time></trkpt><trkpt lat="43.8496106" lon="6.5088144"><ele>749.0</ele><time>2026-05-02T08:44:53.004Z</time></trkpt><trkpt lat="43.8495004" lon="6.5088744"><ele>749.0</ele><time>2026-05-02T08:44:54.004Z</time></trkpt><trkpt lat="43.8493933" lon="6.5089209"><ele>749.0</ele><time>2026-05-02T08:44:55.004Z</time></trkpt><trkpt lat="43.8492784" lon="6.5089774"><ele>749.0</ele><time>2026-05-02T08:44:56.004Z</time></trkpt><trkpt lat="43.8491773" lon="6.5090391"><ele>749.0</ele><time>2026-05-02T08:44:57.004Z</time></trkpt><trkpt lat="43.8490909" lon="6.5090994"><ele>749.0</ele><time>2026-05-02T08:44:58.003Z</time></trkpt><trkpt lat="43.8490079" lon="6.5091603"><ele>749.2</ele><time>2026-05-02T08:44:59.003Z</time></trkpt><trkpt lat="43.8489258" lon="6.5092512"><ele>749.4000000000001</ele><time>2026-05-02T08:45:00.004Z</time></trkpt><trkpt lat="43.8488497" lon="6.5093537"><ele>749.6</ele><time>2026-05-02T08:45:01.004Z</time></trkpt><trkpt lat="43.8487785" lon="6.5094605"><ele>749.8</ele><time>2026-05-02T08:45:02.004Z</time></trkpt><trkpt lat="43.8487303" lon="6.5095869"><ele>750.0</ele><time>2026-05-02T08:45:03.004Z</time></trkpt><trkpt lat="43.8486639" lon="6.5097078"><ele>750.0</ele><time>2026-05-02T08:45:04.004Z</time></trkpt><trkpt lat="43.8486074" lon="6.50982"><ele>750.0</ele><time>2026-05-02T08:45:05.004Z</time></trkpt><trkpt lat="43.8485531" lon="6.5099413"><ele>750.0</ele><time>2026-05-02T08:45:06.003Z</time></trkpt><trkpt lat="43.8484888" lon="6.5100572"><ele>750.0</ele><time>2026-05-02T08:45:07.004Z</time></trkpt><trkpt lat="43.8484374" lon="6.5101775"><ele>750.0</ele><time>2026-05-02T08:45:08.004Z</time></trkpt><trkpt lat="43.8483866" lon="6.5102807"><ele>747.3333333333334</ele><time>2026-05-02T08:45:09.003Z</time></trkpt><trkpt lat="43.8483427" lon="6.5103626"><ele>744.6666666666666</ele><time>2026-05-02T08:45:10.004Z</time></trkpt><trkpt lat="43.8482886" lon="6.510456"><ele>742.0</ele><time>2026-05-02T08:45:11.004Z</time></trkpt><trkpt lat="43.8482387" lon="6.510547"><ele>739.3333333333333</ele><time>2026-05-02T08:45:12.003Z</time></trkpt><trkpt lat="43.8481907" lon="6.5106294"><ele>736.6666666666666</ele><time>2026-05-02T08:45:13.004Z</time></trkpt><trkpt lat="43.8481441" lon="6.5107221"><ele>734.0</ele><time>2026-05-02T08:45:14.003Z</time></trkpt><trkpt lat="43.8480957" lon="6.5108118"><ele>734.0</ele><time>2026-05-02T08:45:15.004Z</time></trkpt><trkpt lat="43.8480449" lon="6.5109128"><ele>734.0</ele><time>2026-05-02T08:45:16.004Z</time></trkpt><trkpt lat="43.847995" lon="6.5110135"><ele>734.0</ele><time>2026-05-02T08:45:17.004Z</time></trkpt><trkpt lat="43.8479478" lon="6.5111149"><ele>734.0</ele><time>2026-05-02T08:45:18.004Z</time></trkpt><trkpt lat="43.8479119" lon="6.5112236"><ele>734.0</ele><time>2026-05-02T08:45:19.004Z</time></trkpt><trkpt lat="43.8478797" lon="6.5113259"><ele>734.0</ele><time>2026-05-02T08:45:20.004Z</time></trkpt><trkpt lat="43.8478506" lon="6.5114337"><ele>735.0</ele><time>2026-05-02T08:45:21.004Z</time></trkpt><trkpt lat="43.8478339" lon="6.5115352"><ele>736.0</ele><time>2026-05-02T08:45:22.004Z</time></trkpt><trkpt lat="43.8478117" lon="6.5116551"><ele>737.0</ele><time>2026-05-02T08:45:23.004Z</time></trkpt><trkpt lat="43.8477854" lon="6.5117559"><ele>738.0</ele><time>2026-05-02T08:45:24.003Z</time></trkpt><trkpt lat="43.8477642" lon="6.5118424"><ele>739.0</ele><time>2026-05-02T08:45:25.003Z</time></trkpt><trkpt lat="43.8477445" lon="6.5119393"><ele>740.0</ele><time>2026-05-02T08:45:26.004Z</time></trkpt><trkpt lat="43.8477206" lon="6.5120203"><ele>741.0</ele><time>2026-05-02T08:45:27.004Z</time></trkpt><trkpt lat="43.8476707" lon="6.5120798"><ele>739.0</ele><time>2026-05-02T08:45:28.004Z</time></trkpt><trkpt lat="43.8475563" lon="6.5121106"><ele>737.0</ele><time>2026-05-02T08:45:30.004Z</time></trkpt><trkpt lat="43.847479" lon="6.5121297"><ele>735.0</ele><time>2026-05-02T08:45:31.004Z</time></trkpt><trkpt lat="43.8473208" lon="6.5121991"><ele>733.0</ele><time>2026-05-02T08:45:33.004Z</time></trkpt><trkpt lat="43.8472196" lon="6.5122532"><ele>733.0</ele><time>2026-05-02T08:45:34.003Z</time></trkpt><trkpt lat="43.8471411" lon="6.5122759"><ele>733.0</ele><time>2026-05-02T08:45:35.004Z</time></trkpt><trkpt lat="43.8470606" lon="6.5123234"><ele>733.0</ele><time>2026-05-02T08:45:36.004Z</time></trkpt><trkpt lat="43.8470001" lon="6.5123636"><ele>733.0</ele><time>2026-05-02T08:45:37.004Z</time></trkpt><trkpt lat="43.846919" lon="6.5124019"><ele>733.0</ele><time>2026-05-02T08:45:38.004Z</time></trkpt><trkpt lat="43.8468691" lon="6.5124592"><ele>733.0</ele><time>2026-05-02T08:45:39.004Z</time></trkpt><trkpt lat="43.8467879" lon="6.512499"><ele>732.0</ele><time>2026-05-02T08:45:40.004Z</time></trkpt><trkpt lat="43.8467155" lon="6.5125087"><ele>731.0</ele><time>2026-05-02T08:45:41.004Z</time></trkpt><trkpt lat="43.8466113" lon="6.5126181"><ele>730.0</ele><time>2026-05-02T08:45:43.003Z</time></trkpt><trkpt lat="43.846545" lon="6.5126598"><ele>729.0</ele><time>2026-05-02T08:45:44.004Z</time></trkpt><trkpt lat="43.8464772" lon="6.51263"><ele>728.0</ele><time>2026-05-02T08:45:45.004Z</time></trkpt><trkpt lat="43.8464099" lon="6.5126023"><ele>727.0</ele><time>2026-05-02T08:45:46.004Z</time></trkpt><trkpt lat="43.8463144" lon="6.5125726"><ele>727.0</ele><time>2026-05-02T08:45:48.003Z</time></trkpt><trkpt lat="43.8462204" lon="6.5125526"><ele>727.0</ele><time>2026-05-02T08:45:50.004Z</time></trkpt><trkpt lat="43.8461394" lon="6.5124724"><ele>727.0</ele><time>2026-05-02T08:45:52.004Z</time></trkpt><trkpt lat="43.8460973" lon="6.5123123"><ele>727.0</ele><time>2026-05-02T08:45:54.004Z</time></trkpt><trkpt lat="43.8461184" lon="6.5121312"><ele>726.6</ele><time>2026-05-02T08:45:56.004Z</time></trkpt><trkpt lat="43.8461237" lon="6.5119688"><ele>726.2</ele><time>2026-05-02T08:45:57.004Z</time></trkpt><trkpt lat="43.8461228" lon="6.5118127"><ele>725.8</ele><time>2026-05-02T08:45:58.003Z</time></trkpt><trkpt lat="43.8461261" lon="6.5116837"><ele>725.4</ele><time>2026-05-02T08:45:59.004Z</time></trkpt><trkpt lat="43.8461306" lon="6.5115512"><ele>725.0</ele><time>2026-05-02T08:46:00.004Z</time></trkpt><trkpt lat="43.8461355" lon="6.5113974"><ele>725.0</ele><time>2026-05-02T08:46:01.004Z</time></trkpt><trkpt lat="43.8461314" lon="6.5112725"><ele>725.0</ele><time>2026-05-02T08:46:02.003Z</time></trkpt><trkpt lat="43.8461338" lon="6.5111507"><ele>725.0</ele><time>2026-05-02T08:46:03.004Z</time></trkpt><trkpt lat="43.8461461" lon="6.5109966"><ele>725.0</ele><time>2026-05-02T08:46:04.004Z</time></trkpt><trkpt lat="43.8461549" lon="6.5108441"><ele>725.0</ele><time>2026-05-02T08:46:05.004Z</time></trkpt><trkpt lat="43.8461684" lon="6.5106894"><ele>724.6</ele><time>2026-05-02T08:46:06.004Z</time></trkpt><trkpt lat="43.8461622" lon="6.5105337"><ele>724.2</ele><time>2026-05-02T08:46:07.004Z</time></trkpt><trkpt lat="43.8461659" lon="6.5103811"><ele>723.8</ele><time>2026-05-02T08:46:08.004Z</time></trkpt><trkpt lat="43.8461681" lon="6.5102345"><ele>723.4</ele><time>2026-05-02T08:46:09.004Z</time></trkpt><trkpt lat="43.846172" lon="6.510081"><ele>723.0</ele><time>2026-05-02T08:46:10.003Z</time></trkpt><trkpt lat="43.8461865" lon="6.5099163"><ele>723.0</ele><time>2026-05-02T08:46:11.004Z</time></trkpt><trkpt lat="43.8462036" lon="6.5097741"><ele>723.0</ele><time>2026-05-02T08:46:12.003Z</time></trkpt><trkpt lat="43.8462077" lon="6.5096074"><ele>723.0</ele><time>2026-05-02T08:46:13.003Z</time></trkpt><trkpt lat="43.8462234" lon="6.5094564"><ele>723.0</ele><time>2026-05-02T08:46:14.004Z</time></trkpt><trkpt lat="43.8462249" lon="6.5092933"><ele>723.25</ele><time>2026-05-02T08:46:15.004Z</time></trkpt><trkpt lat="43.8462041" lon="6.5091"><ele>723.5</ele><time>2026-05-02T08:46:16.004Z</time></trkpt><trkpt lat="43.8462071" lon="6.5089365"><ele>723.75</ele><time>2026-05-02T08:46:17.004Z</time></trkpt><trkpt lat="43.8462098" lon="6.5087728"><ele>724.0</ele><time>2026-05-02T08:46:18.004Z</time></trkpt><trkpt lat="43.8461891" lon="6.5086027"><ele>723.5</ele><time>2026-05-02T08:46:19.004Z</time></trkpt><trkpt lat="43.84617" lon="6.5084579"><ele>723.0</ele><time>2026-05-02T08:46:20.004Z</time></trkpt><trkpt lat="43.8461445" lon="6.5083026"><ele>722.5</ele><time>2026-05-02T08:46:21.004Z</time></trkpt><trkpt lat="43.8461146" lon="6.5081464"><ele>722.0</ele><time>2026-05-02T08:46:22.004Z</time></trkpt><trkpt lat="43.8460921" lon="6.507981"><ele>722.0</ele><time>2026-05-02T08:46:23.004Z</time></trkpt><trkpt lat="43.8460523" lon="6.5078239"><ele>722.0</ele><time>2026-05-02T08:46:24.004Z</time></trkpt><trkpt lat="43.8460116" lon="6.507666"><ele>722.0</ele><time>2026-05-02T08:46:25.004Z</time></trkpt><trkpt lat="43.8459661" lon="6.5075184"><ele>722.0</ele><time>2026-05-02T08:46:26.004Z</time></trkpt><trkpt lat="43.8459265" lon="6.5073648"><ele>722.0</ele><time>2026-05-02T08:46:27.003Z</time></trkpt><trkpt lat="43.8458864" lon="6.5072023"><ele>722.0</ele><time>2026-05-02T08:46:28.004Z</time></trkpt><trkpt lat="43.8458391" lon="6.5070434"><ele>722.0</ele><time>2026-05-02T08:46:29.004Z</time></trkpt><trkpt lat="43.8458004" lon="6.5068809"><ele>722.0</ele><time>2026-05-02T08:46:30.003Z</time></trkpt><trkpt lat="43.8457664" lon="6.5067456"><ele>722.0</ele><time>2026-05-02T08:46:31.004Z</time></trkpt><trkpt lat="43.8457332" lon="6.5066099"><ele>722.0</ele><time>2026-05-02T08:46:32.003Z</time></trkpt><trkpt lat="43.8457075" lon="6.5064793"><ele>722.0</ele><time>2026-05-02T08:46:33.004Z</time></trkpt><trkpt lat="43.8456693" lon="6.5063593"><ele>722.0</ele><time>2026-05-02T08:46:34.003Z</time></trkpt><trkpt lat="43.8456472" lon="6.5062387"><ele>722.0</ele><time>2026-05-02T08:46:35.004Z</time></trkpt><trkpt lat="43.8456225" lon="6.5061433"><ele>722.0</ele><time>2026-05-02T08:46:36.004Z</time></trkpt><trkpt lat="43.8456013" lon="6.5060355"><ele>722.0</ele><time>2026-05-02T08:46:37.004Z</time></trkpt><trkpt lat="43.8455739" lon="6.5059308"><ele>722.0</ele><time>2026-05-02T08:46:38.004Z</time></trkpt><trkpt lat="43.8455616" lon="6.5058151"><ele>722.0</ele><time>2026-05-02T08:46:39.004Z</time></trkpt><trkpt lat="43.8455179" lon="6.5056933"><ele>722.0</ele><time>2026-05-02T08:46:40.003Z</time></trkpt><trkpt lat="43.8454845" lon="6.5055765"><ele>722.0</ele><time>2026-05-02T08:46:41.004Z</time></trkpt><trkpt lat="43.8454663" lon="6.5054727"><ele>722.0</ele><time>2026-05-02T08:46:42.004Z</time></trkpt><trkpt lat="43.8454291" lon="6.5053566"><ele>722.0</ele><time>2026-05-02T08:46:43.004Z</time></trkpt><trkpt lat="43.8454025" lon="6.5052543"><ele>722.0</ele><time>2026-05-02T08:46:44.004Z</time></trkpt><trkpt lat="43.8453431" lon="6.5051395"><ele>722.0</ele><time>2026-05-02T08:46:45.004Z</time></trkpt><trkpt lat="43.8453002" lon="6.5050313"><ele>722.0</ele><time>2026-05-02T08:46:46.004Z</time></trkpt><trkpt lat="43.8452473" lon="6.50488"><ele>722.0</ele><time>2026-05-02T08:46:47.004Z</time></trkpt><trkpt lat="43.8451908" lon="6.5047387"><ele>722.0</ele><time>2026-05-02T08:46:48.004Z</time></trkpt><trkpt lat="43.8451384" lon="6.5046072"><ele>722.0</ele><time>2026-05-02T08:46:49.004Z</time></trkpt><trkpt lat="43.845084" lon="6.5044524"><ele>722.0</ele><time>2026-05-02T08:46:50.003Z</time></trkpt><trkpt lat="43.8450274" lon="6.5042872"><ele>722.5</ele><time>2026-05-02T08:46:51.004Z</time></trkpt><trkpt lat="43.8449759" lon="6.5041407"><ele>723.0</ele><time>2026-05-02T08:46:52.004Z</time></trkpt><trkpt lat="43.8449201" lon="6.5039866"><ele>723.5</ele><time>2026-05-02T08:46:53.004Z</time></trkpt><trkpt lat="43.8448511" lon="6.5038334"><ele>724.0</ele><time>2026-05-02T08:46:54.004Z</time></trkpt><trkpt lat="43.844794" lon="6.5036804"><ele>724.0</ele><time>2026-05-02T08:46:55.004Z</time></trkpt><trkpt lat="43.8447375" lon="6.5035142"><ele>724.0</ele><time>2026-05-02T08:46:56.004Z</time></trkpt><trkpt lat="43.8446855" lon="6.5033734"><ele>724.0</ele><time>2026-05-02T08:46:57.004Z</time></trkpt><trkpt lat="43.8446191" lon="6.5032291"><ele>724.0</ele><time>2026-05-02T08:46:58.004Z</time></trkpt><trkpt lat="43.8445479" lon="6.5030837"><ele>724.0</ele><time>2026-05-02T08:46:59.004Z</time></trkpt><trkpt lat="43.8444746" lon="6.5029306"><ele>724.0</ele><time>2026-05-02T08:47:00.004Z</time></trkpt><trkpt lat="43.8443871" lon="6.5027859"><ele>724.0</ele><time>2026-05-02T08:47:01.004Z</time></trkpt><trkpt lat="43.8443087" lon="6.5026342"><ele>724.0</ele><time>2026-05-02T08:47:02.004Z</time></trkpt><trkpt lat="43.8442296" lon="6.5024829"><ele>724.75</ele><time>2026-05-02T08:47:03.004Z</time></trkpt><trkpt lat="43.8441459" lon="6.5023363"><ele>725.5</ele><time>2026-05-02T08:47:04.004Z</time></trkpt><trkpt lat="43.8440536" lon="6.5021831"><ele>726.25</ele><time>2026-05-02T08:47:05.003Z</time></trkpt><trkpt lat="43.8439793" lon="6.5020315"><ele>727.0</ele><time>2026-05-02T08:47:06.004Z</time></trkpt><trkpt lat="43.8439003" lon="6.5018737"><ele>727.0</ele><time>2026-05-02T08:47:07.004Z</time></trkpt><trkpt lat="43.8438203" lon="6.5017276"><ele>727.0</ele><time>2026-05-02T08:47:08.004Z</time></trkpt><trkpt lat="43.843744" lon="6.5015802"><ele>727.0</ele><time>2026-05-02T08:47:09.004Z</time></trkpt><trkpt lat="43.8436745" lon="6.5014298"><ele>727.0</ele><time>2026-05-02T08:47:10.004Z</time></trkpt><trkpt lat="43.8435966" lon="6.501293"><ele>726.25</ele><time>2026-05-02T08:47:11.004Z</time></trkpt><trkpt lat="43.8435287" lon="6.5011556"><ele>725.5</ele><time>2026-05-02T08:47:12.004Z</time></trkpt><trkpt lat="43.8434591" lon="6.5010157"><ele>724.75</ele><time>2026-05-02T08:47:13.003Z</time></trkpt><trkpt lat="43.8433946" lon="6.5008771"><ele>724.0</ele><time>2026-05-02T08:47:14.004Z</time></trkpt><trkpt lat="43.8433169" lon="6.5007263"><ele>724.0</ele><time>2026-05-02T08:47:15.004Z</time></trkpt><trkpt lat="43.8432505" lon="6.5005735"><ele>724.0</ele><time>2026-05-02T08:47:16.004Z</time></trkpt><trkpt lat="43.843191" lon="6.5004157"><ele>724.0</ele><time>2026-05-02T08:47:17.004Z</time></trkpt><trkpt lat="43.843151" lon="6.5002388"><ele>724.0</ele><time>2026-05-02T08:47:18.004Z</time></trkpt><trkpt lat="43.8431102" lon="6.5000494"><ele>726.25</ele><time>2026-05-02T08:47:19.004Z</time></trkpt><trkpt lat="43.8430823" lon="6.4998617"><ele>728.5</ele><time>2026-05-02T08:47:20.004Z</time></trkpt><trkpt lat="43.8430599" lon="6.4996651"><ele>730.75</ele><time>2026-05-02T08:47:21.003Z</time></trkpt><trkpt lat="43.8430375" lon="6.4994828"><ele>733.0</ele><time>2026-05-02T08:47:22.004Z</time></trkpt><trkpt lat="43.843022" lon="6.4993046"><ele>735.5</ele><time>2026-05-02T08:47:23.004Z</time></trkpt><trkpt lat="43.84301" lon="6.4991336"><ele>738.0</ele><time>2026-05-02T08:47:24.004Z</time></trkpt><trkpt lat="43.8429974" lon="6.4989837"><ele>740.5</ele><time>2026-05-02T08:47:25.004Z</time></trkpt><trkpt lat="43.8429595" lon="6.4988216"><ele>743.0</ele><time>2026-05-02T08:47:26.004Z</time></trkpt><trkpt lat="43.8429198" lon="6.498675"><ele>748.25</ele><time>2026-05-02T08:47:27.004Z</time></trkpt><trkpt lat="43.8428596" lon="6.498516"><ele>753.5</ele><time>2026-05-02T08:47:28.004Z</time></trkpt><trkpt lat="43.8427741" lon="6.4983675"><ele>758.75</ele><time>2026-05-02T08:47:29.004Z</time></trkpt><trkpt lat="43.8426909" lon="6.4982251"><ele>764.0</ele><time>2026-05-02T08:47:30.004Z</time></trkpt><trkpt lat="43.8426261" lon="6.4980735"><ele>756.5</ele><time>2026-05-02T08:47:31.003Z</time></trkpt><trkpt lat="43.8425398" lon="6.4979033"><ele>749.0</ele><time>2026-05-02T08:47:32.004Z</time></trkpt><trkpt lat="43.8424683" lon="6.4977485"><ele>741.5</ele><time>2026-05-02T08:47:33.003Z</time></trkpt><trkpt lat="43.8423988" lon="6.4975951"><ele>734.0</ele><time>2026-05-02T08:47:34.004Z</time></trkpt><trkpt lat="43.8423383" lon="6.4974398"><ele>734.0</ele><time>2026-05-02T08:47:35.004Z</time></trkpt><trkpt lat="43.8422696" lon="6.4972869"><ele>734.0</ele><time>2026-05-02T08:47:36.004Z</time></trkpt><trkpt lat="43.8422126" lon="6.4971416"><ele>734.0</ele><time>2026-05-02T08:47:37.003Z</time></trkpt><trkpt lat="43.842156" lon="6.4970046"><ele>734.0</ele><time>2026-05-02T08:47:38.004Z</time></trkpt><trkpt lat="43.8420936" lon="6.4968539"><ele>737.75</ele><time>2026-05-02T08:47:39.004Z</time></trkpt><trkpt lat="43.8420295" lon="6.4967202"><ele>741.5</ele><time>2026-05-02T08:47:40.004Z</time></trkpt><trkpt lat="43.8419702" lon="6.4965761"><ele>745.25</ele><time>2026-05-02T08:47:41.004Z</time></trkpt><trkpt lat="43.8419139" lon="6.4964443"><ele>749.0</ele><time>2026-05-02T08:47:42.004Z</time></trkpt><trkpt lat="43.8418155" lon="6.4963098"><ele>742.75</ele><time>2026-05-02T08:47:43.004Z</time></trkpt><trkpt lat="43.8417174" lon="6.4961866"><ele>736.5</ele><time>2026-05-02T08:47:44.004Z</time></trkpt><trkpt lat="43.8416119" lon="6.4960576"><ele>730.25</ele><time>2026-05-02T08:47:45.003Z</time></trkpt><trkpt lat="43.8415078" lon="6.4959314"><ele>724.0</ele><time>2026-05-02T08:47:46.003Z</time></trkpt><trkpt lat="43.8414035" lon="6.4958088"><ele>724.0</ele><time>2026-05-02T08:47:47.003Z</time></trkpt><trkpt lat="43.8412624" lon="6.495677"><ele>724.0</ele><time>2026-05-02T08:47:48.004Z</time></trkpt><trkpt lat="43.841142" lon="6.4955612"><ele>724.0</ele><time>2026-05-02T08:47:49.004Z</time></trkpt><trkpt lat="43.841023" lon="6.4954399"><ele>725.0</ele><time>2026-05-02T08:47:50.004Z</time></trkpt><trkpt lat="43.8409061" lon="6.4953012"><ele>726.0</ele><time>2026-05-02T08:47:51.004Z</time></trkpt><trkpt lat="43.8407792" lon="6.4951726"><ele>727.0</ele><time>2026-05-02T08:47:52.003Z</time></trkpt><trkpt lat="43.8406547" lon="6.4950591"><ele>727.0</ele><time>2026-05-02T08:47:53.004Z</time></trkpt><trkpt lat="43.8405424" lon="6.4949377"><ele>727.0</ele><time>2026-05-02T08:47:54.004Z</time></trkpt><trkpt lat="43.8404286" lon="6.4948088"><ele>727.0</ele><time>2026-05-02T08:47:55.004Z</time></trkpt><trkpt lat="43.8403176" lon="6.4946915"><ele>727.0</ele><time>2026-05-02T08:47:56.003Z</time></trkpt><trkpt lat="43.8402068" lon="6.4945928"><ele>726.5</ele><time>2026-05-02T08:47:57.004Z</time></trkpt><trkpt lat="43.8401016" lon="6.4944957"><ele>726.0</ele><time>2026-05-02T08:47:58.004Z</time></trkpt><trkpt lat="43.8399906" lon="6.4944112"><ele>725.5</ele><time>2026-05-02T08:47:59.003Z</time></trkpt><trkpt lat="43.8398771" lon="6.4943425"><ele>725.0</ele><time>2026-05-02T08:48:00.004Z</time></trkpt><trkpt lat="43.8397722" lon="6.494256"><ele>725.0</ele><time>2026-05-02T08:48:01.004Z</time></trkpt><trkpt lat="43.8397174" lon="6.4941656"><ele>725.0</ele><time>2026-05-02T08:48:02.003Z</time></trkpt><trkpt lat="43.8396415" lon="6.4940797"><ele>725.0</ele><time>2026-05-02T08:48:03.004Z</time></trkpt><trkpt lat="43.8395762" lon="6.4939915"><ele>725.0</ele><time>2026-05-02T08:48:04.004Z</time></trkpt><trkpt lat="43.8394939" lon="6.4939111"><ele>725.0</ele><time>2026-05-02T08:48:05.004Z</time></trkpt><trkpt lat="43.8394245" lon="6.4938403"><ele>725.0</ele><time>2026-05-02T08:48:06.004Z</time></trkpt><trkpt lat="43.8393439" lon="6.4937893"><ele>725.0</ele><time>2026-05-02T08:48:07.004Z</time></trkpt><trkpt lat="43.8392592" lon="6.4937372"><ele>725.0</ele><time>2026-05-02T08:48:08.004Z</time></trkpt><trkpt lat="43.8391693" lon="6.4936794"><ele>725.0</ele><time>2026-05-02T08:48:09.004Z</time></trkpt><trkpt lat="43.839079" lon="6.4936156"><ele>725.0</ele><time>2026-05-02T08:48:10.004Z</time></trkpt><trkpt lat="43.8389799" lon="6.4935526"><ele>725.0</ele><time>2026-05-02T08:48:11.004Z</time></trkpt><trkpt lat="43.8388801" lon="6.4934947"><ele>725.0</ele><time>2026-05-02T08:48:12.004Z</time></trkpt><trkpt lat="43.8387886" lon="6.4934725"><ele>725.0</ele><time>2026-05-02T08:48:13.004Z</time></trkpt><trkpt lat="43.8386942" lon="6.493447"><ele>725.0</ele><time>2026-05-02T08:48:14.004Z</time></trkpt><trkpt lat="43.8385976" lon="6.4934545"><ele>725.0</ele><time>2026-05-02T08:48:15.004Z</time></trkpt><trkpt lat="43.8384935" lon="6.493503"><ele>723.6</ele><time>2026-05-02T08:48:16.004Z</time></trkpt><trkpt lat="43.8383944" lon="6.4935553"><ele>722.2</ele><time>2026-05-02T08:48:17.004Z</time></trkpt><trkpt lat="43.8383064" lon="6.4936602"><ele>720.8</ele><time>2026-05-02T08:48:18.004Z</time></trkpt><trkpt lat="43.8382557" lon="6.4937802"><ele>719.4</ele><time>2026-05-02T08:48:19.004Z</time></trkpt><trkpt lat="43.8381774" lon="6.4938895"><ele>718.0</ele><time>2026-05-02T08:48:20.004Z</time></trkpt><trkpt lat="43.8381162" lon="6.4939461"><ele>718.0</ele><time>2026-05-02T08:48:21.004Z</time></trkpt><trkpt lat="43.838031" lon="6.4939906"><ele>718.0</ele><time>2026-05-02T08:48:22.004Z</time></trkpt><trkpt lat="43.8379672" lon="6.4939738"><ele>718.0</ele><time>2026-05-02T08:48:23.004Z</time></trkpt><trkpt lat="43.8378923" lon="6.493864"><ele>718.0</ele><time>2026-05-02T08:48:24.003Z</time></trkpt><trkpt lat="43.8378174" lon="6.4937436"><ele>718.0</ele><time>2026-05-02T08:48:25.004Z</time></trkpt><trkpt lat="43.8377336" lon="6.493613"><ele>722.5</ele><time>2026-05-02T08:48:26.004Z</time></trkpt><trkpt lat="43.8376329" lon="6.4935109"><ele>727.0</ele><time>2026-05-02T08:48:27.004Z</time></trkpt><trkpt lat="43.8375285" lon="6.4933993"><ele>731.5</ele><time>2026-05-02T08:48:28.004Z</time></trkpt><trkpt lat="43.8374091" lon="6.4932879"><ele>736.0</ele><time>2026-05-02T08:48:29.004Z</time></trkpt><trkpt lat="43.8372637" lon="6.4931869"><ele>736.0</ele><time>2026-05-02T08:48:30.004Z</time></trkpt><trkpt lat="43.8371416" lon="6.4931012"><ele>736.0</ele><time>2026-05-02T08:48:31.004Z</time></trkpt><trkpt lat="43.8370022" lon="6.493036"><ele>736.0</ele><time>2026-05-02T08:48:32.004Z</time></trkpt><trkpt lat="43.8368787" lon="6.4929901"><ele>736.0</ele><time>2026-05-02T08:48:33.004Z</time></trkpt><trkpt lat="43.8367527" lon="6.4929417"><ele>732.25</ele><time>2026-05-02T08:48:34.004Z</time></trkpt><trkpt lat="43.8366078" lon="6.4929161"><ele>728.5</ele><time>2026-05-02T08:48:35.004Z</time></trkpt><trkpt lat="43.8365018" lon="6.4929014"><ele>724.75</ele><time>2026-05-02T08:48:36.004Z</time></trkpt><trkpt lat="43.8363674" lon="6.4929256"><ele>721.0</ele><time>2026-05-02T08:48:37.004Z</time></trkpt><trkpt lat="43.8362779" lon="6.4929186"><ele>721.0</ele><time>2026-05-02T08:48:38.004Z</time></trkpt><trkpt lat="43.8361702" lon="6.4929613"><ele>721.0</ele><time>2026-05-02T08:48:39.004Z</time></trkpt><trkpt lat="43.8360624" lon="6.4930171"><ele>721.0</ele><time>2026-05-02T08:48:40.003Z</time></trkpt><trkpt lat="43.8359785" lon="6.4931132"><ele>721.0</ele><time>2026-05-02T08:48:41.004Z</time></trkpt><trkpt lat="43.835885" lon="6.4932217"><ele>723.1999999999999</ele><time>2026-05-02T08:48:42.004Z</time></trkpt><trkpt lat="43.8357887" lon="6.4932703"><ele>725.4</ele><time>2026-05-02T08:48:43.004Z</time></trkpt><trkpt lat="43.83567" lon="6.493313"><ele>727.6</ele><time>2026-05-02T08:48:44.004Z</time></trkpt><trkpt lat="43.8355689" lon="6.4933609"><ele>729.8</ele><time>2026-05-02T08:48:45.004Z</time></trkpt><trkpt lat="43.8354707" lon="6.4933969"><ele>732.0</ele><time>2026-05-02T08:48:46.004Z</time></trkpt><trkpt lat="43.8353821" lon="6.4934473"><ele>732.0</ele><time>2026-05-02T08:48:47.004Z</time></trkpt><trkpt lat="43.8352951" lon="6.4934729"><ele>732.0</ele><time>2026-05-02T08:48:48.003Z</time></trkpt><trkpt lat="43.8352065" lon="6.4934592"><ele>732.0</ele><time>2026-05-02T08:48:49.004Z</time></trkpt><trkpt lat="43.8350842" lon="6.493424"><ele>732.0</ele><time>2026-05-02T08:48:50.004Z</time></trkpt><trkpt lat="43.8349966" lon="6.4933567"><ele>732.0</ele><time>2026-05-02T08:48:51.003Z</time></trkpt><trkpt lat="43.8348816" lon="6.4932979"><ele>731.3333333333334</ele><time>2026-05-02T08:48:52.004Z</time></trkpt><trkpt lat="43.834822" lon="6.4932185"><ele>730.6666666666666</ele><time>2026-05-02T08:48:53.004Z</time></trkpt><trkpt lat="43.8347784" lon="6.4931282"><ele>730.0</ele><time>2026-05-02T08:48:54.004Z</time></trkpt><trkpt lat="43.8347436" lon="6.4930367"><ele>729.3333333333333</ele><time>2026-05-02T08:48:55.003Z</time></trkpt><trkpt lat="43.8347692" lon="6.4929185"><ele>728.6666666666666</ele><time>2026-05-02T08:48:56.004Z</time></trkpt><trkpt lat="43.8347818" lon="6.4927887"><ele>728.0</ele><time>2026-05-02T08:48:57.004Z</time></trkpt><trkpt lat="43.8348122" lon="6.4926588"><ele>728.4</ele><time>2026-05-02T08:48:58.003Z</time></trkpt><trkpt lat="43.8348423" lon="6.4925322"><ele>728.8</ele><time>2026-05-02T08:48:59.003Z</time></trkpt><trkpt lat="43.8348767" lon="6.4923939"><ele>729.2</ele><time>2026-05-02T08:49:00.004Z</time></trkpt><trkpt lat="43.8349161" lon="6.4922664"><ele>729.6</ele><time>2026-05-02T08:49:01.004Z</time></trkpt><trkpt lat="43.8349606" lon="6.4921376"><ele>730.0</ele><time>2026-05-02T08:49:02.003Z</time></trkpt><trkpt lat="43.8350193" lon="6.4920298"><ele>730.0</ele><time>2026-05-02T08:49:03.004Z</time></trkpt><trkpt lat="43.8350753" lon="6.4919393"><ele>730.0</ele><time>2026-05-02T08:49:04.004Z</time></trkpt><trkpt lat="43.8351293" lon="6.4918218"><ele>730.0</ele><time>2026-05-02T08:49:05.004Z</time></trkpt><trkpt lat="43.8351554" lon="6.4916619"><ele>730.0</ele><time>2026-05-02T08:49:06.003Z</time></trkpt><trkpt lat="43.8351781" lon="6.4915292"><ele>730.0</ele><time>2026-05-02T08:49:07.004Z</time></trkpt><trkpt lat="43.8351697" lon="6.4913903"><ele>729.75</ele><time>2026-05-02T08:49:08.004Z</time></trkpt><trkpt lat="43.8351408" lon="6.491217"><ele>729.5</ele><time>2026-05-02T08:49:09.003Z</time></trkpt><trkpt lat="43.8351023" lon="6.4910487"><ele>729.25</ele><time>2026-05-02T08:49:10.003Z</time></trkpt><trkpt lat="43.8350717" lon="6.4908992"><ele>729.0</ele><time>2026-05-02T08:49:11.004Z</time></trkpt><trkpt lat="43.8350392" lon="6.4907495"><ele>729.0</ele><time>2026-05-02T08:49:12.004Z</time></trkpt><trkpt lat="43.8350105" lon="6.4906094"><ele>729.0</ele><time>2026-05-02T08:49:13.004Z</time></trkpt><trkpt lat="43.8349665" lon="6.4904714"><ele>729.0</ele><time>2026-05-02T08:49:14.004Z</time></trkpt><trkpt lat="43.8349554" lon="6.4903435"><ele>729.0</ele><time>2026-05-02T08:49:15.003Z</time></trkpt><trkpt lat="43.8349478" lon="6.4902137"><ele>729.0</ele><time>2026-05-02T08:49:16.004Z</time></trkpt><trkpt lat="43.8349479" lon="6.4901033"><ele>729.2</ele><time>2026-05-02T08:49:17.003Z</time></trkpt><trkpt lat="43.8349683" lon="6.4899862"><ele>729.4000000000001</ele><time>2026-05-02T08:49:18.004Z</time></trkpt><trkpt lat="43.8350184" lon="6.4899065"><ele>729.6</ele><time>2026-05-02T08:49:19.004Z</time></trkpt><trkpt lat="43.8350805" lon="6.4897903"><ele>729.8</ele><time>2026-05-02T08:49:20.004Z</time></trkpt><trkpt lat="43.8351862" lon="6.4896956"><ele>730.0</ele><time>2026-05-02T08:49:21.003Z</time></trkpt><trkpt lat="43.8352804" lon="6.4895938"><ele>731.4</ele><time>2026-05-02T08:49:22.004Z</time></trkpt><trkpt lat="43.8353591" lon="6.4894825"><ele>732.8</ele><time>2026-05-02T08:49:23.004Z</time></trkpt><trkpt lat="43.8354105" lon="6.4893653"><ele>734.2</ele><time>2026-05-02T08:49:24.004Z</time></trkpt><trkpt lat="43.8354094" lon="6.4892186"><ele>735.6</ele><time>2026-05-02T08:49:25.004Z</time></trkpt><trkpt lat="43.8354016" lon="6.4890902"><ele>737.0</ele><time>2026-05-02T08:49:26.004Z</time></trkpt><trkpt lat="43.8353639" lon="6.4889294"><ele>737.0</ele><time>2026-05-02T08:49:27.004Z</time></trkpt><trkpt lat="43.8353337" lon="6.4887964"><ele>737.0</ele><time>2026-05-02T08:49:28.004Z</time></trkpt><trkpt lat="43.8352975" lon="6.4886197"><ele>737.0</ele><time>2026-05-02T08:49:29.003Z</time></trkpt><trkpt lat="43.8352729" lon="6.4884686"><ele>737.0</ele><time>2026-05-02T08:49:30.004Z</time></trkpt><trkpt lat="43.8352389" lon="6.4882975"><ele>734.75</ele><time>2026-05-02T08:49:31.004Z</time></trkpt><trkpt lat="43.8352108" lon="6.4881323"><ele>732.5</ele><time>2026-05-02T08:49:32.004Z</time></trkpt><trkpt lat="43.8351707" lon="6.4879747"><ele>730.25</ele><time>2026-05-02T08:49:33.004Z</time></trkpt><trkpt lat="43.8351262" lon="6.4878149"><ele>728.0</ele><time>2026-05-02T08:49:34.003Z</time></trkpt><trkpt lat="43.8350807" lon="6.4876588"><ele>728.0</ele><time>2026-05-02T08:49:35.004Z</time></trkpt><trkpt lat="43.8350308" lon="6.487499"><ele>728.0</ele><time>2026-05-02T08:49:36.004Z</time></trkpt><trkpt lat="43.8350075" lon="6.4873485"><ele>728.0</ele><time>2026-05-02T08:49:37.004Z</time></trkpt><trkpt lat="43.8350162" lon="6.4871918"><ele>728.0</ele><time>2026-05-02T08:49:38.003Z</time></trkpt><trkpt lat="43.8350127" lon="6.4870361"><ele>727.25</ele><time>2026-05-02T08:49:39.004Z</time></trkpt><trkpt lat="43.835052" lon="6.4868553"><ele>726.5</ele><time>2026-05-02T08:49:40.004Z</time></trkpt><trkpt lat="43.8350865" lon="6.4866827"><ele>725.75</ele><time>2026-05-02T08:49:41.003Z</time></trkpt><trkpt lat="43.8351045" lon="6.486525"><ele>725.0</ele><time>2026-05-02T08:49:42.004Z</time></trkpt><trkpt lat="43.8351271" lon="6.4863665"><ele>731.5</ele><time>2026-05-02T08:49:43.004Z</time></trkpt><trkpt lat="43.835158" lon="6.4861955"><ele>738.0</ele><time>2026-05-02T08:49:44.003Z</time></trkpt><trkpt lat="43.8351995" lon="6.4860108"><ele>744.5</ele><time>2026-05-02T08:49:45.004Z</time></trkpt><trkpt lat="43.8352498" lon="6.4859027"><ele>751.0</ele><time>2026-05-02T08:49:46.004Z</time></trkpt><trkpt lat="43.8353409" lon="6.4857772"><ele>751.0</ele><time>2026-05-02T08:49:47.004Z</time></trkpt><trkpt lat="43.8354138" lon="6.4857242"><ele>751.0</ele><time>2026-05-02T08:49:48.003Z</time></trkpt><trkpt lat="43.8354761" lon="6.4856576"><ele>751.0</ele><time>2026-05-02T08:49:49.004Z</time></trkpt><trkpt lat="43.8354805" lon="6.4855145"><ele>751.0</ele><time>2026-05-02T08:49:50.004Z</time></trkpt><trkpt lat="43.8355009" lon="6.4854257"><ele>751.0</ele><time>2026-05-02T08:49:51.004Z</time></trkpt><trkpt lat="43.8355151" lon="6.4853192"><ele>751.0</ele><time>2026-05-02T08:49:52.004Z</time></trkpt><trkpt lat="43.8354789" lon="6.4851521"><ele>751.75</ele><time>2026-05-02T08:49:53.003Z</time></trkpt><trkpt lat="43.8354411" lon="6.4849782"><ele>752.5</ele><time>2026-05-02T08:49:54.004Z</time></trkpt><trkpt lat="43.8354209" lon="6.4848271"><ele>753.25</ele><time>2026-05-02T08:49:55.004Z</time></trkpt><trkpt lat="43.8353868" lon="6.4846882"><ele>754.0</ele><time>2026-05-02T08:49:56.003Z</time></trkpt><trkpt lat="43.835364" lon="6.4845381"><ele>756.75</ele><time>2026-05-02T08:49:57.004Z</time></trkpt><trkpt lat="43.8353321" lon="6.4843867"><ele>759.5</ele><time>2026-05-02T08:49:58.004Z</time></trkpt><trkpt lat="43.8353" lon="6.4842516"><ele>762.25</ele><time>2026-05-02T08:49:59.004Z</time></trkpt><trkpt lat="43.8352511" lon="6.484121"><ele>765.0</ele><time>2026-05-02T08:50:00.004Z</time></trkpt><trkpt lat="43.8351666" lon="6.4839875"><ele>762.0</ele><time>2026-05-02T08:50:01.004Z</time></trkpt><trkpt lat="43.8350904" lon="6.483861"><ele>759.0</ele><time>2026-05-02T08:50:02.004Z</time></trkpt><trkpt lat="43.8349818" lon="6.4837624"><ele>756.0</ele><time>2026-05-02T08:50:03.004Z</time></trkpt><trkpt lat="43.834888" lon="6.4836695"><ele>753.0</ele><time>2026-05-02T08:50:04.004Z</time></trkpt><trkpt lat="43.8347913" lon="6.4835836"><ele>753.0</ele><time>2026-05-02T08:50:05.004Z</time></trkpt><trkpt lat="43.8346669" lon="6.4835029"><ele>753.0</ele><time>2026-05-02T08:50:06.004Z</time></trkpt><trkpt lat="43.8345937" lon="6.4834037"><ele>753.0</ele><time>2026-05-02T08:50:07.004Z</time></trkpt><trkpt lat="43.8345163" lon="6.4833054"><ele>753.0</ele><time>2026-05-02T08:50:08.004Z</time></trkpt><trkpt lat="43.8344611" lon="6.4832392"><ele>753.0</ele><time>2026-05-02T08:50:09.004Z</time></trkpt><trkpt lat="43.8343923" lon="6.4831393"><ele>753.0</ele><time>2026-05-02T08:50:11.003Z</time></trkpt><trkpt lat="43.834357" lon="6.4830572"><ele>753.0</ele><time>2026-05-02T08:50:14.004Z</time></trkpt><trkpt lat="43.8343074" lon="6.4829769"><ele>753.0</ele><time>2026-05-02T08:56:09.004Z</time></trkpt><trkpt lat="43.8342279" lon="6.482912"><ele>753.0</ele><time>2026-05-02T08:56:10.004Z</time></trkpt><trkpt lat="43.8341429" lon="6.4828379"><ele>753.0</ele><time>2026-05-02T08:56:11.004Z</time></trkpt><trkpt lat="43.8340444" lon="6.4827778"><ele>753.0</ele><time>2026-05-02T08:56:12.004Z</time></trkpt><trkpt lat="43.833953" lon="6.482721"><ele>754.5</ele><time>2026-05-02T08:56:13.004Z</time></trkpt><trkpt lat="43.8338326" lon="6.4826706"><ele>756.0</ele><time>2026-05-02T08:56:14.004Z</time></trkpt><trkpt lat="43.8336995" lon="6.4826219"><ele>757.5</ele><time>2026-05-02T08:56:15.003Z</time></trkpt><trkpt lat="43.8335968" lon="6.4825618"><ele>759.0</ele><time>2026-05-02T08:56:16.004Z</time></trkpt><trkpt lat="43.833462" lon="6.4824996"><ele>756.5</ele><time>2026-05-02T08:56:17.004Z</time></trkpt><trkpt lat="43.8333303" lon="6.4824013"><ele>754.0</ele><time>2026-05-02T08:56:18.004Z</time></trkpt><trkpt lat="43.8332116" lon="6.4822892"><ele>751.5</ele><time>2026-05-02T08:56:19.004Z</time></trkpt><trkpt lat="43.8331287" lon="6.4821457"><ele>749.0</ele><time>2026-05-02T08:56:20.004Z</time></trkpt><trkpt lat="43.8330631" lon="6.4819929"><ele>749.0</ele><time>2026-05-02T08:56:21.004Z</time></trkpt><trkpt lat="43.8329981" lon="6.4818377"><ele>749.0</ele><time>2026-05-02T08:56:22.004Z</time></trkpt><trkpt lat="43.832942" lon="6.481652"><ele>749.0</ele><time>2026-05-02T08:56:23.004Z</time></trkpt><trkpt lat="43.8329247" lon="6.4814498"><ele>749.0</ele><time>2026-05-02T08:56:24.004Z</time></trkpt><trkpt lat="43.8328908" lon="6.4812532"><ele>750.5</ele><time>2026-05-02T08:56:25.003Z</time></trkpt><trkpt lat="43.8328727" lon="6.4810681"><ele>752.0</ele><time>2026-05-02T08:56:26.004Z</time></trkpt><trkpt lat="43.8328391" lon="6.4808767"><ele>753.5</ele><time>2026-05-02T08:56:27.004Z</time></trkpt><trkpt lat="43.8328026" lon="6.4806727"><ele>755.0</ele><time>2026-05-02T08:56:28.004Z</time></trkpt><trkpt lat="43.8327472" lon="6.4804728"><ele>756.6666666666666</ele><time>2026-05-02T08:56:29.003Z</time></trkpt><trkpt lat="43.8326652" lon="6.4802819"><ele>758.3333333333334</ele><time>2026-05-02T08:56:30.004Z</time></trkpt><trkpt lat="43.8325777" lon="6.4800915"><ele>760.0</ele><time>2026-05-02T08:56:31.004Z</time></trkpt><trkpt lat="43.8324731" lon="6.479923"><ele>756.6666666666667</ele><time>2026-05-02T08:56:32.004Z</time></trkpt><trkpt lat="43.8323654" lon="6.479751"><ele>753.3333333333334</ele><time>2026-05-02T08:56:33.004Z</time></trkpt><trkpt lat="43.8322729" lon="6.4795931"><ele>750.0</ele><time>2026-05-02T08:56:34.004Z</time></trkpt><trkpt lat="43.8321877" lon="6.4794296"><ele>750.0</ele><time>2026-05-02T08:56:35.004Z</time></trkpt><trkpt lat="43.832123" lon="6.4792621"><ele>750.0</ele><time>2026-05-02T08:56:36.004Z</time></trkpt><trkpt lat="43.8320739" lon="6.4790764"><ele>750.0</ele><time>2026-05-02T08:56:37.004Z</time></trkpt><trkpt lat="43.8320361" lon="6.4788926"><ele>750.0</ele><time>2026-05-02T08:56:38.004Z</time></trkpt><trkpt lat="43.8320332" lon="6.4787043"><ele>752.0</ele><time>2026-05-02T08:56:39.004Z</time></trkpt><trkpt lat="43.8320418" lon="6.4785262"><ele>754.0</ele><time>2026-05-02T08:56:40.004Z</time></trkpt><trkpt lat="43.8320351" lon="6.4783407"><ele>756.0</ele><time>2026-05-02T08:56:41.004Z</time></trkpt><trkpt lat="43.831953" lon="6.4781568"><ele>758.0</ele><time>2026-05-02T08:56:42.004Z</time></trkpt><trkpt lat="43.8318929" lon="6.4779761"><ele>761.0</ele><time>2026-05-02T08:56:43.003Z</time></trkpt><trkpt lat="43.8318563" lon="6.4777641"><ele>764.0</ele><time>2026-05-02T08:56:44.004Z</time></trkpt><trkpt lat="43.8318094" lon="6.4775557"><ele>767.0</ele><time>2026-05-02T08:56:45.004Z</time></trkpt><trkpt lat="43.8317569" lon="6.4773457"><ele>757.25</ele><time>2026-05-02T08:56:46.004Z</time></trkpt><trkpt lat="43.8316927" lon="6.4771803"><ele>747.5</ele><time>2026-05-02T08:56:47.004Z</time></trkpt><trkpt lat="43.8316381" lon="6.4769814"><ele>737.75</ele><time>2026-05-02T08:56:48.004Z</time></trkpt><trkpt lat="43.8315881" lon="6.4768073"><ele>728.0</ele><time>2026-05-02T08:56:49.004Z</time></trkpt><trkpt lat="43.8315423" lon="6.4766162"><ele>728.0</ele><time>2026-05-02T08:56:50.003Z</time></trkpt><trkpt lat="43.8315634" lon="6.4764416"><ele>728.0</ele><time>2026-05-02T08:56:51.003Z</time></trkpt><trkpt lat="43.8315553" lon="6.4762739"><ele>728.0</ele><time>2026-05-02T08:56:52.004Z</time></trkpt><trkpt lat="43.8315297" lon="6.4761058"><ele>728.0</ele><time>2026-05-02T08:56:53.004Z</time></trkpt><trkpt lat="43.8314528" lon="6.475917"><ele>729.6666666666666</ele><time>2026-05-02T08:56:54.004Z</time></trkpt><trkpt lat="43.8313992" lon="6.4757509"><ele>731.3333333333334</ele><time>2026-05-02T08:56:55.004Z</time></trkpt><trkpt lat="43.8313496" lon="6.4755695"><ele>733.0</ele><time>2026-05-02T08:56:56.004Z</time></trkpt><trkpt lat="43.8313125" lon="6.4753244"><ele>736.0</ele><time>2026-05-02T08:56:57.004Z</time></trkpt><trkpt lat="43.831247" lon="6.4751019"><ele>739.0</ele><time>2026-05-02T08:56:58.004Z</time></trkpt><trkpt lat="43.8312232" lon="6.4748928"><ele>742.0</ele><time>2026-05-02T08:56:59.004Z</time></trkpt><trkpt lat="43.8312215" lon="6.4746936"><ele>744.0</ele><time>2026-05-02T08:57:00.004Z</time></trkpt><trkpt lat="43.8311926" lon="6.4744593"><ele>746.0</ele><time>2026-05-02T08:57:01.004Z</time></trkpt><trkpt lat="43.8312031" lon="6.474257"><ele>748.0</ele><time>2026-05-02T08:57:02.004Z</time></trkpt><trkpt lat="43.8311982" lon="6.4740457"><ele>748.0</ele><time>2026-05-02T08:57:03.004Z</time></trkpt><trkpt lat="43.8311368" lon="6.4738309"><ele>748.0</ele><time>2026-05-02T08:57:04.003Z</time></trkpt><trkpt lat="43.831075" lon="6.4736402"><ele>748.0</ele><time>2026-05-02T08:57:05.004Z</time></trkpt><trkpt lat="43.8309756" lon="6.473541"><ele>748.0</ele><time>2026-05-02T08:57:06.004Z</time></trkpt><trkpt lat="43.830839" lon="6.4734497"><ele>743.5</ele><time>2026-05-02T08:57:07.003Z</time></trkpt><trkpt lat="43.8307339" lon="6.4733559"><ele>739.0</ele><time>2026-05-02T08:57:08.004Z</time></trkpt><trkpt lat="43.830632" lon="6.4732341"><ele>734.5</ele><time>2026-05-02T08:57:09.004Z</time></trkpt><trkpt lat="43.8304835" lon="6.4731756"><ele>730.0</ele><time>2026-05-02T08:57:10.004Z</time></trkpt><trkpt lat="43.8304204" lon="6.4730591"><ele>732.6666666666667</ele><time>2026-05-02T08:57:11.004Z</time></trkpt><trkpt lat="43.8304021" lon="6.4728298"><ele>735.3333333333334</ele><time>2026-05-02T08:57:12.004Z</time></trkpt><trkpt lat="43.8303273" lon="6.4726474"><ele>738.0</ele><time>2026-05-02T08:57:13.004Z</time></trkpt><trkpt lat="43.8302673" lon="6.4724652"><ele>738.0</ele><time>2026-05-02T08:57:14.004Z</time></trkpt><trkpt lat="43.8302123" lon="6.4722907"><ele>738.0</ele><time>2026-05-02T08:57:15.004Z</time></trkpt><trkpt lat="43.8301543" lon="6.4721118"><ele>738.0</ele><time>2026-05-02T08:57:16.003Z</time></trkpt><trkpt lat="43.830097" lon="6.4719589"><ele>738.0</ele><time>2026-05-02T08:57:17.004Z</time></trkpt><trkpt lat="43.8300256" lon="6.4718207"><ele>735.0</ele><time>2026-05-02T08:57:18.003Z</time></trkpt><trkpt lat="43.8299148" lon="6.4717306"><ele>732.0</ele><time>2026-05-02T08:57:19.004Z</time></trkpt><trkpt lat="43.8298155" lon="6.4716209"><ele>729.0</ele><time>2026-05-02T08:57:20.004Z</time></trkpt><trkpt lat="43.8297099" lon="6.471481"><ele>726.0</ele><time>2026-05-02T08:57:21.003Z</time></trkpt><trkpt lat="43.8296126" lon="6.471324"><ele>733.0</ele><time>2026-05-02T08:57:22.004Z</time></trkpt><trkpt lat="43.8295201" lon="6.4711377"><ele>740.0</ele><time>2026-05-02T08:57:23.004Z</time></trkpt><trkpt lat="43.8294606" lon="6.4709585"><ele>747.0</ele><time>2026-05-02T08:57:24.004Z</time></trkpt><trkpt lat="43.8293806" lon="6.4707413"><ele>747.0</ele><time>2026-05-02T08:57:25.003Z</time></trkpt><trkpt lat="43.8293101" lon="6.4705503"><ele>747.0</ele><time>2026-05-02T08:57:26.004Z</time></trkpt><trkpt lat="43.8292366" lon="6.4703593"><ele>747.0</ele><time>2026-05-02T08:57:27.004Z</time></trkpt><trkpt lat="43.8291857" lon="6.4701864"><ele>747.0</ele><time>2026-05-02T08:57:28.003Z</time></trkpt><trkpt lat="43.829125" lon="6.470014"><ele>740.75</ele><time>2026-05-02T08:57:29.003Z</time></trkpt><trkpt lat="43.8290895" lon="6.4698147"><ele>734.5</ele><time>2026-05-02T08:57:30.004Z</time></trkpt><trkpt lat="43.8290689" lon="6.4696315"><ele>728.25</ele><time>2026-05-02T08:57:31.004Z</time></trkpt><trkpt lat="43.8290731" lon="6.4694279"><ele>722.0</ele><time>2026-05-02T08:57:32.004Z</time></trkpt><trkpt lat="43.8290963" lon="6.469243"><ele>722.0</ele><time>2026-05-02T08:57:33.004Z</time></trkpt><trkpt lat="43.8291347" lon="6.4690645"><ele>722.0</ele><time>2026-05-02T08:57:34.004Z</time></trkpt><trkpt lat="43.8291424" lon="6.4688898"><ele>722.0</ele><time>2026-05-02T08:57:35.004Z</time></trkpt><trkpt lat="43.8291374" lon="6.468722"><ele>722.0</ele><time>2026-05-02T08:57:36.004Z</time></trkpt><trkpt lat="43.8291242" lon="6.4685196"><ele>721.0</ele><time>2026-05-02T08:57:37.004Z</time></trkpt><trkpt lat="43.829054" lon="6.4683417"><ele>720.0</ele><time>2026-05-02T08:57:38.004Z</time></trkpt><trkpt lat="43.8290032" lon="6.4681956"><ele>719.0</ele><time>2026-05-02T08:57:39.003Z</time></trkpt><trkpt lat="43.828955" lon="6.4680242"><ele>718.0</ele><time>2026-05-02T08:57:40.004Z</time></trkpt><trkpt lat="43.828922" lon="6.4678742"><ele>718.0</ele><time>2026-05-02T08:57:41.003Z</time></trkpt><trkpt lat="43.8289357" lon="6.4676559"><ele>718.0</ele><time>2026-05-02T08:57:42.004Z</time></trkpt><trkpt lat="43.8289521" lon="6.4674648"><ele>718.0</ele><time>2026-05-02T08:57:43.004Z</time></trkpt><trkpt lat="43.8289869" lon="6.4672714"><ele>718.0</ele><time>2026-05-02T08:57:44.003Z</time></trkpt><trkpt lat="43.8290254" lon="6.4671008"><ele>718.0</ele><time>2026-05-02T08:57:45.004Z</time></trkpt><trkpt lat="43.829052" lon="6.4669298"><ele>718.0</ele><time>2026-05-02T08:57:46.004Z</time></trkpt><trkpt lat="43.8290926" lon="6.4667571"><ele>718.0</ele><time>2026-05-02T08:57:47.004Z</time></trkpt><trkpt lat="43.8291255" lon="6.4666184"><ele>718.0</ele><time>2026-05-02T08:57:48.004Z</time></trkpt><trkpt lat="43.8291131" lon="6.466466"><ele>718.0</ele><time>2026-05-02T08:57:49.004Z</time></trkpt><trkpt lat="43.8290753" lon="6.4662976"><ele>718.0</ele><time>2026-05-02T08:57:50.004Z</time></trkpt><trkpt lat="43.8290385" lon="6.4661766"><ele>718.0</ele><time>2026-05-02T08:57:51.004Z</time></trkpt><trkpt lat="43.8289418" lon="6.4660072"><ele>718.0</ele><time>2026-05-02T08:57:52.004Z</time></trkpt><trkpt lat="43.8288631" lon="6.465848"><ele>719.5</ele><time>2026-05-02T08:57:53.003Z</time></trkpt><trkpt lat="43.8287876" lon="6.4656848"><ele>721.0</ele><time>2026-05-02T08:57:54.004Z</time></trkpt><trkpt lat="43.8287356" lon="6.4655583"><ele>722.5</ele><time>2026-05-02T08:57:55.004Z</time></trkpt><trkpt lat="43.8287007" lon="6.4653915"><ele>724.0</ele><time>2026-05-02T08:57:56.003Z</time></trkpt><trkpt lat="43.8286908" lon="6.465226"><ele>724.5</ele><time>2026-05-02T08:57:57.003Z</time></trkpt><trkpt lat="43.8286968" lon="6.4650473"><ele>725.0</ele><time>2026-05-02T08:57:58.003Z</time></trkpt><trkpt lat="43.8287152" lon="6.464857"><ele>725.5</ele><time>2026-05-02T08:57:59.004Z</time></trkpt><trkpt lat="43.8287222" lon="6.4646835"><ele>726.0</ele><time>2026-05-02T08:58:00.004Z</time></trkpt><trkpt lat="43.8287222" lon="6.4644972"><ele>726.4</ele><time>2026-05-02T08:58:01.004Z</time></trkpt><trkpt lat="43.8287275" lon="6.4643301"><ele>726.8</ele><time>2026-05-02T08:58:02.004Z</time></trkpt><trkpt lat="43.8287207" lon="6.4641823"><ele>727.1999999999999</ele><time>2026-05-02T08:58:03.004Z</time></trkpt><trkpt lat="43.8287038" lon="6.4640364"><ele>727.5999999999999</ele><time>2026-05-02T08:58:04.003Z</time></trkpt><trkpt lat="43.8286515" lon="6.4639187"><ele>728.0</ele><time>2026-05-02T08:58:05.004Z</time></trkpt><trkpt lat="43.8285908" lon="6.4638124"><ele>728.5</ele><time>2026-05-02T08:58:06.004Z</time></trkpt><trkpt lat="43.8285042" lon="6.4637124"><ele>729.0</ele><time>2026-05-02T08:58:07.004Z</time></trkpt><trkpt lat="43.8284095" lon="6.4636056"><ele>729.5</ele><time>2026-05-02T08:58:08.004Z</time></trkpt><trkpt lat="43.8283357" lon="6.4634735"><ele>730.0</ele><time>2026-05-02T08:58:09.004Z</time></trkpt><trkpt lat="43.828257" lon="6.4633086"><ele>726.25</ele><time>2026-05-02T08:58:10.004Z</time></trkpt><trkpt lat="43.8281697" lon="6.4631706"><ele>722.5</ele><time>2026-05-02T08:58:11.003Z</time></trkpt><trkpt lat="43.8280941" lon="6.4630196"><ele>718.75</ele><time>2026-05-02T08:58:12.003Z</time></trkpt><trkpt lat="43.8280396" lon="6.4628735"><ele>715.0</ele><time>2026-05-02T08:58:13.004Z</time></trkpt><trkpt lat="43.8279926" lon="6.4626969"><ele>715.0</ele><time>2026-05-02T08:58:14.004Z</time></trkpt><trkpt lat="43.8279475" lon="6.4625547"><ele>715.0</ele><time>2026-05-02T08:58:15.003Z</time></trkpt><trkpt lat="43.827881" lon="6.4624099"><ele>715.0</ele><time>2026-05-02T08:58:16.004Z</time></trkpt><trkpt lat="43.827827" lon="6.4622844"><ele>715.0</ele><time>2026-05-02T08:58:17.004Z</time></trkpt><trkpt lat="43.8277679" lon="6.4621516"><ele>716.25</ele><time>2026-05-02T08:58:18.004Z</time></trkpt><trkpt lat="43.8277374" lon="6.4619898"><ele>717.5</ele><time>2026-05-02T08:58:19.004Z</time></trkpt><trkpt lat="43.8277157" lon="6.4618287"><ele>718.75</ele><time>2026-05-02T08:58:20.004Z</time></trkpt><trkpt lat="43.8277154" lon="6.4616769"><ele>720.0</ele><time>2026-05-02T08:58:21.004Z</time></trkpt><trkpt lat="43.8277251" lon="6.4615058"><ele>720.0</ele><time>2026-05-02T08:58:22.004Z</time></trkpt><trkpt lat="43.8277558" lon="6.4613441"><ele>720.0</ele><time>2026-05-02T08:58:23.004Z</time></trkpt><trkpt lat="43.8277934" lon="6.461207"><ele>720.0</ele><time>2026-05-02T08:58:24.004Z</time></trkpt><trkpt lat="43.8278473" lon="6.4610595"><ele>720.0</ele><time>2026-05-02T08:58:25.004Z</time></trkpt><trkpt lat="43.8279253" lon="6.4609348"><ele>718.2</ele><time>2026-05-02T08:58:26.004Z</time></trkpt><trkpt lat="43.8280148" lon="6.4608174"><ele>716.4</ele><time>2026-05-02T08:58:27.004Z</time></trkpt><trkpt lat="43.828106" lon="6.4607157"><ele>714.5999999999999</ele><time>2026-05-02T08:58:28.004Z</time></trkpt><trkpt lat="43.8281495" lon="6.4606011"><ele>712.8</ele><time>2026-05-02T08:58:29.004Z</time></trkpt><trkpt lat="43.8281931" lon="6.4604995"><ele>711.0</ele><time>2026-05-02T08:58:30.004Z</time></trkpt><trkpt lat="43.8282598" lon="6.4604016"><ele>709.4</ele><time>2026-05-02T08:58:31.004Z</time></trkpt><trkpt lat="43.8283159" lon="6.4603027"><ele>707.8</ele><time>2026-05-02T08:58:32.004Z</time></trkpt><trkpt lat="43.8283742" lon="6.4601986"><ele>706.1999999999999</ele><time>2026-05-02T08:58:33.004Z</time></trkpt><trkpt lat="43.8284303" lon="6.4601109"><ele>704.5999999999999</ele><time>2026-05-02T08:58:34.004Z</time></trkpt><trkpt lat="43.828494" lon="6.4599971"><ele>703.0</ele><time>2026-05-02T08:58:35.004Z</time></trkpt><trkpt lat="43.8285528" lon="6.4598615"><ele>705.8</ele><time>2026-05-02T08:58:36.004Z</time></trkpt><trkpt lat="43.8285864" lon="6.4597126"><ele>708.5999999999999</ele><time>2026-05-02T08:58:37.004Z</time></trkpt><trkpt lat="43.8285963" lon="6.4595498"><ele>711.4000000000001</ele><time>2026-05-02T08:58:38.004Z</time></trkpt><trkpt lat="43.8286053" lon="6.4594132"><ele>714.2</ele><time>2026-05-02T08:58:39.004Z</time></trkpt><trkpt lat="43.8286399" lon="6.4592768"><ele>717.0</ele><time>2026-05-02T08:58:40.003Z</time></trkpt><trkpt lat="43.8287116" lon="6.4591197"><ele>717.0</ele><time>2026-05-02T08:58:41.004Z</time></trkpt><trkpt lat="43.8288026" lon="6.4589771"><ele>717.0</ele><time>2026-05-02T08:58:42.004Z</time></trkpt><trkpt lat="43.8288851" lon="6.4588487"><ele>717.0</ele><time>2026-05-02T08:58:43.003Z</time></trkpt><trkpt lat="43.8289586" lon="6.458702"><ele>717.0</ele><time>2026-05-02T08:58:44.004Z</time></trkpt><trkpt lat="43.8290374" lon="6.4586218"><ele>720.5</ele><time>2026-05-02T08:58:45.004Z</time></trkpt><trkpt lat="43.8291188" lon="6.4584712"><ele>724.0</ele><time>2026-05-02T08:58:46.004Z</time></trkpt><trkpt lat="43.82923" lon="6.4583481"><ele>727.5</ele><time>2026-05-02T08:58:47.004Z</time></trkpt><trkpt lat="43.8293122" lon="6.45821"><ele>731.0</ele><time>2026-05-02T08:58:48.004Z</time></trkpt><trkpt lat="43.8293803" lon="6.4580571"><ele>726.0</ele><time>2026-05-02T08:58:49.004Z</time></trkpt><trkpt lat="43.8294392" lon="6.4579101"><ele>721.0</ele><time>2026-05-02T08:58:50.004Z</time></trkpt><trkpt lat="43.8295094" lon="6.4577745"><ele>716.0</ele><time>2026-05-02T08:58:51.004Z</time></trkpt><trkpt lat="43.8295678" lon="6.4576205"><ele>711.0</ele><time>2026-05-02T08:58:52.004Z</time></trkpt><trkpt lat="43.8296297" lon="6.4574811"><ele>711.0</ele><time>2026-05-02T08:58:53.003Z</time></trkpt><trkpt lat="43.8296977" lon="6.4573294"><ele>711.0</ele><time>2026-05-02T08:58:54.003Z</time></trkpt><trkpt lat="43.8297865" lon="6.4572066"><ele>711.0</ele><time>2026-05-02T08:58:55.004Z</time></trkpt><trkpt lat="43.829885" lon="6.4570731"><ele>711.0</ele><time>2026-05-02T08:58:56.004Z</time></trkpt><trkpt lat="43.829982" lon="6.4569415"><ele>707.25</ele><time>2026-05-02T08:58:57.004Z</time></trkpt><trkpt lat="43.8300809" lon="6.4568158"><ele>703.5</ele><time>2026-05-02T08:58:58.004Z</time></trkpt><trkpt lat="43.830166" lon="6.4566881"><ele>699.75</ele><time>2026-05-02T08:58:59.004Z</time></trkpt><trkpt lat="43.8302388" lon="6.4565693"><ele>696.0</ele><time>2026-05-02T08:59:00.004Z</time></trkpt><trkpt lat="43.8303241" lon="6.456431"><ele>703.25</ele><time>2026-05-02T08:59:01.004Z</time></trkpt><trkpt lat="43.8303998" lon="6.4562838"><ele>710.5</ele><time>2026-05-02T08:59:02.004Z</time></trkpt><trkpt lat="43.8304676" lon="6.4561458"><ele>717.75</ele><time>2026-05-02T08:59:03.004Z</time></trkpt><trkpt lat="43.8305024" lon="6.4559857"><ele>725.0</ele><time>2026-05-02T08:59:04.004Z</time></trkpt><trkpt lat="43.8305308" lon="6.4558255"><ele>725.0</ele><time>2026-05-02T08:59:05.004Z</time></trkpt><trkpt lat="43.8305315" lon="6.4556163"><ele>725.0</ele><time>2026-05-02T08:59:06.004Z</time></trkpt><trkpt lat="43.8305251" lon="6.4554009"><ele>725.0</ele><time>2026-05-02T08:59:07.004Z</time></trkpt><trkpt lat="43.8305011" lon="6.4552042"><ele>723.0</ele><time>2026-05-02T08:59:08.004Z</time></trkpt><trkpt lat="43.8304861" lon="6.4550198"><ele>721.0</ele><time>2026-05-02T08:59:09.004Z</time></trkpt><trkpt lat="43.8304685" lon="6.4548311"><ele>719.0</ele><time>2026-05-02T08:59:10.003Z</time></trkpt><trkpt lat="43.8304759" lon="6.4546332"><ele>717.0</ele><time>2026-05-02T08:59:11.004Z</time></trkpt><trkpt lat="43.8304876" lon="6.4544306"><ele>715.6666666666666</ele><time>2026-05-02T08:59:12.004Z</time></trkpt><trkpt lat="43.830502" lon="6.4542352"><ele>714.3333333333333</ele><time>2026-05-02T08:59:13.003Z</time></trkpt><trkpt lat="43.8305206" lon="6.4540177"><ele>713.0</ele><time>2026-05-02T08:59:14.004Z</time></trkpt><trkpt lat="43.8305551" lon="6.4538051"><ele>709.6666666666666</ele><time>2026-05-02T08:59:15.004Z</time></trkpt><trkpt lat="43.8305868" lon="6.4535864"><ele>706.3333333333334</ele><time>2026-05-02T08:59:16.003Z</time></trkpt><trkpt lat="43.8306211" lon="6.4533752"><ele>703.0</ele><time>2026-05-02T08:59:17.004Z</time></trkpt><trkpt lat="43.8306892" lon="6.453189"><ele>703.0</ele><time>2026-05-02T08:59:18.004Z</time></trkpt><trkpt lat="43.8307662" lon="6.4529977"><ele>703.0</ele><time>2026-05-02T08:59:19.004Z</time></trkpt><trkpt lat="43.8308518" lon="6.452814"><ele>703.0</ele><time>2026-05-02T08:59:20.004Z</time></trkpt><trkpt lat="43.8309643" lon="6.4526689"><ele>706.0</ele><time>2026-05-02T08:59:21.004Z</time></trkpt><trkpt lat="43.8310754" lon="6.4525192"><ele>709.0</ele><time>2026-05-02T08:59:22.004Z</time></trkpt><trkpt lat="43.8311744" lon="6.4524231"><ele>712.0</ele><time>2026-05-02T08:59:23.004Z</time></trkpt><trkpt lat="43.8312785" lon="6.4523065"><ele>715.0</ele><time>2026-05-02T08:59:24.004Z</time></trkpt><trkpt lat="43.8313751" lon="6.4522026"><ele>712.5</ele><time>2026-05-02T08:59:25.004Z</time></trkpt><trkpt lat="43.8314496" lon="6.4520699"><ele>710.0</ele><time>2026-05-02T08:59:26.004Z</time></trkpt><trkpt lat="43.8315141" lon="6.4519503"><ele>707.5</ele><time>2026-05-02T08:59:27.004Z</time></trkpt><trkpt lat="43.831588" lon="6.4517893"><ele>705.0</ele><time>2026-05-02T08:59:28.004Z</time></trkpt><trkpt lat="43.8316235" lon="6.4516223"><ele>705.0</ele><time>2026-05-02T08:59:29.003Z</time></trkpt><trkpt lat="43.8316502" lon="6.4514045"><ele>705.0</ele><time>2026-05-02T08:59:30.004Z</time></trkpt><trkpt lat="43.8316561" lon="6.4511883"><ele>705.0</ele><time>2026-05-02T08:59:31.003Z</time></trkpt><trkpt lat="43.831671" lon="6.4509983"><ele>703.5</ele><time>2026-05-02T08:59:32.003Z</time></trkpt><trkpt lat="43.8316869" lon="6.4508309"><ele>702.0</ele><time>2026-05-02T08:59:33.004Z</time></trkpt><trkpt lat="43.8316845" lon="6.4506714"><ele>700.5</ele><time>2026-05-02T08:59:34.003Z</time></trkpt><trkpt lat="43.8316809" lon="6.4505154"><ele>699.0</ele><time>2026-05-02T08:59:35.004Z</time></trkpt><trkpt lat="43.8316629" lon="6.4503507"><ele>698.5</ele><time>2026-05-02T08:59:36.004Z</time></trkpt><trkpt lat="43.8316439" lon="6.4502355"><ele>698.0</ele><time>2026-05-02T08:59:37.004Z</time></trkpt><trkpt lat="43.8316085" lon="6.4500863"><ele>697.5</ele><time>2026-05-02T08:59:38.004Z</time></trkpt><trkpt lat="43.831597" lon="6.4498995"><ele>697.0</ele><time>2026-05-02T08:59:39.004Z</time></trkpt><trkpt lat="43.831618" lon="6.4497338"><ele>696.25</ele><time>2026-05-02T08:59:40.004Z</time></trkpt><trkpt lat="43.8316426" lon="6.4495507"><ele>695.5</ele><time>2026-05-02T08:59:41.004Z</time></trkpt><trkpt lat="43.8316916" lon="6.4493844"><ele>694.75</ele><time>2026-05-02T08:59:42.003Z</time></trkpt><trkpt lat="43.831749" lon="6.4492309"><ele>694.0</ele><time>2026-05-02T08:59:43.004Z</time></trkpt><trkpt lat="43.8318183" lon="6.4490657"><ele>704.0</ele><time>2026-05-02T08:59:44.004Z</time></trkpt><trkpt lat="43.8318756" lon="6.4489029"><ele>714.0</ele><time>2026-05-02T08:59:45.004Z</time></trkpt><trkpt lat="43.8319422" lon="6.4487208"><ele>724.0</ele><time>2026-05-02T08:59:46.004Z</time></trkpt><trkpt lat="43.8319467" lon="6.4485551"><ele>734.0</ele><time>2026-05-02T08:59:47.004Z</time></trkpt><trkpt lat="43.8319671" lon="6.4483824"><ele>734.0</ele><time>2026-05-02T08:59:48.004Z</time></trkpt><trkpt lat="43.8319855" lon="6.4482095"><ele>734.0</ele><time>2026-05-02T08:59:49.003Z</time></trkpt><trkpt lat="43.8319928" lon="6.4480152"><ele>734.0</ele><time>2026-05-02T08:59:50.004Z</time></trkpt><trkpt lat="43.8320105" lon="6.4478397"><ele>734.0</ele><time>2026-05-02T08:59:51.004Z</time></trkpt><trkpt lat="43.8320158" lon="6.4476384"><ele>740.25</ele><time>2026-05-02T08:59:52.004Z</time></trkpt><trkpt lat="43.8320056" lon="6.4474133"><ele>746.5</ele><time>2026-05-02T08:59:53.003Z</time></trkpt><trkpt lat="43.8320113" lon="6.4472276"><ele>752.75</ele><time>2026-05-02T08:59:54.004Z</time></trkpt><trkpt lat="43.8320288" lon="6.4470205"><ele>759.0</ele><time>2026-05-02T08:59:55.003Z</time></trkpt><trkpt lat="43.8320298" lon="6.4468415"><ele>759.0</ele><time>2026-05-02T08:59:56.004Z</time></trkpt><trkpt lat="43.8320205" lon="6.4466594"><ele>759.0</ele><time>2026-05-02T08:59:57.003Z</time></trkpt><trkpt lat="43.8320115" lon="6.4465239"><ele>759.0</ele><time>2026-05-02T08:59:58.004Z</time></trkpt><trkpt lat="43.8320049" lon="6.4463572"><ele>759.0</ele><time>2026-05-02T08:59:59.004Z</time></trkpt><trkpt lat="43.8319709" lon="6.4462088"><ele>771.5</ele><time>2026-05-02T09:00:00.004Z</time></trkpt><trkpt lat="43.8319534" lon="6.4460571"><ele>784.0</ele><time>2026-05-02T09:00:01.004Z</time></trkpt><trkpt lat="43.8319154" lon="6.4458568"><ele>796.5</ele><time>2026-05-02T09:00:02.004Z</time></trkpt><trkpt lat="43.831888" lon="6.4456675"><ele>809.0</ele><time>2026-05-02T09:00:03.004Z</time></trkpt><trkpt lat="43.831841" lon="6.4454957"><ele>804.0</ele><time>2026-05-02T09:00:04.004Z</time></trkpt><trkpt lat="43.8318043" lon="6.4453101"><ele>799.0</ele><time>2026-05-02T09:00:05.004Z</time></trkpt><trkpt lat="43.8317545" lon="6.4451582"><ele>794.0</ele><time>2026-05-02T09:00:06.004Z</time></trkpt><trkpt lat="43.8316906" lon="6.4450197"><ele>789.0</ele><time>2026-05-02T09:00:07.004Z</time></trkpt><trkpt lat="43.8316172" lon="6.444897"><ele>789.0</ele><time>2026-05-02T09:00:08.004Z</time></trkpt><trkpt lat="43.8315305" lon="6.4447812"><ele>789.0</ele><time>2026-05-02T09:00:09.003Z</time></trkpt><trkpt lat="43.8314517" lon="6.4446613"><ele>789.0</ele><time>2026-05-02T09:00:10.004Z</time></trkpt><trkpt lat="43.8313771" lon="6.4445368"><ele>789.0</ele><time>2026-05-02T09:00:11.004Z</time></trkpt><trkpt lat="43.8312794" lon="6.4444367"><ele>778.25</ele><time>2026-05-02T09:00:12.003Z</time></trkpt><trkpt lat="43.8311989" lon="6.4443406"><ele>767.5</ele><time>2026-05-02T09:00:13.004Z</time></trkpt><trkpt lat="43.83114" lon="6.4442409"><ele>756.75</ele><time>2026-05-02T09:00:14.004Z</time></trkpt><trkpt lat="43.8310808" lon="6.4440893"><ele>746.0</ele><time>2026-05-02T09:00:15.004Z</time></trkpt><trkpt lat="43.8310495" lon="6.4438472"><ele>736.75</ele><time>2026-05-02T09:00:17.004Z</time></trkpt><trkpt lat="43.8309873" lon="6.4437564"><ele>727.5</ele><time>2026-05-02T09:00:18.004Z</time></trkpt><trkpt lat="43.8309392" lon="6.4435495"><ele>718.25</ele><time>2026-05-02T09:00:19.003Z</time></trkpt><trkpt lat="43.8308682" lon="6.4434239"><ele>709.0</ele><time>2026-05-02T09:00:20.004Z</time></trkpt><trkpt lat="43.831" lon="6.4432766"><ele>709.0</ele><time>2026-05-02T09:00:21.003Z</time></trkpt><trkpt lat="43.8310674" lon="6.4431395"><ele>709.0</ele><time>2026-05-02T09:00:22.003Z</time></trkpt><trkpt lat="43.8311742" lon="6.4430369"><ele>709.0</ele><time>2026-05-02T09:00:23.004Z</time></trkpt><trkpt lat="43.8312617" lon="6.4429251"><ele>709.0</ele><time>2026-05-02T09:00:24.004Z</time></trkpt><trkpt lat="43.8313557" lon="6.4428389"><ele>700.0</ele><time>2026-05-02T09:00:25.004Z</time></trkpt><trkpt lat="43.8314678" lon="6.442738"><ele>691.0</ele><time>2026-05-02T09:00:26.004Z</time></trkpt><trkpt lat="43.831637" lon="6.4426545"><ele>682.0</ele><time>2026-05-02T09:00:27.003Z</time></trkpt><trkpt lat="43.8317991" lon="6.4425721"><ele>687.3333333333334</ele><time>2026-05-02T09:00:28.004Z</time></trkpt><trkpt lat="43.8319297" lon="6.4424789"><ele>692.6666666666666</ele><time>2026-05-02T09:00:29.004Z</time></trkpt><trkpt lat="43.8320915" lon="6.4423796"><ele>698.0</ele><time>2026-05-02T09:00:30.004Z</time></trkpt><trkpt lat="43.8322306" lon="6.4422927"><ele>698.0</ele><time>2026-05-02T09:00:31.004Z</time></trkpt><trkpt lat="43.8323486" lon="6.4421816"><ele>698.0</ele><time>2026-05-02T09:00:32.003Z</time></trkpt><trkpt lat="43.8324376" lon="6.4420743"><ele>698.0</ele><time>2026-05-02T09:00:33.004Z</time></trkpt><trkpt lat="43.8325399" lon="6.4419646"><ele>698.0</ele><time>2026-05-02T09:00:34.004Z</time></trkpt><trkpt lat="43.8326438" lon="6.4417904"><ele>695.6666666666666</ele><time>2026-05-02T09:00:35.003Z</time></trkpt><trkpt lat="43.8327453" lon="6.4416234"><ele>693.3333333333334</ele><time>2026-05-02T09:00:36.004Z</time></trkpt><trkpt lat="43.8328342" lon="6.4414133"><ele>691.0</ele><time>2026-05-02T09:00:37.004Z</time></trkpt><trkpt lat="43.8329045" lon="6.4412193"><ele>691.0</ele><time>2026-05-02T09:00:38.004Z</time></trkpt><trkpt lat="43.832988" lon="6.4410301"><ele>691.0</ele><time>2026-05-02T09:00:39.004Z</time></trkpt><trkpt lat="43.833066" lon="6.4408499"><ele>691.0</ele><time>2026-05-02T09:00:40.004Z</time></trkpt><trkpt lat="43.8331401" lon="6.4406802"><ele>691.0</ele><time>2026-05-02T09:00:41.004Z</time></trkpt><trkpt lat="43.8332234" lon="6.440481"><ele>691.0</ele><time>2026-05-02T09:00:42.004Z</time></trkpt><trkpt lat="43.8332934" lon="6.4402792"><ele>691.0</ele><time>2026-05-02T09:00:43.004Z</time></trkpt><trkpt lat="43.8333523" lon="6.4400994"><ele>688.75</ele><time>2026-05-02T09:00:44.004Z</time></trkpt><trkpt lat="43.8334048" lon="6.4399124"><ele>686.5</ele><time>2026-05-02T09:00:45.003Z</time></trkpt><trkpt lat="43.8334677" lon="6.4397213"><ele>684.25</ele><time>2026-05-02T09:00:46.004Z</time></trkpt><trkpt lat="43.8334775" lon="6.4395143"><ele>682.0</ele><time>2026-05-02T09:00:47.004Z</time></trkpt><trkpt lat="43.8334995" lon="6.439321"><ele>693.6666666666667</ele><time>2026-05-02T09:00:48.004Z</time></trkpt><trkpt lat="43.8334954" lon="6.4391105"><ele>705.3333333333334</ele><time>2026-05-02T09:00:49.004Z</time></trkpt><trkpt lat="43.8334877" lon="6.4388707"><ele>717.0</ele><time>2026-05-02T09:00:50.004Z</time></trkpt><trkpt lat="43.8334838" lon="6.4386785"><ele>704.3333333333334</ele><time>2026-05-02T09:00:51.004Z</time></trkpt><trkpt lat="43.833451" lon="6.4384494"><ele>691.6666666666667</ele><time>2026-05-02T09:00:52.004Z</time></trkpt><trkpt lat="43.833431" lon="6.4382491"><ele>679.0</ele><time>2026-05-02T09:00:53.004Z</time></trkpt><trkpt lat="43.8333836" lon="6.4380492"><ele>680.25</ele><time>2026-05-02T09:00:54.004Z</time></trkpt><trkpt lat="43.8333595" lon="6.4378632"><ele>681.5</ele><time>2026-05-02T09:00:55.004Z</time></trkpt><trkpt lat="43.8333132" lon="6.4376768"><ele>682.75</ele><time>2026-05-02T09:00:56.003Z</time></trkpt><trkpt lat="43.8332673" lon="6.4374931"><ele>684.0</ele><time>2026-05-02T09:00:57.004Z</time></trkpt><trkpt lat="43.8332367" lon="6.4372991"><ele>684.75</ele><time>2026-05-02T09:00:58.004Z</time></trkpt><trkpt lat="43.8332035" lon="6.4370932"><ele>685.5</ele><time>2026-05-02T09:00:59.003Z</time></trkpt><trkpt lat="43.833162" lon="6.4368967"><ele>686.25</ele><time>2026-05-02T09:01:00.004Z</time></trkpt><trkpt lat="43.8331317" lon="6.4367"><ele>687.0</ele><time>2026-05-02T09:01:01.004Z</time></trkpt><trkpt lat="43.8331038" lon="6.4365141"><ele>687.0</ele><time>2026-05-02T09:01:02.004Z</time></trkpt><trkpt lat="43.8330822" lon="6.4363296"><ele>687.0</ele><time>2026-05-02T09:01:03.004Z</time></trkpt><trkpt lat="43.8330555" lon="6.4361347"><ele>687.0</ele><time>2026-05-02T09:01:04.004Z</time></trkpt><trkpt lat="43.8330362" lon="6.4359652"><ele>687.0</ele><time>2026-05-02T09:01:05.004Z</time></trkpt><trkpt lat="43.83302" lon="6.4357758"><ele>689.0</ele><time>2026-05-02T09:01:06.003Z</time></trkpt><trkpt lat="43.8329873" lon="6.4355982"><ele>691.0</ele><time>2026-05-02T09:01:07.004Z</time></trkpt><trkpt lat="43.8329419" lon="6.4354276"><ele>693.0</ele><time>2026-05-02T09:01:08.004Z</time></trkpt><trkpt lat="43.8328752" lon="6.4352881"><ele>695.0</ele><time>2026-05-02T09:01:09.004Z</time></trkpt><trkpt lat="43.8327894" lon="6.4351484"><ele>691.5</ele><time>2026-05-02T09:01:10.004Z</time></trkpt><trkpt lat="43.8326811" lon="6.4350202"><ele>688.0</ele><time>2026-05-02T09:01:11.004Z</time></trkpt><trkpt lat="43.8325708" lon="6.4349096"><ele>684.5</ele><time>2026-05-02T09:01:12.004Z</time></trkpt><trkpt lat="43.8324484" lon="6.4347867"><ele>681.0</ele><time>2026-05-02T09:01:13.004Z</time></trkpt><trkpt lat="43.8323294" lon="6.4346613"><ele>690.0</ele><time>2026-05-02T09:01:14.004Z</time></trkpt><trkpt lat="43.8322228" lon="6.434521"><ele>699.0</ele><time>2026-05-02T09:01:15.004Z</time></trkpt><trkpt lat="43.8321077" lon="6.4344043"><ele>708.0</ele><time>2026-05-02T09:01:16.004Z</time></trkpt><trkpt lat="43.8319773" lon="6.4342662"><ele>708.0</ele><time>2026-05-02T09:01:17.004Z</time></trkpt><trkpt lat="43.8318718" lon="6.4341307"><ele>708.0</ele><time>2026-05-02T09:01:18.004Z</time></trkpt><trkpt lat="43.8317801" lon="6.4340021"><ele>708.0</ele><time>2026-05-02T09:01:19.003Z</time></trkpt><trkpt lat="43.831694" lon="6.4338812"><ele>708.0</ele><time>2026-05-02T09:01:20.003Z</time></trkpt><trkpt lat="43.8315862" lon="6.4337595"><ele>703.0</ele><time>2026-05-02T09:01:21.004Z</time></trkpt><trkpt lat="43.8314963" lon="6.4336285"><ele>698.0</ele><time>2026-05-02T09:01:22.004Z</time></trkpt><trkpt lat="43.8314264" lon="6.4334951"><ele>693.0</ele><time>2026-05-02T09:01:23.003Z</time></trkpt><trkpt lat="43.8313536" lon="6.433373"><ele>688.0</ele><time>2026-05-02T09:01:24.003Z</time></trkpt><trkpt lat="43.8312965" lon="6.4332436"><ele>688.0</ele><time>2026-05-02T09:01:25.004Z</time></trkpt><trkpt lat="43.8312943" lon="6.4330998"><ele>688.0</ele><time>2026-05-02T09:01:26.003Z</time></trkpt><trkpt lat="43.8312915" lon="6.4329505"><ele>688.0</ele><time>2026-05-02T09:01:27.003Z</time></trkpt><trkpt lat="43.8312827" lon="6.432785"><ele>688.0</ele><time>2026-05-02T09:01:28.004Z</time></trkpt><trkpt lat="43.831266" lon="6.4326207"><ele>688.0</ele><time>2026-05-02T09:01:29.004Z</time></trkpt><trkpt lat="43.8312635" lon="6.4324566"><ele>688.0</ele><time>2026-05-02T09:01:30.004Z</time></trkpt><trkpt lat="43.8312623" lon="6.4322899"><ele>688.0</ele><time>2026-05-02T09:01:31.004Z</time></trkpt><trkpt lat="43.8312445" lon="6.4321239"><ele>688.0</ele><time>2026-05-02T09:01:32.004Z</time></trkpt><trkpt lat="43.8312297" lon="6.4319457"><ele>688.75</ele><time>2026-05-02T09:01:33.004Z</time></trkpt><trkpt lat="43.8311796" lon="6.431794"><ele>689.5</ele><time>2026-05-02T09:01:34.003Z</time></trkpt><trkpt lat="43.8311206" lon="6.4316228"><ele>690.25</ele><time>2026-05-02T09:01:35.004Z</time></trkpt><trkpt lat="43.8310598" lon="6.4314713"><ele>691.0</ele><time>2026-05-02T09:01:36.004Z</time></trkpt><trkpt lat="43.8309968" lon="6.4313067"><ele>687.5</ele><time>2026-05-02T09:01:37.004Z</time></trkpt><trkpt lat="43.8309198" lon="6.4311427"><ele>684.0</ele><time>2026-05-02T09:01:38.004Z</time></trkpt><trkpt lat="43.8308502" lon="6.430986"><ele>680.5</ele><time>2026-05-02T09:01:39.003Z</time></trkpt><trkpt lat="43.8307667" lon="6.4308161"><ele>677.0</ele><time>2026-05-02T09:01:40.004Z</time></trkpt><trkpt lat="43.830701" lon="6.4306631"><ele>677.0</ele><time>2026-05-02T09:01:41.004Z</time></trkpt><trkpt lat="43.8306413" lon="6.4304963"><ele>677.0</ele><time>2026-05-02T09:01:42.004Z</time></trkpt><trkpt lat="43.8305914" lon="6.4303349"><ele>677.0</ele><time>2026-05-02T09:01:43.003Z</time></trkpt><trkpt lat="43.8305512" lon="6.430155"><ele>677.0</ele><time>2026-05-02T09:01:44.004Z</time></trkpt><trkpt lat="43.8304979" lon="6.4299732"><ele>677.5</ele><time>2026-05-02T09:01:45.004Z</time></trkpt><trkpt lat="43.8304765" lon="6.4297916"><ele>678.0</ele><time>2026-05-02T09:01:46.004Z</time></trkpt><trkpt lat="43.8304625" lon="6.429609"><ele>678.5</ele><time>2026-05-02T09:01:47.003Z</time></trkpt><trkpt lat="43.8304549" lon="6.4294372"><ele>679.0</ele><time>2026-05-02T09:01:48.004Z</time></trkpt><trkpt lat="43.8304396" lon="6.4292638"><ele>679.0</ele><time>2026-05-02T09:01:49.004Z</time></trkpt><trkpt lat="43.8304525" lon="6.4290878"><ele>679.0</ele><time>2026-05-02T09:01:50.004Z</time></trkpt><trkpt lat="43.8304695" lon="6.4289229"><ele>679.0</ele><time>2026-05-02T09:01:51.004Z</time></trkpt><trkpt lat="43.8304701" lon="6.428754"><ele>679.0</ele><time>2026-05-02T09:01:52.004Z</time></trkpt><trkpt lat="43.8304467" lon="6.4285881"><ele>679.75</ele><time>2026-05-02T09:01:53.004Z</time></trkpt><trkpt lat="43.8304186" lon="6.4284285"><ele>680.5</ele><time>2026-05-02T09:01:54.004Z</time></trkpt><trkpt lat="43.8303706" lon="6.4282865"><ele>681.25</ele><time>2026-05-02T09:01:55.004Z</time></trkpt><trkpt lat="43.8302889" lon="6.4281404"><ele>682.0</ele><time>2026-05-02T09:01:56.004Z</time></trkpt><trkpt lat="43.830212" lon="6.4279936"><ele>680.25</ele><time>2026-05-02T09:01:57.004Z</time></trkpt><trkpt lat="43.8301198" lon="6.42784"><ele>678.5</ele><time>2026-05-02T09:01:58.004Z</time></trkpt><trkpt lat="43.8300276" lon="6.4277069"><ele>676.75</ele><time>2026-05-02T09:01:59.004Z</time></trkpt><trkpt lat="43.829925" lon="6.4275937"><ele>675.0</ele><time>2026-05-02T09:02:00.004Z</time></trkpt><trkpt lat="43.8298261" lon="6.4274832"><ele>675.0</ele><time>2026-05-02T09:02:01.004Z</time></trkpt><trkpt lat="43.8297278" lon="6.4273847"><ele>675.0</ele><time>2026-05-02T09:02:02.004Z</time></trkpt><trkpt lat="43.8296468" lon="6.4272622"><ele>675.0</ele><time>2026-05-02T09:02:03.004Z</time></trkpt><trkpt lat="43.8295908" lon="6.4271187"><ele>675.0</ele><time>2026-05-02T09:02:04.004Z</time></trkpt><trkpt lat="43.8295502" lon="6.4269625"><ele>675.25</ele><time>2026-05-02T09:02:05.004Z</time></trkpt><trkpt lat="43.8294849" lon="6.4268239"><ele>675.5</ele><time>2026-05-02T09:02:06.004Z</time></trkpt><trkpt lat="43.8294035" lon="6.4266891"><ele>675.75</ele><time>2026-05-02T09:02:07.004Z</time></trkpt><trkpt lat="43.8293266" lon="6.4265787"><ele>676.0</ele><time>2026-05-02T09:02:08.004Z</time></trkpt><trkpt lat="43.8292389" lon="6.4264835"><ele>676.0</ele><time>2026-05-02T09:02:09.004Z</time></trkpt><trkpt lat="43.8290864" lon="6.4264539"><ele>676.0</ele><time>2026-05-02T09:02:10.004Z</time></trkpt><trkpt lat="43.8289511" lon="6.4263882"><ele>676.0</ele><time>2026-05-02T09:02:11.004Z</time></trkpt><trkpt lat="43.8288259" lon="6.4263057"><ele>676.0</ele><time>2026-05-02T09:02:12.004Z</time></trkpt><trkpt lat="43.8287174" lon="6.426205"><ele>678.5</ele><time>2026-05-02T09:02:13.004Z</time></trkpt><trkpt lat="43.8285908" lon="6.4261195"><ele>681.0</ele><time>2026-05-02T09:02:14.003Z</time></trkpt><trkpt lat="43.828441" lon="6.4260608"><ele>683.5</ele><time>2026-05-02T09:02:15.004Z</time></trkpt><trkpt lat="43.8283498" lon="6.4260035"><ele>686.0</ele><time>2026-05-02T09:02:16.004Z</time></trkpt><trkpt lat="43.8282464" lon="6.4259526"><ele>686.0</ele><time>2026-05-02T09:02:17.003Z</time></trkpt><trkpt lat="43.828124" lon="6.4259227"><ele>686.0</ele><time>2026-05-02T09:02:18.004Z</time></trkpt><trkpt lat="43.8280026" lon="6.425885"><ele>686.0</ele><time>2026-05-02T09:02:19.004Z</time></trkpt><trkpt lat="43.8278788" lon="6.4258697"><ele>686.0</ele><time>2026-05-02T09:02:20.004Z</time></trkpt><trkpt lat="43.8277175" lon="6.4258806"><ele>686.5</ele><time>2026-05-02T09:02:21.004Z</time></trkpt><trkpt lat="43.8275957" lon="6.4258961"><ele>687.0</ele><time>2026-05-02T09:02:22.004Z</time></trkpt><trkpt lat="43.8274476" lon="6.4260041"><ele>687.5</ele><time>2026-05-02T09:02:23.004Z</time></trkpt><trkpt lat="43.8273382" lon="6.4261403"><ele>688.0</ele><time>2026-05-02T09:02:24.004Z</time></trkpt><trkpt lat="43.8272334" lon="6.4262619"><ele>683.75</ele><time>2026-05-02T09:02:25.003Z</time></trkpt><trkpt lat="43.8271244" lon="6.4263809"><ele>679.5</ele><time>2026-05-02T09:02:26.003Z</time></trkpt><trkpt lat="43.8270366" lon="6.4265218"><ele>675.25</ele><time>2026-05-02T09:02:27.004Z</time></trkpt><trkpt lat="43.8269527" lon="6.4266584"><ele>671.0</ele><time>2026-05-02T09:02:28.004Z</time></trkpt><trkpt lat="43.8268767" lon="6.4267952"><ele>673.0</ele><time>2026-05-02T09:02:29.003Z</time></trkpt><trkpt lat="43.8267875" lon="6.4269347"><ele>675.0</ele><time>2026-05-02T09:02:30.003Z</time></trkpt><trkpt lat="43.8267066" lon="6.4270749"><ele>677.0</ele><time>2026-05-02T09:02:31.004Z</time></trkpt><trkpt lat="43.8266335" lon="6.4272218"><ele>679.0</ele><time>2026-05-02T09:02:32.004Z</time></trkpt><trkpt lat="43.826567" lon="6.4273802"><ele>679.0</ele><time>2026-05-02T09:02:33.004Z</time></trkpt><trkpt lat="43.8265129" lon="6.4275582"><ele>679.0</ele><time>2026-05-02T09:02:34.003Z</time></trkpt><trkpt lat="43.8264791" lon="6.4277428"><ele>679.0</ele><time>2026-05-02T09:02:35.004Z</time></trkpt><trkpt lat="43.8264608" lon="6.4279234"><ele>679.0</ele><time>2026-05-02T09:02:36.003Z</time></trkpt><trkpt lat="43.8264298" lon="6.4281106"><ele>676.75</ele><time>2026-05-02T09:02:37.004Z</time></trkpt><trkpt lat="43.8264172" lon="6.4283035"><ele>674.5</ele><time>2026-05-02T09:02:38.004Z</time></trkpt><trkpt lat="43.8264223" lon="6.4285009"><ele>672.25</ele><time>2026-05-02T09:02:39.004Z</time></trkpt><trkpt lat="43.8264142" lon="6.4287098"><ele>670.0</ele><time>2026-05-02T09:02:40.004Z</time></trkpt><trkpt lat="43.8263944" lon="6.4288913"><ele>669.25</ele><time>2026-05-02T09:02:41.004Z</time></trkpt><trkpt lat="43.826392" lon="6.4290653"><ele>668.5</ele><time>2026-05-02T09:02:42.004Z</time></trkpt><trkpt lat="43.8263913" lon="6.4292239"><ele>667.75</ele><time>2026-05-02T09:02:43.004Z</time></trkpt><trkpt lat="43.8263877" lon="6.4293954"><ele>667.0</ele><time>2026-05-02T09:02:44.004Z</time></trkpt><trkpt lat="43.8262996" lon="6.4295902"><ele>666.75</ele><time>2026-05-02T09:02:45.004Z</time></trkpt><trkpt lat="43.8262316" lon="6.4297303"><ele>666.5</ele><time>2026-05-02T09:02:46.004Z</time></trkpt><trkpt lat="43.8262093" lon="6.4298941"><ele>666.25</ele><time>2026-05-02T09:02:47.003Z</time></trkpt><trkpt lat="43.8261427" lon="6.4300388"><ele>666.0</ele><time>2026-05-02T09:02:48.004Z</time></trkpt><trkpt lat="43.826095" lon="6.4301671"><ele>666.0</ele><time>2026-05-02T09:02:49.003Z</time></trkpt><trkpt lat="43.8260176" lon="6.4302775"><ele>666.0</ele><time>2026-05-02T09:02:50.003Z</time></trkpt><trkpt lat="43.8259284" lon="6.4303762"><ele>666.0</ele><time>2026-05-02T09:02:51.003Z</time></trkpt><trkpt lat="43.8258266" lon="6.4304434"><ele>666.0</ele><time>2026-05-02T09:02:52.003Z</time></trkpt><trkpt lat="43.8257385" lon="6.4304968"><ele>666.0</ele><time>2026-05-02T09:02:53.004Z</time></trkpt><trkpt lat="43.8256531" lon="6.4304969"><ele>666.25</ele><time>2026-05-02T09:02:54.004Z</time></trkpt><trkpt lat="43.8255231" lon="6.4304935"><ele>666.5</ele><time>2026-05-02T09:02:55.004Z</time></trkpt><trkpt lat="43.8253627" lon="6.4305269"><ele>666.75</ele><time>2026-05-02T09:02:56.004Z</time></trkpt><trkpt lat="43.8252304" lon="6.4305238"><ele>667.0</ele><time>2026-05-02T09:02:57.003Z</time></trkpt><trkpt lat="43.8250651" lon="6.4305081"><ele>668.25</ele><time>2026-05-02T09:02:58.004Z</time></trkpt><trkpt lat="43.8249079" lon="6.4305065"><ele>669.5</ele><time>2026-05-02T09:02:59.003Z</time></trkpt><trkpt lat="43.8247558" lon="6.4305129"><ele>670.75</ele><time>2026-05-02T09:03:00.004Z</time></trkpt><trkpt lat="43.8246256" lon="6.4305274"><ele>672.0</ele><time>2026-05-02T09:03:01.004Z</time></trkpt><trkpt lat="43.8244859" lon="6.4305436"><ele>672.0</ele><time>2026-05-02T09:03:02.004Z</time></trkpt><trkpt lat="43.8243357" lon="6.4305759"><ele>672.0</ele><time>2026-05-02T09:03:03.004Z</time></trkpt><trkpt lat="43.8241968" lon="6.4306184"><ele>672.0</ele><time>2026-05-02T09:03:04.004Z</time></trkpt><trkpt lat="43.8240534" lon="6.4306892"><ele>672.0</ele><time>2026-05-02T09:03:05.004Z</time></trkpt><trkpt lat="43.823936" lon="6.4307911"><ele>672.0</ele><time>2026-05-02T09:03:06.004Z</time></trkpt><trkpt lat="43.8238214" lon="6.4308911"><ele>672.0</ele><time>2026-05-02T09:03:07.004Z</time></trkpt><trkpt lat="43.823738" lon="6.4309678"><ele>672.0</ele><time>2026-05-02T09:03:08.004Z</time></trkpt><trkpt lat="43.8236272" lon="6.4310332"><ele>672.0</ele><time>2026-05-02T09:03:09.004Z</time></trkpt><trkpt lat="43.8235293" lon="6.4311426"><ele>671.8</ele><time>2026-05-02T09:03:10.003Z</time></trkpt><trkpt lat="43.8234665" lon="6.4312482"><ele>671.6</ele><time>2026-05-02T09:03:11.004Z</time></trkpt><trkpt lat="43.8233905" lon="6.4313168"><ele>671.4</ele><time>2026-05-02T09:03:12.004Z</time></trkpt><trkpt lat="43.8233121" lon="6.4313616"><ele>671.1999999999999</ele><time>2026-05-02T09:03:13.004Z</time></trkpt><trkpt lat="43.8232271" lon="6.4314084"><ele>671.0</ele><time>2026-05-02T09:03:14.003Z</time></trkpt><trkpt lat="43.8231264" lon="6.4314091"><ele>671.0</ele><time>2026-05-02T09:03:15.004Z</time></trkpt><trkpt lat="43.8230406" lon="6.4313958"><ele>671.0</ele><time>2026-05-02T09:03:16.004Z</time></trkpt><trkpt lat="43.8229349" lon="6.4313569"><ele>671.0</ele><time>2026-05-02T09:03:17.004Z</time></trkpt><trkpt lat="43.8228082" lon="6.4313126"><ele>671.0</ele><time>2026-05-02T09:03:18.004Z</time></trkpt><trkpt lat="43.822691" lon="6.4312498"><ele>671.0</ele><time>2026-05-02T09:03:19.003Z</time></trkpt><trkpt lat="43.8225611" lon="6.4311832"><ele>671.0</ele><time>2026-05-02T09:03:20.004Z</time></trkpt><trkpt lat="43.8224617" lon="6.4311172"><ele>671.0</ele><time>2026-05-02T09:03:21.004Z</time></trkpt><trkpt lat="43.8223491" lon="6.4310693"><ele>671.0</ele><time>2026-05-02T09:03:22.004Z</time></trkpt><trkpt lat="43.8222446" lon="6.4310627"><ele>671.0</ele><time>2026-05-02T09:03:23.004Z</time></trkpt><trkpt lat="43.8221437" lon="6.4310766"><ele>671.0</ele><time>2026-05-02T09:03:24.004Z</time></trkpt><trkpt lat="43.822037" lon="6.4311031"><ele>671.0</ele><time>2026-05-02T09:03:25.004Z</time></trkpt><trkpt lat="43.8219174" lon="6.4311541"><ele>671.0</ele><time>2026-05-02T09:03:26.004Z</time></trkpt><trkpt lat="43.8217988" lon="6.4312504"><ele>672.0</ele><time>2026-05-02T09:03:27.004Z</time></trkpt><trkpt lat="43.8216895" lon="6.4312957"><ele>673.0</ele><time>2026-05-02T09:03:28.004Z</time></trkpt><trkpt lat="43.8215795" lon="6.4313212"><ele>674.0</ele><time>2026-05-02T09:03:29.004Z</time></trkpt><trkpt lat="43.8214605" lon="6.4313108"><ele>675.0</ele><time>2026-05-02T09:03:30.004Z</time></trkpt><trkpt lat="43.8213501" lon="6.4312928"><ele>675.0</ele><time>2026-05-02T09:03:31.004Z</time></trkpt><trkpt lat="43.821257" lon="6.4312801"><ele>675.0</ele><time>2026-05-02T09:03:32.003Z</time></trkpt><trkpt lat="43.8211802" lon="6.4312958"><ele>675.0</ele><time>2026-05-02T09:03:33.004Z</time></trkpt><trkpt lat="43.821085" lon="6.4313642"><ele>675.0</ele><time>2026-05-02T09:03:34.004Z</time></trkpt><trkpt lat="43.8209904" lon="6.4314742"><ele>675.0</ele><time>2026-05-02T09:03:35.003Z</time></trkpt><trkpt lat="43.8208922" lon="6.4315718"><ele>674.5</ele><time>2026-05-02T09:03:36.004Z</time></trkpt><trkpt lat="43.8208181" lon="6.4317349"><ele>674.0</ele><time>2026-05-02T09:03:37.004Z</time></trkpt><trkpt lat="43.8207234" lon="6.4318481"><ele>673.5</ele><time>2026-05-02T09:03:38.004Z</time></trkpt><trkpt lat="43.8206232" lon="6.4319458"><ele>673.0</ele><time>2026-05-02T09:03:39.004Z</time></trkpt><trkpt lat="43.8205307" lon="6.4320407"><ele>669.5</ele><time>2026-05-02T09:03:40.004Z</time></trkpt><trkpt lat="43.8204768" lon="6.4321901"><ele>666.0</ele><time>2026-05-02T09:03:41.004Z</time></trkpt><trkpt lat="43.8203863" lon="6.4323277"><ele>662.5</ele><time>2026-05-02T09:03:42.004Z</time></trkpt><trkpt lat="43.8203173" lon="6.4324697"><ele>659.0</ele><time>2026-05-02T09:03:43.004Z</time></trkpt><trkpt lat="43.8202409" lon="6.4326043"><ele>659.0</ele><time>2026-05-02T09:03:44.004Z</time></trkpt><trkpt lat="43.820186" lon="6.4327959"><ele>659.0</ele><time>2026-05-02T09:03:45.004Z</time></trkpt><trkpt lat="43.8201881" lon="6.4329587"><ele>659.0</ele><time>2026-05-02T09:03:46.004Z</time></trkpt><trkpt lat="43.820158" lon="6.4331252"><ele>659.0</ele><time>2026-05-02T09:03:47.003Z</time></trkpt><trkpt lat="43.8201124" lon="6.4332791"><ele>662.0</ele><time>2026-05-02T09:03:48.004Z</time></trkpt><trkpt lat="43.8200385" lon="6.4334176"><ele>665.0</ele><time>2026-05-02T09:03:49.004Z</time></trkpt><trkpt lat="43.8199297" lon="6.4335303"><ele>668.0</ele><time>2026-05-02T09:03:50.004Z</time></trkpt><trkpt lat="43.819838" lon="6.4336353"><ele>671.0</ele><time>2026-05-02T09:03:51.004Z</time></trkpt><trkpt lat="43.8197297" lon="6.4337286"><ele>670.0</ele><time>2026-05-02T09:03:52.004Z</time></trkpt><trkpt lat="43.8196383" lon="6.4338419"><ele>669.0</ele><time>2026-05-02T09:03:53.003Z</time></trkpt><trkpt lat="43.8195647" lon="6.4339813"><ele>668.0</ele><time>2026-05-02T09:03:54.004Z</time></trkpt><trkpt lat="43.8194688" lon="6.4341158"><ele>667.0</ele><time>2026-05-02T09:03:55.004Z</time></trkpt><trkpt lat="43.8193713" lon="6.434257"><ele>666.5</ele><time>2026-05-02T09:03:56.003Z</time></trkpt><trkpt lat="43.819276" lon="6.4344123"><ele>666.0</ele><time>2026-05-02T09:03:57.004Z</time></trkpt><trkpt lat="43.8192127" lon="6.4345792"><ele>665.5</ele><time>2026-05-02T09:03:58.004Z</time></trkpt><trkpt lat="43.8191516" lon="6.4347622"><ele>665.0</ele><time>2026-05-02T09:03:59.004Z</time></trkpt><trkpt lat="43.8190885" lon="6.4349373"><ele>665.0</ele><time>2026-05-02T09:04:00.004Z</time></trkpt><trkpt lat="43.8190197" lon="6.4350916"><ele>665.0</ele><time>2026-05-02T09:04:01.004Z</time></trkpt><trkpt lat="43.818937" lon="6.4352492"><ele>665.0</ele><time>2026-05-02T09:04:02.004Z</time></trkpt><trkpt lat="43.8188763" lon="6.4353429"><ele>665.0</ele><time>2026-05-02T09:04:03.003Z</time></trkpt><trkpt lat="43.8188059" lon="6.4355054"><ele>665.0</ele><time>2026-05-02T09:04:04.004Z</time></trkpt><trkpt lat="43.8187436" lon="6.4356788"><ele>665.0</ele><time>2026-05-02T09:04:05.004Z</time></trkpt><trkpt lat="43.8186529" lon="6.4358059"><ele>665.0</ele><time>2026-05-02T09:04:06.003Z</time></trkpt><trkpt lat="43.8185637" lon="6.4359492"><ele>665.0</ele><time>2026-05-02T09:04:07.004Z</time></trkpt><trkpt lat="43.8184678" lon="6.4360984"><ele>665.75</ele><time>2026-05-02T09:04:08.004Z</time></trkpt><trkpt lat="43.8183734" lon="6.4362"><ele>666.5</ele><time>2026-05-02T09:04:09.003Z</time></trkpt><trkpt lat="43.8182679" lon="6.4363105"><ele>667.25</ele><time>2026-05-02T09:04:10.004Z</time></trkpt><trkpt lat="43.8181412" lon="6.4364131"><ele>668.0</ele><time>2026-05-02T09:04:11.004Z</time></trkpt><trkpt lat="43.8179831" lon="6.4364394"><ele>668.0</ele><time>2026-05-02T09:04:12.003Z</time></trkpt><trkpt lat="43.8178369" lon="6.4364929"><ele>668.0</ele><time>2026-05-02T09:04:13.004Z</time></trkpt><trkpt lat="43.8177076" lon="6.4365741"><ele>668.0</ele><time>2026-05-02T09:04:14.004Z</time></trkpt><trkpt lat="43.8175792" lon="6.4366588"><ele>668.0</ele><time>2026-05-02T09:04:15.004Z</time></trkpt><trkpt lat="43.8174484" lon="6.4367016"><ele>670.0</ele><time>2026-05-02T09:04:16.004Z</time></trkpt><trkpt lat="43.8173" lon="6.4367275"><ele>672.0</ele><time>2026-05-02T09:04:17.004Z</time></trkpt><trkpt lat="43.8171572" lon="6.4366917"><ele>674.0</ele><time>2026-05-02T09:04:18.004Z</time></trkpt><trkpt lat="43.8169958" lon="6.4366877"><ele>674.0</ele><time>2026-05-02T09:04:19.004Z</time></trkpt><trkpt lat="43.8168698" lon="6.4366946"><ele>674.0</ele><time>2026-05-02T09:04:20.004Z</time></trkpt><trkpt lat="43.8167428" lon="6.436684"><ele>674.0</ele><time>2026-05-02T09:04:21.003Z</time></trkpt><trkpt lat="43.8166266" lon="6.4367018"><ele>674.0</ele><time>2026-05-02T09:04:22.004Z</time></trkpt><trkpt lat="43.8165071" lon="6.4367088"><ele>676.5</ele><time>2026-05-02T09:04:23.004Z</time></trkpt><trkpt lat="43.8163968" lon="6.4367594"><ele>679.0</ele><time>2026-05-02T09:04:24.004Z</time></trkpt><trkpt lat="43.8162582" lon="6.4368455"><ele>681.5</ele><time>2026-05-02T09:04:25.004Z</time></trkpt><trkpt lat="43.8161531" lon="6.4369039"><ele>684.0</ele><time>2026-05-02T09:04:26.003Z</time></trkpt><trkpt lat="43.8160733" lon="6.4369967"><ele>681.3333333333334</ele><time>2026-05-02T09:04:28.004Z</time></trkpt><trkpt lat="43.8159537" lon="6.4372292"><ele>678.6666666666667</ele><time>2026-05-02T09:04:30.004Z</time></trkpt><trkpt lat="43.8158782" lon="6.4374171"><ele>676.0</ele><time>2026-05-02T09:04:31.004Z</time></trkpt><trkpt lat="43.8158176" lon="6.4375832"><ele>676.0</ele><time>2026-05-02T09:04:32.004Z</time></trkpt><trkpt lat="43.8156828" lon="6.4377354"><ele>676.0</ele><time>2026-05-02T09:04:33.004Z</time></trkpt><trkpt lat="43.8156389" lon="6.4378834"><ele>676.0</ele><time>2026-05-02T09:04:34.004Z</time></trkpt><trkpt lat="43.8155801" lon="6.4380318"><ele>676.0</ele><time>2026-05-02T09:04:35.004Z</time></trkpt><trkpt lat="43.815478" lon="6.4381645"><ele>672.5</ele><time>2026-05-02T09:04:36.004Z</time></trkpt><trkpt lat="43.8153892" lon="6.4382548"><ele>669.0</ele><time>2026-05-02T09:04:37.004Z</time></trkpt><trkpt lat="43.815278" lon="6.4382935"><ele>665.5</ele><time>2026-05-02T09:04:38.004Z</time></trkpt><trkpt lat="43.8151637" lon="6.4382999"><ele>662.0</ele><time>2026-05-02T09:04:39.004Z</time></trkpt><trkpt lat="43.8150515" lon="6.4383144"><ele>662.0</ele><time>2026-05-02T09:04:40.004Z</time></trkpt><trkpt lat="43.8148969" lon="6.4383363"><ele>662.0</ele><time>2026-05-02T09:04:41.004Z</time></trkpt><trkpt lat="43.8148083" lon="6.4383679"><ele>662.0</ele><time>2026-05-02T09:04:42.004Z</time></trkpt><trkpt lat="43.8147079" lon="6.4383776"><ele>662.0</ele><time>2026-05-02T09:04:43.003Z</time></trkpt><trkpt lat="43.8146093" lon="6.4383956"><ele>662.0</ele><time>2026-05-02T09:04:44.004Z</time></trkpt><trkpt lat="43.8144757" lon="6.4384578"><ele>662.0</ele><time>2026-05-02T09:04:45.004Z</time></trkpt><trkpt lat="43.8143308" lon="6.4384937"><ele>662.0</ele><time>2026-05-02T09:04:46.003Z</time></trkpt><trkpt lat="43.8142514" lon="6.4384894"><ele>662.0</ele><time>2026-05-02T09:04:47.004Z</time></trkpt><trkpt lat="43.8141233" lon="6.4384395"><ele>662.0</ele><time>2026-05-02T09:04:48.004Z</time></trkpt><trkpt lat="43.8140392" lon="6.4383939"><ele>662.0</ele><time>2026-05-02T09:04:49.004Z</time></trkpt><trkpt lat="43.8139501" lon="6.4383557"><ele>662.0</ele><time>2026-05-02T09:04:50.004Z</time></trkpt><trkpt lat="43.8138871" lon="6.4382677"><ele>662.0</ele><time>2026-05-02T09:04:51.004Z</time></trkpt><trkpt lat="43.8137885" lon="6.4382074"><ele>662.0</ele><time>2026-05-02T09:04:52.004Z</time></trkpt><trkpt lat="43.813678" lon="6.4381001"><ele>662.0</ele><time>2026-05-02T09:04:53.004Z</time></trkpt><trkpt lat="43.8135869" lon="6.4379952"><ele>658.75</ele><time>2026-05-02T09:04:54.004Z</time></trkpt><trkpt lat="43.8135168" lon="6.4378683"><ele>655.5</ele><time>2026-05-02T09:04:55.004Z</time></trkpt><trkpt lat="43.8134191" lon="6.4377293"><ele>652.25</ele><time>2026-05-02T09:04:56.004Z</time></trkpt><trkpt lat="43.813319" lon="6.4376199"><ele>649.0</ele><time>2026-05-02T09:04:57.004Z</time></trkpt><trkpt lat="43.8132126" lon="6.4375014"><ele>649.0</ele><time>2026-05-02T09:04:58.004Z</time></trkpt><trkpt lat="43.8131175" lon="6.4373947"><ele>649.0</ele><time>2026-05-02T09:04:59.004Z</time></trkpt><trkpt lat="43.8130106" lon="6.4372986"><ele>649.0</ele><time>2026-05-02T09:05:00.004Z</time></trkpt><trkpt lat="43.8128925" lon="6.4371809"><ele>649.0</ele><time>2026-05-02T09:05:01.004Z</time></trkpt><trkpt lat="43.8127837" lon="6.4370751"><ele>653.75</ele><time>2026-05-02T09:05:02.004Z</time></trkpt><trkpt lat="43.8126781" lon="6.436988"><ele>658.5</ele><time>2026-05-02T09:05:03.004Z</time></trkpt><trkpt lat="43.8125886" lon="6.4368852"><ele>663.25</ele><time>2026-05-02T09:05:04.004Z</time></trkpt><trkpt lat="43.8124961" lon="6.4368126"><ele>668.0</ele><time>2026-05-02T09:05:05.004Z</time></trkpt><trkpt lat="43.8123815" lon="6.4367496"><ele>668.0</ele><time>2026-05-02T09:05:06.004Z</time></trkpt><trkpt lat="43.812257" lon="6.4366884"><ele>668.0</ele><time>2026-05-02T09:05:07.004Z</time></trkpt><trkpt lat="43.8121418" lon="6.4366286"><ele>668.0</ele><time>2026-05-02T09:05:08.004Z</time></trkpt><trkpt lat="43.8120204" lon="6.4365757"><ele>668.0</ele><time>2026-05-02T09:05:09.004Z</time></trkpt><trkpt lat="43.8118999" lon="6.4365035"><ele>665.5</ele><time>2026-05-02T09:05:10.004Z</time></trkpt><trkpt lat="43.8117753" lon="6.4364343"><ele>663.0</ele><time>2026-05-02T09:05:11.003Z</time></trkpt><trkpt lat="43.8116485" lon="6.4363994"><ele>660.5</ele><time>2026-05-02T09:05:12.004Z</time></trkpt><trkpt lat="43.8115314" lon="6.436389"><ele>658.0</ele><time>2026-05-02T09:05:13.003Z</time></trkpt><trkpt lat="43.8113863" lon="6.4364122"><ele>658.0</ele><time>2026-05-02T09:05:14.004Z</time></trkpt><trkpt lat="43.8112632" lon="6.4364591"><ele>658.0</ele><time>2026-05-02T09:05:15.004Z</time></trkpt><trkpt lat="43.8111396" lon="6.4365002"><ele>658.0</ele><time>2026-05-02T09:05:16.004Z</time></trkpt><trkpt lat="43.8109838" lon="6.4366113"><ele>658.0</ele><time>2026-05-02T09:05:17.004Z</time></trkpt><trkpt lat="43.8108513" lon="6.4366972"><ele>661.5</ele><time>2026-05-02T09:05:18.004Z</time></trkpt><trkpt lat="43.8107236" lon="6.4367745"><ele>665.0</ele><time>2026-05-02T09:05:19.004Z</time></trkpt><trkpt lat="43.8105968" lon="6.436825"><ele>668.5</ele><time>2026-05-02T09:05:20.003Z</time></trkpt><trkpt lat="43.8104748" lon="6.4368713"><ele>672.0</ele><time>2026-05-02T09:05:21.003Z</time></trkpt><trkpt lat="43.8103263" lon="6.4369118"><ele>672.0</ele><time>2026-05-02T09:05:22.004Z</time></trkpt><trkpt lat="43.8101896" lon="6.4370096"><ele>672.0</ele><time>2026-05-02T09:05:23.004Z</time></trkpt><trkpt lat="43.8100833" lon="6.4370942"><ele>672.0</ele><time>2026-05-02T09:05:24.003Z</time></trkpt><trkpt lat="43.8099211" lon="6.437221"><ele>672.3333333333334</ele><time>2026-05-02T09:05:25.004Z</time></trkpt><trkpt lat="43.8098003" lon="6.4373387"><ele>672.6666666666667</ele><time>2026-05-02T09:05:26.004Z</time></trkpt><trkpt lat="43.8096738" lon="6.4374437"><ele>673.0</ele><time>2026-05-02T09:05:27.003Z</time></trkpt><trkpt lat="43.8095269" lon="6.4375439"><ele>673.0</ele><time>2026-05-02T09:05:28.003Z</time></trkpt><trkpt lat="43.8093875" lon="6.4376459"><ele>673.0</ele><time>2026-05-02T09:05:29.004Z</time></trkpt><trkpt lat="43.8092462" lon="6.4377255"><ele>673.0</ele><time>2026-05-02T09:05:30.004Z</time></trkpt><trkpt lat="43.8091183" lon="6.4378245"><ele>674.25</ele><time>2026-05-02T09:05:31.003Z</time></trkpt><trkpt lat="43.8090049" lon="6.4379009"><ele>675.5</ele><time>2026-05-02T09:05:32.004Z</time></trkpt><trkpt lat="43.8088836" lon="6.4379596"><ele>676.75</ele><time>2026-05-02T09:05:33.004Z</time></trkpt><trkpt lat="43.808772" lon="6.4380227"><ele>678.0</ele><time>2026-05-02T09:05:34.004Z</time></trkpt><trkpt lat="43.8086266" lon="6.4380332"><ele>676.75</ele><time>2026-05-02T09:05:35.003Z</time></trkpt><trkpt lat="43.8084985" lon="6.4380085"><ele>675.5</ele><time>2026-05-02T09:05:36.004Z</time></trkpt><trkpt lat="43.8083732" lon="6.438018"><ele>674.25</ele><time>2026-05-02T09:05:37.004Z</time></trkpt><trkpt lat="43.8082142" lon="6.4380281"><ele>673.0</ele><time>2026-05-02T09:05:38.004Z</time></trkpt><trkpt lat="43.8080396" lon="6.4379471"><ele>673.0</ele><time>2026-05-02T09:05:39.004Z</time></trkpt><trkpt lat="43.8078767" lon="6.4379256"><ele>673.0</ele><time>2026-05-02T09:05:40.004Z</time></trkpt><trkpt lat="43.8076988" lon="6.4379276"><ele>673.0</ele><time>2026-05-02T09:05:41.003Z</time></trkpt><trkpt lat="43.8075526" lon="6.4379262"><ele>674.25</ele><time>2026-05-02T09:05:42.003Z</time></trkpt><trkpt lat="43.80742" lon="6.4379179"><ele>675.5</ele><time>2026-05-02T09:05:43.004Z</time></trkpt><trkpt lat="43.8072667" lon="6.4379227"><ele>676.75</ele><time>2026-05-02T09:05:44.004Z</time></trkpt><trkpt lat="43.8071479" lon="6.4379193"><ele>678.0</ele><time>2026-05-02T09:05:45.004Z</time></trkpt><trkpt lat="43.8069936" lon="6.4379974"><ele>673.5</ele><time>2026-05-02T09:05:46.004Z</time></trkpt><trkpt lat="43.8068653" lon="6.4380865"><ele>669.0</ele><time>2026-05-02T09:05:47.004Z</time></trkpt><trkpt lat="43.8067363" lon="6.4381622"><ele>664.5</ele><time>2026-05-02T09:05:48.004Z</time></trkpt><trkpt lat="43.8066225" lon="6.4382506"><ele>660.0</ele><time>2026-05-02T09:05:49.004Z</time></trkpt><trkpt lat="43.8065414" lon="6.4383121"><ele>660.0</ele><time>2026-05-02T09:05:50.004Z</time></trkpt><trkpt lat="43.806436" lon="6.4384378"><ele>660.0</ele><time>2026-05-02T09:05:51.003Z</time></trkpt><trkpt lat="43.806341" lon="6.4385469"><ele>660.0</ele><time>2026-05-02T09:05:52.004Z</time></trkpt><trkpt lat="43.8062531" lon="6.4386276"><ele>660.0</ele><time>2026-05-02T09:05:53.004Z</time></trkpt><trkpt lat="43.8061592" lon="6.4387334"><ele>660.0</ele><time>2026-05-02T09:05:54.004Z</time></trkpt><trkpt lat="43.8060967" lon="6.4388582"><ele>660.0</ele><time>2026-05-02T09:05:55.004Z</time></trkpt><trkpt lat="43.8060395" lon="6.4390133"><ele>660.0</ele><time>2026-05-02T09:05:56.004Z</time></trkpt><trkpt lat="43.8059935" lon="6.4391686"><ele>660.0</ele><time>2026-05-02T09:05:57.004Z</time></trkpt><trkpt lat="43.8059206" lon="6.4393041"><ele>660.0</ele><time>2026-05-02T09:05:58.003Z</time></trkpt><trkpt lat="43.8058687" lon="6.4394584"><ele>660.0</ele><time>2026-05-02T09:05:59.003Z</time></trkpt><trkpt lat="43.8058337" lon="6.4395876"><ele>660.0</ele><time>2026-05-02T09:06:00.003Z</time></trkpt><trkpt lat="43.8057891" lon="6.4397049"><ele>660.0</ele><time>2026-05-02T09:06:01.003Z</time></trkpt><trkpt lat="43.8057496" lon="6.4398036"><ele>660.0</ele><time>2026-05-02T09:06:02.004Z</time></trkpt><trkpt lat="43.805689" lon="6.4399104"><ele>659.0</ele><time>2026-05-02T09:06:04.004Z</time></trkpt><trkpt lat="43.8056774" lon="6.4400397"><ele>658.0</ele><time>2026-05-02T09:06:05.003Z</time></trkpt><trkpt lat="43.8056618" lon="6.4401484"><ele>657.0</ele><time>2026-05-02T09:06:06.004Z</time></trkpt><trkpt lat="43.805633" lon="6.4402622"><ele>656.0</ele><time>2026-05-02T09:06:07.004Z</time></trkpt><trkpt lat="43.8056139" lon="6.4404228"><ele>655.0</ele><time>2026-05-02T09:06:08.004Z</time></trkpt><trkpt lat="43.8055909" lon="6.4405942"><ele>653.5</ele><time>2026-05-02T09:06:09.003Z</time></trkpt><trkpt lat="43.8055794" lon="6.4407557"><ele>652.0</ele><time>2026-05-02T09:06:10.004Z</time></trkpt><trkpt lat="43.8055625" lon="6.4409142"><ele>650.5</ele><time>2026-05-02T09:06:11.004Z</time></trkpt><trkpt lat="43.805573" lon="6.4410772"><ele>649.0</ele><time>2026-05-02T09:06:12.003Z</time></trkpt><trkpt lat="43.8055719" lon="6.4412235"><ele>653.6</ele><time>2026-05-02T09:06:13.004Z</time></trkpt><trkpt lat="43.8055554" lon="6.4413688"><ele>658.2</ele><time>2026-05-02T09:06:14.004Z</time></trkpt><trkpt lat="43.8055128" lon="6.4414729"><ele>662.8000000000001</ele><time>2026-05-02T09:06:15.004Z</time></trkpt><trkpt lat="43.8054639" lon="6.4415649"><ele>667.4000000000001</ele><time>2026-05-02T09:06:16.004Z</time></trkpt><trkpt lat="43.8053914" lon="6.4416397"><ele>672.0</ele><time>2026-05-02T09:06:17.004Z</time></trkpt><trkpt lat="43.8052652" lon="6.4417479"><ele>667.75</ele><time>2026-05-02T09:06:18.004Z</time></trkpt><trkpt lat="43.8051499" lon="6.4418394"><ele>663.5</ele><time>2026-05-02T09:06:19.004Z</time></trkpt><trkpt lat="43.8050321" lon="6.4419539"><ele>659.25</ele><time>2026-05-02T09:06:20.004Z</time></trkpt><trkpt lat="43.8048964" lon="6.4420366"><ele>655.0</ele><time>2026-05-02T09:06:21.003Z</time></trkpt><trkpt lat="43.804759" lon="6.4420924"><ele>657.5</ele><time>2026-05-02T09:06:22.004Z</time></trkpt><trkpt lat="43.804621" lon="6.4421377"><ele>660.0</ele><time>2026-05-02T09:06:23.004Z</time></trkpt><trkpt lat="43.8044783" lon="6.4421903"><ele>662.5</ele><time>2026-05-02T09:06:24.004Z</time></trkpt><trkpt lat="43.804344" lon="6.4422232"><ele>665.0</ele><time>2026-05-02T09:06:25.004Z</time></trkpt><trkpt lat="43.8041993" lon="6.4422401"><ele>665.0</ele><time>2026-05-02T09:06:26.003Z</time></trkpt><trkpt lat="43.804098" lon="6.4422518"><ele>665.0</ele><time>2026-05-02T09:06:27.004Z</time></trkpt><trkpt lat="43.8040127" lon="6.4422641"><ele>665.0</ele><time>2026-05-02T09:06:27.998Z</time></trkpt><trkpt lat="43.803948" lon="6.4421761"><ele>665.0</ele><time>2026-05-02T09:06:28.993Z</time></trkpt><trkpt lat="43.8038639" lon="6.4420827"><ele>665.0</ele><time>2026-05-02T09:06:29.995Z</time></trkpt><trkpt lat="43.8038306" lon="6.4419933"><ele>661.25</ele><time>2026-05-02T09:06:30.997Z</time></trkpt><trkpt lat="43.8038146" lon="6.4417666"><ele>657.5</ele><time>2026-05-02T09:06:31.994Z</time></trkpt><trkpt lat="43.8038012" lon="6.4415948"><ele>653.75</ele><time>2026-05-02T09:06:32.994Z</time></trkpt><trkpt lat="43.8038103" lon="6.4414404"><ele>650.0</ele><time>2026-05-02T09:06:33.993Z</time></trkpt><trkpt lat="43.8037567" lon="6.4412421"><ele>650.0</ele><time>2026-05-02T09:06:34.994Z</time></trkpt><trkpt lat="43.8036982" lon="6.4410371"><ele>650.0</ele><time>2026-05-02T09:06:35.994Z</time></trkpt><trkpt lat="43.8036974" lon="6.4408685"><ele>650.0</ele><time>2026-05-02T09:06:36.993Z</time></trkpt><trkpt lat="43.803687" lon="6.4406808"><ele>650.0</ele><time>2026-05-02T09:06:37.994Z</time></trkpt><trkpt lat="43.8036612" lon="6.4404475"><ele>650.6</ele><time>2026-05-02T09:06:38.994Z</time></trkpt><trkpt lat="43.8036644" lon="6.440302"><ele>651.2</ele><time>2026-05-02T09:06:39.994Z</time></trkpt><trkpt lat="43.8036916" lon="6.4401428"><ele>651.8</ele><time>2026-05-02T09:06:40.994Z</time></trkpt><trkpt lat="43.8037062" lon="6.4399774"><ele>652.4</ele><time>2026-05-02T09:06:41.994Z</time></trkpt><trkpt lat="43.8036816" lon="6.4398662"><ele>653.0</ele><time>2026-05-02T09:06:42.993Z</time></trkpt><trkpt lat="43.8036173" lon="6.4397416"><ele>652.75</ele><time>2026-05-02T09:06:43.994Z</time></trkpt><trkpt lat="43.8035093" lon="6.4395875"><ele>652.5</ele><time>2026-05-02T09:06:44.993Z</time></trkpt><trkpt lat="43.8034493" lon="6.4394361"><ele>652.25</ele><time>2026-05-02T09:06:45.994Z</time></trkpt><trkpt lat="43.8033478" lon="6.4393185"><ele>652.0</ele><time>2026-05-02T09:06:46.994Z</time></trkpt><trkpt lat="43.8032584" lon="6.4391968"><ele>652.0</ele><time>2026-05-02T09:06:47.994Z</time></trkpt><trkpt lat="43.8031763" lon="6.439086"><ele>652.0</ele><time>2026-05-02T09:06:48.994Z</time></trkpt><trkpt lat="43.8031002" lon="6.4390161"><ele>652.0</ele><time>2026-05-02T09:06:49.994Z</time></trkpt><trkpt lat="43.8029522" lon="6.4390219"><ele>652.0</ele><time>2026-05-02T09:06:50.993Z</time></trkpt><trkpt lat="43.8028363" lon="6.4390243"><ele>652.0</ele><time>2026-05-02T09:06:51.994Z</time></trkpt><trkpt lat="43.8026839" lon="6.4390661"><ele>652.0</ele><time>2026-05-02T09:06:52.994Z</time></trkpt><trkpt lat="43.8025401" lon="6.4391056"><ele>652.0</ele><time>2026-05-02T09:06:53.994Z</time></trkpt><trkpt lat="43.8023883" lon="6.4392078"><ele>653.3333333333334</ele><time>2026-05-02T09:06:54.993Z</time></trkpt><trkpt lat="43.8022413" lon="6.4392721"><ele>654.6666666666666</ele><time>2026-05-02T09:06:55.994Z</time></trkpt><trkpt lat="43.8021024" lon="6.4394032"><ele>656.0</ele><time>2026-05-02T09:06:56.994Z</time></trkpt><trkpt lat="43.8019674" lon="6.4394793"><ele>656.0</ele><time>2026-05-02T09:06:57.994Z</time></trkpt><trkpt lat="43.8018485" lon="6.4395717"><ele>656.0</ele><time>2026-05-02T09:06:58.994Z</time></trkpt><trkpt lat="43.8017331" lon="6.4396314"><ele>656.0</ele><time>2026-05-02T09:06:59.994Z</time></trkpt><trkpt lat="43.801616" lon="6.4396784"><ele>656.0</ele><time>2026-05-02T09:07:00.994Z</time></trkpt><trkpt lat="43.8014707" lon="6.4396894"><ele>657.25</ele><time>2026-05-02T09:07:01.994Z</time></trkpt><trkpt lat="43.8013238" lon="6.4396948"><ele>658.5</ele><time>2026-05-02T09:07:02.993Z</time></trkpt><trkpt lat="43.8012178" lon="6.4397126"><ele>659.75</ele><time>2026-05-02T09:07:03.994Z</time></trkpt><trkpt lat="43.8010757" lon="6.4397377"><ele>661.0</ele><time>2026-05-02T09:07:04.994Z</time></trkpt><trkpt lat="43.8009645" lon="6.4397502"><ele>661.0</ele><time>2026-05-02T09:07:05.993Z</time></trkpt><trkpt lat="43.8007893" lon="6.4397798"><ele>661.0</ele><time>2026-05-02T09:07:06.994Z</time></trkpt><trkpt lat="43.8006657" lon="6.4398295"><ele>661.0</ele><time>2026-05-02T09:07:07.993Z</time></trkpt><trkpt lat="43.8005327" lon="6.4399179"><ele>661.0</ele><time>2026-05-02T09:07:08.993Z</time></trkpt><trkpt lat="43.8004412" lon="6.4400519"><ele>661.0</ele><time>2026-05-02T09:07:09.993Z</time></trkpt><trkpt lat="43.8003375" lon="6.4401619"><ele>661.0</ele><time>2026-05-02T09:07:10.994Z</time></trkpt><trkpt lat="43.8002672" lon="6.4402927"><ele>661.0</ele><time>2026-05-02T09:07:11.993Z</time></trkpt><trkpt lat="43.8002142" lon="6.4404491"><ele>661.75</ele><time>2026-05-02T09:07:12.994Z</time></trkpt><trkpt lat="43.8002072" lon="6.4406731"><ele>662.5</ele><time>2026-05-02T09:07:13.994Z</time></trkpt><trkpt lat="43.8001646" lon="6.4408564"><ele>663.25</ele><time>2026-05-02T09:07:14.994Z</time></trkpt><trkpt lat="43.8000868" lon="6.4409973"><ele>664.0</ele><time>2026-05-02T09:07:15.994Z</time></trkpt><trkpt lat="43.7999954" lon="6.4411149"><ele>664.0</ele><time>2026-05-02T09:07:16.994Z</time></trkpt><trkpt lat="43.7998973" lon="6.4411762"><ele>664.0</ele><time>2026-05-02T09:07:17.994Z</time></trkpt><trkpt lat="43.7997522" lon="6.4410754"><ele>664.0</ele><time>2026-05-02T09:07:18.994Z</time></trkpt><trkpt lat="43.799639" lon="6.4410844"><ele>664.0</ele><time>2026-05-02T09:07:19.994Z</time></trkpt><trkpt lat="43.7994941" lon="6.4411128"><ele>664.0</ele><time>2026-05-02T09:07:20.994Z</time></trkpt><trkpt lat="43.7993879" lon="6.4411571"><ele>664.0</ele><time>2026-05-02T09:07:21.994Z</time></trkpt><trkpt lat="43.7992644" lon="6.4412732"><ele>664.0</ele><time>2026-05-02T09:07:22.994Z</time></trkpt><trkpt lat="43.7991324" lon="6.4413234"><ele>664.0</ele><time>2026-05-02T09:07:23.994Z</time></trkpt><trkpt lat="43.7990039" lon="6.4413614"><ele>665.5</ele><time>2026-05-02T09:07:24.994Z</time></trkpt><trkpt lat="43.7988768" lon="6.4413932"><ele>667.0</ele><time>2026-05-02T09:07:25.993Z</time></trkpt><trkpt lat="43.798723" lon="6.4413872"><ele>668.5</ele><time>2026-05-02T09:07:26.994Z</time></trkpt><trkpt lat="43.7985848" lon="6.4414414"><ele>670.0</ele><time>2026-05-02T09:07:27.994Z</time></trkpt><trkpt lat="43.7984348" lon="6.4414781"><ele>670.0</ele><time>2026-05-02T09:07:28.994Z</time></trkpt><trkpt lat="43.7983177" lon="6.4414895"><ele>670.0</ele><time>2026-05-02T09:07:29.994Z</time></trkpt><trkpt lat="43.7982011" lon="6.4415154"><ele>670.0</ele><time>2026-05-02T09:07:30.994Z</time></trkpt><trkpt lat="43.798109" lon="6.4415587"><ele>670.0</ele><time>2026-05-02T09:07:31.993Z</time></trkpt><trkpt lat="43.7979985" lon="6.441595"><ele>670.0</ele><time>2026-05-02T09:07:32.994Z</time></trkpt><trkpt lat="43.7979555" lon="6.4416682"><ele>670.0</ele><time>2026-05-02T09:07:33.994Z</time></trkpt><trkpt lat="43.7978753" lon="6.4417897"><ele>670.0</ele><time>2026-05-02T09:07:34.994Z</time></trkpt><trkpt lat="43.7978194" lon="6.4419159"><ele>670.0</ele><time>2026-05-02T09:07:35.993Z</time></trkpt><trkpt lat="43.7978118" lon="6.4420855"><ele>670.0</ele><time>2026-05-02T09:07:36.994Z</time></trkpt><trkpt lat="43.7978809" lon="6.4423125"><ele>672.75</ele><time>2026-05-02T09:07:37.994Z</time></trkpt><trkpt lat="43.7979309" lon="6.4424919"><ele>675.5</ele><time>2026-05-02T09:07:38.994Z</time></trkpt><trkpt lat="43.7979594" lon="6.4426595"><ele>678.25</ele><time>2026-05-02T09:07:39.994Z</time></trkpt><trkpt lat="43.7979409" lon="6.442844"><ele>681.0</ele><time>2026-05-02T09:07:40.993Z</time></trkpt><trkpt lat="43.7979239" lon="6.4430473"><ele>679.25</ele><time>2026-05-02T09:07:41.994Z</time></trkpt><trkpt lat="43.797808" lon="6.4431954"><ele>677.5</ele><time>2026-05-02T09:07:42.993Z</time></trkpt><trkpt lat="43.7977128" lon="6.4433263"><ele>675.75</ele><time>2026-05-02T09:07:43.994Z</time></trkpt><trkpt lat="43.7976198" lon="6.4434449"><ele>674.0</ele><time>2026-05-02T09:07:44.993Z</time></trkpt><trkpt lat="43.7975024" lon="6.4435542"><ele>674.0</ele><time>2026-05-02T09:07:45.994Z</time></trkpt><trkpt lat="43.7973504" lon="6.4436542"><ele>674.0</ele><time>2026-05-02T09:07:46.994Z</time></trkpt><trkpt lat="43.7972049" lon="6.4437479"><ele>674.0</ele><time>2026-05-02T09:07:47.994Z</time></trkpt><trkpt lat="43.7970663" lon="6.4438504"><ele>675.0</ele><time>2026-05-02T09:07:48.994Z</time></trkpt><trkpt lat="43.7969432" lon="6.4439817"><ele>676.0</ele><time>2026-05-02T09:07:49.993Z</time></trkpt><trkpt lat="43.7968306" lon="6.4441297"><ele>677.0</ele><time>2026-05-02T09:07:50.994Z</time></trkpt><trkpt lat="43.7967408" lon="6.4442831"><ele>677.0</ele><time>2026-05-02T09:07:51.994Z</time></trkpt><trkpt lat="43.7966451" lon="6.4444097"><ele>677.0</ele><time>2026-05-02T09:07:52.994Z</time></trkpt><trkpt lat="43.7965477" lon="6.444557"><ele>677.0</ele><time>2026-05-02T09:07:53.994Z</time></trkpt><trkpt lat="43.7964593" lon="6.4446767"><ele>677.0</ele><time>2026-05-02T09:07:54.994Z</time></trkpt><trkpt lat="43.796389" lon="6.4447264"><ele>678.2</ele><time>2026-05-02T09:07:55.994Z</time></trkpt><trkpt lat="43.7962842" lon="6.4447697"><ele>679.4000000000001</ele><time>2026-05-02T09:07:56.994Z</time></trkpt><trkpt lat="43.7961863" lon="6.4448325"><ele>680.5999999999999</ele><time>2026-05-02T09:07:57.994Z</time></trkpt><trkpt lat="43.7961216" lon="6.4448118"><ele>681.8</ele><time>2026-05-02T09:07:58.994Z</time></trkpt><trkpt lat="43.7960274" lon="6.4447876"><ele>683.0</ele><time>2026-05-02T09:07:59.994Z</time></trkpt><trkpt lat="43.795954" lon="6.4445535"><ele>683.0</ele><time>2026-05-02T09:08:00.994Z</time></trkpt><trkpt lat="43.7958998" lon="6.4444243"><ele>683.0</ele><time>2026-05-02T09:08:01.994Z</time></trkpt><trkpt lat="43.7958461" lon="6.4442834"><ele>683.0</ele><time>2026-05-02T09:08:02.994Z</time></trkpt><trkpt lat="43.7958067" lon="6.4441061"><ele>683.0</ele><time>2026-05-02T09:08:03.994Z</time></trkpt><trkpt lat="43.7958364" lon="6.4438936"><ele>682.4</ele><time>2026-05-02T09:08:04.993Z</time></trkpt><trkpt lat="43.7958273" lon="6.4437156"><ele>681.8</ele><time>2026-05-02T09:08:05.994Z</time></trkpt><trkpt lat="43.7958258" lon="6.443568"><ele>681.2</ele><time>2026-05-02T09:08:06.994Z</time></trkpt><trkpt lat="43.7958098" lon="6.4434608"><ele>680.6</ele><time>2026-05-02T09:08:07.994Z</time></trkpt><trkpt lat="43.7957833" lon="6.4433724"><ele>680.0</ele><time>2026-05-02T09:08:08.993Z</time></trkpt><trkpt lat="43.7956512" lon="6.4433191"><ele>680.0</ele><time>2026-05-02T09:08:09.993Z</time></trkpt><trkpt lat="43.7955684" lon="6.4432619"><ele>680.0</ele><time>2026-05-02T09:08:10.994Z</time></trkpt><trkpt lat="43.795457" lon="6.4432322"><ele>680.0</ele><time>2026-05-02T09:08:11.994Z</time></trkpt><trkpt lat="43.7953425" lon="6.4431812"><ele>680.0</ele><time>2026-05-02T09:08:12.994Z</time></trkpt><trkpt lat="43.7952022" lon="6.4431485"><ele>682.5</ele><time>2026-05-02T09:08:13.994Z</time></trkpt><trkpt lat="43.795074" lon="6.443126"><ele>685.0</ele><time>2026-05-02T09:08:14.994Z</time></trkpt><trkpt lat="43.794949" lon="6.4431033"><ele>687.5</ele><time>2026-05-02T09:08:15.994Z</time></trkpt><trkpt lat="43.7948315" lon="6.4430617"><ele>690.0</ele><time>2026-05-02T09:08:16.994Z</time></trkpt><trkpt lat="43.7946812" lon="6.4430286"><ele>690.0</ele><time>2026-05-02T09:08:17.994Z</time></trkpt><trkpt lat="43.7945614" lon="6.4429875"><ele>690.0</ele><time>2026-05-02T09:08:18.994Z</time></trkpt><trkpt lat="43.7944441" lon="6.4429132"><ele>690.0</ele><time>2026-05-02T09:08:19.994Z</time></trkpt><trkpt lat="43.7943198" lon="6.4428212"><ele>690.0</ele><time>2026-05-02T09:08:20.994Z</time></trkpt><trkpt lat="43.7941968" lon="6.4427314"><ele>689.25</ele><time>2026-05-02T09:08:21.994Z</time></trkpt><trkpt lat="43.7940715" lon="6.4426551"><ele>688.5</ele><time>2026-05-02T09:08:22.993Z</time></trkpt><trkpt lat="43.7939438" lon="6.4425614"><ele>687.75</ele><time>2026-05-02T09:08:23.994Z</time></trkpt><trkpt lat="43.7938069" lon="6.4425087"><ele>687.0</ele><time>2026-05-02T09:08:24.994Z</time></trkpt><trkpt lat="43.7936783" lon="6.442491"><ele>687.0</ele><time>2026-05-02T09:08:25.994Z</time></trkpt><trkpt lat="43.793527" lon="6.4424777"><ele>687.0</ele><time>2026-05-02T09:08:26.994Z</time></trkpt><trkpt lat="43.7933859" lon="6.4424975"><ele>687.0</ele><time>2026-05-02T09:08:27.994Z</time></trkpt><trkpt lat="43.7932452" lon="6.4425056"><ele>687.0</ele><time>2026-05-02T09:08:28.994Z</time></trkpt><trkpt lat="43.7931322" lon="6.4425822"><ele>687.75</ele><time>2026-05-02T09:08:29.994Z</time></trkpt><trkpt lat="43.7930065" lon="6.4426807"><ele>688.5</ele><time>2026-05-02T09:08:30.993Z</time></trkpt><trkpt lat="43.7928831" lon="6.4427769"><ele>689.25</ele><time>2026-05-02T09:08:31.994Z</time></trkpt><trkpt lat="43.7927565" lon="6.4428468"><ele>690.0</ele><time>2026-05-02T09:08:32.994Z</time></trkpt><trkpt lat="43.7926312" lon="6.442898"><ele>690.5</ele><time>2026-05-02T09:08:33.993Z</time></trkpt><trkpt lat="43.7924984" lon="6.442895"><ele>691.0</ele><time>2026-05-02T09:08:34.994Z</time></trkpt><trkpt lat="43.7923461" lon="6.4428904"><ele>691.5</ele><time>2026-05-02T09:08:35.994Z</time></trkpt><trkpt lat="43.7921873" lon="6.4428813"><ele>692.0</ele><time>2026-05-02T09:08:36.993Z</time></trkpt><trkpt lat="43.7920276" lon="6.4428499"><ele>692.0</ele><time>2026-05-02T09:08:37.994Z</time></trkpt><trkpt lat="43.7918674" lon="6.4428273"><ele>692.0</ele><time>2026-05-02T09:08:38.994Z</time></trkpt><trkpt lat="43.7917077" lon="6.4427906"><ele>692.0</ele><time>2026-05-02T09:08:39.994Z</time></trkpt><trkpt lat="43.7915633" lon="6.4427721"><ele>694.0</ele><time>2026-05-02T09:08:40.994Z</time></trkpt><trkpt lat="43.7914117" lon="6.4427587"><ele>696.0</ele><time>2026-05-02T09:08:41.994Z</time></trkpt><trkpt lat="43.791295" lon="6.4427621"><ele>698.0</ele><time>2026-05-02T09:08:42.994Z</time></trkpt><trkpt lat="43.7911841" lon="6.4427739"><ele>700.0</ele><time>2026-05-02T09:08:43.994Z</time></trkpt><trkpt lat="43.7910837" lon="6.4427687"><ele>699.0</ele><time>2026-05-02T09:08:44.994Z</time></trkpt><trkpt lat="43.7910036" lon="6.4428594"><ele>698.0</ele><time>2026-05-02T09:08:45.994Z</time></trkpt><trkpt lat="43.790881" lon="6.4429128"><ele>697.0</ele><time>2026-05-02T09:08:46.994Z</time></trkpt><trkpt lat="43.7907806" lon="6.443044"><ele>696.0</ele><time>2026-05-02T09:08:47.994Z</time></trkpt><trkpt lat="43.7906778" lon="6.4431841"><ele>698.0</ele><time>2026-05-02T09:08:48.994Z</time></trkpt><trkpt lat="43.7905924" lon="6.4433368"><ele>700.0</ele><time>2026-05-02T09:08:49.994Z</time></trkpt><trkpt lat="43.7905206" lon="6.4434624"><ele>702.0</ele><time>2026-05-02T09:08:50.994Z</time></trkpt><trkpt lat="43.7904193" lon="6.4435922"><ele>704.0</ele><time>2026-05-02T09:08:51.994Z</time></trkpt><trkpt lat="43.7903183" lon="6.4437274"><ele>705.5</ele><time>2026-05-02T09:08:52.993Z</time></trkpt><trkpt lat="43.7902184" lon="6.4438744"><ele>707.0</ele><time>2026-05-02T09:08:53.994Z</time></trkpt><trkpt lat="43.7901279" lon="6.4440019"><ele>708.5</ele><time>2026-05-02T09:08:54.994Z</time></trkpt><trkpt lat="43.7900019" lon="6.44404"><ele>710.0</ele><time>2026-05-02T09:08:55.996Z</time></trkpt><trkpt lat="43.7898909" lon="6.4441019"><ele>710.5</ele><time>2026-05-02T09:08:56.994Z</time></trkpt><trkpt lat="43.7897385" lon="6.4441034"><ele>711.0</ele><time>2026-05-02T09:08:57.994Z</time></trkpt><trkpt lat="43.7896007" lon="6.4441027"><ele>711.5</ele><time>2026-05-02T09:08:58.994Z</time></trkpt><trkpt lat="43.7894687" lon="6.4440975"><ele>712.0</ele><time>2026-05-02T09:08:59.994Z</time></trkpt><trkpt lat="43.7893303" lon="6.4440998"><ele>712.75</ele><time>2026-05-02T09:09:00.994Z</time></trkpt><trkpt lat="43.7891925" lon="6.444091"><ele>713.5</ele><time>2026-05-02T09:09:01.994Z</time></trkpt><trkpt lat="43.7890901" lon="6.4440545"><ele>714.25</ele><time>2026-05-02T09:09:02.994Z</time></trkpt><trkpt lat="43.7889926" lon="6.4439642"><ele>715.0</ele><time>2026-05-02T09:09:03.994Z</time></trkpt><trkpt lat="43.7889179" lon="6.4438568"><ele>713.0</ele><time>2026-05-02T09:09:04.993Z</time></trkpt><trkpt lat="43.7888415" lon="6.4437552"><ele>711.0</ele><time>2026-05-02T09:09:05.994Z</time></trkpt><trkpt lat="43.788732" lon="6.4436094"><ele>709.0</ele><time>2026-05-02T09:09:06.994Z</time></trkpt><trkpt lat="43.7886239" lon="6.4434843"><ele>707.0</ele><time>2026-05-02T09:09:07.993Z</time></trkpt><trkpt lat="43.7885207" lon="6.4434093"><ele>708.25</ele><time>2026-05-02T09:09:08.994Z</time></trkpt><trkpt lat="43.7883928" lon="6.4433652"><ele>709.5</ele><time>2026-05-02T09:09:09.994Z</time></trkpt><trkpt lat="43.7882608" lon="6.4433363"><ele>710.75</ele><time>2026-05-02T09:09:10.994Z</time></trkpt><trkpt lat="43.7881292" lon="6.4432822"><ele>712.0</ele><time>2026-05-02T09:09:11.994Z</time></trkpt><trkpt lat="43.7879736" lon="6.4432863"><ele>712.0</ele><time>2026-05-02T09:09:12.994Z</time></trkpt><trkpt lat="43.7878395" lon="6.4432967"><ele>712.0</ele><time>2026-05-02T09:09:13.993Z</time></trkpt><trkpt lat="43.7876823" lon="6.4433074"><ele>712.0</ele><time>2026-05-02T09:09:14.993Z</time></trkpt><trkpt lat="43.7875288" lon="6.4433272"><ele>712.0</ele><time>2026-05-02T09:09:15.994Z</time></trkpt><trkpt lat="43.7873885" lon="6.4433383"><ele>713.25</ele><time>2026-05-02T09:09:16.994Z</time></trkpt><trkpt lat="43.7872341" lon="6.4433767"><ele>714.5</ele><time>2026-05-02T09:09:17.994Z</time></trkpt><trkpt lat="43.7870929" lon="6.4433894"><ele>715.75</ele><time>2026-05-02T09:09:18.993Z</time></trkpt><trkpt lat="43.7869525" lon="6.4434187"><ele>717.0</ele><time>2026-05-02T09:09:19.993Z</time></trkpt><trkpt lat="43.7868225" lon="6.4434326"><ele>717.0</ele><time>2026-05-02T09:09:20.994Z</time></trkpt><trkpt lat="43.7866934" lon="6.4434462"><ele>717.0</ele><time>2026-05-02T09:09:21.994Z</time></trkpt><trkpt lat="43.7865537" lon="6.4434572"><ele>717.0</ele><time>2026-05-02T09:09:22.994Z</time></trkpt><trkpt lat="43.7864242" lon="6.4434779"><ele>717.0</ele><time>2026-05-02T09:09:23.994Z</time></trkpt><trkpt lat="43.7863209" lon="6.4435084"><ele>717.0</ele><time>2026-05-02T09:09:24.994Z</time></trkpt><trkpt lat="43.7862197" lon="6.443513"><ele>717.0</ele><time>2026-05-02T09:09:25.993Z</time></trkpt><trkpt lat="43.7861166" lon="6.4435239"><ele>717.0</ele><time>2026-05-02T09:09:26.994Z</time></trkpt><trkpt lat="43.7859925" lon="6.4435747"><ele>717.0</ele><time>2026-05-02T09:09:27.994Z</time></trkpt><trkpt lat="43.7858797" lon="6.4436348"><ele>717.0</ele><time>2026-05-02T09:09:28.994Z</time></trkpt><trkpt lat="43.7857861" lon="6.4437094"><ele>717.0</ele><time>2026-05-02T09:09:29.994Z</time></trkpt><trkpt lat="43.7857086" lon="6.4438296"><ele>717.0</ele><time>2026-05-02T09:09:30.994Z</time></trkpt><trkpt lat="43.7856344" lon="6.4439554"><ele>717.0</ele><time>2026-05-02T09:09:31.994Z</time></trkpt><trkpt lat="43.7855924" lon="6.444095"><ele>719.0</ele><time>2026-05-02T09:09:32.994Z</time></trkpt><trkpt lat="43.7855445" lon="6.4442838"><ele>721.0</ele><time>2026-05-02T09:09:33.994Z</time></trkpt><trkpt lat="43.7855259" lon="6.444456"><ele>723.0</ele><time>2026-05-02T09:09:34.994Z</time></trkpt><trkpt lat="43.7855478" lon="6.444614"><ele>725.0</ele><time>2026-05-02T09:09:35.993Z</time></trkpt><trkpt lat="43.785524" lon="6.4447894"><ele>725.25</ele><time>2026-05-02T09:09:36.994Z</time></trkpt><trkpt lat="43.7854808" lon="6.4449375"><ele>725.5</ele><time>2026-05-02T09:09:37.994Z</time></trkpt><trkpt lat="43.785475" lon="6.4450957"><ele>725.75</ele><time>2026-05-02T09:09:38.993Z</time></trkpt><trkpt lat="43.7854494" lon="6.4452648"><ele>726.0</ele><time>2026-05-02T09:09:39.993Z</time></trkpt><trkpt lat="43.7854265" lon="6.4454029"><ele>725.75</ele><time>2026-05-02T09:09:40.994Z</time></trkpt><trkpt lat="43.7853616" lon="6.4455297"><ele>725.5</ele><time>2026-05-02T09:09:41.994Z</time></trkpt><trkpt lat="43.7852754" lon="6.4456633"><ele>725.25</ele><time>2026-05-02T09:09:42.994Z</time></trkpt><trkpt lat="43.7851732" lon="6.4457541"><ele>725.0</ele><time>2026-05-02T09:09:43.994Z</time></trkpt><trkpt lat="43.7850677" lon="6.4458419"><ele>725.0</ele><time>2026-05-02T09:09:44.994Z</time></trkpt><trkpt lat="43.7849321" lon="6.4458805"><ele>725.0</ele><time>2026-05-02T09:09:45.993Z</time></trkpt><trkpt lat="43.7847905" lon="6.4459083"><ele>725.0</ele><time>2026-05-02T09:09:46.993Z</time></trkpt><trkpt lat="43.7846548" lon="6.4459058"><ele>725.0</ele><time>2026-05-02T09:09:47.994Z</time></trkpt><trkpt lat="43.7844955" lon="6.4459201"><ele>725.0</ele><time>2026-05-02T09:09:48.993Z</time></trkpt><trkpt lat="43.7843704" lon="6.4458831"><ele>725.0</ele><time>2026-05-02T09:09:49.993Z</time></trkpt><trkpt lat="43.784234" lon="6.4458705"><ele>725.0</ele><time>2026-05-02T09:09:50.994Z</time></trkpt><trkpt lat="43.7841166" lon="6.4458416"><ele>725.0</ele><time>2026-05-02T09:09:51.994Z</time></trkpt><trkpt lat="43.7839872" lon="6.4458347"><ele>725.0</ele><time>2026-05-02T09:09:52.993Z</time></trkpt><trkpt lat="43.7838505" lon="6.4458062"><ele>725.0</ele><time>2026-05-02T09:09:53.994Z</time></trkpt><trkpt lat="43.7837151" lon="6.4457908"><ele>725.0</ele><time>2026-05-02T09:09:54.994Z</time></trkpt><trkpt lat="43.7835987" lon="6.4457411"><ele>725.0</ele><time>2026-05-02T09:09:55.994Z</time></trkpt><trkpt lat="43.783477" lon="6.445704"><ele>725.75</ele><time>2026-05-02T09:09:56.994Z</time></trkpt><trkpt lat="43.7833325" lon="6.445649"><ele>726.5</ele><time>2026-05-02T09:09:57.993Z</time></trkpt><trkpt lat="43.7832005" lon="6.445608"><ele>727.25</ele><time>2026-05-02T09:09:58.994Z</time></trkpt><trkpt lat="43.7830524" lon="6.4456016"><ele>728.0</ele><time>2026-05-02T09:09:59.994Z</time></trkpt><trkpt lat="43.7829235" lon="6.4455857"><ele>728.0</ele><time>2026-05-02T09:10:00.993Z</time></trkpt><trkpt lat="43.7827834" lon="6.4455833"><ele>728.0</ele><time>2026-05-02T09:10:01.993Z</time></trkpt><trkpt lat="43.7826481" lon="6.4455784"><ele>728.0</ele><time>2026-05-02T09:10:02.994Z</time></trkpt><trkpt lat="43.782502" lon="6.4455434"><ele>728.0</ele><time>2026-05-02T09:10:03.994Z</time></trkpt><trkpt lat="43.7823722" lon="6.4454944"><ele>727.5</ele><time>2026-05-02T09:10:04.994Z</time></trkpt><trkpt lat="43.7822234" lon="6.4454543"><ele>727.0</ele><time>2026-05-02T09:10:05.994Z</time></trkpt><trkpt lat="43.7820897" lon="6.4453805"><ele>726.5</ele><time>2026-05-02T09:10:06.994Z</time></trkpt><trkpt lat="43.7819595" lon="6.4453375"><ele>726.0</ele><time>2026-05-02T09:10:07.994Z</time></trkpt><trkpt lat="43.7818087" lon="6.4452519"><ele>726.0</ele><time>2026-05-02T09:10:08.994Z</time></trkpt><trkpt lat="43.7816601" lon="6.445194"><ele>726.0</ele><time>2026-05-02T09:10:09.994Z</time></trkpt><trkpt lat="43.7815174" lon="6.445113"><ele>726.0</ele><time>2026-05-02T09:10:10.994Z</time></trkpt><trkpt lat="43.7813876" lon="6.4450138"><ele>726.0</ele><time>2026-05-02T09:10:11.994Z</time></trkpt><trkpt lat="43.7812571" lon="6.4449252"><ele>726.0</ele><time>2026-05-02T09:10:12.994Z</time></trkpt><trkpt lat="43.7811284" lon="6.444837"><ele>726.0</ele><time>2026-05-02T09:10:13.994Z</time></trkpt><trkpt lat="43.7810247" lon="6.4447157"><ele>726.0</ele><time>2026-05-02T09:10:14.994Z</time></trkpt><trkpt lat="43.7809129" lon="6.4446129"><ele>725.5</ele><time>2026-05-02T09:10:15.994Z</time></trkpt><trkpt lat="43.7808076" lon="6.444532"><ele>725.0</ele><time>2026-05-02T09:10:16.993Z</time></trkpt><trkpt lat="43.7807045" lon="6.4444659"><ele>724.5</ele><time>2026-05-02T09:10:17.993Z</time></trkpt><trkpt lat="43.7805976" lon="6.4444465"><ele>724.0</ele><time>2026-05-02T09:10:18.994Z</time></trkpt><trkpt lat="43.7804857" lon="6.4444772"><ele>724.0</ele><time>2026-05-02T09:10:19.994Z</time></trkpt><trkpt lat="43.7803764" lon="6.4445545"><ele>724.0</ele><time>2026-05-02T09:10:20.994Z</time></trkpt><trkpt lat="43.7802569" lon="6.4446702"><ele>724.0</ele><time>2026-05-02T09:10:21.994Z</time></trkpt><trkpt lat="43.7801501" lon="6.4448015"><ele>724.0</ele><time>2026-05-02T09:10:22.994Z</time></trkpt><trkpt lat="43.7800285" lon="6.4449515"><ele>723.25</ele><time>2026-05-02T09:10:23.994Z</time></trkpt><trkpt lat="43.7799604" lon="6.4450674"><ele>722.5</ele><time>2026-05-02T09:10:24.994Z</time></trkpt><trkpt lat="43.7798512" lon="6.4451865"><ele>721.75</ele><time>2026-05-02T09:10:25.994Z</time></trkpt><trkpt lat="43.7797267" lon="6.4452523"><ele>721.0</ele><time>2026-05-02T09:10:26.994Z</time></trkpt><trkpt lat="43.7796186" lon="6.4453058"><ele>721.0</ele><time>2026-05-02T09:10:27.994Z</time></trkpt><trkpt lat="43.7795237" lon="6.4452882"><ele>721.0</ele><time>2026-05-02T09:10:28.994Z</time></trkpt><trkpt lat="43.7794294" lon="6.4452802"><ele>721.0</ele><time>2026-05-02T09:10:29.993Z</time></trkpt><trkpt lat="43.7793393" lon="6.4452482"><ele>721.0</ele><time>2026-05-02T09:10:30.994Z</time></trkpt><trkpt lat="43.7793119" lon="6.4451332"><ele>721.0</ele><time>2026-05-02T09:10:31.994Z</time></trkpt><trkpt lat="43.7793132" lon="6.4450041"><ele>720.75</ele><time>2026-05-02T09:10:32.994Z</time></trkpt><trkpt lat="43.7793158" lon="6.444836"><ele>720.5</ele><time>2026-05-02T09:10:33.994Z</time></trkpt><trkpt lat="43.7792762" lon="6.4446713"><ele>720.25</ele><time>2026-05-02T09:10:34.993Z</time></trkpt><trkpt lat="43.7792459" lon="6.4445471"><ele>720.0</ele><time>2026-05-02T09:10:35.994Z</time></trkpt><trkpt lat="43.7791111" lon="6.4444683"><ele>715.75</ele><time>2026-05-02T09:10:37.994Z</time></trkpt><trkpt lat="43.7790377" lon="6.4444285"><ele>711.5</ele><time>2026-05-02T09:10:38.994Z</time></trkpt><trkpt lat="43.7789554" lon="6.4444273"><ele>707.25</ele><time>2026-05-02T09:10:39.994Z</time></trkpt><trkpt lat="43.7788077" lon="6.4444422"><ele>703.0</ele><time>2026-05-02T09:10:40.994Z</time></trkpt><trkpt lat="43.778629" lon="6.4444893"><ele>701.0</ele><time>2026-05-02T09:10:41.994Z</time></trkpt><trkpt lat="43.778465" lon="6.4445429"><ele>699.0</ele><time>2026-05-02T09:10:42.994Z</time></trkpt><trkpt lat="43.7783047" lon="6.44461"><ele>697.0</ele><time>2026-05-02T09:10:43.994Z</time></trkpt><trkpt lat="43.7781438" lon="6.44468"><ele>700.0</ele><time>2026-05-02T09:10:44.994Z</time></trkpt><trkpt lat="43.7779812" lon="6.4447569"><ele>703.0</ele><time>2026-05-02T09:10:45.994Z</time></trkpt><trkpt lat="43.7778316" lon="6.4448378"><ele>706.0</ele><time>2026-05-02T09:10:46.993Z</time></trkpt><trkpt lat="43.7776832" lon="6.4449143"><ele>706.0</ele><time>2026-05-02T09:10:47.993Z</time></trkpt><trkpt lat="43.7775383" lon="6.4450382"><ele>706.0</ele><time>2026-05-02T09:10:48.993Z</time></trkpt><trkpt lat="43.7773896" lon="6.4451602"><ele>706.0</ele><time>2026-05-02T09:10:49.994Z</time></trkpt><trkpt lat="43.7772657" lon="6.4452657"><ele>706.0</ele><time>2026-05-02T09:10:50.994Z</time></trkpt><trkpt lat="43.7771725" lon="6.4453819"><ele>706.0</ele><time>2026-05-02T09:10:51.994Z</time></trkpt><trkpt lat="43.7770418" lon="6.4455114"><ele>706.0</ele><time>2026-05-02T09:10:52.994Z</time></trkpt><trkpt lat="43.7769184" lon="6.4456444"><ele>706.0</ele><time>2026-05-02T09:10:53.994Z</time></trkpt><trkpt lat="43.7768148" lon="6.4457654"><ele>703.75</ele><time>2026-05-02T09:10:54.994Z</time></trkpt><trkpt lat="43.7767147" lon="6.4458991"><ele>701.5</ele><time>2026-05-02T09:10:55.994Z</time></trkpt><trkpt lat="43.776582" lon="6.4459766"><ele>699.25</ele><time>2026-05-02T09:10:56.993Z</time></trkpt><trkpt lat="43.7764735" lon="6.4460995"><ele>697.0</ele><time>2026-05-02T09:10:57.994Z</time></trkpt><trkpt lat="43.7763936" lon="6.4462299"><ele>702.5</ele><time>2026-05-02T09:10:58.994Z</time></trkpt><trkpt lat="43.7763077" lon="6.4463546"><ele>708.0</ele><time>2026-05-02T09:10:59.994Z</time></trkpt><trkpt lat="43.7762373" lon="6.4464919"><ele>713.5</ele><time>2026-05-02T09:11:00.993Z</time></trkpt><trkpt lat="43.7761804" lon="6.4466511"><ele>719.0</ele><time>2026-05-02T09:11:01.994Z</time></trkpt><trkpt lat="43.7762018" lon="6.4468335"><ele>719.0</ele><time>2026-05-02T09:11:02.993Z</time></trkpt><trkpt lat="43.7762113" lon="6.4469878"><ele>719.0</ele><time>2026-05-02T09:11:03.994Z</time></trkpt><trkpt lat="43.7762297" lon="6.4471646"><ele>719.0</ele><time>2026-05-02T09:11:04.994Z</time></trkpt><trkpt lat="43.7762598" lon="6.4473622"><ele>719.0</ele><time>2026-05-02T09:11:05.994Z</time></trkpt><trkpt lat="43.7762939" lon="6.4475461"><ele>717.5</ele><time>2026-05-02T09:11:06.994Z</time></trkpt><trkpt lat="43.776298" lon="6.4477023"><ele>716.0</ele><time>2026-05-02T09:11:07.994Z</time></trkpt><trkpt lat="43.7763259" lon="6.4478691"><ele>714.5</ele><time>2026-05-02T09:11:08.994Z</time></trkpt><trkpt lat="43.7763658" lon="6.4480475"><ele>713.0</ele><time>2026-05-02T09:11:09.994Z</time></trkpt><trkpt lat="43.7764177" lon="6.4481464"><ele>710.8333333333333</ele><time>2026-05-02T09:11:10.994Z</time></trkpt><trkpt lat="43.7764606" lon="6.448258"><ele>708.6666666666666</ele><time>2026-05-02T09:11:11.994Z</time></trkpt><trkpt lat="43.7765052" lon="6.4483728"><ele>706.5</ele><time>2026-05-02T09:11:12.994Z</time></trkpt><trkpt lat="43.7764758" lon="6.4484768"><ele>704.3333333333334</ele><time>2026-05-02T09:11:13.994Z</time></trkpt><trkpt lat="43.77643" lon="6.4485596"><ele>702.1666666666667</ele><time>2026-05-02T09:11:14.994Z</time></trkpt><trkpt lat="43.776374" lon="6.4486454"><ele>700.0</ele><time>2026-05-02T09:11:15.994Z</time></trkpt><trkpt lat="43.7762557" lon="6.4486274"><ele>700.0</ele><time>2026-05-02T09:11:16.994Z</time></trkpt><trkpt lat="43.7761598" lon="6.4486298"><ele>700.0</ele><time>2026-05-02T09:11:17.994Z</time></trkpt><trkpt lat="43.776062" lon="6.448631"><ele>700.0</ele><time>2026-05-02T09:11:18.994Z</time></trkpt><trkpt lat="43.7759621" lon="6.4486093"><ele>700.0</ele><time>2026-05-02T09:11:19.994Z</time></trkpt><trkpt lat="43.7758858" lon="6.4485659"><ele>700.0</ele><time>2026-05-02T09:11:20.993Z</time></trkpt><trkpt lat="43.77573" lon="6.4484879"><ele>699.6666666666667</ele><time>2026-05-02T09:11:21.994Z</time></trkpt><trkpt lat="43.7756057" lon="6.4483267"><ele>699.3333333333334</ele><time>2026-05-02T09:11:22.994Z</time></trkpt><trkpt lat="43.7754614" lon="6.4482275"><ele>699.0</ele><time>2026-05-02T09:11:23.994Z</time></trkpt><trkpt lat="43.7753178" lon="6.4481498"><ele>701.25</ele><time>2026-05-02T09:11:24.993Z</time></trkpt><trkpt lat="43.7751858" lon="6.4480892"><ele>703.5</ele><time>2026-05-02T09:11:25.993Z</time></trkpt><trkpt lat="43.7750392" lon="6.4480148"><ele>705.75</ele><time>2026-05-02T09:11:26.994Z</time></trkpt><trkpt lat="43.7749049" lon="6.4479904"><ele>708.0</ele><time>2026-05-02T09:11:27.994Z</time></trkpt><trkpt lat="43.7747923" lon="6.447924"><ele>703.25</ele><time>2026-05-02T09:11:28.993Z</time></trkpt><trkpt lat="43.7746556" lon="6.4478558"><ele>698.5</ele><time>2026-05-02T09:11:29.994Z</time></trkpt><trkpt lat="43.7745215" lon="6.4477996"><ele>693.75</ele><time>2026-05-02T09:11:30.994Z</time></trkpt><trkpt lat="43.7744095" lon="6.4476812"><ele>689.0</ele><time>2026-05-02T09:11:31.994Z</time></trkpt><trkpt lat="43.7742635" lon="6.4476077"><ele>689.0</ele><time>2026-05-02T09:11:32.994Z</time></trkpt><trkpt lat="43.7741404" lon="6.4475472"><ele>689.0</ele><time>2026-05-02T09:11:33.994Z</time></trkpt><trkpt lat="43.7740415" lon="6.4474974"><ele>689.0</ele><time>2026-05-02T09:11:34.993Z</time></trkpt><trkpt lat="43.7739381" lon="6.4474569"><ele>689.0</ele><time>2026-05-02T09:11:35.994Z</time></trkpt><trkpt lat="43.7738278" lon="6.447438"><ele>689.0</ele><time>2026-05-02T09:11:36.994Z</time></trkpt><trkpt lat="43.7737245" lon="6.4474218"><ele>689.0</ele><time>2026-05-02T09:11:37.994Z</time></trkpt><trkpt lat="43.7736409" lon="6.4474511"><ele>689.0</ele><time>2026-05-02T09:11:38.994Z</time></trkpt><trkpt lat="43.7735546" lon="6.4475163"><ele>689.0</ele><time>2026-05-02T09:11:39.993Z</time></trkpt><trkpt lat="43.7734737" lon="6.4475904"><ele>689.0</ele><time>2026-05-02T09:11:40.993Z</time></trkpt><trkpt lat="43.7734138" lon="6.4477192"><ele>687.75</ele><time>2026-05-02T09:11:41.994Z</time></trkpt><trkpt lat="43.773347" lon="6.4479131"><ele>686.5</ele><time>2026-05-02T09:11:42.994Z</time></trkpt><trkpt lat="43.7732718" lon="6.4480519"><ele>685.25</ele><time>2026-05-02T09:11:43.993Z</time></trkpt><trkpt lat="43.7731827" lon="6.4481581"><ele>684.0</ele><time>2026-05-02T09:11:44.994Z</time></trkpt><trkpt lat="43.7730655" lon="6.448237"><ele>685.25</ele><time>2026-05-02T09:11:45.993Z</time></trkpt><trkpt lat="43.7729449" lon="6.4483112"><ele>686.5</ele><time>2026-05-02T09:11:46.994Z</time></trkpt><trkpt lat="43.7728374" lon="6.4483943"><ele>687.75</ele><time>2026-05-02T09:11:47.994Z</time></trkpt><trkpt lat="43.7727399" lon="6.4485053"><ele>689.0</ele><time>2026-05-02T09:11:48.994Z</time></trkpt><trkpt lat="43.7726461" lon="6.4486031"><ele>689.0</ele><time>2026-05-02T09:11:49.994Z</time></trkpt><trkpt lat="43.7725641" lon="6.4487383"><ele>689.0</ele><time>2026-05-02T09:11:50.994Z</time></trkpt><trkpt lat="43.7725178" lon="6.4488573"><ele>689.0</ele><time>2026-05-02T09:11:51.994Z</time></trkpt><trkpt lat="43.7724951" lon="6.4490538"><ele>689.0</ele><time>2026-05-02T09:11:52.994Z</time></trkpt><trkpt lat="43.7724607" lon="6.4491891"><ele>692.75</ele><time>2026-05-02T09:11:53.994Z</time></trkpt><trkpt lat="43.7724413" lon="6.4493481"><ele>696.5</ele><time>2026-05-02T09:11:54.994Z</time></trkpt><trkpt lat="43.7723759" lon="6.4494533"><ele>700.25</ele><time>2026-05-02T09:11:55.994Z</time></trkpt><trkpt lat="43.7723007" lon="6.4495637"><ele>704.0</ele><time>2026-05-02T09:11:57.994Z</time></trkpt><trkpt lat="43.7721818" lon="6.4494921"><ele>704.0</ele><time>2026-05-02T09:11:59.994Z</time></trkpt><trkpt lat="43.7721591" lon="6.4494095"><ele>704.0</ele><time>2026-05-02T09:12:00.994Z</time></trkpt><trkpt lat="43.7721133" lon="6.4492301"><ele>704.0</ele><time>2026-05-02T09:12:01.994Z</time></trkpt><trkpt lat="43.7720435" lon="6.449094"><ele>704.0</ele><time>2026-05-02T09:12:02.994Z</time></trkpt><trkpt lat="43.77198" lon="6.44897"><ele>704.0</ele><time>2026-05-02T09:12:03.994Z</time></trkpt><trkpt lat="43.771897" lon="6.4488903"><ele>706.0</ele><time>2026-05-02T09:12:04.994Z</time></trkpt><trkpt lat="43.7717788" lon="6.4488611"><ele>708.0</ele><time>2026-05-02T09:12:05.994Z</time></trkpt><trkpt lat="43.7716509" lon="6.4488592"><ele>710.0</ele><time>2026-05-02T09:12:06.993Z</time></trkpt><trkpt lat="43.7715544" lon="6.4488395"><ele>712.0</ele><time>2026-05-02T09:12:07.994Z</time></trkpt><trkpt lat="43.7714027" lon="6.4488264"><ele>712.0</ele><time>2026-05-02T09:12:08.993Z</time></trkpt><trkpt lat="43.7713186" lon="6.4487879"><ele>712.0</ele><time>2026-05-02T09:12:09.994Z</time></trkpt><trkpt lat="43.7711357" lon="6.448828"><ele>712.0</ele><time>2026-05-02T09:12:10.994Z</time></trkpt><trkpt lat="43.7709844" lon="6.4488204"><ele>712.0</ele><time>2026-05-02T09:12:11.994Z</time></trkpt><trkpt lat="43.7708063" lon="6.4488223"><ele>713.75</ele><time>2026-05-02T09:12:12.994Z</time></trkpt><trkpt lat="43.7706534" lon="6.4488043"><ele>715.5</ele><time>2026-05-02T09:12:13.994Z</time></trkpt><trkpt lat="43.7705131" lon="6.4487756"><ele>717.25</ele><time>2026-05-02T09:12:14.994Z</time></trkpt><trkpt lat="43.7703736" lon="6.4487351"><ele>719.0</ele><time>2026-05-02T09:12:15.994Z</time></trkpt><trkpt lat="43.7702396" lon="6.4486702"><ele>715.75</ele><time>2026-05-02T09:12:16.993Z</time></trkpt><trkpt lat="43.7701341" lon="6.4485895"><ele>712.5</ele><time>2026-05-02T09:12:17.994Z</time></trkpt><trkpt lat="43.7700198" lon="6.4484834"><ele>709.25</ele><time>2026-05-02T09:12:18.994Z</time></trkpt><trkpt lat="43.7698886" lon="6.448386"><ele>706.0</ele><time>2026-05-02T09:12:19.994Z</time></trkpt><trkpt lat="43.7697793" lon="6.4482651"><ele>706.0</ele><time>2026-05-02T09:12:20.994Z</time></trkpt><trkpt lat="43.7696539" lon="6.4481758"><ele>706.0</ele><time>2026-05-02T09:12:21.994Z</time></trkpt><trkpt lat="43.76953" lon="6.4480972"><ele>706.0</ele><time>2026-05-02T09:12:22.993Z</time></trkpt><trkpt lat="43.7693833" lon="6.44805"><ele>706.0</ele><time>2026-05-02T09:12:23.993Z</time></trkpt><trkpt lat="43.7692457" lon="6.4480116"><ele>704.5</ele><time>2026-05-02T09:12:24.994Z</time></trkpt><trkpt lat="43.7691281" lon="6.4479535"><ele>703.0</ele><time>2026-05-02T09:12:25.993Z</time></trkpt><trkpt lat="43.7689974" lon="6.4479044"><ele>701.5</ele><time>2026-05-02T09:12:26.994Z</time></trkpt><trkpt lat="43.7688593" lon="6.4478714"><ele>700.0</ele><time>2026-05-02T09:12:27.994Z</time></trkpt><trkpt lat="43.7687223" lon="6.4478427"><ele>700.0</ele><time>2026-05-02T09:12:28.994Z</time></trkpt><trkpt lat="43.7686053" lon="6.4478205"><ele>700.0</ele><time>2026-05-02T09:12:29.994Z</time></trkpt><trkpt lat="43.7684667" lon="6.4478202"><ele>700.0</ele><time>2026-05-02T09:12:30.994Z</time></trkpt><trkpt lat="43.7683261" lon="6.4478393"><ele>700.0</ele><time>2026-05-02T09:12:31.994Z</time></trkpt><trkpt lat="43.7681895" lon="6.4478435"><ele>701.5</ele><time>2026-05-02T09:12:32.993Z</time></trkpt><trkpt lat="43.7680524" lon="6.4478619"><ele>703.0</ele><time>2026-05-02T09:12:33.994Z</time></trkpt><trkpt lat="43.767935" lon="6.4478774"><ele>704.5</ele><time>2026-05-02T09:12:34.993Z</time></trkpt><trkpt lat="43.7677944" lon="6.4478926"><ele>706.0</ele><time>2026-05-02T09:12:35.994Z</time></trkpt><trkpt lat="43.7676647" lon="6.4478849"><ele>706.25</ele><time>2026-05-02T09:12:36.994Z</time></trkpt><trkpt lat="43.7675537" lon="6.4478775"><ele>706.5</ele><time>2026-05-02T09:12:37.994Z</time></trkpt><trkpt lat="43.7674255" lon="6.4479093"><ele>706.75</ele><time>2026-05-02T09:12:38.994Z</time></trkpt><trkpt lat="43.7672989" lon="6.4479821"><ele>707.0</ele><time>2026-05-02T09:12:39.994Z</time></trkpt><trkpt lat="43.7671673" lon="6.4480581"><ele>708.0</ele><time>2026-05-02T09:12:40.994Z</time></trkpt><trkpt lat="43.7670394" lon="6.4481516"><ele>709.0</ele><time>2026-05-02T09:12:41.994Z</time></trkpt><trkpt lat="43.7669098" lon="6.4482416"><ele>710.0</ele><time>2026-05-02T09:12:42.994Z</time></trkpt><trkpt lat="43.7667823" lon="6.4483465"><ele>711.0</ele><time>2026-05-02T09:12:43.994Z</time></trkpt><trkpt lat="43.7666486" lon="6.448434"><ele>711.0</ele><time>2026-05-02T09:12:44.994Z</time></trkpt><trkpt lat="43.7665081" lon="6.4485328"><ele>711.0</ele><time>2026-05-02T09:12:45.994Z</time></trkpt><trkpt lat="43.76637" lon="6.4486256"><ele>711.0</ele><time>2026-05-02T09:12:46.994Z</time></trkpt><trkpt lat="43.7662406" lon="6.4487226"><ele>713.3333333333334</ele><time>2026-05-02T09:12:47.994Z</time></trkpt><trkpt lat="43.7660918" lon="6.4488246"><ele>715.6666666666667</ele><time>2026-05-02T09:12:48.993Z</time></trkpt><trkpt lat="43.7659524" lon="6.4489192"><ele>718.0</ele><time>2026-05-02T09:12:49.994Z</time></trkpt><trkpt lat="43.7658034" lon="6.4490096"><ele>718.0</ele><time>2026-05-02T09:12:50.994Z</time></trkpt><trkpt lat="43.765654" lon="6.4491201"><ele>718.0</ele><time>2026-05-02T09:12:51.994Z</time></trkpt><trkpt lat="43.7655236" lon="6.4492123"><ele>718.0</ele><time>2026-05-02T09:12:52.993Z</time></trkpt><trkpt lat="43.7653823" lon="6.4493127"><ele>718.0</ele><time>2026-05-02T09:12:53.994Z</time></trkpt><trkpt lat="43.7652505" lon="6.4494111"><ele>718.0</ele><time>2026-05-02T09:12:54.994Z</time></trkpt><trkpt lat="43.7651152" lon="6.4494978"><ele>718.0</ele><time>2026-05-02T09:12:55.994Z</time></trkpt><trkpt lat="43.7649718" lon="6.4496303"><ele>719.0</ele><time>2026-05-02T09:12:56.994Z</time></trkpt><trkpt lat="43.7648605" lon="6.4497003"><ele>720.0</ele><time>2026-05-02T09:12:57.993Z</time></trkpt><trkpt lat="43.7647248" lon="6.4497861"><ele>721.0</ele><time>2026-05-02T09:12:58.993Z</time></trkpt><trkpt lat="43.7645878" lon="6.449874"><ele>722.0</ele><time>2026-05-02T09:12:59.994Z</time></trkpt><trkpt lat="43.7644756" lon="6.4499246"><ele>720.25</ele><time>2026-05-02T09:13:00.994Z</time></trkpt><trkpt lat="43.7643613" lon="6.4499802"><ele>718.5</ele><time>2026-05-02T09:13:01.994Z</time></trkpt><trkpt lat="43.764235" lon="6.4500199"><ele>716.75</ele><time>2026-05-02T09:13:02.994Z</time></trkpt><trkpt lat="43.7640907" lon="6.4500634"><ele>715.0</ele><time>2026-05-02T09:13:03.993Z</time></trkpt><trkpt lat="43.7639659" lon="6.4501294"><ele>715.0</ele><time>2026-05-02T09:13:04.994Z</time></trkpt><trkpt lat="43.7638374" lon="6.4501997"><ele>715.0</ele><time>2026-05-02T09:13:05.993Z</time></trkpt><trkpt lat="43.7636965" lon="6.4502602"><ele>715.0</ele><time>2026-05-02T09:13:06.994Z</time></trkpt><trkpt lat="43.7635755" lon="6.4503349"><ele>715.0</ele><time>2026-05-02T09:13:07.994Z</time></trkpt><trkpt lat="43.7634546" lon="6.4504373"><ele>715.75</ele><time>2026-05-02T09:13:08.994Z</time></trkpt><trkpt lat="43.7633347" lon="6.4505353"><ele>716.5</ele><time>2026-05-02T09:13:09.994Z</time></trkpt><trkpt lat="43.7632391" lon="6.4506602"><ele>717.25</ele><time>2026-05-02T09:13:10.994Z</time></trkpt><trkpt lat="43.7631797" lon="6.450777"><ele>718.0</ele><time>2026-05-02T09:13:11.994Z</time></trkpt><trkpt lat="43.7631132" lon="6.4508605"><ele>718.0</ele><time>2026-05-02T09:13:12.994Z</time></trkpt><trkpt lat="43.7630425" lon="6.450961"><ele>718.0</ele><time>2026-05-02T09:13:13.994Z</time></trkpt><trkpt lat="43.7629737" lon="6.4510892"><ele>718.0</ele><time>2026-05-02T09:13:15.994Z</time></trkpt><trkpt lat="43.7628891" lon="6.4511313"><ele>718.0</ele><time>2026-05-02T09:13:17.994Z</time></trkpt><trkpt lat="43.7628749" lon="6.4509593"><ele>718.0</ele><time>2026-05-02T09:13:19.994Z</time></trkpt><trkpt lat="43.7628972" lon="6.4508688"><ele>718.0</ele><time>2026-05-02T09:13:20.994Z</time></trkpt><trkpt lat="43.7629635" lon="6.45075"><ele>718.0</ele><time>2026-05-02T09:13:21.994Z</time></trkpt><trkpt lat="43.7630195" lon="6.4506187"><ele>718.0</ele><time>2026-05-02T09:13:22.994Z</time></trkpt><trkpt lat="43.7630816" lon="6.4504909"><ele>718.0</ele><time>2026-05-02T09:13:23.994Z</time></trkpt><trkpt lat="43.7631512" lon="6.450369"><ele>718.0</ele><time>2026-05-02T09:13:24.994Z</time></trkpt><trkpt lat="43.7632334" lon="6.450241"><ele>717.0</ele><time>2026-05-02T09:13:25.993Z</time></trkpt><trkpt lat="43.7632889" lon="6.4501332"><ele>716.0</ele><time>2026-05-02T09:13:26.994Z</time></trkpt><trkpt lat="43.7633272" lon="6.4499942"><ele>715.0</ele><time>2026-05-02T09:13:27.994Z</time></trkpt><trkpt lat="43.7633468" lon="6.4498409"><ele>714.0</ele><time>2026-05-02T09:13:28.994Z</time></trkpt><trkpt lat="43.7633436" lon="6.4496869"><ele>713.0</ele><time>2026-05-02T09:13:29.993Z</time></trkpt><trkpt lat="43.763335" lon="6.4495375"><ele>711.75</ele><time>2026-05-02T09:13:30.994Z</time></trkpt><trkpt lat="43.7633044" lon="6.4493571"><ele>710.5</ele><time>2026-05-02T09:13:31.994Z</time></trkpt><trkpt lat="43.7632633" lon="6.4491964"><ele>709.25</ele><time>2026-05-02T09:13:32.994Z</time></trkpt><trkpt lat="43.7632375" lon="6.4490507"><ele>708.0</ele><time>2026-05-02T09:13:33.994Z</time></trkpt><trkpt lat="43.7632164" lon="6.4489087"><ele>708.0</ele><time>2026-05-02T09:13:34.994Z</time></trkpt><trkpt lat="43.7631965" lon="6.4487941"><ele>708.0</ele><time>2026-05-02T09:13:35.994Z</time></trkpt><trkpt lat="43.7631527" lon="6.4486674"><ele>708.0</ele><time>2026-05-02T09:13:36.994Z</time></trkpt><trkpt lat="43.7631298" lon="6.448544"><ele>708.0</ele><time>2026-05-02T09:13:38.994Z</time></trkpt><trkpt lat="43.7630967" lon="6.4484205"><ele>708.0</ele><time>2026-05-02T09:13:40.994Z</time></trkpt><trkpt lat="43.7630398" lon="6.4483649"><ele>708.0</ele><time>2026-05-02T09:13:41.994Z</time></trkpt><trkpt lat="43.7629296" lon="6.4483207"><ele>709.25</ele><time>2026-05-02T09:13:42.994Z</time></trkpt><trkpt lat="43.7628418" lon="6.4482841"><ele>710.5</ele><time>2026-05-02T09:13:43.994Z</time></trkpt><trkpt lat="43.7627161" lon="6.4482411"><ele>711.75</ele><time>2026-05-02T09:13:44.993Z</time></trkpt><trkpt lat="43.7626075" lon="6.4482075"><ele>713.0</ele><time>2026-05-02T09:13:45.994Z</time></trkpt><trkpt lat="43.7624885" lon="6.4481682"><ele>713.0</ele><time>2026-05-02T09:13:46.994Z</time></trkpt><trkpt lat="43.7623642" lon="6.4481103"><ele>713.0</ele><time>2026-05-02T09:13:47.994Z</time></trkpt><trkpt lat="43.7622458" lon="6.4480676"><ele>713.0</ele><time>2026-05-02T09:13:48.994Z</time></trkpt><trkpt lat="43.7621312" lon="6.4480026"><ele>713.0</ele><time>2026-05-02T09:13:49.994Z</time></trkpt><trkpt lat="43.7619902" lon="6.4479735"><ele>712.75</ele><time>2026-05-02T09:13:50.994Z</time></trkpt><trkpt lat="43.7618568" lon="6.4479613"><ele>712.5</ele><time>2026-05-02T09:13:51.994Z</time></trkpt><trkpt lat="43.7617162" lon="6.447955"><ele>712.25</ele><time>2026-05-02T09:13:52.994Z</time></trkpt><trkpt lat="43.7615743" lon="6.4479698"><ele>712.0</ele><time>2026-05-02T09:13:53.994Z</time></trkpt><trkpt lat="43.7614414" lon="6.4480114"><ele>712.0</ele><time>2026-05-02T09:13:54.994Z</time></trkpt><trkpt lat="43.7612887" lon="6.4480425"><ele>712.0</ele><time>2026-05-02T09:13:55.994Z</time></trkpt><trkpt lat="43.7611516" lon="6.4480728"><ele>712.0</ele><time>2026-05-02T09:13:56.994Z</time></trkpt><trkpt lat="43.7610219" lon="6.4480821"><ele>712.0</ele><time>2026-05-02T09:13:57.994Z</time></trkpt><trkpt lat="43.7609117" lon="6.4480858"><ele>712.8</ele><time>2026-05-02T09:13:58.994Z</time></trkpt><trkpt lat="43.7607903" lon="6.4480875"><ele>713.6</ele><time>2026-05-02T09:13:59.994Z</time></trkpt><trkpt lat="43.7607007" lon="6.4480646"><ele>714.4</ele><time>2026-05-02T09:14:00.994Z</time></trkpt><trkpt lat="43.7606081" lon="6.448033"><ele>715.1999999999999</ele><time>2026-05-02T09:14:01.994Z</time></trkpt><trkpt lat="43.760531" lon="6.4480112"><ele>716.0</ele><time>2026-05-02T09:14:02.994Z</time></trkpt><trkpt lat="43.7604365" lon="6.4479512"><ele>717.1666666666666</ele><time>2026-05-02T09:14:03.994Z</time></trkpt><trkpt lat="43.7603627" lon="6.4478897"><ele>718.3333333333333</ele><time>2026-05-02T09:14:04.994Z</time></trkpt><trkpt lat="43.7602983" lon="6.4478416"><ele>719.5</ele><time>2026-05-02T09:14:05.994Z</time></trkpt><trkpt lat="43.7602272" lon="6.4477881"><ele>720.6666666666666</ele><time>2026-05-02T09:14:06.994Z</time></trkpt><trkpt lat="43.7601705" lon="6.4476735"><ele>721.8333333333334</ele><time>2026-05-02T09:14:07.994Z</time></trkpt><trkpt lat="43.760108" lon="6.4475702"><ele>723.0</ele><time>2026-05-02T09:14:08.994Z</time></trkpt><trkpt lat="43.7600337" lon="6.447469"><ele>723.0</ele><time>2026-05-02T09:14:09.994Z</time></trkpt><trkpt lat="43.7599527" lon="6.447296"><ele>723.0</ele><time>2026-05-02T09:14:10.994Z</time></trkpt><trkpt lat="43.7598661" lon="6.4471158"><ele>723.0</ele><time>2026-05-02T09:14:11.993Z</time></trkpt><trkpt lat="43.7597812" lon="6.4469687"><ele>723.0</ele><time>2026-05-02T09:14:12.994Z</time></trkpt><trkpt lat="43.7596918" lon="6.4468022"><ele>724.25</ele><time>2026-05-02T09:14:13.994Z</time></trkpt><trkpt lat="43.7596212" lon="6.4466473"><ele>725.5</ele><time>2026-05-02T09:14:14.994Z</time></trkpt><trkpt lat="43.7595675" lon="6.4464814"><ele>726.75</ele><time>2026-05-02T09:14:15.994Z</time></trkpt><trkpt lat="43.7595483" lon="6.4462939"><ele>728.0</ele><time>2026-05-02T09:14:16.994Z</time></trkpt><trkpt lat="43.7595452" lon="6.446105"><ele>730.25</ele><time>2026-05-02T09:14:17.994Z</time></trkpt><trkpt lat="43.7595496" lon="6.4459141"><ele>732.5</ele><time>2026-05-02T09:14:18.993Z</time></trkpt><trkpt lat="43.7595483" lon="6.4457203"><ele>734.75</ele><time>2026-05-02T09:14:19.994Z</time></trkpt><trkpt lat="43.7595757" lon="6.4455142"><ele>737.0</ele><time>2026-05-02T09:14:20.994Z</time></trkpt><trkpt lat="43.7595887" lon="6.4452944"><ele>738.75</ele><time>2026-05-02T09:14:21.994Z</time></trkpt><trkpt lat="43.7596066" lon="6.4450944"><ele>740.5</ele><time>2026-05-02T09:14:22.994Z</time></trkpt><trkpt lat="43.7596197" lon="6.4449056"><ele>742.25</ele><time>2026-05-02T09:14:23.994Z</time></trkpt><trkpt lat="43.7596297" lon="6.4447242"><ele>744.0</ele><time>2026-05-02T09:14:24.993Z</time></trkpt><trkpt lat="43.759638" lon="6.4445489"><ele>744.8333333333334</ele><time>2026-05-02T09:14:25.994Z</time></trkpt><trkpt lat="43.759656" lon="6.4443943"><ele>745.6666666666666</ele><time>2026-05-02T09:14:26.994Z</time></trkpt><trkpt lat="43.7596903" lon="6.4442795"><ele>746.5</ele><time>2026-05-02T09:14:27.994Z</time></trkpt><trkpt lat="43.7597172" lon="6.4441657"><ele>747.3333333333333</ele><time>2026-05-02T09:14:28.994Z</time></trkpt><trkpt lat="43.7597311" lon="6.4440737"><ele>748.1666666666666</ele><time>2026-05-02T09:14:29.994Z</time></trkpt><trkpt lat="43.759752" lon="6.4439838"><ele>749.0</ele><time>2026-05-02T09:14:30.994Z</time></trkpt><trkpt lat="43.7596978" lon="6.443857"><ele>749.0</ele><time>2026-05-02T09:14:32.994Z</time></trkpt><trkpt lat="43.7596115" lon="6.4439097"><ele>749.0</ele><time>2026-05-02T09:14:33.994Z</time></trkpt><trkpt lat="43.7595154" lon="6.4439878"><ele>749.0</ele><time>2026-05-02T09:14:35.994Z</time></trkpt><trkpt lat="43.7595114" lon="6.4441592"><ele>749.0</ele><time>2026-05-02T09:14:36.993Z</time></trkpt><trkpt lat="43.7594814" lon="6.4442894"><ele>749.0</ele><time>2026-05-02T09:14:37.993Z</time></trkpt><trkpt lat="43.7594334" lon="6.4444011"><ele>749.0</ele><time>2026-05-02T09:14:38.994Z</time></trkpt><trkpt lat="43.7593597" lon="6.4444923"><ele>749.0</ele><time>2026-05-02T09:14:39.994Z</time></trkpt><trkpt lat="43.7592884" lon="6.4445807"><ele>749.0</ele><time>2026-05-02T09:14:40.994Z</time></trkpt><trkpt lat="43.7591574" lon="6.4446375"><ele>749.0</ele><time>2026-05-02T09:14:41.994Z</time></trkpt><trkpt lat="43.7590455" lon="6.4447047"><ele>747.0</ele><time>2026-05-02T09:14:42.994Z</time></trkpt><trkpt lat="43.758929" lon="6.4447795"><ele>745.0</ele><time>2026-05-02T09:14:43.993Z</time></trkpt><trkpt lat="43.7588267" lon="6.4448607"><ele>743.0</ele><time>2026-05-02T09:14:44.994Z</time></trkpt><trkpt lat="43.7587309" lon="6.4449435"><ele>741.0</ele><time>2026-05-02T09:14:45.994Z</time></trkpt><trkpt lat="43.7586549" lon="6.4450145"><ele>741.0</ele><time>2026-05-02T09:14:46.994Z</time></trkpt><trkpt lat="43.7585927" lon="6.445091"><ele>741.0</ele><time>2026-05-02T09:14:47.994Z</time></trkpt><trkpt lat="43.7584924" lon="6.4451784"><ele>741.0</ele><time>2026-05-02T09:14:49.994Z</time></trkpt><trkpt lat="43.7584396" lon="6.4451111"><ele>741.0</ele><time>2026-05-02T09:14:50.994Z</time></trkpt><trkpt lat="43.7583918" lon="6.4449832"><ele>741.0</ele><time>2026-05-02T09:14:52.994Z</time></trkpt><trkpt lat="43.7584483" lon="6.4448369"><ele>742.1999999999999</ele><time>2026-05-02T09:14:53.994Z</time></trkpt><trkpt lat="43.7584943" lon="6.4447255"><ele>743.4</ele><time>2026-05-02T09:14:54.994Z</time></trkpt><trkpt lat="43.758555" lon="6.4446032"><ele>744.6</ele><time>2026-05-02T09:14:55.994Z</time></trkpt><trkpt lat="43.7585982" lon="6.4444835"><ele>745.8</ele><time>2026-05-02T09:14:56.994Z</time></trkpt><trkpt lat="43.758645" lon="6.4443485"><ele>747.0</ele><time>2026-05-02T09:14:57.994Z</time></trkpt><trkpt lat="43.7586954" lon="6.4441847"><ele>747.6666666666666</ele><time>2026-05-02T09:14:58.994Z</time></trkpt><trkpt lat="43.7587495" lon="6.4439695"><ele>748.3333333333333</ele><time>2026-05-02T09:14:59.994Z</time></trkpt><trkpt lat="43.7588258" lon="6.4437979"><ele>749.0</ele><time>2026-05-02T09:15:00.994Z</time></trkpt><trkpt lat="43.7588854" lon="6.4436179"><ele>749.5</ele><time>2026-05-02T09:15:01.994Z</time></trkpt><trkpt lat="43.7589291" lon="6.4434259"><ele>750.0</ele><time>2026-05-02T09:15:02.994Z</time></trkpt><trkpt lat="43.7589568" lon="6.4432522"><ele>750.5</ele><time>2026-05-02T09:15:03.994Z</time></trkpt><trkpt lat="43.7589782" lon="6.4430604"><ele>751.0</ele><time>2026-05-02T09:15:04.994Z</time></trkpt><trkpt lat="43.7589992" lon="6.4428586"><ele>754.0</ele><time>2026-05-02T09:15:05.993Z</time></trkpt><trkpt lat="43.7590426" lon="6.4426647"><ele>757.0</ele><time>2026-05-02T09:15:06.994Z</time></trkpt><trkpt lat="43.7590791" lon="6.442471"><ele>760.0</ele><time>2026-05-02T09:15:07.994Z</time></trkpt><trkpt lat="43.7591351" lon="6.4423494"><ele>763.0</ele><time>2026-05-02T09:15:08.994Z</time></trkpt><trkpt lat="43.7591959" lon="6.4422265"><ele>763.0</ele><time>2026-05-02T09:15:09.994Z</time></trkpt><trkpt lat="43.7592861" lon="6.4421486"><ele>763.0</ele><time>2026-05-02T09:15:10.994Z</time></trkpt><trkpt lat="43.7593881" lon="6.4420989"><ele>763.0</ele><time>2026-05-02T09:15:11.994Z</time></trkpt><trkpt lat="43.7594887" lon="6.4420501"><ele>763.0</ele><time>2026-05-02T09:15:12.994Z</time></trkpt><trkpt lat="43.7595886" lon="6.4419907"><ele>763.0</ele><time>2026-05-02T09:15:13.993Z</time></trkpt><trkpt lat="43.75967" lon="6.4419123"><ele>764.4</ele><time>2026-05-02T09:15:14.994Z</time></trkpt><trkpt lat="43.7597602" lon="6.4418245"><ele>765.8</ele><time>2026-05-02T09:15:15.994Z</time></trkpt><trkpt lat="43.7598407" lon="6.4417421"><ele>767.2</ele><time>2026-05-02T09:15:16.994Z</time></trkpt><trkpt lat="43.759924" lon="6.4417098"><ele>768.6</ele><time>2026-05-02T09:15:17.993Z</time></trkpt><trkpt lat="43.7600267" lon="6.4416743"><ele>770.0</ele><time>2026-05-02T09:15:18.994Z</time></trkpt><trkpt lat="43.7601192" lon="6.4416629"><ele>774.0</ele><time>2026-05-02T09:15:19.994Z</time></trkpt><trkpt lat="43.7602492" lon="6.4417043"><ele>778.0</ele><time>2026-05-02T09:15:21.994Z</time></trkpt><trkpt lat="43.7603511" lon="6.4416266"><ele>782.0</ele><time>2026-05-02T09:15:23.993Z</time></trkpt><trkpt lat="43.7603775" lon="6.4414733"><ele>786.0</ele><time>2026-05-02T09:15:25.994Z</time></trkpt><trkpt lat="43.7603753" lon="6.4413493"><ele>785.4</ele><time>2026-05-02T09:15:26.994Z</time></trkpt><trkpt lat="43.7603874" lon="6.4412463"><ele>784.8</ele><time>2026-05-02T09:15:27.993Z</time></trkpt><trkpt lat="43.7603395" lon="6.4411042"><ele>784.1999999999999</ele><time>2026-05-02T09:15:29.993Z</time></trkpt><trkpt lat="43.7603011" lon="6.4409968"><ele>783.5999999999999</ele><time>2026-05-02T09:15:30.994Z</time></trkpt><trkpt lat="43.7601765" lon="6.4409549"><ele>783.0</ele><time>2026-05-02T09:15:31.994Z</time></trkpt><trkpt lat="43.7600847" lon="6.4409125"><ele>783.0</ele><time>2026-05-02T09:15:32.994Z</time></trkpt><trkpt lat="43.7599759" lon="6.440906"><ele>783.0</ele><time>2026-05-02T09:15:33.994Z</time></trkpt><trkpt lat="43.7598732" lon="6.4408839"><ele>783.0</ele><time>2026-05-02T09:15:34.994Z</time></trkpt><trkpt lat="43.7598086" lon="6.4407942"><ele>783.0</ele><time>2026-05-02T09:15:35.993Z</time></trkpt><trkpt lat="43.7597353" lon="6.4407254"><ele>783.0</ele><time>2026-05-02T09:15:36.994Z</time></trkpt><trkpt lat="43.7596706" lon="6.4406642"><ele>783.0</ele><time>2026-05-02T09:15:37.993Z</time></trkpt><trkpt lat="43.7595684" lon="6.4406529"><ele>783.0</ele><time>2026-05-02T09:15:38.994Z</time></trkpt><trkpt lat="43.759488" lon="6.4406102"><ele>783.0</ele><time>2026-05-02T09:15:39.994Z</time></trkpt><trkpt lat="43.7593532" lon="6.4406596"><ele>783.0</ele><time>2026-05-02T09:15:40.994Z</time></trkpt><trkpt lat="43.759234" lon="6.4407002"><ele>783.5</ele><time>2026-05-02T09:15:41.994Z</time></trkpt><trkpt lat="43.7591043" lon="6.4407611"><ele>784.0</ele><time>2026-05-02T09:15:42.994Z</time></trkpt><trkpt lat="43.7589802" lon="6.4407868"><ele>784.5</ele><time>2026-05-02T09:15:43.994Z</time></trkpt><trkpt lat="43.7588552" lon="6.4408072"><ele>785.0</ele><time>2026-05-02T09:15:44.993Z</time></trkpt><trkpt lat="43.7587305" lon="6.4408506"><ele>785.0</ele><time>2026-05-02T09:15:45.994Z</time></trkpt><trkpt lat="43.7586141" lon="6.4409"><ele>785.0</ele><time>2026-05-02T09:15:46.994Z</time></trkpt><trkpt lat="43.7584765" lon="6.440932"><ele>785.0</ele><time>2026-05-02T09:15:47.994Z</time></trkpt><trkpt lat="43.7583572" lon="6.4409721"><ele>785.0</ele><time>2026-05-02T09:15:48.994Z</time></trkpt><trkpt lat="43.7582396" lon="6.4409722"><ele>788.25</ele><time>2026-05-02T09:15:49.994Z</time></trkpt><trkpt lat="43.7581005" lon="6.4409546"><ele>791.5</ele><time>2026-05-02T09:15:50.993Z</time></trkpt><trkpt lat="43.75798" lon="6.4410196"><ele>794.75</ele><time>2026-05-02T09:15:51.994Z</time></trkpt><trkpt lat="43.7578637" lon="6.4410282"><ele>798.0</ele><time>2026-05-02T09:15:52.994Z</time></trkpt><trkpt lat="43.7577534" lon="6.4410514"><ele>799.4</ele><time>2026-05-02T09:15:53.994Z</time></trkpt><trkpt lat="43.7576605" lon="6.4410721"><ele>800.8</ele><time>2026-05-02T09:15:54.994Z</time></trkpt><trkpt lat="43.757553" lon="6.4410523"><ele>802.2</ele><time>2026-05-02T09:15:55.994Z</time></trkpt><trkpt lat="43.7574562" lon="6.4410046"><ele>803.6</ele><time>2026-05-02T09:15:56.994Z</time></trkpt><trkpt lat="43.7573808" lon="6.4409234"><ele>805.0</ele><time>2026-05-02T09:15:57.994Z</time></trkpt><trkpt lat="43.7573169" lon="6.4408154"><ele>805.0</ele><time>2026-05-02T09:15:58.994Z</time></trkpt><trkpt lat="43.7572811" lon="6.4406656"><ele>805.0</ele><time>2026-05-02T09:15:59.994Z</time></trkpt><trkpt lat="43.7572502" lon="6.440508"><ele>805.0</ele><time>2026-05-02T09:16:00.994Z</time></trkpt><trkpt lat="43.7572217" lon="6.4403431"><ele>805.0</ele><time>2026-05-02T09:16:01.994Z</time></trkpt><trkpt lat="43.7571864" lon="6.4401803"><ele>806.5</ele><time>2026-05-02T09:16:02.993Z</time></trkpt><trkpt lat="43.7571453" lon="6.4400218"><ele>808.0</ele><time>2026-05-02T09:16:03.994Z</time></trkpt><trkpt lat="43.7570919" lon="6.4398713"><ele>809.5</ele><time>2026-05-02T09:16:04.994Z</time></trkpt><trkpt lat="43.7570374" lon="6.4397342"><ele>811.0</ele><time>2026-05-02T09:16:05.994Z</time></trkpt><trkpt lat="43.7569799" lon="6.4395675"><ele>809.75</ele><time>2026-05-02T09:16:06.994Z</time></trkpt><trkpt lat="43.7569169" lon="6.439415"><ele>808.5</ele><time>2026-05-02T09:16:07.994Z</time></trkpt><trkpt lat="43.7568554" lon="6.4392641"><ele>807.25</ele><time>2026-05-02T09:16:08.994Z</time></trkpt><trkpt lat="43.7568139" lon="6.4391204"><ele>806.0</ele><time>2026-05-02T09:16:09.994Z</time></trkpt><trkpt lat="43.7567603" lon="6.4389707"><ele>806.0</ele><time>2026-05-02T09:16:10.994Z</time></trkpt><trkpt lat="43.7566644" lon="6.4388292"><ele>806.0</ele><time>2026-05-02T09:16:11.994Z</time></trkpt><trkpt lat="43.7565999" lon="6.4386996"><ele>806.0</ele><time>2026-05-02T09:16:12.994Z</time></trkpt><trkpt lat="43.7565526" lon="6.4385717"><ele>806.0</ele><time>2026-05-02T09:16:13.994Z</time></trkpt><trkpt lat="43.7564746" lon="6.4384525"><ele>806.5</ele><time>2026-05-02T09:16:14.994Z</time></trkpt><trkpt lat="43.7563962" lon="6.4383454"><ele>807.0</ele><time>2026-05-02T09:16:15.994Z</time></trkpt><trkpt lat="43.7563419" lon="6.4382394"><ele>807.5</ele><time>2026-05-02T09:16:16.994Z</time></trkpt><trkpt lat="43.7563051" lon="6.438071"><ele>808.0</ele><time>2026-05-02T09:16:17.993Z</time></trkpt><trkpt lat="43.7562636" lon="6.4379119"><ele>808.5999999999999</ele><time>2026-05-02T09:16:18.994Z</time></trkpt><trkpt lat="43.7562286" lon="6.4377548"><ele>809.1999999999999</ele><time>2026-05-02T09:16:19.993Z</time></trkpt><trkpt lat="43.7562035" lon="6.4375999"><ele>809.8</ele><time>2026-05-02T09:16:20.994Z</time></trkpt><trkpt lat="43.7561924" lon="6.4374727"><ele>810.4</ele><time>2026-05-02T09:16:21.994Z</time></trkpt><trkpt lat="43.7561817" lon="6.4373648"><ele>811.0</ele><time>2026-05-02T09:16:22.994Z</time></trkpt><trkpt lat="43.7561637" lon="6.4372601"><ele>810.9999999999999</ele><time>2026-05-02T09:16:23.994Z</time></trkpt><trkpt lat="43.756126" lon="6.4371742"><ele>811.0</ele><time>2026-05-02T09:16:24.993Z</time></trkpt><trkpt lat="43.7560746" lon="6.4371124"><ele>811.0</ele><time>2026-05-02T09:16:25.994Z</time></trkpt><trkpt lat="43.7559999" lon="6.4371069"><ele>811.0</ele><time>2026-05-02T09:16:26.994Z</time></trkpt><trkpt lat="43.7559239" lon="6.4371107"><ele>810.9999999999999</ele><time>2026-05-02T09:16:27.993Z</time></trkpt><trkpt lat="43.7558513" lon="6.4372305"><ele>811.0</ele><time>2026-05-02T09:16:28.994Z</time></trkpt><trkpt lat="43.7557799" lon="6.4372995"><ele>804.0</ele><time>2026-05-02T09:16:29.994Z</time></trkpt><trkpt lat="43.7556917" lon="6.4373963"><ele>797.0</ele><time>2026-05-02T09:16:30.993Z</time></trkpt><trkpt lat="43.7556188" lon="6.4375302"><ele>790.0</ele><time>2026-05-02T09:16:31.993Z</time></trkpt><trkpt lat="43.7555463" lon="6.4376557"><ele>783.0</ele><time>2026-05-02T09:16:32.993Z</time></trkpt><trkpt lat="43.7556018" lon="6.4379055"><ele>783.0</ele><time>2026-05-02T09:16:33.994Z</time></trkpt><trkpt lat="43.7556175" lon="6.43811"><ele>783.0</ele><time>2026-05-02T09:16:34.994Z</time></trkpt><trkpt lat="43.7556248" lon="6.4383075"><ele>783.0</ele><time>2026-05-02T09:16:35.993Z</time></trkpt><trkpt lat="43.7555925" lon="6.4384777"><ele>783.0</ele><time>2026-05-02T09:16:36.994Z</time></trkpt><trkpt lat="43.7555452" lon="6.4386502"><ele>783.0</ele><time>2026-05-02T09:16:37.994Z</time></trkpt><trkpt lat="43.7554608" lon="6.4387905"><ele>783.0</ele><time>2026-05-02T09:16:38.994Z</time></trkpt><trkpt lat="43.7553697" lon="6.4389172"><ele>783.0</ele><time>2026-05-02T09:16:39.994Z</time></trkpt><trkpt lat="43.7552702" lon="6.4390338"><ele>783.0</ele><time>2026-05-02T09:16:40.994Z</time></trkpt><trkpt lat="43.7551641" lon="6.4391552"><ele>781.75</ele><time>2026-05-02T09:16:41.994Z</time></trkpt><trkpt lat="43.7550643" lon="6.4392837"><ele>780.5</ele><time>2026-05-02T09:16:42.994Z</time></trkpt><trkpt lat="43.7549613" lon="6.439409"><ele>779.25</ele><time>2026-05-02T09:16:43.994Z</time></trkpt><trkpt lat="43.754861" lon="6.4395321"><ele>778.0</ele><time>2026-05-02T09:16:44.994Z</time></trkpt><trkpt lat="43.7547594" lon="6.439647"><ele>776.0</ele><time>2026-05-02T09:16:45.994Z</time></trkpt><trkpt lat="43.7546604" lon="6.4397784"><ele>774.0</ele><time>2026-05-02T09:16:46.994Z</time></trkpt><trkpt lat="43.7545571" lon="6.4399044"><ele>772.0</ele><time>2026-05-02T09:16:47.993Z</time></trkpt><trkpt lat="43.7544584" lon="6.4400095"><ele>770.0</ele><time>2026-05-02T09:16:48.994Z</time></trkpt><trkpt lat="43.7543453" lon="6.4400899"><ele>770.0</ele><time>2026-05-02T09:16:49.994Z</time></trkpt><trkpt lat="43.7542365" lon="6.4401586"><ele>770.0</ele><time>2026-05-02T09:16:50.993Z</time></trkpt><trkpt lat="43.7541312" lon="6.4401895"><ele>770.0</ele><time>2026-05-02T09:16:51.993Z</time></trkpt><trkpt lat="43.7540327" lon="6.4401841"><ele>770.0</ele><time>2026-05-02T09:16:52.994Z</time></trkpt><trkpt lat="43.7538723" lon="6.4402164"><ele>770.0</ele><time>2026-05-02T09:16:53.994Z</time></trkpt><trkpt lat="43.7537844" lon="6.4402389"><ele>770.0</ele><time>2026-05-02T09:16:54.994Z</time></trkpt><trkpt lat="43.7536815" lon="6.4401787"><ele>770.0</ele><time>2026-05-02T09:16:55.994Z</time></trkpt><trkpt lat="43.7535869" lon="6.4400866"><ele>770.0</ele><time>2026-05-02T09:16:56.994Z</time></trkpt><trkpt lat="43.753473" lon="6.4399984"><ele>770.0</ele><time>2026-05-02T09:16:57.994Z</time></trkpt><trkpt lat="43.7534115" lon="6.4398673"><ele>770.25</ele><time>2026-05-02T09:16:58.993Z</time></trkpt><trkpt lat="43.7533578" lon="6.4397476"><ele>770.5</ele><time>2026-05-02T09:16:59.994Z</time></trkpt><trkpt lat="43.7533382" lon="6.439534"><ele>770.75</ele><time>2026-05-02T09:17:00.994Z</time></trkpt><trkpt lat="43.7532984" lon="6.4393669"><ele>771.0</ele><time>2026-05-02T09:17:01.994Z</time></trkpt><trkpt lat="43.7532688" lon="6.43922"><ele>771.0</ele><time>2026-05-02T09:17:02.993Z</time></trkpt><trkpt lat="43.7532414" lon="6.4390669"><ele>771.0</ele><time>2026-05-02T09:17:03.994Z</time></trkpt><trkpt lat="43.7532045" lon="6.4389274"><ele>771.0</ele><time>2026-05-02T09:17:04.994Z</time></trkpt><trkpt lat="43.7530925" lon="6.4387755"><ele>771.0</ele><time>2026-05-02T09:17:05.994Z</time></trkpt><trkpt lat="43.752996" lon="6.4386524"><ele>771.0</ele><time>2026-05-02T09:17:06.994Z</time></trkpt><trkpt lat="43.7528891" lon="6.4385321"><ele>771.0</ele><time>2026-05-02T09:17:07.993Z</time></trkpt><trkpt lat="43.7527754" lon="6.4384055"><ele>771.0</ele><time>2026-05-02T09:17:08.994Z</time></trkpt><trkpt lat="43.75265" lon="6.4382678"><ele>771.0</ele><time>2026-05-02T09:17:09.993Z</time></trkpt><trkpt lat="43.7525302" lon="6.4381501"><ele>772.0</ele><time>2026-05-02T09:17:10.994Z</time></trkpt><trkpt lat="43.7524035" lon="6.43803"><ele>773.0</ele><time>2026-05-02T09:17:11.994Z</time></trkpt><trkpt lat="43.7522754" lon="6.4379394"><ele>774.0</ele><time>2026-05-02T09:17:12.993Z</time></trkpt><trkpt lat="43.7521504" lon="6.4378075"><ele>774.6666666666667</ele><time>2026-05-02T09:17:13.994Z</time></trkpt><trkpt lat="43.7519962" lon="6.4376953"><ele>775.3333333333334</ele><time>2026-05-02T09:17:14.997Z</time></trkpt><trkpt lat="43.7518701" lon="6.4375644"><ele>776.0</ele><time>2026-05-02T09:17:15.992Z</time></trkpt><trkpt lat="43.75174" lon="6.4374509"><ele>778.0</ele><time>2026-05-02T09:17:16.991Z</time></trkpt><trkpt lat="43.7516248" lon="6.4373262"><ele>780.0</ele><time>2026-05-02T09:17:17.993Z</time></trkpt><trkpt lat="43.7515163" lon="6.4371984"><ele>782.0</ele><time>2026-05-02T09:17:18.993Z</time></trkpt><trkpt lat="43.7514009" lon="6.4371023"><ele>784.0</ele><time>2026-05-02T09:17:19.992Z</time></trkpt><trkpt lat="43.7512833" lon="6.436962"><ele>785.4000000000001</ele><time>2026-05-02T09:17:20.992Z</time></trkpt><trkpt lat="43.7511708" lon="6.4368749"><ele>786.8</ele><time>2026-05-02T09:17:21.992Z</time></trkpt><trkpt lat="43.7510769" lon="6.4367755"><ele>788.2</ele><time>2026-05-02T09:17:22.991Z</time></trkpt><trkpt lat="43.7510031" lon="6.4367121"><ele>789.5999999999999</ele><time>2026-05-02T09:17:23.991Z</time></trkpt><trkpt lat="43.7509017" lon="6.4366755"><ele>791.0</ele><time>2026-05-02T09:17:24.992Z</time></trkpt><trkpt lat="43.7508246" lon="6.4366179"><ele>791.8333333333334</ele><time>2026-05-02T09:17:25.992Z</time></trkpt><trkpt lat="43.7507472" lon="6.4365595"><ele>792.6666666666667</ele><time>2026-05-02T09:17:26.992Z</time></trkpt><trkpt lat="43.7507394" lon="6.4364608"><ele>793.5</ele><time>2026-05-02T09:17:27.992Z</time></trkpt><trkpt lat="43.7507457" lon="6.4363607"><ele>794.3333333333333</ele><time>2026-05-02T09:17:28.992Z</time></trkpt><trkpt lat="43.7507712" lon="6.4362486"><ele>795.1666666666666</ele><time>2026-05-02T09:17:29.992Z</time></trkpt><trkpt lat="43.7508077" lon="6.4361236"><ele>796.0</ele><time>2026-05-02T09:17:30.992Z</time></trkpt><trkpt lat="43.7508349" lon="6.4359854"><ele>796.75</ele><time>2026-05-02T09:17:31.992Z</time></trkpt><trkpt lat="43.7508539" lon="6.435839"><ele>797.5</ele><time>2026-05-02T09:17:32.991Z</time></trkpt><trkpt lat="43.7508427" lon="6.435682"><ele>798.25</ele><time>2026-05-02T09:17:33.991Z</time></trkpt><trkpt lat="43.7508228" lon="6.4355632"><ele>799.0</ele><time>2026-05-02T09:17:34.992Z</time></trkpt><trkpt lat="43.7506913" lon="6.4354529"><ele>799.0</ele><time>2026-05-02T09:17:36.992Z</time></trkpt><trkpt lat="43.7506089" lon="6.435446"><ele>799.0</ele><time>2026-05-02T09:17:37.992Z</time></trkpt><trkpt lat="43.7505329" lon="6.4354283"><ele>799.0</ele><time>2026-05-02T09:17:38.992Z</time></trkpt><trkpt lat="43.7504121" lon="6.435467"><ele>799.0</ele><time>2026-05-02T09:17:39.991Z</time></trkpt><trkpt lat="43.7502835" lon="6.4355223"><ele>799.0</ele><time>2026-05-02T09:17:40.992Z</time></trkpt><trkpt lat="43.7501561" lon="6.4355756"><ele>802.25</ele><time>2026-05-02T09:17:41.992Z</time></trkpt><trkpt lat="43.7500368" lon="6.4356436"><ele>805.5</ele><time>2026-05-02T09:17:42.992Z</time></trkpt><trkpt lat="43.7499197" lon="6.4357432"><ele>808.75</ele><time>2026-05-02T09:17:43.991Z</time></trkpt><trkpt lat="43.7497851" lon="6.4358368"><ele>812.0</ele><time>2026-05-02T09:17:44.991Z</time></trkpt><trkpt lat="43.7496533" lon="6.4359069"><ele>812.0</ele><time>2026-05-02T09:17:45.991Z</time></trkpt><trkpt lat="43.7495424" lon="6.4360493"><ele>812.0</ele><time>2026-05-02T09:17:46.992Z</time></trkpt><trkpt lat="43.7494195" lon="6.4361626"><ele>812.0</ele><time>2026-05-02T09:17:47.992Z</time></trkpt><trkpt lat="43.7493027" lon="6.4362709"><ele>812.0</ele><time>2026-05-02T09:17:48.992Z</time></trkpt><trkpt lat="43.749185" lon="6.4363669"><ele>814.0</ele><time>2026-05-02T09:17:49.992Z</time></trkpt><trkpt lat="43.7490894" lon="6.4365228"><ele>816.0</ele><time>2026-05-02T09:17:50.992Z</time></trkpt><trkpt lat="43.7490043" lon="6.4366703"><ele>818.0</ele><time>2026-05-02T09:17:51.991Z</time></trkpt><trkpt lat="43.7489339" lon="6.4368078"><ele>820.0</ele><time>2026-05-02T09:17:52.992Z</time></trkpt><trkpt lat="43.7488667" lon="6.4369581"><ele>819.9999999999999</ele><time>2026-05-02T09:17:53.991Z</time></trkpt><trkpt lat="43.7488414" lon="6.4370835"><ele>820.0</ele><time>2026-05-02T09:17:54.992Z</time></trkpt><trkpt lat="43.7488117" lon="6.4372082"><ele>820.0</ele><time>2026-05-02T09:17:55.992Z</time></trkpt><trkpt lat="43.7487912" lon="6.4373138"><ele>820.0</ele><time>2026-05-02T09:17:56.992Z</time></trkpt><trkpt lat="43.7487589" lon="6.4373913"><ele>819.9999999999999</ele><time>2026-05-02T09:17:57.992Z</time></trkpt><trkpt lat="43.7486605" lon="6.4374522"><ele>820.0</ele><time>2026-05-02T09:17:59.992Z</time></trkpt><trkpt lat="43.7486144" lon="6.4373759"><ele>820.0</ele><time>2026-05-02T09:18:00.992Z</time></trkpt><trkpt lat="43.7485947" lon="6.4372861"><ele>820.0</ele><time>2026-05-02T09:18:01.992Z</time></trkpt><trkpt lat="43.7485886" lon="6.4371986"><ele>820.0</ele><time>2026-05-02T09:18:02.992Z</time></trkpt><trkpt lat="43.7486017" lon="6.4370807"><ele>820.0</ele><time>2026-05-02T09:18:03.992Z</time></trkpt><trkpt lat="43.7486235" lon="6.4368987"><ele>820.0</ele><time>2026-05-02T09:18:04.992Z</time></trkpt><trkpt lat="43.7486294" lon="6.4367399"><ele>820.0</ele><time>2026-05-02T09:18:05.992Z</time></trkpt><trkpt lat="43.7486111" lon="6.4365915"><ele>820.0</ele><time>2026-05-02T09:18:06.992Z</time></trkpt><trkpt lat="43.7485735" lon="6.4364169"><ele>820.0</ele><time>2026-05-02T09:18:07.991Z</time></trkpt><trkpt lat="43.7485303" lon="6.4362232"><ele>820.0</ele><time>2026-05-02T09:18:08.991Z</time></trkpt><trkpt lat="43.748511" lon="6.4360175"><ele>824.6666666666666</ele><time>2026-05-02T09:18:09.992Z</time></trkpt><trkpt lat="43.7484909" lon="6.4358021"><ele>829.3333333333333</ele><time>2026-05-02T09:18:10.992Z</time></trkpt><trkpt lat="43.7485006" lon="6.4356003"><ele>834.0</ele><time>2026-05-02T09:18:11.991Z</time></trkpt><trkpt lat="43.7485187" lon="6.4353901"><ele>832.75</ele><time>2026-05-02T09:18:12.992Z</time></trkpt><trkpt lat="43.7485297" lon="6.435194"><ele>831.5</ele><time>2026-05-02T09:18:13.992Z</time></trkpt><trkpt lat="43.7485493" lon="6.434984"><ele>830.25</ele><time>2026-05-02T09:18:14.992Z</time></trkpt><trkpt lat="43.748609" lon="6.4348393"><ele>829.0</ele><time>2026-05-02T09:18:15.992Z</time></trkpt><trkpt lat="43.7486573" lon="6.4346682"><ele>829.8000000000001</ele><time>2026-05-02T09:18:16.992Z</time></trkpt><trkpt lat="43.748701" lon="6.4345405"><ele>830.6</ele><time>2026-05-02T09:18:17.992Z</time></trkpt><trkpt lat="43.7487071" lon="6.4344106"><ele>831.4</ele><time>2026-05-02T09:18:18.992Z</time></trkpt><trkpt lat="43.7487057" lon="6.4342692"><ele>832.2</ele><time>2026-05-02T09:18:19.992Z</time></trkpt><trkpt lat="43.7486882" lon="6.4341391"><ele>833.0</ele><time>2026-05-02T09:18:20.991Z</time></trkpt><trkpt lat="43.7486171" lon="6.4340989"><ele>833.0</ele><time>2026-05-02T09:18:21.991Z</time></trkpt><trkpt lat="43.7485599" lon="6.4340155"><ele>833.0</ele><time>2026-05-02T09:18:22.992Z</time></trkpt><trkpt lat="43.7484784" lon="6.4339892"><ele>833.0</ele><time>2026-05-02T09:18:23.992Z</time></trkpt><trkpt lat="43.7483867" lon="6.4339523"><ele>833.0</ele><time>2026-05-02T09:18:24.992Z</time></trkpt><trkpt lat="43.7482667" lon="6.4340066"><ele>833.0</ele><time>2026-05-02T09:18:25.991Z</time></trkpt><trkpt lat="43.7481411" lon="6.4341651"><ele>836.6666666666667</ele><time>2026-05-02T09:18:26.992Z</time></trkpt><trkpt lat="43.7480466" lon="6.4342894"><ele>840.3333333333333</ele><time>2026-05-02T09:18:27.992Z</time></trkpt><trkpt lat="43.7479266" lon="6.4344537"><ele>844.0</ele><time>2026-05-02T09:18:28.992Z</time></trkpt><trkpt lat="43.7478156" lon="6.4346083"><ele>843.0</ele><time>2026-05-02T09:18:29.992Z</time></trkpt><trkpt lat="43.7477134" lon="6.4347525"><ele>842.0</ele><time>2026-05-02T09:18:30.992Z</time></trkpt><trkpt lat="43.7476174" lon="6.4349186"><ele>841.0</ele><time>2026-05-02T09:18:31.992Z</time></trkpt><trkpt lat="43.7475032" lon="6.4350647"><ele>843.0</ele><time>2026-05-02T09:18:32.991Z</time></trkpt><trkpt lat="43.7474022" lon="6.4352112"><ele>845.0</ele><time>2026-05-02T09:18:33.991Z</time></trkpt><trkpt lat="43.7472934" lon="6.4353318"><ele>847.0</ele><time>2026-05-02T09:18:34.992Z</time></trkpt><trkpt lat="43.7471948" lon="6.4354564"><ele>849.0</ele><time>2026-05-02T09:18:35.992Z</time></trkpt><trkpt lat="43.74711" lon="6.4355683"><ele>849.0</ele><time>2026-05-02T09:18:36.991Z</time></trkpt><trkpt lat="43.7470176" lon="6.4356741"><ele>849.0</ele><time>2026-05-02T09:18:37.992Z</time></trkpt><trkpt lat="43.7469581" lon="6.4357583"><ele>849.0</ele><time>2026-05-02T09:18:38.991Z</time></trkpt><trkpt lat="43.7468796" lon="6.4358479"><ele>849.0</ele><time>2026-05-02T09:18:39.992Z</time></trkpt><trkpt lat="43.7468154" lon="6.4359242"><ele>849.0</ele><time>2026-05-02T09:18:40.992Z</time></trkpt><trkpt lat="43.7466798" lon="6.4359345"><ele>851.6</ele><time>2026-05-02T09:18:42.992Z</time></trkpt><trkpt lat="43.7466242" lon="6.4358221"><ele>854.2</ele><time>2026-05-02T09:18:43.992Z</time></trkpt><trkpt lat="43.7465912" lon="6.4357111"><ele>856.8000000000001</ele><time>2026-05-02T09:18:44.992Z</time></trkpt><trkpt lat="43.7465864" lon="6.4355871"><ele>859.4000000000001</ele><time>2026-05-02T09:18:45.992Z</time></trkpt><trkpt lat="43.7466086" lon="6.4354802"><ele>862.0</ele><time>2026-05-02T09:18:46.992Z</time></trkpt><trkpt lat="43.7466614" lon="6.4353477"><ele>862.8</ele><time>2026-05-02T09:18:47.992Z</time></trkpt><trkpt lat="43.7466963" lon="6.4351988"><ele>863.6</ele><time>2026-05-02T09:18:48.992Z</time></trkpt><trkpt lat="43.746711" lon="6.4350599"><ele>864.3999999999999</ele><time>2026-05-02T09:18:49.992Z</time></trkpt><trkpt lat="43.7467054" lon="6.4349509"><ele>865.1999999999999</ele><time>2026-05-02T09:18:50.992Z</time></trkpt><trkpt lat="43.7466862" lon="6.4348346"><ele>866.0</ele><time>2026-05-02T09:18:51.992Z</time></trkpt><trkpt lat="43.7466653" lon="6.4347325"><ele>866.0</ele><time>2026-05-02T09:18:52.992Z</time></trkpt><trkpt lat="43.7466083" lon="6.4346451"><ele>865.9999999999999</ele><time>2026-05-02T09:18:53.991Z</time></trkpt><trkpt lat="43.7465503" lon="6.4345566"><ele>865.9999999999999</ele><time>2026-05-02T09:18:54.992Z</time></trkpt><trkpt lat="43.7464645" lon="6.4345213"><ele>866.0</ele><time>2026-05-02T09:18:55.992Z</time></trkpt><trkpt lat="43.7463452" lon="6.4344555"><ele>866.0</ele><time>2026-05-02T09:18:56.991Z</time></trkpt><trkpt lat="43.746228" lon="6.434465"><ele>865.75</ele><time>2026-05-02T09:18:57.992Z</time></trkpt><trkpt lat="43.7460933" lon="6.4345435"><ele>865.5</ele><time>2026-05-02T09:18:58.992Z</time></trkpt><trkpt lat="43.7459728" lon="6.4345959"><ele>865.25</ele><time>2026-05-02T09:18:59.992Z</time></trkpt><trkpt lat="43.7458545" lon="6.4346787"><ele>865.0</ele><time>2026-05-02T09:19:00.992Z</time></trkpt><trkpt lat="43.7457788" lon="6.434828"><ele>867.75</ele><time>2026-05-02T09:19:01.992Z</time></trkpt><trkpt lat="43.7457259" lon="6.434984"><ele>870.5</ele><time>2026-05-02T09:19:02.992Z</time></trkpt><trkpt lat="43.7457063" lon="6.4352027"><ele>873.25</ele><time>2026-05-02T09:19:03.992Z</time></trkpt><trkpt lat="43.7456883" lon="6.4354185"><ele>876.0</ele><time>2026-05-02T09:19:04.992Z</time></trkpt><trkpt lat="43.7456411" lon="6.4355747"><ele>876.25</ele><time>2026-05-02T09:19:05.992Z</time></trkpt><trkpt lat="43.7455893" lon="6.4357387"><ele>876.5</ele><time>2026-05-02T09:19:06.992Z</time></trkpt><trkpt lat="43.7455139" lon="6.4358652"><ele>876.75</ele><time>2026-05-02T09:19:07.992Z</time></trkpt><trkpt lat="43.7453992" lon="6.435947"><ele>877.0</ele><time>2026-05-02T09:19:08.992Z</time></trkpt><trkpt lat="43.745294" lon="6.4360335"><ele>878.75</ele><time>2026-05-02T09:19:09.991Z</time></trkpt><trkpt lat="43.7451847" lon="6.4361274"><ele>880.5</ele><time>2026-05-02T09:19:10.992Z</time></trkpt><trkpt lat="43.7450665" lon="6.4362254"><ele>882.25</ele><time>2026-05-02T09:19:11.992Z</time></trkpt><trkpt lat="43.7449399" lon="6.4363386"><ele>884.0</ele><time>2026-05-02T09:19:12.992Z</time></trkpt><trkpt lat="43.7448093" lon="6.4364161"><ele>884.75</ele><time>2026-05-02T09:19:13.992Z</time></trkpt><trkpt lat="43.7446851" lon="6.4364835"><ele>885.5</ele><time>2026-05-02T09:19:14.992Z</time></trkpt><trkpt lat="43.7445633" lon="6.436526"><ele>886.25</ele><time>2026-05-02T09:19:15.992Z</time></trkpt><trkpt lat="43.7444285" lon="6.4365675"><ele>887.0</ele><time>2026-05-02T09:19:16.992Z</time></trkpt><trkpt lat="43.7443008" lon="6.4366049"><ele>889.3333333333334</ele><time>2026-05-02T09:19:17.991Z</time></trkpt><trkpt lat="43.7441625" lon="6.4366413"><ele>891.6666666666667</ele><time>2026-05-02T09:19:18.992Z</time></trkpt><trkpt lat="43.7440089" lon="6.4366708"><ele>894.0</ele><time>2026-05-02T09:19:19.992Z</time></trkpt><trkpt lat="43.7438412" lon="6.4366829"><ele>894.0</ele><time>2026-05-02T09:19:20.992Z</time></trkpt><trkpt lat="43.7436821" lon="6.4366876"><ele>894.0</ele><time>2026-05-02T09:19:21.991Z</time></trkpt><trkpt lat="43.7435252" lon="6.4366452"><ele>894.0</ele><time>2026-05-02T09:19:22.992Z</time></trkpt><trkpt lat="43.7433587" lon="6.4366164"><ele>897.0</ele><time>2026-05-02T09:19:23.992Z</time></trkpt><trkpt lat="43.7431977" lon="6.4365821"><ele>900.0</ele><time>2026-05-02T09:19:24.992Z</time></trkpt><trkpt lat="43.7430161" lon="6.4365363"><ele>903.0</ele><time>2026-05-02T09:19:25.992Z</time></trkpt><trkpt lat="43.7428501" lon="6.436489"><ele>906.6666666666667</ele><time>2026-05-02T09:19:26.992Z</time></trkpt><trkpt lat="43.7426973" lon="6.4364853"><ele>910.3333333333334</ele><time>2026-05-02T09:19:27.992Z</time></trkpt><trkpt lat="43.7425296" lon="6.4364686"><ele>914.0</ele><time>2026-05-02T09:19:28.991Z</time></trkpt><trkpt lat="43.7423566" lon="6.4364967"><ele>914.0</ele><time>2026-05-02T09:19:29.992Z</time></trkpt><trkpt lat="43.7422085" lon="6.4365912"><ele>914.0</ele><time>2026-05-02T09:19:30.992Z</time></trkpt><trkpt lat="43.7420066" lon="6.4366617"><ele>914.0</ele><time>2026-05-02T09:19:31.992Z</time></trkpt><trkpt lat="43.7418264" lon="6.4367151"><ele>916.3333333333334</ele><time>2026-05-02T09:19:32.992Z</time></trkpt><trkpt lat="43.7416473" lon="6.4367674"><ele>918.6666666666667</ele><time>2026-05-02T09:19:33.992Z</time></trkpt><trkpt lat="43.7414716" lon="6.4367354"><ele>921.0</ele><time>2026-05-02T09:19:34.992Z</time></trkpt><trkpt lat="43.7412931" lon="6.4367231"><ele>921.0</ele><time>2026-05-02T09:19:35.992Z</time></trkpt><trkpt lat="43.7411139" lon="6.4366928"><ele>921.0</ele><time>2026-05-02T09:19:36.992Z</time></trkpt><trkpt lat="43.7409143" lon="6.4366517"><ele>921.0</ele><time>2026-05-02T09:19:37.992Z</time></trkpt><trkpt lat="43.7407384" lon="6.4366107"><ele>924.0</ele><time>2026-05-02T09:19:38.992Z</time></trkpt><trkpt lat="43.7405662" lon="6.4365632"><ele>927.0</ele><time>2026-05-02T09:19:39.992Z</time></trkpt><trkpt lat="43.7403934" lon="6.4365037"><ele>930.0</ele><time>2026-05-02T09:19:40.992Z</time></trkpt><trkpt lat="43.7402276" lon="6.4364302"><ele>932.3333333333333</ele><time>2026-05-02T09:19:41.992Z</time></trkpt><trkpt lat="43.7400582" lon="6.4363654"><ele>934.6666666666666</ele><time>2026-05-02T09:19:42.992Z</time></trkpt><trkpt lat="43.739881" lon="6.4363078"><ele>937.0</ele><time>2026-05-02T09:19:43.992Z</time></trkpt><trkpt lat="43.7397112" lon="6.4362504"><ele>938.3333333333333</ele><time>2026-05-02T09:19:44.992Z</time></trkpt><trkpt lat="43.7395522" lon="6.4361778"><ele>939.6666666666667</ele><time>2026-05-02T09:19:45.992Z</time></trkpt><trkpt lat="43.7393707" lon="6.4360808"><ele>941.0</ele><time>2026-05-02T09:19:46.992Z</time></trkpt><trkpt lat="43.7392145" lon="6.4359852"><ele>943.0</ele><time>2026-05-02T09:19:47.992Z</time></trkpt><trkpt lat="43.7390499" lon="6.4358879"><ele>945.0</ele><time>2026-05-02T09:19:48.992Z</time></trkpt><trkpt lat="43.7388905" lon="6.4357501"><ele>947.0</ele><time>2026-05-02T09:19:49.992Z</time></trkpt><trkpt lat="43.7387233" lon="6.4356147"><ele>947.0</ele><time>2026-05-02T09:19:50.992Z</time></trkpt><trkpt lat="43.7385704" lon="6.4354718"><ele>947.0</ele><time>2026-05-02T09:19:51.992Z</time></trkpt><trkpt lat="43.7384225" lon="6.4353295"><ele>947.0</ele><time>2026-05-02T09:19:52.992Z</time></trkpt><trkpt lat="43.7382732" lon="6.4351744"><ele>951.3333333333334</ele><time>2026-05-02T09:19:53.991Z</time></trkpt><trkpt lat="43.7381255" lon="6.435029"><ele>955.6666666666667</ele><time>2026-05-02T09:19:54.992Z</time></trkpt><trkpt lat="43.7379659" lon="6.4348847"><ele>960.0</ele><time>2026-05-02T09:19:55.992Z</time></trkpt><trkpt lat="43.7378177" lon="6.4347382"><ele>963.0</ele><time>2026-05-02T09:19:56.992Z</time></trkpt><trkpt lat="43.7376696" lon="6.4346026"><ele>966.0</ele><time>2026-05-02T09:19:57.992Z</time></trkpt><trkpt lat="43.7375255" lon="6.4344689"><ele>969.0</ele><time>2026-05-02T09:19:58.992Z</time></trkpt><trkpt lat="43.7373936" lon="6.4343351"><ele>969.0</ele><time>2026-05-02T09:19:59.992Z</time></trkpt><trkpt lat="43.7372623" lon="6.4342123"><ele>969.0</ele><time>2026-05-02T09:20:00.992Z</time></trkpt><trkpt lat="43.7371402" lon="6.4340882"><ele>969.0</ele><time>2026-05-02T09:20:01.992Z</time></trkpt><trkpt lat="43.7370297" lon="6.4339808"><ele>969.0</ele><time>2026-05-02T09:20:02.992Z</time></trkpt><trkpt lat="43.736955" lon="6.4338694"><ele>970.6</ele><time>2026-05-02T09:20:03.992Z</time></trkpt><trkpt lat="43.7368634" lon="6.4337755"><ele>972.2</ele><time>2026-05-02T09:20:04.992Z</time></trkpt><trkpt lat="43.7367801" lon="6.4336867"><ele>973.8000000000001</ele><time>2026-05-02T09:20:05.992Z</time></trkpt><trkpt lat="43.7367029" lon="6.4336085"><ele>975.4000000000001</ele><time>2026-05-02T09:20:06.992Z</time></trkpt><trkpt lat="43.7366337" lon="6.4335258"><ele>977.0</ele><time>2026-05-02T09:20:07.992Z</time></trkpt><trkpt lat="43.7365697" lon="6.4334538"><ele>977.0</ele><time>2026-05-02T09:20:08.992Z</time></trkpt><trkpt lat="43.7365203" lon="6.4333674"><ele>977.0</ele><time>2026-05-02T09:20:09.991Z</time></trkpt><trkpt lat="43.736473" lon="6.4332512"><ele>977.0</ele><time>2026-05-02T09:20:10.992Z</time></trkpt><trkpt lat="43.7364875" lon="6.4331118"><ele>977.0</ele><time>2026-05-02T09:20:11.992Z</time></trkpt><trkpt lat="43.7365074" lon="6.4330009"><ele>977.0</ele><time>2026-05-02T09:20:12.992Z</time></trkpt><trkpt lat="43.736544" lon="6.4328656"><ele>976.6666666666667</ele><time>2026-05-02T09:20:13.992Z</time></trkpt><trkpt lat="43.7366174" lon="6.4326542"><ele>976.3333333333333</ele><time>2026-05-02T09:20:14.992Z</time></trkpt><trkpt lat="43.7366934" lon="6.4325005"><ele>976.0</ele><time>2026-05-02T09:20:15.992Z</time></trkpt><trkpt lat="43.7367837" lon="6.4323261"><ele>976.0</ele><time>2026-05-02T09:20:16.992Z</time></trkpt><trkpt lat="43.7368996" lon="6.4321595"><ele>976.0</ele><time>2026-05-02T09:20:17.992Z</time></trkpt><trkpt lat="43.7370322" lon="6.4320131"><ele>976.0</ele><time>2026-05-02T09:20:18.992Z</time></trkpt><trkpt lat="43.7371656" lon="6.4318631"><ele>976.0</ele><time>2026-05-02T09:20:19.992Z</time></trkpt><trkpt lat="43.7373067" lon="6.4317278"><ele>976.0</ele><time>2026-05-02T09:20:20.992Z</time></trkpt><trkpt lat="43.7374551" lon="6.4315959"><ele>976.0</ele><time>2026-05-02T09:20:21.992Z</time></trkpt><trkpt lat="43.7376232" lon="6.4314603"><ele>975.6666666666666</ele><time>2026-05-02T09:20:22.992Z</time></trkpt><trkpt lat="43.737789" lon="6.4313574"><ele>975.3333333333333</ele><time>2026-05-02T09:20:23.992Z</time></trkpt><trkpt lat="43.7379519" lon="6.4312583"><ele>975.0</ele><time>2026-05-02T09:20:24.992Z</time></trkpt><trkpt lat="43.7380991" lon="6.4311473"><ele>976.0</ele><time>2026-05-02T09:20:25.992Z</time></trkpt><trkpt lat="43.7382526" lon="6.4310389"><ele>977.0</ele><time>2026-05-02T09:20:26.992Z</time></trkpt><trkpt lat="43.7383813" lon="6.4309064"><ele>978.0</ele><time>2026-05-02T09:20:27.992Z</time></trkpt><trkpt lat="43.7385046" lon="6.430751"><ele>977.6666666666667</ele><time>2026-05-02T09:20:28.992Z</time></trkpt><trkpt lat="43.7386153" lon="6.430602"><ele>977.3333333333334</ele><time>2026-05-02T09:20:29.992Z</time></trkpt><trkpt lat="43.7387126" lon="6.4304437"><ele>977.0</ele><time>2026-05-02T09:20:30.992Z</time></trkpt><trkpt lat="43.7388129" lon="6.4302755"><ele>977.6666666666667</ele><time>2026-05-02T09:20:31.992Z</time></trkpt><trkpt lat="43.7388837" lon="6.4300969"><ele>978.3333333333333</ele><time>2026-05-02T09:20:32.991Z</time></trkpt><trkpt lat="43.738941" lon="6.4298936"><ele>979.0</ele><time>2026-05-02T09:20:33.992Z</time></trkpt><trkpt lat="43.7389854" lon="6.4296794"><ele>979.3333333333333</ele><time>2026-05-02T09:20:34.991Z</time></trkpt><trkpt lat="43.7390271" lon="6.4294501"><ele>979.6666666666667</ele><time>2026-05-02T09:20:35.992Z</time></trkpt><trkpt lat="43.739068" lon="6.4292224"><ele>980.0</ele><time>2026-05-02T09:20:36.992Z</time></trkpt><trkpt lat="43.7391153" lon="6.4290018"><ele>981.0</ele><time>2026-05-02T09:20:37.992Z</time></trkpt><trkpt lat="43.7391627" lon="6.4287747"><ele>982.0</ele><time>2026-05-02T09:20:38.992Z</time></trkpt><trkpt lat="43.7392416" lon="6.4285783"><ele>983.0</ele><time>2026-05-02T09:20:39.992Z</time></trkpt><trkpt lat="43.7393313" lon="6.4283815"><ele>982.6666666666667</ele><time>2026-05-02T09:20:40.991Z</time></trkpt><trkpt lat="43.7394481" lon="6.4282144"><ele>982.3333333333333</ele><time>2026-05-02T09:20:41.992Z</time></trkpt><trkpt lat="43.7395759" lon="6.4280389"><ele>982.0</ele><time>2026-05-02T09:20:42.992Z</time></trkpt><trkpt lat="43.7396967" lon="6.4278758"><ele>982.0</ele><time>2026-05-02T09:20:43.991Z</time></trkpt><trkpt lat="43.739814" lon="6.4277082"><ele>982.0</ele><time>2026-05-02T09:20:44.992Z</time></trkpt><trkpt lat="43.7399226" lon="6.4275391"><ele>982.0</ele><time>2026-05-02T09:20:45.992Z</time></trkpt><trkpt lat="43.740015" lon="6.4273606"><ele>982.0</ele><time>2026-05-02T09:20:46.992Z</time></trkpt><trkpt lat="43.740096" lon="6.4271684"><ele>982.0</ele><time>2026-05-02T09:20:47.992Z</time></trkpt><trkpt lat="43.740156" lon="6.4269548"><ele>982.0</ele><time>2026-05-02T09:20:48.992Z</time></trkpt><trkpt lat="43.7402122" lon="6.4267412"><ele>981.6666666666666</ele><time>2026-05-02T09:20:49.992Z</time></trkpt><trkpt lat="43.7402819" lon="6.4265437"><ele>981.3333333333333</ele><time>2026-05-02T09:20:50.992Z</time></trkpt><trkpt lat="43.7403703" lon="6.4263619"><ele>981.0</ele><time>2026-05-02T09:20:51.992Z</time></trkpt><trkpt lat="43.7404693" lon="6.426212"><ele>983.3333333333333</ele><time>2026-05-02T09:20:52.992Z</time></trkpt><trkpt lat="43.7406261" lon="6.4260898"><ele>985.6666666666666</ele><time>2026-05-02T09:20:53.992Z</time></trkpt><trkpt lat="43.7407632" lon="6.4259616"><ele>988.0</ele><time>2026-05-02T09:20:54.992Z</time></trkpt><trkpt lat="43.7408963" lon="6.4258146"><ele>988.0</ele><time>2026-05-02T09:20:55.992Z</time></trkpt><trkpt lat="43.7410265" lon="6.4256566"><ele>988.0</ele><time>2026-05-02T09:20:56.992Z</time></trkpt><trkpt lat="43.7411526" lon="6.425506"><ele>988.0</ele><time>2026-05-02T09:20:57.992Z</time></trkpt><trkpt lat="43.7412859" lon="6.425357"><ele>987.6666666666666</ele><time>2026-05-02T09:20:58.992Z</time></trkpt><trkpt lat="43.7414088" lon="6.425197"><ele>987.3333333333333</ele><time>2026-05-02T09:20:59.992Z</time></trkpt><trkpt lat="43.7415356" lon="6.4250167"><ele>987.0</ele><time>2026-05-02T09:21:00.991Z</time></trkpt><trkpt lat="43.7416462" lon="6.424842"><ele>986.6666666666667</ele><time>2026-05-02T09:21:01.992Z</time></trkpt><trkpt lat="43.7417649" lon="6.4246433"><ele>986.3333333333334</ele><time>2026-05-02T09:21:02.992Z</time></trkpt><trkpt lat="43.7418799" lon="6.4244389"><ele>986.0</ele><time>2026-05-02T09:21:03.992Z</time></trkpt><trkpt lat="43.7419794" lon="6.4242291"><ele>986.0</ele><time>2026-05-02T09:21:04.992Z</time></trkpt><trkpt lat="43.7420832" lon="6.424027"><ele>986.0</ele><time>2026-05-02T09:21:05.991Z</time></trkpt><trkpt lat="43.7421888" lon="6.4238375"><ele>986.0</ele><time>2026-05-02T09:21:06.992Z</time></trkpt><trkpt lat="43.7423016" lon="6.4236394"><ele>987.0</ele><time>2026-05-02T09:21:07.992Z</time></trkpt><trkpt lat="43.742393" lon="6.4234584"><ele>988.0</ele><time>2026-05-02T09:21:08.992Z</time></trkpt><trkpt lat="43.7424985" lon="6.4232903"><ele>989.0</ele><time>2026-05-02T09:21:09.992Z</time></trkpt><trkpt lat="43.7426087" lon="6.4231368"><ele>988.3333333333334</ele><time>2026-05-02T09:21:10.992Z</time></trkpt><trkpt lat="43.7427243" lon="6.4230001"><ele>987.6666666666667</ele><time>2026-05-02T09:21:11.991Z</time></trkpt><trkpt lat="43.7428439" lon="6.4228816"><ele>987.0</ele><time>2026-05-02T09:21:12.992Z</time></trkpt><trkpt lat="43.7429849" lon="6.4227699"><ele>989.0</ele><time>2026-05-02T09:21:13.992Z</time></trkpt><trkpt lat="43.7431248" lon="6.4227173"><ele>991.0</ele><time>2026-05-02T09:21:14.992Z</time></trkpt><trkpt lat="43.7432909" lon="6.4227001"><ele>993.0</ele><time>2026-05-02T09:21:15.991Z</time></trkpt><trkpt lat="43.743447" lon="6.4226995"><ele>993.3333333333333</ele><time>2026-05-02T09:21:16.992Z</time></trkpt><trkpt lat="43.7436173" lon="6.4226847"><ele>993.6666666666666</ele><time>2026-05-02T09:21:17.991Z</time></trkpt><trkpt lat="43.7437784" lon="6.4226729"><ele>994.0</ele><time>2026-05-02T09:21:18.992Z</time></trkpt><trkpt lat="43.7439252" lon="6.4226325"><ele>994.0</ele><time>2026-05-02T09:21:19.992Z</time></trkpt><trkpt lat="43.7440614" lon="6.422583"><ele>994.0</ele><time>2026-05-02T09:21:20.992Z</time></trkpt><trkpt lat="43.7442071" lon="6.4225343"><ele>994.0</ele><time>2026-05-02T09:21:21.992Z</time></trkpt><trkpt lat="43.7443506" lon="6.422446"><ele>994.0</ele><time>2026-05-02T09:21:22.992Z</time></trkpt><trkpt lat="43.7444873" lon="6.4223576"><ele>994.0</ele><time>2026-05-02T09:21:23.992Z</time></trkpt><trkpt lat="43.7446164" lon="6.4222143"><ele>994.0</ele><time>2026-05-02T09:21:24.992Z</time></trkpt><trkpt lat="43.7447366" lon="6.4220675"><ele>994.0</ele><time>2026-05-02T09:21:25.991Z</time></trkpt><trkpt lat="43.744854" lon="6.4218983"><ele>994.0</ele><time>2026-05-02T09:21:26.992Z</time></trkpt><trkpt lat="43.7449513" lon="6.4216969"><ele>994.0</ele><time>2026-05-02T09:21:27.992Z</time></trkpt><trkpt lat="43.7450292" lon="6.4214896"><ele>994.0</ele><time>2026-05-02T09:21:28.992Z</time></trkpt><trkpt lat="43.7451128" lon="6.4213046"><ele>994.3333333333333</ele><time>2026-05-02T09:21:29.992Z</time></trkpt><trkpt lat="43.7452041" lon="6.4211495"><ele>994.6666666666667</ele><time>2026-05-02T09:21:30.992Z</time></trkpt><trkpt lat="43.7453222" lon="6.4209991"><ele>995.0</ele><time>2026-05-02T09:21:31.992Z</time></trkpt><trkpt lat="43.7454579" lon="6.4208904"><ele>995.0</ele><time>2026-05-02T09:21:32.991Z</time></trkpt><trkpt lat="43.7456" lon="6.4208128"><ele>995.0</ele><time>2026-05-02T09:21:33.992Z</time></trkpt><trkpt lat="43.7457368" lon="6.4206898"><ele>995.0</ele><time>2026-05-02T09:21:34.992Z</time></trkpt><trkpt lat="43.7458709" lon="6.4205747"><ele>995.3333333333334</ele><time>2026-05-02T09:21:35.992Z</time></trkpt><trkpt lat="43.7459976" lon="6.420457"><ele>995.6666666666667</ele><time>2026-05-02T09:21:36.992Z</time></trkpt><trkpt lat="43.7461396" lon="6.4203263"><ele>996.0</ele><time>2026-05-02T09:21:37.992Z</time></trkpt><trkpt lat="43.7462835" lon="6.4202017"><ele>996.0</ele><time>2026-05-02T09:21:38.992Z</time></trkpt><trkpt lat="43.74642" lon="6.420077"><ele>996.0</ele><time>2026-05-02T09:21:39.992Z</time></trkpt><trkpt lat="43.746559" lon="6.4199642"><ele>996.0</ele><time>2026-05-02T09:21:40.992Z</time></trkpt><trkpt lat="43.7467052" lon="6.4198429"><ele>996.0</ele><time>2026-05-02T09:21:41.992Z</time></trkpt><trkpt lat="43.7468474" lon="6.4197287"><ele>996.0</ele><time>2026-05-02T09:21:42.992Z</time></trkpt><trkpt lat="43.7469771" lon="6.4196073"><ele>996.0</ele><time>2026-05-02T09:21:43.992Z</time></trkpt><trkpt lat="43.74709" lon="6.4194502"><ele>997.3333333333333</ele><time>2026-05-02T09:21:44.992Z</time></trkpt><trkpt lat="43.747208" lon="6.4193269"><ele>998.6666666666666</ele><time>2026-05-02T09:21:45.992Z</time></trkpt><trkpt lat="43.7473417" lon="6.4191959"><ele>1000.0</ele><time>2026-05-02T09:21:46.992Z</time></trkpt><trkpt lat="43.7474753" lon="6.4190753"><ele>1000.0</ele><time>2026-05-02T09:21:47.992Z</time></trkpt><trkpt lat="43.7476282" lon="6.4190009"><ele>1000.0</ele><time>2026-05-02T09:21:48.991Z</time></trkpt><trkpt lat="43.7477922" lon="6.4189391"><ele>1000.0</ele><time>2026-05-02T09:21:49.992Z</time></trkpt><trkpt lat="43.7479379" lon="6.4189074"><ele>999.0</ele><time>2026-05-02T09:21:50.991Z</time></trkpt><trkpt lat="43.7480821" lon="6.4188631"><ele>998.0</ele><time>2026-05-02T09:21:51.992Z</time></trkpt><trkpt lat="43.7482367" lon="6.4188258"><ele>997.0</ele><time>2026-05-02T09:21:52.992Z</time></trkpt><trkpt lat="43.7483864" lon="6.4188019"><ele>997.6666666666666</ele><time>2026-05-02T09:21:53.992Z</time></trkpt><trkpt lat="43.7485519" lon="6.4188477"><ele>998.3333333333333</ele><time>2026-05-02T09:21:54.992Z</time></trkpt><trkpt lat="43.7486945" lon="6.4189139"><ele>999.0</ele><time>2026-05-02T09:21:55.991Z</time></trkpt><trkpt lat="43.7488401" lon="6.419007"><ele>999.0</ele><time>2026-05-02T09:21:56.992Z</time></trkpt><trkpt lat="43.7489874" lon="6.4190952"><ele>999.0</ele><time>2026-05-02T09:21:57.991Z</time></trkpt><trkpt lat="43.7491368" lon="6.4191841"><ele>999.0</ele><time>2026-05-02T09:21:58.992Z</time></trkpt><trkpt lat="43.7492924" lon="6.4192517"><ele>1000.3333333333333</ele><time>2026-05-02T09:21:59.992Z</time></trkpt><trkpt lat="43.7494479" lon="6.4193036"><ele>1001.6666666666666</ele><time>2026-05-02T09:22:00.992Z</time></trkpt><trkpt lat="43.7496215" lon="6.4193161"><ele>1003.0</ele><time>2026-05-02T09:22:01.992Z</time></trkpt><trkpt lat="43.7497916" lon="6.4193132"><ele>1003.0</ele><time>2026-05-02T09:22:02.992Z</time></trkpt><trkpt lat="43.7499631" lon="6.4193057"><ele>1003.0</ele><time>2026-05-02T09:22:03.992Z</time></trkpt><trkpt lat="43.7501235" lon="6.4192993"><ele>1003.0</ele><time>2026-05-02T09:22:04.992Z</time></trkpt><trkpt lat="43.7502883" lon="6.4192893"><ele>1002.75</ele><time>2026-05-02T09:22:05.992Z</time></trkpt><trkpt lat="43.750441" lon="6.4192844"><ele>1002.5</ele><time>2026-05-02T09:22:06.992Z</time></trkpt><trkpt lat="43.7505919" lon="6.4192561"><ele>1002.25</ele><time>2026-05-02T09:22:07.991Z</time></trkpt><trkpt lat="43.7507326" lon="6.419219"><ele>1002.0</ele><time>2026-05-02T09:22:08.992Z</time></trkpt><trkpt lat="43.7508805" lon="6.4191632"><ele>1002.0</ele><time>2026-05-02T09:22:09.992Z</time></trkpt><trkpt lat="43.7510285" lon="6.4190406"><ele>1002.0</ele><time>2026-05-02T09:22:10.992Z</time></trkpt><trkpt lat="43.7511597" lon="6.4189219"><ele>1002.0</ele><time>2026-05-02T09:22:11.992Z</time></trkpt><trkpt lat="43.7512963" lon="6.4187982"><ele>1002.0</ele><time>2026-05-02T09:22:12.992Z</time></trkpt><trkpt lat="43.7514192" lon="6.4186497"><ele>1002.0</ele><time>2026-05-02T09:22:13.992Z</time></trkpt><trkpt lat="43.7515305" lon="6.4184824"><ele>1002.0</ele><time>2026-05-02T09:22:14.991Z</time></trkpt><trkpt lat="43.7516264" lon="6.4182991"><ele>1002.0</ele><time>2026-05-02T09:22:15.992Z</time></trkpt><trkpt lat="43.7517026" lon="6.4181182"><ele>1002.0</ele><time>2026-05-02T09:22:16.992Z</time></trkpt><trkpt lat="43.7517674" lon="6.4179336"><ele>1002.0</ele><time>2026-05-02T09:22:17.992Z</time></trkpt><trkpt lat="43.7518357" lon="6.4177612"><ele>1002.0</ele><time>2026-05-02T09:22:18.992Z</time></trkpt><trkpt lat="43.7518868" lon="6.4175906"><ele>1003.0</ele><time>2026-05-02T09:22:19.992Z</time></trkpt><trkpt lat="43.7519231" lon="6.4173843"><ele>1004.0</ele><time>2026-05-02T09:22:20.992Z</time></trkpt><trkpt lat="43.7519041" lon="6.4171599"><ele>1005.0</ele><time>2026-05-02T09:22:21.992Z</time></trkpt><trkpt lat="43.7518846" lon="6.4169408"><ele>1005.6666666666667</ele><time>2026-05-02T09:22:22.992Z</time></trkpt><trkpt lat="43.7518634" lon="6.4167123"><ele>1006.3333333333334</ele><time>2026-05-02T09:22:23.992Z</time></trkpt><trkpt lat="43.7518241" lon="6.4165101"><ele>1007.0</ele><time>2026-05-02T09:22:24.992Z</time></trkpt><trkpt lat="43.751753" lon="6.4163117"><ele>1008.6666666666667</ele><time>2026-05-02T09:22:25.992Z</time></trkpt><trkpt lat="43.7516685" lon="6.4161231"><ele>1010.3333333333333</ele><time>2026-05-02T09:22:26.992Z</time></trkpt><trkpt lat="43.7515756" lon="6.4159458"><ele>1012.0</ele><time>2026-05-02T09:22:27.992Z</time></trkpt><trkpt lat="43.7514872" lon="6.4157724"><ele>1012.0</ele><time>2026-05-02T09:22:28.992Z</time></trkpt><trkpt lat="43.7513959" lon="6.4155992"><ele>1012.0</ele><time>2026-05-02T09:22:29.992Z</time></trkpt><trkpt lat="43.7513191" lon="6.4154513"><ele>1012.0</ele><time>2026-05-02T09:22:30.991Z</time></trkpt><trkpt lat="43.751254" lon="6.4153042"><ele>1012.0</ele><time>2026-05-02T09:22:31.992Z</time></trkpt><trkpt lat="43.7512443" lon="6.4151243"><ele>1012.75</ele><time>2026-05-02T09:22:32.991Z</time></trkpt><trkpt lat="43.7512452" lon="6.4149474"><ele>1013.5</ele><time>2026-05-02T09:22:33.991Z</time></trkpt><trkpt lat="43.7512659" lon="6.4147675"><ele>1014.25</ele><time>2026-05-02T09:22:34.991Z</time></trkpt><trkpt lat="43.7513272" lon="6.414563"><ele>1015.0</ele><time>2026-05-02T09:22:35.992Z</time></trkpt><trkpt lat="43.7513962" lon="6.4143772"><ele>1013.25</ele><time>2026-05-02T09:22:36.992Z</time></trkpt><trkpt lat="43.7514805" lon="6.4142201"><ele>1011.5</ele><time>2026-05-02T09:22:37.992Z</time></trkpt><trkpt lat="43.751562" lon="6.4140796"><ele>1009.75</ele><time>2026-05-02T09:22:38.992Z</time></trkpt><trkpt lat="43.7517054" lon="6.4139439"><ele>1008.0</ele><time>2026-05-02T09:22:39.992Z</time></trkpt><trkpt lat="43.75185" lon="6.4138589"><ele>1006.5</ele><time>2026-05-02T09:22:40.991Z</time></trkpt><trkpt lat="43.7519901" lon="6.4137608"><ele>1005.0</ele><time>2026-05-02T09:22:41.992Z</time></trkpt><trkpt lat="43.7520936" lon="6.4136617"><ele>1003.5</ele><time>2026-05-02T09:22:42.992Z</time></trkpt><trkpt lat="43.7521427" lon="6.4134991"><ele>1002.0</ele><time>2026-05-02T09:22:43.992Z</time></trkpt><trkpt lat="43.7521783" lon="6.4133173"><ele>1002.0</ele><time>2026-05-02T09:22:44.992Z</time></trkpt><trkpt lat="43.7521935" lon="6.4131162"><ele>1002.0</ele><time>2026-05-02T09:22:45.992Z</time></trkpt><trkpt lat="43.7521819" lon="6.4129"><ele>1002.0</ele><time>2026-05-02T09:22:46.992Z</time></trkpt><trkpt lat="43.7521841" lon="6.4126926"><ele>1002.0</ele><time>2026-05-02T09:22:47.992Z</time></trkpt><trkpt lat="43.7521823" lon="6.412483"><ele>1002.0</ele><time>2026-05-02T09:22:48.992Z</time></trkpt><trkpt lat="43.7521686" lon="6.4122789"><ele>1002.0</ele><time>2026-05-02T09:22:49.992Z</time></trkpt><trkpt lat="43.7521667" lon="6.4120664"><ele>1001.6666666666667</ele><time>2026-05-02T09:22:50.991Z</time></trkpt><trkpt lat="43.7521543" lon="6.4118187"><ele>1001.3333333333334</ele><time>2026-05-02T09:22:51.992Z</time></trkpt><trkpt lat="43.7521482" lon="6.4115894"><ele>1001.0</ele><time>2026-05-02T09:22:52.991Z</time></trkpt><trkpt lat="43.7521454" lon="6.4113668"><ele>999.0</ele><time>2026-05-02T09:22:53.992Z</time></trkpt><trkpt lat="43.7521395" lon="6.4111548"><ele>997.0</ele><time>2026-05-02T09:22:54.992Z</time></trkpt><trkpt lat="43.7521363" lon="6.4109352"><ele>995.0</ele><time>2026-05-02T09:22:55.992Z</time></trkpt><trkpt lat="43.7521514" lon="6.410705"><ele>993.3333333333334</ele><time>2026-05-02T09:22:56.992Z</time></trkpt><trkpt lat="43.752177" lon="6.4104746"><ele>991.6666666666667</ele><time>2026-05-02T09:22:57.992Z</time></trkpt><trkpt lat="43.7522168" lon="6.4102372"><ele>990.0</ele><time>2026-05-02T09:22:58.992Z</time></trkpt><trkpt lat="43.7522575" lon="6.410003"><ele>990.0</ele><time>2026-05-02T09:22:59.992Z</time></trkpt><trkpt lat="43.7522944" lon="6.409779"><ele>990.0</ele><time>2026-05-02T09:23:00.992Z</time></trkpt><trkpt lat="43.7523411" lon="6.4095515"><ele>990.0</ele><time>2026-05-02T09:23:01.991Z</time></trkpt><trkpt lat="43.7523968" lon="6.4093403"><ele>988.0</ele><time>2026-05-02T09:23:02.992Z</time></trkpt><trkpt lat="43.7524316" lon="6.4091065"><ele>986.0</ele><time>2026-05-02T09:23:03.992Z</time></trkpt><trkpt lat="43.7524733" lon="6.4088895"><ele>984.0</ele><time>2026-05-02T09:23:04.992Z</time></trkpt><trkpt lat="43.7524945" lon="6.4086623"><ele>983.0</ele><time>2026-05-02T09:23:05.992Z</time></trkpt><trkpt lat="43.7525338" lon="6.4084989"><ele>982.0</ele><time>2026-05-02T09:23:06.992Z</time></trkpt><trkpt lat="43.7525733" lon="6.4083015"><ele>981.0</ele><time>2026-05-02T09:23:07.992Z</time></trkpt><trkpt lat="43.7525976" lon="6.4080806"><ele>980.0</ele><time>2026-05-02T09:23:08.991Z</time></trkpt><trkpt lat="43.7526216" lon="6.4078788"><ele>980.0</ele><time>2026-05-02T09:23:09.992Z</time></trkpt><trkpt lat="43.7526183" lon="6.40768"><ele>980.0</ele><time>2026-05-02T09:23:10.991Z</time></trkpt><trkpt lat="43.7526141" lon="6.4074706"><ele>980.0</ele><time>2026-05-02T09:23:11.991Z</time></trkpt><trkpt lat="43.7526009" lon="6.4072569"><ele>979.6666666666667</ele><time>2026-05-02T09:23:12.992Z</time></trkpt><trkpt lat="43.7525956" lon="6.407039"><ele>979.3333333333333</ele><time>2026-05-02T09:23:13.992Z</time></trkpt><trkpt lat="43.7525756" lon="6.4068242"><ele>979.0</ele><time>2026-05-02T09:23:14.992Z</time></trkpt><trkpt lat="43.7525805" lon="6.4066173"><ele>979.0</ele><time>2026-05-02T09:23:15.992Z</time></trkpt><trkpt lat="43.7525497" lon="6.4063962"><ele>979.0</ele><time>2026-05-02T09:23:16.992Z</time></trkpt><trkpt lat="43.7525491" lon="6.4062014"><ele>979.0</ele><time>2026-05-02T09:23:17.992Z</time></trkpt><trkpt lat="43.752547" lon="6.4060111"><ele>979.0</ele><time>2026-05-02T09:23:18.992Z</time></trkpt><trkpt lat="43.7525459" lon="6.4058272"><ele>979.0</ele><time>2026-05-02T09:23:19.992Z</time></trkpt><trkpt lat="43.7525548" lon="6.4056568"><ele>979.0</ele><time>2026-05-02T09:23:20.992Z</time></trkpt><trkpt lat="43.7525714" lon="6.4054746"><ele>979.0</ele><time>2026-05-02T09:23:21.992Z</time></trkpt><trkpt lat="43.7526407" lon="6.4052742"><ele>979.0</ele><time>2026-05-02T09:23:22.991Z</time></trkpt><trkpt lat="43.7526927" lon="6.4050892"><ele>982.0</ele><time>2026-05-02T09:23:23.992Z</time></trkpt><trkpt lat="43.7527622" lon="6.4048789"><ele>985.0</ele><time>2026-05-02T09:23:24.992Z</time></trkpt><trkpt lat="43.7528371" lon="6.4046768"><ele>988.0</ele><time>2026-05-02T09:23:25.992Z</time></trkpt><trkpt lat="43.7529095" lon="6.4044657"><ele>988.0</ele><time>2026-05-02T09:23:26.992Z</time></trkpt><trkpt lat="43.752975" lon="6.4042624"><ele>988.0</ele><time>2026-05-02T09:23:27.992Z</time></trkpt><trkpt lat="43.7530399" lon="6.4040451"><ele>988.0</ele><time>2026-05-02T09:23:28.991Z</time></trkpt><trkpt lat="43.7530659" lon="6.4038339"><ele>986.5</ele><time>2026-05-02T09:23:29.992Z</time></trkpt><trkpt lat="43.753085" lon="6.4036213"><ele>985.0</ele><time>2026-05-02T09:23:30.992Z</time></trkpt><trkpt lat="43.75311" lon="6.4034265"><ele>983.5</ele><time>2026-05-02T09:23:31.992Z</time></trkpt><trkpt lat="43.7531177" lon="6.4032188"><ele>982.0</ele><time>2026-05-02T09:23:32.992Z</time></trkpt><trkpt lat="43.7531447" lon="6.4030325"><ele>982.25</ele><time>2026-05-02T09:23:33.992Z</time></trkpt><trkpt lat="43.7531195" lon="6.402858"><ele>982.5</ele><time>2026-05-02T09:23:34.991Z</time></trkpt><trkpt lat="43.7531017" lon="6.4026959"><ele>982.75</ele><time>2026-05-02T09:23:35.992Z</time></trkpt><trkpt lat="43.753041" lon="6.4025353"><ele>983.0</ele><time>2026-05-02T09:23:36.992Z</time></trkpt><trkpt lat="43.7529279" lon="6.4023587"><ele>983.0</ele><time>2026-05-02T09:23:37.992Z</time></trkpt><trkpt lat="43.7528367" lon="6.402182"><ele>983.0</ele><time>2026-05-02T09:23:38.992Z</time></trkpt><trkpt lat="43.7527581" lon="6.4020077"><ele>983.0</ele><time>2026-05-02T09:23:39.992Z</time></trkpt><trkpt lat="43.7526451" lon="6.4018167"><ele>982.6666666666667</ele><time>2026-05-02T09:23:40.991Z</time></trkpt><trkpt lat="43.7525559" lon="6.4016334"><ele>982.3333333333333</ele><time>2026-05-02T09:23:41.992Z</time></trkpt><trkpt lat="43.7524439" lon="6.4014631"><ele>982.0</ele><time>2026-05-02T09:23:42.992Z</time></trkpt><trkpt lat="43.7523594" lon="6.401316"><ele>982.0</ele><time>2026-05-02T09:23:43.992Z</time></trkpt><trkpt lat="43.7522812" lon="6.4011711"><ele>982.0</ele><time>2026-05-02T09:23:44.992Z</time></trkpt><trkpt lat="43.7522116" lon="6.4010241"><ele>982.0</ele><time>2026-05-02T09:23:45.992Z</time></trkpt><trkpt lat="43.7521345" lon="6.4009062"><ele>982.0</ele><time>2026-05-02T09:23:46.992Z</time></trkpt><trkpt lat="43.7520029" lon="6.4008785"><ele>982.0</ele><time>2026-05-02T09:23:47.992Z</time></trkpt><trkpt lat="43.751894" lon="6.4008073"><ele>982.0</ele><time>2026-05-02T09:23:48.992Z</time></trkpt><trkpt lat="43.7517596" lon="6.4007398"><ele>982.0</ele><time>2026-05-02T09:23:49.991Z</time></trkpt><trkpt lat="43.7516149" lon="6.4006155"><ele>982.0</ele><time>2026-05-02T09:23:50.992Z</time></trkpt><trkpt lat="43.7514969" lon="6.4005222"><ele>980.5</ele><time>2026-05-02T09:23:51.992Z</time></trkpt><trkpt lat="43.7513823" lon="6.40042"><ele>979.0</ele><time>2026-05-02T09:23:52.992Z</time></trkpt><trkpt lat="43.7512846" lon="6.4003164"><ele>977.5</ele><time>2026-05-02T09:23:53.992Z</time></trkpt><trkpt lat="43.7511994" lon="6.4002072"><ele>976.0</ele><time>2026-05-02T09:23:54.992Z</time></trkpt><trkpt lat="43.7511265" lon="6.4000646"><ele>976.0</ele><time>2026-05-02T09:23:55.992Z</time></trkpt><trkpt lat="43.7510641" lon="6.3999081"><ele>976.0</ele><time>2026-05-02T09:23:56.992Z</time></trkpt><trkpt lat="43.750979" lon="6.3997458"><ele>976.0</ele><time>2026-05-02T09:23:57.992Z</time></trkpt><trkpt lat="43.7508943" lon="6.3995996"><ele>976.0</ele><time>2026-05-02T09:23:58.992Z</time></trkpt><trkpt lat="43.7507991" lon="6.3994742"><ele>971.3333333333333</ele><time>2026-05-02T09:23:59.992Z</time></trkpt><trkpt lat="43.7506724" lon="6.399317"><ele>966.6666666666667</ele><time>2026-05-02T09:24:00.991Z</time></trkpt><trkpt lat="43.750534" lon="6.3991827"><ele>962.0</ele><time>2026-05-02T09:24:01.991Z</time></trkpt><trkpt lat="43.7504062" lon="6.399034"><ele>962.0</ele><time>2026-05-02T09:24:02.992Z</time></trkpt><trkpt lat="43.7502689" lon="6.3988951"><ele>962.0</ele><time>2026-05-02T09:24:03.992Z</time></trkpt><trkpt lat="43.7501489" lon="6.398738"><ele>962.0</ele><time>2026-05-02T09:24:04.992Z</time></trkpt><trkpt lat="43.7500429" lon="6.3985861"><ele>956.0</ele><time>2026-05-02T09:24:05.992Z</time></trkpt><trkpt lat="43.7499243" lon="6.3984383"><ele>950.0</ele><time>2026-05-02T09:24:06.991Z</time></trkpt><trkpt lat="43.749843" lon="6.3982616"><ele>944.0</ele><time>2026-05-02T09:24:07.992Z</time></trkpt><trkpt lat="43.7497294" lon="6.3980886"><ele>941.0</ele><time>2026-05-02T09:24:08.992Z</time></trkpt><trkpt lat="43.7496531" lon="6.3979528"><ele>938.0</ele><time>2026-05-02T09:24:09.992Z</time></trkpt><trkpt lat="43.7495462" lon="6.3978296"><ele>935.0</ele><time>2026-05-02T09:24:10.992Z</time></trkpt><trkpt lat="43.7494316" lon="6.3977289"><ele>932.0</ele><time>2026-05-02T09:24:11.992Z</time></trkpt><trkpt lat="43.7493193" lon="6.3976382"><ele>932.0</ele><time>2026-05-02T09:24:12.992Z</time></trkpt><trkpt lat="43.74921" lon="6.3975449"><ele>932.0</ele><time>2026-05-02T09:24:13.992Z</time></trkpt><trkpt lat="43.7490935" lon="6.3974664"><ele>932.0</ele><time>2026-05-02T09:24:14.992Z</time></trkpt><trkpt lat="43.7490046" lon="6.3973381"><ele>932.0</ele><time>2026-05-02T09:24:15.991Z</time></trkpt><trkpt lat="43.7489577" lon="6.3971433"><ele>934.0</ele><time>2026-05-02T09:24:16.992Z</time></trkpt><trkpt lat="43.7489109" lon="6.3969686"><ele>936.0</ele><time>2026-05-02T09:24:17.991Z</time></trkpt><trkpt lat="43.7488661" lon="6.3967665"><ele>938.0</ele><time>2026-05-02T09:24:18.992Z</time></trkpt><trkpt lat="43.7488074" lon="6.39658"><ele>940.0</ele><time>2026-05-02T09:24:19.992Z</time></trkpt><trkpt lat="43.7487303" lon="6.3963859"><ele>943.6666666666666</ele><time>2026-05-02T09:24:20.991Z</time></trkpt><trkpt lat="43.7486595" lon="6.3961879"><ele>947.3333333333333</ele><time>2026-05-02T09:24:21.992Z</time></trkpt><trkpt lat="43.7485726" lon="6.3960046"><ele>951.0</ele><time>2026-05-02T09:24:22.992Z</time></trkpt><trkpt lat="43.7484747" lon="6.3958295"><ele>941.3333333333333</ele><time>2026-05-02T09:24:23.992Z</time></trkpt><trkpt lat="43.7483589" lon="6.3956607"><ele>931.6666666666666</ele><time>2026-05-02T09:24:24.992Z</time></trkpt><trkpt lat="43.7482598" lon="6.3954954"><ele>922.0</ele><time>2026-05-02T09:24:25.991Z</time></trkpt><trkpt lat="43.7481607" lon="6.3953133"><ele>922.0</ele><time>2026-05-02T09:24:26.992Z</time></trkpt><trkpt lat="43.7480707" lon="6.3951285"><ele>922.0</ele><time>2026-05-02T09:24:27.992Z</time></trkpt><trkpt lat="43.7479701" lon="6.3949514"><ele>922.0</ele><time>2026-05-02T09:24:28.992Z</time></trkpt><trkpt lat="43.7478601" lon="6.3947733"><ele>924.0</ele><time>2026-05-02T09:24:29.992Z</time></trkpt><trkpt lat="43.7477597" lon="6.3945923"><ele>926.0</ele><time>2026-05-02T09:24:30.992Z</time></trkpt><trkpt lat="43.7476611" lon="6.3943953"><ele>928.0</ele><time>2026-05-02T09:24:31.992Z</time></trkpt><trkpt lat="43.7475619" lon="6.3941996"><ele>921.3333333333333</ele><time>2026-05-02T09:24:32.991Z</time></trkpt><trkpt lat="43.7474688" lon="6.3940073"><ele>914.6666666666667</ele><time>2026-05-02T09:24:33.992Z</time></trkpt><trkpt lat="43.7473675" lon="6.3938131"><ele>908.0</ele><time>2026-05-02T09:24:34.991Z</time></trkpt><trkpt lat="43.7472752" lon="6.3936206"><ele>908.0</ele><time>2026-05-02T09:24:35.992Z</time></trkpt><trkpt lat="43.7471735" lon="6.3934314"><ele>908.0</ele><time>2026-05-02T09:24:36.991Z</time></trkpt><trkpt lat="43.7470775" lon="6.3932475"><ele>908.0</ele><time>2026-05-02T09:24:37.991Z</time></trkpt><trkpt lat="43.7469796" lon="6.3930756"><ele>904.75</ele><time>2026-05-02T09:24:38.992Z</time></trkpt><trkpt lat="43.7468759" lon="6.3929106"><ele>901.5</ele><time>2026-05-02T09:24:39.992Z</time></trkpt><trkpt lat="43.7467735" lon="6.3927578"><ele>898.25</ele><time>2026-05-02T09:24:40.992Z</time></trkpt><trkpt lat="43.7466872" lon="6.3926281"><ele>895.0</ele><time>2026-05-02T09:24:41.992Z</time></trkpt><trkpt lat="43.7465987" lon="6.3925589"><ele>895.0</ele><time>2026-05-02T09:24:42.992Z</time></trkpt><trkpt lat="43.7465021" lon="6.3924637"><ele>895.0</ele><time>2026-05-02T09:24:43.991Z</time></trkpt><trkpt lat="43.746393" lon="6.3924253"><ele>895.0</ele><time>2026-05-02T09:24:44.992Z</time></trkpt><trkpt lat="43.7462533" lon="6.3924354"><ele>895.0</ele><time>2026-05-02T09:24:45.992Z</time></trkpt><trkpt lat="43.7461325" lon="6.3923959"><ele>892.75</ele><time>2026-05-02T09:24:46.992Z</time></trkpt><trkpt lat="43.7460253" lon="6.3923047"><ele>890.5</ele><time>2026-05-02T09:24:47.991Z</time></trkpt><trkpt lat="43.745923" lon="6.3921835"><ele>888.25</ele><time>2026-05-02T09:24:48.992Z</time></trkpt><trkpt lat="43.7458348" lon="6.3920337"><ele>886.0</ele><time>2026-05-02T09:24:49.992Z</time></trkpt><trkpt lat="43.7457722" lon="6.3918391"><ele>885.25</ele><time>2026-05-02T09:24:50.991Z</time></trkpt><trkpt lat="43.7456967" lon="6.3916522"><ele>884.5</ele><time>2026-05-02T09:24:51.992Z</time></trkpt><trkpt lat="43.7456332" lon="6.3914776"><ele>883.75</ele><time>2026-05-02T09:24:52.991Z</time></trkpt><trkpt lat="43.7455915" lon="6.3913076"><ele>883.0</ele><time>2026-05-02T09:24:53.991Z</time></trkpt><trkpt lat="43.7455452" lon="6.3911634"><ele>882.5</ele><time>2026-05-02T09:24:54.992Z</time></trkpt><trkpt lat="43.7454839" lon="6.3910177"><ele>882.0</ele><time>2026-05-02T09:24:55.992Z</time></trkpt><trkpt lat="43.7454128" lon="6.3908794"><ele>881.5</ele><time>2026-05-02T09:24:56.992Z</time></trkpt><trkpt lat="43.7452863" lon="6.3907732"><ele>881.0</ele><time>2026-05-02T09:24:57.992Z</time></trkpt><trkpt lat="43.7451825" lon="6.3907153"><ele>879.75</ele><time>2026-05-02T09:24:58.992Z</time></trkpt><trkpt lat="43.7450589" lon="6.3906686"><ele>878.5</ele><time>2026-05-02T09:24:59.991Z</time></trkpt><trkpt lat="43.7449378" lon="6.3907413"><ele>877.25</ele><time>2026-05-02T09:25:00.991Z</time></trkpt><trkpt lat="43.7448054" lon="6.3908215"><ele>876.0</ele><time>2026-05-02T09:25:01.992Z</time></trkpt><trkpt lat="43.7446781" lon="6.3908976"><ele>876.0</ele><time>2026-05-02T09:25:02.992Z</time></trkpt><trkpt lat="43.7445416" lon="6.390945"><ele>876.0</ele><time>2026-05-02T09:25:03.992Z</time></trkpt><trkpt lat="43.7444094" lon="6.3910582"><ele>876.0</ele><time>2026-05-02T09:25:04.992Z</time></trkpt><trkpt lat="43.7442691" lon="6.3911675"><ele>874.5</ele><time>2026-05-02T09:25:05.992Z</time></trkpt><trkpt lat="43.7441733" lon="6.3913182"><ele>873.0</ele><time>2026-05-02T09:25:06.992Z</time></trkpt><trkpt lat="43.7440704" lon="6.3914438"><ele>871.5</ele><time>2026-05-02T09:25:07.992Z</time></trkpt><trkpt lat="43.7439707" lon="6.3915608"><ele>870.0</ele><time>2026-05-02T09:25:08.992Z</time></trkpt><trkpt lat="43.7438713" lon="6.3916905"><ele>869.8</ele><time>2026-05-02T09:25:09.991Z</time></trkpt><trkpt lat="43.7438046" lon="6.3917406"><ele>869.6</ele><time>2026-05-02T09:25:10.992Z</time></trkpt><trkpt lat="43.7437286" lon="6.3917999"><ele>869.4000000000001</ele><time>2026-05-02T09:25:11.992Z</time></trkpt><trkpt lat="43.7436578" lon="6.3918298"><ele>869.2</ele><time>2026-05-02T09:25:12.992Z</time></trkpt><trkpt lat="43.743551" lon="6.3918073"><ele>869.0</ele><time>2026-05-02T09:25:13.992Z</time></trkpt><trkpt lat="43.7433982" lon="6.3917049"><ele>866.25</ele><time>2026-05-02T09:25:14.992Z</time></trkpt><trkpt lat="43.7432723" lon="6.3916202"><ele>863.5</ele><time>2026-05-02T09:25:15.992Z</time></trkpt><trkpt lat="43.7431437" lon="6.3915219"><ele>860.75</ele><time>2026-05-02T09:25:16.992Z</time></trkpt><trkpt lat="43.7430183" lon="6.3914432"><ele>858.0</ele><time>2026-05-02T09:25:17.992Z</time></trkpt><trkpt lat="43.7428885" lon="6.3913708"><ele>859.0</ele><time>2026-05-02T09:25:18.992Z</time></trkpt><trkpt lat="43.7427766" lon="6.3912283"><ele>860.0</ele><time>2026-05-02T09:25:19.991Z</time></trkpt><trkpt lat="43.7426768" lon="6.3910985"><ele>861.0</ele><time>2026-05-02T09:25:20.992Z</time></trkpt><trkpt lat="43.7425893" lon="6.3908873"><ele>856.6666666666667</ele><time>2026-05-02T09:25:21.992Z</time></trkpt><trkpt lat="43.7424895" lon="6.3906921"><ele>852.3333333333334</ele><time>2026-05-02T09:25:22.992Z</time></trkpt><trkpt lat="43.7423999" lon="6.3904607"><ele>848.0</ele><time>2026-05-02T09:25:23.992Z</time></trkpt><trkpt lat="43.7423211" lon="6.3902346"><ele>848.0</ele><time>2026-05-02T09:25:24.992Z</time></trkpt><trkpt lat="43.742229" lon="6.3900168"><ele>848.0</ele><time>2026-05-02T09:25:25.991Z</time></trkpt><trkpt lat="43.7421363" lon="6.3898054"><ele>848.0</ele><time>2026-05-02T09:25:26.992Z</time></trkpt><trkpt lat="43.7421027" lon="6.3895977"><ele>847.3333333333334</ele><time>2026-05-02T09:25:27.992Z</time></trkpt><trkpt lat="43.7420525" lon="6.3893837"><ele>846.6666666666667</ele><time>2026-05-02T09:25:28.991Z</time></trkpt><trkpt lat="43.7419967" lon="6.3891849"><ele>846.0</ele><time>2026-05-02T09:25:29.992Z</time></trkpt><trkpt lat="43.7419567" lon="6.388954"><ele>845.0</ele><time>2026-05-02T09:25:30.991Z</time></trkpt><trkpt lat="43.7419495" lon="6.38871"><ele>844.0</ele><time>2026-05-02T09:25:31.992Z</time></trkpt><trkpt lat="43.7419491" lon="6.3884748"><ele>843.0</ele><time>2026-05-02T09:25:32.992Z</time></trkpt><trkpt lat="43.7419623" lon="6.3882518"><ele>843.0</ele><time>2026-05-02T09:25:33.992Z</time></trkpt><trkpt lat="43.741981" lon="6.3880234"><ele>843.0</ele><time>2026-05-02T09:25:34.992Z</time></trkpt><trkpt lat="43.7420068" lon="6.3877891"><ele>843.0</ele><time>2026-05-02T09:25:35.992Z</time></trkpt><trkpt lat="43.742048" lon="6.3875572"><ele>841.0</ele><time>2026-05-02T09:25:36.991Z</time></trkpt><trkpt lat="43.7420943" lon="6.3873412"><ele>839.0</ele><time>2026-05-02T09:25:37.992Z</time></trkpt><trkpt lat="43.7421277" lon="6.3871343"><ele>837.0</ele><time>2026-05-02T09:25:38.991Z</time></trkpt><trkpt lat="43.7421617" lon="6.3869406"><ele>836.25</ele><time>2026-05-02T09:25:39.992Z</time></trkpt><trkpt lat="43.742191" lon="6.3867822"><ele>835.5</ele><time>2026-05-02T09:25:40.992Z</time></trkpt><trkpt lat="43.7421676" lon="6.3866052"><ele>834.75</ele><time>2026-05-02T09:25:41.991Z</time></trkpt><trkpt lat="43.7421453" lon="6.3864163"><ele>834.0</ele><time>2026-05-02T09:25:42.992Z</time></trkpt><trkpt lat="43.7420531" lon="6.3862356"><ele>832.75</ele><time>2026-05-02T09:25:43.991Z</time></trkpt><trkpt lat="43.7419909" lon="6.3860696"><ele>831.5</ele><time>2026-05-02T09:25:44.992Z</time></trkpt><trkpt lat="43.7419353" lon="6.3859044"><ele>830.25</ele><time>2026-05-02T09:25:45.992Z</time></trkpt><trkpt lat="43.7418863" lon="6.3857471"><ele>829.0</ele><time>2026-05-02T09:25:46.991Z</time></trkpt><trkpt lat="43.7418414" lon="6.3855654"><ele>828.0</ele><time>2026-05-02T09:25:47.991Z</time></trkpt><trkpt lat="43.7418489" lon="6.3854336"><ele>827.0</ele><time>2026-05-02T09:25:48.992Z</time></trkpt><trkpt lat="43.7418596" lon="6.3851888"><ele>826.0</ele><time>2026-05-02T09:25:49.992Z</time></trkpt><trkpt lat="43.7418715" lon="6.3849678"><ele>825.0</ele><time>2026-05-02T09:25:50.992Z</time></trkpt><trkpt lat="43.7418854" lon="6.3847673"><ele>823.6666666666667</ele><time>2026-05-02T09:25:51.992Z</time></trkpt><trkpt lat="43.7419027" lon="6.3845592"><ele>822.3333333333334</ele><time>2026-05-02T09:25:52.991Z</time></trkpt><trkpt lat="43.7419144" lon="6.3843453"><ele>821.0</ele><time>2026-05-02T09:25:53.992Z</time></trkpt><trkpt lat="43.7419541" lon="6.3841428"><ele>821.0</ele><time>2026-05-02T09:25:54.992Z</time></trkpt><trkpt lat="43.7419795" lon="6.3839549"><ele>821.0</ele><time>2026-05-02T09:25:55.991Z</time></trkpt><trkpt lat="43.74203" lon="6.3837483"><ele>821.0</ele><time>2026-05-02T09:25:56.992Z</time></trkpt><trkpt lat="43.7420888" lon="6.3835474"><ele>819.75</ele><time>2026-05-02T09:25:57.992Z</time></trkpt><trkpt lat="43.7421339" lon="6.3833847"><ele>818.5</ele><time>2026-05-02T09:25:58.992Z</time></trkpt><trkpt lat="43.742179" lon="6.3832061"><ele>817.25</ele><time>2026-05-02T09:25:59.992Z</time></trkpt><trkpt lat="43.7422377" lon="6.3830886"><ele>816.0</ele><time>2026-05-02T09:26:00.991Z</time></trkpt><trkpt lat="43.7422804" lon="6.3829582"><ele>814.8</ele><time>2026-05-02T09:26:01.992Z</time></trkpt><trkpt lat="43.7423547" lon="6.3828371"><ele>813.5999999999999</ele><time>2026-05-02T09:26:02.992Z</time></trkpt><trkpt lat="43.7424174" lon="6.3827148"><ele>812.4</ele><time>2026-05-02T09:26:03.991Z</time></trkpt><trkpt lat="43.7424432" lon="6.3826026"><ele>811.2</ele><time>2026-05-02T09:26:04.992Z</time></trkpt><trkpt lat="43.7424421" lon="6.3824715"><ele>810.0</ele><time>2026-05-02T09:26:05.991Z</time></trkpt><trkpt lat="43.7424301" lon="6.3823597"><ele>810.0</ele><time>2026-05-02T09:26:06.992Z</time></trkpt><trkpt lat="43.7423946" lon="6.3822565"><ele>810.0</ele><time>2026-05-02T09:26:07.992Z</time></trkpt><trkpt lat="43.7423465" lon="6.3821535"><ele>810.0</ele><time>2026-05-02T09:26:08.992Z</time></trkpt><trkpt lat="43.7422924" lon="6.3820495"><ele>810.0</ele><time>2026-05-02T09:26:09.992Z</time></trkpt><trkpt lat="43.7422003" lon="6.3819859"><ele>810.0</ele><time>2026-05-02T09:26:10.992Z</time></trkpt><trkpt lat="43.7420455" lon="6.3819489"><ele>807.25</ele><time>2026-05-02T09:26:11.992Z</time></trkpt><trkpt lat="43.7419215" lon="6.3819063"><ele>804.5</ele><time>2026-05-02T09:26:12.992Z</time></trkpt><trkpt lat="43.7418022" lon="6.3818721"><ele>801.75</ele><time>2026-05-02T09:26:13.992Z</time></trkpt><trkpt lat="43.7417027" lon="6.3818539"><ele>799.0</ele><time>2026-05-02T09:26:14.992Z</time></trkpt><trkpt lat="43.7415986" lon="6.3818603"><ele>798.5</ele><time>2026-05-02T09:26:15.992Z</time></trkpt><trkpt lat="43.7415054" lon="6.3819631"><ele>798.0</ele><time>2026-05-02T09:26:16.992Z</time></trkpt><trkpt lat="43.741403" lon="6.3820493"><ele>797.5</ele><time>2026-05-02T09:26:17.991Z</time></trkpt><trkpt lat="43.7412933" lon="6.3821303"><ele>797.0</ele><time>2026-05-02T09:26:18.992Z</time></trkpt><trkpt lat="43.7411905" lon="6.3821706"><ele>797.4000000000001</ele><time>2026-05-02T09:26:19.991Z</time></trkpt><trkpt lat="43.74108" lon="6.3822174"><ele>797.8000000000001</ele><time>2026-05-02T09:26:20.991Z</time></trkpt><trkpt lat="43.7409747" lon="6.3822"><ele>798.2</ele><time>2026-05-02T09:26:21.992Z</time></trkpt><trkpt lat="43.7408618" lon="6.3821494"><ele>798.6</ele><time>2026-05-02T09:26:22.992Z</time></trkpt><trkpt lat="43.7407776" lon="6.3820827"><ele>799.0</ele><time>2026-05-02T09:26:23.992Z</time></trkpt><trkpt lat="43.7406748" lon="6.3820394"><ele>796.8333333333333</ele><time>2026-05-02T09:26:24.992Z</time></trkpt><trkpt lat="43.7405843" lon="6.3820125"><ele>794.6666666666666</ele><time>2026-05-02T09:26:25.992Z</time></trkpt><trkpt lat="43.740491" lon="6.3820029"><ele>792.5</ele><time>2026-05-02T09:26:26.992Z</time></trkpt><trkpt lat="43.7404039" lon="6.3819925"><ele>790.3333333333333</ele><time>2026-05-02T09:26:27.992Z</time></trkpt><trkpt lat="43.7403302" lon="6.3819805"><ele>788.1666666666666</ele><time>2026-05-02T09:26:28.992Z</time></trkpt><trkpt lat="43.74024" lon="6.3819777"><ele>786.0</ele><time>2026-05-02T09:26:29.992Z</time></trkpt><trkpt lat="43.7401379" lon="6.3819626"><ele>786.0000000000001</ele><time>2026-05-02T09:26:31.992Z</time></trkpt><trkpt lat="43.7400733" lon="6.381959"><ele>786.0</ele><time>2026-05-02T09:26:32.991Z</time></trkpt><trkpt lat="43.7400076" lon="6.3819525"><ele>786.0</ele><time>2026-05-02T09:26:34.992Z</time></trkpt><trkpt lat="43.7399505" lon="6.382033"><ele>786.0</ele><time>2026-05-02T09:26:39.992Z</time></trkpt><trkpt lat="43.7399657" lon="6.3821219"><ele>786.0</ele><time>2026-05-02T09:26:42.992Z</time></trkpt><trkpt lat="43.73997" lon="6.3822152"><ele>786.0000000000001</ele><time>2026-05-02T09:26:46.992Z</time></trkpt><trkpt lat="43.7399793" lon="6.3821188"><ele>786.0</ele><time>2026-05-02T09:28:21.992Z</time></trkpt><trkpt lat="43.7399867" lon="6.3820197"><ele>786.0000000000001</ele><time>2026-05-02T09:28:26.991Z</time></trkpt><trkpt lat="43.7400061" lon="6.3819278"><ele>786.0</ele><time>2026-05-02T09:28:34.027Z</time></trkpt><trkpt lat="43.7399795" lon="6.3818441"><ele>786.0</ele><time>2026-05-02T09:28:39.992Z</time></trkpt><trkpt lat="43.739992" lon="6.3817506"><ele>786.0</ele><time>2026-05-02T09:28:50.992Z</time></trkpt><trkpt lat="43.7399985" lon="6.3818483"><ele>786.0</ele><time>2026-05-02T09:31:00.992Z</time></trkpt><trkpt lat="43.7399943" lon="6.3819372"><ele>786.0000000000001</ele><time>2026-05-02T09:31:06.001Z</time></trkpt><trkpt lat="43.740005" lon="6.3820338"><ele>786.0</ele><time>2026-05-02T09:31:12.992Z</time></trkpt><trkpt lat="43.7400048" lon="6.3821269"><ele>786.0000000000001</ele><time>2026-05-02T09:31:20.936Z</time></trkpt><trkpt lat="43.7399781" lon="6.3820363"><ele>786.0</ele><time>2026-05-02T09:32:07.991Z</time></trkpt><trkpt lat="43.7399716" lon="6.3819489"><ele>786.0</ele><time>2026-05-02T09:32:13.992Z</time></trkpt><trkpt lat="43.7399862" lon="6.3818522"><ele>786.0</ele><time>2026-05-02T09:32:23.991Z</time></trkpt><trkpt lat="43.7399928" lon="6.38176"><ele>786.0</ele><time>2026-05-02T09:32:31.991Z</time></trkpt><trkpt lat="43.7399298" lon="6.3817261"><ele>786.0000000000001</ele><time>2026-05-02T09:33:17.956Z</time></trkpt><trkpt lat="43.7398753" lon="6.3816776"><ele>786.0</ele><time>2026-05-02T09:33:22.99Z</time></trkpt><trkpt lat="43.7398182" lon="6.3816391"><ele>786.0000000000001</ele><time>2026-05-02T09:33:27.955Z</time></trkpt><trkpt lat="43.7397583" lon="6.3816033"><ele>786.0</ele><time>2026-05-02T09:33:32.991Z</time></trkpt><trkpt lat="43.7397004" lon="6.3815685"><ele>786.0</ele><time>2026-05-02T09:33:37.99Z</time></trkpt><trkpt lat="43.7396382" lon="6.3815209"><ele>786.0</ele><time>2026-05-02T09:33:43.894Z</time></trkpt><trkpt lat="43.7395675" lon="6.381489"><ele>786.0</ele><time>2026-05-02T09:33:50.033Z</time></trkpt><trkpt lat="43.7394987" lon="6.3814574"><ele>786.0000000000001</ele><time>2026-05-02T09:33:56.017Z</time></trkpt><trkpt lat="43.7394302" lon="6.3814208"><ele>786.0</ele><time>2026-05-02T09:34:02.018Z</time></trkpt><trkpt lat="43.7393639" lon="6.381386"><ele>784.7142857142858</ele><time>2026-05-02T09:34:07.991Z</time></trkpt><trkpt lat="43.7392921" lon="6.3813651"><ele>783.4285714285714</ele><time>2026-05-02T09:34:14.991Z</time></trkpt><trkpt lat="43.7392325" lon="6.3813273"><ele>782.1428571428571</ele><time>2026-05-02T09:34:19.991Z</time></trkpt><trkpt lat="43.7391717" lon="6.3812993"><ele>780.8571428571429</ele><time>2026-05-02T09:34:24.991Z</time></trkpt><trkpt lat="43.7391671" lon="6.3812088"><ele>779.5714285714286</ele><time>2026-05-02T09:34:30.956Z</time></trkpt><trkpt lat="43.7392458" lon="6.3811947"><ele>778.2857142857143</ele><time>2026-05-02T09:34:34.99Z</time></trkpt><trkpt lat="43.7393206" lon="6.3812064"><ele>777.0</ele><time>2026-05-02T09:34:39.937Z</time></trkpt><trkpt lat="43.7393896" lon="6.3812155"><ele>776.4285714285714</ele><time>2026-05-02T09:34:44.974Z</time></trkpt><trkpt lat="43.7393938" lon="6.3811266"><ele>775.8571428571429</ele><time>2026-05-02T09:34:52.991Z</time></trkpt><trkpt lat="43.7393281" lon="6.3811562"><ele>775.2857142857142</ele><time>2026-05-02T09:35:03.991Z</time></trkpt><trkpt lat="43.7392594" lon="6.3810977"><ele>774.7142857142858</ele><time>2026-05-02T09:36:22.991Z</time></trkpt><trkpt lat="43.7392087" lon="6.3810306"><ele>774.1428571428571</ele><time>2026-05-02T09:36:28.991Z</time></trkpt><trkpt lat="43.7392575" lon="6.3810991"><ele>773.5714285714286</ele><time>2026-05-02T09:40:52.056Z</time></trkpt><trkpt lat="43.7392565" lon="6.381199"><ele>773.0</ele><time>2026-05-02T09:40:58.99Z</time></trkpt><trkpt lat="43.7392758" lon="6.3812825"><ele>773.5714285714286</ele><time>2026-05-02T09:41:04.99Z</time></trkpt><trkpt lat="43.7392355" lon="6.3813516"><ele>774.1428571428571</ele><time>2026-05-02T09:41:17.99Z</time></trkpt><trkpt lat="43.7392905" lon="6.381306"><ele>774.7142857142858</ele><time>2026-05-02T09:41:34.015Z</time></trkpt><trkpt lat="43.7393595" lon="6.3813082"><ele>775.2857142857142</ele><time>2026-05-02T09:41:41.991Z</time></trkpt><trkpt lat="43.739404" lon="6.381373"><ele>775.8571428571429</ele><time>2026-05-02T09:41:55.991Z</time></trkpt><trkpt lat="43.7394346" lon="6.38145"><ele>776.4285714285714</ele><time>2026-05-02T09:41:59.991Z</time></trkpt><trkpt lat="43.739439" lon="6.3815556"><ele>777.0</ele><time>2026-05-02T09:42:05.995Z</time></trkpt><trkpt lat="43.7395104" lon="6.3815755"><ele>778.2857142857143</ele><time>2026-05-02T09:42:10.936Z</time></trkpt><trkpt lat="43.7395724" lon="6.3815976"><ele>779.5714285714286</ele><time>2026-05-02T09:42:30.991Z</time></trkpt><trkpt lat="43.7396267" lon="6.3816463"><ele>780.8571428571429</ele><time>2026-05-02T09:42:36.991Z</time></trkpt><trkpt lat="43.7396727" lon="6.3817067"><ele>782.1428571428571</ele><time>2026-05-02T09:42:42.991Z</time></trkpt><trkpt lat="43.7397365" lon="6.381738"><ele>783.4285714285714</ele><time>2026-05-02T09:42:54.991Z</time></trkpt><trkpt lat="43.7398006" lon="6.3817692"><ele>784.7142857142858</ele><time>2026-05-02T09:43:02.991Z</time></trkpt><trkpt lat="43.7398739" lon="6.3817662"><ele>786.0</ele><time>2026-05-02T09:43:09.952Z</time></trkpt><trkpt lat="43.7399317" lon="6.3817085"><ele>786.0000000000001</ele><time>2026-05-02T09:43:14.994Z</time></trkpt><trkpt lat="43.7399949" lon="6.3817025"><ele>786.0</ele><time>2026-05-02T09:43:18.951Z</time></trkpt><trkpt lat="43.7400528" lon="6.3817629"><ele>786.0</ele><time>2026-05-02T09:43:24.005Z</time></trkpt><trkpt lat="43.7401045" lon="6.3818363"><ele>786.0</ele><time>2026-05-02T09:43:30.022Z</time></trkpt><trkpt lat="43.7401545" lon="6.3819077"><ele>786.0</ele><time>2026-05-02T09:43:35.99Z</time></trkpt><trkpt lat="43.7402194" lon="6.3819556"><ele>786.0000000000001</ele><time>2026-05-02T09:43:42.991Z</time></trkpt><trkpt lat="43.7402922" lon="6.3819603"><ele>786.0</ele><time>2026-05-02T09:43:49.01Z</time></trkpt><trkpt lat="43.7403665" lon="6.3819734"><ele>786.0000000000001</ele><time>2026-05-02T09:43:55.991Z</time></trkpt><trkpt lat="43.7404354" lon="6.3819766"><ele>786.0</ele><time>2026-05-02T09:44:01.91Z</time></trkpt><trkpt lat="43.7404989" lon="6.381975"><ele>786.0</ele><time>2026-05-02T09:44:06.991Z</time></trkpt><trkpt lat="43.7405697" lon="6.3819873"><ele>786.0</ele><time>2026-05-02T09:44:12.993Z</time></trkpt><trkpt lat="43.7406375" lon="6.3820091"><ele>786.0</ele><time>2026-05-02T09:44:19.005Z</time></trkpt><trkpt lat="43.740702" lon="6.3820271"><ele>786.0000000000001</ele><time>2026-05-02T09:44:24.991Z</time></trkpt><trkpt lat="43.7407662" lon="6.382047"><ele>786.0</ele><time>2026-05-02T09:44:30.991Z</time></trkpt><trkpt lat="43.7408331" lon="6.3820753"><ele>786.0000000000001</ele><time>2026-05-02T09:44:36.99Z</time></trkpt><trkpt lat="43.7408992" lon="6.3821128"><ele>786.0</ele><time>2026-05-02T09:44:43.955Z</time></trkpt><trkpt lat="43.7409685" lon="6.3821462"><ele>786.0</ele><time>2026-05-02T09:44:50.007Z</time></trkpt><trkpt lat="43.7410333" lon="6.3821704"><ele>786.0</ele><time>2026-05-02T09:44:56.049Z</time></trkpt><trkpt lat="43.7410931" lon="6.382198"><ele>786.0</ele><time>2026-05-02T09:45:01.991Z</time></trkpt><trkpt lat="43.7411641" lon="6.382217"><ele>786.0000000000001</ele><time>2026-05-02T09:45:08.991Z</time></trkpt><trkpt lat="43.741223" lon="6.382164"><ele>786.0</ele><time>2026-05-02T09:45:16.062Z</time></trkpt><trkpt lat="43.7412294" lon="6.3820747"><ele>787.5714285714287</ele><time>2026-05-02T09:45:21.991Z</time></trkpt><trkpt lat="43.7412234" lon="6.381979"><ele>789.1428571428571</ele><time>2026-05-02T09:45:28.919Z</time></trkpt><trkpt lat="43.741224" lon="6.3818911"><ele>790.7142857142858</ele><time>2026-05-02T09:45:34.991Z</time></trkpt><trkpt lat="43.741237" lon="6.3817939"><ele>792.2857142857143</ele><time>2026-05-02T09:45:40.932Z</time></trkpt><trkpt lat="43.7411794" lon="6.3817294"><ele>793.8571428571429</ele><time>2026-05-02T09:45:46.991Z</time></trkpt><trkpt lat="43.7411188" lon="6.3816935"><ele>795.4285714285714</ele><time>2026-05-02T09:45:51.901Z</time></trkpt><trkpt lat="43.7410924" lon="6.3816119"><ele>797.0</ele><time>2026-05-02T09:45:57.994Z</time></trkpt><trkpt lat="43.7410604" lon="6.3815257"><ele>797.0</ele><time>2026-05-02T09:46:03.991Z</time></trkpt><trkpt lat="43.7410071" lon="6.3814592"><ele>797.0</ele><time>2026-05-02T09:46:10.991Z</time></trkpt><trkpt lat="43.7409437" lon="6.3814382"><ele>797.0</ele><time>2026-05-02T09:46:18.022Z</time></trkpt><trkpt lat="43.7410082" lon="6.3814879"><ele>797.0</ele><time>2026-05-02T09:48:31.991Z</time></trkpt><trkpt lat="43.7410531" lon="6.381555"><ele>797.0</ele><time>2026-05-02T09:48:36.955Z</time></trkpt><trkpt lat="43.7410653" lon="6.3816468"><ele>797.0</ele><time>2026-05-02T09:48:43.991Z</time></trkpt><trkpt lat="43.7410911" lon="6.3817368"><ele>797.0</ele><time>2026-05-02T09:48:51.991Z</time></trkpt><trkpt lat="43.741158" lon="6.3817627"><ele>797.0</ele><time>2026-05-02T09:48:58.991Z</time></trkpt><trkpt lat="43.7412187" lon="6.3818045"><ele>797.0</ele><time>2026-05-02T09:49:07.995Z</time></trkpt><trkpt lat="43.741218" lon="6.3818992"><ele>797.0</ele><time>2026-05-02T09:49:15.995Z</time></trkpt><trkpt lat="43.7412036" lon="6.3819869"><ele>797.0</ele><time>2026-05-02T09:49:22.991Z</time></trkpt><trkpt lat="43.7412081" lon="6.382083"><ele>797.0</ele><time>2026-05-02T09:49:30.034Z</time></trkpt><trkpt lat="43.7411927" lon="6.3821739"><ele>797.0</ele><time>2026-05-02T09:49:35.919Z</time></trkpt><trkpt lat="43.7411343" lon="6.3822083"><ele>797.0</ele><time>2026-05-02T09:49:40.901Z</time></trkpt><trkpt lat="43.74107" lon="6.3821595"><ele>795.4285714285714</ele><time>2026-05-02T09:49:44.99Z</time></trkpt><trkpt lat="43.7410125" lon="6.3821158"><ele>793.8571428571429</ele><time>2026-05-02T09:49:49.995Z</time></trkpt><trkpt lat="43.740942" lon="6.3820936"><ele>792.2857142857143</ele><time>2026-05-02T09:49:55.991Z</time></trkpt><trkpt lat="43.7408741" lon="6.3820609"><ele>790.7142857142858</ele><time>2026-05-02T09:50:01.991Z</time></trkpt><trkpt lat="43.7408075" lon="6.3820429"><ele>789.1428571428571</ele><time>2026-05-02T09:50:06.996Z</time></trkpt><trkpt lat="43.7407416" lon="6.3820029"><ele>787.5714285714287</ele><time>2026-05-02T09:50:11.991Z</time></trkpt><trkpt lat="43.7406783" lon="6.3819828"><ele>786.0</ele><time>2026-05-02T09:50:16.99Z</time></trkpt><trkpt lat="43.7406106" lon="6.3819387"><ele>786.0000000000001</ele><time>2026-05-02T09:50:22.991Z</time></trkpt><trkpt lat="43.7405433" lon="6.3819239"><ele>786.0</ele><time>2026-05-02T09:50:28.991Z</time></trkpt><trkpt lat="43.7404874" lon="6.3819739"><ele>786.0</ele><time>2026-05-02T09:50:33.913Z</time></trkpt><trkpt lat="43.7404218" lon="6.3820145"><ele>786.0</ele><time>2026-05-02T09:50:39.921Z</time></trkpt><trkpt lat="43.7403529" lon="6.3820267"><ele>786.0</ele><time>2026-05-02T09:50:44.991Z</time></trkpt><trkpt lat="43.740292" lon="6.3820717"><ele>786.0000000000001</ele><time>2026-05-02T09:50:50.991Z</time></trkpt><trkpt lat="43.7402305" lon="6.3821151"><ele>786.0</ele><time>2026-05-02T09:50:57.991Z</time></trkpt><trkpt lat="43.7401693" lon="6.3821415"><ele>786.0</ele><time>2026-05-02T09:51:05.006Z</time></trkpt><trkpt lat="43.7400987" lon="6.3821656"><ele>786.0</ele><time>2026-05-02T09:51:10.959Z</time></trkpt><trkpt lat="43.7400283" lon="6.3821858"><ele>788.0</ele><time>2026-05-02T09:51:16.99Z</time></trkpt><trkpt lat="43.73995" lon="6.382166"><ele>786.0</ele><time>2026-05-02T09:53:36.991Z</time></trkpt></trkseg><trkseg><trkpt lat="43.7400289" lon="6.3821938"><ele>787.6666666666667</ele><time>2026-05-02T10:04:00.988Z</time></trkpt><trkpt lat="43.7401061" lon="6.3821806"><ele>787.3333333333334</ele><time>2026-05-02T10:04:05.988Z</time></trkpt><trkpt lat="43.7401934" lon="6.3821363"><ele>787.0</ele><time>2026-05-02T10:04:09.988Z</time></trkpt><trkpt lat="43.7402476" lon="6.3820731"><ele>786.6666666666667</ele><time>2026-05-02T10:04:13.988Z</time></trkpt><trkpt lat="43.7402423" lon="6.3819809"><ele>786.3333333333334</ele><time>2026-05-02T10:04:35.988Z</time></trkpt><trkpt lat="43.7401891" lon="6.3819309"><ele>786.0</ele><time>2026-05-02T10:04:37.988Z</time></trkpt><trkpt lat="43.7400798" lon="6.3818493"><ele>786.0</ele><time>2026-05-02T10:04:39.988Z</time></trkpt><trkpt lat="43.7400216" lon="6.3818056"><ele>786.0</ele><time>2026-05-02T10:04:40.988Z</time></trkpt><trkpt lat="43.739953" lon="6.3817592"><ele>786.0</ele><time>2026-05-02T10:04:41.988Z</time></trkpt><trkpt lat="43.7398741" lon="6.3817095"><ele>786.0</ele><time>2026-05-02T10:04:42.987Z</time></trkpt><trkpt lat="43.7398062" lon="6.381651"><ele>786.0</ele><time>2026-05-02T10:04:43.988Z</time></trkpt><trkpt lat="43.7397441" lon="6.3815934"><ele>786.0</ele><time>2026-05-02T10:04:44.988Z</time></trkpt><trkpt lat="43.7396847" lon="6.3815378"><ele>786.0</ele><time>2026-05-02T10:04:45.988Z</time></trkpt><trkpt lat="43.7396013" lon="6.3814816"><ele>786.0</ele><time>2026-05-02T10:04:46.988Z</time></trkpt><trkpt lat="43.7395305" lon="6.381434"><ele>786.0</ele><time>2026-05-02T10:04:47.988Z</time></trkpt><trkpt lat="43.7394462" lon="6.3813868"><ele>786.0</ele><time>2026-05-02T10:04:48.988Z</time></trkpt><trkpt lat="43.7393794" lon="6.3813329"><ele>786.0</ele><time>2026-05-02T10:04:49.988Z</time></trkpt><trkpt lat="43.7393022" lon="6.3812802"><ele>786.0</ele><time>2026-05-02T10:04:50.988Z</time></trkpt><trkpt lat="43.7392267" lon="6.3812423"><ele>784.1999999999999</ele><time>2026-05-02T10:04:51.988Z</time></trkpt><trkpt lat="43.7391295" lon="6.3812377"><ele>782.4</ele><time>2026-05-02T10:04:52.988Z</time></trkpt><trkpt lat="43.7390013" lon="6.3812786"><ele>780.6</ele><time>2026-05-02T10:04:53.988Z</time></trkpt><trkpt lat="43.7388972" lon="6.3813265"><ele>778.8</ele><time>2026-05-02T10:04:54.987Z</time></trkpt><trkpt lat="43.7388046" lon="6.3813975"><ele>777.0</ele><time>2026-05-02T10:04:55.988Z</time></trkpt><trkpt lat="43.7387164" lon="6.3814779"><ele>777.0</ele><time>2026-05-02T10:04:56.988Z</time></trkpt><trkpt lat="43.7386339" lon="6.3815881"><ele>777.0</ele><time>2026-05-02T10:04:57.988Z</time></trkpt><trkpt lat="43.7385464" lon="6.3817009"><ele>777.0</ele><time>2026-05-02T10:04:58.988Z</time></trkpt><trkpt lat="43.7384656" lon="6.3818275"><ele>777.0</ele><time>2026-05-02T10:04:59.988Z</time></trkpt><trkpt lat="43.7383768" lon="6.3819382"><ele>777.5</ele><time>2026-05-02T10:05:00.988Z</time></trkpt><trkpt lat="43.7382875" lon="6.3820502"><ele>778.0</ele><time>2026-05-02T10:05:01.988Z</time></trkpt><trkpt lat="43.7381947" lon="6.3821607"><ele>778.5</ele><time>2026-05-02T10:05:02.987Z</time></trkpt><trkpt lat="43.7380924" lon="6.3822685"><ele>779.0</ele><time>2026-05-02T10:05:03.988Z</time></trkpt><trkpt lat="43.7379842" lon="6.3823741"><ele>779.0</ele><time>2026-05-02T10:05:04.988Z</time></trkpt><trkpt lat="43.7378812" lon="6.3824779"><ele>779.0</ele><time>2026-05-02T10:05:05.987Z</time></trkpt><trkpt lat="43.737786" lon="6.3825996"><ele>779.0</ele><time>2026-05-02T10:05:06.988Z</time></trkpt><trkpt lat="43.7377031" lon="6.3827213"><ele>779.0</ele><time>2026-05-02T10:05:07.988Z</time></trkpt><trkpt lat="43.737618" lon="6.3828474"><ele>778.0</ele><time>2026-05-02T10:05:08.988Z</time></trkpt><trkpt lat="43.7375347" lon="6.3829777"><ele>777.0</ele><time>2026-05-02T10:05:09.988Z</time></trkpt><trkpt lat="43.7374716" lon="6.3831063"><ele>776.0</ele><time>2026-05-02T10:05:10.988Z</time></trkpt><trkpt lat="43.7374287" lon="6.3832574"><ele>775.0</ele><time>2026-05-02T10:05:11.987Z</time></trkpt><trkpt lat="43.7373767" lon="6.3834437"><ele>776.5</ele><time>2026-05-02T10:05:12.988Z</time></trkpt><trkpt lat="43.7374141" lon="6.3836377"><ele>778.0</ele><time>2026-05-02T10:05:13.988Z</time></trkpt><trkpt lat="43.7374465" lon="6.3838175"><ele>779.5</ele><time>2026-05-02T10:05:14.988Z</time></trkpt><trkpt lat="43.7374962" lon="6.3839889"><ele>781.0</ele><time>2026-05-02T10:05:15.988Z</time></trkpt><trkpt lat="43.7375982" lon="6.3841504"><ele>781.0</ele><time>2026-05-02T10:05:16.988Z</time></trkpt><trkpt lat="43.7376996" lon="6.3843223"><ele>781.0</ele><time>2026-05-02T10:05:17.988Z</time></trkpt><trkpt lat="43.7377934" lon="6.384489"><ele>781.0</ele><time>2026-05-02T10:05:18.988Z</time></trkpt><trkpt lat="43.7378878" lon="6.384649"><ele>783.5</ele><time>2026-05-02T10:05:19.987Z</time></trkpt><trkpt lat="43.7379822" lon="6.384803"><ele>786.0</ele><time>2026-05-02T10:05:20.988Z</time></trkpt><trkpt lat="43.7380732" lon="6.3849672"><ele>788.5</ele><time>2026-05-02T10:05:21.988Z</time></trkpt><trkpt lat="43.7381605" lon="6.3851351"><ele>791.0</ele><time>2026-05-02T10:05:22.988Z</time></trkpt><trkpt lat="43.7382593" lon="6.3852953"><ele>791.0</ele><time>2026-05-02T10:05:23.987Z</time></trkpt><trkpt lat="43.7383496" lon="6.3854691"><ele>791.0</ele><time>2026-05-02T10:05:24.988Z</time></trkpt><trkpt lat="43.738446" lon="6.385639"><ele>791.0</ele><time>2026-05-02T10:05:25.988Z</time></trkpt><trkpt lat="43.7385389" lon="6.3858002"><ele>793.5</ele><time>2026-05-02T10:05:26.988Z</time></trkpt><trkpt lat="43.7386061" lon="6.3859677"><ele>796.0</ele><time>2026-05-02T10:05:27.988Z</time></trkpt><trkpt lat="43.7386791" lon="6.3861501"><ele>798.5</ele><time>2026-05-02T10:05:28.988Z</time></trkpt><trkpt lat="43.7387424" lon="6.3863217"><ele>801.0</ele><time>2026-05-02T10:05:29.988Z</time></trkpt><trkpt lat="43.7387888" lon="6.3864956"><ele>801.5</ele><time>2026-05-02T10:05:30.988Z</time></trkpt><trkpt lat="43.7388279" lon="6.3866787"><ele>802.0</ele><time>2026-05-02T10:05:31.988Z</time></trkpt><trkpt lat="43.7388333" lon="6.3868502"><ele>802.5</ele><time>2026-05-02T10:05:32.988Z</time></trkpt><trkpt lat="43.7388506" lon="6.3870295"><ele>803.0</ele><time>2026-05-02T10:05:33.988Z</time></trkpt><trkpt lat="43.7388552" lon="6.387174"><ele>802.75</ele><time>2026-05-02T10:05:34.988Z</time></trkpt><trkpt lat="43.7388831" lon="6.3873163"><ele>802.5</ele><time>2026-05-02T10:05:35.988Z</time></trkpt><trkpt lat="43.7388401" lon="6.38747"><ele>802.25</ele><time>2026-05-02T10:05:36.988Z</time></trkpt><trkpt lat="43.738783" lon="6.3876053"><ele>802.0</ele><time>2026-05-02T10:05:37.988Z</time></trkpt><trkpt lat="43.7387293" lon="6.3877488"><ele>802.0</ele><time>2026-05-02T10:05:38.988Z</time></trkpt><trkpt lat="43.7386494" lon="6.3878656"><ele>802.0</ele><time>2026-05-02T10:05:39.988Z</time></trkpt><trkpt lat="43.738563" lon="6.3879553"><ele>802.0</ele><time>2026-05-02T10:05:40.988Z</time></trkpt><trkpt lat="43.7384562" lon="6.3880141"><ele>802.0</ele><time>2026-05-02T10:05:41.988Z</time></trkpt><trkpt lat="43.7383398" lon="6.3880565"><ele>800.75</ele><time>2026-05-02T10:05:42.987Z</time></trkpt><trkpt lat="43.7382185" lon="6.3881113"><ele>799.5</ele><time>2026-05-02T10:05:43.988Z</time></trkpt><trkpt lat="43.7380924" lon="6.3881585"><ele>798.25</ele><time>2026-05-02T10:05:44.988Z</time></trkpt><trkpt lat="43.7379679" lon="6.3882173"><ele>797.0</ele><time>2026-05-02T10:05:45.988Z</time></trkpt><trkpt lat="43.7378376" lon="6.3882633"><ele>797.0</ele><time>2026-05-02T10:05:46.987Z</time></trkpt><trkpt lat="43.7377297" lon="6.38835"><ele>797.0</ele><time>2026-05-02T10:05:47.988Z</time></trkpt><trkpt lat="43.7376382" lon="6.3884495"><ele>797.0</ele><time>2026-05-02T10:05:48.987Z</time></trkpt><trkpt lat="43.7375626" lon="6.3886267"><ele>797.0</ele><time>2026-05-02T10:05:49.988Z</time></trkpt><trkpt lat="43.7374706" lon="6.3888011"><ele>797.3333333333334</ele><time>2026-05-02T10:05:50.988Z</time></trkpt><trkpt lat="43.737378" lon="6.3889705"><ele>797.6666666666667</ele><time>2026-05-02T10:05:51.988Z</time></trkpt><trkpt lat="43.7372838" lon="6.3891537"><ele>798.0</ele><time>2026-05-02T10:05:52.988Z</time></trkpt><trkpt lat="43.7371885" lon="6.3893152"><ele>798.0</ele><time>2026-05-02T10:05:53.987Z</time></trkpt><trkpt lat="43.7371009" lon="6.389496"><ele>798.0</ele><time>2026-05-02T10:05:54.988Z</time></trkpt><trkpt lat="43.7370015" lon="6.3896827"><ele>798.0</ele><time>2026-05-02T10:05:55.988Z</time></trkpt><trkpt lat="43.7369054" lon="6.3898557"><ele>797.6666666666667</ele><time>2026-05-02T10:05:56.988Z</time></trkpt><trkpt lat="43.7368039" lon="6.3900341"><ele>797.3333333333334</ele><time>2026-05-02T10:05:57.988Z</time></trkpt><trkpt lat="43.7367104" lon="6.3902121"><ele>797.0</ele><time>2026-05-02T10:05:58.988Z</time></trkpt><trkpt lat="43.7366077" lon="6.3904073"><ele>798.6666666666667</ele><time>2026-05-02T10:05:59.988Z</time></trkpt><trkpt lat="43.7365073" lon="6.3905703"><ele>800.3333333333333</ele><time>2026-05-02T10:06:00.987Z</time></trkpt><trkpt lat="43.7364205" lon="6.390745"><ele>802.0</ele><time>2026-05-02T10:06:01.988Z</time></trkpt><trkpt lat="43.7363201" lon="6.3909212"><ele>802.0</ele><time>2026-05-02T10:06:02.988Z</time></trkpt><trkpt lat="43.7362211" lon="6.3910992"><ele>802.0</ele><time>2026-05-02T10:06:03.988Z</time></trkpt><trkpt lat="43.7361246" lon="6.3912678"><ele>802.0</ele><time>2026-05-02T10:06:04.988Z</time></trkpt><trkpt lat="43.7360265" lon="6.3914394"><ele>801.0</ele><time>2026-05-02T10:06:05.988Z</time></trkpt><trkpt lat="43.7359221" lon="6.3915876"><ele>800.0</ele><time>2026-05-02T10:06:06.988Z</time></trkpt><trkpt lat="43.7358354" lon="6.3917875"><ele>799.0</ele><time>2026-05-02T10:06:07.988Z</time></trkpt><trkpt lat="43.7357375" lon="6.3919395"><ele>799.0</ele><time>2026-05-02T10:06:08.987Z</time></trkpt><trkpt lat="43.7356561" lon="6.3921217"><ele>799.0</ele><time>2026-05-02T10:06:09.988Z</time></trkpt><trkpt lat="43.7355595" lon="6.3922577"><ele>799.0</ele><time>2026-05-02T10:06:10.988Z</time></trkpt><trkpt lat="43.7354665" lon="6.3924211"><ele>799.0</ele><time>2026-05-02T10:06:11.988Z</time></trkpt><trkpt lat="43.7353788" lon="6.3925944"><ele>799.3333333333333</ele><time>2026-05-02T10:06:12.988Z</time></trkpt><trkpt lat="43.7352992" lon="6.3927777"><ele>799.6666666666667</ele><time>2026-05-02T10:06:13.988Z</time></trkpt><trkpt lat="43.7352071" lon="6.3929352"><ele>800.0</ele><time>2026-05-02T10:06:14.988Z</time></trkpt><trkpt lat="43.7351152" lon="6.3931054"><ele>797.75</ele><time>2026-05-02T10:06:15.988Z</time></trkpt><trkpt lat="43.735042" lon="6.3932525"><ele>795.5</ele><time>2026-05-02T10:06:16.988Z</time></trkpt><trkpt lat="43.7349679" lon="6.3934066"><ele>793.25</ele><time>2026-05-02T10:06:17.988Z</time></trkpt><trkpt lat="43.7349108" lon="6.3935094"><ele>791.0</ele><time>2026-05-02T10:06:18.988Z</time></trkpt><trkpt lat="43.7348496" lon="6.3936264"><ele>791.0</ele><time>2026-05-02T10:06:19.988Z</time></trkpt><trkpt lat="43.7347901" lon="6.3936645"><ele>791.0</ele><time>2026-05-02T10:06:20.988Z</time></trkpt><trkpt lat="43.734716" lon="6.3937291"><ele>791.0</ele><time>2026-05-02T10:06:21.988Z</time></trkpt><trkpt lat="43.7346427" lon="6.3937162"><ele>791.0</ele><time>2026-05-02T10:06:22.988Z</time></trkpt><trkpt lat="43.7345619" lon="6.3936883"><ele>791.0</ele><time>2026-05-02T10:06:23.987Z</time></trkpt><trkpt lat="43.7344542" lon="6.3935323"><ele>791.0</ele><time>2026-05-02T10:06:24.988Z</time></trkpt><trkpt lat="43.7344147" lon="6.393376"><ele>791.0</ele><time>2026-05-02T10:06:25.988Z</time></trkpt><trkpt lat="43.7343884" lon="6.3932378"><ele>791.0</ele><time>2026-05-02T10:06:26.988Z</time></trkpt><trkpt lat="43.7343601" lon="6.3930807"><ele>791.0</ele><time>2026-05-02T10:06:27.988Z</time></trkpt><trkpt lat="43.7343182" lon="6.392931"><ele>787.75</ele><time>2026-05-02T10:06:28.988Z</time></trkpt><trkpt lat="43.7342595" lon="6.3927858"><ele>784.5</ele><time>2026-05-02T10:06:29.988Z</time></trkpt><trkpt lat="43.7341918" lon="6.392654"><ele>781.25</ele><time>2026-05-02T10:06:30.988Z</time></trkpt><trkpt lat="43.734096" lon="6.3925391"><ele>778.0</ele><time>2026-05-02T10:06:31.988Z</time></trkpt><trkpt lat="43.7339909" lon="6.3924213"><ele>778.0</ele><time>2026-05-02T10:06:32.988Z</time></trkpt><trkpt lat="43.7338834" lon="6.3922794"><ele>778.0</ele><time>2026-05-02T10:06:33.988Z</time></trkpt><trkpt lat="43.7337517" lon="6.3921625"><ele>778.0</ele><time>2026-05-02T10:06:34.988Z</time></trkpt><trkpt lat="43.7336236" lon="6.3920639"><ele>775.0</ele><time>2026-05-02T10:06:35.988Z</time></trkpt><trkpt lat="43.7335018" lon="6.3919711"><ele>772.0</ele><time>2026-05-02T10:06:36.988Z</time></trkpt><trkpt lat="43.7333782" lon="6.3918788"><ele>769.0</ele><time>2026-05-02T10:06:37.987Z</time></trkpt><trkpt lat="43.7332678" lon="6.3917762"><ele>766.0</ele><time>2026-05-02T10:06:38.988Z</time></trkpt><trkpt lat="43.7331587" lon="6.3916644"><ele>766.0</ele><time>2026-05-02T10:06:39.988Z</time></trkpt><trkpt lat="43.7330185" lon="6.3915356"><ele>766.0</ele><time>2026-05-02T10:06:40.988Z</time></trkpt><trkpt lat="43.7328895" lon="6.3914234"><ele>766.0</ele><time>2026-05-02T10:06:41.988Z</time></trkpt><trkpt lat="43.7327666" lon="6.3912992"><ele>764.5</ele><time>2026-05-02T10:06:42.987Z</time></trkpt><trkpt lat="43.7326324" lon="6.391183"><ele>763.0</ele><time>2026-05-02T10:06:43.988Z</time></trkpt><trkpt lat="43.7325036" lon="6.3910547"><ele>761.5</ele><time>2026-05-02T10:06:44.988Z</time></trkpt><trkpt lat="43.7324137" lon="6.3909665"><ele>760.0</ele><time>2026-05-02T10:06:45.988Z</time></trkpt><trkpt lat="43.7323311" lon="6.3908482"><ele>760.0</ele><time>2026-05-02T10:06:46.988Z</time></trkpt><trkpt lat="43.7322651" lon="6.3907166"><ele>760.0</ele><time>2026-05-02T10:06:47.988Z</time></trkpt><trkpt lat="43.7322235" lon="6.3905756"><ele>760.0</ele><time>2026-05-02T10:06:48.988Z</time></trkpt><trkpt lat="43.7321851" lon="6.3904152"><ele>760.0</ele><time>2026-05-02T10:06:49.988Z</time></trkpt><trkpt lat="43.73214" lon="6.3902629"><ele>759.0</ele><time>2026-05-02T10:06:50.988Z</time></trkpt><trkpt lat="43.7321033" lon="6.3901346"><ele>758.0</ele><time>2026-05-02T10:06:51.988Z</time></trkpt><trkpt lat="43.7320686" lon="6.3900317"><ele>757.0</ele><time>2026-05-02T10:06:52.988Z</time></trkpt><trkpt lat="43.7319943" lon="6.3899268"><ele>756.0</ele><time>2026-05-02T10:06:53.987Z</time></trkpt><trkpt lat="43.7319266" lon="6.3898457"><ele>755.0</ele><time>2026-05-02T10:06:54.988Z</time></trkpt><trkpt lat="43.731774" lon="6.3898205"><ele>755.0</ele><time>2026-05-02T10:06:55.988Z</time></trkpt><trkpt lat="43.7316468" lon="6.3898032"><ele>755.0</ele><time>2026-05-02T10:06:56.988Z</time></trkpt><trkpt lat="43.7315037" lon="6.3897777"><ele>755.0</ele><time>2026-05-02T10:06:57.988Z</time></trkpt><trkpt lat="43.7313563" lon="6.3897505"><ele>755.0</ele><time>2026-05-02T10:06:58.988Z</time></trkpt><trkpt lat="43.7312401" lon="6.3897285"><ele>755.0</ele><time>2026-05-02T10:06:59.988Z</time></trkpt><trkpt lat="43.731117" lon="6.3897045"><ele>755.0</ele><time>2026-05-02T10:07:00.988Z</time></trkpt><trkpt lat="43.7310026" lon="6.3896417"><ele>755.0</ele><time>2026-05-02T10:07:01.988Z</time></trkpt><trkpt lat="43.730888" lon="6.3895774"><ele>755.0</ele><time>2026-05-02T10:07:02.988Z</time></trkpt><trkpt lat="43.7307755" lon="6.3895046"><ele>749.5</ele><time>2026-05-02T10:07:03.988Z</time></trkpt><trkpt lat="43.7306643" lon="6.3894222"><ele>744.0</ele><time>2026-05-02T10:07:04.988Z</time></trkpt><trkpt lat="43.7305574" lon="6.3893493"><ele>738.5</ele><time>2026-05-02T10:07:05.988Z</time></trkpt><trkpt lat="43.7304462" lon="6.3892771"><ele>733.0</ele><time>2026-05-02T10:07:06.988Z</time></trkpt><trkpt lat="43.7303444" lon="6.3892025"><ele>733.0</ele><time>2026-05-02T10:07:07.988Z</time></trkpt><trkpt lat="43.7302465" lon="6.3891343"><ele>733.0</ele><time>2026-05-02T10:07:08.987Z</time></trkpt><trkpt lat="43.7301495" lon="6.3890575"><ele>733.0</ele><time>2026-05-02T10:07:09.987Z</time></trkpt><trkpt lat="43.7300659" lon="6.3889733"><ele>733.0</ele><time>2026-05-02T10:07:10.988Z</time></trkpt><trkpt lat="43.7299904" lon="6.3888788"><ele>733.0</ele><time>2026-05-02T10:07:11.988Z</time></trkpt><trkpt lat="43.7299196" lon="6.3887714"><ele>732.5</ele><time>2026-05-02T10:07:12.988Z</time></trkpt><trkpt lat="43.7298593" lon="6.3886716"><ele>732.0</ele><time>2026-05-02T10:07:13.988Z</time></trkpt><trkpt lat="43.7298047" lon="6.3885719"><ele>731.5</ele><time>2026-05-02T10:07:14.988Z</time></trkpt><trkpt lat="43.7297675" lon="6.3884829"><ele>731.0</ele><time>2026-05-02T10:07:15.988Z</time></trkpt><trkpt lat="43.7297341" lon="6.3883895"><ele>730.5</ele><time>2026-05-02T10:07:16.988Z</time></trkpt><trkpt lat="43.7297182" lon="6.3883026"><ele>730.0</ele><time>2026-05-02T10:07:17.987Z</time></trkpt><trkpt lat="43.7297142" lon="6.3882032"><ele>730.0000000000001</ele><time>2026-05-02T10:07:18.987Z</time></trkpt><trkpt lat="43.7297102" lon="6.3881057"><ele>730.0</ele><time>2026-05-02T10:07:19.988Z</time></trkpt><trkpt lat="43.7297221" lon="6.3880076"><ele>730.0</ele><time>2026-05-02T10:07:20.988Z</time></trkpt><trkpt lat="43.7297535" lon="6.3879246"><ele>730.0</ele><time>2026-05-02T10:07:21.987Z</time></trkpt><trkpt lat="43.7297926" lon="6.3878456"><ele>730.0</ele><time>2026-05-02T10:07:22.988Z</time></trkpt><trkpt lat="43.7298266" lon="6.3877678"><ele>730.0000000000001</ele><time>2026-05-02T10:07:23.987Z</time></trkpt><trkpt lat="43.7298666" lon="6.3876955"><ele>730.0</ele><time>2026-05-02T10:07:24.988Z</time></trkpt><trkpt lat="43.7299051" lon="6.3876003"><ele>725.5</ele><time>2026-05-02T10:07:25.988Z</time></trkpt><trkpt lat="43.7299828" lon="6.3874641"><ele>721.0</ele><time>2026-05-02T10:07:27.988Z</time></trkpt><trkpt lat="43.73004" lon="6.387367"><ele>716.5</ele><time>2026-05-02T10:07:29.987Z</time></trkpt><trkpt lat="43.7301253" lon="6.3872404"><ele>712.0</ele><time>2026-05-02T10:07:31.988Z</time></trkpt><trkpt lat="43.7301992" lon="6.3871141"><ele>713.5</ele><time>2026-05-02T10:07:33.988Z</time></trkpt><trkpt lat="43.7302874" lon="6.3870041"><ele>715.0</ele><time>2026-05-02T10:07:35.988Z</time></trkpt><trkpt lat="43.7303727" lon="6.3868875"><ele>716.5</ele><time>2026-05-02T10:07:37.988Z</time></trkpt><trkpt lat="43.7304673" lon="6.3867506"><ele>718.0</ele><time>2026-05-02T10:07:39.988Z</time></trkpt><trkpt lat="43.7305486" lon="6.3866278"><ele>718.0</ele><time>2026-05-02T10:07:41.988Z</time></trkpt><trkpt lat="43.7306439" lon="6.3865359"><ele>718.0</ele><time>2026-05-02T10:07:43.988Z</time></trkpt><trkpt lat="43.730753" lon="6.3864892"><ele>718.0</ele><time>2026-05-02T10:07:45.988Z</time></trkpt><trkpt lat="43.7308611" lon="6.3865574"><ele>718.0</ele><time>2026-05-02T10:07:47.988Z</time></trkpt><trkpt lat="43.7309105" lon="6.3866264"><ele>718.0</ele><time>2026-05-02T10:07:48.988Z</time></trkpt><trkpt lat="43.7309974" lon="6.3867105"><ele>721.8333333333334</ele><time>2026-05-02T10:07:50.988Z</time></trkpt><trkpt lat="43.7310579" lon="6.386787"><ele>725.6666666666667</ele><time>2026-05-02T10:07:52.988Z</time></trkpt><trkpt lat="43.7310655" lon="6.38689"><ele>729.5</ele><time>2026-05-02T10:07:55.988Z</time></trkpt><trkpt lat="43.7311559" lon="6.3869216"><ele>733.3333333333334</ele><time>2026-05-02T10:09:20.987Z</time></trkpt><trkpt lat="43.7312383" lon="6.3870135"><ele>737.1666666666666</ele><time>2026-05-02T10:09:22.987Z</time></trkpt><trkpt lat="43.731295" lon="6.3870709"><ele>741.0</ele><time>2026-05-02T10:09:23.988Z</time></trkpt><trkpt lat="43.7313574" lon="6.3871502"><ele>737.5</ele><time>2026-05-02T10:09:24.988Z</time></trkpt><trkpt lat="43.7314177" lon="6.3872401"><ele>734.0</ele><time>2026-05-02T10:09:25.988Z</time></trkpt><trkpt lat="43.7314743" lon="6.3873234"><ele>730.5</ele><time>2026-05-02T10:09:26.988Z</time></trkpt><trkpt lat="43.7315354" lon="6.3874006"><ele>727.0</ele><time>2026-05-02T10:09:27.988Z</time></trkpt><trkpt lat="43.7316252" lon="6.3873851"><ele>723.5</ele><time>2026-05-02T10:09:28.987Z</time></trkpt><trkpt lat="43.7317085" lon="6.3874131"><ele>720.0</ele><time>2026-05-02T10:09:29.988Z</time></trkpt><trkpt lat="43.7318025" lon="6.3873395"><ele>720.2</ele><time>2026-05-02T10:09:30.988Z</time></trkpt><trkpt lat="43.7318921" lon="6.3873008"><ele>720.4</ele><time>2026-05-02T10:09:31.988Z</time></trkpt><trkpt lat="43.7319791" lon="6.387269"><ele>720.5999999999999</ele><time>2026-05-02T10:09:32.988Z</time></trkpt><trkpt lat="43.732071" lon="6.3872696"><ele>720.8</ele><time>2026-05-02T10:09:33.987Z</time></trkpt><trkpt lat="43.7321626" lon="6.387285"><ele>721.0</ele><time>2026-05-02T10:09:34.988Z</time></trkpt><trkpt lat="43.7322578" lon="6.3873094"><ele>721.0</ele><time>2026-05-02T10:09:35.987Z</time></trkpt><trkpt lat="43.732369" lon="6.3873299"><ele>721.0</ele><time>2026-05-02T10:09:36.988Z</time></trkpt><trkpt lat="43.7324821" lon="6.3873294"><ele>721.0</ele><time>2026-05-02T10:09:37.987Z</time></trkpt><trkpt lat="43.7325839" lon="6.3873359"><ele>721.0</ele><time>2026-05-02T10:09:38.988Z</time></trkpt><trkpt lat="43.7326754" lon="6.3873608"><ele>721.0</ele><time>2026-05-02T10:09:39.987Z</time></trkpt><trkpt lat="43.7327567" lon="6.3873703"><ele>720.8333333333334</ele><time>2026-05-02T10:09:40.987Z</time></trkpt><trkpt lat="43.7328351" lon="6.3873619"><ele>720.6666666666667</ele><time>2026-05-02T10:09:41.988Z</time></trkpt><trkpt lat="43.7329147" lon="6.3873194"><ele>720.5</ele><time>2026-05-02T10:09:42.988Z</time></trkpt><trkpt lat="43.7329694" lon="6.3872108"><ele>720.3333333333334</ele><time>2026-05-02T10:09:43.988Z</time></trkpt><trkpt lat="43.7330042" lon="6.3870953"><ele>720.1666666666666</ele><time>2026-05-02T10:09:44.989Z</time></trkpt><trkpt lat="43.7330396" lon="6.3869813"><ele>720.0</ele><time>2026-05-02T10:09:45.988Z</time></trkpt><trkpt lat="43.7330184" lon="6.3867984"><ele>720.0</ele><time>2026-05-02T10:09:46.986Z</time></trkpt><trkpt lat="43.7330085" lon="6.386634"><ele>720.0</ele><time>2026-05-02T10:09:47.987Z</time></trkpt><trkpt lat="43.7330149" lon="6.3864575"><ele>720.0</ele><time>2026-05-02T10:09:48.987Z</time></trkpt><trkpt lat="43.7330224" lon="6.386286"><ele>720.0</ele><time>2026-05-02T10:09:49.987Z</time></trkpt><trkpt lat="43.733029" lon="6.3861178"><ele>724.75</ele><time>2026-05-02T10:09:50.987Z</time></trkpt><trkpt lat="43.733011" lon="6.3859509"><ele>729.5</ele><time>2026-05-02T10:09:51.987Z</time></trkpt><trkpt lat="43.7329951" lon="6.3857694"><ele>734.25</ele><time>2026-05-02T10:09:52.987Z</time></trkpt><trkpt lat="43.7329977" lon="6.3856048"><ele>739.0</ele><time>2026-05-02T10:09:53.987Z</time></trkpt><trkpt lat="43.7330048" lon="6.385437"><ele>739.75</ele><time>2026-05-02T10:09:54.986Z</time></trkpt><trkpt lat="43.7330365" lon="6.3852906"><ele>740.5</ele><time>2026-05-02T10:09:55.987Z</time></trkpt><trkpt lat="43.7330555" lon="6.3851284"><ele>741.25</ele><time>2026-05-02T10:09:56.987Z</time></trkpt><trkpt lat="43.7330578" lon="6.3849504"><ele>742.0</ele><time>2026-05-02T10:09:57.987Z</time></trkpt><trkpt lat="43.7330503" lon="6.384769"><ele>743.5</ele><time>2026-05-02T10:09:58.987Z</time></trkpt><trkpt lat="43.7330528" lon="6.3845587"><ele>745.0</ele><time>2026-05-02T10:09:59.987Z</time></trkpt><trkpt lat="43.7330484" lon="6.384374"><ele>746.5</ele><time>2026-05-02T10:10:00.986Z</time></trkpt><trkpt lat="43.7330366" lon="6.3841917"><ele>748.0</ele><time>2026-05-02T10:10:01.987Z</time></trkpt><trkpt lat="43.733019" lon="6.3839978"><ele>749.25</ele><time>2026-05-02T10:10:02.987Z</time></trkpt><trkpt lat="43.732989" lon="6.383805"><ele>750.5</ele><time>2026-05-02T10:10:03.987Z</time></trkpt><trkpt lat="43.7329688" lon="6.3836321"><ele>751.75</ele><time>2026-05-02T10:10:04.987Z</time></trkpt><trkpt lat="43.7329563" lon="6.3834437"><ele>753.0</ele><time>2026-05-02T10:10:05.987Z</time></trkpt><trkpt lat="43.7329541" lon="6.3832689"><ele>753.0</ele><time>2026-05-02T10:10:06.987Z</time></trkpt><trkpt lat="43.7329776" lon="6.3830802"><ele>753.0</ele><time>2026-05-02T10:10:07.986Z</time></trkpt><trkpt lat="43.7330046" lon="6.3828937"><ele>753.0</ele><time>2026-05-02T10:10:08.987Z</time></trkpt><trkpt lat="43.7330289" lon="6.3827021"><ele>753.0</ele><time>2026-05-02T10:10:09.987Z</time></trkpt><trkpt lat="43.7330585" lon="6.3824946"><ele>755.5</ele><time>2026-05-02T10:10:10.987Z</time></trkpt><trkpt lat="43.7330825" lon="6.3822971"><ele>758.0</ele><time>2026-05-02T10:10:11.987Z</time></trkpt><trkpt lat="43.7330955" lon="6.3821044"><ele>760.5</ele><time>2026-05-02T10:10:12.986Z</time></trkpt><trkpt lat="43.7331288" lon="6.3818842"><ele>763.0</ele><time>2026-05-02T10:10:13.987Z</time></trkpt><trkpt lat="43.7331592" lon="6.3816791"><ele>764.3333333333334</ele><time>2026-05-02T10:10:14.987Z</time></trkpt><trkpt lat="43.7331875" lon="6.381464"><ele>765.6666666666666</ele><time>2026-05-02T10:10:15.987Z</time></trkpt><trkpt lat="43.7332175" lon="6.3812353"><ele>767.0</ele><time>2026-05-02T10:10:16.987Z</time></trkpt><trkpt lat="43.7332293" lon="6.3810075"><ele>769.0</ele><time>2026-05-02T10:10:17.987Z</time></trkpt><trkpt lat="43.7332324" lon="6.3807814"><ele>771.0</ele><time>2026-05-02T10:10:18.986Z</time></trkpt><trkpt lat="43.7332237" lon="6.3805555"><ele>773.0</ele><time>2026-05-02T10:10:19.987Z</time></trkpt><trkpt lat="43.7332177" lon="6.3803588"><ele>775.0</ele><time>2026-05-02T10:10:20.987Z</time></trkpt><trkpt lat="43.7332113" lon="6.3801515"><ele>777.0</ele><time>2026-05-02T10:10:21.987Z</time></trkpt><trkpt lat="43.7332048" lon="6.3799106"><ele>779.0</ele><time>2026-05-02T10:10:22.987Z</time></trkpt><trkpt lat="43.733201" lon="6.3796921"><ele>778.25</ele><time>2026-05-02T10:10:23.987Z</time></trkpt><trkpt lat="43.7331928" lon="6.3794845"><ele>777.5</ele><time>2026-05-02T10:10:24.986Z</time></trkpt><trkpt lat="43.7331848" lon="6.3792767"><ele>776.75</ele><time>2026-05-02T10:10:25.987Z</time></trkpt><trkpt lat="43.7331626" lon="6.3790806"><ele>776.0</ele><time>2026-05-02T10:10:26.987Z</time></trkpt><trkpt lat="43.7331129" lon="6.3788796"><ele>777.6666666666667</ele><time>2026-05-02T10:10:27.987Z</time></trkpt><trkpt lat="43.7330586" lon="6.378674"><ele>779.3333333333333</ele><time>2026-05-02T10:10:28.987Z</time></trkpt><trkpt lat="43.7329993" lon="6.3784645"><ele>781.0</ele><time>2026-05-02T10:10:29.987Z</time></trkpt><trkpt lat="43.7329387" lon="6.3782473"><ele>781.0</ele><time>2026-05-02T10:10:30.987Z</time></trkpt><trkpt lat="43.7328787" lon="6.3780321"><ele>781.0</ele><time>2026-05-02T10:10:31.987Z</time></trkpt><trkpt lat="43.7328225" lon="6.3778309"><ele>781.0</ele><time>2026-05-02T10:10:32.987Z</time></trkpt><trkpt lat="43.7327637" lon="6.3776479"><ele>783.8</ele><time>2026-05-02T10:10:33.987Z</time></trkpt><trkpt lat="43.7327054" lon="6.37747"><ele>786.5999999999999</ele><time>2026-05-02T10:10:34.987Z</time></trkpt><trkpt lat="43.7326497" lon="6.3772891"><ele>789.4</ele><time>2026-05-02T10:10:35.987Z</time></trkpt><trkpt lat="43.7326701" lon="6.3771969"><ele>792.2</ele><time>2026-05-02T10:10:36.986Z</time></trkpt><trkpt lat="43.7326921" lon="6.3770767"><ele>795.0</ele><time>2026-05-02T10:10:37.987Z</time></trkpt><trkpt lat="43.732732" lon="6.3769519"><ele>795.0</ele><time>2026-05-02T10:10:38.987Z</time></trkpt><trkpt lat="43.7327917" lon="6.3768389"><ele>795.0</ele><time>2026-05-02T10:10:39.987Z</time></trkpt><trkpt lat="43.7328661" lon="6.3767204"><ele>795.0</ele><time>2026-05-02T10:10:40.986Z</time></trkpt><trkpt lat="43.7329173" lon="6.3765513"><ele>795.0</ele><time>2026-05-02T10:10:41.987Z</time></trkpt><trkpt lat="43.7329673" lon="6.3763935"><ele>798.6</ele><time>2026-05-02T10:10:42.987Z</time></trkpt><trkpt lat="43.7330312" lon="6.3762803"><ele>802.2</ele><time>2026-05-02T10:10:43.987Z</time></trkpt><trkpt lat="43.7331162" lon="6.3761759"><ele>805.8</ele><time>2026-05-02T10:10:44.986Z</time></trkpt><trkpt lat="43.733223" lon="6.3761393"><ele>809.4</ele><time>2026-05-02T10:10:45.987Z</time></trkpt><trkpt lat="43.7333299" lon="6.3761039"><ele>813.0</ele><time>2026-05-02T10:10:46.987Z</time></trkpt><trkpt lat="43.7334287" lon="6.3761582"><ele>813.0</ele><time>2026-05-02T10:10:47.987Z</time></trkpt><trkpt lat="43.7335027" lon="6.3762653"><ele>813.0</ele><time>2026-05-02T10:10:48.986Z</time></trkpt><trkpt lat="43.7335733" lon="6.3763847"><ele>813.0</ele><time>2026-05-02T10:10:49.987Z</time></trkpt><trkpt lat="43.7336534" lon="6.376497"><ele>813.0</ele><time>2026-05-02T10:10:50.987Z</time></trkpt><trkpt lat="43.7337834" lon="6.3766174"><ele>811.5</ele><time>2026-05-02T10:10:51.987Z</time></trkpt><trkpt lat="43.7338981" lon="6.3767003"><ele>810.0</ele><time>2026-05-02T10:10:52.987Z</time></trkpt><trkpt lat="43.7340189" lon="6.3767588"><ele>808.5</ele><time>2026-05-02T10:10:53.986Z</time></trkpt><trkpt lat="43.7341618" lon="6.3768134"><ele>807.0</ele><time>2026-05-02T10:10:54.986Z</time></trkpt><trkpt lat="43.7342976" lon="6.3768589"><ele>811.25</ele><time>2026-05-02T10:10:55.987Z</time></trkpt><trkpt lat="43.7344374" lon="6.3768951"><ele>815.5</ele><time>2026-05-02T10:10:56.987Z</time></trkpt><trkpt lat="43.7345654" lon="6.3769218"><ele>819.75</ele><time>2026-05-02T10:10:57.987Z</time></trkpt><trkpt lat="43.7347016" lon="6.3769501"><ele>824.0</ele><time>2026-05-02T10:10:58.987Z</time></trkpt><trkpt lat="43.7348394" lon="6.3769722"><ele>824.0</ele><time>2026-05-02T10:10:59.987Z</time></trkpt><trkpt lat="43.7349685" lon="6.3769948"><ele>824.0</ele><time>2026-05-02T10:11:00.987Z</time></trkpt><trkpt lat="43.7350961" lon="6.377004"><ele>824.0</ele><time>2026-05-02T10:11:01.987Z</time></trkpt><trkpt lat="43.7352469" lon="6.3769867"><ele>824.0</ele><time>2026-05-02T10:11:02.987Z</time></trkpt><trkpt lat="43.7353758" lon="6.3769799"><ele>827.0</ele><time>2026-05-02T10:11:03.987Z</time></trkpt><trkpt lat="43.7355558" lon="6.3769266"><ele>830.0</ele><time>2026-05-02T10:11:04.987Z</time></trkpt><trkpt lat="43.7357061" lon="6.3769049"><ele>833.0</ele><time>2026-05-02T10:11:05.987Z</time></trkpt><trkpt lat="43.7358926" lon="6.3768721"><ele>833.0</ele><time>2026-05-02T10:11:06.987Z</time></trkpt><trkpt lat="43.7360308" lon="6.3768704"><ele>833.0</ele><time>2026-05-02T10:11:07.987Z</time></trkpt><trkpt lat="43.7361767" lon="6.3768577"><ele>833.0</ele><time>2026-05-02T10:11:08.986Z</time></trkpt><trkpt lat="43.7363245" lon="6.3768352"><ele>833.0</ele><time>2026-05-02T10:11:09.986Z</time></trkpt><trkpt lat="43.7364395" lon="6.3768421"><ele>833.2</ele><time>2026-05-02T10:11:10.986Z</time></trkpt><trkpt lat="43.7365327" lon="6.3768851"><ele>833.4</ele><time>2026-05-02T10:11:11.987Z</time></trkpt><trkpt lat="43.7366411" lon="6.3769112"><ele>833.6</ele><time>2026-05-02T10:11:12.987Z</time></trkpt><trkpt lat="43.7367399" lon="6.3768981"><ele>833.8000000000001</ele><time>2026-05-02T10:11:13.987Z</time></trkpt><trkpt lat="43.7368527" lon="6.3768832"><ele>834.0</ele><time>2026-05-02T10:11:14.987Z</time></trkpt><trkpt lat="43.7369681" lon="6.3768418"><ele>834.0</ele><time>2026-05-02T10:11:15.987Z</time></trkpt><trkpt lat="43.7370876" lon="6.3768078"><ele>834.0</ele><time>2026-05-02T10:11:16.987Z</time></trkpt><trkpt lat="43.7372144" lon="6.3767593"><ele>834.0</ele><time>2026-05-02T10:11:17.987Z</time></trkpt><trkpt lat="43.7373263" lon="6.3766615"><ele>834.0</ele><time>2026-05-02T10:11:18.987Z</time></trkpt><trkpt lat="43.7374292" lon="6.3765724"><ele>834.0</ele><time>2026-05-02T10:11:19.987Z</time></trkpt><trkpt lat="43.737525" lon="6.3764594"><ele>834.0</ele><time>2026-05-02T10:11:20.987Z</time></trkpt><trkpt lat="43.7376294" lon="6.376313"><ele>834.0</ele><time>2026-05-02T10:11:21.986Z</time></trkpt><trkpt lat="43.7376894" lon="6.3761601"><ele>834.0</ele><time>2026-05-02T10:11:22.987Z</time></trkpt><trkpt lat="43.7377481" lon="6.3759984"><ele>834.4000000000001</ele><time>2026-05-02T10:11:23.987Z</time></trkpt><trkpt lat="43.7377774" lon="6.3759024"><ele>834.8</ele><time>2026-05-02T10:11:24.987Z</time></trkpt><trkpt lat="43.7378421" lon="6.3757618"><ele>835.2</ele><time>2026-05-02T10:11:25.987Z</time></trkpt><trkpt lat="43.7379244" lon="6.3756647"><ele>835.5999999999999</ele><time>2026-05-02T10:11:26.986Z</time></trkpt><trkpt lat="43.7380144" lon="6.3755881"><ele>836.0</ele><time>2026-05-02T10:11:27.987Z</time></trkpt><trkpt lat="43.7381214" lon="6.3755251"><ele>838.5</ele><time>2026-05-02T10:11:28.987Z</time></trkpt><trkpt lat="43.738235" lon="6.3754541"><ele>841.0</ele><time>2026-05-02T10:11:29.986Z</time></trkpt><trkpt lat="43.7383537" lon="6.3753614"><ele>843.5</ele><time>2026-05-02T10:11:30.987Z</time></trkpt><trkpt lat="43.7384606" lon="6.375302"><ele>846.0</ele><time>2026-05-02T10:11:31.987Z</time></trkpt><trkpt lat="43.7385626" lon="6.3752093"><ele>846.0</ele><time>2026-05-02T10:11:32.987Z</time></trkpt><trkpt lat="43.738689" lon="6.375103"><ele>846.0</ele><time>2026-05-02T10:11:33.987Z</time></trkpt><trkpt lat="43.7388006" lon="6.3750032"><ele>846.0</ele><time>2026-05-02T10:11:34.987Z</time></trkpt><trkpt lat="43.7388974" lon="6.3749061"><ele>846.0</ele><time>2026-05-02T10:11:35.987Z</time></trkpt><trkpt lat="43.7390096" lon="6.3748012"><ele>845.5</ele><time>2026-05-02T10:11:36.987Z</time></trkpt><trkpt lat="43.739111" lon="6.3746684"><ele>845.0</ele><time>2026-05-02T10:11:37.987Z</time></trkpt><trkpt lat="43.7392013" lon="6.3745618"><ele>844.5</ele><time>2026-05-02T10:11:38.987Z</time></trkpt><trkpt lat="43.7392966" lon="6.3744451"><ele>844.0</ele><time>2026-05-02T10:11:39.986Z</time></trkpt><trkpt lat="43.739391" lon="6.374332"><ele>844.0</ele><time>2026-05-02T10:11:40.987Z</time></trkpt><trkpt lat="43.7394802" lon="6.374222"><ele>844.0</ele><time>2026-05-02T10:11:41.987Z</time></trkpt><trkpt lat="43.7395677" lon="6.3741177"><ele>844.0</ele><time>2026-05-02T10:11:42.986Z</time></trkpt><trkpt lat="43.7396473" lon="6.3740252"><ele>844.0</ele><time>2026-05-02T10:11:43.987Z</time></trkpt><trkpt lat="43.739744" lon="6.3739085"><ele>847.3333333333333</ele><time>2026-05-02T10:11:44.987Z</time></trkpt><trkpt lat="43.7398104" lon="6.3738346"><ele>850.6666666666666</ele><time>2026-05-02T10:11:45.987Z</time></trkpt><trkpt lat="43.7398861" lon="6.3737505"><ele>854.0</ele><time>2026-05-02T10:11:46.987Z</time></trkpt><trkpt lat="43.7399492" lon="6.373695"><ele>857.3333333333333</ele><time>2026-05-02T10:11:47.987Z</time></trkpt><trkpt lat="43.7400167" lon="6.3736564"><ele>860.6666666666666</ele><time>2026-05-02T10:11:48.987Z</time></trkpt><trkpt lat="43.740085" lon="6.3736054"><ele>864.0</ele><time>2026-05-02T10:11:49.987Z</time></trkpt><trkpt lat="43.7401911" lon="6.3735416"><ele>864.0</ele><time>2026-05-02T10:11:51.987Z</time></trkpt><trkpt lat="43.7402667" lon="6.3734504"><ele>864.0000000000001</ele><time>2026-05-02T10:11:53.987Z</time></trkpt><trkpt lat="43.740285" lon="6.373324"><ele>864.0000000000001</ele><time>2026-05-02T10:11:55.987Z</time></trkpt><trkpt lat="43.7402572" lon="6.3731944"><ele>864.0</ele><time>2026-05-02T10:11:57.987Z</time></trkpt><trkpt lat="43.7401148" lon="6.3731001"><ele>864.0</ele><time>2026-05-02T10:11:59.987Z</time></trkpt><trkpt lat="43.7400292" lon="6.373067"><ele>864.0</ele><time>2026-05-02T10:12:00.987Z</time></trkpt><trkpt lat="43.7399577" lon="6.3730276"><ele>864.0000000000001</ele><time>2026-05-02T10:12:01.987Z</time></trkpt><trkpt lat="43.7398827" lon="6.3729787"><ele>864.0000000000001</ele><time>2026-05-02T10:12:02.987Z</time></trkpt><trkpt lat="43.7398227" lon="6.3729227"><ele>864.0</ele><time>2026-05-02T10:12:03.987Z</time></trkpt><trkpt lat="43.739744" lon="6.3728654"><ele>864.0</ele><time>2026-05-02T10:12:04.987Z</time></trkpt><trkpt lat="43.7396126" lon="6.3728599"><ele>869.0</ele><time>2026-05-02T10:12:05.987Z</time></trkpt><trkpt lat="43.7395127" lon="6.3728291"><ele>874.0</ele><time>2026-05-02T10:12:06.987Z</time></trkpt><trkpt lat="43.7394135" lon="6.3728023"><ele>879.0</ele><time>2026-05-02T10:12:07.987Z</time></trkpt><trkpt lat="43.7392981" lon="6.3727525"><ele>884.0</ele><time>2026-05-02T10:12:08.987Z</time></trkpt><trkpt lat="43.7391722" lon="6.3727094"><ele>884.0</ele><time>2026-05-02T10:12:09.987Z</time></trkpt><trkpt lat="43.7391031" lon="6.3726643"><ele>884.0000000000001</ele><time>2026-05-02T10:12:11.987Z</time></trkpt><trkpt lat="43.7390426" lon="6.3725632"><ele>884.0000000000001</ele><time>2026-05-02T10:12:13.987Z</time></trkpt><trkpt lat="43.7390935" lon="6.3723563"><ele>884.0</ele><time>2026-05-02T10:12:16.987Z</time></trkpt><trkpt lat="43.7391508" lon="6.3722482"><ele>884.0</ele><time>2026-05-02T10:12:17.987Z</time></trkpt><trkpt lat="43.7392344" lon="6.3721095"><ele>882.8000000000001</ele><time>2026-05-02T10:12:19.987Z</time></trkpt><trkpt lat="43.7393332" lon="6.3719942"><ele>881.6000000000001</ele><time>2026-05-02T10:12:20.987Z</time></trkpt><trkpt lat="43.7393252" lon="6.3718635"><ele>880.4</ele><time>2026-05-02T10:12:21.987Z</time></trkpt><trkpt lat="43.7393013" lon="6.3717263"><ele>879.2</ele><time>2026-05-02T10:12:22.987Z</time></trkpt><trkpt lat="43.7392827" lon="6.3716178"><ele>878.0</ele><time>2026-05-02T10:12:23.987Z</time></trkpt><trkpt lat="43.739274" lon="6.3715151"><ele>878.0000000000001</ele><time>2026-05-02T10:12:24.986Z</time></trkpt><trkpt lat="43.7392556" lon="6.3714214"><ele>878.0</ele><time>2026-05-02T10:12:25.987Z</time></trkpt><trkpt lat="43.7392156" lon="6.3713417"><ele>878.0</ele><time>2026-05-02T10:12:26.987Z</time></trkpt><trkpt lat="43.7391374" lon="6.371274"><ele>878.0</ele><time>2026-05-02T10:12:27.987Z</time></trkpt><trkpt lat="43.7390564" lon="6.3712121"><ele>878.0000000000001</ele><time>2026-05-02T10:12:28.987Z</time></trkpt><trkpt lat="43.738949" lon="6.3711426"><ele>878.0</ele><time>2026-05-02T10:12:29.987Z</time></trkpt><trkpt lat="43.7388536" lon="6.3710807"><ele>877.0</ele><time>2026-05-02T10:12:30.987Z</time></trkpt><trkpt lat="43.7387588" lon="6.3710134"><ele>876.0</ele><time>2026-05-02T10:12:31.986Z</time></trkpt><trkpt lat="43.7386563" lon="6.3709497"><ele>875.0</ele><time>2026-05-02T10:12:32.987Z</time></trkpt><trkpt lat="43.7385702" lon="6.3709041"><ele>874.0</ele><time>2026-05-02T10:12:33.987Z</time></trkpt><trkpt lat="43.7384686" lon="6.3708381"><ele>873.0</ele><time>2026-05-02T10:12:34.987Z</time></trkpt><trkpt lat="43.7383655" lon="6.3707733"><ele>873.0</ele><time>2026-05-02T10:12:35.987Z</time></trkpt><trkpt lat="43.7382869" lon="6.3707272"><ele>873.0</ele><time>2026-05-02T10:12:36.987Z</time></trkpt><trkpt lat="43.738221" lon="6.3706895"><ele>873.0</ele><time>2026-05-02T10:12:37.987Z</time></trkpt><trkpt lat="43.7381314" lon="6.3706174"><ele>873.0</ele><time>2026-05-02T10:12:38.987Z</time></trkpt><trkpt lat="43.7380223" lon="6.370557"><ele>873.0</ele><time>2026-05-02T10:12:39.987Z</time></trkpt><trkpt lat="43.7379257" lon="6.3705136"><ele>869.2</ele><time>2026-05-02T10:12:40.986Z</time></trkpt><trkpt lat="43.7378238" lon="6.3704845"><ele>865.4</ele><time>2026-05-02T10:12:41.987Z</time></trkpt><trkpt lat="43.7377083" lon="6.3704706"><ele>861.6000000000001</ele><time>2026-05-02T10:12:42.986Z</time></trkpt><trkpt lat="43.7375953" lon="6.370468"><ele>857.8000000000001</ele><time>2026-05-02T10:12:43.987Z</time></trkpt><trkpt lat="43.7374971" lon="6.3704642"><ele>854.0</ele><time>2026-05-02T10:12:44.987Z</time></trkpt><trkpt lat="43.7373962" lon="6.3704598"><ele>854.0</ele><time>2026-05-02T10:12:45.987Z</time></trkpt><trkpt lat="43.7372898" lon="6.3704593"><ele>854.0</ele><time>2026-05-02T10:12:46.986Z</time></trkpt><trkpt lat="43.7371795" lon="6.3704625"><ele>854.0</ele><time>2026-05-02T10:12:47.987Z</time></trkpt><trkpt lat="43.7370615" lon="6.3704725"><ele>854.0</ele><time>2026-05-02T10:12:48.987Z</time></trkpt><trkpt lat="43.7369302" lon="6.3704855"><ele>857.25</ele><time>2026-05-02T10:12:49.987Z</time></trkpt><trkpt lat="43.736808" lon="6.3705259"><ele>860.5</ele><time>2026-05-02T10:12:50.987Z</time></trkpt><trkpt lat="43.736666" lon="6.3705737"><ele>863.75</ele><time>2026-05-02T10:12:51.987Z</time></trkpt><trkpt lat="43.7365362" lon="6.3706366"><ele>867.0</ele><time>2026-05-02T10:12:52.986Z</time></trkpt><trkpt lat="43.7364007" lon="6.3706957"><ele>867.0</ele><time>2026-05-02T10:12:53.987Z</time></trkpt><trkpt lat="43.7362745" lon="6.3707731"><ele>867.0</ele><time>2026-05-02T10:12:54.987Z</time></trkpt><trkpt lat="43.736158" lon="6.3708386"><ele>867.0</ele><time>2026-05-02T10:12:55.987Z</time></trkpt><trkpt lat="43.7360426" lon="6.3709067"><ele>867.0</ele><time>2026-05-02T10:12:56.987Z</time></trkpt><trkpt lat="43.7359361" lon="6.3709789"><ele>865.0</ele><time>2026-05-02T10:12:57.987Z</time></trkpt><trkpt lat="43.7358297" lon="6.3710302"><ele>863.0</ele><time>2026-05-02T10:12:58.987Z</time></trkpt><trkpt lat="43.7356818" lon="6.3710474"><ele>861.0</ele><time>2026-05-02T10:12:59.987Z</time></trkpt><trkpt lat="43.7355604" lon="6.3711164"><ele>859.0</ele><time>2026-05-02T10:13:00.987Z</time></trkpt><trkpt lat="43.7354076" lon="6.3711315"><ele>859.0</ele><time>2026-05-02T10:13:01.986Z</time></trkpt><trkpt lat="43.735261" lon="6.3711561"><ele>859.0</ele><time>2026-05-02T10:13:02.987Z</time></trkpt><trkpt lat="43.7351158" lon="6.371177"><ele>859.0</ele><time>2026-05-02T10:13:03.986Z</time></trkpt><trkpt lat="43.7349885" lon="6.3712075"><ele>859.0</ele><time>2026-05-02T10:13:04.986Z</time></trkpt><trkpt lat="43.7348351" lon="6.3712245"><ele>859.0</ele><time>2026-05-02T10:13:05.987Z</time></trkpt><trkpt lat="43.7346971" lon="6.3712791"><ele>859.0</ele><time>2026-05-02T10:13:06.987Z</time></trkpt><trkpt lat="43.7345538" lon="6.3713534"><ele>859.0</ele><time>2026-05-02T10:13:07.987Z</time></trkpt><trkpt lat="43.7344014" lon="6.3714049"><ele>861.3333333333333</ele><time>2026-05-02T10:13:08.987Z</time></trkpt><trkpt lat="43.7342603" lon="6.3714753"><ele>863.6666666666667</ele><time>2026-05-02T10:13:09.987Z</time></trkpt><trkpt lat="43.7341196" lon="6.371555"><ele>866.0</ele><time>2026-05-02T10:13:10.987Z</time></trkpt><trkpt lat="43.7339668" lon="6.3716406"><ele>866.0</ele><time>2026-05-02T10:13:11.987Z</time></trkpt><trkpt lat="43.7338251" lon="6.3717175"><ele>866.0</ele><time>2026-05-02T10:13:12.987Z</time></trkpt><trkpt lat="43.7336813" lon="6.3717988"><ele>866.0</ele><time>2026-05-02T10:13:13.987Z</time></trkpt><trkpt lat="43.733548" lon="6.3718996"><ele>873.0</ele><time>2026-05-02T10:13:14.986Z</time></trkpt><trkpt lat="43.7333969" lon="6.3719517"><ele>880.0</ele><time>2026-05-02T10:13:15.986Z</time></trkpt><trkpt lat="43.7332596" lon="6.3720502"><ele>887.0</ele><time>2026-05-02T10:13:16.987Z</time></trkpt><trkpt lat="43.7331396" lon="6.3721782"><ele>887.5</ele><time>2026-05-02T10:13:17.987Z</time></trkpt><trkpt lat="43.7330257" lon="6.3722993"><ele>888.0</ele><time>2026-05-02T10:13:18.987Z</time></trkpt><trkpt lat="43.7329" lon="6.372415"><ele>888.5</ele><time>2026-05-02T10:13:19.986Z</time></trkpt><trkpt lat="43.7327841" lon="6.3725225"><ele>889.0</ele><time>2026-05-02T10:13:20.987Z</time></trkpt><trkpt lat="43.7326758" lon="6.3726532"><ele>889.0</ele><time>2026-05-02T10:13:21.987Z</time></trkpt><trkpt lat="43.7326128" lon="6.3727908"><ele>889.0</ele><time>2026-05-02T10:13:22.987Z</time></trkpt><trkpt lat="43.7325556" lon="6.3729244"><ele>889.0</ele><time>2026-05-02T10:13:23.987Z</time></trkpt><trkpt lat="43.7325049" lon="6.3730639"><ele>889.0</ele><time>2026-05-02T10:13:24.987Z</time></trkpt><trkpt lat="43.7324462" lon="6.3732137"><ele>889.0</ele><time>2026-05-02T10:13:26.987Z</time></trkpt><trkpt lat="43.7323705" lon="6.3732406"><ele>889.0</ele><time>2026-05-02T10:13:27.987Z</time></trkpt><trkpt lat="43.7323061" lon="6.3732464"><ele>889.0</ele><time>2026-05-02T10:13:28.986Z</time></trkpt><trkpt lat="43.7322739" lon="6.3731638"><ele>889.0</ele><time>2026-05-02T10:13:29.987Z</time></trkpt><trkpt lat="43.7322382" lon="6.373083"><ele>889.0</ele><time>2026-05-02T10:13:30.987Z</time></trkpt><trkpt lat="43.7322922" lon="6.3729866"><ele>889.0</ele><time>2026-05-02T10:13:31.986Z</time></trkpt><trkpt lat="43.7323495" lon="6.3729219"><ele>889.0</ele><time>2026-05-02T10:13:32.987Z</time></trkpt><trkpt lat="43.7324229" lon="6.3728633"><ele>889.0</ele><time>2026-05-02T10:13:33.987Z</time></trkpt><trkpt lat="43.7324968" lon="6.3727575"><ele>889.0</ele><time>2026-05-02T10:13:34.987Z</time></trkpt><trkpt lat="43.7325484" lon="6.3726718"><ele>889.0</ele><time>2026-05-02T10:13:35.986Z</time></trkpt><trkpt lat="43.7326297" lon="6.3724989"><ele>889.0</ele><time>2026-05-02T10:13:36.986Z</time></trkpt><trkpt lat="43.732707" lon="6.3723287"><ele>888.5</ele><time>2026-05-02T10:13:37.987Z</time></trkpt><trkpt lat="43.7327889" lon="6.3721608"><ele>888.0</ele><time>2026-05-02T10:13:38.987Z</time></trkpt><trkpt lat="43.7328755" lon="6.3719973"><ele>887.5</ele><time>2026-05-02T10:13:39.987Z</time></trkpt><trkpt lat="43.7329648" lon="6.3718458"><ele>887.0</ele><time>2026-05-02T10:13:40.987Z</time></trkpt><trkpt lat="43.7330547" lon="6.3717274"><ele>887.0</ele><time>2026-05-02T10:13:41.987Z</time></trkpt><trkpt lat="43.7331413" lon="6.3715821"><ele>887.0</ele><time>2026-05-02T10:13:42.987Z</time></trkpt><trkpt lat="43.7332307" lon="6.3714584"><ele>887.0</ele><time>2026-05-02T10:13:43.987Z</time></trkpt><trkpt lat="43.7333184" lon="6.3713341"><ele>887.0</ele><time>2026-05-02T10:13:44.987Z</time></trkpt><trkpt lat="43.7334183" lon="6.371221"><ele>886.0</ele><time>2026-05-02T10:13:45.987Z</time></trkpt><trkpt lat="43.7335292" lon="6.3710845"><ele>885.0</ele><time>2026-05-02T10:13:46.987Z</time></trkpt><trkpt lat="43.7336172" lon="6.3709619"><ele>884.0</ele><time>2026-05-02T10:13:47.987Z</time></trkpt><trkpt lat="43.7337001" lon="6.3707979"><ele>883.0</ele><time>2026-05-02T10:13:48.986Z</time></trkpt><trkpt lat="43.7338032" lon="6.3706784"><ele>888.75</ele><time>2026-05-02T10:13:49.986Z</time></trkpt><trkpt lat="43.7338893" lon="6.3705235"><ele>894.5</ele><time>2026-05-02T10:13:50.987Z</time></trkpt><trkpt lat="43.7339873" lon="6.3703685"><ele>900.25</ele><time>2026-05-02T10:13:51.987Z</time></trkpt><trkpt lat="43.734087" lon="6.3702158"><ele>906.0</ele><time>2026-05-02T10:13:52.987Z</time></trkpt><trkpt lat="43.7341769" lon="6.3700662"><ele>906.0</ele><time>2026-05-02T10:13:53.987Z</time></trkpt><trkpt lat="43.7342572" lon="6.369925"><ele>906.0</ele><time>2026-05-02T10:13:54.987Z</time></trkpt><trkpt lat="43.7343416" lon="6.3697801"><ele>906.0</ele><time>2026-05-02T10:13:55.987Z</time></trkpt><trkpt lat="43.7344109" lon="6.3696225"><ele>906.0</ele><time>2026-05-02T10:13:56.987Z</time></trkpt><trkpt lat="43.7344888" lon="6.3694582"><ele>907.25</ele><time>2026-05-02T10:13:57.986Z</time></trkpt><trkpt lat="43.7345619" lon="6.369304"><ele>908.5</ele><time>2026-05-02T10:13:58.986Z</time></trkpt><trkpt lat="43.7346203" lon="6.3691163"><ele>909.75</ele><time>2026-05-02T10:13:59.987Z</time></trkpt><trkpt lat="43.734683" lon="6.3689432"><ele>911.0</ele><time>2026-05-02T10:14:00.986Z</time></trkpt><trkpt lat="43.7347512" lon="6.3687717"><ele>911.0</ele><time>2026-05-02T10:14:01.987Z</time></trkpt><trkpt lat="43.7348271" lon="6.3686198"><ele>911.0</ele><time>2026-05-02T10:14:02.987Z</time></trkpt><trkpt lat="43.7348948" lon="6.3684898"><ele>911.0</ele><time>2026-05-02T10:14:03.986Z</time></trkpt><trkpt lat="43.7349459" lon="6.3683245"><ele>911.0</ele><time>2026-05-02T10:14:04.987Z</time></trkpt><trkpt lat="43.7350161" lon="6.3681834"><ele>911.0</ele><time>2026-05-02T10:14:05.987Z</time></trkpt><trkpt lat="43.7350788" lon="6.3680553"><ele>911.0</ele><time>2026-05-02T10:14:06.986Z</time></trkpt><trkpt lat="43.7351592" lon="6.3679219"><ele>911.0</ele><time>2026-05-02T10:14:07.987Z</time></trkpt><trkpt lat="43.7352386" lon="6.3677877"><ele>911.0</ele><time>2026-05-02T10:14:08.987Z</time></trkpt><trkpt lat="43.7353326" lon="6.3676466"><ele>910.8</ele><time>2026-05-02T10:14:09.987Z</time></trkpt><trkpt lat="43.7354104" lon="6.3675249"><ele>910.5999999999999</ele><time>2026-05-02T10:14:10.987Z</time></trkpt><trkpt lat="43.7354825" lon="6.3673998"><ele>910.4</ele><time>2026-05-02T10:14:11.987Z</time></trkpt><trkpt lat="43.7355253" lon="6.3672729"><ele>910.2</ele><time>2026-05-02T10:14:12.987Z</time></trkpt><trkpt lat="43.7355492" lon="6.3671449"><ele>910.0</ele><time>2026-05-02T10:14:13.987Z</time></trkpt><trkpt lat="43.7355666" lon="6.3670093"><ele>909.9999999999999</ele><time>2026-05-02T10:14:14.987Z</time></trkpt><trkpt lat="43.7355738" lon="6.3668681"><ele>910.0</ele><time>2026-05-02T10:14:15.987Z</time></trkpt><trkpt lat="43.7355499" lon="6.3667329"><ele>910.0</ele><time>2026-05-02T10:14:16.987Z</time></trkpt><trkpt lat="43.7355391" lon="6.3666158"><ele>910.0</ele><time>2026-05-02T10:14:17.987Z</time></trkpt><trkpt lat="43.7355294" lon="6.3665183"><ele>909.9999999999999</ele><time>2026-05-02T10:14:18.987Z</time></trkpt><trkpt lat="43.7355309" lon="6.3664145"><ele>910.0</ele><time>2026-05-02T10:14:19.987Z</time></trkpt><trkpt lat="43.735274" lon="6.3641419"><ele>914.2</ele><time>2026-05-02T10:14:47.988Z</time></trkpt><trkpt lat="43.7352114" lon="6.3640401"><ele>918.4</ele><time>2026-05-02T10:14:48.984Z</time></trkpt><trkpt lat="43.7351301" lon="6.3639079"><ele>922.5999999999999</ele><time>2026-05-02T10:14:49.984Z</time></trkpt><trkpt lat="43.735085" lon="6.3637995"><ele>926.8</ele><time>2026-05-02T10:14:51.987Z</time></trkpt><trkpt lat="43.7350271" lon="6.36374"><ele>931.0</ele><time>2026-05-02T10:14:55.986Z</time></trkpt><trkpt lat="43.7349547" lon="6.363652"><ele>931.0</ele><time>2026-05-02T10:14:58.986Z</time></trkpt><trkpt lat="43.7349022" lon="6.3636032"><ele>930.9999999999999</ele><time>2026-05-02T10:15:00.985Z</time></trkpt><trkpt lat="43.7348393" lon="6.363526"><ele>930.9999999999999</ele><time>2026-05-02T10:15:03.985Z</time></trkpt><trkpt lat="43.73478" lon="6.3634801"><ele>931.0</ele><time>2026-05-02T10:17:27.985Z</time></trkpt><trkpt lat="43.7346682" lon="6.3634827"><ele>931.0</ele><time>2026-05-02T10:17:29.986Z</time></trkpt><trkpt lat="43.7345415" lon="6.3634657"><ele>931.0</ele><time>2026-05-02T10:17:31.986Z</time></trkpt><trkpt lat="43.734463" lon="6.3634718"><ele>930.9999999999999</ele><time>2026-05-02T10:17:32.986Z</time></trkpt><trkpt lat="43.7343362" lon="6.3634814"><ele>930.9999999999999</ele><time>2026-05-02T10:17:33.986Z</time></trkpt><trkpt lat="43.7342292" lon="6.3634832"><ele>931.0</ele><time>2026-05-02T10:17:34.986Z</time></trkpt><trkpt lat="43.7341111" lon="6.3634808"><ele>931.0</ele><time>2026-05-02T10:17:35.985Z</time></trkpt><trkpt lat="43.7339878" lon="6.3634724"><ele>930.0</ele><time>2026-05-02T10:17:36.986Z</time></trkpt><trkpt lat="43.7338601" lon="6.3634837"><ele>929.0</ele><time>2026-05-02T10:17:37.985Z</time></trkpt><trkpt lat="43.73373" lon="6.3634951"><ele>928.0</ele><time>2026-05-02T10:17:38.986Z</time></trkpt><trkpt lat="43.7335944" lon="6.3635089"><ele>927.0</ele><time>2026-05-02T10:17:39.986Z</time></trkpt><trkpt lat="43.7334546" lon="6.363518"><ele>925.5</ele><time>2026-05-02T10:17:40.985Z</time></trkpt><trkpt lat="43.7333084" lon="6.3635319"><ele>924.0</ele><time>2026-05-02T10:17:41.986Z</time></trkpt><trkpt lat="43.7331858" lon="6.3635452"><ele>922.5</ele><time>2026-05-02T10:17:42.986Z</time></trkpt><trkpt lat="43.7330643" lon="6.3635669"><ele>921.0</ele><time>2026-05-02T10:17:43.986Z</time></trkpt><trkpt lat="43.7329067" lon="6.3635988"><ele>921.0</ele><time>2026-05-02T10:17:44.985Z</time></trkpt><trkpt lat="43.7327637" lon="6.3636233"><ele>921.0</ele><time>2026-05-02T10:17:45.986Z</time></trkpt><trkpt lat="43.7326313" lon="6.3636499"><ele>921.0</ele><time>2026-05-02T10:17:46.986Z</time></trkpt><trkpt lat="43.7324825" lon="6.3636936"><ele>921.0</ele><time>2026-05-02T10:17:47.985Z</time></trkpt><trkpt lat="43.732338" lon="6.3637336"><ele>918.6666666666667</ele><time>2026-05-02T10:17:48.986Z</time></trkpt><trkpt lat="43.7321953" lon="6.3637856"><ele>916.3333333333334</ele><time>2026-05-02T10:17:49.985Z</time></trkpt><trkpt lat="43.7320446" lon="6.3638397"><ele>914.0</ele><time>2026-05-02T10:17:50.986Z</time></trkpt><trkpt lat="43.731896" lon="6.3638804"><ele>915.3333333333334</ele><time>2026-05-02T10:17:51.986Z</time></trkpt><trkpt lat="43.7317372" lon="6.3639221"><ele>916.6666666666667</ele><time>2026-05-02T10:17:52.985Z</time></trkpt><trkpt lat="43.7315904" lon="6.3639683"><ele>918.0</ele><time>2026-05-02T10:17:53.986Z</time></trkpt><trkpt lat="43.7314346" lon="6.3640114"><ele>918.0</ele><time>2026-05-02T10:17:54.985Z</time></trkpt><trkpt lat="43.7312896" lon="6.3640652"><ele>918.0</ele><time>2026-05-02T10:17:55.986Z</time></trkpt><trkpt lat="43.7311385" lon="6.3641073"><ele>918.0</ele><time>2026-05-02T10:17:56.986Z</time></trkpt><trkpt lat="43.7309975" lon="6.36415"><ele>918.0</ele><time>2026-05-02T10:17:57.986Z</time></trkpt><trkpt lat="43.7308671" lon="6.3641868"><ele>915.6666666666667</ele><time>2026-05-02T10:17:58.985Z</time></trkpt><trkpt lat="43.7307051" lon="6.364236"><ele>913.3333333333334</ele><time>2026-05-02T10:17:59.986Z</time></trkpt><trkpt lat="43.7305577" lon="6.3642639"><ele>911.0</ele><time>2026-05-02T10:18:00.985Z</time></trkpt><trkpt lat="43.7304168" lon="6.3642983"><ele>911.0</ele><time>2026-05-02T10:18:01.986Z</time></trkpt><trkpt lat="43.7302528" lon="6.364335"><ele>911.0</ele><time>2026-05-02T10:18:02.986Z</time></trkpt><trkpt lat="43.7300905" lon="6.3643643"><ele>911.0</ele><time>2026-05-02T10:18:03.985Z</time></trkpt><trkpt lat="43.7299299" lon="6.3643914"><ele>908.75</ele><time>2026-05-02T10:18:04.986Z</time></trkpt><trkpt lat="43.729777" lon="6.3644167"><ele>906.5</ele><time>2026-05-02T10:18:05.986Z</time></trkpt><trkpt lat="43.7296351" lon="6.3644418"><ele>904.25</ele><time>2026-05-02T10:18:06.986Z</time></trkpt><trkpt lat="43.7295036" lon="6.36445"><ele>902.0</ele><time>2026-05-02T10:18:07.986Z</time></trkpt><trkpt lat="43.7293781" lon="6.3644605"><ele>900.75</ele><time>2026-05-02T10:18:08.986Z</time></trkpt><trkpt lat="43.7292391" lon="6.3644862"><ele>899.5</ele><time>2026-05-02T10:18:09.986Z</time></trkpt><trkpt lat="43.7291091" lon="6.3644912"><ele>898.25</ele><time>2026-05-02T10:18:10.986Z</time></trkpt><trkpt lat="43.7289644" lon="6.364485"><ele>897.0</ele><time>2026-05-02T10:18:11.986Z</time></trkpt><trkpt lat="43.7288304" lon="6.3644856"><ele>897.0</ele><time>2026-05-02T10:18:12.985Z</time></trkpt><trkpt lat="43.7287074" lon="6.3644715"><ele>897.0</ele><time>2026-05-02T10:18:13.986Z</time></trkpt><trkpt lat="43.7285773" lon="6.3644802"><ele>897.0</ele><time>2026-05-02T10:18:14.986Z</time></trkpt><trkpt lat="43.7284355" lon="6.3645098"><ele>897.0</ele><time>2026-05-02T10:18:15.985Z</time></trkpt><trkpt lat="43.7282986" lon="6.3645678"><ele>896.0</ele><time>2026-05-02T10:18:16.986Z</time></trkpt><trkpt lat="43.7281655" lon="6.3646391"><ele>895.0</ele><time>2026-05-02T10:18:17.986Z</time></trkpt><trkpt lat="43.7280407" lon="6.3647027"><ele>894.0</ele><time>2026-05-02T10:18:18.986Z</time></trkpt><trkpt lat="43.7279515" lon="6.3648102"><ele>893.0</ele><time>2026-05-02T10:18:19.986Z</time></trkpt><trkpt lat="43.7278794" lon="6.3649118"><ele>893.1666666666667</ele><time>2026-05-02T10:18:20.985Z</time></trkpt><trkpt lat="43.7278116" lon="6.3649642"><ele>893.3333333333334</ele><time>2026-05-02T10:18:21.986Z</time></trkpt><trkpt lat="43.7277377" lon="6.3649848"><ele>893.5</ele><time>2026-05-02T10:18:22.986Z</time></trkpt><trkpt lat="43.7276556" lon="6.3649933"><ele>893.6666666666667</ele><time>2026-05-02T10:18:23.986Z</time></trkpt><trkpt lat="43.7275789" lon="6.3649547"><ele>893.8333333333334</ele><time>2026-05-02T10:18:24.986Z</time></trkpt><trkpt lat="43.7275165" lon="6.3648229"><ele>894.0</ele><time>2026-05-02T10:18:25.986Z</time></trkpt><trkpt lat="43.7274844" lon="6.3647091"><ele>893.75</ele><time>2026-05-02T10:18:26.986Z</time></trkpt><trkpt lat="43.7274926" lon="6.3645844"><ele>893.5</ele><time>2026-05-02T10:18:27.986Z</time></trkpt><trkpt lat="43.7275761" lon="6.3644271"><ele>893.25</ele><time>2026-05-02T10:18:28.986Z</time></trkpt><trkpt lat="43.7276326" lon="6.364276"><ele>893.0</ele><time>2026-05-02T10:18:29.986Z</time></trkpt><trkpt lat="43.7277528" lon="6.3641349"><ele>893.0</ele><time>2026-05-02T10:18:30.986Z</time></trkpt><trkpt lat="43.7278529" lon="6.3639916"><ele>893.0</ele><time>2026-05-02T10:18:31.986Z</time></trkpt><trkpt lat="43.7279633" lon="6.3638386"><ele>893.0</ele><time>2026-05-02T10:18:32.986Z</time></trkpt><trkpt lat="43.7280707" lon="6.3636747"><ele>889.6666666666667</ele><time>2026-05-02T10:18:33.985Z</time></trkpt><trkpt lat="43.7281937" lon="6.3635209"><ele>886.3333333333333</ele><time>2026-05-02T10:18:34.986Z</time></trkpt><trkpt lat="43.7283184" lon="6.3633403"><ele>883.0</ele><time>2026-05-02T10:18:35.986Z</time></trkpt><trkpt lat="43.7284367" lon="6.3631727"><ele>882.0</ele><time>2026-05-02T10:18:36.985Z</time></trkpt><trkpt lat="43.7285721" lon="6.3629869"><ele>881.0</ele><time>2026-05-02T10:18:37.986Z</time></trkpt><trkpt lat="43.7287072" lon="6.3628029"><ele>880.0</ele><time>2026-05-02T10:18:38.986Z</time></trkpt><trkpt lat="43.7288487" lon="6.3626401"><ele>880.0</ele><time>2026-05-02T10:18:39.985Z</time></trkpt><trkpt lat="43.7289901" lon="6.3624802"><ele>880.0</ele><time>2026-05-02T10:18:40.986Z</time></trkpt><trkpt lat="43.7291056" lon="6.3623237"><ele>880.0</ele><time>2026-05-02T10:18:41.985Z</time></trkpt><trkpt lat="43.7292284" lon="6.3621424"><ele>878.6666666666666</ele><time>2026-05-02T10:18:42.986Z</time></trkpt><trkpt lat="43.7293503" lon="6.3619727"><ele>877.3333333333333</ele><time>2026-05-02T10:18:43.986Z</time></trkpt><trkpt lat="43.7294788" lon="6.3618111"><ele>876.0</ele><time>2026-05-02T10:18:44.986Z</time></trkpt><trkpt lat="43.7296053" lon="6.3616673"><ele>876.0</ele><time>2026-05-02T10:18:45.986Z</time></trkpt><trkpt lat="43.7297264" lon="6.3615131"><ele>876.0</ele><time>2026-05-02T10:18:46.986Z</time></trkpt><trkpt lat="43.7298412" lon="6.3613446"><ele>876.0</ele><time>2026-05-02T10:18:47.986Z</time></trkpt><trkpt lat="43.7299215" lon="6.361142"><ele>874.0</ele><time>2026-05-02T10:18:48.986Z</time></trkpt><trkpt lat="43.7299978" lon="6.3609072"><ele>872.0</ele><time>2026-05-02T10:18:49.986Z</time></trkpt><trkpt lat="43.7300637" lon="6.3607054"><ele>870.0</ele><time>2026-05-02T10:18:50.986Z</time></trkpt><trkpt lat="43.7301144" lon="6.3605048"><ele>870.6666666666667</ele><time>2026-05-02T10:18:51.986Z</time></trkpt><trkpt lat="43.7301687" lon="6.3602889"><ele>871.3333333333334</ele><time>2026-05-02T10:18:52.986Z</time></trkpt><trkpt lat="43.7302145" lon="6.360094"><ele>872.0</ele><time>2026-05-02T10:18:53.986Z</time></trkpt><trkpt lat="43.7302452" lon="6.3598697"><ele>870.6666666666667</ele><time>2026-05-02T10:18:54.986Z</time></trkpt><trkpt lat="43.7302648" lon="6.359622"><ele>869.3333333333333</ele><time>2026-05-02T10:18:55.986Z</time></trkpt><trkpt lat="43.7302671" lon="6.3593571"><ele>868.0</ele><time>2026-05-02T10:18:56.986Z</time></trkpt><trkpt lat="43.7302649" lon="6.3590792"><ele>866.6666666666666</ele><time>2026-05-02T10:18:57.986Z</time></trkpt><trkpt lat="43.7302881" lon="6.3588498"><ele>865.3333333333333</ele><time>2026-05-02T10:18:58.986Z</time></trkpt><trkpt lat="43.7303002" lon="6.3586271"><ele>864.0</ele><time>2026-05-02T10:18:59.985Z</time></trkpt><trkpt lat="43.7303193" lon="6.3584048"><ele>864.0</ele><time>2026-05-02T10:19:00.986Z</time></trkpt><trkpt lat="43.7303315" lon="6.3581713"><ele>864.0</ele><time>2026-05-02T10:19:01.986Z</time></trkpt><trkpt lat="43.730342" lon="6.3579523"><ele>864.0</ele><time>2026-05-02T10:19:02.985Z</time></trkpt><trkpt lat="43.7303454" lon="6.3577609"><ele>863.5</ele><time>2026-05-02T10:19:03.986Z</time></trkpt><trkpt lat="43.7303445" lon="6.357596"><ele>863.0</ele><time>2026-05-02T10:19:04.986Z</time></trkpt><trkpt lat="43.7303199" lon="6.3574141"><ele>862.5</ele><time>2026-05-02T10:19:05.985Z</time></trkpt><trkpt lat="43.7302777" lon="6.3572748"><ele>862.0</ele><time>2026-05-02T10:19:06.986Z</time></trkpt><trkpt lat="43.7302361" lon="6.357121"><ele>860.6</ele><time>2026-05-02T10:19:07.986Z</time></trkpt><trkpt lat="43.7302162" lon="6.357"><ele>859.2</ele><time>2026-05-02T10:19:08.986Z</time></trkpt><trkpt lat="43.7302113" lon="6.3568482"><ele>857.8</ele><time>2026-05-02T10:19:09.986Z</time></trkpt><trkpt lat="43.7302561" lon="6.3567057"><ele>856.4</ele><time>2026-05-02T10:19:10.986Z</time></trkpt><trkpt lat="43.7302919" lon="6.3565337"><ele>855.0</ele><time>2026-05-02T10:19:11.986Z</time></trkpt><trkpt lat="43.7303482" lon="6.3562842"><ele>853.3333333333333</ele><time>2026-05-02T10:19:12.986Z</time></trkpt><trkpt lat="43.7304087" lon="6.3560887"><ele>851.6666666666666</ele><time>2026-05-02T10:19:13.986Z</time></trkpt><trkpt lat="43.7304949" lon="6.3558562"><ele>850.0</ele><time>2026-05-02T10:19:14.985Z</time></trkpt><trkpt lat="43.7305944" lon="6.3556702"><ele>848.6666666666666</ele><time>2026-05-02T10:19:15.986Z</time></trkpt><trkpt lat="43.7306821" lon="6.3554802"><ele>847.3333333333333</ele><time>2026-05-02T10:19:16.985Z</time></trkpt><trkpt lat="43.7307777" lon="6.355288"><ele>846.0</ele><time>2026-05-02T10:19:17.986Z</time></trkpt><trkpt lat="43.7308579" lon="6.3550911"><ele>846.0</ele><time>2026-05-02T10:19:18.986Z</time></trkpt><trkpt lat="43.7309389" lon="6.3548851"><ele>846.0</ele><time>2026-05-02T10:19:19.986Z</time></trkpt><trkpt lat="43.7310268" lon="6.3546803"><ele>846.0</ele><time>2026-05-02T10:19:20.986Z</time></trkpt><trkpt lat="43.7311401" lon="6.354482"><ele>845.3333333333333</ele><time>2026-05-02T10:19:21.986Z</time></trkpt><trkpt lat="43.7312523" lon="6.3542808"><ele>844.6666666666666</ele><time>2026-05-02T10:19:22.986Z</time></trkpt><trkpt lat="43.7313668" lon="6.3540856"><ele>844.0</ele><time>2026-05-02T10:19:23.986Z</time></trkpt><trkpt lat="43.7314814" lon="6.3538782"><ele>842.3333333333333</ele><time>2026-05-02T10:19:24.986Z</time></trkpt><trkpt lat="43.7316149" lon="6.3536667"><ele>840.6666666666667</ele><time>2026-05-02T10:19:25.986Z</time></trkpt><trkpt lat="43.7317321" lon="6.3534936"><ele>839.0</ele><time>2026-05-02T10:19:26.986Z</time></trkpt><trkpt lat="43.7318547" lon="6.3533489"><ele>839.0</ele><time>2026-05-02T10:19:27.985Z</time></trkpt><trkpt lat="43.7319744" lon="6.3532097"><ele>839.0</ele><time>2026-05-02T10:19:28.986Z</time></trkpt><trkpt lat="43.7320865" lon="6.3530723"><ele>839.0</ele><time>2026-05-02T10:19:29.986Z</time></trkpt><trkpt lat="43.7321635" lon="6.3529369"><ele>839.0</ele><time>2026-05-02T10:19:30.985Z</time></trkpt><trkpt lat="43.7322851" lon="6.3528555"><ele>838.0</ele><time>2026-05-02T10:19:31.986Z</time></trkpt><trkpt lat="43.732419" lon="6.3527697"><ele>837.0</ele><time>2026-05-02T10:19:32.986Z</time></trkpt><trkpt lat="43.7325431" lon="6.352691"><ele>836.0</ele><time>2026-05-02T10:19:33.986Z</time></trkpt><trkpt lat="43.7326925" lon="6.3526138"><ele>835.0</ele><time>2026-05-02T10:19:34.986Z</time></trkpt><trkpt lat="43.7328483" lon="6.3525407"><ele>835.0</ele><time>2026-05-02T10:19:35.986Z</time></trkpt><trkpt lat="43.733004" lon="6.3524442"><ele>835.0</ele><time>2026-05-02T10:19:36.986Z</time></trkpt><trkpt lat="43.7331508" lon="6.3523258"><ele>835.0</ele><time>2026-05-02T10:19:37.986Z</time></trkpt><trkpt lat="43.7332974" lon="6.3521967"><ele>833.6666666666666</ele><time>2026-05-02T10:19:38.986Z</time></trkpt><trkpt lat="43.7334475" lon="6.3520795"><ele>832.3333333333333</ele><time>2026-05-02T10:19:39.986Z</time></trkpt><trkpt lat="43.7335957" lon="6.3519646"><ele>831.0</ele><time>2026-05-02T10:19:40.986Z</time></trkpt><trkpt lat="43.7337477" lon="6.3518361"><ele>830.6666666666667</ele><time>2026-05-02T10:19:41.986Z</time></trkpt><trkpt lat="43.7338928" lon="6.3517059"><ele>830.3333333333334</ele><time>2026-05-02T10:19:42.986Z</time></trkpt><trkpt lat="43.7340427" lon="6.3515928"><ele>830.0</ele><time>2026-05-02T10:19:43.986Z</time></trkpt><trkpt lat="43.73422" lon="6.3515184"><ele>830.0</ele><time>2026-05-02T10:19:44.986Z</time></trkpt><trkpt lat="43.7343602" lon="6.3514207"><ele>830.0</ele><time>2026-05-02T10:19:45.985Z</time></trkpt><trkpt lat="43.7344966" lon="6.3512983"><ele>830.0</ele><time>2026-05-02T10:19:46.986Z</time></trkpt><trkpt lat="43.7346228" lon="6.3512069"><ele>829.0</ele><time>2026-05-02T10:19:47.986Z</time></trkpt><trkpt lat="43.7347512" lon="6.3511463"><ele>828.0</ele><time>2026-05-02T10:19:48.986Z</time></trkpt><trkpt lat="43.7348819" lon="6.3510759"><ele>827.0</ele><time>2026-05-02T10:19:49.985Z</time></trkpt><trkpt lat="43.7349993" lon="6.351013"><ele>826.0</ele><time>2026-05-02T10:19:50.986Z</time></trkpt><trkpt lat="43.7351146" lon="6.350954"><ele>818.5</ele><time>2026-05-02T10:19:51.985Z</time></trkpt><trkpt lat="43.7352286" lon="6.350823"><ele>811.0</ele><time>2026-05-02T10:19:52.986Z</time></trkpt><trkpt lat="43.7353456" lon="6.3506967"><ele>803.5</ele><time>2026-05-02T10:19:53.985Z</time></trkpt><trkpt lat="43.7354356" lon="6.3505349"><ele>796.0</ele><time>2026-05-02T10:19:54.986Z</time></trkpt><trkpt lat="43.7355337" lon="6.350378"><ele>796.0</ele><time>2026-05-02T10:19:55.986Z</time></trkpt><trkpt lat="43.7356076" lon="6.3501717"><ele>796.0</ele><time>2026-05-02T10:19:56.986Z</time></trkpt><trkpt lat="43.7356994" lon="6.3500025"><ele>796.0</ele><time>2026-05-02T10:19:57.985Z</time></trkpt><trkpt lat="43.7357934" lon="6.3498264"><ele>794.3333333333333</ele><time>2026-05-02T10:19:58.986Z</time></trkpt><trkpt lat="43.735893" lon="6.3496295"><ele>792.6666666666667</ele><time>2026-05-02T10:19:59.986Z</time></trkpt><trkpt lat="43.7359752" lon="6.3494848"><ele>791.0</ele><time>2026-05-02T10:20:00.986Z</time></trkpt><trkpt lat="43.7360683" lon="6.3493229"><ele>791.0</ele><time>2026-05-02T10:20:01.986Z</time></trkpt><trkpt lat="43.7361516" lon="6.3491691"><ele>791.0</ele><time>2026-05-02T10:20:02.985Z</time></trkpt><trkpt lat="43.7362284" lon="6.3489889"><ele>791.0</ele><time>2026-05-02T10:20:03.986Z</time></trkpt><trkpt lat="43.736296" lon="6.3488279"><ele>791.0</ele><time>2026-05-02T10:20:04.986Z</time></trkpt><trkpt lat="43.736347" lon="6.3486354"><ele>789.25</ele><time>2026-05-02T10:20:05.986Z</time></trkpt><trkpt lat="43.736385" lon="6.3484472"><ele>787.5</ele><time>2026-05-02T10:20:06.986Z</time></trkpt><trkpt lat="43.7364115" lon="6.348261"><ele>785.75</ele><time>2026-05-02T10:20:07.986Z</time></trkpt><trkpt lat="43.7364459" lon="6.3480832"><ele>784.0</ele><time>2026-05-02T10:20:08.986Z</time></trkpt><trkpt lat="43.736497" lon="6.3479208"><ele>787.5</ele><time>2026-05-02T10:20:09.986Z</time></trkpt><trkpt lat="43.7365531" lon="6.3477701"><ele>791.0</ele><time>2026-05-02T10:20:10.986Z</time></trkpt><trkpt lat="43.7366159" lon="6.347639"><ele>794.5</ele><time>2026-05-02T10:20:11.986Z</time></trkpt><trkpt lat="43.736681" lon="6.3475171"><ele>798.0</ele><time>2026-05-02T10:20:12.986Z</time></trkpt><trkpt lat="43.7367173" lon="6.3473668"><ele>798.0</ele><time>2026-05-02T10:20:13.986Z</time></trkpt><trkpt lat="43.7367482" lon="6.3472356"><ele>798.0</ele><time>2026-05-02T10:20:14.986Z</time></trkpt><trkpt lat="43.7367747" lon="6.3470938"><ele>798.0</ele><time>2026-05-02T10:20:15.986Z</time></trkpt><trkpt lat="43.7368046" lon="6.3469471"><ele>798.0</ele><time>2026-05-02T10:20:16.986Z</time></trkpt><trkpt lat="43.736836" lon="6.3468228"><ele>798.0</ele><time>2026-05-02T10:20:17.986Z</time></trkpt><trkpt lat="43.7368617" lon="6.3466901"><ele>798.4</ele><time>2026-05-02T10:20:18.986Z</time></trkpt><trkpt lat="43.7369109" lon="6.3465598"><ele>798.8</ele><time>2026-05-02T10:20:19.986Z</time></trkpt><trkpt lat="43.7369724" lon="6.3464385"><ele>799.2</ele><time>2026-05-02T10:20:20.986Z</time></trkpt><trkpt lat="43.7370353" lon="6.3463349"><ele>799.6</ele><time>2026-05-02T10:20:21.986Z</time></trkpt><trkpt lat="43.7370956" lon="6.3462266"><ele>800.0</ele><time>2026-05-02T10:20:22.986Z</time></trkpt><trkpt lat="43.7371395" lon="6.3461245"><ele>800.0</ele><time>2026-05-02T10:20:23.986Z</time></trkpt><trkpt lat="43.7371708" lon="6.3460088"><ele>800.0</ele><time>2026-05-02T10:20:24.986Z</time></trkpt><trkpt lat="43.7371965" lon="6.3458697"><ele>800.0</ele><time>2026-05-02T10:20:25.986Z</time></trkpt><trkpt lat="43.7371385" lon="6.345723"><ele>800.0</ele><time>2026-05-02T10:20:26.985Z</time></trkpt><trkpt lat="43.7371083" lon="6.3455779"><ele>800.0</ele><time>2026-05-02T10:20:27.986Z</time></trkpt><trkpt lat="43.7371119" lon="6.3454355"><ele>799.25</ele><time>2026-05-02T10:20:28.986Z</time></trkpt><trkpt lat="43.7371232" lon="6.3453213"><ele>798.5</ele><time>2026-05-02T10:20:29.986Z</time></trkpt><trkpt lat="43.737226" lon="6.3452133"><ele>797.75</ele><time>2026-05-02T10:20:30.986Z</time></trkpt><trkpt lat="43.7373217" lon="6.345111"><ele>797.0</ele><time>2026-05-02T10:20:31.986Z</time></trkpt><trkpt lat="43.737417" lon="6.3449783"><ele>797.0</ele><time>2026-05-02T10:20:32.986Z</time></trkpt><trkpt lat="43.7375304" lon="6.3448781"><ele>797.0</ele><time>2026-05-02T10:20:33.986Z</time></trkpt><trkpt lat="43.7376159" lon="6.3447778"><ele>797.0</ele><time>2026-05-02T10:20:34.986Z</time></trkpt><trkpt lat="43.7377146" lon="6.3446686"><ele>797.0</ele><time>2026-05-02T10:20:35.986Z</time></trkpt><trkpt lat="43.7378008" lon="6.3445334"><ele>796.25</ele><time>2026-05-02T10:20:36.986Z</time></trkpt><trkpt lat="43.7378579" lon="6.3443875"><ele>795.5</ele><time>2026-05-02T10:20:37.986Z</time></trkpt><trkpt lat="43.7378976" lon="6.3442238"><ele>794.75</ele><time>2026-05-02T10:20:38.986Z</time></trkpt><trkpt lat="43.7379662" lon="6.3440314"><ele>794.0</ele><time>2026-05-02T10:20:39.985Z</time></trkpt><trkpt lat="43.7380497" lon="6.3438564"><ele>794.0</ele><time>2026-05-02T10:20:40.985Z</time></trkpt><trkpt lat="43.7381418" lon="6.3437192"><ele>794.0</ele><time>2026-05-02T10:20:41.986Z</time></trkpt><trkpt lat="43.7382263" lon="6.3435658"><ele>794.0</ele><time>2026-05-02T10:20:42.986Z</time></trkpt><trkpt lat="43.7383128" lon="6.3434048"><ele>794.0</ele><time>2026-05-02T10:20:43.986Z</time></trkpt><trkpt lat="43.7383799" lon="6.3432669"><ele>794.0</ele><time>2026-05-02T10:20:44.986Z</time></trkpt><trkpt lat="43.7384561" lon="6.3431434"><ele>794.0</ele><time>2026-05-02T10:20:45.986Z</time></trkpt><trkpt lat="43.7385312" lon="6.3430258"><ele>794.0</ele><time>2026-05-02T10:20:46.985Z</time></trkpt><trkpt lat="43.7385896" lon="6.342878"><ele>794.0</ele><time>2026-05-02T10:20:47.986Z</time></trkpt><trkpt lat="43.7386291" lon="6.3427201"><ele>795.0</ele><time>2026-05-02T10:20:48.986Z</time></trkpt><trkpt lat="43.7386651" lon="6.3425718"><ele>796.0</ele><time>2026-05-02T10:20:49.986Z</time></trkpt><trkpt lat="43.7386958" lon="6.3424176"><ele>797.0</ele><time>2026-05-02T10:20:50.986Z</time></trkpt><trkpt lat="43.7387232" lon="6.3422863"><ele>798.0</ele><time>2026-05-02T10:20:51.985Z</time></trkpt><trkpt lat="43.7387522" lon="6.3421493"><ele>799.0</ele><time>2026-05-02T10:20:52.986Z</time></trkpt><trkpt lat="43.7387913" lon="6.3420101"><ele>799.0</ele><time>2026-05-02T10:20:53.986Z</time></trkpt><trkpt lat="43.7388417" lon="6.3418785"><ele>799.0</ele><time>2026-05-02T10:20:54.986Z</time></trkpt><trkpt lat="43.7389042" lon="6.3417421"><ele>799.0</ele><time>2026-05-02T10:20:55.986Z</time></trkpt><trkpt lat="43.7389738" lon="6.3416083"><ele>799.0</ele><time>2026-05-02T10:20:56.986Z</time></trkpt><trkpt lat="43.7390387" lon="6.3414795"><ele>802.25</ele><time>2026-05-02T10:20:57.986Z</time></trkpt><trkpt lat="43.7391082" lon="6.34133"><ele>805.5</ele><time>2026-05-02T10:20:58.986Z</time></trkpt><trkpt lat="43.7391771" lon="6.3411804"><ele>808.75</ele><time>2026-05-02T10:20:59.986Z</time></trkpt><trkpt lat="43.7392462" lon="6.3410638"><ele>812.0</ele><time>2026-05-02T10:21:00.986Z</time></trkpt><trkpt lat="43.7393202" lon="6.340944"><ele>810.25</ele><time>2026-05-02T10:21:01.986Z</time></trkpt><trkpt lat="43.7393968" lon="6.3408398"><ele>808.5</ele><time>2026-05-02T10:21:02.985Z</time></trkpt><trkpt lat="43.7394997" lon="6.3407923"><ele>806.75</ele><time>2026-05-02T10:21:03.986Z</time></trkpt><trkpt lat="43.7396416" lon="6.3407812"><ele>805.0</ele><time>2026-05-02T10:21:04.986Z</time></trkpt><trkpt lat="43.7397859" lon="6.3408028"><ele>805.0</ele><time>2026-05-02T10:21:05.986Z</time></trkpt><trkpt lat="43.739915" lon="6.3408055"><ele>805.0</ele><time>2026-05-02T10:21:06.985Z</time></trkpt><trkpt lat="43.7400569" lon="6.3408005"><ele>805.0</ele><time>2026-05-02T10:21:07.986Z</time></trkpt><trkpt lat="43.7401868" lon="6.3408146"><ele>805.0</ele><time>2026-05-02T10:21:08.985Z</time></trkpt><trkpt lat="43.740314" lon="6.3408289"><ele>804.0</ele><time>2026-05-02T10:21:09.985Z</time></trkpt><trkpt lat="43.7404361" lon="6.3408501"><ele>803.0</ele><time>2026-05-02T10:21:10.986Z</time></trkpt><trkpt lat="43.740555" lon="6.3408728"><ele>802.0</ele><time>2026-05-02T10:21:11.986Z</time></trkpt><trkpt lat="43.7406722" lon="6.3408881"><ele>801.0</ele><time>2026-05-02T10:21:12.986Z</time></trkpt><trkpt lat="43.7407738" lon="6.3408932"><ele>801.0</ele><time>2026-05-02T10:21:13.986Z</time></trkpt><trkpt lat="43.7408624" lon="6.3408979"><ele>801.0</ele><time>2026-05-02T10:21:14.985Z</time></trkpt><trkpt lat="43.7409697" lon="6.3409075"><ele>801.0</ele><time>2026-05-02T10:21:15.986Z</time></trkpt><trkpt lat="43.7410634" lon="6.3409073"><ele>801.0</ele><time>2026-05-02T10:21:16.986Z</time></trkpt><trkpt lat="43.7411563" lon="6.340905"><ele>801.0</ele><time>2026-05-02T10:21:17.986Z</time></trkpt><trkpt lat="43.7412363" lon="6.3408964"><ele>798.8</ele><time>2026-05-02T10:21:18.986Z</time></trkpt><trkpt lat="43.7413298" lon="6.3408818"><ele>796.5999999999999</ele><time>2026-05-02T10:21:19.986Z</time></trkpt><trkpt lat="43.7414322" lon="6.3408513"><ele>794.4</ele><time>2026-05-02T10:21:20.986Z</time></trkpt><trkpt lat="43.7415345" lon="6.340825"><ele>792.2</ele><time>2026-05-02T10:21:21.985Z</time></trkpt><trkpt lat="43.74163" lon="6.3407424"><ele>790.0</ele><time>2026-05-02T10:21:22.986Z</time></trkpt><trkpt lat="43.7417093" lon="6.3406721"><ele>790.0</ele><time>2026-05-02T10:21:23.986Z</time></trkpt><trkpt lat="43.7417574" lon="6.3405785"><ele>790.0</ele><time>2026-05-02T10:21:24.986Z</time></trkpt><trkpt lat="43.7417911" lon="6.340468"><ele>790.0</ele><time>2026-05-02T10:21:25.986Z</time></trkpt><trkpt lat="43.7418063" lon="6.3403399"><ele>790.0</ele><time>2026-05-02T10:21:26.986Z</time></trkpt><trkpt lat="43.7418206" lon="6.3402055"><ele>790.0</ele><time>2026-05-02T10:21:27.986Z</time></trkpt><trkpt lat="43.7418165" lon="6.3400797"><ele>790.75</ele><time>2026-05-02T10:21:28.986Z</time></trkpt><trkpt lat="43.7417781" lon="6.3399253"><ele>791.5</ele><time>2026-05-02T10:21:29.985Z</time></trkpt><trkpt lat="43.7417224" lon="6.3397664"><ele>792.25</ele><time>2026-05-02T10:21:30.986Z</time></trkpt><trkpt lat="43.7416719" lon="6.3396263"><ele>793.0</ele><time>2026-05-02T10:21:31.986Z</time></trkpt><trkpt lat="43.7415901" lon="6.3394844"><ele>793.0</ele><time>2026-05-02T10:21:32.986Z</time></trkpt><trkpt lat="43.741494" lon="6.3393846"><ele>793.0</ele><time>2026-05-02T10:21:33.986Z</time></trkpt><trkpt lat="43.7414461" lon="6.3392727"><ele>793.0</ele><time>2026-05-02T10:21:34.985Z</time></trkpt><trkpt lat="43.7413945" lon="6.3391443"><ele>793.0</ele><time>2026-05-02T10:21:35.986Z</time></trkpt><trkpt lat="43.7413428" lon="6.3390138"><ele>793.0</ele><time>2026-05-02T10:21:36.986Z</time></trkpt><trkpt lat="43.7413135" lon="6.3388723"><ele>795.4</ele><time>2026-05-02T10:21:37.986Z</time></trkpt><trkpt lat="43.7413021" lon="6.3387333"><ele>797.8</ele><time>2026-05-02T10:21:38.986Z</time></trkpt><trkpt lat="43.7413087" lon="6.3385929"><ele>800.2</ele><time>2026-05-02T10:21:39.985Z</time></trkpt><trkpt lat="43.7413501" lon="6.3384654"><ele>802.6</ele><time>2026-05-02T10:21:40.985Z</time></trkpt><trkpt lat="43.741416" lon="6.3383098"><ele>805.0</ele><time>2026-05-02T10:21:41.986Z</time></trkpt><trkpt lat="43.7414847" lon="6.3382033"><ele>805.0</ele><time>2026-05-02T10:21:42.986Z</time></trkpt><trkpt lat="43.741554" lon="6.3381017"><ele>805.0</ele><time>2026-05-02T10:21:43.986Z</time></trkpt><trkpt lat="43.7416148" lon="6.3379915"><ele>805.0</ele><time>2026-05-02T10:21:44.986Z</time></trkpt><trkpt lat="43.7416809" lon="6.3378789"><ele>805.0</ele><time>2026-05-02T10:21:45.985Z</time></trkpt><trkpt lat="43.7417579" lon="6.3377206"><ele>805.0</ele><time>2026-05-02T10:21:46.986Z</time></trkpt><trkpt lat="43.7418194" lon="6.3375908"><ele>805.0</ele><time>2026-05-02T10:21:47.985Z</time></trkpt><trkpt lat="43.7418678" lon="6.3374465"><ele>805.0</ele><time>2026-05-02T10:21:48.986Z</time></trkpt><trkpt lat="43.7419224" lon="6.3372769"><ele>805.0</ele><time>2026-05-02T10:21:49.986Z</time></trkpt><trkpt lat="43.7419674" lon="6.3371161"><ele>805.0</ele><time>2026-05-02T10:21:50.986Z</time></trkpt><trkpt lat="43.7420185" lon="6.3369647"><ele>805.5</ele><time>2026-05-02T10:21:51.986Z</time></trkpt><trkpt lat="43.7420723" lon="6.3368125"><ele>806.0</ele><time>2026-05-02T10:21:52.986Z</time></trkpt><trkpt lat="43.7421111" lon="6.3366743"><ele>806.5</ele><time>2026-05-02T10:21:53.986Z</time></trkpt><trkpt lat="43.7421494" lon="6.3365108"><ele>807.0</ele><time>2026-05-02T10:21:54.986Z</time></trkpt><trkpt lat="43.7421749" lon="6.3363387"><ele>810.0</ele><time>2026-05-02T10:21:55.986Z</time></trkpt><trkpt lat="43.7421975" lon="6.336174"><ele>813.0</ele><time>2026-05-02T10:21:56.986Z</time></trkpt><trkpt lat="43.7422289" lon="6.3359982"><ele>816.0</ele><time>2026-05-02T10:21:57.985Z</time></trkpt><trkpt lat="43.7422693" lon="6.3358191"><ele>819.0</ele><time>2026-05-02T10:21:58.986Z</time></trkpt><trkpt lat="43.7422988" lon="6.3356563"><ele>821.25</ele><time>2026-05-02T10:21:59.986Z</time></trkpt><trkpt lat="43.7423372" lon="6.3355114"><ele>823.5</ele><time>2026-05-02T10:22:00.985Z</time></trkpt><trkpt lat="43.7423931" lon="6.3353314"><ele>825.75</ele><time>2026-05-02T10:22:01.986Z</time></trkpt><trkpt lat="43.742452" lon="6.3351704"><ele>828.0</ele><time>2026-05-02T10:22:02.986Z</time></trkpt><trkpt lat="43.7425118" lon="6.3350122"><ele>828.0</ele><time>2026-05-02T10:22:03.986Z</time></trkpt><trkpt lat="43.7425829" lon="6.3348431"><ele>828.0</ele><time>2026-05-02T10:22:04.986Z</time></trkpt><trkpt lat="43.7426335" lon="6.3346786"><ele>828.0</ele><time>2026-05-02T10:22:05.986Z</time></trkpt><trkpt lat="43.7426942" lon="6.3345076"><ele>828.0</ele><time>2026-05-02T10:22:06.986Z</time></trkpt><trkpt lat="43.7427551" lon="6.334367"><ele>826.75</ele><time>2026-05-02T10:22:07.986Z</time></trkpt><trkpt lat="43.7427989" lon="6.334188"><ele>825.5</ele><time>2026-05-02T10:22:08.986Z</time></trkpt><trkpt lat="43.7428568" lon="6.3340252"><ele>824.25</ele><time>2026-05-02T10:22:09.986Z</time></trkpt><trkpt lat="43.7429186" lon="6.3338748"><ele>823.0</ele><time>2026-05-02T10:22:10.986Z</time></trkpt><trkpt lat="43.7429763" lon="6.3337339"><ele>823.0</ele><time>2026-05-02T10:22:11.985Z</time></trkpt><trkpt lat="43.743018" lon="6.3335898"><ele>823.0</ele><time>2026-05-02T10:22:12.986Z</time></trkpt><trkpt lat="43.7430484" lon="6.333444"><ele>823.0</ele><time>2026-05-02T10:22:13.986Z</time></trkpt><trkpt lat="43.7430738" lon="6.3332768"><ele>823.0</ele><time>2026-05-02T10:22:14.986Z</time></trkpt><trkpt lat="43.7430948" lon="6.3331252"><ele>825.4</ele><time>2026-05-02T10:22:15.986Z</time></trkpt><trkpt lat="43.7431232" lon="6.3329914"><ele>827.8</ele><time>2026-05-02T10:22:16.986Z</time></trkpt><trkpt lat="43.7431392" lon="6.3328507"><ele>830.2</ele><time>2026-05-02T10:22:17.986Z</time></trkpt><trkpt lat="43.7431795" lon="6.3327035"><ele>832.6</ele><time>2026-05-02T10:22:18.986Z</time></trkpt><trkpt lat="43.743235" lon="6.3325576"><ele>835.0</ele><time>2026-05-02T10:22:19.986Z</time></trkpt><trkpt lat="43.7432946" lon="6.332398"><ele>835.0</ele><time>2026-05-02T10:22:20.986Z</time></trkpt><trkpt lat="43.7433579" lon="6.332238"><ele>835.0</ele><time>2026-05-02T10:22:21.985Z</time></trkpt><trkpt lat="43.7434097" lon="6.3320845"><ele>835.0</ele><time>2026-05-02T10:22:22.986Z</time></trkpt><trkpt lat="43.7434759" lon="6.3319506"><ele>835.0</ele><time>2026-05-02T10:22:23.986Z</time></trkpt><trkpt lat="43.7435292" lon="6.3318074"><ele>836.75</ele><time>2026-05-02T10:22:24.986Z</time></trkpt><trkpt lat="43.7435724" lon="6.3316521"><ele>838.5</ele><time>2026-05-02T10:22:25.985Z</time></trkpt><trkpt lat="43.743597" lon="6.3314978"><ele>840.25</ele><time>2026-05-02T10:22:26.986Z</time></trkpt><trkpt lat="43.7436215" lon="6.3313481"><ele>842.0</ele><time>2026-05-02T10:22:27.986Z</time></trkpt><trkpt lat="43.7436525" lon="6.3312047"><ele>842.0</ele><time>2026-05-02T10:22:28.986Z</time></trkpt><trkpt lat="43.7437094" lon="6.3310735"><ele>842.0</ele><time>2026-05-02T10:22:29.986Z</time></trkpt><trkpt lat="43.7437917" lon="6.3309813"><ele>842.0</ele><time>2026-05-02T10:22:30.986Z</time></trkpt><trkpt lat="43.7438513" lon="6.3308646"><ele>842.0</ele><time>2026-05-02T10:22:31.986Z</time></trkpt><trkpt lat="43.7439026" lon="6.3307504"><ele>842.0</ele><time>2026-05-02T10:22:32.986Z</time></trkpt><trkpt lat="43.743925" lon="6.3306537"><ele>842.0000000000001</ele><time>2026-05-02T10:22:33.986Z</time></trkpt><trkpt lat="43.7439191" lon="6.3305426"><ele>842.0</ele><time>2026-05-02T10:22:34.986Z</time></trkpt><trkpt lat="43.7439077" lon="6.3304424"><ele>842.0</ele><time>2026-05-02T10:22:35.986Z</time></trkpt><trkpt lat="43.7439347" lon="6.3303225"><ele>842.0</ele><time>2026-05-02T10:22:36.986Z</time></trkpt><trkpt lat="43.7439844" lon="6.3302428"><ele>842.0000000000001</ele><time>2026-05-02T10:22:37.986Z</time></trkpt><trkpt lat="43.744045" lon="6.3301557"><ele>842.0</ele><time>2026-05-02T10:22:38.986Z</time></trkpt><trkpt lat="43.7441017" lon="6.3300449"><ele>842.0</ele><time>2026-05-02T10:22:39.986Z</time></trkpt><trkpt lat="43.7441454" lon="6.3299182"><ele>842.0</ele><time>2026-05-02T10:22:40.985Z</time></trkpt><trkpt lat="43.7441822" lon="6.3297943"><ele>842.0</ele><time>2026-05-02T10:22:41.986Z</time></trkpt><trkpt lat="43.7442049" lon="6.3296589"><ele>842.0</ele><time>2026-05-02T10:22:42.985Z</time></trkpt><trkpt lat="43.7442256" lon="6.3295171"><ele>842.0</ele><time>2026-05-02T10:22:43.986Z</time></trkpt><trkpt lat="43.7442477" lon="6.3293937"><ele>841.4000000000001</ele><time>2026-05-02T10:22:44.986Z</time></trkpt><trkpt lat="43.7442239" lon="6.3292538"><ele>840.8000000000001</ele><time>2026-05-02T10:22:45.986Z</time></trkpt><trkpt lat="43.7441615" lon="6.3291239"><ele>840.2</ele><time>2026-05-02T10:22:46.986Z</time></trkpt><trkpt lat="43.7440998" lon="6.3290187"><ele>839.6</ele><time>2026-05-02T10:22:47.986Z</time></trkpt><trkpt lat="43.7440541" lon="6.3289081"><ele>839.0</ele><time>2026-05-02T10:22:48.986Z</time></trkpt><trkpt lat="43.7440061" lon="6.3287957"><ele>839.0</ele><time>2026-05-02T10:22:49.985Z</time></trkpt><trkpt lat="43.74399" lon="6.3286896"><ele>839.0</ele><time>2026-05-02T10:22:50.985Z</time></trkpt><trkpt lat="43.7440718" lon="6.3285741"><ele>839.0</ele><time>2026-05-02T10:22:51.985Z</time></trkpt><trkpt lat="43.7441365" lon="6.3284765"><ele>839.0</ele><time>2026-05-02T10:22:52.985Z</time></trkpt><trkpt lat="43.7442014" lon="6.3283572"><ele>839.0</ele><time>2026-05-02T10:22:53.986Z</time></trkpt><trkpt lat="43.7442499" lon="6.3282525"><ele>839.0</ele><time>2026-05-02T10:22:54.985Z</time></trkpt><trkpt lat="43.7442984" lon="6.3281038"><ele>839.0</ele><time>2026-05-02T10:22:55.986Z</time></trkpt><trkpt lat="43.7442371" lon="6.3279283"><ele>839.0</ele><time>2026-05-02T10:22:56.986Z</time></trkpt><trkpt lat="43.7442002" lon="6.3277912"><ele>839.0</ele><time>2026-05-02T10:22:57.986Z</time></trkpt><trkpt lat="43.7441613" lon="6.3276737"><ele>839.4000000000001</ele><time>2026-05-02T10:22:58.986Z</time></trkpt><trkpt lat="43.7441197" lon="6.3275479"><ele>839.8</ele><time>2026-05-02T10:22:59.986Z</time></trkpt><trkpt lat="43.7440895" lon="6.3274035"><ele>840.2</ele><time>2026-05-02T10:23:00.986Z</time></trkpt><trkpt lat="43.7441023" lon="6.327245"><ele>840.5999999999999</ele><time>2026-05-02T10:23:01.986Z</time></trkpt><trkpt lat="43.744117" lon="6.3271381"><ele>841.0</ele><time>2026-05-02T10:23:02.986Z</time></trkpt><trkpt lat="43.7441084" lon="6.3270242"><ele>843.3333333333333</ele><time>2026-05-02T10:23:03.986Z</time></trkpt><trkpt lat="43.7441067" lon="6.3269072"><ele>845.6666666666666</ele><time>2026-05-02T10:23:04.986Z</time></trkpt><trkpt lat="43.7440951" lon="6.3267947"><ele>848.0</ele><time>2026-05-02T10:23:05.986Z</time></trkpt><trkpt lat="43.7440912" lon="6.3266948"><ele>850.3333333333333</ele><time>2026-05-02T10:23:06.985Z</time></trkpt><trkpt lat="43.7441028" lon="6.3265893"><ele>852.6666666666666</ele><time>2026-05-02T10:23:07.986Z</time></trkpt><trkpt lat="43.744183" lon="6.3265123"><ele>855.0</ele><time>2026-05-02T10:23:08.986Z</time></trkpt><trkpt lat="43.7442465" lon="6.3264417"><ele>860.8</ele><time>2026-05-02T10:23:09.986Z</time></trkpt><trkpt lat="43.7443144" lon="6.3263539"><ele>866.6</ele><time>2026-05-02T10:23:10.986Z</time></trkpt><trkpt lat="43.7443915" lon="6.3262512"><ele>872.4000000000001</ele><time>2026-05-02T10:23:11.986Z</time></trkpt><trkpt lat="43.7444415" lon="6.3261191"><ele>878.2</ele><time>2026-05-02T10:23:12.985Z</time></trkpt><trkpt lat="43.7444967" lon="6.3259955"><ele>884.0</ele><time>2026-05-02T10:23:13.986Z</time></trkpt><trkpt lat="43.7445297" lon="6.3258603"><ele>871.0</ele><time>2026-05-02T10:23:14.985Z</time></trkpt><trkpt lat="43.7445778" lon="6.3257299"><ele>858.0000000000001</ele><time>2026-05-02T10:23:15.986Z</time></trkpt><trkpt lat="43.7446056" lon="6.3255858"><ele>845.0</ele><time>2026-05-02T10:23:16.986Z</time></trkpt><trkpt lat="43.7446526" lon="6.325473"><ele>832.0</ele><time>2026-05-02T10:23:17.986Z</time></trkpt><trkpt lat="43.744689" lon="6.3253666"><ele>819.0</ele><time>2026-05-02T10:23:18.986Z</time></trkpt><trkpt lat="43.7447064" lon="6.3252618"><ele>819.0</ele><time>2026-05-02T10:23:19.986Z</time></trkpt><trkpt lat="43.7447049" lon="6.3251372"><ele>819.0</ele><time>2026-05-02T10:23:20.986Z</time></trkpt><trkpt lat="43.7447016" lon="6.3250143"><ele>819.0</ele><time>2026-05-02T10:23:21.986Z</time></trkpt><trkpt lat="43.7446731" lon="6.3249079"><ele>819.0</ele><time>2026-05-02T10:23:22.986Z</time></trkpt><trkpt lat="43.7446452" lon="6.3248262"><ele>819.0</ele><time>2026-05-02T10:23:23.986Z</time></trkpt><trkpt lat="43.7445709" lon="6.3246805"><ele>820.6</ele><time>2026-05-02T10:23:24.986Z</time></trkpt><trkpt lat="43.744512" lon="6.3245566"><ele>822.2</ele><time>2026-05-02T10:23:25.986Z</time></trkpt><trkpt lat="43.7444597" lon="6.3244361"><ele>823.8000000000001</ele><time>2026-05-02T10:23:26.986Z</time></trkpt><trkpt lat="43.7444557" lon="6.3243071"><ele>825.4000000000001</ele><time>2026-05-02T10:23:27.986Z</time></trkpt><trkpt lat="43.7444663" lon="6.3241909"><ele>827.0</ele><time>2026-05-02T10:23:28.986Z</time></trkpt><trkpt lat="43.744505" lon="6.32407"><ele>827.0</ele><time>2026-05-02T10:23:29.986Z</time></trkpt><trkpt lat="43.7445389" lon="6.3239088"><ele>827.0</ele><time>2026-05-02T10:23:30.986Z</time></trkpt><trkpt lat="43.7446025" lon="6.3237907"><ele>827.0</ele><time>2026-05-02T10:23:31.986Z</time></trkpt><trkpt lat="43.7446901" lon="6.3236666"><ele>827.0</ele><time>2026-05-02T10:23:32.986Z</time></trkpt><trkpt lat="43.7447456" lon="6.3235337"><ele>834.4000000000001</ele><time>2026-05-02T10:23:33.986Z</time></trkpt><trkpt lat="43.7448671" lon="6.3234674"><ele>841.8000000000001</ele><time>2026-05-02T10:23:34.986Z</time></trkpt><trkpt lat="43.7449853" lon="6.3234418"><ele>849.2</ele><time>2026-05-02T10:23:35.985Z</time></trkpt><trkpt lat="43.7450818" lon="6.3234213"><ele>856.6</ele><time>2026-05-02T10:23:36.986Z</time></trkpt><trkpt lat="43.7451575" lon="6.3234174"><ele>864.0</ele><time>2026-05-02T10:23:37.986Z</time></trkpt><trkpt lat="43.7452748" lon="6.3234491"><ele>864.0</ele><time>2026-05-02T10:23:38.985Z</time></trkpt><trkpt lat="43.7453765" lon="6.3234594"><ele>864.0000000000001</ele><time>2026-05-02T10:23:39.986Z</time></trkpt><trkpt lat="43.7454714" lon="6.3234704"><ele>864.0000000000001</ele><time>2026-05-02T10:23:40.986Z</time></trkpt><trkpt lat="43.7455802" lon="6.3235009"><ele>864.0</ele><time>2026-05-02T10:23:41.986Z</time></trkpt><trkpt lat="43.745666" lon="6.3235346"><ele>864.0</ele><time>2026-05-02T10:23:42.986Z</time></trkpt><trkpt lat="43.7457866" lon="6.3235479"><ele>864.0</ele><time>2026-05-02T10:23:43.985Z</time></trkpt><trkpt lat="43.7459055" lon="6.3235383"><ele>864.0</ele><time>2026-05-02T10:23:44.985Z</time></trkpt><trkpt lat="43.7460264" lon="6.3235057"><ele>864.0</ele><time>2026-05-02T10:23:45.985Z</time></trkpt><trkpt lat="43.746144" lon="6.3234713"><ele>864.0</ele><time>2026-05-02T10:23:46.986Z</time></trkpt><trkpt lat="43.7462677" lon="6.3234459"><ele>859.6</ele><time>2026-05-02T10:23:47.985Z</time></trkpt><trkpt lat="43.7463751" lon="6.323419"><ele>855.2</ele><time>2026-05-02T10:23:48.986Z</time></trkpt><trkpt lat="43.7464737" lon="6.3234114"><ele>850.8000000000001</ele><time>2026-05-02T10:23:49.986Z</time></trkpt><trkpt lat="43.7465547" lon="6.3233786"><ele>846.4000000000001</ele><time>2026-05-02T10:23:50.986Z</time></trkpt><trkpt lat="43.7466455" lon="6.3233589"><ele>842.0</ele><time>2026-05-02T10:23:51.985Z</time></trkpt><trkpt lat="43.7467174" lon="6.3233092"><ele>842.0000000000001</ele><time>2026-05-02T10:23:52.986Z</time></trkpt><trkpt lat="43.7467788" lon="6.3232244"><ele>842.0</ele><time>2026-05-02T10:23:53.986Z</time></trkpt><trkpt lat="43.7468164" lon="6.323109"><ele>842.0</ele><time>2026-05-02T10:23:54.986Z</time></trkpt><trkpt lat="43.7468273" lon="6.3229825"><ele>842.0</ele><time>2026-05-02T10:23:55.986Z</time></trkpt><trkpt lat="43.7468354" lon="6.3228701"><ele>842.0000000000001</ele><time>2026-05-02T10:23:56.986Z</time></trkpt><trkpt lat="43.7468494" lon="6.3227717"><ele>842.0</ele><time>2026-05-02T10:23:57.985Z</time></trkpt><trkpt lat="43.7469073" lon="6.3226803"><ele>845.4000000000001</ele><time>2026-05-02T10:23:59.985Z</time></trkpt><trkpt lat="43.7469824" lon="6.3226814"><ele>848.8000000000001</ele><time>2026-05-02T10:24:00.986Z</time></trkpt><trkpt lat="43.7471112" lon="6.3227091"><ele>852.2</ele><time>2026-05-02T10:24:01.986Z</time></trkpt><trkpt lat="43.7472422" lon="6.3227252"><ele>855.6</ele><time>2026-05-02T10:24:02.986Z</time></trkpt><trkpt lat="43.7473072" lon="6.3227833"><ele>859.0</ele><time>2026-05-02T10:24:03.986Z</time></trkpt><trkpt lat="43.747404" lon="6.3228258"><ele>859.0</ele><time>2026-05-02T10:24:04.986Z</time></trkpt><trkpt lat="43.7474797" lon="6.3228694"><ele>859.0</ele><time>2026-05-02T10:24:05.986Z</time></trkpt><trkpt lat="43.7476149" lon="6.3227879"><ele>859.0</ele><time>2026-05-02T10:24:07.986Z</time></trkpt><trkpt lat="43.7476943" lon="6.3227018"><ele>859.0</ele><time>2026-05-02T10:24:08.986Z</time></trkpt><trkpt lat="43.7477907" lon="6.3226039"><ele>850.4000000000001</ele><time>2026-05-02T10:24:09.985Z</time></trkpt><trkpt lat="43.7478752" lon="6.3225405"><ele>841.8000000000001</ele><time>2026-05-02T10:24:10.986Z</time></trkpt><trkpt lat="43.747952" lon="6.3225191"><ele>833.2</ele><time>2026-05-02T10:24:11.986Z</time></trkpt><trkpt lat="43.7480531" lon="6.3224291"><ele>824.5999999999999</ele><time>2026-05-02T10:24:12.986Z</time></trkpt><trkpt lat="43.7481133" lon="6.3223527"><ele>816.0</ele><time>2026-05-02T10:24:13.986Z</time></trkpt><trkpt lat="43.7482016" lon="6.3222721"><ele>822.5999999999999</ele><time>2026-05-02T10:24:14.986Z</time></trkpt><trkpt lat="43.748304" lon="6.3221862"><ele>829.2</ele><time>2026-05-02T10:24:15.985Z</time></trkpt><trkpt lat="43.748405" lon="6.3221128"><ele>835.8</ele><time>2026-05-02T10:24:16.986Z</time></trkpt><trkpt lat="43.7485055" lon="6.3220567"><ele>842.4000000000001</ele><time>2026-05-02T10:24:17.986Z</time></trkpt><trkpt lat="43.7486052" lon="6.3220049"><ele>849.0</ele><time>2026-05-02T10:24:18.986Z</time></trkpt><trkpt lat="43.7487057" lon="6.3219411"><ele>849.0</ele><time>2026-05-02T10:24:19.985Z</time></trkpt><trkpt lat="43.7488188" lon="6.3218885"><ele>849.0</ele><time>2026-05-02T10:24:20.986Z</time></trkpt><trkpt lat="43.7489233" lon="6.3218226"><ele>849.0</ele><time>2026-05-02T10:24:21.986Z</time></trkpt><trkpt lat="43.7490118" lon="6.3217909"><ele>849.0</ele><time>2026-05-02T10:24:22.986Z</time></trkpt><trkpt lat="43.7490993" lon="6.3217747"><ele>849.0</ele><time>2026-05-02T10:24:23.986Z</time></trkpt><trkpt lat="43.7492" lon="6.3217949"><ele>849.0</ele><time>2026-05-02T10:24:24.986Z</time></trkpt><trkpt lat="43.7493011" lon="6.3217475"><ele>849.0</ele><time>2026-05-02T10:24:25.986Z</time></trkpt><trkpt lat="43.7493999" lon="6.3217201"><ele>849.0</ele><time>2026-05-02T10:24:26.986Z</time></trkpt><trkpt lat="43.7494974" lon="6.3216923"><ele>849.0</ele><time>2026-05-02T10:24:27.986Z</time></trkpt><trkpt lat="43.7495569" lon="6.3216434"><ele>849.0</ele><time>2026-05-02T10:24:28.986Z</time></trkpt><trkpt lat="43.749611" lon="6.3215806"><ele>849.0</ele><time>2026-05-02T10:24:29.986Z</time></trkpt><trkpt lat="43.7496626" lon="6.3215101"><ele>850.6666666666666</ele><time>2026-05-02T10:24:30.986Z</time></trkpt><trkpt lat="43.749696" lon="6.3214305"><ele>852.3333333333333</ele><time>2026-05-02T10:24:31.986Z</time></trkpt><trkpt lat="43.7496983" lon="6.3212722"><ele>854.0</ele><time>2026-05-02T10:24:32.986Z</time></trkpt><trkpt lat="43.7497033" lon="6.3211567"><ele>855.6666666666666</ele><time>2026-05-02T10:24:33.986Z</time></trkpt><trkpt lat="43.7497079" lon="6.3210298"><ele>857.3333333333333</ele><time>2026-05-02T10:24:34.986Z</time></trkpt><trkpt lat="43.7497204" lon="6.3209331"><ele>859.0</ele><time>2026-05-02T10:24:35.986Z</time></trkpt><trkpt lat="43.7497961" lon="6.3208987"><ele>859.0</ele><time>2026-05-02T10:24:37.986Z</time></trkpt><trkpt lat="43.7499506" lon="6.3209406"><ele>859.0</ele><time>2026-05-02T10:24:39.986Z</time></trkpt><trkpt lat="43.750087" lon="6.3209473"><ele>859.0</ele><time>2026-05-02T10:24:40.986Z</time></trkpt><trkpt lat="43.7501906" lon="6.3209585"><ele>859.0</ele><time>2026-05-02T10:24:41.986Z</time></trkpt><trkpt lat="43.7502748" lon="6.3210231"><ele>855.8000000000001</ele><time>2026-05-02T10:24:42.986Z</time></trkpt><trkpt lat="43.7503424" lon="6.3211292"><ele>852.6000000000001</ele><time>2026-05-02T10:24:43.985Z</time></trkpt><trkpt lat="43.7504073" lon="6.3212135"><ele>849.4</ele><time>2026-05-02T10:24:44.986Z</time></trkpt><trkpt lat="43.7504823" lon="6.3213093"><ele>846.2</ele><time>2026-05-02T10:24:46.986Z</time></trkpt><trkpt lat="43.7505453" lon="6.3214144"><ele>843.0</ele><time>2026-05-02T10:24:48.986Z</time></trkpt><trkpt lat="43.7506669" lon="6.3214711"><ele>843.0</ele><time>2026-05-02T10:26:03.986Z</time></trkpt><trkpt lat="43.7507844" lon="6.3214895"><ele>843.0</ele><time>2026-05-02T10:26:05.986Z</time></trkpt><trkpt lat="43.7508837" lon="6.3214592"><ele>843.0</ele><time>2026-05-02T10:26:06.986Z</time></trkpt><trkpt lat="43.7509999" lon="6.3213601"><ele>843.0</ele><time>2026-05-02T10:26:07.986Z</time></trkpt><trkpt lat="43.7510635" lon="6.3212617"><ele>836.25</ele><time>2026-05-02T10:26:08.985Z</time></trkpt><trkpt lat="43.7511332" lon="6.3211323"><ele>829.5</ele><time>2026-05-02T10:26:09.985Z</time></trkpt><trkpt lat="43.7511725" lon="6.3209584"><ele>822.75</ele><time>2026-05-02T10:26:10.986Z</time></trkpt><trkpt lat="43.7512003" lon="6.320779"><ele>816.0</ele><time>2026-05-02T10:26:11.986Z</time></trkpt><trkpt lat="43.7512415" lon="6.3206098"><ele>818.75</ele><time>2026-05-02T10:26:12.985Z</time></trkpt><trkpt lat="43.7512673" lon="6.3204221"><ele>821.5</ele><time>2026-05-02T10:26:13.985Z</time></trkpt><trkpt lat="43.7512761" lon="6.3202599"><ele>824.25</ele><time>2026-05-02T10:26:14.985Z</time></trkpt><trkpt lat="43.7513124" lon="6.320077"><ele>827.0</ele><time>2026-05-02T10:26:15.985Z</time></trkpt><trkpt lat="43.7513226" lon="6.3199004"><ele>827.0</ele><time>2026-05-02T10:26:16.986Z</time></trkpt><trkpt lat="43.7513497" lon="6.3197657"><ele>827.0</ele><time>2026-05-02T10:26:17.985Z</time></trkpt><trkpt lat="43.7513751" lon="6.3196223"><ele>827.0</ele><time>2026-05-02T10:26:18.986Z</time></trkpt><trkpt lat="43.751382" lon="6.3194592"><ele>827.0</ele><time>2026-05-02T10:26:19.986Z</time></trkpt><trkpt lat="43.7513886" lon="6.3192722"><ele>827.5</ele><time>2026-05-02T10:26:20.986Z</time></trkpt><trkpt lat="43.7513919" lon="6.3191095"><ele>828.0</ele><time>2026-05-02T10:26:21.986Z</time></trkpt><trkpt lat="43.7513788" lon="6.3189285"><ele>828.5</ele><time>2026-05-02T10:26:22.986Z</time></trkpt><trkpt lat="43.7513652" lon="6.3187453"><ele>829.0</ele><time>2026-05-02T10:26:23.986Z</time></trkpt><trkpt lat="43.7513516" lon="6.3185685"><ele>830.0</ele><time>2026-05-02T10:26:24.985Z</time></trkpt><trkpt lat="43.7513303" lon="6.3183845"><ele>831.0</ele><time>2026-05-02T10:26:25.986Z</time></trkpt><trkpt lat="43.751305" lon="6.3182395"><ele>832.0</ele><time>2026-05-02T10:26:26.986Z</time></trkpt><trkpt lat="43.7512887" lon="6.3180721"><ele>833.0</ele><time>2026-05-02T10:26:27.986Z</time></trkpt><trkpt lat="43.7512847" lon="6.3178583"><ele>834.5</ele><time>2026-05-02T10:26:28.986Z</time></trkpt><trkpt lat="43.751277" lon="6.3176688"><ele>836.0</ele><time>2026-05-02T10:26:29.986Z</time></trkpt><trkpt lat="43.7512817" lon="6.3174773"><ele>837.5</ele><time>2026-05-02T10:26:30.986Z</time></trkpt><trkpt lat="43.7512739" lon="6.3172749"><ele>839.0</ele><time>2026-05-02T10:26:31.986Z</time></trkpt><trkpt lat="43.7512721" lon="6.3170886"><ele>841.75</ele><time>2026-05-02T10:26:32.986Z</time></trkpt><trkpt lat="43.7512747" lon="6.3168983"><ele>844.5</ele><time>2026-05-02T10:26:33.986Z</time></trkpt><trkpt lat="43.7512818" lon="6.3167284"><ele>847.25</ele><time>2026-05-02T10:26:34.986Z</time></trkpt><trkpt lat="43.7513017" lon="6.3165582"><ele>850.0</ele><time>2026-05-02T10:26:35.986Z</time></trkpt><trkpt lat="43.7513326" lon="6.316427"><ele>852.8</ele><time>2026-05-02T10:26:36.986Z</time></trkpt><trkpt lat="43.7513544" lon="6.3162777"><ele>855.6</ele><time>2026-05-02T10:26:37.985Z</time></trkpt><trkpt lat="43.7514086" lon="6.3161618"><ele>858.4000000000001</ele><time>2026-05-02T10:26:38.986Z</time></trkpt><trkpt lat="43.7515036" lon="6.3160595"><ele>861.2</ele><time>2026-05-02T10:26:39.986Z</time></trkpt><trkpt lat="43.7515902" lon="6.3159483"><ele>864.0</ele><time>2026-05-02T10:26:40.985Z</time></trkpt><trkpt lat="43.7516908" lon="6.3158221"><ele>864.0</ele><time>2026-05-02T10:26:41.986Z</time></trkpt><trkpt lat="43.7517912" lon="6.3156839"><ele>864.0</ele><time>2026-05-02T10:26:42.986Z</time></trkpt><trkpt lat="43.7518729" lon="6.3155322"><ele>864.0</ele><time>2026-05-02T10:26:43.986Z</time></trkpt><trkpt lat="43.75196" lon="6.3153796"><ele>864.0</ele><time>2026-05-02T10:26:44.986Z</time></trkpt><trkpt lat="43.7520229" lon="6.3152271"><ele>864.5</ele><time>2026-05-02T10:26:45.986Z</time></trkpt><trkpt lat="43.7520995" lon="6.3150603"><ele>865.0</ele><time>2026-05-02T10:26:46.986Z</time></trkpt><trkpt lat="43.7521669" lon="6.314889"><ele>865.5</ele><time>2026-05-02T10:26:47.986Z</time></trkpt><trkpt lat="43.7522406" lon="6.3147323"><ele>866.0</ele><time>2026-05-02T10:26:48.986Z</time></trkpt><trkpt lat="43.7523352" lon="6.3145872"><ele>866.0</ele><time>2026-05-02T10:26:49.986Z</time></trkpt><trkpt lat="43.7524198" lon="6.3144394"><ele>866.0</ele><time>2026-05-02T10:26:50.986Z</time></trkpt><trkpt lat="43.7524878" lon="6.3143068"><ele>866.0</ele><time>2026-05-02T10:26:51.986Z</time></trkpt><trkpt lat="43.7525608" lon="6.3141898"><ele>866.0</ele><time>2026-05-02T10:26:52.986Z</time></trkpt><trkpt lat="43.7526419" lon="6.3140882"><ele>866.0000000000001</ele><time>2026-05-02T10:26:53.986Z</time></trkpt><trkpt lat="43.7526778" lon="6.3140062"><ele>866.0</ele><time>2026-05-02T10:26:54.986Z</time></trkpt><trkpt lat="43.7527025" lon="6.3139251"><ele>866.0</ele><time>2026-05-02T10:26:55.986Z</time></trkpt><trkpt lat="43.7527147" lon="6.3138207"><ele>866.0</ele><time>2026-05-02T10:26:56.986Z</time></trkpt><trkpt lat="43.7526676" lon="6.3137241"><ele>866.0000000000001</ele><time>2026-05-02T10:26:57.986Z</time></trkpt><trkpt lat="43.7525929" lon="6.3136116"><ele>866.0</ele><time>2026-05-02T10:26:58.986Z</time></trkpt><trkpt lat="43.7525266" lon="6.3134997"><ele>869.1666666666667</ele><time>2026-05-02T10:26:59.986Z</time></trkpt><trkpt lat="43.7524895" lon="6.3134088"><ele>872.3333333333334</ele><time>2026-05-02T10:27:00.986Z</time></trkpt><trkpt lat="43.7524566" lon="6.313309"><ele>875.5</ele><time>2026-05-02T10:27:01.986Z</time></trkpt><trkpt lat="43.7524545" lon="6.3132087"><ele>878.6666666666667</ele><time>2026-05-02T10:27:02.986Z</time></trkpt><trkpt lat="43.7525165" lon="6.3131607"><ele>881.8333333333334</ele><time>2026-05-02T10:27:03.986Z</time></trkpt><trkpt lat="43.7525675" lon="6.3131086"><ele>885.0</ele><time>2026-05-02T10:27:04.986Z</time></trkpt><trkpt lat="43.7527056" lon="6.3130466"><ele>887.5</ele><time>2026-05-02T10:27:05.985Z</time></trkpt><trkpt lat="43.7528063" lon="6.3129899"><ele>890.0</ele><time>2026-05-02T10:27:06.986Z</time></trkpt><trkpt lat="43.7529199" lon="6.3129246"><ele>892.5</ele><time>2026-05-02T10:27:07.986Z</time></trkpt><trkpt lat="43.7530351" lon="6.3129012"><ele>895.0</ele><time>2026-05-02T10:27:08.985Z</time></trkpt><trkpt lat="43.753133" lon="6.3128193"><ele>895.0</ele><time>2026-05-02T10:27:09.986Z</time></trkpt><trkpt lat="43.7532345" lon="6.3127867"><ele>895.0</ele><time>2026-05-02T10:27:10.986Z</time></trkpt><trkpt lat="43.7533301" lon="6.3127526"><ele>895.0</ele><time>2026-05-02T10:27:11.986Z</time></trkpt><trkpt lat="43.7534227" lon="6.3127359"><ele>895.0</ele><time>2026-05-02T10:27:12.986Z</time></trkpt><trkpt lat="43.7535125" lon="6.3127174"><ele>895.0</ele><time>2026-05-02T10:27:13.986Z</time></trkpt><trkpt lat="43.7536066" lon="6.3126612"><ele>893.75</ele><time>2026-05-02T10:27:14.986Z</time></trkpt><trkpt lat="43.7536872" lon="6.3125649"><ele>892.5</ele><time>2026-05-02T10:27:15.986Z</time></trkpt><trkpt lat="43.7537642" lon="6.312431"><ele>891.25</ele><time>2026-05-02T10:27:16.986Z</time></trkpt><trkpt lat="43.7538353" lon="6.3122966"><ele>890.0</ele><time>2026-05-02T10:27:17.986Z</time></trkpt><trkpt lat="43.7538813" lon="6.3121336"><ele>890.0</ele><time>2026-05-02T10:27:18.986Z</time></trkpt><trkpt lat="43.7539305" lon="6.3119921"><ele>890.0</ele><time>2026-05-02T10:27:19.986Z</time></trkpt><trkpt lat="43.7539772" lon="6.3118184"><ele>890.0</ele><time>2026-05-02T10:27:20.986Z</time></trkpt><trkpt lat="43.7540144" lon="6.311649"><ele>890.0</ele><time>2026-05-02T10:27:21.986Z</time></trkpt><trkpt lat="43.7540345" lon="6.3114513"><ele>891.25</ele><time>2026-05-02T10:27:22.986Z</time></trkpt><trkpt lat="43.7540416" lon="6.3112452"><ele>892.5</ele><time>2026-05-02T10:27:23.986Z</time></trkpt><trkpt lat="43.7540528" lon="6.3110428"><ele>893.75</ele><time>2026-05-02T10:27:24.986Z</time></trkpt><trkpt lat="43.754061" lon="6.3108332"><ele>895.0</ele><time>2026-05-02T10:27:25.986Z</time></trkpt><trkpt lat="43.7540578" lon="6.3106363"><ele>896.6666666666666</ele><time>2026-05-02T10:27:26.985Z</time></trkpt><trkpt lat="43.7540472" lon="6.3104198"><ele>898.3333333333333</ele><time>2026-05-02T10:27:27.986Z</time></trkpt><trkpt lat="43.7540333" lon="6.3102011"><ele>900.0</ele><time>2026-05-02T10:27:28.986Z</time></trkpt><trkpt lat="43.7540159" lon="6.309974"><ele>900.0</ele><time>2026-05-02T10:27:29.986Z</time></trkpt><trkpt lat="43.7540047" lon="6.3097728"><ele>900.0</ele><time>2026-05-02T10:27:30.986Z</time></trkpt><trkpt lat="43.7539817" lon="6.3095722"><ele>900.0</ele><time>2026-05-02T10:27:31.986Z</time></trkpt><trkpt lat="43.7539481" lon="6.3094023"><ele>900.0</ele><time>2026-05-02T10:27:32.985Z</time></trkpt><trkpt lat="43.7539015" lon="6.3092446"><ele>900.75</ele><time>2026-05-02T10:27:33.986Z</time></trkpt><trkpt lat="43.7538412" lon="6.3090599"><ele>901.5</ele><time>2026-05-02T10:27:34.986Z</time></trkpt><trkpt lat="43.753815" lon="6.3088926"><ele>902.25</ele><time>2026-05-02T10:27:35.985Z</time></trkpt><trkpt lat="43.7538245" lon="6.3087117"><ele>903.0</ele><time>2026-05-02T10:27:36.986Z</time></trkpt><trkpt lat="43.7538696" lon="6.3085495"><ele>904.25</ele><time>2026-05-02T10:27:37.986Z</time></trkpt><trkpt lat="43.7539219" lon="6.3083889"><ele>905.5</ele><time>2026-05-02T10:27:38.986Z</time></trkpt><trkpt lat="43.7539881" lon="6.3082161"><ele>906.75</ele><time>2026-05-02T10:27:39.986Z</time></trkpt><trkpt lat="43.7540488" lon="6.3080705"><ele>908.0</ele><time>2026-05-02T10:27:40.986Z</time></trkpt><trkpt lat="43.7541039" lon="6.3078731"><ele>909.75</ele><time>2026-05-02T10:27:41.986Z</time></trkpt><trkpt lat="43.754162" lon="6.3077145"><ele>911.5</ele><time>2026-05-02T10:27:42.986Z</time></trkpt><trkpt lat="43.754196" lon="6.3075216"><ele>913.25</ele><time>2026-05-02T10:27:43.986Z</time></trkpt><trkpt lat="43.7542274" lon="6.3073195"><ele>915.0</ele><time>2026-05-02T10:27:44.985Z</time></trkpt><trkpt lat="43.7542466" lon="6.3071104"><ele>917.6666666666667</ele><time>2026-05-02T10:27:45.986Z</time></trkpt><trkpt lat="43.7542504" lon="6.3068917"><ele>920.3333333333334</ele><time>2026-05-02T10:27:46.986Z</time></trkpt><trkpt lat="43.7542567" lon="6.3066446"><ele>923.0</ele><time>2026-05-02T10:27:47.985Z</time></trkpt><trkpt lat="43.754259" lon="6.3064303"><ele>925.0</ele><time>2026-05-02T10:27:48.985Z</time></trkpt><trkpt lat="43.7542807" lon="6.3062329"><ele>927.0</ele><time>2026-05-02T10:27:49.985Z</time></trkpt><trkpt lat="43.7542963" lon="6.3060309"><ele>929.0</ele><time>2026-05-02T10:27:50.985Z</time></trkpt><trkpt lat="43.7543108" lon="6.3058573"><ele>931.0</ele><time>2026-05-02T10:27:51.986Z</time></trkpt><trkpt lat="43.7543224" lon="6.3056872"><ele>928.25</ele><time>2026-05-02T10:27:52.985Z</time></trkpt><trkpt lat="43.7543908" lon="6.3055362"><ele>925.5</ele><time>2026-05-02T10:27:53.986Z</time></trkpt><trkpt lat="43.7544416" lon="6.3053717"><ele>922.75</ele><time>2026-05-02T10:27:54.986Z</time></trkpt><trkpt lat="43.7545074" lon="6.3052091"><ele>920.0</ele><time>2026-05-02T10:27:55.985Z</time></trkpt><trkpt lat="43.754582" lon="6.3050486"><ele>920.0</ele><time>2026-05-02T10:27:56.986Z</time></trkpt><trkpt lat="43.7546513" lon="6.3048817"><ele>920.0</ele><time>2026-05-02T10:27:57.986Z</time></trkpt><trkpt lat="43.7547152" lon="6.3046736"><ele>920.0</ele><time>2026-05-02T10:27:58.986Z</time></trkpt><trkpt lat="43.7547329" lon="6.3044676"><ele>922.0</ele><time>2026-05-02T10:27:59.985Z</time></trkpt><trkpt lat="43.7547661" lon="6.3042792"><ele>924.0</ele><time>2026-05-02T10:28:00.986Z</time></trkpt><trkpt lat="43.754799" lon="6.3040917"><ele>926.0</ele><time>2026-05-02T10:28:01.986Z</time></trkpt><trkpt lat="43.7548196" lon="6.3038947"><ele>928.0</ele><time>2026-05-02T10:28:02.985Z</time></trkpt><trkpt lat="43.7548482" lon="6.3036691"><ele>930.75</ele><time>2026-05-02T10:28:03.986Z</time></trkpt><trkpt lat="43.7548808" lon="6.3035014"><ele>933.5</ele><time>2026-05-02T10:28:04.986Z</time></trkpt><trkpt lat="43.7549305" lon="6.3033677"><ele>936.25</ele><time>2026-05-02T10:28:05.986Z</time></trkpt><trkpt lat="43.7550206" lon="6.3032609"><ele>939.0</ele><time>2026-05-02T10:28:06.985Z</time></trkpt><trkpt lat="43.7551111" lon="6.3031345"><ele>939.25</ele><time>2026-05-02T10:28:07.986Z</time></trkpt><trkpt lat="43.7551906" lon="6.3030267"><ele>939.5</ele><time>2026-05-02T10:28:08.986Z</time></trkpt><trkpt lat="43.7552995" lon="6.3029248"><ele>939.75</ele><time>2026-05-02T10:28:09.986Z</time></trkpt><trkpt lat="43.7553836" lon="6.3028244"><ele>940.0</ele><time>2026-05-02T10:28:10.986Z</time></trkpt><trkpt lat="43.7554732" lon="6.3027116"><ele>940.0</ele><time>2026-05-02T10:28:11.985Z</time></trkpt><trkpt lat="43.755563" lon="6.3025733"><ele>940.0</ele><time>2026-05-02T10:28:12.986Z</time></trkpt><trkpt lat="43.7556316" lon="6.3024144"><ele>940.0</ele><time>2026-05-02T10:28:13.986Z</time></trkpt><trkpt lat="43.755684" lon="6.3022421"><ele>940.0</ele><time>2026-05-02T10:28:14.986Z</time></trkpt><trkpt lat="43.7557334" lon="6.3020607"><ele>942.25</ele><time>2026-05-02T10:28:15.986Z</time></trkpt><trkpt lat="43.7557915" lon="6.3018783"><ele>944.5</ele><time>2026-05-02T10:28:16.986Z</time></trkpt><trkpt lat="43.7558454" lon="6.3017073"><ele>946.75</ele><time>2026-05-02T10:28:17.986Z</time></trkpt><trkpt lat="43.7559109" lon="6.3015767"><ele>949.0</ele><time>2026-05-02T10:28:18.986Z</time></trkpt><trkpt lat="43.7559861" lon="6.3014752"><ele>947.4999999999999</ele><time>2026-05-02T10:28:19.986Z</time></trkpt><trkpt lat="43.7560426" lon="6.3013779"><ele>946.0</ele><time>2026-05-02T10:28:20.986Z</time></trkpt><trkpt lat="43.7560994" lon="6.3012531"><ele>944.5</ele><time>2026-05-02T10:28:21.986Z</time></trkpt><trkpt lat="43.7561302" lon="6.301157"><ele>943.0</ele><time>2026-05-02T10:28:22.986Z</time></trkpt><trkpt lat="43.7560723" lon="6.3010557"><ele>941.4999999999999</ele><time>2026-05-02T10:28:23.986Z</time></trkpt><trkpt lat="43.756015" lon="6.3009775"><ele>940.0</ele><time>2026-05-02T10:28:24.986Z</time></trkpt><trkpt lat="43.7559286" lon="6.3009233"><ele>943.1666666666666</ele><time>2026-05-02T10:28:25.986Z</time></trkpt><trkpt lat="43.7558511" lon="6.3008998"><ele>946.3333333333333</ele><time>2026-05-02T10:28:26.986Z</time></trkpt><trkpt lat="43.7557625" lon="6.3008842"><ele>949.5</ele><time>2026-05-02T10:28:27.986Z</time></trkpt><trkpt lat="43.7556903" lon="6.3009381"><ele>952.6666666666667</ele><time>2026-05-02T10:28:28.986Z</time></trkpt><trkpt lat="43.7556585" lon="6.3010571"><ele>955.8333333333334</ele><time>2026-05-02T10:28:29.986Z</time></trkpt><trkpt lat="43.7556076" lon="6.3011588"><ele>959.0</ele><time>2026-05-02T10:28:30.986Z</time></trkpt><trkpt lat="43.7555641" lon="6.3013474"><ele>956.5</ele><time>2026-05-02T10:28:31.985Z</time></trkpt><trkpt lat="43.7554975" lon="6.3014819"><ele>954.0</ele><time>2026-05-02T10:28:32.986Z</time></trkpt><trkpt lat="43.7554082" lon="6.3016623"><ele>951.5</ele><time>2026-05-02T10:28:33.986Z</time></trkpt><trkpt lat="43.755331" lon="6.3017819"><ele>949.0</ele><time>2026-05-02T10:28:34.986Z</time></trkpt><trkpt lat="43.7552313" lon="6.3018911"><ele>952.25</ele><time>2026-05-02T10:28:35.986Z</time></trkpt><trkpt lat="43.7551055" lon="6.3019613"><ele>955.5</ele><time>2026-05-02T10:28:36.985Z</time></trkpt><trkpt lat="43.7549769" lon="6.3020595"><ele>958.75</ele><time>2026-05-02T10:28:37.986Z</time></trkpt><trkpt lat="43.7548356" lon="6.302139"><ele>962.0</ele><time>2026-05-02T10:28:38.986Z</time></trkpt><trkpt lat="43.7547055" lon="6.302211"><ele>963.0</ele><time>2026-05-02T10:28:39.985Z</time></trkpt><trkpt lat="43.754584" lon="6.3022897"><ele>964.0</ele><time>2026-05-02T10:28:40.986Z</time></trkpt><trkpt lat="43.7544598" lon="6.30236"><ele>965.0</ele><time>2026-05-02T10:28:41.986Z</time></trkpt><trkpt lat="43.7543696" lon="6.3024547"><ele>966.0</ele><time>2026-05-02T10:28:42.986Z</time></trkpt><trkpt lat="43.7543022" lon="6.3025613"><ele>966.0</ele><time>2026-05-02T10:28:43.985Z</time></trkpt><trkpt lat="43.7542302" lon="6.3026879"><ele>965.9999999999999</ele><time>2026-05-02T10:28:44.986Z</time></trkpt><trkpt lat="43.7541677" lon="6.3028223"><ele>965.9999999999999</ele><time>2026-05-02T10:28:45.986Z</time></trkpt><trkpt lat="43.7541118" lon="6.3029117"><ele>966.0</ele><time>2026-05-02T10:28:46.986Z</time></trkpt><trkpt lat="43.754045" lon="6.3029553"><ele>966.0</ele><time>2026-05-02T10:28:47.986Z</time></trkpt><trkpt lat="43.7539782" lon="6.3029449"><ele>966.0</ele><time>2026-05-02T10:28:48.986Z</time></trkpt><trkpt lat="43.7538809" lon="6.3029531"><ele>966.0</ele><time>2026-05-02T10:28:50.986Z</time></trkpt><trkpt lat="43.7539212" lon="6.3027591"><ele>966.0</ele><time>2026-05-02T10:28:52.986Z</time></trkpt><trkpt lat="43.7539618" lon="6.3026735"><ele>966.0</ele><time>2026-05-02T10:28:53.986Z</time></trkpt><trkpt lat="43.7540718" lon="6.3025289"><ele>966.0</ele><time>2026-05-02T10:28:54.985Z</time></trkpt><trkpt lat="43.7541753" lon="6.3024024"><ele>966.0</ele><time>2026-05-02T10:28:55.986Z</time></trkpt><trkpt lat="43.7542608" lon="6.302281"><ele>966.0</ele><time>2026-05-02T10:28:56.986Z</time></trkpt><trkpt lat="43.7543556" lon="6.3021424"><ele>966.0</ele><time>2026-05-02T10:28:57.985Z</time></trkpt><trkpt lat="43.7544365" lon="6.302001"><ele>965.0</ele><time>2026-05-02T10:28:58.986Z</time></trkpt><trkpt lat="43.7545253" lon="6.3018599"><ele>964.0</ele><time>2026-05-02T10:28:59.986Z</time></trkpt><trkpt lat="43.7545945" lon="6.3017159"><ele>963.0</ele><time>2026-05-02T10:29:00.986Z</time></trkpt><trkpt lat="43.7546579" lon="6.3015444"><ele>962.0</ele><time>2026-05-02T10:29:01.986Z</time></trkpt><trkpt lat="43.754727" lon="6.3013857"><ele>966.25</ele><time>2026-05-02T10:29:02.985Z</time></trkpt><trkpt lat="43.7547963" lon="6.3012151"><ele>970.5</ele><time>2026-05-02T10:29:03.986Z</time></trkpt><trkpt lat="43.754869" lon="6.3010732"><ele>974.75</ele><time>2026-05-02T10:29:04.985Z</time></trkpt><trkpt lat="43.7549448" lon="6.3009477"><ele>979.0</ele><time>2026-05-02T10:29:05.986Z</time></trkpt><trkpt lat="43.7550377" lon="6.3008328"><ele>979.0</ele><time>2026-05-02T10:29:06.985Z</time></trkpt><trkpt lat="43.7551513" lon="6.3007145"><ele>979.0</ele><time>2026-05-02T10:29:07.986Z</time></trkpt><trkpt lat="43.7552537" lon="6.3005846"><ele>979.0</ele><time>2026-05-02T10:29:08.985Z</time></trkpt><trkpt lat="43.7553497" lon="6.3004766"><ele>979.0</ele><time>2026-05-02T10:29:09.986Z</time></trkpt><trkpt lat="43.7554579" lon="6.3003455"><ele>979.0</ele><time>2026-05-02T10:29:10.986Z</time></trkpt><trkpt lat="43.7555494" lon="6.3001972"><ele>979.0</ele><time>2026-05-02T10:29:11.986Z</time></trkpt><trkpt lat="43.7556298" lon="6.3000382"><ele>979.0</ele><time>2026-05-02T10:29:12.986Z</time></trkpt><trkpt lat="43.7557129" lon="6.2998918"><ele>979.0</ele><time>2026-05-02T10:29:13.986Z</time></trkpt><trkpt lat="43.7557839" lon="6.2997223"><ele>982.25</ele><time>2026-05-02T10:29:14.985Z</time></trkpt><trkpt lat="43.7558487" lon="6.2995538"><ele>985.5</ele><time>2026-05-02T10:29:15.985Z</time></trkpt><trkpt lat="43.7559231" lon="6.2994077"><ele>988.75</ele><time>2026-05-02T10:29:16.986Z</time></trkpt><trkpt lat="43.7559887" lon="6.2992667"><ele>992.0</ele><time>2026-05-02T10:29:17.986Z</time></trkpt><trkpt lat="43.7560302" lon="6.2990978"><ele>988.0</ele><time>2026-05-02T10:29:18.986Z</time></trkpt><trkpt lat="43.7560831" lon="6.2989442"><ele>984.0</ele><time>2026-05-02T10:29:19.986Z</time></trkpt><trkpt lat="43.7561122" lon="6.2987885"><ele>980.0</ele><time>2026-05-02T10:29:20.986Z</time></trkpt><trkpt lat="43.7561207" lon="6.2986179"><ele>976.0</ele><time>2026-05-02T10:29:21.986Z</time></trkpt><trkpt lat="43.7561265" lon="6.2984388"><ele>976.0</ele><time>2026-05-02T10:29:22.986Z</time></trkpt><trkpt lat="43.7561203" lon="6.298267"><ele>976.0</ele><time>2026-05-02T10:29:23.986Z</time></trkpt><trkpt lat="43.7561015" lon="6.2981124"><ele>976.0</ele><time>2026-05-02T10:29:24.986Z</time></trkpt><trkpt lat="43.7560921" lon="6.2979668"><ele>976.0</ele><time>2026-05-02T10:29:25.986Z</time></trkpt><trkpt lat="43.7560577" lon="6.2978158"><ele>983.0</ele><time>2026-05-02T10:29:26.985Z</time></trkpt><trkpt lat="43.755983" lon="6.2977028"><ele>990.0</ele><time>2026-05-02T10:29:27.986Z</time></trkpt><trkpt lat="43.7558819" lon="6.2975798"><ele>997.0</ele><time>2026-05-02T10:29:28.986Z</time></trkpt><trkpt lat="43.755807" lon="6.2974747"><ele>1004.0</ele><time>2026-05-02T10:29:29.986Z</time></trkpt><trkpt lat="43.7557566" lon="6.2973558"><ele>1006.2</ele><time>2026-05-02T10:29:30.986Z</time></trkpt><trkpt lat="43.7557337" lon="6.2972272"><ele>1008.4000000000001</ele><time>2026-05-02T10:29:31.986Z</time></trkpt><trkpt lat="43.7557986" lon="6.2971361"><ele>1010.6</ele><time>2026-05-02T10:29:32.985Z</time></trkpt><trkpt lat="43.7558673" lon="6.2970351"><ele>1012.8</ele><time>2026-05-02T10:29:33.986Z</time></trkpt><trkpt lat="43.7559386" lon="6.29694"><ele>1015.0</ele><time>2026-05-02T10:29:34.986Z</time></trkpt><trkpt lat="43.7560066" lon="6.2968578"><ele>1014.25</ele><time>2026-05-02T10:29:35.986Z</time></trkpt><trkpt lat="43.7561053" lon="6.296755"><ele>1013.5</ele><time>2026-05-02T10:29:36.986Z</time></trkpt><trkpt lat="43.7561902" lon="6.2966262"><ele>1012.75</ele><time>2026-05-02T10:29:37.985Z</time></trkpt><trkpt lat="43.7562844" lon="6.2964762"><ele>1012.0</ele><time>2026-05-02T10:29:38.986Z</time></trkpt><trkpt lat="43.756369" lon="6.2963148"><ele>1012.0</ele><time>2026-05-02T10:29:39.986Z</time></trkpt><trkpt lat="43.7564646" lon="6.2961545"><ele>1012.0</ele><time>2026-05-02T10:29:40.986Z</time></trkpt><trkpt lat="43.7565604" lon="6.2959892"><ele>1012.0</ele><time>2026-05-02T10:29:41.986Z</time></trkpt><trkpt lat="43.7566521" lon="6.2958095"><ele>1012.0</ele><time>2026-05-02T10:29:42.986Z</time></trkpt><trkpt lat="43.7567482" lon="6.2956502"><ele>1012.0</ele><time>2026-05-02T10:29:43.985Z</time></trkpt><trkpt lat="43.7568315" lon="6.2954879"><ele>1012.0</ele><time>2026-05-02T10:29:44.986Z</time></trkpt><trkpt lat="43.7569139" lon="6.2953393"><ele>1012.0</ele><time>2026-05-02T10:29:45.986Z</time></trkpt><trkpt lat="43.7569984" lon="6.2951969"><ele>1014.2</ele><time>2026-05-02T10:29:46.986Z</time></trkpt><trkpt lat="43.7570816" lon="6.2951219"><ele>1016.4000000000001</ele><time>2026-05-02T10:29:47.985Z</time></trkpt><trkpt lat="43.7571668" lon="6.295042"><ele>1018.5999999999999</ele><time>2026-05-02T10:29:48.986Z</time></trkpt><trkpt lat="43.757279" lon="6.294995"><ele>1020.8</ele><time>2026-05-02T10:29:49.986Z</time></trkpt><trkpt lat="43.7573735" lon="6.2949923"><ele>1023.0</ele><time>2026-05-02T10:29:50.986Z</time></trkpt><trkpt lat="43.7574674" lon="6.2950079"><ele>1023.0</ele><time>2026-05-02T10:29:51.986Z</time></trkpt><trkpt lat="43.7575775" lon="6.2950259"><ele>1023.0</ele><time>2026-05-02T10:29:52.986Z</time></trkpt><trkpt lat="43.7576907" lon="6.2949651"><ele>1023.0</ele><time>2026-05-02T10:29:53.986Z</time></trkpt><trkpt lat="43.7578031" lon="6.2948575"><ele>1023.0</ele><time>2026-05-02T10:29:54.986Z</time></trkpt><trkpt lat="43.7579165" lon="6.2947762"><ele>1026.25</ele><time>2026-05-02T10:29:55.986Z</time></trkpt><trkpt lat="43.7580479" lon="6.2946791"><ele>1029.5</ele><time>2026-05-02T10:29:56.986Z</time></trkpt><trkpt lat="43.7581689" lon="6.2945598"><ele>1032.75</ele><time>2026-05-02T10:29:57.986Z</time></trkpt><trkpt lat="43.7582879" lon="6.2944301"><ele>1036.0</ele><time>2026-05-02T10:29:58.986Z</time></trkpt><trkpt lat="43.7584135" lon="6.2943099"><ele>1036.0</ele><time>2026-05-02T10:29:59.985Z</time></trkpt><trkpt lat="43.7585073" lon="6.2942073"><ele>1036.0</ele><time>2026-05-02T10:30:00.986Z</time></trkpt><trkpt lat="43.7586235" lon="6.2940631"><ele>1036.0</ele><time>2026-05-02T10:30:01.986Z</time></trkpt><trkpt lat="43.7586951" lon="6.293919"><ele>1036.0</ele><time>2026-05-02T10:30:02.985Z</time></trkpt><trkpt lat="43.7587803" lon="6.2937845"><ele>1032.8</ele><time>2026-05-02T10:30:03.986Z</time></trkpt><trkpt lat="43.7588402" lon="6.2936436"><ele>1029.6</ele><time>2026-05-02T10:30:04.986Z</time></trkpt><trkpt lat="43.7588954" lon="6.2935168"><ele>1026.4</ele><time>2026-05-02T10:30:05.986Z</time></trkpt><trkpt lat="43.7589363" lon="6.2933963"><ele>1023.2</ele><time>2026-05-02T10:30:06.986Z</time></trkpt><trkpt lat="43.7589566" lon="6.2932639"><ele>1020.0</ele><time>2026-05-02T10:30:07.985Z</time></trkpt><trkpt lat="43.7589595" lon="6.2931253"><ele>1016.5</ele><time>2026-05-02T10:30:08.986Z</time></trkpt><trkpt lat="43.7589318" lon="6.2929975"><ele>1013.0</ele><time>2026-05-02T10:30:09.986Z</time></trkpt><trkpt lat="43.7588212" lon="6.2928713"><ele>1009.5</ele><time>2026-05-02T10:30:10.986Z</time></trkpt><trkpt lat="43.7587287" lon="6.2927565"><ele>1006.0</ele><time>2026-05-02T10:30:11.985Z</time></trkpt><trkpt lat="43.7586345" lon="6.2926637"><ele>1014.75</ele><time>2026-05-02T10:30:12.986Z</time></trkpt><trkpt lat="43.7585157" lon="6.2925947"><ele>1023.5</ele><time>2026-05-02T10:30:13.986Z</time></trkpt><trkpt lat="43.7583996" lon="6.2925213"><ele>1032.25</ele><time>2026-05-02T10:30:14.986Z</time></trkpt><trkpt lat="43.7582358" lon="6.29244"><ele>1041.0</ele><time>2026-05-02T10:30:15.986Z</time></trkpt><trkpt lat="43.7581396" lon="6.2923329"><ele>1039.25</ele><time>2026-05-02T10:30:16.986Z</time></trkpt><trkpt lat="43.7580471" lon="6.2922214"><ele>1037.5</ele><time>2026-05-02T10:30:17.986Z</time></trkpt><trkpt lat="43.7579703" lon="6.2920715"><ele>1035.75</ele><time>2026-05-02T10:30:18.986Z</time></trkpt><trkpt lat="43.7578987" lon="6.2919155"><ele>1034.0</ele><time>2026-05-02T10:30:19.986Z</time></trkpt><trkpt lat="43.7578047" lon="6.2917667"><ele>1034.0</ele><time>2026-05-02T10:30:20.986Z</time></trkpt><trkpt lat="43.7577369" lon="6.2916539"><ele>1034.0</ele><time>2026-05-02T10:30:21.986Z</time></trkpt><trkpt lat="43.7577258" lon="6.2915117"><ele>1034.0</ele><time>2026-05-02T10:30:22.985Z</time></trkpt><trkpt lat="43.7578248" lon="6.2913767"><ele>1034.0</ele><time>2026-05-02T10:30:24.986Z</time></trkpt><trkpt lat="43.7579777" lon="6.2913125"><ele>1039.5</ele><time>2026-05-02T10:30:25.986Z</time></trkpt><trkpt lat="43.7580866" lon="6.291229"><ele>1045.0</ele><time>2026-05-02T10:30:26.986Z</time></trkpt><trkpt lat="43.75818" lon="6.291127"><ele>1050.5</ele><time>2026-05-02T10:30:27.985Z</time></trkpt><trkpt lat="43.758292" lon="6.2910059"><ele>1056.0</ele><time>2026-05-02T10:30:28.986Z</time></trkpt><trkpt lat="43.7583998" lon="6.2908556"><ele>1056.0</ele><time>2026-05-02T10:30:29.986Z</time></trkpt><trkpt lat="43.7585006" lon="6.2907003"><ele>1056.0</ele><time>2026-05-02T10:30:30.986Z</time></trkpt><trkpt lat="43.7585859" lon="6.2905374"><ele>1056.0</ele><time>2026-05-02T10:30:31.986Z</time></trkpt><trkpt lat="43.7586965" lon="6.2903938"><ele>1056.0</ele><time>2026-05-02T10:30:32.986Z</time></trkpt><trkpt lat="43.7587809" lon="6.290274"><ele>1056.0</ele><time>2026-05-02T10:30:33.986Z</time></trkpt><trkpt lat="43.7588605" lon="6.2901519"><ele>1056.0</ele><time>2026-05-02T10:30:34.986Z</time></trkpt><trkpt lat="43.7589169" lon="6.2900178"><ele>1056.0</ele><time>2026-05-02T10:30:35.986Z</time></trkpt><trkpt lat="43.7589541" lon="6.2898824"><ele>1056.0</ele><time>2026-05-02T10:30:36.986Z</time></trkpt><trkpt lat="43.7589831" lon="6.2897355"><ele>1056.0</ele><time>2026-05-02T10:30:37.986Z</time></trkpt><trkpt lat="43.7589766" lon="6.2895645"><ele>1056.0</ele><time>2026-05-02T10:30:38.986Z</time></trkpt><trkpt lat="43.758933" lon="6.289429"><ele>1056.0</ele><time>2026-05-02T10:30:39.986Z</time></trkpt><trkpt lat="43.7589154" lon="6.2892677"><ele>1056.0</ele><time>2026-05-02T10:30:40.986Z</time></trkpt><trkpt lat="43.7589215" lon="6.2891066"><ele>1056.0</ele><time>2026-05-02T10:30:41.986Z</time></trkpt><trkpt lat="43.7589556" lon="6.2889827"><ele>1056.0</ele><time>2026-05-02T10:30:42.986Z</time></trkpt><trkpt lat="43.7590412" lon="6.2888753"><ele>1060.75</ele><time>2026-05-02T10:30:43.986Z</time></trkpt><trkpt lat="43.7591552" lon="6.2887616"><ele>1065.5</ele><time>2026-05-02T10:30:44.986Z</time></trkpt><trkpt lat="43.7592494" lon="6.2886604"><ele>1070.25</ele><time>2026-05-02T10:30:45.986Z</time></trkpt><trkpt lat="43.7593341" lon="6.2885332"><ele>1075.0</ele><time>2026-05-02T10:30:46.986Z</time></trkpt><trkpt lat="43.7593939" lon="6.2883879"><ele>1065.5</ele><time>2026-05-02T10:30:47.986Z</time></trkpt><trkpt lat="43.7594704" lon="6.2882501"><ele>1056.0</ele><time>2026-05-02T10:30:48.986Z</time></trkpt><trkpt lat="43.7594693" lon="6.2880903"><ele>1046.5</ele><time>2026-05-02T10:30:49.986Z</time></trkpt><trkpt lat="43.7594496" lon="6.2879408"><ele>1037.0</ele><time>2026-05-02T10:30:50.986Z</time></trkpt><trkpt lat="43.759412" lon="6.2878041"><ele>1048.25</ele><time>2026-05-02T10:30:51.986Z</time></trkpt><trkpt lat="43.7593607" lon="6.287635"><ele>1059.5</ele><time>2026-05-02T10:30:52.985Z</time></trkpt><trkpt lat="43.7593108" lon="6.2874742"><ele>1070.75</ele><time>2026-05-02T10:30:53.986Z</time></trkpt><trkpt lat="43.7592684" lon="6.2873258"><ele>1082.0</ele><time>2026-05-02T10:30:54.985Z</time></trkpt><trkpt lat="43.7592335" lon="6.2871918"><ele>1084.6</ele><time>2026-05-02T10:30:55.985Z</time></trkpt><trkpt lat="43.7592159" lon="6.2870669"><ele>1087.2</ele><time>2026-05-02T10:30:56.986Z</time></trkpt><trkpt lat="43.7592384" lon="6.2869487"><ele>1089.8</ele><time>2026-05-02T10:30:57.986Z</time></trkpt><trkpt lat="43.7592825" lon="6.2868612"><ele>1092.4</ele><time>2026-05-02T10:30:58.985Z</time></trkpt><trkpt lat="43.7593845" lon="6.2867444"><ele>1095.0</ele><time>2026-05-02T10:31:00.986Z</time></trkpt><trkpt lat="43.7595467" lon="6.2866047"><ele>1093.0</ele><time>2026-05-02T10:31:01.986Z</time></trkpt><trkpt lat="43.7596499" lon="6.2864907"><ele>1091.0</ele><time>2026-05-02T10:31:02.986Z</time></trkpt><trkpt lat="43.7597513" lon="6.2863753"><ele>1089.0</ele><time>2026-05-02T10:31:03.986Z</time></trkpt><trkpt lat="43.7598416" lon="6.2862664"><ele>1087.0</ele><time>2026-05-02T10:31:04.986Z</time></trkpt><trkpt lat="43.7599261" lon="6.2861428"><ele>1087.0</ele><time>2026-05-02T10:31:05.986Z</time></trkpt><trkpt lat="43.7600036" lon="6.2860085"><ele>1087.0</ele><time>2026-05-02T10:31:06.986Z</time></trkpt><trkpt lat="43.7600726" lon="6.2858503"><ele>1087.0</ele><time>2026-05-02T10:31:07.986Z</time></trkpt><trkpt lat="43.760127" lon="6.285685"><ele>1087.0</ele><time>2026-05-02T10:31:08.986Z</time></trkpt><trkpt lat="43.7601675" lon="6.2855578"><ele>1088.0</ele><time>2026-05-02T10:31:09.986Z</time></trkpt><trkpt lat="43.7602135" lon="6.2854539"><ele>1089.0</ele><time>2026-05-02T10:31:10.985Z</time></trkpt><trkpt lat="43.7602823" lon="6.2853483"><ele>1090.0</ele><time>2026-05-02T10:31:11.986Z</time></trkpt><trkpt lat="43.7603802" lon="6.2852618"><ele>1091.0</ele><time>2026-05-02T10:31:12.986Z</time></trkpt><trkpt lat="43.7605065" lon="6.2851601"><ele>1091.0</ele><time>2026-05-02T10:31:13.986Z</time></trkpt><trkpt lat="43.760639" lon="6.285116"><ele>1091.0</ele><time>2026-05-02T10:31:14.986Z</time></trkpt><trkpt lat="43.7607791" lon="6.284995"><ele>1091.0</ele><time>2026-05-02T10:31:15.985Z</time></trkpt><trkpt lat="43.7608936" lon="6.2849125"><ele>1091.0</ele><time>2026-05-02T10:31:16.986Z</time></trkpt><trkpt lat="43.7609924" lon="6.2848102"><ele>1086.6</ele><time>2026-05-02T10:31:17.986Z</time></trkpt><trkpt lat="43.7610766" lon="6.2846826"><ele>1082.1999999999998</ele><time>2026-05-02T10:31:18.986Z</time></trkpt><trkpt lat="43.761154" lon="6.2845819"><ele>1077.8000000000002</ele><time>2026-05-02T10:31:19.985Z</time></trkpt><trkpt lat="43.7612046" lon="6.2844742"><ele>1073.4</ele><time>2026-05-02T10:31:20.986Z</time></trkpt><trkpt lat="43.7612716" lon="6.2844131"><ele>1069.0</ele><time>2026-05-02T10:31:21.986Z</time></trkpt><trkpt lat="43.7613096" lon="6.2843332"><ele>1069.0</ele><time>2026-05-02T10:31:22.986Z</time></trkpt><trkpt lat="43.7613347" lon="6.2842092"><ele>1069.0</ele><time>2026-05-02T10:31:23.986Z</time></trkpt><trkpt lat="43.7613249" lon="6.2840676"><ele>1069.0</ele><time>2026-05-02T10:31:24.985Z</time></trkpt><trkpt lat="43.7612946" lon="6.2838677"><ele>1069.0</ele><time>2026-05-02T10:31:25.986Z</time></trkpt><trkpt lat="43.7612683" lon="6.2836959"><ele>1073.1666666666665</ele><time>2026-05-02T10:31:26.986Z</time></trkpt><trkpt lat="43.7612466" lon="6.2835638"><ele>1077.3333333333333</ele><time>2026-05-02T10:31:27.986Z</time></trkpt><trkpt lat="43.7612389" lon="6.2834411"><ele>1081.5</ele><time>2026-05-02T10:31:28.986Z</time></trkpt><trkpt lat="43.7612394" lon="6.2833161"><ele>1085.6666666666667</ele><time>2026-05-02T10:31:29.986Z</time></trkpt><trkpt lat="43.7612655" lon="6.2832279"><ele>1089.8333333333335</ele><time>2026-05-02T10:31:30.986Z</time></trkpt><trkpt lat="43.7613093" lon="6.2831492"><ele>1094.0</ele><time>2026-05-02T10:31:31.986Z</time></trkpt><trkpt lat="43.7613859" lon="6.2831038"><ele>1094.0</ele><time>2026-05-02T10:31:32.986Z</time></trkpt><trkpt lat="43.7615161" lon="6.2831094"><ele>1094.0</ele><time>2026-05-02T10:31:34.986Z</time></trkpt><trkpt lat="43.7616628" lon="6.2830796"><ele>1094.0</ele><time>2026-05-02T10:31:35.986Z</time></trkpt><trkpt lat="43.7617674" lon="6.2830559"><ele>1094.0</ele><time>2026-05-02T10:31:36.986Z</time></trkpt><trkpt lat="43.7618743" lon="6.2830315"><ele>1096.5</ele><time>2026-05-02T10:31:37.986Z</time></trkpt><trkpt lat="43.7619727" lon="6.2829605"><ele>1099.0</ele><time>2026-05-02T10:31:38.986Z</time></trkpt><trkpt lat="43.762064" lon="6.2828484"><ele>1101.5</ele><time>2026-05-02T10:31:39.986Z</time></trkpt><trkpt lat="43.7621531" lon="6.2827549"><ele>1104.0</ele><time>2026-05-02T10:31:40.986Z</time></trkpt><trkpt lat="43.762235" lon="6.2826438"><ele>1104.0</ele><time>2026-05-02T10:31:41.986Z</time></trkpt><trkpt lat="43.7623281" lon="6.2825331"><ele>1104.0</ele><time>2026-05-02T10:31:42.985Z</time></trkpt><trkpt lat="43.7624443" lon="6.2824451"><ele>1104.0</ele><time>2026-05-02T10:31:43.986Z</time></trkpt><trkpt lat="43.7625626" lon="6.2823587"><ele>1104.0</ele><time>2026-05-02T10:31:44.985Z</time></trkpt><trkpt lat="43.7626791" lon="6.2822796"><ele>1107.5</ele><time>2026-05-02T10:31:45.986Z</time></trkpt><trkpt lat="43.7627761" lon="6.28216"><ele>1111.0</ele><time>2026-05-02T10:31:46.986Z</time></trkpt><trkpt lat="43.7628737" lon="6.2820319"><ele>1114.5</ele><time>2026-05-02T10:31:47.986Z</time></trkpt><trkpt lat="43.7629522" lon="6.2819182"><ele>1118.0</ele><time>2026-05-02T10:31:48.986Z</time></trkpt><trkpt lat="43.763035" lon="6.281815"><ele>1118.0</ele><time>2026-05-02T10:31:49.986Z</time></trkpt><trkpt lat="43.7631304" lon="6.2817416"><ele>1118.0</ele><time>2026-05-02T10:31:50.986Z</time></trkpt><trkpt lat="43.7632208" lon="6.2817119"><ele>1118.0</ele><time>2026-05-02T10:31:51.986Z</time></trkpt><trkpt lat="43.7633254" lon="6.2816938"><ele>1118.0</ele><time>2026-05-02T10:31:52.986Z</time></trkpt><trkpt lat="43.7634325" lon="6.2816891"><ele>1118.0</ele><time>2026-05-02T10:31:53.985Z</time></trkpt><trkpt lat="43.7635393" lon="6.2816808"><ele>1115.75</ele><time>2026-05-02T10:31:54.986Z</time></trkpt><trkpt lat="43.7636444" lon="6.2816227"><ele>1113.5</ele><time>2026-05-02T10:31:55.986Z</time></trkpt><trkpt lat="43.7637494" lon="6.2815411"><ele>1111.25</ele><time>2026-05-02T10:31:56.985Z</time></trkpt><trkpt lat="43.76385" lon="6.2814227"><ele>1109.0</ele><time>2026-05-02T10:31:57.986Z</time></trkpt><trkpt lat="43.7639528" lon="6.2812833"><ele>1106.25</ele><time>2026-05-02T10:31:58.986Z</time></trkpt><trkpt lat="43.7640646" lon="6.2811338"><ele>1103.5</ele><time>2026-05-02T10:31:59.986Z</time></trkpt><trkpt lat="43.7641697" lon="6.2810107"><ele>1100.75</ele><time>2026-05-02T10:32:00.986Z</time></trkpt><trkpt lat="43.7642795" lon="6.2808758"><ele>1098.0</ele><time>2026-05-02T10:32:01.986Z</time></trkpt><trkpt lat="43.7643889" lon="6.2807338"><ele>1108.3333333333333</ele><time>2026-05-02T10:32:02.986Z</time></trkpt><trkpt lat="43.7644841" lon="6.2805545"><ele>1118.6666666666665</ele><time>2026-05-02T10:32:03.985Z</time></trkpt><trkpt lat="43.7645807" lon="6.2803825"><ele>1129.0</ele><time>2026-05-02T10:32:04.986Z</time></trkpt><trkpt lat="43.7646855" lon="6.2802208"><ele>1129.0</ele><time>2026-05-02T10:32:05.986Z</time></trkpt><trkpt lat="43.7647827" lon="6.2800516"><ele>1129.0</ele><time>2026-05-02T10:32:06.986Z</time></trkpt><trkpt lat="43.7648812" lon="6.2798793"><ele>1129.0</ele><time>2026-05-02T10:32:07.986Z</time></trkpt><trkpt lat="43.7649808" lon="6.2797665"><ele>1129.0</ele><time>2026-05-02T10:32:08.986Z</time></trkpt><trkpt lat="43.7650778" lon="6.2796059"><ele>1124.75</ele><time>2026-05-02T10:32:09.986Z</time></trkpt><trkpt lat="43.7651591" lon="6.2794348"><ele>1120.5</ele><time>2026-05-02T10:32:10.986Z</time></trkpt><trkpt lat="43.7652418" lon="6.279264"><ele>1116.25</ele><time>2026-05-02T10:32:11.986Z</time></trkpt><trkpt lat="43.7653168" lon="6.279085"><ele>1112.0</ele><time>2026-05-02T10:32:12.986Z</time></trkpt><trkpt lat="43.7653798" lon="6.2789609"><ele>1117.25</ele><time>2026-05-02T10:32:13.986Z</time></trkpt><trkpt lat="43.765454" lon="6.2787926"><ele>1122.5</ele><time>2026-05-02T10:32:14.985Z</time></trkpt><trkpt lat="43.7654962" lon="6.2786461"><ele>1127.75</ele><time>2026-05-02T10:32:15.986Z</time></trkpt><trkpt lat="43.7655217" lon="6.2785253"><ele>1133.0</ele><time>2026-05-02T10:32:16.986Z</time></trkpt><trkpt lat="43.7655375" lon="6.2783529"><ele>1133.0</ele><time>2026-05-02T10:32:17.986Z</time></trkpt><trkpt lat="43.7655286" lon="6.2782066"><ele>1133.0</ele><time>2026-05-02T10:32:18.986Z</time></trkpt><trkpt lat="43.7655361" lon="6.2780476"><ele>1133.0</ele><time>2026-05-02T10:32:19.986Z</time></trkpt><trkpt lat="43.7655551" lon="6.2778988"><ele>1133.0</ele><time>2026-05-02T10:32:20.985Z</time></trkpt><trkpt lat="43.7656434" lon="6.2778205"><ele>1133.0</ele><time>2026-05-02T10:32:21.985Z</time></trkpt><trkpt lat="43.7657018" lon="6.2777169"><ele>1134.5</ele><time>2026-05-02T10:32:22.986Z</time></trkpt><trkpt lat="43.7658164" lon="6.2776728"><ele>1136.0</ele><time>2026-05-02T10:32:23.985Z</time></trkpt><trkpt lat="43.7659271" lon="6.2775878"><ele>1137.5</ele><time>2026-05-02T10:32:24.986Z</time></trkpt><trkpt lat="43.7660447" lon="6.2775129"><ele>1139.0</ele><time>2026-05-02T10:32:25.986Z</time></trkpt><trkpt lat="43.7661635" lon="6.2774344"><ele>1139.0</ele><time>2026-05-02T10:32:26.985Z</time></trkpt><trkpt lat="43.7662951" lon="6.2773405"><ele>1139.0</ele><time>2026-05-02T10:32:27.985Z</time></trkpt><trkpt lat="43.7663894" lon="6.2772455"><ele>1139.0</ele><time>2026-05-02T10:32:28.986Z</time></trkpt><trkpt lat="43.7664794" lon="6.2771523"><ele>1139.0</ele><time>2026-05-02T10:32:29.986Z</time></trkpt><trkpt lat="43.7665615" lon="6.2770677"><ele>1135.8</ele><time>2026-05-02T10:32:30.986Z</time></trkpt><trkpt lat="43.7666366" lon="6.2769715"><ele>1132.6000000000001</ele><time>2026-05-02T10:32:31.986Z</time></trkpt><trkpt lat="43.7667254" lon="6.276889"><ele>1129.4</ele><time>2026-05-02T10:32:32.985Z</time></trkpt><trkpt lat="43.7668049" lon="6.2767945"><ele>1126.2</ele><time>2026-05-02T10:32:33.986Z</time></trkpt><trkpt lat="43.766859" lon="6.2766626"><ele>1123.0</ele><time>2026-05-02T10:32:34.986Z</time></trkpt><trkpt lat="43.766926" lon="6.2765204"><ele>1128.0</ele><time>2026-05-02T10:32:35.986Z</time></trkpt><trkpt lat="43.7669763" lon="6.2763445"><ele>1133.0</ele><time>2026-05-02T10:32:36.986Z</time></trkpt><trkpt lat="43.7670141" lon="6.276165"><ele>1138.0</ele><time>2026-05-02T10:32:37.986Z</time></trkpt><trkpt lat="43.767049" lon="6.2760061"><ele>1143.0</ele><time>2026-05-02T10:32:38.986Z</time></trkpt><trkpt lat="43.7670782" lon="6.2758345"><ele>1143.0</ele><time>2026-05-02T10:32:39.985Z</time></trkpt><trkpt lat="43.7671214" lon="6.2756752"><ele>1143.0</ele><time>2026-05-02T10:32:40.985Z</time></trkpt><trkpt lat="43.7671572" lon="6.2755382"><ele>1143.0</ele><time>2026-05-02T10:32:41.986Z</time></trkpt><trkpt lat="43.7672207" lon="6.275415"><ele>1143.0</ele><time>2026-05-02T10:32:42.986Z</time></trkpt><trkpt lat="43.7672769" lon="6.2752932"><ele>1143.0</ele><time>2026-05-02T10:32:43.986Z</time></trkpt><trkpt lat="43.7673246" lon="6.275196"><ele>1145.0</ele><time>2026-05-02T10:32:44.986Z</time></trkpt><trkpt lat="43.7673878" lon="6.2750941"><ele>1147.0</ele><time>2026-05-02T10:32:45.985Z</time></trkpt><trkpt lat="43.7674545" lon="6.2750144"><ele>1149.0</ele><time>2026-05-02T10:32:46.986Z</time></trkpt><trkpt lat="43.7675343" lon="6.2749398"><ele>1151.0</ele><time>2026-05-02T10:32:47.986Z</time></trkpt><trkpt lat="43.767578" lon="6.2748616"><ele>1153.0</ele><time>2026-05-02T10:32:48.986Z</time></trkpt><trkpt lat="43.7676581" lon="6.2747561"><ele>1153.0</ele><time>2026-05-02T10:32:50.986Z</time></trkpt><trkpt lat="43.7676795" lon="6.2746271"><ele>1153.0</ele><time>2026-05-02T10:32:52.986Z</time></trkpt><trkpt lat="43.7676988" lon="6.2745214"><ele>1153.0</ele><time>2026-05-02T10:32:55.985Z</time></trkpt><trkpt lat="43.7677374" lon="6.2744424"><ele>1153.0</ele><time>2026-05-02T10:33:00.986Z</time></trkpt><trkpt lat="43.7675977" lon="6.2743352"><ele>1153.0</ele><time>2026-05-02T10:37:18.982Z</time></trkpt><trkpt lat="43.7675225" lon="6.2742888"><ele>1153.0</ele><time>2026-05-02T10:37:19.982Z</time></trkpt><trkpt lat="43.7674327" lon="6.27426"><ele>1153.0</ele><time>2026-05-02T10:37:20.982Z</time></trkpt><trkpt lat="43.7673521" lon="6.2742461"><ele>1153.0</ele><time>2026-05-02T10:37:21.982Z</time></trkpt><trkpt lat="43.7672473" lon="6.2742422"><ele>1153.0</ele><time>2026-05-02T10:37:22.982Z</time></trkpt><trkpt lat="43.7671558" lon="6.2742363"><ele>1153.0</ele><time>2026-05-02T10:37:23.982Z</time></trkpt><trkpt lat="43.7670533" lon="6.2742318"><ele>1153.0</ele><time>2026-05-02T10:37:24.982Z</time></trkpt><trkpt lat="43.7669366" lon="6.2742211"><ele>1153.0</ele><time>2026-05-02T10:37:25.982Z</time></trkpt><trkpt lat="43.7668133" lon="6.274217"><ele>1153.0</ele><time>2026-05-02T10:37:26.982Z</time></trkpt><trkpt lat="43.7666921" lon="6.2742005"><ele>1153.0</ele><time>2026-05-02T10:37:27.982Z</time></trkpt><trkpt lat="43.7665654" lon="6.2741837"><ele>1150.75</ele><time>2026-05-02T10:37:28.982Z</time></trkpt><trkpt lat="43.7664491" lon="6.2741116"><ele>1148.5</ele><time>2026-05-02T10:37:29.982Z</time></trkpt><trkpt lat="43.7663302" lon="6.2740314"><ele>1146.25</ele><time>2026-05-02T10:37:30.981Z</time></trkpt><trkpt lat="43.7661999" lon="6.2739307"><ele>1144.0</ele><time>2026-05-02T10:37:31.982Z</time></trkpt><trkpt lat="43.7661246" lon="6.273822"><ele>1156.25</ele><time>2026-05-02T10:37:32.982Z</time></trkpt><trkpt lat="43.766012" lon="6.2737253"><ele>1168.5</ele><time>2026-05-02T10:37:33.981Z</time></trkpt><trkpt lat="43.7659043" lon="6.2736153"><ele>1180.75</ele><time>2026-05-02T10:37:34.982Z</time></trkpt><trkpt lat="43.7658175" lon="6.2734872"><ele>1193.0</ele><time>2026-05-02T10:37:35.981Z</time></trkpt><trkpt lat="43.7657358" lon="6.2733524"><ele>1193.0</ele><time>2026-05-02T10:37:36.982Z</time></trkpt><trkpt lat="43.7656587" lon="6.2731746"><ele>1193.0</ele><time>2026-05-02T10:37:37.981Z</time></trkpt><trkpt lat="43.7655981" lon="6.2730487"><ele>1193.0</ele><time>2026-05-02T10:37:38.981Z</time></trkpt><trkpt lat="43.7655531" lon="6.2728808"><ele>1193.0</ele><time>2026-05-02T10:37:39.982Z</time></trkpt><trkpt lat="43.7655018" lon="6.272711"><ele>1189.0</ele><time>2026-05-02T10:37:40.982Z</time></trkpt><trkpt lat="43.7654427" lon="6.2725428"><ele>1185.0</ele><time>2026-05-02T10:37:41.981Z</time></trkpt><trkpt lat="43.7653982" lon="6.2723681"><ele>1181.0</ele><time>2026-05-02T10:37:42.982Z</time></trkpt><trkpt lat="43.7653597" lon="6.2721991"><ele>1177.0</ele><time>2026-05-02T10:37:43.982Z</time></trkpt><trkpt lat="43.7653389" lon="6.2720385"><ele>1175.4</ele><time>2026-05-02T10:37:44.982Z</time></trkpt><trkpt lat="43.7653301" lon="6.2718952"><ele>1173.8000000000002</ele><time>2026-05-02T10:37:45.981Z</time></trkpt><trkpt lat="43.7653342" lon="6.2717612"><ele>1172.2</ele><time>2026-05-02T10:37:46.982Z</time></trkpt><trkpt lat="43.7653542" lon="6.2716464"><ele>1170.6000000000001</ele><time>2026-05-02T10:37:47.982Z</time></trkpt><trkpt lat="43.7653725" lon="6.2714959"><ele>1169.0</ele><time>2026-05-02T10:37:48.982Z</time></trkpt><trkpt lat="43.7653904" lon="6.2713833"><ele>1172.0</ele><time>2026-05-02T10:37:49.981Z</time></trkpt><trkpt lat="43.7653799" lon="6.2712766"><ele>1175.0</ele><time>2026-05-02T10:37:50.982Z</time></trkpt><trkpt lat="43.7653426" lon="6.271175"><ele>1178.0</ele><time>2026-05-02T10:37:51.981Z</time></trkpt><trkpt lat="43.7652771" lon="6.2710776"><ele>1181.0</ele><time>2026-05-02T10:37:52.982Z</time></trkpt><trkpt lat="43.7651789" lon="6.2710114"><ele>1184.0</ele><time>2026-05-02T10:37:53.982Z</time></trkpt><trkpt lat="43.7650676" lon="6.2709402"><ele>1184.0</ele><time>2026-05-02T10:37:54.981Z</time></trkpt><trkpt lat="43.7649578" lon="6.2708725"><ele>1184.0</ele><time>2026-05-02T10:37:55.982Z</time></trkpt><trkpt lat="43.7648312" lon="6.2707807"><ele>1184.0</ele><time>2026-05-02T10:37:56.982Z</time></trkpt><trkpt lat="43.7647194" lon="6.2707249"><ele>1184.0</ele><time>2026-05-02T10:37:57.981Z</time></trkpt><trkpt lat="43.7646043" lon="6.2706762"><ele>1184.0</ele><time>2026-05-02T10:37:58.981Z</time></trkpt><trkpt lat="43.7645045" lon="6.2706384"><ele>1184.0</ele><time>2026-05-02T10:37:59.982Z</time></trkpt><trkpt lat="43.7644112" lon="6.2705758"><ele>1184.0</ele><time>2026-05-02T10:38:00.982Z</time></trkpt><trkpt lat="43.7643254" lon="6.2705118"><ele>1184.0</ele><time>2026-05-02T10:38:01.982Z</time></trkpt><trkpt lat="43.7642523" lon="6.2704264"><ele>1184.0</ele><time>2026-05-02T10:38:02.982Z</time></trkpt><trkpt lat="43.7642083" lon="6.2702975"><ele>1183.0</ele><time>2026-05-02T10:38:03.981Z</time></trkpt><trkpt lat="43.7641652" lon="6.2701609"><ele>1182.0</ele><time>2026-05-02T10:38:04.982Z</time></trkpt><trkpt lat="43.7641238" lon="6.2700161"><ele>1181.0</ele><time>2026-05-02T10:38:05.982Z</time></trkpt><trkpt lat="43.7640928" lon="6.2698745"><ele>1180.0</ele><time>2026-05-02T10:38:06.982Z</time></trkpt><trkpt lat="43.7640526" lon="6.269702"><ele>1180.0</ele><time>2026-05-02T10:38:07.982Z</time></trkpt><trkpt lat="43.7640842" lon="6.2695864"><ele>1180.0</ele><time>2026-05-02T10:38:08.981Z</time></trkpt><trkpt lat="43.7641092" lon="6.2694366"><ele>1180.0</ele><time>2026-05-02T10:38:09.982Z</time></trkpt><trkpt lat="43.7641557" lon="6.2693253"><ele>1180.0</ele><time>2026-05-02T10:38:10.981Z</time></trkpt><trkpt lat="43.7641804" lon="6.269197"><ele>1180.0</ele><time>2026-05-02T10:38:11.982Z</time></trkpt><trkpt lat="43.7642026" lon="6.2690956"><ele>1180.0</ele><time>2026-05-02T10:38:12.982Z</time></trkpt><trkpt lat="43.7641966" lon="6.2689973"><ele>1180.0</ele><time>2026-05-02T10:38:13.982Z</time></trkpt><trkpt lat="43.7641715" lon="6.2689066"><ele>1180.0</ele><time>2026-05-02T10:38:14.981Z</time></trkpt><trkpt lat="43.7640872" lon="6.2688057"><ele>1180.0</ele><time>2026-05-02T10:38:15.981Z</time></trkpt><trkpt lat="43.7640168" lon="6.2687445"><ele>1180.0</ele><time>2026-05-02T10:38:16.982Z</time></trkpt><trkpt lat="43.7639407" lon="6.2686824"><ele>1180.0</ele><time>2026-05-02T10:38:17.982Z</time></trkpt><trkpt lat="43.7638671" lon="6.2686087"><ele>1179.4</ele><time>2026-05-02T10:38:18.982Z</time></trkpt><trkpt lat="43.7638282" lon="6.2685051"><ele>1178.8</ele><time>2026-05-02T10:38:19.982Z</time></trkpt><trkpt lat="43.7638546" lon="6.2684229"><ele>1178.2</ele><time>2026-05-02T10:38:20.982Z</time></trkpt><trkpt lat="43.7639838" lon="6.2682781"><ele>1177.6</ele><time>2026-05-02T10:38:22.982Z</time></trkpt><trkpt lat="43.7640565" lon="6.2681994"><ele>1177.0</ele><time>2026-05-02T10:38:23.982Z</time></trkpt><trkpt lat="43.7641201" lon="6.2681068"><ele>1181.6</ele><time>2026-05-02T10:38:24.982Z</time></trkpt><trkpt lat="43.7641667" lon="6.2679907"><ele>1186.2</ele><time>2026-05-02T10:38:25.982Z</time></trkpt><trkpt lat="43.7642238" lon="6.2678512"><ele>1190.8</ele><time>2026-05-02T10:38:26.982Z</time></trkpt><trkpt lat="43.7643103" lon="6.2677545"><ele>1195.4</ele><time>2026-05-02T10:38:27.982Z</time></trkpt><trkpt lat="43.7644117" lon="6.2676703"><ele>1200.0</ele><time>2026-05-02T10:38:28.982Z</time></trkpt><trkpt lat="43.7644956" lon="6.2676055"><ele>1189.4</ele><time>2026-05-02T10:38:29.982Z</time></trkpt><trkpt lat="43.7645839" lon="6.2675332"><ele>1178.8</ele><time>2026-05-02T10:38:30.982Z</time></trkpt><trkpt lat="43.7646306" lon="6.2674404"><ele>1168.2</ele><time>2026-05-02T10:38:31.982Z</time></trkpt><trkpt lat="43.7646741" lon="6.2673419"><ele>1157.6</ele><time>2026-05-02T10:38:32.982Z</time></trkpt><trkpt lat="43.7646984" lon="6.2672122"><ele>1147.0</ele><time>2026-05-02T10:38:33.982Z</time></trkpt><trkpt lat="43.7647105" lon="6.2670558"><ele>1147.0</ele><time>2026-05-02T10:38:34.982Z</time></trkpt><trkpt lat="43.7647365" lon="6.2669017"><ele>1147.0</ele><time>2026-05-02T10:38:35.982Z</time></trkpt><trkpt lat="43.7647605" lon="6.2667535"><ele>1147.0</ele><time>2026-05-02T10:38:36.982Z</time></trkpt><trkpt lat="43.7647944" lon="6.2666027"><ele>1147.0</ele><time>2026-05-02T10:38:37.981Z</time></trkpt><trkpt lat="43.7648127" lon="6.2664441"><ele>1153.75</ele><time>2026-05-02T10:38:38.982Z</time></trkpt><trkpt lat="43.7648901" lon="6.2663089"><ele>1160.5</ele><time>2026-05-02T10:38:39.981Z</time></trkpt><trkpt lat="43.764955" lon="6.2661629"><ele>1167.25</ele><time>2026-05-02T10:38:40.982Z</time></trkpt><trkpt lat="43.765015" lon="6.2660243"><ele>1174.0</ele><time>2026-05-02T10:38:41.982Z</time></trkpt><trkpt lat="43.7650846" lon="6.2658654"><ele>1174.0</ele><time>2026-05-02T10:38:42.982Z</time></trkpt><trkpt lat="43.7651514" lon="6.2657351"><ele>1174.0</ele><time>2026-05-02T10:38:43.982Z</time></trkpt><trkpt lat="43.7652323" lon="6.2656243"><ele>1174.0</ele><time>2026-05-02T10:38:44.981Z</time></trkpt><trkpt lat="43.7653232" lon="6.2655348"><ele>1174.0</ele><time>2026-05-02T10:38:45.982Z</time></trkpt><trkpt lat="43.7654292" lon="6.2654441"><ele>1172.5</ele><time>2026-05-02T10:38:46.982Z</time></trkpt><trkpt lat="43.7655519" lon="6.2653751"><ele>1171.0</ele><time>2026-05-02T10:38:47.982Z</time></trkpt><trkpt lat="43.7656655" lon="6.2652971"><ele>1169.5</ele><time>2026-05-02T10:38:48.982Z</time></trkpt><trkpt lat="43.7657733" lon="6.2652119"><ele>1168.0</ele><time>2026-05-02T10:38:49.982Z</time></trkpt><trkpt lat="43.7658899" lon="6.2651374"><ele>1168.0</ele><time>2026-05-02T10:38:50.982Z</time></trkpt><trkpt lat="43.7660048" lon="6.2650683"><ele>1168.0</ele><time>2026-05-02T10:38:51.982Z</time></trkpt><trkpt lat="43.76614" lon="6.2650178"><ele>1168.0</ele><time>2026-05-02T10:38:52.982Z</time></trkpt><trkpt lat="43.7662618" lon="6.2649878"><ele>1168.0</ele><time>2026-05-02T10:38:53.982Z</time></trkpt><trkpt lat="43.7663909" lon="6.264952"><ele>1166.2</ele><time>2026-05-02T10:38:54.982Z</time></trkpt><trkpt lat="43.766512" lon="6.2649213"><ele>1164.4</ele><time>2026-05-02T10:38:55.982Z</time></trkpt><trkpt lat="43.7665749" lon="6.2648676"><ele>1162.6000000000001</ele><time>2026-05-02T10:38:56.982Z</time></trkpt><trkpt lat="43.7666539" lon="6.2647962"><ele>1160.8</ele><time>2026-05-02T10:38:57.982Z</time></trkpt><trkpt lat="43.7667307" lon="6.2647089"><ele>1159.0</ele><time>2026-05-02T10:38:58.982Z</time></trkpt><trkpt lat="43.7668061" lon="6.2646064"><ele>1143.4</ele><time>2026-05-02T10:38:59.982Z</time></trkpt><trkpt lat="43.7668888" lon="6.2644916"><ele>1127.8000000000002</ele><time>2026-05-02T10:39:00.982Z</time></trkpt><trkpt lat="43.7669605" lon="6.2643745"><ele>1112.1999999999998</ele><time>2026-05-02T10:39:01.981Z</time></trkpt><trkpt lat="43.7670276" lon="6.2642619"><ele>1096.6</ele><time>2026-05-02T10:39:02.982Z</time></trkpt><trkpt lat="43.7671011" lon="6.2641817"><ele>1081.0</ele><time>2026-05-02T10:39:03.982Z</time></trkpt><trkpt lat="43.7671681" lon="6.2640722"><ele>1083.5</ele><time>2026-05-02T10:39:04.981Z</time></trkpt><trkpt lat="43.7671831" lon="6.2639463"><ele>1086.0</ele><time>2026-05-02T10:39:05.982Z</time></trkpt><trkpt lat="43.7671635" lon="6.2638106"><ele>1088.5</ele><time>2026-05-02T10:39:06.982Z</time></trkpt><trkpt lat="43.7671493" lon="6.2636882"><ele>1091.0</ele><time>2026-05-02T10:39:07.982Z</time></trkpt><trkpt lat="43.7671273" lon="6.263598"><ele>1093.5</ele><time>2026-05-02T10:39:08.981Z</time></trkpt><trkpt lat="43.7671028" lon="6.2634703"><ele>1096.0</ele><time>2026-05-02T10:39:09.982Z</time></trkpt><trkpt lat="43.7670995" lon="6.2633371"><ele>1096.0</ele><time>2026-05-02T10:39:10.982Z</time></trkpt><trkpt lat="43.7671337" lon="6.2631993"><ele>1096.0</ele><time>2026-05-02T10:39:11.982Z</time></trkpt><trkpt lat="43.7671918" lon="6.2630802"><ele>1096.0</ele><time>2026-05-02T10:39:12.982Z</time></trkpt><trkpt lat="43.7672641" lon="6.262965"><ele>1096.0</ele><time>2026-05-02T10:39:13.982Z</time></trkpt><trkpt lat="43.767314" lon="6.2628417"><ele>1096.0</ele><time>2026-05-02T10:39:14.982Z</time></trkpt><trkpt lat="43.7673618" lon="6.2627081"><ele>1099.75</ele><time>2026-05-02T10:39:15.982Z</time></trkpt><trkpt lat="43.7673698" lon="6.2625273"><ele>1103.5</ele><time>2026-05-02T10:39:16.982Z</time></trkpt><trkpt lat="43.7673876" lon="6.2623793"><ele>1107.25</ele><time>2026-05-02T10:39:17.982Z</time></trkpt><trkpt lat="43.7674187" lon="6.2622355"><ele>1111.0</ele><time>2026-05-02T10:39:18.981Z</time></trkpt><trkpt lat="43.7674659" lon="6.2620919"><ele>1110.0</ele><time>2026-05-02T10:39:19.982Z</time></trkpt><trkpt lat="43.7675294" lon="6.2619639"><ele>1109.0</ele><time>2026-05-02T10:39:20.982Z</time></trkpt><trkpt lat="43.7675964" lon="6.2618415"><ele>1108.0</ele><time>2026-05-02T10:39:21.981Z</time></trkpt><trkpt lat="43.767706" lon="6.261768"><ele>1107.0</ele><time>2026-05-02T10:39:22.982Z</time></trkpt><trkpt lat="43.7678222" lon="6.261693"><ele>1107.0</ele><time>2026-05-02T10:39:23.982Z</time></trkpt><trkpt lat="43.7679382" lon="6.2616299"><ele>1107.0</ele><time>2026-05-02T10:39:24.982Z</time></trkpt><trkpt lat="43.7680419" lon="6.2615674"><ele>1107.0</ele><time>2026-05-02T10:39:25.982Z</time></trkpt><trkpt lat="43.7681986" lon="6.2615515"><ele>1107.0</ele><time>2026-05-02T10:39:26.982Z</time></trkpt><trkpt lat="43.7683496" lon="6.2615402"><ele>1107.0</ele><time>2026-05-02T10:39:27.981Z</time></trkpt><trkpt lat="43.7684826" lon="6.2615235"><ele>1107.0</ele><time>2026-05-02T10:39:28.982Z</time></trkpt><trkpt lat="43.768609" lon="6.261502"><ele>1107.0</ele><time>2026-05-02T10:39:29.982Z</time></trkpt><trkpt lat="43.7687309" lon="6.2614531"><ele>1107.0</ele><time>2026-05-02T10:39:30.982Z</time></trkpt><trkpt lat="43.7688661" lon="6.2614034"><ele>1110.0</ele><time>2026-05-02T10:39:31.981Z</time></trkpt><trkpt lat="43.7689851" lon="6.2613285"><ele>1113.0</ele><time>2026-05-02T10:39:32.982Z</time></trkpt><trkpt lat="43.7691071" lon="6.2612467"><ele>1116.0</ele><time>2026-05-02T10:39:33.982Z</time></trkpt><trkpt lat="43.7692258" lon="6.2612515"><ele>1119.0</ele><time>2026-05-02T10:39:34.982Z</time></trkpt><trkpt lat="43.769338" lon="6.2611728"><ele>1115.0</ele><time>2026-05-02T10:39:35.982Z</time></trkpt><trkpt lat="43.7694388" lon="6.2611429"><ele>1111.0</ele><time>2026-05-02T10:39:36.982Z</time></trkpt><trkpt lat="43.7695452" lon="6.2611202"><ele>1107.0</ele><time>2026-05-02T10:39:37.981Z</time></trkpt><trkpt lat="43.7696378" lon="6.2610164"><ele>1103.0</ele><time>2026-05-02T10:39:38.982Z</time></trkpt><trkpt lat="43.7697287" lon="6.2609465"><ele>1099.0</ele><time>2026-05-02T10:39:39.982Z</time></trkpt><trkpt lat="43.7698401" lon="6.2609076"><ele>1099.0</ele><time>2026-05-02T10:39:40.982Z</time></trkpt><trkpt lat="43.7699181" lon="6.2608832"><ele>1099.0</ele><time>2026-05-02T10:39:41.982Z</time></trkpt><trkpt lat="43.7699853" lon="6.2608885"><ele>1099.0</ele><time>2026-05-02T10:39:42.982Z</time></trkpt><trkpt lat="43.7701082" lon="6.260966"><ele>1099.0</ele><time>2026-05-02T10:39:43.982Z</time></trkpt><trkpt lat="43.7701993" lon="6.2609948"><ele>1099.0</ele><time>2026-05-02T10:39:44.982Z</time></trkpt><trkpt lat="43.770263" lon="6.2609818"><ele>1099.0</ele><time>2026-05-02T10:39:45.982Z</time></trkpt><trkpt lat="43.7703486" lon="6.2609481"><ele>1098.75</ele><time>2026-05-02T10:39:46.981Z</time></trkpt><trkpt lat="43.7704372" lon="6.2609053"><ele>1098.5</ele><time>2026-05-02T10:39:47.982Z</time></trkpt><trkpt lat="43.7705384" lon="6.260767"><ele>1098.25</ele><time>2026-05-02T10:39:48.982Z</time></trkpt><trkpt lat="43.7706249" lon="6.2606555"><ele>1098.0</ele><time>2026-05-02T10:39:49.982Z</time></trkpt><trkpt lat="43.7707275" lon="6.2605829"><ele>1098.0</ele><time>2026-05-02T10:39:50.982Z</time></trkpt><trkpt lat="43.7708331" lon="6.2605483"><ele>1098.0</ele><time>2026-05-02T10:39:51.982Z</time></trkpt><trkpt lat="43.7709195" lon="6.2604948"><ele>1098.0</ele><time>2026-05-02T10:39:52.982Z</time></trkpt><trkpt lat="43.7710101" lon="6.2604209"><ele>1098.0</ele><time>2026-05-02T10:39:53.982Z</time></trkpt><trkpt lat="43.7710952" lon="6.2603185"><ele>1098.0</ele><time>2026-05-02T10:39:54.982Z</time></trkpt><trkpt lat="43.7711404" lon="6.2601289"><ele>1092.75</ele><time>2026-05-02T10:39:55.982Z</time></trkpt><trkpt lat="43.7712221" lon="6.2599944"><ele>1087.5</ele><time>2026-05-02T10:39:56.982Z</time></trkpt><trkpt lat="43.7713035" lon="6.2598681"><ele>1082.25</ele><time>2026-05-02T10:39:57.982Z</time></trkpt><trkpt lat="43.7713707" lon="6.2597449"><ele>1077.0</ele><time>2026-05-02T10:39:58.982Z</time></trkpt><trkpt lat="43.7714326" lon="6.2596102"><ele>1077.0</ele><time>2026-05-02T10:39:59.982Z</time></trkpt><trkpt lat="43.7715074" lon="6.2595161"><ele>1077.0</ele><time>2026-05-02T10:40:00.982Z</time></trkpt><trkpt lat="43.7715982" lon="6.2594518"><ele>1077.0</ele><time>2026-05-02T10:40:01.982Z</time></trkpt><trkpt lat="43.7716963" lon="6.2593832"><ele>1077.0</ele><time>2026-05-02T10:40:02.982Z</time></trkpt><trkpt lat="43.7717571" lon="6.2593269"><ele>1077.0</ele><time>2026-05-02T10:40:03.982Z</time></trkpt><trkpt lat="43.7717893" lon="6.259214"><ele>1077.0</ele><time>2026-05-02T10:40:04.981Z</time></trkpt><trkpt lat="43.7718382" lon="6.2590951"><ele>1077.0</ele><time>2026-05-02T10:40:05.982Z</time></trkpt><trkpt lat="43.7718321" lon="6.2589268"><ele>1077.0</ele><time>2026-05-02T10:40:06.982Z</time></trkpt><trkpt lat="43.7717692" lon="6.2587374"><ele>1077.0</ele><time>2026-05-02T10:40:07.982Z</time></trkpt><trkpt lat="43.7717272" lon="6.2585703"><ele>1075.5</ele><time>2026-05-02T10:40:08.982Z</time></trkpt><trkpt lat="43.7716788" lon="6.2584163"><ele>1074.0</ele><time>2026-05-02T10:40:09.982Z</time></trkpt><trkpt lat="43.7715933" lon="6.2582599"><ele>1072.5</ele><time>2026-05-02T10:40:10.981Z</time></trkpt><trkpt lat="43.7715235" lon="6.2580971"><ele>1071.0</ele><time>2026-05-02T10:40:11.982Z</time></trkpt><trkpt lat="43.7714192" lon="6.2579271"><ele>1071.0</ele><time>2026-05-02T10:40:12.982Z</time></trkpt><trkpt lat="43.7713176" lon="6.2577861"><ele>1071.0</ele><time>2026-05-02T10:40:13.982Z</time></trkpt><trkpt lat="43.7712071" lon="6.2576875"><ele>1071.0</ele><time>2026-05-02T10:40:14.982Z</time></trkpt><trkpt lat="43.7711132" lon="6.2576055"><ele>1071.0</ele><time>2026-05-02T10:40:15.982Z</time></trkpt><trkpt lat="43.7710053" lon="6.2575089"><ele>1071.0</ele><time>2026-05-02T10:40:16.982Z</time></trkpt><trkpt lat="43.7709359" lon="6.2573658"><ele>1071.0</ele><time>2026-05-02T10:40:17.982Z</time></trkpt><trkpt lat="43.7709037" lon="6.2571799"><ele>1071.0</ele><time>2026-05-02T10:40:18.982Z</time></trkpt><trkpt lat="43.7708425" lon="6.2570137"><ele>1071.0</ele><time>2026-05-02T10:40:19.981Z</time></trkpt><trkpt lat="43.7708251" lon="6.256848"><ele>1068.8</ele><time>2026-05-02T10:40:20.981Z</time></trkpt><trkpt lat="43.7708279" lon="6.256683"><ele>1066.6</ele><time>2026-05-02T10:40:21.981Z</time></trkpt><trkpt lat="43.7708284" lon="6.2565468"><ele>1064.4</ele><time>2026-05-02T10:40:22.982Z</time></trkpt><trkpt lat="43.7708558" lon="6.2564076"><ele>1062.2</ele><time>2026-05-02T10:40:23.982Z</time></trkpt><trkpt lat="43.7708633" lon="6.256275"><ele>1060.0</ele><time>2026-05-02T10:40:24.981Z</time></trkpt><trkpt lat="43.770861" lon="6.2561658"><ele>1060.0</ele><time>2026-05-02T10:40:25.982Z</time></trkpt><trkpt lat="43.7708642" lon="6.2560626"><ele>1060.0</ele><time>2026-05-02T10:40:26.982Z</time></trkpt><trkpt lat="43.7708611" lon="6.2559578"><ele>1060.0</ele><time>2026-05-02T10:40:27.982Z</time></trkpt><trkpt lat="43.7709924" lon="6.255982"><ele>1060.0</ele><time>2026-05-02T10:40:29.982Z</time></trkpt><trkpt lat="43.7710589" lon="6.2561067"><ele>1060.0</ele><time>2026-05-02T10:40:30.981Z</time></trkpt><trkpt lat="43.7711145" lon="6.2561972"><ele>1057.0</ele><time>2026-05-02T10:40:31.982Z</time></trkpt><trkpt lat="43.7711529" lon="6.2563196"><ele>1054.0</ele><time>2026-05-02T10:40:32.982Z</time></trkpt><trkpt lat="43.7711794" lon="6.2565232"><ele>1051.0</ele><time>2026-05-02T10:40:33.982Z</time></trkpt><trkpt lat="43.7711936" lon="6.2566931"><ele>1048.0</ele><time>2026-05-02T10:40:34.982Z</time></trkpt><trkpt lat="43.7711967" lon="6.2568546"><ele>1046.4</ele><time>2026-05-02T10:40:35.982Z</time></trkpt><trkpt lat="43.7712118" lon="6.2569876"><ele>1044.8</ele><time>2026-05-02T10:40:36.982Z</time></trkpt><trkpt lat="43.7712833" lon="6.2570734"><ele>1043.2</ele><time>2026-05-02T10:40:37.982Z</time></trkpt><trkpt lat="43.7713256" lon="6.2571569"><ele>1041.6</ele><time>2026-05-02T10:40:38.982Z</time></trkpt><trkpt lat="43.7714" lon="6.257241"><ele>1040.0</ele><time>2026-05-02T10:40:39.982Z</time></trkpt><trkpt lat="43.771497" lon="6.2572733"><ele>1038.0</ele><time>2026-05-02T10:40:40.982Z</time></trkpt><trkpt lat="43.7716404" lon="6.2573143"><ele>1036.0</ele><time>2026-05-02T10:40:41.982Z</time></trkpt><trkpt lat="43.7718316" lon="6.2573531"><ele>1034.0</ele><time>2026-05-02T10:40:42.981Z</time></trkpt><trkpt lat="43.7719782" lon="6.2574148"><ele>1034.0</ele><time>2026-05-02T10:40:43.982Z</time></trkpt><trkpt lat="43.7721162" lon="6.2574904"><ele>1034.0</ele><time>2026-05-02T10:40:44.982Z</time></trkpt><trkpt lat="43.7722412" lon="6.2575555"><ele>1034.0</ele><time>2026-05-02T10:40:45.982Z</time></trkpt><trkpt lat="43.7723658" lon="6.2576021"><ele>1034.0</ele><time>2026-05-02T10:40:46.982Z</time></trkpt><trkpt lat="43.7725181" lon="6.2576249"><ele>1034.0</ele><time>2026-05-02T10:40:47.982Z</time></trkpt><trkpt lat="43.7726668" lon="6.257649"><ele>1034.0</ele><time>2026-05-02T10:40:48.982Z</time></trkpt><trkpt lat="43.7728204" lon="6.2577144"><ele>1034.0</ele><time>2026-05-02T10:40:49.981Z</time></trkpt><trkpt lat="43.7729471" lon="6.2577298"><ele>1034.0</ele><time>2026-05-02T10:40:50.985Z</time></trkpt><trkpt lat="43.7730374" lon="6.2577135"><ele>1032.0</ele><time>2026-05-02T10:40:51.985Z</time></trkpt><trkpt lat="43.7731488" lon="6.2576893"><ele>1030.0</ele><time>2026-05-02T10:40:52.985Z</time></trkpt><trkpt lat="43.7732624" lon="6.2576566"><ele>1028.0</ele><time>2026-05-02T10:40:53.982Z</time></trkpt><trkpt lat="43.7733428" lon="6.2575951"><ele>1026.0</ele><time>2026-05-02T10:40:54.981Z</time></trkpt><trkpt lat="43.7734647" lon="6.2575183"><ele>1021.1999999999999</ele><time>2026-05-02T10:40:55.982Z</time></trkpt><trkpt lat="43.7735823" lon="6.2574353"><ele>1016.3999999999999</ele><time>2026-05-02T10:40:56.983Z</time></trkpt><trkpt lat="43.7736479" lon="6.2574545"><ele>1011.6</ele><time>2026-05-02T10:40:57.983Z</time></trkpt><trkpt lat="43.7737562" lon="6.2574469"><ele>1006.8</ele><time>2026-05-02T10:40:58.983Z</time></trkpt><trkpt lat="43.7738567" lon="6.2574593"><ele>1002.0</ele><time>2026-05-02T10:40:59.983Z</time></trkpt><trkpt lat="43.7739218" lon="6.2574389"><ele>1002.0</ele><time>2026-05-02T10:41:00.983Z</time></trkpt><trkpt lat="43.7738912" lon="6.2572876"><ele>1002.0</ele><time>2026-05-02T10:41:02.983Z</time></trkpt><trkpt lat="43.7738156" lon="6.2571396"><ele>1002.0</ele><time>2026-05-02T10:41:04.983Z</time></trkpt><trkpt lat="43.773753" lon="6.257084"><ele>1002.0</ele><time>2026-05-02T10:41:05.983Z</time></trkpt><trkpt lat="43.7736619" lon="6.257066"><ele>1002.0</ele><time>2026-05-02T10:41:06.983Z</time></trkpt><trkpt lat="43.7735535" lon="6.2570235"><ele>1004.75</ele><time>2026-05-02T10:41:07.983Z</time></trkpt><trkpt lat="43.7734367" lon="6.2570006"><ele>1007.5</ele><time>2026-05-02T10:41:08.982Z</time></trkpt><trkpt lat="43.7733308" lon="6.256963"><ele>1010.25</ele><time>2026-05-02T10:41:09.983Z</time></trkpt><trkpt lat="43.7732081" lon="6.2569632"><ele>1013.0</ele><time>2026-05-02T10:41:10.982Z</time></trkpt><trkpt lat="43.7730991" lon="6.2569326"><ele>1013.0</ele><time>2026-05-02T10:41:11.983Z</time></trkpt><trkpt lat="43.7729705" lon="6.256929"><ele>1013.0</ele><time>2026-05-02T10:41:12.983Z</time></trkpt><trkpt lat="43.772861" lon="6.2569467"><ele>1013.0</ele><time>2026-05-02T10:41:13.983Z</time></trkpt><trkpt lat="43.7727749" lon="6.2569516"><ele>1013.0</ele><time>2026-05-02T10:41:14.983Z</time></trkpt><trkpt lat="43.7727046" lon="6.2569391"><ele>1013.0</ele><time>2026-05-02T10:41:15.983Z</time></trkpt><trkpt lat="43.7726416" lon="6.2568965"><ele>1013.0</ele><time>2026-05-02T10:41:16.983Z</time></trkpt><trkpt lat="43.7725809" lon="6.2567961"><ele>1013.0</ele><time>2026-05-02T10:41:18.983Z</time></trkpt><trkpt lat="43.7727006" lon="6.2567601"><ele>1013.0</ele><time>2026-05-02T10:41:20.983Z</time></trkpt><trkpt lat="43.7728116" lon="6.25675"><ele>1013.0</ele><time>2026-05-02T10:41:21.982Z</time></trkpt><trkpt lat="43.7729551" lon="6.2566897"><ele>1013.0</ele><time>2026-05-02T10:41:22.983Z</time></trkpt><trkpt lat="43.7731229" lon="6.256649"><ele>1013.0</ele><time>2026-05-02T10:41:23.982Z</time></trkpt><trkpt lat="43.7732316" lon="6.2565944"><ele>1013.0</ele><time>2026-05-02T10:41:24.983Z</time></trkpt><trkpt lat="43.7733459" lon="6.2564918"><ele>1013.0</ele><time>2026-05-02T10:41:25.983Z</time></trkpt><trkpt lat="43.7734703" lon="6.2564108"><ele>1006.4</ele><time>2026-05-02T10:41:26.982Z</time></trkpt><trkpt lat="43.7735584" lon="6.2563116"><ele>999.8</ele><time>2026-05-02T10:41:27.983Z</time></trkpt><trkpt lat="43.7736447" lon="6.2562121"><ele>993.2</ele><time>2026-05-02T10:41:28.983Z</time></trkpt><trkpt lat="43.773745" lon="6.2561728"><ele>986.6</ele><time>2026-05-02T10:41:29.983Z</time></trkpt><trkpt lat="43.7738479" lon="6.2561284"><ele>980.0</ele><time>2026-05-02T10:41:30.983Z</time></trkpt><trkpt lat="43.773964" lon="6.2561071"><ele>980.0</ele><time>2026-05-02T10:41:31.983Z</time></trkpt><trkpt lat="43.7740451" lon="6.2561681"><ele>980.0</ele><time>2026-05-02T10:41:32.983Z</time></trkpt><trkpt lat="43.774113" lon="6.2562767"><ele>980.0</ele><time>2026-05-02T10:41:33.982Z</time></trkpt><trkpt lat="43.7741853" lon="6.2564207"><ele>980.0</ele><time>2026-05-02T10:41:34.983Z</time></trkpt><trkpt lat="43.774227" lon="6.2565343"><ele>980.0</ele><time>2026-05-02T10:41:35.982Z</time></trkpt><trkpt lat="43.7742455" lon="6.2566708"><ele>983.5</ele><time>2026-05-02T10:41:36.983Z</time></trkpt><trkpt lat="43.7742808" lon="6.2568738"><ele>987.0</ele><time>2026-05-02T10:41:37.983Z</time></trkpt><trkpt lat="43.7743091" lon="6.257027"><ele>990.5</ele><time>2026-05-02T10:41:38.982Z</time></trkpt><trkpt lat="43.7743238" lon="6.2572234"><ele>994.0</ele><time>2026-05-02T10:41:39.983Z</time></trkpt><trkpt lat="43.7743405" lon="6.2574406"><ele>984.25</ele><time>2026-05-02T10:41:40.983Z</time></trkpt><trkpt lat="43.7743696" lon="6.257612"><ele>974.5</ele><time>2026-05-02T10:41:41.983Z</time></trkpt><trkpt lat="43.7744095" lon="6.2577608"><ele>964.75</ele><time>2026-05-02T10:41:42.983Z</time></trkpt><trkpt lat="43.7744555" lon="6.2578987"><ele>955.0</ele><time>2026-05-02T10:41:43.982Z</time></trkpt><trkpt lat="43.7745378" lon="6.2580609"><ele>959.25</ele><time>2026-05-02T10:41:44.983Z</time></trkpt><trkpt lat="43.7746121" lon="6.2582121"><ele>963.5</ele><time>2026-05-02T10:41:45.983Z</time></trkpt><trkpt lat="43.7746823" lon="6.2583477"><ele>967.75</ele><time>2026-05-02T10:41:46.983Z</time></trkpt><trkpt lat="43.7747601" lon="6.2585036"><ele>972.0</ele><time>2026-05-02T10:41:47.983Z</time></trkpt><trkpt lat="43.774848" lon="6.2586492"><ele>972.0</ele><time>2026-05-02T10:41:48.983Z</time></trkpt><trkpt lat="43.7749381" lon="6.2587899"><ele>972.0</ele><time>2026-05-02T10:41:49.983Z</time></trkpt><trkpt lat="43.7750223" lon="6.2589086"><ele>972.0</ele><time>2026-05-02T10:41:50.983Z</time></trkpt><trkpt lat="43.7751144" lon="6.2590233"><ele>972.0</ele><time>2026-05-02T10:41:51.983Z</time></trkpt><trkpt lat="43.7752048" lon="6.2591576"><ele>968.0</ele><time>2026-05-02T10:41:52.983Z</time></trkpt><trkpt lat="43.7752554" lon="6.2592888"><ele>964.0</ele><time>2026-05-02T10:41:53.983Z</time></trkpt><trkpt lat="43.7752765" lon="6.2594398"><ele>960.0</ele><time>2026-05-02T10:41:54.983Z</time></trkpt><trkpt lat="43.7753095" lon="6.259583"><ele>956.0</ele><time>2026-05-02T10:41:55.983Z</time></trkpt><trkpt lat="43.7753123" lon="6.2597543"><ele>954.3333333333334</ele><time>2026-05-02T10:41:56.983Z</time></trkpt><trkpt lat="43.7753007" lon="6.2599048"><ele>952.6666666666667</ele><time>2026-05-02T10:41:57.983Z</time></trkpt><trkpt lat="43.775294" lon="6.2600272"><ele>951.0</ele><time>2026-05-02T10:41:58.983Z</time></trkpt><trkpt lat="43.7752934" lon="6.2601399"><ele>949.3333333333333</ele><time>2026-05-02T10:41:59.983Z</time></trkpt><trkpt lat="43.7752916" lon="6.2602352"><ele>947.6666666666666</ele><time>2026-05-02T10:42:00.983Z</time></trkpt><trkpt lat="43.7753273" lon="6.2603187"><ele>946.0</ele><time>2026-05-02T10:42:01.983Z</time></trkpt><trkpt lat="43.7753876" lon="6.2604285"><ele>945.9999999999999</ele><time>2026-05-02T10:42:03.983Z</time></trkpt><trkpt lat="43.7754528" lon="6.2603866"><ele>946.0</ele><time>2026-05-02T10:42:04.983Z</time></trkpt><trkpt lat="43.7755244" lon="6.2603184"><ele>946.0</ele><time>2026-05-02T10:42:06.983Z</time></trkpt><trkpt lat="43.7755367" lon="6.2601813"><ele>946.0</ele><time>2026-05-02T10:42:07.983Z</time></trkpt><trkpt lat="43.7755169" lon="6.2600741"><ele>945.9999999999999</ele><time>2026-05-02T10:42:08.983Z</time></trkpt><trkpt lat="43.775517" lon="6.2599826"><ele>946.0</ele><time>2026-05-02T10:42:09.983Z</time></trkpt><trkpt lat="43.7754991" lon="6.2598146"><ele>948.0</ele><time>2026-05-02T10:42:10.982Z</time></trkpt><trkpt lat="43.7755064" lon="6.259691"><ele>949.9999999999999</ele><time>2026-05-02T10:42:11.982Z</time></trkpt><trkpt lat="43.7755165" lon="6.2595603"><ele>951.9999999999999</ele><time>2026-05-02T10:42:12.983Z</time></trkpt><trkpt lat="43.775553" lon="6.259424"><ele>954.0</ele><time>2026-05-02T10:42:13.983Z</time></trkpt><trkpt lat="43.7756182" lon="6.2593213"><ele>956.0</ele><time>2026-05-02T10:42:14.983Z</time></trkpt><trkpt lat="43.7756819" lon="6.2592263"><ele>956.0</ele><time>2026-05-02T10:42:15.983Z</time></trkpt><trkpt lat="43.7758191" lon="6.2590913"><ele>956.0</ele><time>2026-05-02T10:42:16.983Z</time></trkpt><trkpt lat="43.7759542" lon="6.2589926"><ele>956.0</ele><time>2026-05-02T10:42:17.983Z</time></trkpt><trkpt lat="43.7760605" lon="6.2588794"><ele>957.25</ele><time>2026-05-02T10:42:18.983Z</time></trkpt><trkpt lat="43.7761488" lon="6.2587468"><ele>958.5</ele><time>2026-05-02T10:42:19.982Z</time></trkpt><trkpt lat="43.7762335" lon="6.2586075"><ele>959.75</ele><time>2026-05-02T10:42:20.983Z</time></trkpt><trkpt lat="43.7763191" lon="6.2584536"><ele>961.0</ele><time>2026-05-02T10:42:21.982Z</time></trkpt><trkpt lat="43.7763991" lon="6.2582989"><ele>961.0</ele><time>2026-05-02T10:42:22.983Z</time></trkpt><trkpt lat="43.7764658" lon="6.2581692"><ele>960.9999999999999</ele><time>2026-05-02T10:42:23.983Z</time></trkpt><trkpt lat="43.7765272" lon="6.2580683"><ele>960.9999999999999</ele><time>2026-05-02T10:42:24.983Z</time></trkpt><trkpt lat="43.7766057" lon="6.2579691"><ele>961.0</ele><time>2026-05-02T10:42:25.983Z</time></trkpt><trkpt lat="43.7766842" lon="6.2578902"><ele>961.0</ele><time>2026-05-02T10:42:26.982Z</time></trkpt><trkpt lat="43.7768003" lon="6.2577944"><ele>959.25</ele><time>2026-05-02T10:42:27.983Z</time></trkpt><trkpt lat="43.7769064" lon="6.2577054"><ele>957.5</ele><time>2026-05-02T10:42:28.983Z</time></trkpt><trkpt lat="43.7770174" lon="6.2576046"><ele>955.75</ele><time>2026-05-02T10:42:29.982Z</time></trkpt><trkpt lat="43.7771156" lon="6.257511"><ele>954.0</ele><time>2026-05-02T10:42:30.983Z</time></trkpt><trkpt lat="43.7772263" lon="6.2574334"><ele>954.0</ele><time>2026-05-02T10:42:31.982Z</time></trkpt><trkpt lat="43.7773198" lon="6.2573501"><ele>954.0000000000001</ele><time>2026-05-02T10:42:32.983Z</time></trkpt><trkpt lat="43.7774102" lon="6.2572598"><ele>954.0000000000001</ele><time>2026-05-02T10:42:33.983Z</time></trkpt><trkpt lat="43.7774976" lon="6.2571838"><ele>954.0</ele><time>2026-05-02T10:42:34.982Z</time></trkpt><trkpt lat="43.7775896" lon="6.257108"><ele>954.0</ele><time>2026-05-02T10:42:35.983Z</time></trkpt><trkpt lat="43.7776625" lon="6.2570565"><ele>952.4000000000001</ele><time>2026-05-02T10:42:36.983Z</time></trkpt><trkpt lat="43.7777449" lon="6.2570317"><ele>950.8000000000001</ele><time>2026-05-02T10:42:38.983Z</time></trkpt><trkpt lat="43.7777701" lon="6.2568803"><ele>949.1999999999999</ele><time>2026-05-02T10:42:40.983Z</time></trkpt><trkpt lat="43.7777421" lon="6.2567727"><ele>947.5999999999999</ele><time>2026-05-02T10:42:42.983Z</time></trkpt><trkpt lat="43.777676" lon="6.2567854"><ele>946.0</ele><time>2026-05-02T10:42:43.983Z</time></trkpt><trkpt lat="43.7775253" lon="6.2568784"><ele>940.8</ele><time>2026-05-02T10:42:45.983Z</time></trkpt><trkpt lat="43.7774194" lon="6.2569544"><ele>935.5999999999999</ele><time>2026-05-02T10:42:46.982Z</time></trkpt><trkpt lat="43.7773553" lon="6.2570067"><ele>930.4</ele><time>2026-05-02T10:42:47.983Z</time></trkpt><trkpt lat="43.7772743" lon="6.257085"><ele>925.2</ele><time>2026-05-02T10:42:48.982Z</time></trkpt><trkpt lat="43.7772003" lon="6.2571337"><ele>920.0</ele><time>2026-05-02T10:42:49.982Z</time></trkpt><trkpt lat="43.777073" lon="6.2572051"><ele>920.0</ele><time>2026-05-02T10:42:50.983Z</time></trkpt><trkpt lat="43.776978" lon="6.2572766"><ele>920.0</ele><time>2026-05-02T10:42:51.982Z</time></trkpt><trkpt lat="43.7768678" lon="6.2573342"><ele>920.0</ele><time>2026-05-02T10:42:52.983Z</time></trkpt><trkpt lat="43.7767493" lon="6.2573636"><ele>920.0</ele><time>2026-05-02T10:42:53.983Z</time></trkpt><trkpt lat="43.7766334" lon="6.257382"><ele>923.0</ele><time>2026-05-02T10:42:54.983Z</time></trkpt><trkpt lat="43.7764854" lon="6.2573886"><ele>926.0</ele><time>2026-05-02T10:42:55.982Z</time></trkpt><trkpt lat="43.7763625" lon="6.2574446"><ele>929.0</ele><time>2026-05-02T10:42:56.983Z</time></trkpt><trkpt lat="43.7762695" lon="6.2574963"><ele>932.0</ele><time>2026-05-02T10:42:57.982Z</time></trkpt><trkpt lat="43.7761844" lon="6.2576138"><ele>932.0</ele><time>2026-05-02T10:42:58.983Z</time></trkpt><trkpt lat="43.776074" lon="6.2576969"><ele>932.0</ele><time>2026-05-02T10:42:59.983Z</time></trkpt><trkpt lat="43.7759715" lon="6.2577843"><ele>932.0</ele><time>2026-05-02T10:43:00.982Z</time></trkpt><trkpt lat="43.7758759" lon="6.2578617"><ele>932.0</ele><time>2026-05-02T10:43:01.983Z</time></trkpt><trkpt lat="43.7757465" lon="6.2578711"><ele>930.0</ele><time>2026-05-02T10:43:03.983Z</time></trkpt><trkpt lat="43.7756207" lon="6.257816"><ele>928.0</ele><time>2026-05-02T10:43:05.983Z</time></trkpt><trkpt lat="43.7755975" lon="6.2577276"><ele>926.0</ele><time>2026-05-02T10:43:06.983Z</time></trkpt><trkpt lat="43.7755721" lon="6.2576117"><ele>924.0</ele><time>2026-05-02T10:43:07.983Z</time></trkpt><trkpt lat="43.7755175" lon="6.2574791"><ele>922.0</ele><time>2026-05-02T10:43:08.983Z</time></trkpt><trkpt lat="43.7754662" lon="6.2574032"><ele>917.25</ele><time>2026-05-02T10:43:09.983Z</time></trkpt><trkpt lat="43.7753864" lon="6.2572732"><ele>912.5</ele><time>2026-05-02T10:43:10.983Z</time></trkpt><trkpt lat="43.7753154" lon="6.2571522"><ele>907.75</ele><time>2026-05-02T10:43:11.983Z</time></trkpt><trkpt lat="43.77526" lon="6.2570073"><ele>903.0</ele><time>2026-05-02T10:43:12.983Z</time></trkpt><trkpt lat="43.7752749" lon="6.256798"><ele>903.0</ele><time>2026-05-02T10:43:13.983Z</time></trkpt><trkpt lat="43.7752546" lon="6.2566124"><ele>903.0</ele><time>2026-05-02T10:43:14.983Z</time></trkpt><trkpt lat="43.7752851" lon="6.2564311"><ele>903.0</ele><time>2026-05-02T10:43:15.982Z</time></trkpt><trkpt lat="43.7752597" lon="6.2562191"><ele>903.0</ele><time>2026-05-02T10:43:16.983Z</time></trkpt><trkpt lat="43.7752315" lon="6.2560311"><ele>899.75</ele><time>2026-05-02T10:43:17.983Z</time></trkpt><trkpt lat="43.7752102" lon="6.2558588"><ele>896.5</ele><time>2026-05-02T10:43:18.983Z</time></trkpt><trkpt lat="43.7751631" lon="6.2556992"><ele>893.25</ele><time>2026-05-02T10:43:19.983Z</time></trkpt><trkpt lat="43.7751159" lon="6.2555264"><ele>890.0</ele><time>2026-05-02T10:43:20.983Z</time></trkpt><trkpt lat="43.7750822" lon="6.2553974"><ele>887.75</ele><time>2026-05-02T10:43:21.982Z</time></trkpt><trkpt lat="43.7750726" lon="6.2552642"><ele>885.5</ele><time>2026-05-02T10:43:22.983Z</time></trkpt><trkpt lat="43.7751335" lon="6.2551441"><ele>883.25</ele><time>2026-05-02T10:43:23.983Z</time></trkpt><trkpt lat="43.7752643" lon="6.255005"><ele>881.0</ele><time>2026-05-02T10:43:24.983Z</time></trkpt><trkpt lat="43.7753202" lon="6.2548427"><ele>882.75</ele><time>2026-05-02T10:43:25.983Z</time></trkpt><trkpt lat="43.7753672" lon="6.2546879"><ele>884.5</ele><time>2026-05-02T10:43:26.983Z</time></trkpt><trkpt lat="43.7753863" lon="6.2545432"><ele>886.25</ele><time>2026-05-02T10:43:27.982Z</time></trkpt><trkpt lat="43.7754217" lon="6.2543341"><ele>888.0</ele><time>2026-05-02T10:43:28.983Z</time></trkpt><trkpt lat="43.775471" lon="6.2541422"><ele>888.0</ele><time>2026-05-02T10:43:29.983Z</time></trkpt><trkpt lat="43.775587" lon="6.2539637"><ele>888.0</ele><time>2026-05-02T10:43:30.983Z</time></trkpt><trkpt lat="43.7756881" lon="6.2538048"><ele>888.0</ele><time>2026-05-02T10:43:31.983Z</time></trkpt><trkpt lat="43.7757671" lon="6.2536313"><ele>892.0</ele><time>2026-05-02T10:43:32.982Z</time></trkpt><trkpt lat="43.7758507" lon="6.2534387"><ele>896.0</ele><time>2026-05-02T10:43:33.983Z</time></trkpt><trkpt lat="43.7759433" lon="6.2532728"><ele>900.0</ele><time>2026-05-02T10:43:34.983Z</time></trkpt><trkpt lat="43.7760328" lon="6.2531058"><ele>891.0</ele><time>2026-05-02T10:43:35.983Z</time></trkpt><trkpt lat="43.7761071" lon="6.2529222"><ele>882.0</ele><time>2026-05-02T10:43:36.983Z</time></trkpt><trkpt lat="43.7761748" lon="6.252745"><ele>873.0</ele><time>2026-05-02T10:43:37.983Z</time></trkpt><trkpt lat="43.7762447" lon="6.2525593"><ele>864.0</ele><time>2026-05-02T10:43:38.982Z</time></trkpt><trkpt lat="43.7763184" lon="6.2523942"><ele>864.5</ele><time>2026-05-02T10:43:39.982Z</time></trkpt><trkpt lat="43.7763576" lon="6.2522141"><ele>865.0</ele><time>2026-05-02T10:43:40.983Z</time></trkpt><trkpt lat="43.7763991" lon="6.252052"><ele>865.5</ele><time>2026-05-02T10:43:41.983Z</time></trkpt><trkpt lat="43.776398" lon="6.2518224"><ele>866.0</ele><time>2026-05-02T10:43:42.983Z</time></trkpt><trkpt lat="43.7764125" lon="6.2516253"><ele>866.25</ele><time>2026-05-02T10:43:43.983Z</time></trkpt><trkpt lat="43.7764244" lon="6.2514329"><ele>866.5</ele><time>2026-05-02T10:43:44.983Z</time></trkpt><trkpt lat="43.7764363" lon="6.251229"><ele>866.75</ele><time>2026-05-02T10:43:45.982Z</time></trkpt><trkpt lat="43.7764504" lon="6.251022"><ele>867.0</ele><time>2026-05-02T10:43:46.983Z</time></trkpt><trkpt lat="43.7764787" lon="6.2508159"><ele>868.0</ele><time>2026-05-02T10:43:47.983Z</time></trkpt><trkpt lat="43.7764944" lon="6.2506224"><ele>869.0</ele><time>2026-05-02T10:43:48.983Z</time></trkpt><trkpt lat="43.7765325" lon="6.2504632"><ele>870.0</ele><time>2026-05-02T10:43:49.983Z</time></trkpt><trkpt lat="43.776575" lon="6.250293"><ele>871.0</ele><time>2026-05-02T10:43:50.982Z</time></trkpt><trkpt lat="43.7766378" lon="6.2501207"><ele>871.0</ele><time>2026-05-02T10:43:51.983Z</time></trkpt><trkpt lat="43.7766999" lon="6.2499945"><ele>871.0</ele><time>2026-05-02T10:43:52.983Z</time></trkpt><trkpt lat="43.776767" lon="6.2498736"><ele>871.0</ele><time>2026-05-02T10:43:53.983Z</time></trkpt><trkpt lat="43.7768538" lon="6.2497107"><ele>871.0</ele><time>2026-05-02T10:43:54.983Z</time></trkpt><trkpt lat="43.7769284" lon="6.2495513"><ele>865.25</ele><time>2026-05-02T10:43:55.983Z</time></trkpt><trkpt lat="43.7769944" lon="6.2493905"><ele>859.5</ele><time>2026-05-02T10:43:56.983Z</time></trkpt><trkpt lat="43.7770718" lon="6.2492513"><ele>853.75</ele><time>2026-05-02T10:43:57.983Z</time></trkpt><trkpt lat="43.7771316" lon="6.2491055"><ele>848.0</ele><time>2026-05-02T10:43:58.983Z</time></trkpt><trkpt lat="43.7771877" lon="6.2489427"><ele>848.0</ele><time>2026-05-02T10:43:59.983Z</time></trkpt><trkpt lat="43.7772184" lon="6.2487847"><ele>848.0</ele><time>2026-05-02T10:44:00.983Z</time></trkpt><trkpt lat="43.7772437" lon="6.2486087"><ele>848.0</ele><time>2026-05-02T10:44:01.983Z</time></trkpt><trkpt lat="43.7772277" lon="6.2484168"><ele>848.0</ele><time>2026-05-02T10:44:02.983Z</time></trkpt><trkpt lat="43.7772048" lon="6.2482291"><ele>846.25</ele><time>2026-05-02T10:44:03.982Z</time></trkpt><trkpt lat="43.7771717" lon="6.2480391"><ele>844.5</ele><time>2026-05-02T10:44:04.983Z</time></trkpt><trkpt lat="43.7771161" lon="6.2478259"><ele>842.75</ele><time>2026-05-02T10:44:05.983Z</time></trkpt><trkpt lat="43.7770419" lon="6.2476947"><ele>841.0</ele><time>2026-05-02T10:44:06.983Z</time></trkpt><trkpt lat="43.7769272" lon="6.2475841"><ele>839.6666666666666</ele><time>2026-05-02T10:44:07.983Z</time></trkpt><trkpt lat="43.7768076" lon="6.2474601"><ele>838.3333333333333</ele><time>2026-05-02T10:44:08.983Z</time></trkpt><trkpt lat="43.7766842" lon="6.247299"><ele>837.0</ele><time>2026-05-02T10:44:09.982Z</time></trkpt><trkpt lat="43.7765663" lon="6.2471627"><ele>837.0</ele><time>2026-05-02T10:44:10.983Z</time></trkpt><trkpt lat="43.7764559" lon="6.247018"><ele>837.0</ele><time>2026-05-02T10:44:11.983Z</time></trkpt><trkpt lat="43.7763264" lon="6.2468869"><ele>837.0</ele><time>2026-05-02T10:44:12.983Z</time></trkpt><trkpt lat="43.7762061" lon="6.2467573"><ele>837.0</ele><time>2026-05-02T10:44:13.982Z</time></trkpt><trkpt lat="43.7760973" lon="6.2466354"><ele>837.0</ele><time>2026-05-02T10:44:14.983Z</time></trkpt><trkpt lat="43.7760057" lon="6.2465285"><ele>837.0</ele><time>2026-05-02T10:44:15.983Z</time></trkpt><trkpt lat="43.7759473" lon="6.2463904"><ele>837.0</ele><time>2026-05-02T10:44:16.983Z</time></trkpt><trkpt lat="43.7759378" lon="6.246284"><ele>836.75</ele><time>2026-05-02T10:44:17.983Z</time></trkpt><trkpt lat="43.7759532" lon="6.2461094"><ele>836.5</ele><time>2026-05-02T10:44:18.983Z</time></trkpt><trkpt lat="43.7759556" lon="6.2459245"><ele>836.25</ele><time>2026-05-02T10:44:19.983Z</time></trkpt><trkpt lat="43.7759519" lon="6.2457468"><ele>836.0</ele><time>2026-05-02T10:44:20.983Z</time></trkpt><trkpt lat="43.7759515" lon="6.2455647"><ele>836.0</ele><time>2026-05-02T10:44:21.983Z</time></trkpt><trkpt lat="43.7759475" lon="6.2453918"><ele>836.0</ele><time>2026-05-02T10:44:22.983Z</time></trkpt><trkpt lat="43.7759421" lon="6.2452199"><ele>836.0</ele><time>2026-05-02T10:44:23.983Z</time></trkpt><trkpt lat="43.7759502" lon="6.2450501"><ele>836.0</ele><time>2026-05-02T10:44:24.982Z</time></trkpt><trkpt lat="43.7759763" lon="6.2449031"><ele>832.0</ele><time>2026-05-02T10:44:25.983Z</time></trkpt><trkpt lat="43.776003" lon="6.2447956"><ele>828.0</ele><time>2026-05-02T10:44:26.983Z</time></trkpt><trkpt lat="43.77604" lon="6.2446907"><ele>824.0</ele><time>2026-05-02T10:44:27.983Z</time></trkpt><trkpt lat="43.7760731" lon="6.2445141"><ele>820.0</ele><time>2026-05-02T10:44:29.983Z</time></trkpt><trkpt lat="43.7759022" lon="6.2444296"><ele>819.4</ele><time>2026-05-02T10:44:31.983Z</time></trkpt><trkpt lat="43.7758035" lon="6.2444338"><ele>818.8</ele><time>2026-05-02T10:44:32.983Z</time></trkpt><trkpt lat="43.7756925" lon="6.2444359"><ele>818.2</ele><time>2026-05-02T10:44:33.983Z</time></trkpt><trkpt lat="43.7755794" lon="6.2444386"><ele>817.6</ele><time>2026-05-02T10:44:34.983Z</time></trkpt><trkpt lat="43.7754668" lon="6.2444516"><ele>817.0</ele><time>2026-05-02T10:44:35.983Z</time></trkpt><trkpt lat="43.7753623" lon="6.2444527"><ele>817.0</ele><time>2026-05-02T10:44:36.983Z</time></trkpt><trkpt lat="43.7752442" lon="6.2444616"><ele>817.0</ele><time>2026-05-02T10:44:37.982Z</time></trkpt><trkpt lat="43.7751238" lon="6.2444676"><ele>817.0</ele><time>2026-05-02T10:44:38.983Z</time></trkpt><trkpt lat="43.7750285" lon="6.2444586"><ele>817.0</ele><time>2026-05-02T10:44:39.983Z</time></trkpt><trkpt lat="43.7749298" lon="6.2444279"><ele>817.0</ele><time>2026-05-02T10:44:40.982Z</time></trkpt><trkpt lat="43.7748187" lon="6.2443973"><ele>816.0</ele><time>2026-05-02T10:44:41.983Z</time></trkpt><trkpt lat="43.7747072" lon="6.2443658"><ele>815.0</ele><time>2026-05-02T10:44:42.983Z</time></trkpt><trkpt lat="43.7745882" lon="6.2443383"><ele>814.0</ele><time>2026-05-02T10:44:43.983Z</time></trkpt><trkpt lat="43.7744728" lon="6.2443165"><ele>813.0</ele><time>2026-05-02T10:44:44.983Z</time></trkpt><trkpt lat="43.7743645" lon="6.2442934"><ele>813.5999999999999</ele><time>2026-05-02T10:44:45.983Z</time></trkpt><trkpt lat="43.774293" lon="6.2442574"><ele>814.1999999999999</ele><time>2026-05-02T10:44:46.982Z</time></trkpt><trkpt lat="43.7741715" lon="6.2442355"><ele>814.8</ele><time>2026-05-02T10:44:47.983Z</time></trkpt><trkpt lat="43.7740831" lon="6.2442067"><ele>815.4</ele><time>2026-05-02T10:44:48.983Z</time></trkpt><trkpt lat="43.7739844" lon="6.2441667"><ele>816.0</ele><time>2026-05-02T10:44:49.983Z</time></trkpt><trkpt lat="43.7738469" lon="6.2441052"><ele>816.0</ele><time>2026-05-02T10:44:50.983Z</time></trkpt><trkpt lat="43.7737732" lon="6.2440431"><ele>816.0</ele><time>2026-05-02T10:44:51.983Z</time></trkpt><trkpt lat="43.7736471" lon="6.2439828"><ele>816.0</ele><time>2026-05-02T10:44:52.983Z</time></trkpt><trkpt lat="43.7735474" lon="6.2439257"><ele>816.0</ele><time>2026-05-02T10:44:53.982Z</time></trkpt><trkpt lat="43.7734488" lon="6.2438593"><ele>816.0</ele><time>2026-05-02T10:44:54.982Z</time></trkpt><trkpt lat="43.7733679" lon="6.2438072"><ele>811.1999999999999</ele><time>2026-05-02T10:44:55.983Z</time></trkpt><trkpt lat="43.7732779" lon="6.2437803"><ele>806.4</ele><time>2026-05-02T10:44:56.983Z</time></trkpt><trkpt lat="43.7731422" lon="6.243757"><ele>801.6</ele><time>2026-05-02T10:44:57.983Z</time></trkpt><trkpt lat="43.7730411" lon="6.24377"><ele>796.8</ele><time>2026-05-02T10:44:58.982Z</time></trkpt><trkpt lat="43.7729267" lon="6.2437903"><ele>792.0</ele><time>2026-05-02T10:44:59.982Z</time></trkpt><trkpt lat="43.7728244" lon="6.2438043"><ele>792.0</ele><time>2026-05-02T10:45:00.983Z</time></trkpt><trkpt lat="43.7727288" lon="6.2437781"><ele>792.0</ele><time>2026-05-02T10:45:01.983Z</time></trkpt><trkpt lat="43.7726684" lon="6.2437002"><ele>792.0</ele><time>2026-05-02T10:45:02.983Z</time></trkpt><trkpt lat="43.77259" lon="6.2436202"><ele>792.0</ele><time>2026-05-02T10:45:03.983Z</time></trkpt><trkpt lat="43.772506" lon="6.2435992"><ele>792.0</ele><time>2026-05-02T10:45:04.983Z</time></trkpt><trkpt lat="43.7724238" lon="6.2435899"><ele>792.0</ele><time>2026-05-02T10:45:05.983Z</time></trkpt><trkpt lat="43.7723291" lon="6.2435989"><ele>792.1666666666666</ele><time>2026-05-02T10:45:06.982Z</time></trkpt><trkpt lat="43.7722376" lon="6.2436083"><ele>792.3333333333333</ele><time>2026-05-02T10:45:07.983Z</time></trkpt><trkpt lat="43.772149" lon="6.2436668"><ele>792.5</ele><time>2026-05-02T10:45:09.983Z</time></trkpt><trkpt lat="43.7720744" lon="6.243662"><ele>792.6666666666666</ele><time>2026-05-02T10:45:11.983Z</time></trkpt><trkpt lat="43.7720578" lon="6.2435365"><ele>792.8333333333333</ele><time>2026-05-02T10:45:13.982Z</time></trkpt><trkpt lat="43.7721217" lon="6.2434507"><ele>793.0</ele><time>2026-05-02T10:45:15.983Z</time></trkpt><trkpt lat="43.7722098" lon="6.2433697"><ele>793.0</ele><time>2026-05-02T10:45:17.983Z</time></trkpt><trkpt lat="43.7723142" lon="6.2432945"><ele>793.0</ele><time>2026-05-02T10:45:19.983Z</time></trkpt><trkpt lat="43.7724233" lon="6.2432092"><ele>793.0</ele><time>2026-05-02T10:45:21.983Z</time></trkpt><trkpt lat="43.772525" lon="6.2431093"><ele>793.0</ele><time>2026-05-02T10:45:23.983Z</time></trkpt><trkpt lat="43.7725947" lon="6.2430744"><ele>793.0</ele><time>2026-05-02T10:45:24.983Z</time></trkpt><trkpt lat="43.7726793" lon="6.2430389"><ele>791.9999999999999</ele><time>2026-05-02T10:45:25.983Z</time></trkpt><trkpt lat="43.7727659" lon="6.2430363"><ele>791.0</ele><time>2026-05-02T10:45:26.983Z</time></trkpt><trkpt lat="43.7728469" lon="6.2430094"><ele>790.0</ele><time>2026-05-02T10:45:27.983Z</time></trkpt><trkpt lat="43.7729341" lon="6.2429909"><ele>789.0</ele><time>2026-05-02T10:45:28.983Z</time></trkpt><trkpt lat="43.773018" lon="6.2429617"><ele>787.9999999999999</ele><time>2026-05-02T10:45:29.983Z</time></trkpt><trkpt lat="43.7731011" lon="6.2429472"><ele>787.0</ele><time>2026-05-02T10:45:30.983Z</time></trkpt><trkpt lat="43.7731745" lon="6.2429378"><ele>786.9999999999999</ele><time>2026-05-02T10:45:31.983Z</time></trkpt><trkpt lat="43.773254" lon="6.2429276"><ele>787.0</ele><time>2026-05-02T10:45:32.983Z</time></trkpt><trkpt lat="43.7733217" lon="6.2429361"><ele>787.0</ele><time>2026-05-02T10:45:33.983Z</time></trkpt><trkpt lat="43.7734148" lon="6.2429671"><ele>787.0</ele><time>2026-05-02T10:45:35.983Z</time></trkpt><trkpt lat="43.773485" lon="6.2429699"><ele>786.9999999999999</ele><time>2026-05-02T10:45:37.983Z</time></trkpt><trkpt lat="43.7735458" lon="6.242935"><ele>787.0</ele><time>2026-05-02T10:45:40.983Z</time></trkpt><trkpt lat="43.7735519" lon="6.2428065"><ele>786.4999999999999</ele><time>2026-05-02T10:45:43.982Z</time></trkpt><trkpt lat="43.7735659" lon="6.242695"><ele>786.0</ele><time>2026-05-02T10:45:45.983Z</time></trkpt><trkpt lat="43.7735821" lon="6.2425732"><ele>785.5</ele><time>2026-05-02T10:45:47.983Z</time></trkpt><trkpt lat="43.7735987" lon="6.2424551"><ele>785.0</ele><time>2026-05-02T10:45:49.983Z</time></trkpt><trkpt lat="43.7736055" lon="6.2423663"><ele>784.4999999999999</ele><time>2026-05-02T10:45:51.983Z</time></trkpt><trkpt lat="43.7736529" lon="6.2422809"><ele>784.0</ele><time>2026-05-02T10:45:53.983Z</time></trkpt><trkpt lat="43.7737167" lon="6.2422227"><ele>784.0</ele><time>2026-05-02T10:45:55.983Z</time></trkpt><trkpt lat="43.7737716" lon="6.2421361"><ele>784.0</ele><time>2026-05-02T10:45:57.983Z</time></trkpt><trkpt lat="43.7738211" lon="6.2420026"><ele>784.0</ele><time>2026-05-02T10:45:59.983Z</time></trkpt><trkpt lat="43.773857" lon="6.2418631"><ele>784.0</ele><time>2026-05-02T10:46:01.982Z</time></trkpt><trkpt lat="43.7738424" lon="6.241706"><ele>784.0</ele><time>2026-05-02T10:46:03.983Z</time></trkpt><trkpt lat="43.773816" lon="6.241556"><ele>782.4000000000001</ele><time>2026-05-02T10:46:05.983Z</time></trkpt><trkpt lat="43.7737911" lon="6.2414035"><ele>780.8</ele><time>2026-05-02T10:46:07.983Z</time></trkpt><trkpt lat="43.7737656" lon="6.2412493"><ele>779.2</ele><time>2026-05-02T10:46:09.982Z</time></trkpt><trkpt lat="43.7737786" lon="6.2410926"><ele>777.5999999999999</ele><time>2026-05-02T10:46:11.983Z</time></trkpt><trkpt lat="43.7738363" lon="6.2409994"><ele>776.0</ele><time>2026-05-02T10:46:13.983Z</time></trkpt><trkpt lat="43.7739668" lon="6.2410109"><ele>776.0000000000001</ele><time>2026-05-02T10:46:15.983Z</time></trkpt><trkpt lat="43.7740653" lon="6.2409999"><ele>776.0</ele><time>2026-05-02T10:46:16.983Z</time></trkpt><trkpt lat="43.7741354" lon="6.2410297"><ele>776.0</ele><time>2026-05-02T10:46:17.983Z</time></trkpt><trkpt lat="43.7742113" lon="6.2410403"><ele>776.0</ele><time>2026-05-02T10:46:18.983Z</time></trkpt><trkpt lat="43.7743077" lon="6.241049"><ele>776.0000000000001</ele><time>2026-05-02T10:46:19.983Z</time></trkpt><trkpt lat="43.774392" lon="6.2410568"><ele>776.0</ele><time>2026-05-02T10:46:20.983Z</time></trkpt><trkpt lat="43.7744808" lon="6.2410739"><ele>775.0000000000001</ele><time>2026-05-02T10:46:21.983Z</time></trkpt><trkpt lat="43.7745597" lon="6.2410934"><ele>774.0</ele><time>2026-05-02T10:46:22.983Z</time></trkpt><trkpt lat="43.7746396" lon="6.2411122"><ele>773.0</ele><time>2026-05-02T10:46:23.982Z</time></trkpt><trkpt lat="43.7747232" lon="6.2411284"><ele>772.0</ele><time>2026-05-02T10:46:24.983Z</time></trkpt><trkpt lat="43.7747918" lon="6.2411392"><ele>771.0000000000001</ele><time>2026-05-02T10:46:25.983Z</time></trkpt><trkpt lat="43.7748596" lon="6.2411306"><ele>770.0</ele><time>2026-05-02T10:46:26.983Z</time></trkpt><trkpt lat="43.7749681" lon="6.2411404"><ele>770.0000000000001</ele><time>2026-05-02T10:46:28.982Z</time></trkpt><trkpt lat="43.775029" lon="6.2411768"><ele>770.0</ele><time>2026-05-02T10:46:31.983Z</time></trkpt><trkpt lat="43.7750932" lon="6.2411605"><ele>770.0</ele><time>2026-05-02T10:47:11.983Z</time></trkpt><trkpt lat="43.7751243" lon="6.2410769"><ele>770.0</ele><time>2026-05-02T10:47:13.983Z</time></trkpt><trkpt lat="43.7750888" lon="6.2409292"><ele>770.0000000000001</ele><time>2026-05-02T10:47:14.982Z</time></trkpt><trkpt lat="43.7750613" lon="6.2408369"><ele>770.0</ele><time>2026-05-02T10:47:15.983Z</time></trkpt><trkpt lat="43.7750269" lon="6.2407397"><ele>768.6</ele><time>2026-05-02T10:47:16.983Z</time></trkpt><trkpt lat="43.7749894" lon="6.2406231"><ele>767.2</ele><time>2026-05-02T10:47:17.983Z</time></trkpt><trkpt lat="43.7749916" lon="6.2404786"><ele>765.8</ele><time>2026-05-02T10:47:18.983Z</time></trkpt><trkpt lat="43.7750076" lon="6.2403528"><ele>764.4</ele><time>2026-05-02T10:47:19.983Z</time></trkpt><trkpt lat="43.7750122" lon="6.2402301"><ele>763.0</ele><time>2026-05-02T10:47:20.983Z</time></trkpt><trkpt lat="43.7750449" lon="6.2400958"><ele>763.0</ele><time>2026-05-02T10:47:21.983Z</time></trkpt><trkpt lat="43.7750542" lon="6.2399164"><ele>763.0</ele><time>2026-05-02T10:47:23.983Z</time></trkpt><trkpt lat="43.7749845" lon="6.2398605"><ele>763.0</ele><time>2026-05-02T10:47:24.983Z</time></trkpt><trkpt lat="43.7749506" lon="6.2397828"><ele>763.0</ele><time>2026-05-02T10:47:25.983Z</time></trkpt><trkpt lat="43.7748846" lon="6.2397262"><ele>763.0</ele><time>2026-05-02T10:47:26.983Z</time></trkpt><trkpt lat="43.7748344" lon="6.2396565"><ele>763.0</ele><time>2026-05-02T10:47:27.983Z</time></trkpt><trkpt lat="43.7747382" lon="6.2396016"><ele>760.2</ele><time>2026-05-02T10:47:28.983Z</time></trkpt><trkpt lat="43.7746605" lon="6.2395362"><ele>757.4</ele><time>2026-05-02T10:47:29.983Z</time></trkpt><trkpt lat="43.7745854" lon="6.2394519"><ele>754.6</ele><time>2026-05-02T10:47:30.982Z</time></trkpt><trkpt lat="43.7745097" lon="6.2393518"><ele>751.8000000000001</ele><time>2026-05-02T10:47:31.982Z</time></trkpt><trkpt lat="43.7744463" lon="6.2392168"><ele>749.0</ele><time>2026-05-02T10:47:32.982Z</time></trkpt><trkpt lat="43.7743885" lon="6.2390727"><ele>748.0</ele><time>2026-05-02T10:47:33.983Z</time></trkpt><trkpt lat="43.7743254" lon="6.2389293"><ele>747.0</ele><time>2026-05-02T10:47:34.983Z</time></trkpt><trkpt lat="43.774255" lon="6.238782"><ele>746.0</ele><time>2026-05-02T10:47:35.982Z</time></trkpt><trkpt lat="43.7741864" lon="6.2386482"><ele>745.0</ele><time>2026-05-02T10:47:36.982Z</time></trkpt><trkpt lat="43.7741349" lon="6.2385099"><ele>745.0</ele><time>2026-05-02T10:47:37.983Z</time></trkpt><trkpt lat="43.7740826" lon="6.2383582"><ele>745.0</ele><time>2026-05-02T10:47:38.983Z</time></trkpt><trkpt lat="43.7740572" lon="6.2382235"><ele>745.0</ele><time>2026-05-02T10:47:39.983Z</time></trkpt><trkpt lat="43.7740303" lon="6.2380806"><ele>745.0</ele><time>2026-05-02T10:47:40.983Z</time></trkpt><trkpt lat="43.774026" lon="6.2379449"><ele>745.0</ele><time>2026-05-02T10:47:41.983Z</time></trkpt><trkpt lat="43.7739952" lon="6.2378244"><ele>743.0</ele><time>2026-05-02T10:47:42.983Z</time></trkpt><trkpt lat="43.773964" lon="6.2376974"><ele>741.0</ele><time>2026-05-02T10:47:43.983Z</time></trkpt><trkpt lat="43.7738708" lon="6.2376472"><ele>739.0</ele><time>2026-05-02T10:47:44.983Z</time></trkpt><trkpt lat="43.7737914" lon="6.2376335"><ele>737.0</ele><time>2026-05-02T10:47:45.983Z</time></trkpt><trkpt lat="43.7737133" lon="6.2376832"><ele>735.0</ele><time>2026-05-02T10:47:46.983Z</time></trkpt><trkpt lat="43.7736661" lon="6.2377722"><ele>733.0</ele><time>2026-05-02T10:47:47.983Z</time></trkpt><trkpt lat="43.7736439" lon="6.2379004"><ele>733.0</ele><time>2026-05-02T10:47:48.983Z</time></trkpt><trkpt lat="43.7736293" lon="6.2380182"><ele>733.0</ele><time>2026-05-02T10:47:49.983Z</time></trkpt><trkpt lat="43.7736476" lon="6.2381229"><ele>733.0</ele><time>2026-05-02T10:47:50.982Z</time></trkpt><trkpt lat="43.7736802" lon="6.238246"><ele>733.0</ele><time>2026-05-02T10:47:51.983Z</time></trkpt><trkpt lat="43.7736758" lon="6.2383727"><ele>733.0</ele><time>2026-05-02T10:47:52.983Z</time></trkpt><trkpt lat="43.7736541" lon="6.2385047"><ele>733.0</ele><time>2026-05-02T10:47:53.983Z</time></trkpt><trkpt lat="43.7736115" lon="6.2386305"><ele>735.2</ele><time>2026-05-02T10:47:54.983Z</time></trkpt><trkpt lat="43.7735664" lon="6.2387444"><ele>737.4</ele><time>2026-05-02T10:47:55.983Z</time></trkpt><trkpt lat="43.7734812" lon="6.2388321"><ele>739.6</ele><time>2026-05-02T10:47:56.983Z</time></trkpt><trkpt lat="43.7733707" lon="6.2388867"><ele>741.8000000000001</ele><time>2026-05-02T10:47:57.983Z</time></trkpt><trkpt lat="43.7732534" lon="6.2389252"><ele>744.0</ele><time>2026-05-02T10:47:58.983Z</time></trkpt><trkpt lat="43.7730933" lon="6.2389288"><ele>744.0</ele><time>2026-05-02T10:47:59.983Z</time></trkpt><trkpt lat="43.7729631" lon="6.2389118"><ele>744.0</ele><time>2026-05-02T10:48:00.983Z</time></trkpt><trkpt lat="43.7728313" lon="6.2388991"><ele>744.0</ele><time>2026-05-02T10:48:01.983Z</time></trkpt><trkpt lat="43.7727113" lon="6.2388699"><ele>744.0</ele><time>2026-05-02T10:48:02.983Z</time></trkpt><trkpt lat="43.7725957" lon="6.2388394"><ele>742.0</ele><time>2026-05-02T10:48:03.982Z</time></trkpt><trkpt lat="43.7724728" lon="6.2388069"><ele>740.0</ele><time>2026-05-02T10:48:04.983Z</time></trkpt><trkpt lat="43.7723461" lon="6.2387681"><ele>738.0</ele><time>2026-05-02T10:48:05.983Z</time></trkpt><trkpt lat="43.7722164" lon="6.2386869"><ele>736.0</ele><time>2026-05-02T10:48:06.983Z</time></trkpt><trkpt lat="43.7720922" lon="6.23862"><ele>736.0</ele><time>2026-05-02T10:48:07.983Z</time></trkpt><trkpt lat="43.7719541" lon="6.2385488"><ele>736.0</ele><time>2026-05-02T10:48:08.983Z</time></trkpt><trkpt lat="43.7718563" lon="6.2385056"><ele>736.0</ele><time>2026-05-02T10:48:09.982Z</time></trkpt><trkpt lat="43.7717551" lon="6.2384302"><ele>736.0</ele><time>2026-05-02T10:48:10.982Z</time></trkpt><trkpt lat="43.771651" lon="6.2383925"><ele>735.8</ele><time>2026-05-02T10:48:11.983Z</time></trkpt><trkpt lat="43.771555" lon="6.2382925"><ele>735.5999999999999</ele><time>2026-05-02T10:48:12.983Z</time></trkpt><trkpt lat="43.7715137" lon="6.2381676"><ele>735.4</ele><time>2026-05-02T10:48:13.983Z</time></trkpt><trkpt lat="43.771471" lon="6.2380473"><ele>735.2</ele><time>2026-05-02T10:48:14.983Z</time></trkpt><trkpt lat="43.771452" lon="6.2379379"><ele>735.0</ele><time>2026-05-02T10:48:15.983Z</time></trkpt><trkpt lat="43.771431" lon="6.2377697"><ele>734.25</ele><time>2026-05-02T10:48:16.982Z</time></trkpt><trkpt lat="43.7714157" lon="6.2375245"><ele>733.5</ele><time>2026-05-02T10:48:17.983Z</time></trkpt><trkpt lat="43.771392" lon="6.2373591"><ele>732.75</ele><time>2026-05-02T10:48:18.983Z</time></trkpt><trkpt lat="43.7713744" lon="6.2371627"><ele>732.0</ele><time>2026-05-02T10:48:19.983Z</time></trkpt><trkpt lat="43.7714159" lon="6.2370254"><ele>729.75</ele><time>2026-05-02T10:48:20.982Z</time></trkpt><trkpt lat="43.7714802" lon="6.2368757"><ele>727.5</ele><time>2026-05-02T10:48:21.983Z</time></trkpt><trkpt lat="43.7715722" lon="6.2367399"><ele>725.25</ele><time>2026-05-02T10:48:22.982Z</time></trkpt><trkpt lat="43.7716799" lon="6.2366132"><ele>723.0</ele><time>2026-05-02T10:48:23.983Z</time></trkpt><trkpt lat="43.7717916" lon="6.2364847"><ele>721.25</ele><time>2026-05-02T10:48:24.982Z</time></trkpt><trkpt lat="43.7718892" lon="6.236354"><ele>719.5</ele><time>2026-05-02T10:48:25.982Z</time></trkpt><trkpt lat="43.7719845" lon="6.2362486"><ele>717.75</ele><time>2026-05-02T10:48:26.982Z</time></trkpt><trkpt lat="43.7721072" lon="6.2361724"><ele>716.0</ele><time>2026-05-02T10:48:27.983Z</time></trkpt><trkpt lat="43.7722489" lon="6.2361078"><ele>716.0</ele><time>2026-05-02T10:48:28.983Z</time></trkpt><trkpt lat="43.772374" lon="6.2360423"><ele>716.0</ele><time>2026-05-02T10:48:29.983Z</time></trkpt><trkpt lat="43.772511" lon="6.2359878"><ele>716.0</ele><time>2026-05-02T10:48:30.983Z</time></trkpt><trkpt lat="43.7726262" lon="6.2359319"><ele>716.0</ele><time>2026-05-02T10:48:31.983Z</time></trkpt><trkpt lat="43.772766" lon="6.2358818"><ele>715.5</ele><time>2026-05-02T10:48:32.983Z</time></trkpt><trkpt lat="43.7728843" lon="6.2357883"><ele>715.0</ele><time>2026-05-02T10:48:33.983Z</time></trkpt><trkpt lat="43.7729871" lon="6.2356676"><ele>714.5</ele><time>2026-05-02T10:48:34.983Z</time></trkpt><trkpt lat="43.7730781" lon="6.2355465"><ele>714.0</ele><time>2026-05-02T10:48:35.983Z</time></trkpt><trkpt lat="43.7731481" lon="6.2354471"><ele>711.4000000000001</ele><time>2026-05-02T10:48:36.983Z</time></trkpt><trkpt lat="43.7732282" lon="6.2353779"><ele>708.8</ele><time>2026-05-02T10:48:37.983Z</time></trkpt><trkpt lat="43.773293" lon="6.2353122"><ele>706.2</ele><time>2026-05-02T10:48:38.983Z</time></trkpt><trkpt lat="43.7733682" lon="6.2352883"><ele>703.5999999999999</ele><time>2026-05-02T10:48:39.983Z</time></trkpt><trkpt lat="43.7734466" lon="6.2354169"><ele>701.0</ele><time>2026-05-02T10:48:40.983Z</time></trkpt><trkpt lat="43.7735194" lon="6.2354976"><ele>699.25</ele><time>2026-05-02T10:48:41.982Z</time></trkpt><trkpt lat="43.773566" lon="6.2356754"><ele>697.5</ele><time>2026-05-02T10:48:42.983Z</time></trkpt><trkpt lat="43.773623" lon="6.2358364"><ele>695.75</ele><time>2026-05-02T10:48:43.982Z</time></trkpt><trkpt lat="43.7736733" lon="6.235995"><ele>694.0</ele><time>2026-05-02T10:48:44.983Z</time></trkpt><trkpt lat="43.7737325" lon="6.2361378"><ele>694.0</ele><time>2026-05-02T10:48:45.983Z</time></trkpt><trkpt lat="43.773805" lon="6.236262"><ele>694.0</ele><time>2026-05-02T10:48:46.983Z</time></trkpt><trkpt lat="43.7738846" lon="6.2363728"><ele>694.0</ele><time>2026-05-02T10:48:47.983Z</time></trkpt><trkpt lat="43.7740049" lon="6.2364673"><ele>694.0</ele><time>2026-05-02T10:48:48.983Z</time></trkpt><trkpt lat="43.7741239" lon="6.2365579"><ele>696.0</ele><time>2026-05-02T10:48:49.982Z</time></trkpt><trkpt lat="43.7742392" lon="6.2366621"><ele>698.0</ele><time>2026-05-02T10:48:50.983Z</time></trkpt><trkpt lat="43.7743381" lon="6.2367588"><ele>700.0</ele><time>2026-05-02T10:48:51.983Z</time></trkpt><trkpt lat="43.7744376" lon="6.2368702"><ele>702.0</ele><time>2026-05-02T10:48:52.983Z</time></trkpt><trkpt lat="43.7745092" lon="6.2369354"><ele>702.0</ele><time>2026-05-02T10:48:53.983Z</time></trkpt><trkpt lat="43.7745896" lon="6.2370212"><ele>702.0</ele><time>2026-05-02T10:48:54.983Z</time></trkpt><trkpt lat="43.7746708" lon="6.2370347"><ele>702.0</ele><time>2026-05-02T10:48:55.983Z</time></trkpt><trkpt lat="43.7747988" lon="6.2369658"><ele>702.0</ele><time>2026-05-02T10:48:56.983Z</time></trkpt><trkpt lat="43.7749173" lon="6.2369347"><ele>702.0</ele><time>2026-05-02T10:48:57.983Z</time></trkpt><trkpt lat="43.775039" lon="6.236885"><ele>702.0</ele><time>2026-05-02T10:48:58.983Z</time></trkpt><trkpt lat="43.7751566" lon="6.2368277"><ele>702.0</ele><time>2026-05-02T10:48:59.983Z</time></trkpt><trkpt lat="43.7752582" lon="6.2367673"><ele>702.0</ele><time>2026-05-02T10:49:00.983Z</time></trkpt><trkpt lat="43.7753347" lon="6.2367186"><ele>702.0</ele><time>2026-05-02T10:49:01.983Z</time></trkpt><trkpt lat="43.7754132" lon="6.2366782"><ele>702.0</ele><time>2026-05-02T10:49:02.983Z</time></trkpt><trkpt lat="43.7754654" lon="6.2365945"><ele>701.8</ele><time>2026-05-02T10:49:03.983Z</time></trkpt><trkpt lat="43.7754862" lon="6.2364894"><ele>701.6</ele><time>2026-05-02T10:49:04.983Z</time></trkpt><trkpt lat="43.7754875" lon="6.2363816"><ele>701.4</ele><time>2026-05-02T10:49:05.983Z</time></trkpt><trkpt lat="43.7754122" lon="6.2362629"><ele>701.1999999999999</ele><time>2026-05-02T10:49:06.983Z</time></trkpt><trkpt lat="43.7753527" lon="6.2361652"><ele>701.0</ele><time>2026-05-02T10:49:07.983Z</time></trkpt><trkpt lat="43.7752529" lon="6.2361328"><ele>701.25</ele><time>2026-05-02T10:49:08.983Z</time></trkpt><trkpt lat="43.7751253" lon="6.2361621"><ele>701.5</ele><time>2026-05-02T10:49:09.982Z</time></trkpt><trkpt lat="43.7750194" lon="6.2362818"><ele>701.75</ele><time>2026-05-02T10:49:10.983Z</time></trkpt><trkpt lat="43.7749107" lon="6.2364183"><ele>702.0</ele><time>2026-05-02T10:49:11.982Z</time></trkpt><trkpt lat="43.7748028" lon="6.236493"><ele>702.0</ele><time>2026-05-02T10:49:12.983Z</time></trkpt><trkpt lat="43.7746879" lon="6.2364897"><ele>702.0</ele><time>2026-05-02T10:49:13.983Z</time></trkpt><trkpt lat="43.7745763" lon="6.2364728"><ele>702.0</ele><time>2026-05-02T10:49:14.983Z</time></trkpt><trkpt lat="43.7744937" lon="6.236411"><ele>702.0</ele><time>2026-05-02T10:49:15.983Z</time></trkpt><trkpt lat="43.7744035" lon="6.2362376"><ele>699.3333333333334</ele><time>2026-05-02T10:49:16.982Z</time></trkpt><trkpt lat="43.7743139" lon="6.2359703"><ele>696.6666666666667</ele><time>2026-05-02T10:49:17.983Z</time></trkpt><trkpt lat="43.7742262" lon="6.2358029"><ele>694.0</ele><time>2026-05-02T10:49:18.983Z</time></trkpt><trkpt lat="43.7741453" lon="6.2356377"><ele>691.5</ele><time>2026-05-02T10:49:19.983Z</time></trkpt><trkpt lat="43.7740425" lon="6.2354954"><ele>689.0</ele><time>2026-05-02T10:49:20.982Z</time></trkpt><trkpt lat="43.7739641" lon="6.2353308"><ele>686.5</ele><time>2026-05-02T10:49:21.983Z</time></trkpt><trkpt lat="43.7739079" lon="6.2351358"><ele>684.0</ele><time>2026-05-02T10:49:22.983Z</time></trkpt><trkpt lat="43.7738486" lon="6.234945"><ele>681.0</ele><time>2026-05-02T10:49:23.982Z</time></trkpt><trkpt lat="43.773788" lon="6.234748"><ele>678.0</ele><time>2026-05-02T10:49:24.983Z</time></trkpt><trkpt lat="43.7737126" lon="6.2345623"><ele>675.0</ele><time>2026-05-02T10:49:25.983Z</time></trkpt><trkpt lat="43.7736081" lon="6.2343925"><ele>675.3333333333334</ele><time>2026-05-02T10:49:26.983Z</time></trkpt><trkpt lat="43.773514" lon="6.2342198"><ele>675.6666666666667</ele><time>2026-05-02T10:49:27.982Z</time></trkpt><trkpt lat="43.7734132" lon="6.2340255"><ele>676.0</ele><time>2026-05-02T10:49:28.982Z</time></trkpt><trkpt lat="43.7733274" lon="6.2338557"><ele>676.0</ele><time>2026-05-02T10:49:29.983Z</time></trkpt><trkpt lat="43.7732476" lon="6.2337075"><ele>676.0</ele><time>2026-05-02T10:49:30.983Z</time></trkpt><trkpt lat="43.7731541" lon="6.2335478"><ele>676.0</ele><time>2026-05-02T10:49:31.983Z</time></trkpt><trkpt lat="43.7730701" lon="6.2333685"><ele>676.0</ele><time>2026-05-02T10:49:32.983Z</time></trkpt><trkpt lat="43.7730559" lon="6.2332195"><ele>675.4</ele><time>2026-05-02T10:49:33.982Z</time></trkpt><trkpt lat="43.773051" lon="6.2330412"><ele>674.8</ele><time>2026-05-02T10:49:34.983Z</time></trkpt><trkpt lat="43.7730375" lon="6.2328946"><ele>674.1999999999999</ele><time>2026-05-02T10:49:35.983Z</time></trkpt><trkpt lat="43.7730217" lon="6.2327404"><ele>673.5999999999999</ele><time>2026-05-02T10:49:36.983Z</time></trkpt><trkpt lat="43.7729843" lon="6.2326268"><ele>673.0</ele><time>2026-05-02T10:49:37.983Z</time></trkpt><trkpt lat="43.7729477" lon="6.2325185"><ele>673.0</ele><time>2026-05-02T10:49:38.983Z</time></trkpt><trkpt lat="43.7729166" lon="6.2324025"><ele>673.0</ele><time>2026-05-02T10:49:39.982Z</time></trkpt><trkpt lat="43.7729004" lon="6.2322798"><ele>673.0</ele><time>2026-05-02T10:49:40.983Z</time></trkpt><trkpt lat="43.7729565" lon="6.2321308"><ele>673.0</ele><time>2026-05-02T10:49:42.983Z</time></trkpt><trkpt lat="43.7730592" lon="6.2321"><ele>673.0</ele><time>2026-05-02T10:49:43.983Z</time></trkpt><trkpt lat="43.7731775" lon="6.2320695"><ele>673.0</ele><time>2026-05-02T10:49:44.983Z</time></trkpt><trkpt lat="43.7732596" lon="6.2321087"><ele>673.0</ele><time>2026-05-02T10:49:45.982Z</time></trkpt><trkpt lat="43.7733175" lon="6.2322283"><ele>673.0</ele><time>2026-05-02T10:49:46.983Z</time></trkpt><trkpt lat="43.7733805" lon="6.2324087"><ele>673.0</ele><time>2026-05-02T10:49:47.982Z</time></trkpt><trkpt lat="43.7734247" lon="6.2325683"><ele>673.0</ele><time>2026-05-02T10:49:48.983Z</time></trkpt><trkpt lat="43.7734794" lon="6.2327231"><ele>673.0</ele><time>2026-05-02T10:49:49.983Z</time></trkpt><trkpt lat="43.773544" lon="6.2328702"><ele>673.0</ele><time>2026-05-02T10:49:50.983Z</time></trkpt><trkpt lat="43.7736276" lon="6.2329948"><ele>673.0</ele><time>2026-05-02T10:49:51.983Z</time></trkpt><trkpt lat="43.7737393" lon="6.2330842"><ele>671.25</ele><time>2026-05-02T10:49:52.982Z</time></trkpt><trkpt lat="43.7738502" lon="6.2331807"><ele>669.5</ele><time>2026-05-02T10:49:53.982Z</time></trkpt><trkpt lat="43.7739843" lon="6.2332977"><ele>667.75</ele><time>2026-05-02T10:49:54.983Z</time></trkpt><trkpt lat="43.7741281" lon="6.233355"><ele>666.0</ele><time>2026-05-02T10:49:55.983Z</time></trkpt><trkpt lat="43.7742425" lon="6.2334404"><ele>666.0</ele><time>2026-05-02T10:49:56.983Z</time></trkpt><trkpt lat="43.7743526" lon="6.2335237"><ele>666.0</ele><time>2026-05-02T10:49:57.982Z</time></trkpt><trkpt lat="43.7744831" lon="6.2335586"><ele>666.0</ele><time>2026-05-02T10:49:58.983Z</time></trkpt><trkpt lat="43.7746252" lon="6.2335736"><ele>666.0</ele><time>2026-05-02T10:49:59.983Z</time></trkpt><trkpt lat="43.7747826" lon="6.2335438"><ele>665.25</ele><time>2026-05-02T10:50:00.982Z</time></trkpt><trkpt lat="43.7749195" lon="6.233523"><ele>664.5</ele><time>2026-05-02T10:50:01.983Z</time></trkpt><trkpt lat="43.7750508" lon="6.233413"><ele>663.75</ele><time>2026-05-02T10:50:02.983Z</time></trkpt><trkpt lat="43.7751811" lon="6.2333293"><ele>663.0</ele><time>2026-05-02T10:50:03.983Z</time></trkpt><trkpt lat="43.7753203" lon="6.2332375"><ele>658.6666666666666</ele><time>2026-05-02T10:50:04.983Z</time></trkpt><trkpt lat="43.7754566" lon="6.2331286"><ele>654.3333333333333</ele><time>2026-05-02T10:50:05.983Z</time></trkpt><trkpt lat="43.7755904" lon="6.2330433"><ele>650.0</ele><time>2026-05-02T10:50:06.983Z</time></trkpt><trkpt lat="43.7757399" lon="6.2329688"><ele>650.0</ele><time>2026-05-02T10:50:07.983Z</time></trkpt><trkpt lat="43.7758756" lon="6.2329135"><ele>650.0</ele><time>2026-05-02T10:50:08.983Z</time></trkpt><trkpt lat="43.7760019" lon="6.2328521"><ele>650.0</ele><time>2026-05-02T10:50:09.983Z</time></trkpt><trkpt lat="43.776124" lon="6.2328095"><ele>650.0</ele><time>2026-05-02T10:50:10.983Z</time></trkpt><trkpt lat="43.7762479" lon="6.2327784"><ele>649.0</ele><time>2026-05-02T10:50:11.983Z</time></trkpt><trkpt lat="43.77635" lon="6.2327187"><ele>648.0</ele><time>2026-05-02T10:50:12.983Z</time></trkpt><trkpt lat="43.776474" lon="6.2326938"><ele>647.0</ele><time>2026-05-02T10:50:13.983Z</time></trkpt><trkpt lat="43.7765934" lon="6.2326987"><ele>646.0</ele><time>2026-05-02T10:50:14.983Z</time></trkpt><trkpt lat="43.7767069" lon="6.2327711"><ele>646.0</ele><time>2026-05-02T10:50:15.983Z</time></trkpt><trkpt lat="43.7768116" lon="6.2328344"><ele>646.0</ele><time>2026-05-02T10:50:16.983Z</time></trkpt><trkpt lat="43.7768821" lon="6.2329455"><ele>646.0</ele><time>2026-05-02T10:50:17.982Z</time></trkpt><trkpt lat="43.7769498" lon="6.2330546"><ele>646.0</ele><time>2026-05-02T10:50:18.983Z</time></trkpt><trkpt lat="43.7770015" lon="6.2331537"><ele>646.0</ele><time>2026-05-02T10:50:19.982Z</time></trkpt><trkpt lat="43.7770584" lon="6.2332428"><ele>645.8333333333334</ele><time>2026-05-02T10:50:20.982Z</time></trkpt><trkpt lat="43.7771192" lon="6.2333252"><ele>645.6666666666667</ele><time>2026-05-02T10:50:21.983Z</time></trkpt><trkpt lat="43.7771755" lon="6.2334077"><ele>645.5</ele><time>2026-05-02T10:50:22.983Z</time></trkpt><trkpt lat="43.7772897" lon="6.2334079"><ele>645.3333333333334</ele><time>2026-05-02T10:50:24.983Z</time></trkpt><trkpt lat="43.7773661" lon="6.233387"><ele>645.1666666666666</ele><time>2026-05-02T10:50:25.982Z</time></trkpt><trkpt lat="43.7774421" lon="6.2333441"><ele>645.0</ele><time>2026-05-02T10:50:26.983Z</time></trkpt><trkpt lat="43.7775144" lon="6.2331293"><ele>643.6</ele><time>2026-05-02T10:50:28.983Z</time></trkpt><trkpt lat="43.777557" lon="6.2330378"><ele>642.2</ele><time>2026-05-02T10:50:29.983Z</time></trkpt><trkpt lat="43.7775821" lon="6.2329423"><ele>640.8</ele><time>2026-05-02T10:50:30.983Z</time></trkpt><trkpt lat="43.7775849" lon="6.2328154"><ele>639.4</ele><time>2026-05-02T10:50:31.982Z</time></trkpt><trkpt lat="43.7776183" lon="6.2327089"><ele>638.0</ele><time>2026-05-02T10:50:32.982Z</time></trkpt><trkpt lat="43.7777158" lon="6.2325757"><ele>637.0</ele><time>2026-05-02T10:50:34.983Z</time></trkpt><trkpt lat="43.777871" lon="6.232554"><ele>636.0</ele><time>2026-05-02T10:50:36.983Z</time></trkpt><trkpt lat="43.7779499" lon="6.2325539"><ele>635.0</ele><time>2026-05-02T10:50:37.982Z</time></trkpt><trkpt lat="43.7780243" lon="6.2325559"><ele>634.0</ele><time>2026-05-02T10:50:38.983Z</time></trkpt><trkpt lat="43.7781047" lon="6.2325614"><ele>633.0</ele><time>2026-05-02T10:50:39.983Z</time></trkpt><trkpt lat="43.7781998" lon="6.2325583"><ele>633.0</ele><time>2026-05-02T10:50:40.983Z</time></trkpt><trkpt lat="43.7782735" lon="6.2325723"><ele>633.0</ele><time>2026-05-02T10:50:41.983Z</time></trkpt><trkpt lat="43.7783642" lon="6.2325699"><ele>633.0</ele><time>2026-05-02T10:50:42.982Z</time></trkpt><trkpt lat="43.778446" lon="6.2325728"><ele>633.0</ele><time>2026-05-02T10:50:43.983Z</time></trkpt><trkpt lat="43.7785307" lon="6.2325773"><ele>633.0</ele><time>2026-05-02T10:50:44.983Z</time></trkpt><trkpt lat="43.7786105" lon="6.2325786"><ele>633.0</ele><time>2026-05-02T10:50:45.983Z</time></trkpt><trkpt lat="43.7786908" lon="6.2325804"><ele>631.6666666666666</ele><time>2026-05-02T10:50:46.983Z</time></trkpt><trkpt lat="43.7787643" lon="6.2325845"><ele>630.3333333333334</ele><time>2026-05-02T10:50:47.983Z</time></trkpt><trkpt lat="43.7787926" lon="6.2326917"><ele>629.0</ele><time>2026-05-02T10:50:48.983Z</time></trkpt><trkpt lat="43.7788292" lon="6.2327798"><ele>627.6666666666667</ele><time>2026-05-02T10:50:49.982Z</time></trkpt><trkpt lat="43.778832" lon="6.2328877"><ele>626.3333333333334</ele><time>2026-05-02T10:50:50.983Z</time></trkpt><trkpt lat="43.7788516" lon="6.2330043"><ele>625.0</ele><time>2026-05-02T10:50:51.983Z</time></trkpt><trkpt lat="43.7788817" lon="6.2331273"><ele>625.7142857142858</ele><time>2026-05-02T10:50:52.983Z</time></trkpt><trkpt lat="43.7789101" lon="6.2332061"><ele>626.4285714285714</ele><time>2026-05-02T10:50:53.982Z</time></trkpt><trkpt lat="43.7789618" lon="6.2332638"><ele>627.1428571428571</ele><time>2026-05-02T10:50:54.983Z</time></trkpt><trkpt lat="43.7790187" lon="6.2333084"><ele>627.8571428571429</ele><time>2026-05-02T10:50:55.983Z</time></trkpt><trkpt lat="43.7790879" lon="6.2333227"><ele>628.5714285714286</ele><time>2026-05-02T10:50:56.983Z</time></trkpt><trkpt lat="43.779156" lon="6.2333198"><ele>629.2857142857143</ele><time>2026-05-02T10:50:57.983Z</time></trkpt><trkpt lat="43.7792181" lon="6.2332892"><ele>630.0</ele><time>2026-05-02T10:50:58.983Z</time></trkpt><trkpt lat="43.7792817" lon="6.2332462"><ele>630.0</ele><time>2026-05-02T10:50:59.982Z</time></trkpt><trkpt lat="43.7793404" lon="6.2331717"><ele>630.0</ele><time>2026-05-02T10:51:00.983Z</time></trkpt><trkpt lat="43.7793941" lon="6.2331053"><ele>630.0</ele><time>2026-05-02T10:51:01.983Z</time></trkpt><trkpt lat="43.779468" lon="6.2329319"><ele>630.0</ele><time>2026-05-02T10:51:02.983Z</time></trkpt><trkpt lat="43.779537" lon="6.2327891"><ele>630.0</ele><time>2026-05-02T10:51:03.983Z</time></trkpt><trkpt lat="43.7795964" lon="6.2326778"><ele>628.8</ele><time>2026-05-02T10:51:04.983Z</time></trkpt><trkpt lat="43.7796561" lon="6.2325502"><ele>627.6</ele><time>2026-05-02T10:51:05.983Z</time></trkpt><trkpt lat="43.7797443" lon="6.2324749"><ele>626.4</ele><time>2026-05-02T10:51:06.983Z</time></trkpt><trkpt lat="43.7798224" lon="6.2324068"><ele>625.2</ele><time>2026-05-02T10:51:07.983Z</time></trkpt><trkpt lat="43.7799273" lon="6.2323853"><ele>624.0</ele><time>2026-05-02T10:51:08.983Z</time></trkpt><trkpt lat="43.7799926" lon="6.2324482"><ele>624.0</ele><time>2026-05-02T10:51:09.983Z</time></trkpt><trkpt lat="43.7800724" lon="6.2324903"><ele>624.0</ele><time>2026-05-02T10:51:10.982Z</time></trkpt><trkpt lat="43.7801344" lon="6.2325097"><ele>624.0</ele><time>2026-05-02T10:51:11.983Z</time></trkpt><trkpt lat="43.7802529" lon="6.232512"><ele>624.0</ele><time>2026-05-02T10:51:13.983Z</time></trkpt><trkpt lat="43.7803443" lon="6.2324114"><ele>624.0</ele><time>2026-05-02T10:51:15.982Z</time></trkpt><trkpt lat="43.7803908" lon="6.2323498"><ele>624.0</ele><time>2026-05-02T10:51:16.983Z</time></trkpt><trkpt lat="43.7804287" lon="6.2322496"><ele>622.0</ele><time>2026-05-02T10:51:17.983Z</time></trkpt><trkpt lat="43.7804642" lon="6.2321645"><ele>620.0</ele><time>2026-05-02T10:51:18.982Z</time></trkpt><trkpt lat="43.7805029" lon="6.2320916"><ele>618.0</ele><time>2026-05-02T10:51:19.983Z</time></trkpt><trkpt lat="43.7805555" lon="6.2320288"><ele>616.0</ele><time>2026-05-02T10:51:20.983Z</time></trkpt><trkpt lat="43.7806209" lon="6.2319897"><ele>614.0</ele><time>2026-05-02T10:51:21.983Z</time></trkpt><trkpt lat="43.7807503" lon="6.2320174"><ele>612.0</ele><time>2026-05-02T10:51:23.983Z</time></trkpt><trkpt lat="43.7808018" lon="6.2320735"><ele>612.0</ele><time>2026-05-02T10:51:24.983Z</time></trkpt><trkpt lat="43.7808465" lon="6.2321427"><ele>612.0</ele><time>2026-05-02T10:51:25.983Z</time></trkpt><trkpt lat="43.7808771" lon="6.2322336"><ele>612.0</ele><time>2026-05-02T10:51:26.983Z</time></trkpt><trkpt lat="43.7809001" lon="6.2323311"><ele>612.0</ele><time>2026-05-02T10:51:27.983Z</time></trkpt><trkpt lat="43.780919" lon="6.2324419"><ele>612.0</ele><time>2026-05-02T10:51:28.983Z</time></trkpt><trkpt lat="43.7809371" lon="6.2325514"><ele>612.0</ele><time>2026-05-02T10:51:29.983Z</time></trkpt><trkpt lat="43.7809603" lon="6.2326516"><ele>611.8333333333334</ele><time>2026-05-02T10:51:30.982Z</time></trkpt><trkpt lat="43.7810056" lon="6.2327388"><ele>611.6666666666666</ele><time>2026-05-02T10:51:31.983Z</time></trkpt><trkpt lat="43.7810467" lon="6.2328065"><ele>611.5</ele><time>2026-05-02T10:51:32.983Z</time></trkpt><trkpt lat="43.7811652" lon="6.2328882"><ele>611.3333333333333</ele><time>2026-05-02T10:51:34.983Z</time></trkpt><trkpt lat="43.7812294" lon="6.2329054"><ele>611.1666666666666</ele><time>2026-05-02T10:51:35.983Z</time></trkpt><trkpt lat="43.7812924" lon="6.2329033"><ele>611.0</ele><time>2026-05-02T10:51:36.982Z</time></trkpt><trkpt lat="43.7813818" lon="6.2328305"><ele>611.0000000000001</ele><time>2026-05-02T10:51:38.983Z</time></trkpt><trkpt lat="43.7814167" lon="6.2327549"><ele>611.0</ele><time>2026-05-02T10:51:39.982Z</time></trkpt><trkpt lat="43.7814269" lon="6.2326598"><ele>611.0</ele><time>2026-05-02T10:51:40.983Z</time></trkpt><trkpt lat="43.7814433" lon="6.2325704"><ele>611.0</ele><time>2026-05-02T10:51:41.982Z</time></trkpt><trkpt lat="43.7814158" lon="6.2324767"><ele>611.0</ele><time>2026-05-02T10:51:42.983Z</time></trkpt><trkpt lat="43.7813987" lon="6.2323848"><ele>611.0000000000001</ele><time>2026-05-02T10:51:43.983Z</time></trkpt><trkpt lat="43.7813744" lon="6.2322995"><ele>611.0</ele><time>2026-05-02T10:51:44.983Z</time></trkpt><trkpt lat="43.7813471" lon="6.2322067"><ele>609.7142857142858</ele><time>2026-05-02T10:51:45.982Z</time></trkpt><trkpt lat="43.7813027" lon="6.2321113"><ele>608.4285714285714</ele><time>2026-05-02T10:51:46.982Z</time></trkpt><trkpt lat="43.7812533" lon="6.2320383"><ele>607.1428571428571</ele><time>2026-05-02T10:51:47.983Z</time></trkpt><trkpt lat="43.7812049" lon="6.231971"><ele>605.8571428571429</ele><time>2026-05-02T10:51:48.982Z</time></trkpt><trkpt lat="43.7811642" lon="6.2319011"><ele>604.5714285714286</ele><time>2026-05-02T10:51:49.983Z</time></trkpt><trkpt lat="43.7811311" lon="6.2318245"><ele>603.2857142857143</ele><time>2026-05-02T10:51:50.983Z</time></trkpt><trkpt lat="43.781101" lon="6.2317453"><ele>602.0</ele><time>2026-05-02T10:51:51.983Z</time></trkpt><trkpt lat="43.7810386" lon="6.2316721"><ele>603.0</ele><time>2026-05-02T10:51:52.983Z</time></trkpt><trkpt lat="43.7809471" lon="6.2315931"><ele>604.0</ele><time>2026-05-02T10:51:54.982Z</time></trkpt><trkpt lat="43.7808799" lon="6.2315582"><ele>605.0</ele><time>2026-05-02T10:51:55.983Z</time></trkpt><trkpt lat="43.7808058" lon="6.2315413"><ele>606.0</ele><time>2026-05-02T10:51:56.983Z</time></trkpt><trkpt lat="43.7807258" lon="6.2315205"><ele>607.0</ele><time>2026-05-02T10:51:57.983Z</time></trkpt><trkpt lat="43.7806441" lon="6.2314909"><ele>608.0</ele><time>2026-05-02T10:51:58.983Z</time></trkpt><trkpt lat="43.7805531" lon="6.2313928"><ele>608.0</ele><time>2026-05-02T10:52:00.983Z</time></trkpt><trkpt lat="43.780499" lon="6.2313244"><ele>608.0</ele><time>2026-05-02T10:52:01.983Z</time></trkpt><trkpt lat="43.7804992" lon="6.2312356"><ele>608.0</ele><time>2026-05-02T10:52:02.982Z</time></trkpt><trkpt lat="43.7804959" lon="6.2311475"><ele>608.0</ele><time>2026-05-02T10:52:03.983Z</time></trkpt><trkpt lat="43.7806082" lon="6.2310221"><ele>608.0</ele><time>2026-05-02T10:52:05.983Z</time></trkpt><trkpt lat="43.7806696" lon="6.2309709"><ele>608.0</ele><time>2026-05-02T10:52:06.983Z</time></trkpt><trkpt lat="43.7807438" lon="6.2309067"><ele>608.0</ele><time>2026-05-02T10:52:07.983Z</time></trkpt><trkpt lat="43.7808165" lon="6.230831"><ele>608.0</ele><time>2026-05-02T10:52:08.983Z</time></trkpt><trkpt lat="43.7809034" lon="6.2307698"><ele>608.0</ele><time>2026-05-02T10:52:09.983Z</time></trkpt><trkpt lat="43.7809816" lon="6.2306838"><ele>608.0</ele><time>2026-05-02T10:52:10.983Z</time></trkpt><trkpt lat="43.7810619" lon="6.230586"><ele>608.0</ele><time>2026-05-02T10:52:11.983Z</time></trkpt><trkpt lat="43.7811316" lon="6.2304529"><ele>605.6</ele><time>2026-05-02T10:52:12.983Z</time></trkpt><trkpt lat="43.7812037" lon="6.2303298"><ele>603.1999999999999</ele><time>2026-05-02T10:52:13.982Z</time></trkpt><trkpt lat="43.7812688" lon="6.2302294"><ele>600.8</ele><time>2026-05-02T10:52:14.983Z</time></trkpt><trkpt lat="43.7813461" lon="6.2301268"><ele>598.4</ele><time>2026-05-02T10:52:15.983Z</time></trkpt><trkpt lat="43.7814268" lon="6.2300443"><ele>596.0</ele><time>2026-05-02T10:52:16.983Z</time></trkpt><trkpt lat="43.7814935" lon="6.2299426"><ele>596.0</ele><time>2026-05-02T10:52:17.983Z</time></trkpt><trkpt lat="43.7815651" lon="6.2298475"><ele>596.0</ele><time>2026-05-02T10:52:18.982Z</time></trkpt><trkpt lat="43.7816244" lon="6.2297572"><ele>596.0</ele><time>2026-05-02T10:52:19.982Z</time></trkpt><trkpt lat="43.7816939" lon="6.2296573"><ele>596.0</ele><time>2026-05-02T10:52:20.983Z</time></trkpt><trkpt lat="43.7817398" lon="6.2295848"><ele>596.0</ele><time>2026-05-02T10:52:21.983Z</time></trkpt><trkpt lat="43.7817936" lon="6.2294422"><ele>596.0</ele><time>2026-05-02T10:52:23.982Z</time></trkpt><trkpt lat="43.7817832" lon="6.2292742"><ele>596.0</ele><time>2026-05-02T10:52:25.982Z</time></trkpt><trkpt lat="43.7817314" lon="6.2292188"><ele>596.0</ele><time>2026-05-02T10:52:26.983Z</time></trkpt><trkpt lat="43.7816741" lon="6.2291794"><ele>596.0</ele><time>2026-05-02T10:52:27.982Z</time></trkpt><trkpt lat="43.7815853" lon="6.2291813"><ele>596.0</ele><time>2026-05-02T10:52:28.983Z</time></trkpt><trkpt lat="43.7814596" lon="6.2292426"><ele>596.0</ele><time>2026-05-02T10:52:29.983Z</time></trkpt><trkpt lat="43.7813745" lon="6.2292673"><ele>596.0</ele><time>2026-05-02T10:52:30.983Z</time></trkpt><trkpt lat="43.7812783" lon="6.2292844"><ele>596.0</ele><time>2026-05-02T10:52:31.982Z</time></trkpt><trkpt lat="43.7811824" lon="6.2292847"><ele>596.0</ele><time>2026-05-02T10:52:32.982Z</time></trkpt><trkpt lat="43.7810707" lon="6.2292635"><ele>596.0</ele><time>2026-05-02T10:52:33.983Z</time></trkpt><trkpt lat="43.7809674" lon="6.2292148"><ele>596.2</ele><time>2026-05-02T10:52:34.983Z</time></trkpt><trkpt lat="43.7808712" lon="6.229161"><ele>596.4000000000001</ele><time>2026-05-02T10:52:35.983Z</time></trkpt><trkpt lat="43.7807792" lon="6.2291107"><ele>596.6</ele><time>2026-05-02T10:52:36.983Z</time></trkpt><trkpt lat="43.7806787" lon="6.229072"><ele>596.8000000000001</ele><time>2026-05-02T10:52:37.983Z</time></trkpt><trkpt lat="43.7805633" lon="6.2290659"><ele>597.0</ele><time>2026-05-02T10:52:38.983Z</time></trkpt><trkpt lat="43.7804591" lon="6.2290507"><ele>597.0</ele><time>2026-05-02T10:52:39.983Z</time></trkpt><trkpt lat="43.7803537" lon="6.22906"><ele>597.0</ele><time>2026-05-02T10:52:40.983Z</time></trkpt><trkpt lat="43.7802496" lon="6.2290752"><ele>597.0</ele><time>2026-05-02T10:52:41.983Z</time></trkpt><trkpt lat="43.780141" lon="6.229055"><ele>597.0</ele><time>2026-05-02T10:52:42.983Z</time></trkpt><trkpt lat="43.7800318" lon="6.2290486"><ele>597.0</ele><time>2026-05-02T10:52:43.983Z</time></trkpt><trkpt lat="43.7799136" lon="6.2290567"><ele>597.2</ele><time>2026-05-02T10:52:44.983Z</time></trkpt><trkpt lat="43.7798104" lon="6.2290312"><ele>597.4000000000001</ele><time>2026-05-02T10:52:45.983Z</time></trkpt><trkpt lat="43.7797092" lon="6.2289955"><ele>597.5999999999999</ele><time>2026-05-02T10:52:46.982Z</time></trkpt><trkpt lat="43.7796213" lon="6.2289452"><ele>597.8</ele><time>2026-05-02T10:52:47.983Z</time></trkpt><trkpt lat="43.7795302" lon="6.2288929"><ele>598.0</ele><time>2026-05-02T10:52:48.983Z</time></trkpt><trkpt lat="43.7794504" lon="6.228823"><ele>597.6</ele><time>2026-05-02T10:52:49.983Z</time></trkpt><trkpt lat="43.779368" lon="6.2287324"><ele>597.1999999999999</ele><time>2026-05-02T10:52:50.983Z</time></trkpt><trkpt lat="43.779297" lon="6.2286276"><ele>596.8</ele><time>2026-05-02T10:52:51.983Z</time></trkpt><trkpt lat="43.7792558" lon="6.2284949"><ele>596.4</ele><time>2026-05-02T10:52:52.982Z</time></trkpt><trkpt lat="43.7792624" lon="6.2283733"><ele>596.0</ele><time>2026-05-02T10:52:53.983Z</time></trkpt><trkpt lat="43.7792465" lon="6.2281999"><ele>593.4</ele><time>2026-05-02T10:52:54.983Z</time></trkpt><trkpt lat="43.779218" lon="6.2280455"><ele>590.8</ele><time>2026-05-02T10:52:55.983Z</time></trkpt><trkpt lat="43.7791614" lon="6.2279319"><ele>588.1999999999999</ele><time>2026-05-02T10:52:56.982Z</time></trkpt><trkpt lat="43.7790972" lon="6.2278412"><ele>585.6</ele><time>2026-05-02T10:52:57.983Z</time></trkpt><trkpt lat="43.7790261" lon="6.2277525"><ele>583.0</ele><time>2026-05-02T10:52:58.982Z</time></trkpt><trkpt lat="43.778962" lon="6.2276737"><ele>583.0</ele><time>2026-05-02T10:52:59.983Z</time></trkpt><trkpt lat="43.7788868" lon="6.2275845"><ele>583.0</ele><time>2026-05-02T10:53:00.983Z</time></trkpt><trkpt lat="43.7788273" lon="6.2274901"><ele>583.0</ele><time>2026-05-02T10:53:01.983Z</time></trkpt><trkpt lat="43.7787878" lon="6.2273873"><ele>583.0</ele><time>2026-05-02T10:53:02.982Z</time></trkpt><trkpt lat="43.7787434" lon="6.227279"><ele>583.0</ele><time>2026-05-02T10:53:03.983Z</time></trkpt><trkpt lat="43.7787605" lon="6.2271816"><ele>583.0</ele><time>2026-05-02T10:53:04.983Z</time></trkpt><trkpt lat="43.7787775" lon="6.2270732"><ele>581.6666666666667</ele><time>2026-05-02T10:53:05.982Z</time></trkpt><trkpt lat="43.7787918" lon="6.2269787"><ele>580.3333333333334</ele><time>2026-05-02T10:53:06.983Z</time></trkpt><trkpt lat="43.7788009" lon="6.2268771"><ele>579.0</ele><time>2026-05-02T10:53:07.983Z</time></trkpt><trkpt lat="43.77881" lon="6.2267603"><ele>577.6666666666666</ele><time>2026-05-02T10:53:08.983Z</time></trkpt><trkpt lat="43.7788065" lon="6.2266437"><ele>576.3333333333333</ele><time>2026-05-02T10:53:10.983Z</time></trkpt><trkpt lat="43.778778" lon="6.2265465"><ele>575.0</ele><time>2026-05-02T10:53:13.983Z</time></trkpt><trkpt lat="43.7787369" lon="6.2264381"><ele>575.0</ele><time>2026-05-02T10:53:17.982Z</time></trkpt><trkpt lat="43.7787061" lon="6.2263138"><ele>575.0</ele><time>2026-05-02T10:53:19.983Z</time></trkpt><trkpt lat="43.7786663" lon="6.2261515"><ele>575.0</ele><time>2026-05-02T10:53:21.983Z</time></trkpt><trkpt lat="43.7786442" lon="6.2260091"><ele>575.0</ele><time>2026-05-02T10:53:23.983Z</time></trkpt><trkpt lat="43.7786316" lon="6.2259216"><ele>575.0</ele><time>2026-05-02T10:53:24.982Z</time></trkpt><trkpt lat="43.7786216" lon="6.225779"><ele>575.0</ele><time>2026-05-02T10:53:26.982Z</time></trkpt><trkpt lat="43.7786115" lon="6.2256459"><ele>575.0</ele><time>2026-05-02T10:53:28.983Z</time></trkpt><trkpt lat="43.7786116" lon="6.2254903"><ele>575.0</ele><time>2026-05-02T10:53:30.983Z</time></trkpt><trkpt lat="43.7786167" lon="6.2253489"><ele>575.0</ele><time>2026-05-02T10:53:32.983Z</time></trkpt><trkpt lat="43.778612" lon="6.2252588"><ele>575.0</ele><time>2026-05-02T10:53:33.983Z</time></trkpt><trkpt lat="43.7785922" lon="6.2251729"><ele>575.0</ele><time>2026-05-02T10:53:34.983Z</time></trkpt><trkpt lat="43.7785591" lon="6.2250754"><ele>576.0</ele><time>2026-05-02T10:53:35.983Z</time></trkpt><trkpt lat="43.7785216" lon="6.2249664"><ele>577.0</ele><time>2026-05-02T10:53:36.983Z</time></trkpt><trkpt lat="43.7784546" lon="6.2248769"><ele>578.0</ele><time>2026-05-02T10:53:37.983Z</time></trkpt><trkpt lat="43.7783756" lon="6.224826"><ele>579.0</ele><time>2026-05-02T10:53:38.983Z</time></trkpt><trkpt lat="43.778315" lon="6.2247606"><ele>580.0</ele><time>2026-05-02T10:53:39.983Z</time></trkpt><trkpt lat="43.778234" lon="6.2247098"><ele>581.0</ele><time>2026-05-02T10:53:40.983Z</time></trkpt><trkpt lat="43.7781858" lon="6.2246077"><ele>581.8</ele><time>2026-05-02T10:53:41.983Z</time></trkpt><trkpt lat="43.7781053" lon="6.2245439"><ele>582.6</ele><time>2026-05-02T10:53:42.983Z</time></trkpt><trkpt lat="43.7780218" lon="6.2244934"><ele>583.4</ele><time>2026-05-02T10:53:43.983Z</time></trkpt><trkpt lat="43.7779626" lon="6.2244356"><ele>584.2</ele><time>2026-05-02T10:53:44.983Z</time></trkpt><trkpt lat="43.7779013" lon="6.2243423"><ele>585.0</ele><time>2026-05-02T10:53:45.982Z</time></trkpt><trkpt lat="43.7778177" lon="6.2242132"><ele>585.0</ele><time>2026-05-02T10:53:47.982Z</time></trkpt><trkpt lat="43.777728" lon="6.2240686"><ele>585.0</ele><time>2026-05-02T10:53:49.982Z</time></trkpt><trkpt lat="43.7777005" lon="6.2239758"><ele>585.0</ele><time>2026-05-02T10:53:50.983Z</time></trkpt><trkpt lat="43.7776667" lon="6.223847"><ele>585.0</ele><time>2026-05-02T10:53:51.982Z</time></trkpt><trkpt lat="43.7776451" lon="6.2237514"><ele>585.0</ele><time>2026-05-02T10:53:52.982Z</time></trkpt><trkpt lat="43.7776028" lon="6.2236308"><ele>582.3333333333334</ele><time>2026-05-02T10:53:53.983Z</time></trkpt><trkpt lat="43.7775686" lon="6.2235308"><ele>579.6666666666666</ele><time>2026-05-02T10:53:54.983Z</time></trkpt><trkpt lat="43.7775395" lon="6.2234197"><ele>577.0</ele><time>2026-05-02T10:53:55.983Z</time></trkpt><trkpt lat="43.7774992" lon="6.2233039"><ele>574.3333333333333</ele><time>2026-05-02T10:53:56.982Z</time></trkpt><trkpt lat="43.7774677" lon="6.2232001"><ele>571.6666666666666</ele><time>2026-05-02T10:53:57.983Z</time></trkpt><trkpt lat="43.777436" lon="6.2231023"><ele>569.0</ele><time>2026-05-02T10:53:58.982Z</time></trkpt><trkpt lat="43.7774073" lon="6.2230005"><ele>568.8</ele><time>2026-05-02T10:53:59.982Z</time></trkpt><trkpt lat="43.7773469" lon="6.2228341"><ele>568.5999999999999</ele><time>2026-05-02T10:54:01.983Z</time></trkpt><trkpt lat="43.7773194" lon="6.2227229"><ele>568.4</ele><time>2026-05-02T10:54:02.983Z</time></trkpt><trkpt lat="43.7772777" lon="6.2226344"><ele>568.1999999999999</ele><time>2026-05-02T10:54:03.983Z</time></trkpt><trkpt lat="43.777213" lon="6.222518"><ele>568.0</ele><time>2026-05-02T10:54:04.982Z</time></trkpt><trkpt lat="43.7771481" lon="6.2224131"><ele>568.0</ele><time>2026-05-02T10:54:05.982Z</time></trkpt><trkpt lat="43.7771036" lon="6.2223243"><ele>568.0</ele><time>2026-05-02T10:54:06.983Z</time></trkpt><trkpt lat="43.7770472" lon="6.2222344"><ele>568.0</ele><time>2026-05-02T10:54:07.983Z</time></trkpt><trkpt lat="43.7769744" lon="6.2221681"><ele>568.0</ele><time>2026-05-02T10:54:08.983Z</time></trkpt><trkpt lat="43.7769029" lon="6.2220886"><ele>568.0</ele><time>2026-05-02T10:54:09.983Z</time></trkpt><trkpt lat="43.7768231" lon="6.2220166"><ele>568.0</ele><time>2026-05-02T10:54:10.983Z</time></trkpt><trkpt lat="43.7767618" lon="6.2219448"><ele>565.8333333333334</ele><time>2026-05-02T10:54:11.982Z</time></trkpt><trkpt lat="43.7766911" lon="6.2218912"><ele>563.6666666666667</ele><time>2026-05-02T10:54:12.983Z</time></trkpt><trkpt lat="43.7766474" lon="6.2217983"><ele>561.5</ele><time>2026-05-02T10:54:13.983Z</time></trkpt><trkpt lat="43.7765979" lon="6.2217034"><ele>559.3333333333334</ele><time>2026-05-02T10:54:14.983Z</time></trkpt><trkpt lat="43.7765462" lon="6.2216103"><ele>557.1666666666666</ele><time>2026-05-02T10:54:15.983Z</time></trkpt><trkpt lat="43.7765105" lon="6.2215009"><ele>555.0</ele><time>2026-05-02T10:54:16.983Z</time></trkpt><trkpt lat="43.7765082" lon="6.2213992"><ele>554.2</ele><time>2026-05-02T10:54:17.983Z</time></trkpt><trkpt lat="43.7765191" lon="6.2212771"><ele>553.4</ele><time>2026-05-02T10:54:18.983Z</time></trkpt><trkpt lat="43.7765873" lon="6.2212001"><ele>552.6</ele><time>2026-05-02T10:54:19.983Z</time></trkpt><trkpt lat="43.7766336" lon="6.2211088"><ele>551.8</ele><time>2026-05-02T10:54:20.982Z</time></trkpt><trkpt lat="43.7766998" lon="6.2210019"><ele>551.0</ele><time>2026-05-02T10:54:21.983Z</time></trkpt><trkpt lat="43.7767887" lon="6.2209086"><ele>550.6</ele><time>2026-05-02T10:54:22.983Z</time></trkpt><trkpt lat="43.7768751" lon="6.220811"><ele>550.2</ele><time>2026-05-02T10:54:23.982Z</time></trkpt><trkpt lat="43.776942" lon="6.2207156"><ele>549.8</ele><time>2026-05-02T10:54:24.983Z</time></trkpt><trkpt lat="43.7770308" lon="6.2206173"><ele>549.4</ele><time>2026-05-02T10:54:25.982Z</time></trkpt><trkpt lat="43.7771014" lon="6.2205203"><ele>549.0</ele><time>2026-05-02T10:54:26.982Z</time></trkpt><trkpt lat="43.7771648" lon="6.2204124"><ele>549.0</ele><time>2026-05-02T10:54:27.983Z</time></trkpt><trkpt lat="43.7772234" lon="6.2202998"><ele>549.0</ele><time>2026-05-02T10:54:28.983Z</time></trkpt><trkpt lat="43.7772636" lon="6.2201841"><ele>549.0</ele><time>2026-05-02T10:54:29.983Z</time></trkpt><trkpt lat="43.7773088" lon="6.2200573"><ele>549.0</ele><time>2026-05-02T10:54:30.982Z</time></trkpt><trkpt lat="43.7773643" lon="6.2199087"><ele>549.0</ele><time>2026-05-02T10:54:31.983Z</time></trkpt><trkpt lat="43.7774195" lon="6.2197877"><ele>549.0</ele><time>2026-05-02T10:54:32.983Z</time></trkpt><trkpt lat="43.7774707" lon="6.2196569"><ele>549.0</ele><time>2026-05-02T10:54:33.982Z</time></trkpt><trkpt lat="43.7775274" lon="6.2195401"><ele>549.0</ele><time>2026-05-02T10:54:34.982Z</time></trkpt><trkpt lat="43.7775776" lon="6.2194001"><ele>549.0</ele><time>2026-05-02T10:54:35.983Z</time></trkpt><trkpt lat="43.7776358" lon="6.2192785"><ele>549.0</ele><time>2026-05-02T10:54:36.983Z</time></trkpt><trkpt lat="43.7777107" lon="6.2191689"><ele>549.0</ele><time>2026-05-02T10:54:37.983Z</time></trkpt><trkpt lat="43.777792" lon="6.2190649"><ele>549.0</ele><time>2026-05-02T10:54:38.983Z</time></trkpt><trkpt lat="43.7778589" lon="6.2189483"><ele>549.0</ele><time>2026-05-02T10:54:39.983Z</time></trkpt><trkpt lat="43.7779343" lon="6.2188562"><ele>549.0</ele><time>2026-05-02T10:54:40.983Z</time></trkpt><trkpt lat="43.7780109" lon="6.2187515"><ele>549.0</ele><time>2026-05-02T10:54:41.983Z</time></trkpt><trkpt lat="43.7780803" lon="6.2186619"><ele>546.8</ele><time>2026-05-02T10:54:42.983Z</time></trkpt><trkpt lat="43.7781444" lon="6.2185436"><ele>544.5999999999999</ele><time>2026-05-02T10:54:43.983Z</time></trkpt><trkpt lat="43.7782004" lon="6.2184237"><ele>542.4</ele><time>2026-05-02T10:54:44.983Z</time></trkpt><trkpt lat="43.7782752" lon="6.2183182"><ele>540.1999999999999</ele><time>2026-05-02T10:54:45.982Z</time></trkpt><trkpt lat="43.7783451" lon="6.2182422"><ele>538.0</ele><time>2026-05-02T10:54:46.983Z</time></trkpt><trkpt lat="43.7784192" lon="6.2181861"><ele>538.5</ele><time>2026-05-02T10:54:47.983Z</time></trkpt><trkpt lat="43.7785394" lon="6.2182063"><ele>539.0</ele><time>2026-05-02T10:54:48.983Z</time></trkpt><trkpt lat="43.7786257" lon="6.218209"><ele>539.5</ele><time>2026-05-02T10:54:49.983Z</time></trkpt><trkpt lat="43.7787038" lon="6.2181874"><ele>540.0</ele><time>2026-05-02T10:54:50.982Z</time></trkpt><trkpt lat="43.7787871" lon="6.2181552"><ele>540.5</ele><time>2026-05-02T10:54:51.983Z</time></trkpt><trkpt lat="43.7788425" lon="6.2181042"><ele>541.0</ele><time>2026-05-02T10:54:52.983Z</time></trkpt><trkpt lat="43.778914" lon="6.2180396"><ele>541.0</ele><time>2026-05-02T10:54:53.983Z</time></trkpt><trkpt lat="43.7789915" lon="6.2179131"><ele>541.0</ele><time>2026-05-02T10:54:55.983Z</time></trkpt><trkpt lat="43.7789588" lon="6.2177666"><ele>541.0</ele><time>2026-05-02T10:54:57.983Z</time></trkpt><trkpt lat="43.7788857" lon="6.2176951"><ele>541.0</ele><time>2026-05-02T10:54:59.983Z</time></trkpt><trkpt lat="43.7787595" lon="6.2177415"><ele>541.0</ele><time>2026-05-02T10:55:00.983Z</time></trkpt><trkpt lat="43.7786729" lon="6.2177263"><ele>541.0</ele><time>2026-05-02T10:55:01.983Z</time></trkpt><trkpt lat="43.7786207" lon="6.2177779"><ele>541.0</ele><time>2026-05-02T10:55:02.982Z</time></trkpt><trkpt lat="43.7785368" lon="6.2178444"><ele>541.0</ele><time>2026-05-02T10:55:03.983Z</time></trkpt><trkpt lat="43.7784208" lon="6.2178931"><ele>541.0</ele><time>2026-05-02T10:55:04.983Z</time></trkpt><trkpt lat="43.7783099" lon="6.2179076"><ele>538.4</ele><time>2026-05-02T10:55:05.983Z</time></trkpt><trkpt lat="43.7782058" lon="6.2179499"><ele>535.8</ele><time>2026-05-02T10:55:06.983Z</time></trkpt><trkpt lat="43.7781176" lon="6.2179502"><ele>533.1999999999999</ele><time>2026-05-02T10:55:07.982Z</time></trkpt><trkpt lat="43.7780159" lon="6.2179569"><ele>530.6</ele><time>2026-05-02T10:55:08.982Z</time></trkpt><trkpt lat="43.7779096" lon="6.2179833"><ele>528.0</ele><time>2026-05-02T10:55:09.983Z</time></trkpt><trkpt lat="43.7778077" lon="6.2179909"><ele>528.0</ele><time>2026-05-02T10:55:10.983Z</time></trkpt><trkpt lat="43.7777076" lon="6.2179787"><ele>528.0</ele><time>2026-05-02T10:55:11.983Z</time></trkpt><trkpt lat="43.7775973" lon="6.217967"><ele>528.0</ele><time>2026-05-02T10:55:12.983Z</time></trkpt><trkpt lat="43.7775106" lon="6.2179593"><ele>528.0</ele><time>2026-05-02T10:55:13.983Z</time></trkpt><trkpt lat="43.777417" lon="6.2179685"><ele>528.0</ele><time>2026-05-02T10:55:14.983Z</time></trkpt><trkpt lat="43.7773323" lon="6.2179685"><ele>528.0</ele><time>2026-05-02T10:55:15.983Z</time></trkpt><trkpt lat="43.7772367" lon="6.2180176"><ele>528.0</ele><time>2026-05-02T10:55:16.983Z</time></trkpt><trkpt lat="43.7771864" lon="6.218114"><ele>528.0</ele><time>2026-05-02T10:55:17.983Z</time></trkpt><trkpt lat="43.7771659" lon="6.2182497"><ele>528.0</ele><time>2026-05-02T10:55:18.983Z</time></trkpt><trkpt lat="43.7771418" lon="6.2183681"><ele>528.0</ele><time>2026-05-02T10:55:19.983Z</time></trkpt><trkpt lat="43.7770967" lon="6.2185007"><ele>528.0</ele><time>2026-05-02T10:55:20.983Z</time></trkpt><trkpt lat="43.7770488" lon="6.2186291"><ele>528.0</ele><time>2026-05-02T10:55:21.983Z</time></trkpt><trkpt lat="43.7769782" lon="6.2187274"><ele>528.0</ele><time>2026-05-02T10:55:22.983Z</time></trkpt><trkpt lat="43.776915" lon="6.2188301"><ele>528.0</ele><time>2026-05-02T10:55:23.983Z</time></trkpt><trkpt lat="43.7768427" lon="6.2189143"><ele>528.0</ele><time>2026-05-02T10:55:24.983Z</time></trkpt><trkpt lat="43.776791" lon="6.2189878"><ele>527.1999999999999</ele><time>2026-05-02T10:55:25.983Z</time></trkpt><trkpt lat="43.7766804" lon="6.2190365"><ele>526.4</ele><time>2026-05-02T10:55:26.983Z</time></trkpt><trkpt lat="43.7766067" lon="6.2190705"><ele>525.5999999999999</ele><time>2026-05-02T10:55:27.983Z</time></trkpt><trkpt lat="43.7764841" lon="6.2190926"><ele>524.8</ele><time>2026-05-02T10:55:28.983Z</time></trkpt><trkpt lat="43.776388" lon="6.2191111"><ele>524.0</ele><time>2026-05-02T10:55:29.982Z</time></trkpt><trkpt lat="43.7762772" lon="6.2191341"><ele>524.0</ele><time>2026-05-02T10:55:30.983Z</time></trkpt><trkpt lat="43.7761638" lon="6.2190856"><ele>524.0</ele><time>2026-05-02T10:55:31.983Z</time></trkpt><trkpt lat="43.7760772" lon="6.2190513"><ele>524.0</ele><time>2026-05-02T10:55:32.983Z</time></trkpt><trkpt lat="43.7759982" lon="6.219007"><ele>524.0</ele><time>2026-05-02T10:55:33.983Z</time></trkpt><trkpt lat="43.7759354" lon="6.2189737"><ele>524.0</ele><time>2026-05-02T10:55:34.983Z</time></trkpt><trkpt lat="43.7758749" lon="6.218944"><ele>524.0</ele><time>2026-05-02T10:55:35.983Z</time></trkpt><trkpt lat="43.7758094" lon="6.2189285"><ele>522.6</ele><time>2026-05-02T10:55:36.983Z</time></trkpt><trkpt lat="43.7757249" lon="6.2189632"><ele>521.2</ele><time>2026-05-02T10:55:38.983Z</time></trkpt><trkpt lat="43.7756318" lon="6.2190993"><ele>519.8000000000001</ele><time>2026-05-02T10:55:40.983Z</time></trkpt><trkpt lat="43.7755811" lon="6.2191898"><ele>518.4</ele><time>2026-05-02T10:55:41.983Z</time></trkpt><trkpt lat="43.7755453" lon="6.2192933"><ele>517.0</ele><time>2026-05-02T10:55:42.983Z</time></trkpt><trkpt lat="43.7755038" lon="6.2194015"><ele>517.0</ele><time>2026-05-02T10:55:43.983Z</time></trkpt><trkpt lat="43.7754631" lon="6.2195093"><ele>517.0</ele><time>2026-05-02T10:55:44.983Z</time></trkpt><trkpt lat="43.7754173" lon="6.2195972"><ele>517.0</ele><time>2026-05-02T10:55:45.983Z</time></trkpt><trkpt lat="43.7753653" lon="6.2196907"><ele>517.0</ele><time>2026-05-02T10:55:46.983Z</time></trkpt><trkpt lat="43.7753026" lon="6.219744"><ele>517.0</ele><time>2026-05-02T10:55:47.983Z</time></trkpt><trkpt lat="43.7752262" lon="6.2197979"><ele>517.0</ele><time>2026-05-02T10:55:48.983Z</time></trkpt><trkpt lat="43.7751585" lon="6.2198138"><ele>516.3333333333334</ele><time>2026-05-02T10:55:49.983Z</time></trkpt><trkpt lat="43.7750733" lon="6.2198242"><ele>515.6666666666667</ele><time>2026-05-02T10:55:50.983Z</time></trkpt><trkpt lat="43.7750065" lon="6.2198519"><ele>515.0</ele><time>2026-05-02T10:55:51.983Z</time></trkpt><trkpt lat="43.7749293" lon="6.2198624"><ele>514.3333333333334</ele><time>2026-05-02T10:55:52.983Z</time></trkpt><trkpt lat="43.7748423" lon="6.2198501"><ele>513.6666666666666</ele><time>2026-05-02T10:55:53.983Z</time></trkpt><trkpt lat="43.7747517" lon="6.2198187"><ele>513.0</ele><time>2026-05-02T10:55:54.982Z</time></trkpt><trkpt lat="43.7746566" lon="6.219762"><ele>511.79999999999995</ele><time>2026-05-02T10:55:55.982Z</time></trkpt><trkpt lat="43.7745643" lon="6.2197062"><ele>510.59999999999997</ele><time>2026-05-02T10:55:56.983Z</time></trkpt><trkpt lat="43.7744751" lon="6.2196566"><ele>509.40000000000003</ele><time>2026-05-02T10:55:57.983Z</time></trkpt><trkpt lat="43.7743782" lon="6.2196123"><ele>508.20000000000005</ele><time>2026-05-02T10:55:58.982Z</time></trkpt><trkpt lat="43.7742919" lon="6.2195604"><ele>507.0</ele><time>2026-05-02T10:55:59.982Z</time></trkpt><trkpt lat="43.7742075" lon="6.2195088"><ele>506.20000000000005</ele><time>2026-05-02T10:56:00.983Z</time></trkpt><trkpt lat="43.77414" lon="6.2194609"><ele>505.40000000000003</ele><time>2026-05-02T10:56:01.983Z</time></trkpt><trkpt lat="43.7740478" lon="6.2193215"><ele>504.59999999999997</ele><time>2026-05-02T10:56:03.983Z</time></trkpt><trkpt lat="43.7740133" lon="6.2192471"><ele>503.79999999999995</ele><time>2026-05-02T10:56:04.983Z</time></trkpt><trkpt lat="43.7740051" lon="6.2191112"><ele>503.0</ele><time>2026-05-02T10:56:06.983Z</time></trkpt><trkpt lat="43.773982" lon="6.2189708"><ele>502.8333333333333</ele><time>2026-05-02T10:56:08.982Z</time></trkpt><trkpt lat="43.7739731" lon="6.2188594"><ele>502.66666666666663</ele><time>2026-05-02T10:56:11.983Z</time></trkpt><trkpt lat="43.7739432" lon="6.2187779"><ele>502.5</ele><time>2026-05-02T10:56:13.983Z</time></trkpt><trkpt lat="43.7739214" lon="6.2186744"><ele>502.33333333333337</ele><time>2026-05-02T10:56:15.982Z</time></trkpt><trkpt lat="43.7739646" lon="6.2185452"><ele>502.1666666666667</ele><time>2026-05-02T10:56:17.982Z</time></trkpt><trkpt lat="43.774073" lon="6.2184833"><ele>502.0</ele><time>2026-05-02T10:56:19.982Z</time></trkpt><trkpt lat="43.7741533" lon="6.2184455"><ele>502.0</ele><time>2026-05-02T10:56:20.983Z</time></trkpt><trkpt lat="43.774283" lon="6.218402"><ele>502.00000000000006</ele><time>2026-05-02T10:56:21.983Z</time></trkpt><trkpt lat="43.7743833" lon="6.2183717"><ele>502.00000000000006</ele><time>2026-05-02T10:56:22.982Z</time></trkpt><trkpt lat="43.774474" lon="6.2183412"><ele>502.0</ele><time>2026-05-02T10:56:23.983Z</time></trkpt><trkpt lat="43.7745799" lon="6.2182857"><ele>502.0</ele><time>2026-05-02T10:56:24.982Z</time></trkpt><trkpt lat="43.7746766" lon="6.218228"><ele>502.33333333333337</ele><time>2026-05-02T10:56:25.983Z</time></trkpt><trkpt lat="43.7747466" lon="6.2181742"><ele>502.6666666666667</ele><time>2026-05-02T10:56:26.983Z</time></trkpt><trkpt lat="43.7748128" lon="6.2181029"><ele>503.0</ele><time>2026-05-02T10:56:27.982Z</time></trkpt><trkpt lat="43.7748769" lon="6.2180346"><ele>503.33333333333337</ele><time>2026-05-02T10:56:28.983Z</time></trkpt><trkpt lat="43.7749325" lon="6.2179774"><ele>503.6666666666667</ele><time>2026-05-02T10:56:29.983Z</time></trkpt><trkpt lat="43.7749941" lon="6.2179272"><ele>504.0</ele><time>2026-05-02T10:56:30.982Z</time></trkpt><trkpt lat="43.7750864" lon="6.2178522"><ele>504.2</ele><time>2026-05-02T10:56:32.983Z</time></trkpt><trkpt lat="43.7751427" lon="6.2177391"><ele>504.4</ele><time>2026-05-02T10:56:34.983Z</time></trkpt><trkpt lat="43.7751582" lon="6.2176008"><ele>504.6</ele><time>2026-05-02T10:56:36.983Z</time></trkpt><trkpt lat="43.7751309" lon="6.2174967"><ele>504.8</ele><time>2026-05-02T10:56:37.983Z</time></trkpt><trkpt lat="43.7750972" lon="6.2173351"><ele>505.0</ele><time>2026-05-02T10:56:39.983Z</time></trkpt><trkpt lat="43.7750898" lon="6.2172407"><ele>505.0</ele><time>2026-05-02T10:56:40.983Z</time></trkpt><trkpt lat="43.7751317" lon="6.2170223"><ele>505.0</ele><time>2026-05-02T10:56:41.983Z</time></trkpt><trkpt lat="43.7751726" lon="6.2168987"><ele>505.0</ele><time>2026-05-02T10:56:42.983Z</time></trkpt><trkpt lat="43.7752412" lon="6.216711"><ele>505.0</ele><time>2026-05-02T10:56:43.983Z</time></trkpt><trkpt lat="43.775309" lon="6.2164998"><ele>503.0</ele><time>2026-05-02T10:56:44.983Z</time></trkpt><trkpt lat="43.7753931" lon="6.216291"><ele>501.0</ele><time>2026-05-02T10:56:45.982Z</time></trkpt><trkpt lat="43.7754744" lon="6.2160743"><ele>499.0</ele><time>2026-05-02T10:56:46.983Z</time></trkpt><trkpt lat="43.7755585" lon="6.2158577"><ele>499.0</ele><time>2026-05-02T10:56:47.983Z</time></trkpt><trkpt lat="43.775591" lon="6.2156611"><ele>499.0</ele><time>2026-05-02T10:56:48.983Z</time></trkpt><trkpt lat="43.7756395" lon="6.2154389"><ele>499.0</ele><time>2026-05-02T10:56:49.983Z</time></trkpt><trkpt lat="43.7756991" lon="6.2152421"><ele>500.33333333333337</ele><time>2026-05-02T10:56:50.983Z</time></trkpt><trkpt lat="43.7757451" lon="6.2150399"><ele>501.66666666666663</ele><time>2026-05-02T10:56:51.983Z</time></trkpt><trkpt lat="43.775796" lon="6.2148426"><ele>503.0</ele><time>2026-05-02T10:56:52.983Z</time></trkpt><trkpt lat="43.7758142" lon="6.2146138"><ele>504.66666666666663</ele><time>2026-05-02T10:56:53.983Z</time></trkpt><trkpt lat="43.7758293" lon="6.2144082"><ele>506.33333333333337</ele><time>2026-05-02T10:56:54.982Z</time></trkpt><trkpt lat="43.7758229" lon="6.2141774"><ele>508.0</ele><time>2026-05-02T10:56:55.983Z</time></trkpt><trkpt lat="43.7758615" lon="6.2139786"><ele>509.6666666666667</ele><time>2026-05-02T10:56:56.983Z</time></trkpt><trkpt lat="43.775911" lon="6.2137556"><ele>511.33333333333337</ele><time>2026-05-02T10:56:57.983Z</time></trkpt><trkpt lat="43.7759648" lon="6.2135567"><ele>513.0</ele><time>2026-05-02T10:56:58.983Z</time></trkpt><trkpt lat="43.7760021" lon="6.2133658"><ele>513.0</ele><time>2026-05-02T10:56:59.983Z</time></trkpt><trkpt lat="43.7760204" lon="6.2132118"><ele>513.0</ele><time>2026-05-02T10:57:00.983Z</time></trkpt><trkpt lat="43.7760339" lon="6.2130529"><ele>513.0</ele><time>2026-05-02T10:57:01.983Z</time></trkpt><trkpt lat="43.7760291" lon="6.212886"><ele>513.0</ele><time>2026-05-02T10:57:02.983Z</time></trkpt><trkpt lat="43.7760164" lon="6.2127329"><ele>513.0</ele><time>2026-05-02T10:57:03.983Z</time></trkpt><trkpt lat="43.7759481" lon="6.2126008"><ele>513.0</ele><time>2026-05-02T10:57:04.983Z</time></trkpt><trkpt lat="43.775892" lon="6.2124768"><ele>513.0</ele><time>2026-05-02T10:57:05.983Z</time></trkpt><trkpt lat="43.7757695" lon="6.212383"><ele>513.0</ele><time>2026-05-02T10:57:06.983Z</time></trkpt><trkpt lat="43.7756722" lon="6.2122874"><ele>512.0</ele><time>2026-05-02T10:57:07.983Z</time></trkpt><trkpt lat="43.7755724" lon="6.2122423"><ele>510.99999999999994</ele><time>2026-05-02T10:57:08.982Z</time></trkpt><trkpt lat="43.775484" lon="6.2122066"><ele>509.99999999999994</ele><time>2026-05-02T10:57:09.983Z</time></trkpt><trkpt lat="43.775399" lon="6.2121627"><ele>509.0</ele><time>2026-05-02T10:57:10.983Z</time></trkpt><trkpt lat="43.7753105" lon="6.2121223"><ele>508.0</ele><time>2026-05-02T10:57:11.982Z</time></trkpt><trkpt lat="43.7752375" lon="6.2120964"><ele>509.1666666666667</ele><time>2026-05-02T10:57:12.983Z</time></trkpt><trkpt lat="43.7751638" lon="6.2120555"><ele>510.33333333333337</ele><time>2026-05-02T10:57:13.983Z</time></trkpt><trkpt lat="43.775058" lon="6.2120233"><ele>511.5</ele><time>2026-05-02T10:57:14.983Z</time></trkpt><trkpt lat="43.7749782" lon="6.2119949"><ele>512.6666666666666</ele><time>2026-05-02T10:57:15.983Z</time></trkpt><trkpt lat="43.7748879" lon="6.2119564"><ele>513.8333333333333</ele><time>2026-05-02T10:57:16.983Z</time></trkpt><trkpt lat="43.7748115" lon="6.2119164"><ele>515.0</ele><time>2026-05-02T10:57:17.983Z</time></trkpt><trkpt lat="43.7747452" lon="6.2118522"><ele>515.0</ele><time>2026-05-02T10:57:18.983Z</time></trkpt><trkpt lat="43.7746869" lon="6.2117535"><ele>515.0</ele><time>2026-05-02T10:57:19.983Z</time></trkpt><trkpt lat="43.7746288" lon="6.211658"><ele>515.0</ele><time>2026-05-02T10:57:20.982Z</time></trkpt><trkpt lat="43.7745674" lon="6.2115446"><ele>515.0</ele><time>2026-05-02T10:57:21.983Z</time></trkpt><trkpt lat="43.7745269" lon="6.211444"><ele>515.0</ele><time>2026-05-02T10:57:22.983Z</time></trkpt><trkpt lat="43.7745012" lon="6.2113013"><ele>514.8</ele><time>2026-05-02T10:57:23.983Z</time></trkpt><trkpt lat="43.7744674" lon="6.2111622"><ele>514.6</ele><time>2026-05-02T10:57:24.983Z</time></trkpt><trkpt lat="43.7744348" lon="6.2110358"><ele>514.4</ele><time>2026-05-02T10:57:25.983Z</time></trkpt><trkpt lat="43.7743989" lon="6.2109127"><ele>514.2</ele><time>2026-05-02T10:57:26.983Z</time></trkpt><trkpt lat="43.7743651" lon="6.2107683"><ele>514.0</ele><time>2026-05-02T10:57:27.982Z</time></trkpt><trkpt lat="43.7743249" lon="6.2106624"><ele>514.0</ele><time>2026-05-02T10:57:28.983Z</time></trkpt><trkpt lat="43.7742924" lon="6.2105614"><ele>514.0</ele><time>2026-05-02T10:57:29.983Z</time></trkpt><trkpt lat="43.7742228" lon="6.2104279"><ele>514.0</ele><time>2026-05-02T10:57:30.983Z</time></trkpt><trkpt lat="43.7741664" lon="6.2103318"><ele>514.0</ele><time>2026-05-02T10:57:31.983Z</time></trkpt><trkpt lat="43.7741057" lon="6.2102433"><ele>514.0</ele><time>2026-05-02T10:57:32.983Z</time></trkpt><trkpt lat="43.7740276" lon="6.2101411"><ele>514.0</ele><time>2026-05-02T10:57:33.982Z</time></trkpt><trkpt lat="43.7739455" lon="6.21007"><ele>514.0</ele><time>2026-05-02T10:57:34.983Z</time></trkpt><trkpt lat="43.7738638" lon="6.2099943"><ele>514.0</ele><time>2026-05-02T10:57:35.983Z</time></trkpt><trkpt lat="43.7737947" lon="6.2099349"><ele>514.0</ele><time>2026-05-02T10:57:36.983Z</time></trkpt><trkpt lat="43.7737113" lon="6.2098738"><ele>514.0</ele><time>2026-05-02T10:57:37.983Z</time></trkpt><trkpt lat="43.7736267" lon="6.2098123"><ele>514.0</ele><time>2026-05-02T10:57:38.983Z</time></trkpt><trkpt lat="43.77354" lon="6.2097414"><ele>514.0</ele><time>2026-05-02T10:57:39.983Z</time></trkpt><trkpt lat="43.7734535" lon="6.2096814"><ele>514.0</ele><time>2026-05-02T10:57:40.982Z</time></trkpt><trkpt lat="43.7733746" lon="6.2096146"><ele>514.0</ele><time>2026-05-02T10:57:41.983Z</time></trkpt><trkpt lat="43.7732793" lon="6.2095488"><ele>514.0</ele><time>2026-05-02T10:57:42.983Z</time></trkpt><trkpt lat="43.7731875" lon="6.2094846"><ele>513.2</ele><time>2026-05-02T10:57:43.983Z</time></trkpt><trkpt lat="43.7731004" lon="6.2094229"><ele>512.4</ele><time>2026-05-02T10:57:44.983Z</time></trkpt><trkpt lat="43.7730082" lon="6.2093703"><ele>511.6</ele><time>2026-05-02T10:57:45.983Z</time></trkpt><trkpt lat="43.7729135" lon="6.2093342"><ele>510.8</ele><time>2026-05-02T10:57:46.983Z</time></trkpt><trkpt lat="43.7728071" lon="6.209341"><ele>510.0</ele><time>2026-05-02T10:57:47.983Z</time></trkpt><trkpt lat="43.7727105" lon="6.2093574"><ele>508.8</ele><time>2026-05-02T10:57:48.982Z</time></trkpt><trkpt lat="43.7726244" lon="6.2094329"><ele>507.6</ele><time>2026-05-02T10:57:49.983Z</time></trkpt><trkpt lat="43.7725357" lon="6.2094825"><ele>506.4</ele><time>2026-05-02T10:57:50.983Z</time></trkpt><trkpt lat="43.772449" lon="6.2095817"><ele>505.2</ele><time>2026-05-02T10:57:51.983Z</time></trkpt><trkpt lat="43.7723803" lon="6.2096789"><ele>504.0</ele><time>2026-05-02T10:57:52.982Z</time></trkpt><trkpt lat="43.7722953" lon="6.2097972"><ele>503.75</ele><time>2026-05-02T10:57:53.983Z</time></trkpt><trkpt lat="43.7722189" lon="6.2099368"><ele>503.5</ele><time>2026-05-02T10:57:54.982Z</time></trkpt><trkpt lat="43.7721466" lon="6.2100887"><ele>503.25</ele><time>2026-05-02T10:57:55.982Z</time></trkpt><trkpt lat="43.7720721" lon="6.2102539"><ele>503.0</ele><time>2026-05-02T10:57:56.982Z</time></trkpt><trkpt lat="43.7720085" lon="6.210429"><ele>503.0</ele><time>2026-05-02T10:57:57.983Z</time></trkpt><trkpt lat="43.771958" lon="6.2105842"><ele>503.0</ele><time>2026-05-02T10:57:58.983Z</time></trkpt><trkpt lat="43.771931" lon="6.2107558"><ele>503.0</ele><time>2026-05-02T10:57:59.983Z</time></trkpt><trkpt lat="43.7719062" lon="6.2109269"><ele>503.0</ele><time>2026-05-02T10:58:00.982Z</time></trkpt><trkpt lat="43.7718952" lon="6.2110733"><ele>504.0</ele><time>2026-05-02T10:58:01.983Z</time></trkpt><trkpt lat="43.771879" lon="6.2112365"><ele>505.0</ele><time>2026-05-02T10:58:02.983Z</time></trkpt><trkpt lat="43.7718678" lon="6.2113886"><ele>506.0</ele><time>2026-05-02T10:58:03.983Z</time></trkpt><trkpt lat="43.7718493" lon="6.2115488"><ele>507.0</ele><time>2026-05-02T10:58:04.983Z</time></trkpt><trkpt lat="43.7718344" lon="6.2117132"><ele>504.5</ele><time>2026-05-02T10:58:05.983Z</time></trkpt><trkpt lat="43.7718161" lon="6.2118841"><ele>502.0</ele><time>2026-05-02T10:58:06.983Z</time></trkpt><trkpt lat="43.7717592" lon="6.2120317"><ele>499.5</ele><time>2026-05-02T10:58:07.983Z</time></trkpt><trkpt lat="43.7717154" lon="6.2121866"><ele>497.0</ele><time>2026-05-02T10:58:08.983Z</time></trkpt><trkpt lat="43.7716647" lon="6.2123034"><ele>497.6</ele><time>2026-05-02T10:58:09.983Z</time></trkpt><trkpt lat="43.7716212" lon="6.2123979"><ele>498.20000000000005</ele><time>2026-05-02T10:58:10.983Z</time></trkpt><trkpt lat="43.7715769" lon="6.2124815"><ele>498.8</ele><time>2026-05-02T10:58:11.983Z</time></trkpt><trkpt lat="43.7714374" lon="6.2125131"><ele>499.4</ele><time>2026-05-02T10:58:13.982Z</time></trkpt><trkpt lat="43.7713452" lon="6.2124855"><ele>500.0</ele><time>2026-05-02T10:58:14.983Z</time></trkpt><trkpt lat="43.7712629" lon="6.2124692"><ele>500.0</ele><time>2026-05-02T10:58:15.983Z</time></trkpt><trkpt lat="43.7711991" lon="6.212357"><ele>500.0</ele><time>2026-05-02T10:58:16.983Z</time></trkpt><trkpt lat="43.771174" lon="6.2122582"><ele>500.0</ele><time>2026-05-02T10:58:17.983Z</time></trkpt><trkpt lat="43.7711549" lon="6.2121361"><ele>500.0</ele><time>2026-05-02T10:58:18.983Z</time></trkpt><trkpt lat="43.7711273" lon="6.2119814"><ele>500.0</ele><time>2026-05-02T10:58:19.983Z</time></trkpt><trkpt lat="43.7711242" lon="6.211837"><ele>499.25</ele><time>2026-05-02T10:58:20.983Z</time></trkpt><trkpt lat="43.7711561" lon="6.2116573"><ele>498.5</ele><time>2026-05-02T10:58:21.982Z</time></trkpt><trkpt lat="43.7711665" lon="6.211495"><ele>497.75</ele><time>2026-05-02T10:58:22.983Z</time></trkpt><trkpt lat="43.7711719" lon="6.2113443"><ele>497.0</ele><time>2026-05-02T10:58:23.983Z</time></trkpt><trkpt lat="43.7711772" lon="6.211198"><ele>496.40000000000003</ele><time>2026-05-02T10:58:24.983Z</time></trkpt><trkpt lat="43.7711701" lon="6.2110508"><ele>495.80000000000007</ele><time>2026-05-02T10:58:25.982Z</time></trkpt><trkpt lat="43.7711758" lon="6.2109223"><ele>495.2</ele><time>2026-05-02T10:58:26.983Z</time></trkpt><trkpt lat="43.7711741" lon="6.210796"><ele>494.6</ele><time>2026-05-02T10:58:27.983Z</time></trkpt><trkpt lat="43.7711601" lon="6.2106739"><ele>494.0</ele><time>2026-05-02T10:58:28.983Z</time></trkpt><trkpt lat="43.7711689" lon="6.2105666"><ele>493.2</ele><time>2026-05-02T10:58:29.983Z</time></trkpt><trkpt lat="43.7711602" lon="6.2104486"><ele>492.4</ele><time>2026-05-02T10:58:30.982Z</time></trkpt><trkpt lat="43.7711454" lon="6.2103206"><ele>491.6</ele><time>2026-05-02T10:58:31.983Z</time></trkpt><trkpt lat="43.77113" lon="6.2101935"><ele>490.8</ele><time>2026-05-02T10:58:32.982Z</time></trkpt><trkpt lat="43.7710982" lon="6.2100347"><ele>490.0</ele><time>2026-05-02T10:58:33.983Z</time></trkpt><trkpt lat="43.7711006" lon="6.20992"><ele>489.6666666666667</ele><time>2026-05-02T10:58:34.983Z</time></trkpt><trkpt lat="43.7710863" lon="6.2097996"><ele>489.33333333333337</ele><time>2026-05-02T10:58:35.983Z</time></trkpt><trkpt lat="43.7710738" lon="6.2096812"><ele>489.0</ele><time>2026-05-02T10:58:36.983Z</time></trkpt><trkpt lat="43.7710557" lon="6.2095845"><ele>488.66666666666663</ele><time>2026-05-02T10:58:37.983Z</time></trkpt><trkpt lat="43.7710557" lon="6.2094781"><ele>488.3333333333333</ele><time>2026-05-02T10:58:39.983Z</time></trkpt><trkpt lat="43.7710971" lon="6.209331"><ele>488.0</ele><time>2026-05-02T10:58:41.983Z</time></trkpt><trkpt lat="43.7711418" lon="6.2092687"><ele>487.99999999999994</ele><time>2026-05-02T10:58:42.982Z</time></trkpt><trkpt lat="43.7712048" lon="6.209217"><ele>488.0</ele><time>2026-05-02T10:58:43.983Z</time></trkpt><trkpt lat="43.7712747" lon="6.2091593"><ele>488.0</ele><time>2026-05-02T10:58:44.983Z</time></trkpt><trkpt lat="43.7713349" lon="6.2091064"><ele>488.0</ele><time>2026-05-02T10:58:45.983Z</time></trkpt><trkpt lat="43.771415" lon="6.2089646"><ele>487.99999999999994</ele><time>2026-05-02T10:58:47.983Z</time></trkpt><trkpt lat="43.7714539" lon="6.2088825"><ele>488.0</ele><time>2026-05-02T10:58:48.983Z</time></trkpt><trkpt lat="43.771489" lon="6.2088027"><ele>488.49999999999994</ele><time>2026-05-02T10:58:49.983Z</time></trkpt><trkpt lat="43.7715" lon="6.2086971"><ele>489.0</ele><time>2026-05-02T10:58:50.983Z</time></trkpt><trkpt lat="43.7715022" lon="6.208552"><ele>489.5</ele><time>2026-05-02T10:58:52.983Z</time></trkpt><trkpt lat="43.7715131" lon="6.2084627"><ele>490.0</ele><time>2026-05-02T10:58:54.983Z</time></trkpt><trkpt lat="43.7715122" lon="6.2083655"><ele>490.49999999999994</ele><time>2026-05-02T10:58:58.983Z</time></trkpt><trkpt lat="43.7714992" lon="6.2082703"><ele>491.0</ele><time>2026-05-02T10:59:00.983Z</time></trkpt><trkpt lat="43.7714695" lon="6.208182"><ele>490.8</ele><time>2026-05-02T10:59:01.983Z</time></trkpt><trkpt lat="43.7714336" lon="6.2080236"><ele>490.6</ele><time>2026-05-02T10:59:03.982Z</time></trkpt><trkpt lat="43.7714111" lon="6.207914"><ele>490.4</ele><time>2026-05-02T10:59:04.982Z</time></trkpt><trkpt lat="43.7713897" lon="6.2078089"><ele>490.2</ele><time>2026-05-02T10:59:05.982Z</time></trkpt><trkpt lat="43.7713722" lon="6.2076861"><ele>490.0</ele><time>2026-05-02T10:59:06.982Z</time></trkpt><trkpt lat="43.7713588" lon="6.2075598"><ele>490.0</ele><time>2026-05-02T10:59:07.983Z</time></trkpt><trkpt lat="43.7713474" lon="6.2074348"><ele>490.0</ele><time>2026-05-02T10:59:08.983Z</time></trkpt><trkpt lat="43.7714009" lon="6.2072913"><ele>490.0</ele><time>2026-05-02T10:59:09.983Z</time></trkpt><trkpt lat="43.771415" lon="6.2071625"><ele>490.0</ele><time>2026-05-02T10:59:10.983Z</time></trkpt><trkpt lat="43.7714631" lon="6.2070161"><ele>490.0</ele><time>2026-05-02T10:59:11.983Z</time></trkpt><trkpt lat="43.771497" lon="6.2068618"><ele>488.8</ele><time>2026-05-02T10:59:12.982Z</time></trkpt><trkpt lat="43.7715348" lon="6.2067091"><ele>487.6</ele><time>2026-05-02T10:59:13.983Z</time></trkpt><trkpt lat="43.771549" lon="6.2065843"><ele>486.4</ele><time>2026-05-02T10:59:14.983Z</time></trkpt><trkpt lat="43.7715806" lon="6.2064672"><ele>485.2</ele><time>2026-05-02T10:59:15.983Z</time></trkpt><trkpt lat="43.7716027" lon="6.2063458"><ele>484.0</ele><time>2026-05-02T10:59:16.983Z</time></trkpt><trkpt lat="43.7716382" lon="6.2062271"><ele>483.6666666666667</ele><time>2026-05-02T10:59:17.983Z</time></trkpt><trkpt lat="43.7716683" lon="6.2061424"><ele>483.33333333333337</ele><time>2026-05-02T10:59:18.983Z</time></trkpt><trkpt lat="43.7717251" lon="6.2060556"><ele>483.0</ele><time>2026-05-02T10:59:19.983Z</time></trkpt><trkpt lat="43.7717951" lon="6.2059925"><ele>482.66666666666663</ele><time>2026-05-02T10:59:20.982Z</time></trkpt><trkpt lat="43.771867" lon="6.205942"><ele>482.3333333333333</ele><time>2026-05-02T10:59:21.983Z</time></trkpt><trkpt lat="43.7719358" lon="6.205893"><ele>482.0</ele><time>2026-05-02T10:59:22.983Z</time></trkpt><trkpt lat="43.7720173" lon="6.2058759"><ele>481.99999999999994</ele><time>2026-05-02T10:59:23.983Z</time></trkpt><trkpt lat="43.7720666" lon="6.2057934"><ele>482.0</ele><time>2026-05-02T10:59:24.983Z</time></trkpt><trkpt lat="43.7721148" lon="6.2057072"><ele>482.0</ele><time>2026-05-02T10:59:25.982Z</time></trkpt><trkpt lat="43.7721552" lon="6.2056184"><ele>482.0</ele><time>2026-05-02T10:59:26.982Z</time></trkpt><trkpt lat="43.7722003" lon="6.2055155"><ele>481.99999999999994</ele><time>2026-05-02T10:59:27.983Z</time></trkpt><trkpt lat="43.7722573" lon="6.2054353"><ele>482.0</ele><time>2026-05-02T10:59:28.983Z</time></trkpt><trkpt lat="43.7723107" lon="6.2053455"><ele>481.6</ele><time>2026-05-02T10:59:29.983Z</time></trkpt><trkpt lat="43.7723753" lon="6.2053478"><ele>481.20000000000005</ele><time>2026-05-02T10:59:30.983Z</time></trkpt><trkpt lat="43.7724836" lon="6.2053992"><ele>480.8</ele><time>2026-05-02T10:59:32.983Z</time></trkpt><trkpt lat="43.7725509" lon="6.2054416"><ele>480.4</ele><time>2026-05-02T10:59:33.983Z</time></trkpt><trkpt lat="43.7726808" lon="6.2055139"><ele>480.0</ele><time>2026-05-02T10:59:35.983Z</time></trkpt><trkpt lat="43.7727503" lon="6.2055506"><ele>480.0</ele><time>2026-05-02T10:59:36.983Z</time></trkpt><trkpt lat="43.7728236" lon="6.2055872"><ele>480.0</ele><time>2026-05-02T10:59:37.983Z</time></trkpt><trkpt lat="43.7728891" lon="6.2056334"><ele>480.0</ele><time>2026-05-02T10:59:38.983Z</time></trkpt><trkpt lat="43.7729682" lon="6.2056955"><ele>480.0</ele><time>2026-05-02T10:59:39.983Z</time></trkpt><trkpt lat="43.7730363" lon="6.2057184"><ele>480.0</ele><time>2026-05-02T10:59:40.983Z</time></trkpt><trkpt lat="43.7731061" lon="6.2057521"><ele>480.0</ele><time>2026-05-02T10:59:41.982Z</time></trkpt><trkpt lat="43.773185" lon="6.2057938"><ele>479.8</ele><time>2026-05-02T10:59:42.983Z</time></trkpt><trkpt lat="43.7732673" lon="6.20584"><ele>479.6</ele><time>2026-05-02T10:59:43.982Z</time></trkpt><trkpt lat="43.773356" lon="6.2058679"><ele>479.4</ele><time>2026-05-02T10:59:44.983Z</time></trkpt><trkpt lat="43.7734602" lon="6.2059109"><ele>479.2</ele><time>2026-05-02T10:59:45.983Z</time></trkpt><trkpt lat="43.773553" lon="6.2059533"><ele>479.0</ele><time>2026-05-02T10:59:46.983Z</time></trkpt><trkpt lat="43.7736598" lon="6.2060096"><ele>479.0</ele><time>2026-05-02T10:59:47.983Z</time></trkpt><trkpt lat="43.7737597" lon="6.2060559"><ele>479.0</ele><time>2026-05-02T10:59:48.982Z</time></trkpt><trkpt lat="43.7738585" lon="6.2061022"><ele>479.0</ele><time>2026-05-02T10:59:49.983Z</time></trkpt><trkpt lat="43.7739535" lon="6.20614"><ele>479.0</ele><time>2026-05-02T10:59:50.983Z</time></trkpt><trkpt lat="43.774053" lon="6.206176"><ele>479.0</ele><time>2026-05-02T10:59:51.983Z</time></trkpt><trkpt lat="43.7741501" lon="6.2062313"><ele>479.0</ele><time>2026-05-02T10:59:52.983Z</time></trkpt><trkpt lat="43.7742441" lon="6.2062745"><ele>479.0</ele><time>2026-05-02T10:59:53.983Z</time></trkpt><trkpt lat="43.7743427" lon="6.2063192"><ele>479.0</ele><time>2026-05-02T10:59:54.983Z</time></trkpt><trkpt lat="43.7744319" lon="6.2063573"><ele>479.0</ele><time>2026-05-02T10:59:55.983Z</time></trkpt><trkpt lat="43.7745281" lon="6.2064063"><ele>479.0</ele><time>2026-05-02T10:59:56.983Z</time></trkpt><trkpt lat="43.7746159" lon="6.2064473"><ele>479.79999999999995</ele><time>2026-05-02T10:59:57.983Z</time></trkpt><trkpt lat="43.7747025" lon="6.206504"><ele>480.59999999999997</ele><time>2026-05-02T10:59:58.983Z</time></trkpt><trkpt lat="43.7748143" lon="6.2065748"><ele>481.4</ele><time>2026-05-02T10:59:59.983Z</time></trkpt><trkpt lat="43.7749083" lon="6.2066064"><ele>482.2</ele><time>2026-05-02T11:00:00.983Z</time></trkpt><trkpt lat="43.7750048" lon="6.2066545"><ele>483.0</ele><time>2026-05-02T11:00:01.983Z</time></trkpt><trkpt lat="43.7751116" lon="6.2067073"><ele>483.0</ele><time>2026-05-02T11:00:02.983Z</time></trkpt><trkpt lat="43.7751981" lon="6.2067455"><ele>483.0</ele><time>2026-05-02T11:00:03.983Z</time></trkpt><trkpt lat="43.7752828" lon="6.2067961"><ele>483.0</ele><time>2026-05-02T11:00:04.983Z</time></trkpt><trkpt lat="43.7753641" lon="6.2068206"><ele>483.0</ele><time>2026-05-02T11:00:05.983Z</time></trkpt><trkpt lat="43.7754345" lon="6.206871"><ele>483.0</ele><time>2026-05-02T11:00:06.982Z</time></trkpt><trkpt lat="43.7755024" lon="6.2069396"><ele>483.0</ele><time>2026-05-02T11:00:07.983Z</time></trkpt><trkpt lat="43.7755326" lon="6.2070345"><ele>483.0</ele><time>2026-05-02T11:00:08.983Z</time></trkpt><trkpt lat="43.7755794" lon="6.2071227"><ele>483.0</ele><time>2026-05-02T11:00:09.983Z</time></trkpt><trkpt lat="43.7756326" lon="6.2072096"><ele>483.0</ele><time>2026-05-02T11:00:10.983Z</time></trkpt><trkpt lat="43.7756965" lon="6.2072602"><ele>483.0</ele><time>2026-05-02T11:00:11.983Z</time></trkpt><trkpt lat="43.7757595" lon="6.2073326"><ele>483.0</ele><time>2026-05-02T11:00:12.982Z</time></trkpt><trkpt lat="43.7758452" lon="6.2074285"><ele>483.0</ele><time>2026-05-02T11:00:13.982Z</time></trkpt><trkpt lat="43.7759003" lon="6.2075137"><ele>482.59999999999997</ele><time>2026-05-02T11:00:14.983Z</time></trkpt><trkpt lat="43.7759683" lon="6.2075772"><ele>482.19999999999993</ele><time>2026-05-02T11:00:15.983Z</time></trkpt><trkpt lat="43.7760485" lon="6.207654"><ele>481.8</ele><time>2026-05-02T11:00:16.983Z</time></trkpt><trkpt lat="43.7761163" lon="6.2077343"><ele>481.4</ele><time>2026-05-02T11:00:17.983Z</time></trkpt><trkpt lat="43.7761816" lon="6.2078072"><ele>481.0</ele><time>2026-05-02T11:00:18.982Z</time></trkpt><trkpt lat="43.7762692" lon="6.2078766"><ele>481.00000000000006</ele><time>2026-05-02T11:00:19.982Z</time></trkpt><trkpt lat="43.7763585" lon="6.207944"><ele>481.0</ele><time>2026-05-02T11:00:20.983Z</time></trkpt><trkpt lat="43.7764502" lon="6.2080178"><ele>481.0</ele><time>2026-05-02T11:00:21.983Z</time></trkpt><trkpt lat="43.7765177" lon="6.2080893"><ele>481.0</ele><time>2026-05-02T11:00:22.983Z</time></trkpt><trkpt lat="43.7765727" lon="6.2081676"><ele>481.00000000000006</ele><time>2026-05-02T11:00:23.983Z</time></trkpt><trkpt lat="43.7766186" lon="6.208238"><ele>481.0</ele><time>2026-05-02T11:00:24.983Z</time></trkpt><trkpt lat="43.7766528" lon="6.2083158"><ele>481.8</ele><time>2026-05-02T11:00:25.983Z</time></trkpt><trkpt lat="43.7766574" lon="6.2084055"><ele>482.6</ele><time>2026-05-02T11:00:26.983Z</time></trkpt><trkpt lat="43.7766059" lon="6.208585"><ele>483.4</ele><time>2026-05-02T11:00:28.983Z</time></trkpt><trkpt lat="43.776563" lon="6.2086945"><ele>484.2</ele><time>2026-05-02T11:00:29.983Z</time></trkpt><trkpt lat="43.7765199" lon="6.2088101"><ele>485.0</ele><time>2026-05-02T11:00:30.983Z</time></trkpt><trkpt lat="43.7764846" lon="6.2089177"><ele>485.8</ele><time>2026-05-02T11:00:31.982Z</time></trkpt><trkpt lat="43.7764333" lon="6.2090932"><ele>486.6</ele><time>2026-05-02T11:00:33.983Z</time></trkpt><trkpt lat="43.7764122" lon="6.2091849"><ele>487.4</ele><time>2026-05-02T11:00:34.983Z</time></trkpt><trkpt lat="43.7764575" lon="6.2093097"><ele>488.2</ele><time>2026-05-02T11:00:35.982Z</time></trkpt><trkpt lat="43.7764803" lon="6.209397"><ele>489.0</ele><time>2026-05-02T11:00:36.982Z</time></trkpt><trkpt lat="43.7765072" lon="6.20951"><ele>489.0</ele><time>2026-05-02T11:00:37.983Z</time></trkpt><trkpt lat="43.7765345" lon="6.2096374"><ele>489.0</ele><time>2026-05-02T11:00:38.983Z</time></trkpt><trkpt lat="43.7765705" lon="6.2097578"><ele>489.0</ele><time>2026-05-02T11:00:39.983Z</time></trkpt><trkpt lat="43.7766235" lon="6.2098925"><ele>489.0</ele><time>2026-05-02T11:00:40.983Z</time></trkpt><trkpt lat="43.7766637" lon="6.2100332"><ele>489.0</ele><time>2026-05-02T11:00:41.983Z</time></trkpt><trkpt lat="43.7766888" lon="6.2101554"><ele>489.4</ele><time>2026-05-02T11:00:42.983Z</time></trkpt><trkpt lat="43.776717" lon="6.2102821"><ele>489.79999999999995</ele><time>2026-05-02T11:00:43.983Z</time></trkpt><trkpt lat="43.7767519" lon="6.2104129"><ele>490.20000000000005</ele><time>2026-05-02T11:00:44.983Z</time></trkpt><trkpt lat="43.7767763" lon="6.2105413"><ele>490.6</ele><time>2026-05-02T11:00:45.983Z</time></trkpt><trkpt lat="43.7768049" lon="6.2106644"><ele>491.0</ele><time>2026-05-02T11:00:46.983Z</time></trkpt><trkpt lat="43.7768379" lon="6.2107879"><ele>490.8333333333333</ele><time>2026-05-02T11:00:47.983Z</time></trkpt><trkpt lat="43.7768667" lon="6.2109052"><ele>490.66666666666663</ele><time>2026-05-02T11:00:48.982Z</time></trkpt><trkpt lat="43.7768968" lon="6.2110303"><ele>490.5</ele><time>2026-05-02T11:00:49.983Z</time></trkpt><trkpt lat="43.7769262" lon="6.2111205"><ele>490.33333333333337</ele><time>2026-05-02T11:00:50.983Z</time></trkpt><trkpt lat="43.7769608" lon="6.2112342"><ele>490.1666666666667</ele><time>2026-05-02T11:00:52.983Z</time></trkpt><trkpt lat="43.7770029" lon="6.2113384"><ele>490.0</ele><time>2026-05-02T11:00:55.983Z</time></trkpt><trkpt lat="43.7770425" lon="6.2114274"><ele>489.6</ele><time>2026-05-02T11:00:57.983Z</time></trkpt><trkpt lat="43.7770567" lon="6.2115258"><ele>489.2</ele><time>2026-05-02T11:00:59.983Z</time></trkpt><trkpt lat="43.7770565" lon="6.2116635"><ele>488.79999999999995</ele><time>2026-05-02T11:01:01.983Z</time></trkpt><trkpt lat="43.7770579" lon="6.2118148"><ele>488.4</ele><time>2026-05-02T11:01:03.983Z</time></trkpt><trkpt lat="43.7770443" lon="6.2119472"><ele>488.0</ele><time>2026-05-02T11:01:05.983Z</time></trkpt><trkpt lat="43.7770254" lon="6.2121084"><ele>487.99999999999994</ele><time>2026-05-02T11:01:07.982Z</time></trkpt><trkpt lat="43.7770098" lon="6.2121963"><ele>488.0</ele><time>2026-05-02T11:01:08.983Z</time></trkpt><trkpt lat="43.7769865" lon="6.2122825"><ele>487.99999999999994</ele><time>2026-05-02T11:01:09.983Z</time></trkpt><trkpt lat="43.7769538" lon="6.2123745"><ele>487.99999999999994</ele><time>2026-05-02T11:01:10.983Z</time></trkpt><trkpt lat="43.7769244" lon="6.2124534"><ele>488.0</ele><time>2026-05-02T11:01:11.983Z</time></trkpt><trkpt lat="43.7769121" lon="6.2125953"><ele>487.99999999999994</ele><time>2026-05-02T11:01:13.983Z</time></trkpt><trkpt lat="43.7769305" lon="6.2126837"><ele>487.99999999999994</ele><time>2026-05-02T11:01:15.983Z</time></trkpt><trkpt lat="43.7770221" lon="6.2127257"><ele>488.0</ele><time>2026-05-02T11:01:16.983Z</time></trkpt><trkpt lat="43.7771063" lon="6.2127515"><ele>487.99999999999994</ele><time>2026-05-02T11:01:17.983Z</time></trkpt><trkpt lat="43.7771643" lon="6.2128038"><ele>487.99999999999994</ele><time>2026-05-02T11:01:18.983Z</time></trkpt><trkpt lat="43.7772169" lon="6.212865"><ele>488.0</ele><time>2026-05-02T11:01:19.983Z</time></trkpt><trkpt lat="43.7773137" lon="6.212962"><ele>488.0</ele><time>2026-05-02T11:01:21.982Z</time></trkpt><trkpt lat="43.7773468" lon="6.213111"><ele>488.66666666666663</ele><time>2026-05-02T11:01:23.983Z</time></trkpt><trkpt lat="43.7773436" lon="6.2132166"><ele>489.3333333333333</ele><time>2026-05-02T11:01:24.983Z</time></trkpt><trkpt lat="43.7773182" lon="6.2133169"><ele>490.0</ele><time>2026-05-02T11:01:25.983Z</time></trkpt><trkpt lat="43.7772906" lon="6.2134122"><ele>490.66666666666663</ele><time>2026-05-02T11:01:26.983Z</time></trkpt><trkpt lat="43.7772378" lon="6.213515"><ele>491.3333333333333</ele><time>2026-05-02T11:01:27.983Z</time></trkpt><trkpt lat="43.7771897" lon="6.2135999"><ele>492.0</ele><time>2026-05-02T11:01:28.983Z</time></trkpt><trkpt lat="43.7771515" lon="6.2136844"><ele>492.0</ele><time>2026-05-02T11:01:29.983Z</time></trkpt><trkpt lat="43.7771114" lon="6.2137569"><ele>492.00000000000006</ele><time>2026-05-02T11:01:30.983Z</time></trkpt><trkpt lat="43.7770391" lon="6.2138797"><ele>492.00000000000006</ele><time>2026-05-02T11:01:32.983Z</time></trkpt><trkpt lat="43.7769944" lon="6.214004"><ele>492.0</ele><time>2026-05-02T11:01:34.982Z</time></trkpt><trkpt lat="43.7770085" lon="6.214108"><ele>492.0</ele><time>2026-05-02T11:01:37.982Z</time></trkpt><trkpt lat="43.7770978" lon="6.2140353"><ele>492.0</ele><time>2026-05-02T11:01:40.983Z</time></trkpt><trkpt lat="43.7771385" lon="6.2139511"><ele>492.00000000000006</ele><time>2026-05-02T11:01:41.982Z</time></trkpt><trkpt lat="43.7772007" lon="6.2138405"><ele>492.00000000000006</ele><time>2026-05-02T11:01:42.983Z</time></trkpt><trkpt lat="43.7772588" lon="6.2137498"><ele>492.0</ele><time>2026-05-02T11:01:43.983Z</time></trkpt><trkpt lat="43.7773378" lon="6.2135583"><ele>492.0</ele><time>2026-05-02T11:01:44.982Z</time></trkpt><trkpt lat="43.7774215" lon="6.2133928"><ele>492.0</ele><time>2026-05-02T11:01:45.983Z</time></trkpt><trkpt lat="43.7775204" lon="6.2132186"><ele>492.0</ele><time>2026-05-02T11:01:46.983Z</time></trkpt><trkpt lat="43.7776079" lon="6.2130305"><ele>492.0</ele><time>2026-05-02T11:01:47.983Z</time></trkpt><trkpt lat="43.7776896" lon="6.2128407"><ele>492.33333333333337</ele><time>2026-05-02T11:01:48.983Z</time></trkpt><trkpt lat="43.7777962" lon="6.2126612"><ele>492.6666666666667</ele><time>2026-05-02T11:01:49.983Z</time></trkpt><trkpt lat="43.7779307" lon="6.2124863"><ele>493.0</ele><time>2026-05-02T11:01:50.983Z</time></trkpt><trkpt lat="43.778056" lon="6.2122977"><ele>490.33333333333337</ele><time>2026-05-02T11:01:51.983Z</time></trkpt><trkpt lat="43.7782006" lon="6.2121427"><ele>487.66666666666663</ele><time>2026-05-02T11:01:52.983Z</time></trkpt><trkpt lat="43.7783495" lon="6.211971"><ele>485.0</ele><time>2026-05-02T11:01:53.983Z</time></trkpt><trkpt lat="43.7784962" lon="6.2118387"><ele>486.0</ele><time>2026-05-02T11:01:54.983Z</time></trkpt><trkpt lat="43.7786685" lon="6.2117175"><ele>487.0</ele><time>2026-05-02T11:01:55.983Z</time></trkpt><trkpt lat="43.7788325" lon="6.2116078"><ele>488.0</ele><time>2026-05-02T11:01:56.983Z</time></trkpt><trkpt lat="43.7790141" lon="6.2115519"><ele>487.3333333333333</ele><time>2026-05-02T11:01:57.983Z</time></trkpt><trkpt lat="43.779193" lon="6.2114811"><ele>486.66666666666663</ele><time>2026-05-02T11:01:58.983Z</time></trkpt><trkpt lat="43.7793853" lon="6.2114454"><ele>486.0</ele><time>2026-05-02T11:01:59.983Z</time></trkpt><trkpt lat="43.7795815" lon="6.2114367"><ele>486.0</ele><time>2026-05-02T11:02:00.983Z</time></trkpt><trkpt lat="43.7797762" lon="6.2114098"><ele>486.0</ele><time>2026-05-02T11:02:01.983Z</time></trkpt><trkpt lat="43.7799839" lon="6.2114252"><ele>486.0</ele><time>2026-05-02T11:02:02.983Z</time></trkpt><trkpt lat="43.7801708" lon="6.2114778"><ele>486.66666666666663</ele><time>2026-05-02T11:02:03.982Z</time></trkpt><trkpt lat="43.7803634" lon="6.2115397"><ele>487.3333333333333</ele><time>2026-05-02T11:02:04.982Z</time></trkpt><trkpt lat="43.7805356" lon="6.2116714"><ele>488.0</ele><time>2026-05-02T11:02:05.982Z</time></trkpt><trkpt lat="43.7807026" lon="6.2118086"><ele>488.0</ele><time>2026-05-02T11:02:06.983Z</time></trkpt><trkpt lat="43.7808641" lon="6.2119507"><ele>488.0</ele><time>2026-05-02T11:02:07.982Z</time></trkpt><trkpt lat="43.781002" lon="6.2121089"><ele>488.0</ele><time>2026-05-02T11:02:08.983Z</time></trkpt><trkpt lat="43.7811244" lon="6.2122745"><ele>488.0</ele><time>2026-05-02T11:02:09.983Z</time></trkpt><trkpt lat="43.781254" lon="6.2124168"><ele>488.0</ele><time>2026-05-02T11:02:10.983Z</time></trkpt><trkpt lat="43.781366" lon="6.2125712"><ele>488.0</ele><time>2026-05-02T11:02:11.983Z</time></trkpt><trkpt lat="43.7814757" lon="6.2127229"><ele>488.0</ele><time>2026-05-02T11:02:12.983Z</time></trkpt><trkpt lat="43.7815912" lon="6.2128661"><ele>488.0</ele><time>2026-05-02T11:02:13.983Z</time></trkpt><trkpt lat="43.7817081" lon="6.2130082"><ele>488.0</ele><time>2026-05-02T11:02:14.983Z</time></trkpt><trkpt lat="43.7818158" lon="6.213125"><ele>488.0</ele><time>2026-05-02T11:02:15.983Z</time></trkpt><trkpt lat="43.7819095" lon="6.21326"><ele>488.5</ele><time>2026-05-02T11:02:16.983Z</time></trkpt><trkpt lat="43.7820202" lon="6.2133792"><ele>489.0</ele><time>2026-05-02T11:02:17.982Z</time></trkpt><trkpt lat="43.7821231" lon="6.2135095"><ele>489.5</ele><time>2026-05-02T11:02:18.982Z</time></trkpt><trkpt lat="43.7822233" lon="6.2136451"><ele>490.0</ele><time>2026-05-02T11:02:19.983Z</time></trkpt><trkpt lat="43.7823311" lon="6.2137667"><ele>490.0</ele><time>2026-05-02T11:02:20.983Z</time></trkpt><trkpt lat="43.7824394" lon="6.2138924"><ele>490.0</ele><time>2026-05-02T11:02:21.983Z</time></trkpt><trkpt lat="43.7825478" lon="6.214017"><ele>490.0</ele><time>2026-05-02T11:02:22.983Z</time></trkpt><trkpt lat="43.7826598" lon="6.2141499"><ele>490.0</ele><time>2026-05-02T11:02:23.983Z</time></trkpt><trkpt lat="43.7827654" lon="6.2142829"><ele>489.33333333333337</ele><time>2026-05-02T11:02:24.983Z</time></trkpt><trkpt lat="43.7829159" lon="6.2144352"><ele>488.66666666666663</ele><time>2026-05-02T11:02:25.983Z</time></trkpt><trkpt lat="43.7830547" lon="6.2146107"><ele>488.0</ele><time>2026-05-02T11:02:26.983Z</time></trkpt><trkpt lat="43.7832005" lon="6.2147973"><ele>486.66666666666663</ele><time>2026-05-02T11:02:27.983Z</time></trkpt><trkpt lat="43.7833453" lon="6.2149799"><ele>485.33333333333337</ele><time>2026-05-02T11:02:28.983Z</time></trkpt><trkpt lat="43.7834877" lon="6.2151797"><ele>484.0</ele><time>2026-05-02T11:02:29.983Z</time></trkpt><trkpt lat="43.7836175" lon="6.2153815"><ele>484.0</ele><time>2026-05-02T11:02:30.983Z</time></trkpt><trkpt lat="43.7837645" lon="6.215572"><ele>484.0</ele><time>2026-05-02T11:02:31.983Z</time></trkpt><trkpt lat="43.7839264" lon="6.2157473"><ele>484.0</ele><time>2026-05-02T11:02:32.983Z</time></trkpt><trkpt lat="43.7840789" lon="6.215939"><ele>484.0</ele><time>2026-05-02T11:02:33.983Z</time></trkpt><trkpt lat="43.7842325" lon="6.216132"><ele>484.0</ele><time>2026-05-02T11:02:34.983Z</time></trkpt><trkpt lat="43.7843897" lon="6.216321"><ele>484.0</ele><time>2026-05-02T11:02:35.983Z</time></trkpt><trkpt lat="43.7845326" lon="6.2165028"><ele>485.33333333333337</ele><time>2026-05-02T11:02:36.983Z</time></trkpt><trkpt lat="43.7846864" lon="6.216693"><ele>486.66666666666663</ele><time>2026-05-02T11:02:37.983Z</time></trkpt><trkpt lat="43.7848333" lon="6.2168831"><ele>488.0</ele><time>2026-05-02T11:02:38.982Z</time></trkpt><trkpt lat="43.7849804" lon="6.2170806"><ele>488.0</ele><time>2026-05-02T11:02:39.983Z</time></trkpt><trkpt lat="43.7851351" lon="6.2172722"><ele>488.0</ele><time>2026-05-02T11:02:40.983Z</time></trkpt><trkpt lat="43.785291" lon="6.2174616"><ele>488.0</ele><time>2026-05-02T11:02:41.983Z</time></trkpt><trkpt lat="43.7854403" lon="6.2176598"><ele>487.66666666666663</ele><time>2026-05-02T11:02:42.983Z</time></trkpt><trkpt lat="43.7855946" lon="6.217839"><ele>487.33333333333337</ele><time>2026-05-02T11:02:43.983Z</time></trkpt><trkpt lat="43.7857591" lon="6.2180387"><ele>487.0</ele><time>2026-05-02T11:02:44.983Z</time></trkpt><trkpt lat="43.785909" lon="6.2182223"><ele>487.33333333333337</ele><time>2026-05-02T11:02:45.983Z</time></trkpt><trkpt lat="43.7860557" lon="6.218417"><ele>487.66666666666663</ele><time>2026-05-02T11:02:46.983Z</time></trkpt><trkpt lat="43.7862049" lon="6.2186013"><ele>488.0</ele><time>2026-05-02T11:02:47.982Z</time></trkpt><trkpt lat="43.7863596" lon="6.2187861"><ele>488.0</ele><time>2026-05-02T11:02:48.983Z</time></trkpt><trkpt lat="43.7865039" lon="6.2189673"><ele>488.0</ele><time>2026-05-02T11:02:49.983Z</time></trkpt><trkpt lat="43.7866465" lon="6.219159"><ele>488.0</ele><time>2026-05-02T11:02:50.983Z</time></trkpt><trkpt lat="43.7867869" lon="6.2193404"><ele>488.0</ele><time>2026-05-02T11:02:51.983Z</time></trkpt><trkpt lat="43.7869264" lon="6.2195193"><ele>488.0</ele><time>2026-05-02T11:02:52.982Z</time></trkpt><trkpt lat="43.787065" lon="6.2196926"><ele>488.0</ele><time>2026-05-02T11:02:53.982Z</time></trkpt><trkpt lat="43.7871978" lon="6.2198633"><ele>490.0</ele><time>2026-05-02T11:02:54.983Z</time></trkpt><trkpt lat="43.7873331" lon="6.2200285"><ele>492.0</ele><time>2026-05-02T11:02:55.983Z</time></trkpt><trkpt lat="43.7874704" lon="6.2201909"><ele>494.0</ele><time>2026-05-02T11:02:56.983Z</time></trkpt><trkpt lat="43.7876076" lon="6.2203687"><ele>493.66666666666663</ele><time>2026-05-02T11:02:57.982Z</time></trkpt><trkpt lat="43.7877389" lon="6.2205316"><ele>493.33333333333337</ele><time>2026-05-02T11:02:58.983Z</time></trkpt><trkpt lat="43.787872" lon="6.2206994"><ele>493.0</ele><time>2026-05-02T11:02:59.983Z</time></trkpt><trkpt lat="43.7879997" lon="6.2208844"><ele>493.0</ele><time>2026-05-02T11:03:00.983Z</time></trkpt><trkpt lat="43.7881091" lon="6.2210637"><ele>493.0</ele><time>2026-05-02T11:03:01.983Z</time></trkpt><trkpt lat="43.7881978" lon="6.2212941"><ele>493.0</ele><time>2026-05-02T11:03:02.983Z</time></trkpt><trkpt lat="43.7882698" lon="6.2215293"><ele>494.6666666666667</ele><time>2026-05-02T11:03:03.983Z</time></trkpt><trkpt lat="43.7883372" lon="6.2217704"><ele>496.33333333333337</ele><time>2026-05-02T11:03:04.983Z</time></trkpt><trkpt lat="43.7883968" lon="6.2220233"><ele>498.0</ele><time>2026-05-02T11:03:05.983Z</time></trkpt><trkpt lat="43.7884492" lon="6.2222777"><ele>500.0</ele><time>2026-05-02T11:03:06.983Z</time></trkpt><trkpt lat="43.7885028" lon="6.2225297"><ele>502.0</ele><time>2026-05-02T11:03:07.983Z</time></trkpt><trkpt lat="43.7885578" lon="6.2227874"><ele>504.0</ele><time>2026-05-02T11:03:08.983Z</time></trkpt><trkpt lat="43.788618" lon="6.2230385"><ele>500.33333333333337</ele><time>2026-05-02T11:03:09.983Z</time></trkpt><trkpt lat="43.7886783" lon="6.2232832"><ele>496.6666666666667</ele><time>2026-05-02T11:03:10.983Z</time></trkpt><trkpt lat="43.7887417" lon="6.2235314"><ele>493.0</ele><time>2026-05-02T11:03:11.983Z</time></trkpt><trkpt lat="43.7888514" lon="6.2237559"><ele>496.33333333333337</ele><time>2026-05-02T11:03:12.982Z</time></trkpt><trkpt lat="43.7889423" lon="6.2239869"><ele>499.66666666666663</ele><time>2026-05-02T11:03:13.983Z</time></trkpt><trkpt lat="43.7890697" lon="6.2241771"><ele>503.0</ele><time>2026-05-02T11:03:14.983Z</time></trkpt><trkpt lat="43.7892189" lon="6.2243668"><ele>503.0</ele><time>2026-05-02T11:03:15.983Z</time></trkpt><trkpt lat="43.7893662" lon="6.224535"><ele>503.0</ele><time>2026-05-02T11:03:16.983Z</time></trkpt><trkpt lat="43.7895009" lon="6.2247072"><ele>503.0</ele><time>2026-05-02T11:03:17.983Z</time></trkpt><trkpt lat="43.7896705" lon="6.2248381"><ele>503.66666666666663</ele><time>2026-05-02T11:03:18.983Z</time></trkpt><trkpt lat="43.7898439" lon="6.2249523"><ele>504.33333333333337</ele><time>2026-05-02T11:03:19.982Z</time></trkpt><trkpt lat="43.7900083" lon="6.2250659"><ele>505.0</ele><time>2026-05-02T11:03:20.983Z</time></trkpt><trkpt lat="43.7901881" lon="6.2251533"><ele>502.6666666666667</ele><time>2026-05-02T11:03:21.983Z</time></trkpt><trkpt lat="43.7903725" lon="6.2252389"><ele>500.33333333333337</ele><time>2026-05-02T11:03:22.983Z</time></trkpt><trkpt lat="43.7905415" lon="6.2253318"><ele>498.0</ele><time>2026-05-02T11:03:23.983Z</time></trkpt><trkpt lat="43.7907081" lon="6.2253965"><ele>498.0</ele><time>2026-05-02T11:03:24.982Z</time></trkpt><trkpt lat="43.7908889" lon="6.2254904"><ele>498.0</ele><time>2026-05-02T11:03:25.983Z</time></trkpt><trkpt lat="43.791059" lon="6.2255793"><ele>498.0</ele><time>2026-05-02T11:03:26.983Z</time></trkpt><trkpt lat="43.7912269" lon="6.2256985"><ele>500.66666666666663</ele><time>2026-05-02T11:03:27.983Z</time></trkpt><trkpt lat="43.7913889" lon="6.2258247"><ele>503.3333333333333</ele><time>2026-05-02T11:03:28.983Z</time></trkpt><trkpt lat="43.7915376" lon="6.225965"><ele>506.0</ele><time>2026-05-02T11:03:29.982Z</time></trkpt><trkpt lat="43.7916697" lon="6.2261537"><ele>506.0</ele><time>2026-05-02T11:03:30.983Z</time></trkpt><trkpt lat="43.7918022" lon="6.2263665"><ele>506.0</ele><time>2026-05-02T11:03:31.983Z</time></trkpt><trkpt lat="43.7919272" lon="6.2265773"><ele>506.0</ele><time>2026-05-02T11:03:32.983Z</time></trkpt><trkpt lat="43.7920548" lon="6.2267918"><ele>507.3333333333333</ele><time>2026-05-02T11:03:33.982Z</time></trkpt><trkpt lat="43.792184" lon="6.2270112"><ele>508.66666666666663</ele><time>2026-05-02T11:03:34.983Z</time></trkpt><trkpt lat="43.7923093" lon="6.2272293"><ele>510.0</ele><time>2026-05-02T11:03:35.983Z</time></trkpt><trkpt lat="43.7924356" lon="6.2274477"><ele>510.0</ele><time>2026-05-02T11:03:36.983Z</time></trkpt><trkpt lat="43.7925635" lon="6.2276642"><ele>510.0</ele><time>2026-05-02T11:03:37.983Z</time></trkpt><trkpt lat="43.7926947" lon="6.2278736"><ele>510.0</ele><time>2026-05-02T11:03:38.983Z</time></trkpt><trkpt lat="43.7928224" lon="6.2280903"><ele>509.0</ele><time>2026-05-02T11:03:39.983Z</time></trkpt><trkpt lat="43.7929462" lon="6.2282959"><ele>508.0</ele><time>2026-05-02T11:03:40.982Z</time></trkpt><trkpt lat="43.793059" lon="6.2284965"><ele>507.0</ele><time>2026-05-02T11:03:41.983Z</time></trkpt><trkpt lat="43.7931553" lon="6.2286952"><ele>507.0</ele><time>2026-05-02T11:03:42.982Z</time></trkpt><trkpt lat="43.7932538" lon="6.228912"><ele>507.0</ele><time>2026-05-02T11:03:43.983Z</time></trkpt><trkpt lat="43.7933247" lon="6.2291314"><ele>507.0</ele><time>2026-05-02T11:03:44.983Z</time></trkpt><trkpt lat="43.7933329" lon="6.2293496"><ele>506.66666666666663</ele><time>2026-05-02T11:03:45.983Z</time></trkpt><trkpt lat="43.7933061" lon="6.2295915"><ele>506.3333333333333</ele><time>2026-05-02T11:03:46.983Z</time></trkpt><trkpt lat="43.7933005" lon="6.2298252"><ele>506.0</ele><time>2026-05-02T11:03:47.982Z</time></trkpt><trkpt lat="43.7932759" lon="6.2300734"><ele>506.0</ele><time>2026-05-02T11:03:48.983Z</time></trkpt><trkpt lat="43.7932647" lon="6.2303273"><ele>506.0</ele><time>2026-05-02T11:03:49.983Z</time></trkpt><trkpt lat="43.7932543" lon="6.2305485"><ele>506.0</ele><time>2026-05-02T11:03:50.983Z</time></trkpt><trkpt lat="43.7932267" lon="6.2307623"><ele>502.66666666666663</ele><time>2026-05-02T11:03:51.983Z</time></trkpt><trkpt lat="43.7932286" lon="6.2309885"><ele>499.33333333333337</ele><time>2026-05-02T11:03:52.983Z</time></trkpt><trkpt lat="43.7932544" lon="6.231204"><ele>496.0</ele><time>2026-05-02T11:03:53.983Z</time></trkpt><trkpt lat="43.7932979" lon="6.2314031"><ele>495.0</ele><time>2026-05-02T11:03:54.983Z</time></trkpt><trkpt lat="43.7933453" lon="6.2315963"><ele>494.0</ele><time>2026-05-02T11:03:55.983Z</time></trkpt><trkpt lat="43.793412" lon="6.231746"><ele>493.0</ele><time>2026-05-02T11:03:56.982Z</time></trkpt><trkpt lat="43.7935032" lon="6.2318972"><ele>492.0</ele><time>2026-05-02T11:03:57.983Z</time></trkpt><trkpt lat="43.7935937" lon="6.2320141"><ele>491.33333333333337</ele><time>2026-05-02T11:03:58.983Z</time></trkpt><trkpt lat="43.7937085" lon="6.2321216"><ele>490.6666666666667</ele><time>2026-05-02T11:03:59.983Z</time></trkpt><trkpt lat="43.7939171" lon="6.23218"><ele>490.0</ele><time>2026-05-02T11:04:00.983Z</time></trkpt><trkpt lat="43.7941259" lon="6.2322064"><ele>490.0</ele><time>2026-05-02T11:04:01.983Z</time></trkpt><trkpt lat="43.7943078" lon="6.2322258"><ele>490.0</ele><time>2026-05-02T11:04:02.983Z</time></trkpt><trkpt lat="43.7944807" lon="6.2322363"><ele>490.0</ele><time>2026-05-02T11:04:03.983Z</time></trkpt><trkpt lat="43.7946465" lon="6.2322617"><ele>491.33333333333337</ele><time>2026-05-02T11:04:04.983Z</time></trkpt><trkpt lat="43.794808" lon="6.2323022"><ele>492.66666666666663</ele><time>2026-05-02T11:04:05.982Z</time></trkpt><trkpt lat="43.7949471" lon="6.232319"><ele>494.0</ele><time>2026-05-02T11:04:06.983Z</time></trkpt><trkpt lat="43.7950934" lon="6.2323823"><ele>490.66666666666663</ele><time>2026-05-02T11:04:07.983Z</time></trkpt><trkpt lat="43.7952233" lon="6.2324599"><ele>487.33333333333337</ele><time>2026-05-02T11:04:08.983Z</time></trkpt><trkpt lat="43.7953636" lon="6.2325678"><ele>484.0</ele><time>2026-05-02T11:04:09.983Z</time></trkpt><trkpt lat="43.7955021" lon="6.2326839"><ele>484.0</ele><time>2026-05-02T11:04:10.983Z</time></trkpt><trkpt lat="43.7956211" lon="6.2328559"><ele>484.0</ele><time>2026-05-02T11:04:11.983Z</time></trkpt><trkpt lat="43.7957134" lon="6.233016"><ele>484.0</ele><time>2026-05-02T11:04:12.983Z</time></trkpt><trkpt lat="43.7957831" lon="6.2332389"><ele>486.33333333333337</ele><time>2026-05-02T11:04:13.983Z</time></trkpt><trkpt lat="43.7958412" lon="6.2334704"><ele>488.66666666666663</ele><time>2026-05-02T11:04:14.983Z</time></trkpt><trkpt lat="43.7958826" lon="6.2336896"><ele>491.0</ele><time>2026-05-02T11:04:15.983Z</time></trkpt><trkpt lat="43.7959045" lon="6.2339241"><ele>492.3333333333333</ele><time>2026-05-02T11:04:16.983Z</time></trkpt><trkpt lat="43.795866" lon="6.2341883"><ele>493.66666666666663</ele><time>2026-05-02T11:04:17.983Z</time></trkpt><trkpt lat="43.7958158" lon="6.2344217"><ele>495.0</ele><time>2026-05-02T11:04:18.982Z</time></trkpt><trkpt lat="43.7957525" lon="6.2346564"><ele>493.0</ele><time>2026-05-02T11:04:19.983Z</time></trkpt><trkpt lat="43.7956943" lon="6.2348932"><ele>491.0</ele><time>2026-05-02T11:04:20.983Z</time></trkpt><trkpt lat="43.7956294" lon="6.2351164"><ele>489.0</ele><time>2026-05-02T11:04:21.982Z</time></trkpt><trkpt lat="43.7955688" lon="6.2353381"><ele>489.0</ele><time>2026-05-02T11:04:22.982Z</time></trkpt><trkpt lat="43.7955055" lon="6.2355595"><ele>489.0</ele><time>2026-05-02T11:04:23.982Z</time></trkpt><trkpt lat="43.795447" lon="6.2357643"><ele>489.0</ele><time>2026-05-02T11:04:24.982Z</time></trkpt><trkpt lat="43.7954106" lon="6.2359633"><ele>488.75</ele><time>2026-05-02T11:04:25.983Z</time></trkpt><trkpt lat="43.7953882" lon="6.2361599"><ele>488.5</ele><time>2026-05-02T11:04:26.983Z</time></trkpt><trkpt lat="43.7953594" lon="6.2363507"><ele>488.25</ele><time>2026-05-02T11:04:27.983Z</time></trkpt><trkpt lat="43.7954315" lon="6.2365429"><ele>488.0</ele><time>2026-05-02T11:04:28.982Z</time></trkpt><trkpt lat="43.7954944" lon="6.2367279"><ele>488.0</ele><time>2026-05-02T11:04:29.983Z</time></trkpt><trkpt lat="43.7956338" lon="6.236885"><ele>488.0</ele><time>2026-05-02T11:04:30.983Z</time></trkpt><trkpt lat="43.7957764" lon="6.2370217"><ele>488.0</ele><time>2026-05-02T11:04:31.983Z</time></trkpt><trkpt lat="43.7959102" lon="6.2371287"><ele>486.66666666666663</ele><time>2026-05-02T11:04:32.982Z</time></trkpt><trkpt lat="43.7960627" lon="6.2372041"><ele>485.33333333333337</ele><time>2026-05-02T11:04:33.983Z</time></trkpt><trkpt lat="43.7962319" lon="6.2372861"><ele>484.0</ele><time>2026-05-02T11:04:34.983Z</time></trkpt><trkpt lat="43.7964036" lon="6.2373131"><ele>481.6666666666667</ele><time>2026-05-02T11:04:35.983Z</time></trkpt><trkpt lat="43.7965617" lon="6.2373475"><ele>479.33333333333337</ele><time>2026-05-02T11:04:36.982Z</time></trkpt><trkpt lat="43.7967179" lon="6.2374185"><ele>477.0</ele><time>2026-05-02T11:04:37.983Z</time></trkpt><trkpt lat="43.796862" lon="6.2375412"><ele>477.0</ele><time>2026-05-02T11:04:38.983Z</time></trkpt><trkpt lat="43.7969814" lon="6.2376845"><ele>477.0</ele><time>2026-05-02T11:04:39.983Z</time></trkpt><trkpt lat="43.7970564" lon="6.2378393"><ele>477.0</ele><time>2026-05-02T11:04:40.983Z</time></trkpt><trkpt lat="43.7971262" lon="6.2380455"><ele>479.33333333333337</ele><time>2026-05-02T11:04:41.982Z</time></trkpt><trkpt lat="43.7971704" lon="6.2382479"><ele>481.6666666666667</ele><time>2026-05-02T11:04:42.983Z</time></trkpt><trkpt lat="43.7972196" lon="6.2384533"><ele>484.0</ele><time>2026-05-02T11:04:43.983Z</time></trkpt><trkpt lat="43.7972216" lon="6.2386541"><ele>484.0</ele><time>2026-05-02T11:04:44.983Z</time></trkpt><trkpt lat="43.7971644" lon="6.2388959"><ele>484.0</ele><time>2026-05-02T11:04:45.983Z</time></trkpt><trkpt lat="43.7971288" lon="6.239131"><ele>484.0</ele><time>2026-05-02T11:04:46.982Z</time></trkpt><trkpt lat="43.7970981" lon="6.2393716"><ele>484.6666666666667</ele><time>2026-05-02T11:04:47.983Z</time></trkpt><trkpt lat="43.7970649" lon="6.2396138"><ele>485.33333333333337</ele><time>2026-05-02T11:04:48.982Z</time></trkpt><trkpt lat="43.7970546" lon="6.2398731"><ele>486.0</ele><time>2026-05-02T11:04:49.983Z</time></trkpt><trkpt lat="43.7970275" lon="6.2401199"><ele>486.0</ele><time>2026-05-02T11:04:50.983Z</time></trkpt><trkpt lat="43.7969978" lon="6.2403635"><ele>486.0</ele><time>2026-05-02T11:04:51.983Z</time></trkpt><trkpt lat="43.796976" lon="6.2405961"><ele>486.0</ele><time>2026-05-02T11:04:52.983Z</time></trkpt><trkpt lat="43.7969478" lon="6.240808"><ele>486.66666666666663</ele><time>2026-05-02T11:04:53.983Z</time></trkpt><trkpt lat="43.7969284" lon="6.2410286"><ele>487.3333333333333</ele><time>2026-05-02T11:04:54.982Z</time></trkpt><trkpt lat="43.7969055" lon="6.2412314"><ele>488.0</ele><time>2026-05-02T11:04:55.983Z</time></trkpt><trkpt lat="43.796873" lon="6.2414608"><ele>488.0</ele><time>2026-05-02T11:04:56.983Z</time></trkpt><trkpt lat="43.796857" lon="6.2416714"><ele>488.0</ele><time>2026-05-02T11:04:57.983Z</time></trkpt><trkpt lat="43.7968522" lon="6.2418648"><ele>488.0</ele><time>2026-05-02T11:04:58.983Z</time></trkpt><trkpt lat="43.7968417" lon="6.2420675"><ele>488.0</ele><time>2026-05-02T11:04:59.983Z</time></trkpt><trkpt lat="43.7968457" lon="6.2422689"><ele>489.0</ele><time>2026-05-02T11:05:00.983Z</time></trkpt><trkpt lat="43.7968702" lon="6.2424803"><ele>490.0</ele><time>2026-05-02T11:05:01.982Z</time></trkpt><trkpt lat="43.796898" lon="6.2426826"><ele>491.0</ele><time>2026-05-02T11:05:02.982Z</time></trkpt><trkpt lat="43.7969376" lon="6.2428892"><ele>491.0</ele><time>2026-05-02T11:05:03.983Z</time></trkpt><trkpt lat="43.7969912" lon="6.2430715"><ele>491.0</ele><time>2026-05-02T11:05:04.983Z</time></trkpt><trkpt lat="43.7970498" lon="6.243252"><ele>491.0</ele><time>2026-05-02T11:05:05.983Z</time></trkpt><trkpt lat="43.7971194" lon="6.24343"><ele>491.0</ele><time>2026-05-02T11:05:06.983Z</time></trkpt><trkpt lat="43.7972035" lon="6.2436191"><ele>492.66666666666663</ele><time>2026-05-02T11:05:07.982Z</time></trkpt><trkpt lat="43.7973308" lon="6.243774"><ele>494.33333333333337</ele><time>2026-05-02T11:05:08.983Z</time></trkpt><trkpt lat="43.7974423" lon="6.2439382"><ele>496.0</ele><time>2026-05-02T11:05:09.983Z</time></trkpt><trkpt lat="43.7975754" lon="6.2440533"><ele>495.0</ele><time>2026-05-02T11:05:10.982Z</time></trkpt><trkpt lat="43.7977103" lon="6.2441806"><ele>494.0</ele><time>2026-05-02T11:05:11.982Z</time></trkpt><trkpt lat="43.7978547" lon="6.2443088"><ele>493.0</ele><time>2026-05-02T11:05:12.983Z</time></trkpt><trkpt lat="43.7980037" lon="6.2444457"><ele>493.0</ele><time>2026-05-02T11:05:13.983Z</time></trkpt><trkpt lat="43.7981484" lon="6.2445524"><ele>493.0</ele><time>2026-05-02T11:05:14.983Z</time></trkpt><trkpt lat="43.7982939" lon="6.2446568"><ele>493.0</ele><time>2026-05-02T11:05:15.982Z</time></trkpt><trkpt lat="43.7984314" lon="6.2447751"><ele>492.6666666666667</ele><time>2026-05-02T11:05:16.982Z</time></trkpt><trkpt lat="43.798563" lon="6.2448675"><ele>492.33333333333337</ele><time>2026-05-02T11:05:17.983Z</time></trkpt><trkpt lat="43.798696" lon="6.2449778"><ele>492.0</ele><time>2026-05-02T11:05:18.982Z</time></trkpt><trkpt lat="43.7988348" lon="6.2450854"><ele>492.0</ele><time>2026-05-02T11:05:19.982Z</time></trkpt><trkpt lat="43.7989676" lon="6.2452039"><ele>492.0</ele><time>2026-05-02T11:05:20.982Z</time></trkpt><trkpt lat="43.7990995" lon="6.2453296"><ele>492.0</ele><time>2026-05-02T11:05:21.982Z</time></trkpt><trkpt lat="43.799223" lon="6.2454676"><ele>490.33333333333337</ele><time>2026-05-02T11:05:22.983Z</time></trkpt><trkpt lat="43.7993538" lon="6.2456086"><ele>488.6666666666667</ele><time>2026-05-02T11:05:23.983Z</time></trkpt><trkpt lat="43.7994783" lon="6.2457703"><ele>487.0</ele><time>2026-05-02T11:05:24.983Z</time></trkpt><trkpt lat="43.7996027" lon="6.2459303"><ele>487.0</ele><time>2026-05-02T11:05:25.983Z</time></trkpt><trkpt lat="43.799725" lon="6.2461018"><ele>487.0</ele><time>2026-05-02T11:05:26.982Z</time></trkpt><trkpt lat="43.799846" lon="6.2462618"><ele>487.0</ele><time>2026-05-02T11:05:27.983Z</time></trkpt><trkpt lat="43.7999712" lon="6.2464577"><ele>489.33333333333337</ele><time>2026-05-02T11:05:28.983Z</time></trkpt><trkpt lat="43.8000644" lon="6.2466454"><ele>491.66666666666663</ele><time>2026-05-02T11:05:29.982Z</time></trkpt><trkpt lat="43.8001584" lon="6.2468373"><ele>494.0</ele><time>2026-05-02T11:05:30.983Z</time></trkpt><trkpt lat="43.8002424" lon="6.2470265"><ele>491.3333333333333</ele><time>2026-05-02T11:05:31.982Z</time></trkpt><trkpt lat="43.8003328" lon="6.2472135"><ele>488.66666666666663</ele><time>2026-05-02T11:05:32.983Z</time></trkpt><trkpt lat="43.8004123" lon="6.2474092"><ele>486.0</ele><time>2026-05-02T11:05:33.982Z</time></trkpt><trkpt lat="43.8004909" lon="6.2475978"><ele>486.0</ele><time>2026-05-02T11:05:34.983Z</time></trkpt><trkpt lat="43.8005674" lon="6.2477802"><ele>486.0</ele><time>2026-05-02T11:05:35.983Z</time></trkpt><trkpt lat="43.8006405" lon="6.2479537"><ele>486.0</ele><time>2026-05-02T11:05:36.983Z</time></trkpt><trkpt lat="43.8007159" lon="6.2481289"><ele>486.0</ele><time>2026-05-02T11:05:37.983Z</time></trkpt><trkpt lat="43.8007764" lon="6.2482886"><ele>489.0</ele><time>2026-05-02T11:05:38.983Z</time></trkpt><trkpt lat="43.8008589" lon="6.2484573"><ele>492.0</ele><time>2026-05-02T11:05:39.983Z</time></trkpt><trkpt lat="43.8009282" lon="6.2486131"><ele>495.0</ele><time>2026-05-02T11:05:40.982Z</time></trkpt><trkpt lat="43.8009956" lon="6.2487691"><ele>498.0</ele><time>2026-05-02T11:05:41.983Z</time></trkpt><trkpt lat="43.8010632" lon="6.2489228"><ele>493.79999999999995</ele><time>2026-05-02T11:05:42.982Z</time></trkpt><trkpt lat="43.8011547" lon="6.2490494"><ele>489.59999999999997</ele><time>2026-05-02T11:05:43.982Z</time></trkpt><trkpt lat="43.8012496" lon="6.249135"><ele>485.40000000000003</ele><time>2026-05-02T11:05:44.982Z</time></trkpt><trkpt lat="43.8013369" lon="6.2491945"><ele>481.20000000000005</ele><time>2026-05-02T11:05:45.982Z</time></trkpt><trkpt lat="43.8014078" lon="6.2492452"><ele>477.0</ele><time>2026-05-02T11:05:46.982Z</time></trkpt><trkpt lat="43.8015039" lon="6.2493262"><ele>477.0</ele><time>2026-05-02T11:05:48.983Z</time></trkpt><trkpt lat="43.8015724" lon="6.2493769"><ele>477.0</ele><time>2026-05-02T11:05:51.983Z</time></trkpt><trkpt lat="43.8016483" lon="6.2494348"><ele>477.0</ele><time>2026-05-02T11:05:54.983Z</time></trkpt><trkpt lat="43.8017367" lon="6.2494821"><ele>477.0</ele><time>2026-05-02T11:05:56.983Z</time></trkpt><trkpt lat="43.8018209" lon="6.249529"><ele>477.0</ele><time>2026-05-02T11:05:58.983Z</time></trkpt><trkpt lat="43.8018829" lon="6.249579"><ele>477.0</ele><time>2026-05-02T11:06:00.983Z</time></trkpt><trkpt lat="43.8019634" lon="6.2496613"><ele>477.40000000000003</ele><time>2026-05-02T11:06:02.983Z</time></trkpt><trkpt lat="43.8020318" lon="6.2497104"><ele>477.80000000000007</ele><time>2026-05-02T11:06:04.983Z</time></trkpt><trkpt lat="43.8021317" lon="6.249765"><ele>478.2</ele><time>2026-05-02T11:06:06.983Z</time></trkpt><trkpt lat="43.8022353" lon="6.2498707"><ele>478.6</ele><time>2026-05-02T11:06:08.983Z</time></trkpt><trkpt lat="43.8023015" lon="6.2499267"><ele>479.0</ele><time>2026-05-02T11:06:09.983Z</time></trkpt><trkpt lat="43.8023749" lon="6.2499673"><ele>481.0</ele><time>2026-05-02T11:06:10.983Z</time></trkpt><trkpt lat="43.8024541" lon="6.2500006"><ele>483.0</ele><time>2026-05-02T11:06:11.983Z</time></trkpt><trkpt lat="43.8025485" lon="6.2500181"><ele>485.0</ele><time>2026-05-02T11:06:12.983Z</time></trkpt><trkpt lat="43.802646" lon="6.2500103"><ele>487.0</ele><time>2026-05-02T11:06:13.983Z</time></trkpt><trkpt lat="43.8027464" lon="6.2499583"><ele>489.0</ele><time>2026-05-02T11:06:14.983Z</time></trkpt><trkpt lat="43.8028472" lon="6.2498902"><ele>492.0</ele><time>2026-05-02T11:06:15.982Z</time></trkpt><trkpt lat="43.8029163" lon="6.2497559"><ele>495.0</ele><time>2026-05-02T11:06:16.982Z</time></trkpt><trkpt lat="43.8029827" lon="6.2496408"><ele>498.0</ele><time>2026-05-02T11:06:17.983Z</time></trkpt><trkpt lat="43.8030099" lon="6.2494811"><ele>501.0</ele><time>2026-05-02T11:06:18.983Z</time></trkpt><trkpt lat="43.8030398" lon="6.2493102"><ele>501.0</ele><time>2026-05-02T11:06:19.982Z</time></trkpt><trkpt lat="43.8030534" lon="6.2491442"><ele>501.0</ele><time>2026-05-02T11:06:20.983Z</time></trkpt><trkpt lat="43.8031002" lon="6.2489731"><ele>501.0</ele><time>2026-05-02T11:06:21.983Z</time></trkpt><trkpt lat="43.8031601" lon="6.2488151"><ele>501.0</ele><time>2026-05-02T11:06:22.983Z</time></trkpt><trkpt lat="43.8032751" lon="6.2486486"><ele>497.66666666666663</ele><time>2026-05-02T11:06:23.983Z</time></trkpt><trkpt lat="43.8033896" lon="6.2484891"><ele>494.3333333333333</ele><time>2026-05-02T11:06:24.983Z</time></trkpt><trkpt lat="43.8034974" lon="6.2483204"><ele>491.0</ele><time>2026-05-02T11:06:25.983Z</time></trkpt><trkpt lat="43.8036026" lon="6.2481343"><ele>490.3333333333333</ele><time>2026-05-02T11:06:26.983Z</time></trkpt><trkpt lat="43.8037184" lon="6.2479453"><ele>489.66666666666663</ele><time>2026-05-02T11:06:27.983Z</time></trkpt><trkpt lat="43.8038222" lon="6.2477534"><ele>489.0</ele><time>2026-05-02T11:06:28.983Z</time></trkpt><trkpt lat="43.8039098" lon="6.2475463"><ele>489.0</ele><time>2026-05-02T11:06:29.982Z</time></trkpt><trkpt lat="43.8039729" lon="6.2473076"><ele>489.0</ele><time>2026-05-02T11:06:30.983Z</time></trkpt><trkpt lat="43.8040235" lon="6.2470548"><ele>489.0</ele><time>2026-05-02T11:06:31.982Z</time></trkpt><trkpt lat="43.8040721" lon="6.2468019"><ele>488.0</ele><time>2026-05-02T11:06:32.983Z</time></trkpt><trkpt lat="43.8040922" lon="6.2465226"><ele>487.0</ele><time>2026-05-02T11:06:33.983Z</time></trkpt><trkpt lat="43.8041143" lon="6.2462638"><ele>486.0</ele><time>2026-05-02T11:06:34.982Z</time></trkpt><trkpt lat="43.8041406" lon="6.2459756"><ele>486.0</ele><time>2026-05-02T11:06:35.983Z</time></trkpt><trkpt lat="43.8041747" lon="6.2456802"><ele>486.0</ele><time>2026-05-02T11:06:36.983Z</time></trkpt><trkpt lat="43.8041919" lon="6.2453744"><ele>486.0</ele><time>2026-05-02T11:06:37.982Z</time></trkpt><trkpt lat="43.8042384" lon="6.2451214"><ele>486.0</ele><time>2026-05-02T11:06:38.983Z</time></trkpt><trkpt lat="43.8042603" lon="6.2448441"><ele>486.0</ele><time>2026-05-02T11:06:39.983Z</time></trkpt><trkpt lat="43.8042618" lon="6.2445583"><ele>486.0</ele><time>2026-05-02T11:06:40.983Z</time></trkpt><trkpt lat="43.8042513" lon="6.2442904"><ele>487.66666666666663</ele><time>2026-05-02T11:06:41.983Z</time></trkpt><trkpt lat="43.804232" lon="6.2440081"><ele>489.3333333333333</ele><time>2026-05-02T11:06:42.983Z</time></trkpt><trkpt lat="43.8042012" lon="6.24373"><ele>491.0</ele><time>2026-05-02T11:06:43.983Z</time></trkpt><trkpt lat="43.8041883" lon="6.243458"><ele>492.3333333333333</ele><time>2026-05-02T11:06:44.983Z</time></trkpt><trkpt lat="43.8041831" lon="6.2431691"><ele>493.66666666666663</ele><time>2026-05-02T11:06:45.983Z</time></trkpt><trkpt lat="43.8042003" lon="6.2429019"><ele>495.0</ele><time>2026-05-02T11:06:46.982Z</time></trkpt><trkpt lat="43.8042194" lon="6.2426366"><ele>495.66666666666663</ele><time>2026-05-02T11:06:47.983Z</time></trkpt><trkpt lat="43.8042353" lon="6.2423703"><ele>496.3333333333333</ele><time>2026-05-02T11:06:48.983Z</time></trkpt><trkpt lat="43.8042604" lon="6.2421119"><ele>497.0</ele><time>2026-05-02T11:06:49.982Z</time></trkpt><trkpt lat="43.8042795" lon="6.241849"><ele>497.66666666666663</ele><time>2026-05-02T11:06:50.982Z</time></trkpt><trkpt lat="43.8042871" lon="6.2415871"><ele>498.33333333333337</ele><time>2026-05-02T11:06:51.983Z</time></trkpt><trkpt lat="43.8042818" lon="6.24133"><ele>499.0</ele><time>2026-05-02T11:06:52.983Z</time></trkpt><trkpt lat="43.8042774" lon="6.2410721"><ele>501.33333333333337</ele><time>2026-05-02T11:06:53.983Z</time></trkpt><trkpt lat="43.8042539" lon="6.240817"><ele>503.66666666666663</ele><time>2026-05-02T11:06:54.983Z</time></trkpt><trkpt lat="43.8042228" lon="6.2405809"><ele>506.0</ele><time>2026-05-02T11:06:55.983Z</time></trkpt><trkpt lat="43.8041876" lon="6.2403464"><ele>507.3333333333333</ele><time>2026-05-02T11:06:56.982Z</time></trkpt><trkpt lat="43.8041498" lon="6.2401074"><ele>508.66666666666663</ele><time>2026-05-02T11:06:57.983Z</time></trkpt><trkpt lat="43.8041367" lon="6.2398783"><ele>510.0</ele><time>2026-05-02T11:06:58.982Z</time></trkpt><trkpt lat="43.8041225" lon="6.2396474"><ele>510.0</ele><time>2026-05-02T11:06:59.983Z</time></trkpt><trkpt lat="43.8041184" lon="6.2394209"><ele>510.0</ele><time>2026-05-02T11:07:00.983Z</time></trkpt><trkpt lat="43.804144" lon="6.2391666"><ele>510.0</ele><time>2026-05-02T11:07:01.983Z</time></trkpt><trkpt lat="43.8041795" lon="6.2389272"><ele>510.33333333333337</ele><time>2026-05-02T11:07:02.983Z</time></trkpt><trkpt lat="43.8041994" lon="6.2386898"><ele>510.6666666666667</ele><time>2026-05-02T11:07:03.983Z</time></trkpt><trkpt lat="43.8042449" lon="6.2384557"><ele>511.0</ele><time>2026-05-02T11:07:04.983Z</time></trkpt><trkpt lat="43.8042867" lon="6.2382292"><ele>513.0</ele><time>2026-05-02T11:07:05.982Z</time></trkpt><trkpt lat="43.8043062" lon="6.2380053"><ele>515.0</ele><time>2026-05-02T11:07:06.982Z</time></trkpt><trkpt lat="43.8043127" lon="6.2377577"><ele>517.0</ele><time>2026-05-02T11:07:07.982Z</time></trkpt><trkpt lat="43.8043091" lon="6.2375339"><ele>520.3333333333334</ele><time>2026-05-02T11:07:08.983Z</time></trkpt><trkpt lat="43.8042722" lon="6.2372983"><ele>523.6666666666666</ele><time>2026-05-02T11:07:09.982Z</time></trkpt><trkpt lat="43.8042211" lon="6.2370886"><ele>527.0</ele><time>2026-05-02T11:07:10.983Z</time></trkpt><trkpt lat="43.8041518" lon="6.2368786"><ele>527.0</ele><time>2026-05-02T11:07:11.983Z</time></trkpt><trkpt lat="43.8040577" lon="6.2366671"><ele>527.0</ele><time>2026-05-02T11:07:12.983Z</time></trkpt><trkpt lat="43.8039688" lon="6.2364731"><ele>527.0</ele><time>2026-05-02T11:07:13.983Z</time></trkpt><trkpt lat="43.8038776" lon="6.2362893"><ele>529.75</ele><time>2026-05-02T11:07:14.982Z</time></trkpt><trkpt lat="43.803798" lon="6.2361179"><ele>532.5</ele><time>2026-05-02T11:07:15.983Z</time></trkpt><trkpt lat="43.8037084" lon="6.2359418"><ele>535.25</ele><time>2026-05-02T11:07:16.983Z</time></trkpt><trkpt lat="43.8036234" lon="6.2357815"><ele>538.0</ele><time>2026-05-02T11:07:17.983Z</time></trkpt><trkpt lat="43.8035403" lon="6.2356137"><ele>535.0</ele><time>2026-05-02T11:07:18.983Z</time></trkpt><trkpt lat="43.8034507" lon="6.2354342"><ele>532.0</ele><time>2026-05-02T11:07:19.983Z</time></trkpt><trkpt lat="43.8033722" lon="6.2352665"><ele>529.0</ele><time>2026-05-02T11:07:20.982Z</time></trkpt><trkpt lat="43.8033011" lon="6.2350937"><ele>526.0</ele><time>2026-05-02T11:07:21.983Z</time></trkpt><trkpt lat="43.8032834" lon="6.234872"><ele>528.0</ele><time>2026-05-02T11:07:22.982Z</time></trkpt><trkpt lat="43.8032597" lon="6.234662"><ele>530.0</ele><time>2026-05-02T11:07:23.983Z</time></trkpt><trkpt lat="43.8033" lon="6.2344683"><ele>532.0</ele><time>2026-05-02T11:07:24.983Z</time></trkpt><trkpt lat="43.80336" lon="6.2342643"><ele>532.0</ele><time>2026-05-02T11:07:25.983Z</time></trkpt><trkpt lat="43.8034363" lon="6.2341093"><ele>532.0</ele><time>2026-05-02T11:07:26.983Z</time></trkpt><trkpt lat="43.8035886" lon="6.2339459"><ele>532.0</ele><time>2026-05-02T11:07:27.983Z</time></trkpt><trkpt lat="43.803722" lon="6.2338375"><ele>529.3333333333334</ele><time>2026-05-02T11:07:28.983Z</time></trkpt><trkpt lat="43.8038643" lon="6.2337288"><ele>526.6666666666666</ele><time>2026-05-02T11:07:29.983Z</time></trkpt><trkpt lat="43.8040355" lon="6.2337345"><ele>524.0</ele><time>2026-05-02T11:07:30.983Z</time></trkpt><trkpt lat="43.8042022" lon="6.2337377"><ele>522.3333333333333</ele><time>2026-05-02T11:07:31.983Z</time></trkpt><trkpt lat="43.8043722" lon="6.2337957"><ele>520.6666666666666</ele><time>2026-05-02T11:07:32.983Z</time></trkpt><trkpt lat="43.8045465" lon="6.2338668"><ele>519.0</ele><time>2026-05-02T11:07:33.982Z</time></trkpt><trkpt lat="43.804718" lon="6.2339408"><ele>520.3333333333334</ele><time>2026-05-02T11:07:34.983Z</time></trkpt><trkpt lat="43.8048867" lon="6.2340105"><ele>521.6666666666667</ele><time>2026-05-02T11:07:35.983Z</time></trkpt><trkpt lat="43.8050374" lon="6.2340621"><ele>523.0</ele><time>2026-05-02T11:07:36.983Z</time></trkpt><trkpt lat="43.805192" lon="6.2341069"><ele>523.0</ele><time>2026-05-02T11:07:37.983Z</time></trkpt><trkpt lat="43.8053468" lon="6.2341522"><ele>523.0</ele><time>2026-05-02T11:07:38.982Z</time></trkpt><trkpt lat="43.80548" lon="6.2341812"><ele>523.0</ele><time>2026-05-02T11:07:39.983Z</time></trkpt><trkpt lat="43.8056191" lon="6.2342185"><ele>523.0</ele><time>2026-05-02T11:07:40.983Z</time></trkpt><trkpt lat="43.805762" lon="6.2342633"><ele>523.0</ele><time>2026-05-02T11:07:41.983Z</time></trkpt><trkpt lat="43.8059119" lon="6.2343114"><ele>523.0</ele><time>2026-05-02T11:07:42.983Z</time></trkpt><trkpt lat="43.8060794" lon="6.2343579"><ele>523.0</ele><time>2026-05-02T11:07:43.983Z</time></trkpt><trkpt lat="43.8062407" lon="6.2344075"><ele>522.6666666666667</ele><time>2026-05-02T11:07:44.983Z</time></trkpt><trkpt lat="43.8064066" lon="6.2344827"><ele>522.3333333333334</ele><time>2026-05-02T11:07:45.983Z</time></trkpt><trkpt lat="43.8065728" lon="6.2345443"><ele>522.0</ele><time>2026-05-02T11:07:46.983Z</time></trkpt><trkpt lat="43.8067491" lon="6.2346156"><ele>520.6666666666666</ele><time>2026-05-02T11:07:47.982Z</time></trkpt><trkpt lat="43.806926" lon="6.2346692"><ele>519.3333333333333</ele><time>2026-05-02T11:07:48.983Z</time></trkpt><trkpt lat="43.8070951" lon="6.2347318"><ele>518.0</ele><time>2026-05-02T11:07:49.983Z</time></trkpt><trkpt lat="43.8072554" lon="6.2348009"><ele>519.6666666666666</ele><time>2026-05-02T11:07:50.983Z</time></trkpt><trkpt lat="43.807428" lon="6.234837"><ele>521.3333333333334</ele><time>2026-05-02T11:07:51.983Z</time></trkpt><trkpt lat="43.8075962" lon="6.2348451"><ele>523.0</ele><time>2026-05-02T11:07:52.982Z</time></trkpt><trkpt lat="43.807763" lon="6.2348474"><ele>523.3333333333334</ele><time>2026-05-02T11:07:53.982Z</time></trkpt><trkpt lat="43.8079347" lon="6.2348255"><ele>523.6666666666666</ele><time>2026-05-02T11:07:54.982Z</time></trkpt><trkpt lat="43.8080907" lon="6.2347104"><ele>524.0</ele><time>2026-05-02T11:07:55.983Z</time></trkpt><trkpt lat="43.8082255" lon="6.2345505"><ele>521.3333333333333</ele><time>2026-05-02T11:07:56.983Z</time></trkpt><trkpt lat="43.8083732" lon="6.2343875"><ele>518.6666666666666</ele><time>2026-05-02T11:07:57.983Z</time></trkpt><trkpt lat="43.8085096" lon="6.2341951"><ele>516.0</ele><time>2026-05-02T11:07:58.983Z</time></trkpt><trkpt lat="43.8086449" lon="6.2340389"><ele>514.6666666666666</ele><time>2026-05-02T11:07:59.983Z</time></trkpt><trkpt lat="43.8087521" lon="6.2338309"><ele>513.3333333333333</ele><time>2026-05-02T11:08:00.983Z</time></trkpt><trkpt lat="43.8088263" lon="6.2336144"><ele>512.0</ele><time>2026-05-02T11:08:01.983Z</time></trkpt><trkpt lat="43.8088659" lon="6.2333757"><ele>513.0</ele><time>2026-05-02T11:08:02.983Z</time></trkpt><trkpt lat="43.8087641" lon="6.2330706"><ele>514.0</ele><time>2026-05-02T11:08:03.983Z</time></trkpt><trkpt lat="43.8086847" lon="6.2328109"><ele>515.0</ele><time>2026-05-02T11:08:04.983Z</time></trkpt><trkpt lat="43.8085764" lon="6.2325219"><ele>516.0</ele><time>2026-05-02T11:08:05.982Z</time></trkpt><trkpt lat="43.8084965" lon="6.2322829"><ele>517.0</ele><time>2026-05-02T11:08:06.982Z</time></trkpt><trkpt lat="43.8084141" lon="6.2320337"><ele>518.0</ele><time>2026-05-02T11:08:07.983Z</time></trkpt><trkpt lat="43.8083513" lon="6.231792"><ele>512.6666666666666</ele><time>2026-05-02T11:08:08.983Z</time></trkpt><trkpt lat="43.8083001" lon="6.2315521"><ele>507.33333333333337</ele><time>2026-05-02T11:08:09.983Z</time></trkpt><trkpt lat="43.8082589" lon="6.2313182"><ele>502.0</ele><time>2026-05-02T11:08:10.983Z</time></trkpt><trkpt lat="43.8082378" lon="6.2310822"><ele>501.0</ele><time>2026-05-02T11:08:11.982Z</time></trkpt><trkpt lat="43.8082136" lon="6.2308394"><ele>500.0</ele><time>2026-05-02T11:08:12.983Z</time></trkpt><trkpt lat="43.8081976" lon="6.230595"><ele>499.0</ele><time>2026-05-02T11:08:13.983Z</time></trkpt><trkpt lat="43.8082119" lon="6.2303523"><ele>496.6666666666667</ele><time>2026-05-02T11:08:14.983Z</time></trkpt><trkpt lat="43.8082329" lon="6.2300948"><ele>494.33333333333337</ele><time>2026-05-02T11:08:15.983Z</time></trkpt><trkpt lat="43.808288" lon="6.2298536"><ele>492.0</ele><time>2026-05-02T11:08:16.983Z</time></trkpt><trkpt lat="43.8083815" lon="6.2296383"><ele>491.66666666666663</ele><time>2026-05-02T11:08:17.983Z</time></trkpt><trkpt lat="43.8084685" lon="6.2294303"><ele>491.3333333333333</ele><time>2026-05-02T11:08:18.982Z</time></trkpt><trkpt lat="43.8085641" lon="6.2292141"><ele>491.0</ele><time>2026-05-02T11:08:19.983Z</time></trkpt><trkpt lat="43.8087106" lon="6.2290269"><ele>488.66666666666663</ele><time>2026-05-02T11:08:20.983Z</time></trkpt><trkpt lat="43.8088391" lon="6.2288344"><ele>486.33333333333337</ele><time>2026-05-02T11:08:21.982Z</time></trkpt><trkpt lat="43.8089727" lon="6.2286628"><ele>484.0</ele><time>2026-05-02T11:08:22.982Z</time></trkpt><trkpt lat="43.8091396" lon="6.2285273"><ele>485.0</ele><time>2026-05-02T11:08:23.983Z</time></trkpt><trkpt lat="43.8093395" lon="6.2284516"><ele>486.0</ele><time>2026-05-02T11:08:24.983Z</time></trkpt><trkpt lat="43.8095246" lon="6.2283869"><ele>487.0</ele><time>2026-05-02T11:08:25.983Z</time></trkpt><trkpt lat="43.8097132" lon="6.2282985"><ele>487.0</ele><time>2026-05-02T11:08:26.982Z</time></trkpt><trkpt lat="43.8099083" lon="6.2282122"><ele>487.0</ele><time>2026-05-02T11:08:27.983Z</time></trkpt><trkpt lat="43.8100966" lon="6.2281277"><ele>487.0</ele><time>2026-05-02T11:08:28.983Z</time></trkpt><trkpt lat="43.8102874" lon="6.2280383"><ele>487.0</ele><time>2026-05-02T11:08:29.983Z</time></trkpt><trkpt lat="43.8104802" lon="6.227974"><ele>487.0</ele><time>2026-05-02T11:08:30.983Z</time></trkpt><trkpt lat="43.8106614" lon="6.2278926"><ele>487.0</ele><time>2026-05-02T11:08:31.983Z</time></trkpt><trkpt lat="43.8108457" lon="6.227817"><ele>489.0</ele><time>2026-05-02T11:08:32.983Z</time></trkpt><trkpt lat="43.8110304" lon="6.2277363"><ele>491.0</ele><time>2026-05-02T11:08:33.983Z</time></trkpt><trkpt lat="43.8112137" lon="6.2276601"><ele>493.0</ele><time>2026-05-02T11:08:34.983Z</time></trkpt><trkpt lat="43.8113946" lon="6.227583"><ele>493.0</ele><time>2026-05-02T11:08:35.983Z</time></trkpt><trkpt lat="43.8115731" lon="6.2275016"><ele>493.0</ele><time>2026-05-02T11:08:36.983Z</time></trkpt><trkpt lat="43.8117695" lon="6.2274089"><ele>493.0</ele><time>2026-05-02T11:08:37.982Z</time></trkpt><trkpt lat="43.811948" lon="6.2273253"><ele>491.33333333333337</ele><time>2026-05-02T11:08:38.983Z</time></trkpt><trkpt lat="43.8121224" lon="6.2272377"><ele>489.66666666666663</ele><time>2026-05-02T11:08:39.983Z</time></trkpt><trkpt lat="43.8122973" lon="6.2271375"><ele>488.0</ele><time>2026-05-02T11:08:40.983Z</time></trkpt><trkpt lat="43.8124722" lon="6.2270197"><ele>488.0</ele><time>2026-05-02T11:08:41.983Z</time></trkpt><trkpt lat="43.8126342" lon="6.2268979"><ele>488.0</ele><time>2026-05-02T11:08:42.982Z</time></trkpt><trkpt lat="43.8128095" lon="6.2267583"><ele>488.0</ele><time>2026-05-02T11:08:43.983Z</time></trkpt><trkpt lat="43.8129805" lon="6.2266289"><ele>488.0</ele><time>2026-05-02T11:08:44.983Z</time></trkpt><trkpt lat="43.8131612" lon="6.2265161"><ele>488.0</ele><time>2026-05-02T11:08:45.983Z</time></trkpt><trkpt lat="43.8133355" lon="6.2263999"><ele>488.0</ele><time>2026-05-02T11:08:46.983Z</time></trkpt><trkpt lat="43.8135082" lon="6.2263256"><ele>489.0</ele><time>2026-05-02T11:08:47.983Z</time></trkpt><trkpt lat="43.8137121" lon="6.226302"><ele>490.0</ele><time>2026-05-02T11:08:48.983Z</time></trkpt><trkpt lat="43.813908" lon="6.2263212"><ele>491.0</ele><time>2026-05-02T11:08:49.983Z</time></trkpt><trkpt lat="43.8140988" lon="6.226316"><ele>491.3333333333333</ele><time>2026-05-02T11:08:50.983Z</time></trkpt><trkpt lat="43.8143236" lon="6.2263401"><ele>491.66666666666663</ele><time>2026-05-02T11:08:51.983Z</time></trkpt><trkpt lat="43.8145232" lon="6.2263663"><ele>492.0</ele><time>2026-05-02T11:08:52.983Z</time></trkpt><trkpt lat="43.8147272" lon="6.2263609"><ele>492.0</ele><time>2026-05-02T11:08:53.983Z</time></trkpt><trkpt lat="43.814921" lon="6.2263916"><ele>492.0</ele><time>2026-05-02T11:08:54.983Z</time></trkpt><trkpt lat="43.8151272" lon="6.2264012"><ele>492.0</ele><time>2026-05-02T11:08:55.983Z</time></trkpt><trkpt lat="43.8153355" lon="6.2264153"><ele>491.66666666666663</ele><time>2026-05-02T11:08:56.983Z</time></trkpt><trkpt lat="43.8155294" lon="6.2264338"><ele>491.3333333333333</ele><time>2026-05-02T11:08:57.983Z</time></trkpt><trkpt lat="43.8157146" lon="6.2264529"><ele>491.0</ele><time>2026-05-02T11:08:58.983Z</time></trkpt><trkpt lat="43.8159199" lon="6.2264685"><ele>494.3333333333333</ele><time>2026-05-02T11:08:59.983Z</time></trkpt><trkpt lat="43.8161087" lon="6.2264789"><ele>497.66666666666663</ele><time>2026-05-02T11:09:00.982Z</time></trkpt><trkpt lat="43.8163046" lon="6.2264963"><ele>501.0</ele><time>2026-05-02T11:09:01.982Z</time></trkpt><trkpt lat="43.8164898" lon="6.2265317"><ele>501.0</ele><time>2026-05-02T11:09:02.983Z</time></trkpt><trkpt lat="43.816698" lon="6.2265733"><ele>501.0</ele><time>2026-05-02T11:09:03.983Z</time></trkpt><trkpt lat="43.8169046" lon="6.226535"><ele>501.0</ele><time>2026-05-02T11:09:04.982Z</time></trkpt><trkpt lat="43.817106" lon="6.226541"><ele>502.0</ele><time>2026-05-02T11:09:05.983Z</time></trkpt><trkpt lat="43.8172916" lon="6.2265507"><ele>503.0</ele><time>2026-05-02T11:09:06.983Z</time></trkpt><trkpt lat="43.8174813" lon="6.2265612"><ele>504.0</ele><time>2026-05-02T11:09:07.982Z</time></trkpt><trkpt lat="43.8176712" lon="6.2265602"><ele>504.66666666666663</ele><time>2026-05-02T11:09:08.982Z</time></trkpt><trkpt lat="43.8178605" lon="6.2265809"><ele>505.3333333333333</ele><time>2026-05-02T11:09:09.982Z</time></trkpt><trkpt lat="43.8180569" lon="6.2265791"><ele>506.0</ele><time>2026-05-02T11:09:10.983Z</time></trkpt><trkpt lat="43.8182298" lon="6.2265977"><ele>506.0</ele><time>2026-05-02T11:09:11.983Z</time></trkpt><trkpt lat="43.818416" lon="6.2265993"><ele>506.0</ele><time>2026-05-02T11:09:12.983Z</time></trkpt><trkpt lat="43.8186016" lon="6.226613"><ele>506.0</ele><time>2026-05-02T11:09:13.983Z</time></trkpt><trkpt lat="43.8187998" lon="6.2266323"><ele>506.66666666666663</ele><time>2026-05-02T11:09:14.983Z</time></trkpt><trkpt lat="43.8189789" lon="6.2266617"><ele>507.33333333333337</ele><time>2026-05-02T11:09:15.983Z</time></trkpt><trkpt lat="43.8191585" lon="6.2266817"><ele>508.0</ele><time>2026-05-02T11:09:16.982Z</time></trkpt><trkpt lat="43.8193378" lon="6.2266987"><ele>508.6666666666667</ele><time>2026-05-02T11:09:17.982Z</time></trkpt><trkpt lat="43.8195143" lon="6.2267068"><ele>509.33333333333337</ele><time>2026-05-02T11:09:18.983Z</time></trkpt><trkpt lat="43.8197032" lon="6.2266948"><ele>510.0</ele><time>2026-05-02T11:09:19.983Z</time></trkpt><trkpt lat="43.8198922" lon="6.2266557"><ele>510.0</ele><time>2026-05-02T11:09:20.983Z</time></trkpt><trkpt lat="43.8200782" lon="6.2266072"><ele>510.0</ele><time>2026-05-02T11:09:21.983Z</time></trkpt><trkpt lat="43.8202638" lon="6.2265108"><ele>510.0</ele><time>2026-05-02T11:09:22.983Z</time></trkpt><trkpt lat="43.82045" lon="6.2264039"><ele>509.0</ele><time>2026-05-02T11:09:23.983Z</time></trkpt><trkpt lat="43.82064" lon="6.2262881"><ele>508.0</ele><time>2026-05-02T11:09:24.982Z</time></trkpt><trkpt lat="43.8208383" lon="6.226175"><ele>507.0</ele><time>2026-05-02T11:09:25.982Z</time></trkpt><trkpt lat="43.8210242" lon="6.2260555"><ele>510.33333333333337</ele><time>2026-05-02T11:09:26.983Z</time></trkpt><trkpt lat="43.8212234" lon="6.2259369"><ele>513.6666666666667</ele><time>2026-05-02T11:09:27.983Z</time></trkpt><trkpt lat="43.8214184" lon="6.2258052"><ele>517.0</ele><time>2026-05-02T11:09:28.983Z</time></trkpt><trkpt lat="43.821615" lon="6.2256801"><ele>515.0</ele><time>2026-05-02T11:09:29.983Z</time></trkpt><trkpt lat="43.8218097" lon="6.2255503"><ele>513.0</ele><time>2026-05-02T11:09:30.982Z</time></trkpt><trkpt lat="43.8220122" lon="6.2254121"><ele>511.0</ele><time>2026-05-02T11:09:31.982Z</time></trkpt><trkpt lat="43.822207" lon="6.2252843"><ele>511.0</ele><time>2026-05-02T11:09:32.983Z</time></trkpt><trkpt lat="43.8223957" lon="6.2251817"><ele>511.0</ele><time>2026-05-02T11:09:33.983Z</time></trkpt><trkpt lat="43.8225604" lon="6.2250527"><ele>511.0</ele><time>2026-05-02T11:09:34.983Z</time></trkpt><trkpt lat="43.822729" lon="6.2249467"><ele>510.0</ele><time>2026-05-02T11:09:35.983Z</time></trkpt><trkpt lat="43.8229104" lon="6.2248442"><ele>509.0</ele><time>2026-05-02T11:09:36.983Z</time></trkpt><trkpt lat="43.8230769" lon="6.2247223"><ele>508.0</ele><time>2026-05-02T11:09:37.983Z</time></trkpt><trkpt lat="43.8232664" lon="6.2246448"><ele>508.0</ele><time>2026-05-02T11:09:38.983Z</time></trkpt><trkpt lat="43.823422" lon="6.2245581"><ele>508.0</ele><time>2026-05-02T11:09:39.983Z</time></trkpt><trkpt lat="43.8235724" lon="6.224486"><ele>508.0</ele><time>2026-05-02T11:09:40.983Z</time></trkpt><trkpt lat="43.8237582" lon="6.2244405"><ele>509.0</ele><time>2026-05-02T11:09:41.983Z</time></trkpt><trkpt lat="43.823936" lon="6.2244145"><ele>510.0</ele><time>2026-05-02T11:09:42.982Z</time></trkpt><trkpt lat="43.8241402" lon="6.2244482"><ele>511.0</ele><time>2026-05-02T11:09:43.983Z</time></trkpt><trkpt lat="43.824314" lon="6.2245204"><ele>512.0</ele><time>2026-05-02T11:09:44.982Z</time></trkpt><trkpt lat="43.8244894" lon="6.2245806"><ele>513.0</ele><time>2026-05-02T11:09:45.982Z</time></trkpt><trkpt lat="43.8246671" lon="6.2246311"><ele>514.0</ele><time>2026-05-02T11:09:46.983Z</time></trkpt><trkpt lat="43.8248539" lon="6.2246653"><ele>514.0</ele><time>2026-05-02T11:09:47.983Z</time></trkpt><trkpt lat="43.8250287" lon="6.2246967"><ele>514.0</ele><time>2026-05-02T11:09:48.982Z</time></trkpt><trkpt lat="43.8252061" lon="6.2247156"><ele>514.0</ele><time>2026-05-02T11:09:49.983Z</time></trkpt><trkpt lat="43.8253785" lon="6.2247244"><ele>514.6666666666667</ele><time>2026-05-02T11:09:50.983Z</time></trkpt><trkpt lat="43.8255564" lon="6.2247423"><ele>515.3333333333334</ele><time>2026-05-02T11:09:51.983Z</time></trkpt><trkpt lat="43.8257025" lon="6.2247472"><ele>516.0</ele><time>2026-05-02T11:09:52.983Z</time></trkpt><trkpt lat="43.8258504" lon="6.2247608"><ele>517.25</ele><time>2026-05-02T11:09:53.983Z</time></trkpt><trkpt lat="43.8259922" lon="6.2247638"><ele>518.5</ele><time>2026-05-02T11:09:54.983Z</time></trkpt><trkpt lat="43.8261389" lon="6.2247623"><ele>519.75</ele><time>2026-05-02T11:09:55.983Z</time></trkpt><trkpt lat="43.8262811" lon="6.2247504"><ele>521.0</ele><time>2026-05-02T11:09:56.983Z</time></trkpt><trkpt lat="43.8264199" lon="6.2247442"><ele>521.0</ele><time>2026-05-02T11:09:57.982Z</time></trkpt><trkpt lat="43.826566" lon="6.224728"><ele>521.0</ele><time>2026-05-02T11:09:58.983Z</time></trkpt><trkpt lat="43.8267168" lon="6.2247187"><ele>521.0</ele><time>2026-05-02T11:09:59.983Z</time></trkpt><trkpt lat="43.8268625" lon="6.224691"><ele>521.0</ele><time>2026-05-02T11:10:00.983Z</time></trkpt><trkpt lat="43.8270072" lon="6.2246662"><ele>522.25</ele><time>2026-05-02T11:10:01.983Z</time></trkpt><trkpt lat="43.8271491" lon="6.2246525"><ele>523.5</ele><time>2026-05-02T11:10:02.983Z</time></trkpt><trkpt lat="43.8272871" lon="6.2246253"><ele>524.75</ele><time>2026-05-02T11:10:03.983Z</time></trkpt><trkpt lat="43.8274192" lon="6.2246051"><ele>526.0</ele><time>2026-05-02T11:10:04.982Z</time></trkpt><trkpt lat="43.8275459" lon="6.2245988"><ele>526.0</ele><time>2026-05-02T11:10:05.983Z</time></trkpt><trkpt lat="43.8276315" lon="6.2246064"><ele>526.0</ele><time>2026-05-02T11:10:06.983Z</time></trkpt><trkpt lat="43.8277236" lon="6.2246155"><ele>526.0</ele><time>2026-05-02T11:10:07.983Z</time></trkpt><trkpt lat="43.8278065" lon="6.2246528"><ele>526.0</ele><time>2026-05-02T11:10:08.983Z</time></trkpt><trkpt lat="43.8278818" lon="6.2247139"><ele>526.0</ele><time>2026-05-02T11:10:09.983Z</time></trkpt><trkpt lat="43.8279613" lon="6.2247583"><ele>526.0</ele><time>2026-05-02T11:10:10.983Z</time></trkpt><trkpt lat="43.8280386" lon="6.2248086"><ele>525.6</ele><time>2026-05-02T11:10:11.983Z</time></trkpt><trkpt lat="43.8281166" lon="6.2247871"><ele>525.2</ele><time>2026-05-02T11:10:12.983Z</time></trkpt><trkpt lat="43.8282081" lon="6.224775"><ele>524.8</ele><time>2026-05-02T11:10:13.983Z</time></trkpt><trkpt lat="43.828306" lon="6.2247787"><ele>524.4</ele><time>2026-05-02T11:10:14.983Z</time></trkpt><trkpt lat="43.8284429" lon="6.2247728"><ele>524.0</ele><time>2026-05-02T11:10:15.983Z</time></trkpt><trkpt lat="43.8285532" lon="6.2247756"><ele>523.5</ele><time>2026-05-02T11:10:16.983Z</time></trkpt><trkpt lat="43.8286784" lon="6.2247993"><ele>523.0</ele><time>2026-05-02T11:10:17.983Z</time></trkpt><trkpt lat="43.8288103" lon="6.2248204"><ele>522.5</ele><time>2026-05-02T11:10:18.983Z</time></trkpt><trkpt lat="43.8289521" lon="6.2248479"><ele>522.0</ele><time>2026-05-02T11:10:19.983Z</time></trkpt><trkpt lat="43.8290816" lon="6.2248675"><ele>522.0</ele><time>2026-05-02T11:10:20.983Z</time></trkpt><trkpt lat="43.8292125" lon="6.2248916"><ele>522.0</ele><time>2026-05-02T11:10:21.983Z</time></trkpt><trkpt lat="43.8293293" lon="6.2249037"><ele>522.0</ele><time>2026-05-02T11:10:22.982Z</time></trkpt><trkpt lat="43.8294608" lon="6.2249432"><ele>522.0</ele><time>2026-05-02T11:10:23.983Z</time></trkpt><trkpt lat="43.8295936" lon="6.22497"><ele>521.75</ele><time>2026-05-02T11:10:24.983Z</time></trkpt><trkpt lat="43.8297155" lon="6.2249808"><ele>521.5</ele><time>2026-05-02T11:10:25.983Z</time></trkpt><trkpt lat="43.829842" lon="6.2249914"><ele>521.25</ele><time>2026-05-02T11:10:26.983Z</time></trkpt><trkpt lat="43.8299655" lon="6.2250168"><ele>521.0</ele><time>2026-05-02T11:10:27.983Z</time></trkpt><trkpt lat="43.8300955" lon="6.2250335"><ele>522.5</ele><time>2026-05-02T11:10:28.983Z</time></trkpt><trkpt lat="43.8302145" lon="6.2250465"><ele>524.0</ele><time>2026-05-02T11:10:29.983Z</time></trkpt><trkpt lat="43.8303425" lon="6.2250428"><ele>525.5</ele><time>2026-05-02T11:10:30.983Z</time></trkpt><trkpt lat="43.8305" lon="6.2250345"><ele>527.0</ele><time>2026-05-02T11:10:31.983Z</time></trkpt><trkpt lat="43.8306611" lon="6.2250105"><ele>527.0</ele><time>2026-05-02T11:10:32.983Z</time></trkpt><trkpt lat="43.8308215" lon="6.2249567"><ele>527.0</ele><time>2026-05-02T11:10:33.983Z</time></trkpt><trkpt lat="43.8309719" lon="6.2248982"><ele>527.0</ele><time>2026-05-02T11:10:34.983Z</time></trkpt><trkpt lat="43.8311082" lon="6.2248271"><ele>528.0</ele><time>2026-05-02T11:10:35.983Z</time></trkpt><trkpt lat="43.831221" lon="6.2247379"><ele>529.0</ele><time>2026-05-02T11:10:36.983Z</time></trkpt><trkpt lat="43.831322" lon="6.2246354"><ele>530.0</ele><time>2026-05-02T11:10:37.983Z</time></trkpt><trkpt lat="43.8314127" lon="6.2245256"><ele>531.0</ele><time>2026-05-02T11:10:38.983Z</time></trkpt><trkpt lat="43.8314977" lon="6.2244134"><ele>531.0</ele><time>2026-05-02T11:10:39.982Z</time></trkpt><trkpt lat="43.8315817" lon="6.2242886"><ele>531.0</ele><time>2026-05-02T11:10:40.983Z</time></trkpt><trkpt lat="43.8316699" lon="6.2241767"><ele>531.0</ele><time>2026-05-02T11:10:41.983Z</time></trkpt><trkpt lat="43.8317526" lon="6.2240544"><ele>531.0</ele><time>2026-05-02T11:10:42.983Z</time></trkpt><trkpt lat="43.8318235" lon="6.2239343"><ele>532.5</ele><time>2026-05-02T11:10:43.983Z</time></trkpt><trkpt lat="43.8319011" lon="6.2237977"><ele>534.0</ele><time>2026-05-02T11:10:44.983Z</time></trkpt><trkpt lat="43.8319799" lon="6.223666"><ele>535.5</ele><time>2026-05-02T11:10:45.982Z</time></trkpt><trkpt lat="43.8320571" lon="6.2235461"><ele>537.0</ele><time>2026-05-02T11:10:46.983Z</time></trkpt><trkpt lat="43.8321347" lon="6.2234241"><ele>537.0</ele><time>2026-05-02T11:10:47.983Z</time></trkpt><trkpt lat="43.8322107" lon="6.2232992"><ele>537.0</ele><time>2026-05-02T11:10:48.983Z</time></trkpt><trkpt lat="43.8322815" lon="6.2231708"><ele>537.0</ele><time>2026-05-02T11:10:49.983Z</time></trkpt><trkpt lat="43.8323551" lon="6.2230496"><ele>537.0</ele><time>2026-05-02T11:10:50.983Z</time></trkpt><trkpt lat="43.8324304" lon="6.2229074"><ele>537.0</ele><time>2026-05-02T11:10:51.983Z</time></trkpt><trkpt lat="43.8325148" lon="6.2227825"><ele>537.0</ele><time>2026-05-02T11:10:52.983Z</time></trkpt><trkpt lat="43.8325973" lon="6.2226489"><ele>537.0</ele><time>2026-05-02T11:10:53.983Z</time></trkpt><trkpt lat="43.8326852" lon="6.2225203"><ele>537.0</ele><time>2026-05-02T11:10:54.983Z</time></trkpt><trkpt lat="43.8327573" lon="6.2223883"><ele>536.25</ele><time>2026-05-02T11:10:55.983Z</time></trkpt><trkpt lat="43.832835" lon="6.2222721"><ele>535.5</ele><time>2026-05-02T11:10:56.983Z</time></trkpt><trkpt lat="43.8329054" lon="6.2221478"><ele>534.75</ele><time>2026-05-02T11:10:57.983Z</time></trkpt><trkpt lat="43.8329827" lon="6.2220379"><ele>534.0</ele><time>2026-05-02T11:10:58.983Z</time></trkpt><trkpt lat="43.8330704" lon="6.2219258"><ele>534.0</ele><time>2026-05-02T11:10:59.983Z</time></trkpt><trkpt lat="43.8331568" lon="6.221811"><ele>534.0</ele><time>2026-05-02T11:11:00.983Z</time></trkpt><trkpt lat="43.8332509" lon="6.2216897"><ele>534.0</ele><time>2026-05-02T11:11:01.983Z</time></trkpt><trkpt lat="43.8333428" lon="6.2215727"><ele>534.0</ele><time>2026-05-02T11:11:02.983Z</time></trkpt><trkpt lat="43.8334442" lon="6.2214725"><ele>534.75</ele><time>2026-05-02T11:11:03.983Z</time></trkpt><trkpt lat="43.8335552" lon="6.2213867"><ele>535.5</ele><time>2026-05-02T11:11:04.983Z</time></trkpt><trkpt lat="43.8336733" lon="6.2213017"><ele>536.25</ele><time>2026-05-02T11:11:05.982Z</time></trkpt><trkpt lat="43.8337881" lon="6.2212461"><ele>537.0</ele><time>2026-05-02T11:11:06.982Z</time></trkpt><trkpt lat="43.8339025" lon="6.2211876"><ele>537.0</ele><time>2026-05-02T11:11:07.982Z</time></trkpt><trkpt lat="43.8339852" lon="6.2211267"><ele>537.0</ele><time>2026-05-02T11:11:08.983Z</time></trkpt><trkpt lat="43.8340621" lon="6.2210655"><ele>537.0</ele><time>2026-05-02T11:11:09.982Z</time></trkpt><trkpt lat="43.8341374" lon="6.2210183"><ele>537.0</ele><time>2026-05-02T11:11:10.983Z</time></trkpt><trkpt lat="43.8342285" lon="6.2209786"><ele>537.0</ele><time>2026-05-02T11:11:11.982Z</time></trkpt><trkpt lat="43.8343047" lon="6.2209298"><ele>537.0</ele><time>2026-05-02T11:11:12.983Z</time></trkpt><trkpt lat="43.8343718" lon="6.2208954"><ele>539.1428571428571</ele><time>2026-05-02T11:11:13.983Z</time></trkpt><trkpt lat="43.8344455" lon="6.2208638"><ele>541.2857142857142</ele><time>2026-05-02T11:11:14.983Z</time></trkpt><trkpt lat="43.8345104" lon="6.2208591"><ele>543.4285714285714</ele><time>2026-05-02T11:11:15.983Z</time></trkpt><trkpt lat="43.8345798" lon="6.2208738"><ele>545.5714285714286</ele><time>2026-05-02T11:11:16.983Z</time></trkpt><trkpt lat="43.834621" lon="6.2209608"><ele>547.7142857142858</ele><time>2026-05-02T11:11:17.983Z</time></trkpt><trkpt lat="43.8346405" lon="6.2210482"><ele>549.8571428571429</ele><time>2026-05-02T11:11:18.983Z</time></trkpt><trkpt lat="43.8346347" lon="6.2211632"><ele>552.0</ele><time>2026-05-02T11:11:19.983Z</time></trkpt><trkpt lat="43.8345994" lon="6.2212484"><ele>552.0</ele><time>2026-05-02T11:11:20.983Z</time></trkpt><trkpt lat="43.8345442" lon="6.2213266"><ele>552.0</ele><time>2026-05-02T11:11:21.983Z</time></trkpt><trkpt lat="43.8344876" lon="6.2214086"><ele>552.0</ele><time>2026-05-02T11:11:22.983Z</time></trkpt><trkpt lat="43.8344243" lon="6.2214842"><ele>552.0</ele><time>2026-05-02T11:11:23.982Z</time></trkpt><trkpt lat="43.8343511" lon="6.221565"><ele>552.0</ele><time>2026-05-02T11:11:24.983Z</time></trkpt><trkpt lat="43.8342907" lon="6.2216437"><ele>552.0</ele><time>2026-05-02T11:11:25.983Z</time></trkpt><trkpt lat="43.8342342" lon="6.221728"><ele>551.6666666666666</ele><time>2026-05-02T11:11:26.983Z</time></trkpt><trkpt lat="43.8341675" lon="6.2217989"><ele>551.3333333333334</ele><time>2026-05-02T11:11:27.983Z</time></trkpt><trkpt lat="43.834113" lon="6.2218648"><ele>551.0</ele><time>2026-05-02T11:11:28.983Z</time></trkpt><trkpt lat="43.8340183" lon="6.2219881"><ele>550.6666666666667</ele><time>2026-05-02T11:11:30.983Z</time></trkpt><trkpt lat="43.8339799" lon="6.2220663"><ele>550.3333333333334</ele><time>2026-05-02T11:11:31.982Z</time></trkpt><trkpt lat="43.8339784" lon="6.2221742"><ele>550.0</ele><time>2026-05-02T11:11:32.983Z</time></trkpt><trkpt lat="43.8340247" lon="6.2223345"><ele>550.0</ele><time>2026-05-02T11:11:34.982Z</time></trkpt><trkpt lat="43.8340707" lon="6.2224159"><ele>550.0</ele><time>2026-05-02T11:11:35.982Z</time></trkpt><trkpt lat="43.8341601" lon="6.2223953"><ele>550.0</ele><time>2026-05-02T11:11:36.983Z</time></trkpt><trkpt lat="43.8342333" lon="6.2223618"><ele>550.0</ele><time>2026-05-02T11:11:37.983Z</time></trkpt><trkpt lat="43.8342997" lon="6.2223045"><ele>550.0</ele><time>2026-05-02T11:11:38.983Z</time></trkpt><trkpt lat="43.8343615" lon="6.2222316"><ele>550.0</ele><time>2026-05-02T11:11:39.982Z</time></trkpt><trkpt lat="43.8344279" lon="6.2221528"><ele>551.6</ele><time>2026-05-02T11:11:40.983Z</time></trkpt><trkpt lat="43.8344898" lon="6.2221191"><ele>553.2</ele><time>2026-05-02T11:11:41.982Z</time></trkpt><trkpt lat="43.8345842" lon="6.222078"><ele>554.8</ele><time>2026-05-02T11:11:42.982Z</time></trkpt><trkpt lat="43.8346717" lon="6.2220371"><ele>556.4</ele><time>2026-05-02T11:11:43.983Z</time></trkpt><trkpt lat="43.8347711" lon="6.2220332"><ele>558.0</ele><time>2026-05-02T11:11:44.983Z</time></trkpt><trkpt lat="43.8348693" lon="6.2220245"><ele>558.0</ele><time>2026-05-02T11:11:45.982Z</time></trkpt><trkpt lat="43.8349344" lon="6.2219755"><ele>558.0</ele><time>2026-05-02T11:11:46.983Z</time></trkpt><trkpt lat="43.8349968" lon="6.2219023"><ele>558.0</ele><time>2026-05-02T11:11:47.982Z</time></trkpt><trkpt lat="43.8350631" lon="6.2218421"><ele>558.0</ele><time>2026-05-02T11:11:48.983Z</time></trkpt><trkpt lat="43.8350913" lon="6.2217285"><ele>558.0</ele><time>2026-05-02T11:11:49.983Z</time></trkpt><trkpt lat="43.8351078" lon="6.2216085"><ele>558.0</ele><time>2026-05-02T11:11:50.983Z</time></trkpt><trkpt lat="43.8351459" lon="6.2215109"><ele>559.1666666666666</ele><time>2026-05-02T11:11:51.983Z</time></trkpt><trkpt lat="43.8352004" lon="6.2213925"><ele>560.3333333333334</ele><time>2026-05-02T11:11:52.983Z</time></trkpt><trkpt lat="43.8352474" lon="6.2212805"><ele>561.5</ele><time>2026-05-02T11:11:53.983Z</time></trkpt><trkpt lat="43.8352995" lon="6.2211868"><ele>562.6666666666667</ele><time>2026-05-02T11:11:54.983Z</time></trkpt><trkpt lat="43.8353537" lon="6.221102"><ele>563.8333333333334</ele><time>2026-05-02T11:11:55.983Z</time></trkpt><trkpt lat="43.8354158" lon="6.2210335"><ele>565.0</ele><time>2026-05-02T11:11:56.983Z</time></trkpt><trkpt lat="43.8354943" lon="6.2209879"><ele>565.0</ele><time>2026-05-02T11:11:57.983Z</time></trkpt><trkpt lat="43.8356068" lon="6.2209589"><ele>565.0</ele><time>2026-05-02T11:11:58.983Z</time></trkpt><trkpt lat="43.8356901" lon="6.2209622"><ele>565.0</ele><time>2026-05-02T11:11:59.983Z</time></trkpt><trkpt lat="43.8357858" lon="6.2209391"><ele>565.0</ele><time>2026-05-02T11:12:00.983Z</time></trkpt><trkpt lat="43.8358877" lon="6.2209"><ele>565.0</ele><time>2026-05-02T11:12:01.983Z</time></trkpt><trkpt lat="43.8359829" lon="6.2208633"><ele>566.4</ele><time>2026-05-02T11:12:02.982Z</time></trkpt><trkpt lat="43.836077" lon="6.2208002"><ele>567.8</ele><time>2026-05-02T11:12:03.983Z</time></trkpt><trkpt lat="43.8361737" lon="6.2207555"><ele>569.2</ele><time>2026-05-02T11:12:04.983Z</time></trkpt><trkpt lat="43.8362637" lon="6.2207091"><ele>570.6</ele><time>2026-05-02T11:12:05.983Z</time></trkpt><trkpt lat="43.8363495" lon="6.2206869"><ele>572.0</ele><time>2026-05-02T11:12:06.983Z</time></trkpt><trkpt lat="43.8364603" lon="6.2206892"><ele>572.0</ele><time>2026-05-02T11:12:07.983Z</time></trkpt><trkpt lat="43.8365583" lon="6.2207339"><ele>572.0</ele><time>2026-05-02T11:12:08.983Z</time></trkpt><trkpt lat="43.8366548" lon="6.2207511"><ele>572.0</ele><time>2026-05-02T11:12:09.983Z</time></trkpt><trkpt lat="43.8367436" lon="6.2207975"><ele>572.0</ele><time>2026-05-02T11:12:10.983Z</time></trkpt><trkpt lat="43.8368369" lon="6.2208385"><ele>572.0</ele><time>2026-05-02T11:12:11.982Z</time></trkpt><trkpt lat="43.8369392" lon="6.2208826"><ele>572.6</ele><time>2026-05-02T11:12:12.983Z</time></trkpt><trkpt lat="43.8370378" lon="6.2209087"><ele>573.2</ele><time>2026-05-02T11:12:13.983Z</time></trkpt><trkpt lat="43.8371343" lon="6.2209453"><ele>573.8</ele><time>2026-05-02T11:12:14.982Z</time></trkpt><trkpt lat="43.83724" lon="6.220995"><ele>574.4</ele><time>2026-05-02T11:12:15.983Z</time></trkpt><trkpt lat="43.8373171" lon="6.2210222"><ele>575.0</ele><time>2026-05-02T11:12:16.983Z</time></trkpt><trkpt lat="43.8373847" lon="6.2210511"><ele>575.0</ele><time>2026-05-02T11:12:17.983Z</time></trkpt><trkpt lat="43.8374506" lon="6.2210788"><ele>575.0</ele><time>2026-05-02T11:12:18.983Z</time></trkpt><trkpt lat="43.8375392" lon="6.2211396"><ele>575.0</ele><time>2026-05-02T11:12:19.983Z</time></trkpt><trkpt lat="43.8376167" lon="6.2211877"><ele>575.0</ele><time>2026-05-02T11:12:20.983Z</time></trkpt><trkpt lat="43.8376979" lon="6.2212383"><ele>575.0</ele><time>2026-05-02T11:12:21.983Z</time></trkpt><trkpt lat="43.8377819" lon="6.2212977"><ele>575.0</ele><time>2026-05-02T11:12:22.983Z</time></trkpt><trkpt lat="43.8378666" lon="6.2213505"><ele>575.8333333333333</ele><time>2026-05-02T11:12:23.983Z</time></trkpt><trkpt lat="43.8379355" lon="6.2214054"><ele>576.6666666666666</ele><time>2026-05-02T11:12:24.983Z</time></trkpt><trkpt lat="43.8379738" lon="6.2215042"><ele>577.5</ele><time>2026-05-02T11:12:25.983Z</time></trkpt><trkpt lat="43.8380102" lon="6.221598"><ele>578.3333333333334</ele><time>2026-05-02T11:12:26.982Z</time></trkpt><trkpt lat="43.8380568" lon="6.2216906"><ele>579.1666666666667</ele><time>2026-05-02T11:12:27.983Z</time></trkpt><trkpt lat="43.8381053" lon="6.2217807"><ele>580.0</ele><time>2026-05-02T11:12:28.983Z</time></trkpt><trkpt lat="43.838162" lon="6.2218279"><ele>581.3333333333334</ele><time>2026-05-02T11:12:29.982Z</time></trkpt><trkpt lat="43.8382428" lon="6.2218427"><ele>582.6666666666667</ele><time>2026-05-02T11:12:30.983Z</time></trkpt><trkpt lat="43.838318" lon="6.2218235"><ele>584.0</ele><time>2026-05-02T11:12:31.983Z</time></trkpt><trkpt lat="43.8383984" lon="6.2217851"><ele>585.3333333333334</ele><time>2026-05-02T11:12:32.982Z</time></trkpt><trkpt lat="43.8384583" lon="6.221704"><ele>586.6666666666666</ele><time>2026-05-02T11:12:33.983Z</time></trkpt><trkpt lat="43.8385212" lon="6.2216276"><ele>588.0</ele><time>2026-05-02T11:12:34.983Z</time></trkpt><trkpt lat="43.8385591" lon="6.2215321"><ele>587.5</ele><time>2026-05-02T11:12:35.983Z</time></trkpt><trkpt lat="43.8386046" lon="6.221435"><ele>587.0</ele><time>2026-05-02T11:12:36.983Z</time></trkpt><trkpt lat="43.8386545" lon="6.2213452"><ele>586.5</ele><time>2026-05-02T11:12:37.983Z</time></trkpt><trkpt lat="43.8387414" lon="6.2213008"><ele>586.0</ele><time>2026-05-02T11:12:38.983Z</time></trkpt><trkpt lat="43.8388262" lon="6.221275"><ele>585.5</ele><time>2026-05-02T11:12:39.983Z</time></trkpt><trkpt lat="43.8389161" lon="6.2212659"><ele>585.0</ele><time>2026-05-02T11:12:40.983Z</time></trkpt><trkpt lat="43.8389945" lon="6.22129"><ele>585.0</ele><time>2026-05-02T11:12:41.982Z</time></trkpt><trkpt lat="43.8390696" lon="6.2213317"><ele>585.0</ele><time>2026-05-02T11:12:42.983Z</time></trkpt><trkpt lat="43.8391404" lon="6.221403"><ele>585.0</ele><time>2026-05-02T11:12:43.983Z</time></trkpt><trkpt lat="43.839201" lon="6.2214749"><ele>585.0</ele><time>2026-05-02T11:12:44.983Z</time></trkpt><trkpt lat="43.8392549" lon="6.2215489"><ele>585.0</ele><time>2026-05-02T11:12:45.983Z</time></trkpt><trkpt lat="43.8393007" lon="6.2216372"><ele>585.0</ele><time>2026-05-02T11:12:46.983Z</time></trkpt><trkpt lat="43.8393582" lon="6.2217344"><ele>586.0</ele><time>2026-05-02T11:12:47.983Z</time></trkpt><trkpt lat="43.8394192" lon="6.2218172"><ele>587.0</ele><time>2026-05-02T11:12:48.983Z</time></trkpt><trkpt lat="43.8394794" lon="6.2218842"><ele>588.0</ele><time>2026-05-02T11:12:49.983Z</time></trkpt><trkpt lat="43.8395467" lon="6.2219368"><ele>589.0</ele><time>2026-05-02T11:12:50.983Z</time></trkpt><trkpt lat="43.8396354" lon="6.2219667"><ele>590.0</ele><time>2026-05-02T11:12:51.983Z</time></trkpt><trkpt lat="43.839722" lon="6.2219986"><ele>591.0</ele><time>2026-05-02T11:12:52.983Z</time></trkpt><trkpt lat="43.8398264" lon="6.222006"><ele>591.0</ele><time>2026-05-02T11:12:53.983Z</time></trkpt><trkpt lat="43.8399866" lon="6.222014"><ele>591.0</ele><time>2026-05-02T11:12:54.983Z</time></trkpt><trkpt lat="43.8401459" lon="6.2220005"><ele>591.0</ele><time>2026-05-02T11:12:55.983Z</time></trkpt><trkpt lat="43.8402897" lon="6.2219838"><ele>593.5</ele><time>2026-05-02T11:12:56.983Z</time></trkpt><trkpt lat="43.8404232" lon="6.2219301"><ele>596.0</ele><time>2026-05-02T11:12:57.983Z</time></trkpt><trkpt lat="43.8405322" lon="6.2218434"><ele>598.5</ele><time>2026-05-02T11:12:58.983Z</time></trkpt><trkpt lat="43.840652" lon="6.2217516"><ele>601.0</ele><time>2026-05-02T11:12:59.983Z</time></trkpt><trkpt lat="43.8407697" lon="6.2216462"><ele>601.0</ele><time>2026-05-02T11:13:00.982Z</time></trkpt><trkpt lat="43.8408639" lon="6.2215709"><ele>601.0</ele><time>2026-05-02T11:13:01.983Z</time></trkpt><trkpt lat="43.8409461" lon="6.2215123"><ele>601.0</ele><time>2026-05-02T11:13:02.983Z</time></trkpt><trkpt lat="43.8410435" lon="6.221452"><ele>601.0</ele><time>2026-05-02T11:13:03.983Z</time></trkpt><trkpt lat="43.8411335" lon="6.2214188"><ele>601.0</ele><time>2026-05-02T11:13:04.983Z</time></trkpt><trkpt lat="43.8412134" lon="6.221415"><ele>600.5</ele><time>2026-05-02T11:13:05.983Z</time></trkpt><trkpt lat="43.841281" lon="6.2213977"><ele>600.0</ele><time>2026-05-02T11:13:06.982Z</time></trkpt><trkpt lat="43.8413456" lon="6.2213849"><ele>599.5</ele><time>2026-05-02T11:13:07.983Z</time></trkpt><trkpt lat="43.8413884" lon="6.2212015"><ele>599.0</ele><time>2026-05-02T11:13:09.983Z</time></trkpt><trkpt lat="43.8414367" lon="6.2211082"><ele>598.5</ele><time>2026-05-02T11:13:10.983Z</time></trkpt><trkpt lat="43.8414922" lon="6.2210135"><ele>598.0</ele><time>2026-05-02T11:13:11.983Z</time></trkpt><trkpt lat="43.8415633" lon="6.2209064"><ele>598.0</ele><time>2026-05-02T11:13:12.983Z</time></trkpt><trkpt lat="43.8416371" lon="6.2207955"><ele>598.0</ele><time>2026-05-02T11:13:13.983Z</time></trkpt><trkpt lat="43.8417079" lon="6.2206821"><ele>598.0</ele><time>2026-05-02T11:13:14.983Z</time></trkpt><trkpt lat="43.8417783" lon="6.2205747"><ele>598.0</ele><time>2026-05-02T11:13:15.983Z</time></trkpt><trkpt lat="43.8418591" lon="6.2204618"><ele>598.0</ele><time>2026-05-02T11:13:16.983Z</time></trkpt><trkpt lat="43.8419447" lon="6.2203546"><ele>595.75</ele><time>2026-05-02T11:13:17.983Z</time></trkpt><trkpt lat="43.8420436" lon="6.2202516"><ele>593.5</ele><time>2026-05-02T11:13:18.983Z</time></trkpt><trkpt lat="43.8421307" lon="6.2201523"><ele>591.25</ele><time>2026-05-02T11:13:19.982Z</time></trkpt><trkpt lat="43.8422487" lon="6.2200646"><ele>589.0</ele><time>2026-05-02T11:13:20.982Z</time></trkpt><trkpt lat="43.842355" lon="6.219963"><ele>589.0</ele><time>2026-05-02T11:13:21.983Z</time></trkpt><trkpt lat="43.8424888" lon="6.2198799"><ele>589.0</ele><time>2026-05-02T11:13:22.983Z</time></trkpt><trkpt lat="43.8426146" lon="6.2198252"><ele>589.0</ele><time>2026-05-02T11:13:23.983Z</time></trkpt><trkpt lat="43.8427555" lon="6.219783"><ele>589.0</ele><time>2026-05-02T11:13:24.983Z</time></trkpt><trkpt lat="43.8428988" lon="6.2197379"><ele>586.0</ele><time>2026-05-02T11:13:25.983Z</time></trkpt><trkpt lat="43.8430352" lon="6.2196714"><ele>583.0</ele><time>2026-05-02T11:13:26.983Z</time></trkpt><trkpt lat="43.8431692" lon="6.2196397"><ele>580.0</ele><time>2026-05-02T11:13:27.983Z</time></trkpt><trkpt lat="43.8432953" lon="6.2195947"><ele>577.0</ele><time>2026-05-02T11:13:28.983Z</time></trkpt><trkpt lat="43.8434016" lon="6.2195678"><ele>578.0</ele><time>2026-05-02T11:13:29.983Z</time></trkpt><trkpt lat="43.8435185" lon="6.21954"><ele>579.0</ele><time>2026-05-02T11:13:30.983Z</time></trkpt><trkpt lat="43.8436333" lon="6.2194895"><ele>580.0</ele><time>2026-05-02T11:13:31.983Z</time></trkpt><trkpt lat="43.8437613" lon="6.21946"><ele>581.0</ele><time>2026-05-02T11:13:32.983Z</time></trkpt><trkpt lat="43.8438588" lon="6.2194115"><ele>581.0</ele><time>2026-05-02T11:13:33.983Z</time></trkpt><trkpt lat="43.8439762" lon="6.2193648"><ele>581.0</ele><time>2026-05-02T11:13:34.982Z</time></trkpt><trkpt lat="43.8441" lon="6.219312"><ele>581.0</ele><time>2026-05-02T11:13:35.982Z</time></trkpt><trkpt lat="43.8442031" lon="6.2192308"><ele>581.0</ele><time>2026-05-02T11:13:36.983Z</time></trkpt><trkpt lat="43.8442975" lon="6.2191471"><ele>581.25</ele><time>2026-05-02T11:13:37.982Z</time></trkpt><trkpt lat="43.8443886" lon="6.2190418"><ele>581.5</ele><time>2026-05-02T11:13:38.983Z</time></trkpt><trkpt lat="43.8444771" lon="6.2189342"><ele>581.75</ele><time>2026-05-02T11:13:39.982Z</time></trkpt><trkpt lat="43.8445573" lon="6.2188204"><ele>582.0</ele><time>2026-05-02T11:13:40.982Z</time></trkpt><trkpt lat="43.8446247" lon="6.2187144"><ele>580.2</ele><time>2026-05-02T11:13:41.983Z</time></trkpt><trkpt lat="43.844684" lon="6.2186046"><ele>578.4000000000001</ele><time>2026-05-02T11:13:42.983Z</time></trkpt><trkpt lat="43.8447396" lon="6.2184943"><ele>576.5999999999999</ele><time>2026-05-02T11:13:43.983Z</time></trkpt><trkpt lat="43.8447857" lon="6.2183818"><ele>574.8</ele><time>2026-05-02T11:13:44.983Z</time></trkpt><trkpt lat="43.8448288" lon="6.2182693"><ele>573.0</ele><time>2026-05-02T11:13:45.983Z</time></trkpt><trkpt lat="43.8448655" lon="6.2181627"><ele>572.4</ele><time>2026-05-02T11:13:46.983Z</time></trkpt><trkpt lat="43.8449019" lon="6.2180457"><ele>571.8</ele><time>2026-05-02T11:13:47.982Z</time></trkpt><trkpt lat="43.8449325" lon="6.2179267"><ele>571.2</ele><time>2026-05-02T11:13:48.983Z</time></trkpt><trkpt lat="43.844962" lon="6.2177515"><ele>570.6</ele><time>2026-05-02T11:13:49.983Z</time></trkpt><trkpt lat="43.8449836" lon="6.2175979"><ele>570.0</ele><time>2026-05-02T11:13:50.982Z</time></trkpt><trkpt lat="43.844996" lon="6.2174311"><ele>569.75</ele><time>2026-05-02T11:13:51.983Z</time></trkpt><trkpt lat="43.8450036" lon="6.2172522"><ele>569.5</ele><time>2026-05-02T11:13:52.983Z</time></trkpt><trkpt lat="43.8450087" lon="6.217089"><ele>569.25</ele><time>2026-05-02T11:13:53.983Z</time></trkpt><trkpt lat="43.8449827" lon="6.2169397"><ele>569.0</ele><time>2026-05-02T11:13:54.983Z</time></trkpt><trkpt lat="43.8449578" lon="6.2167809"><ele>569.0</ele><time>2026-05-02T11:13:55.983Z</time></trkpt><trkpt lat="43.8449359" lon="6.2166507"><ele>569.0</ele><time>2026-05-02T11:13:56.983Z</time></trkpt><trkpt lat="43.8449084" lon="6.2165167"><ele>569.0</ele><time>2026-05-02T11:13:57.983Z</time></trkpt><trkpt lat="43.8448661" lon="6.2164107"><ele>569.0</ele><time>2026-05-02T11:13:58.983Z</time></trkpt><trkpt lat="43.8448384" lon="6.2163169"><ele>569.0</ele><time>2026-05-02T11:13:59.983Z</time></trkpt><trkpt lat="43.8447938" lon="6.2162182"><ele>569.0</ele><time>2026-05-02T11:14:00.983Z</time></trkpt><trkpt lat="43.8447376" lon="6.2160954"><ele>569.6666666666666</ele><time>2026-05-02T11:14:02.983Z</time></trkpt><trkpt lat="43.8447057" lon="6.2160136"><ele>570.3333333333333</ele><time>2026-05-02T11:14:03.983Z</time></trkpt><trkpt lat="43.844673" lon="6.2159017"><ele>571.0</ele><time>2026-05-02T11:14:05.983Z</time></trkpt><trkpt lat="43.8447168" lon="6.2157704"><ele>571.6666666666666</ele><time>2026-05-02T11:14:07.982Z</time></trkpt><trkpt lat="43.8447719" lon="6.2157014"><ele>572.3333333333334</ele><time>2026-05-02T11:14:08.983Z</time></trkpt><trkpt lat="43.8448362" lon="6.215658"><ele>573.0</ele><time>2026-05-02T11:14:09.983Z</time></trkpt><trkpt lat="43.844909" lon="6.2156336"><ele>573.0</ele><time>2026-05-02T11:14:10.983Z</time></trkpt><trkpt lat="43.8449986" lon="6.2156377"><ele>573.0</ele><time>2026-05-02T11:14:11.983Z</time></trkpt><trkpt lat="43.845077" lon="6.215676"><ele>573.0</ele><time>2026-05-02T11:14:12.983Z</time></trkpt><trkpt lat="43.8451499" lon="6.2157958"><ele>573.0</ele><time>2026-05-02T11:14:13.983Z</time></trkpt><trkpt lat="43.8452078" lon="6.215924"><ele>573.0</ele><time>2026-05-02T11:14:14.983Z</time></trkpt><trkpt lat="43.845251" lon="6.2160711"><ele>575.5</ele><time>2026-05-02T11:14:15.983Z</time></trkpt><trkpt lat="43.8452908" lon="6.2162188"><ele>578.0</ele><time>2026-05-02T11:14:16.983Z</time></trkpt><trkpt lat="43.8453369" lon="6.2163691"><ele>580.5</ele><time>2026-05-02T11:14:17.982Z</time></trkpt><trkpt lat="43.8453992" lon="6.2165094"><ele>583.0</ele><time>2026-05-02T11:14:18.983Z</time></trkpt><trkpt lat="43.8454817" lon="6.2166298"><ele>583.0</ele><time>2026-05-02T11:14:19.983Z</time></trkpt><trkpt lat="43.8455898" lon="6.2167444"><ele>583.0</ele><time>2026-05-02T11:14:20.983Z</time></trkpt><trkpt lat="43.8457005" lon="6.2168406"><ele>583.0</ele><time>2026-05-02T11:14:21.983Z</time></trkpt><trkpt lat="43.845813" lon="6.2169326"><ele>583.0</ele><time>2026-05-02T11:14:22.983Z</time></trkpt><trkpt lat="43.8459309" lon="6.2170172"><ele>583.25</ele><time>2026-05-02T11:14:23.983Z</time></trkpt><trkpt lat="43.8460436" lon="6.2171041"><ele>583.5</ele><time>2026-05-02T11:14:24.983Z</time></trkpt><trkpt lat="43.8461427" lon="6.2172067"><ele>583.75</ele><time>2026-05-02T11:14:25.983Z</time></trkpt><trkpt lat="43.8462301" lon="6.2172886"><ele>584.0</ele><time>2026-05-02T11:14:26.983Z</time></trkpt><trkpt lat="43.8463154" lon="6.2173701"><ele>584.0</ele><time>2026-05-02T11:14:27.983Z</time></trkpt><trkpt lat="43.8463936" lon="6.2174415"><ele>584.0</ele><time>2026-05-02T11:14:28.983Z</time></trkpt><trkpt lat="43.8464836" lon="6.2174959"><ele>584.0</ele><time>2026-05-02T11:14:29.982Z</time></trkpt><trkpt lat="43.8465887" lon="6.2175395"><ele>584.0</ele><time>2026-05-02T11:14:30.983Z</time></trkpt><trkpt lat="43.8466945" lon="6.2175784"><ele>584.0</ele><time>2026-05-02T11:14:31.983Z</time></trkpt><trkpt lat="43.8467984" lon="6.2176149"><ele>586.5</ele><time>2026-05-02T11:14:32.983Z</time></trkpt><trkpt lat="43.8469087" lon="6.2176669"><ele>589.0</ele><time>2026-05-02T11:14:33.983Z</time></trkpt><trkpt lat="43.8470225" lon="6.2177544"><ele>591.5</ele><time>2026-05-02T11:14:34.983Z</time></trkpt><trkpt lat="43.8471281" lon="6.2178319"><ele>594.0</ele><time>2026-05-02T11:14:35.983Z</time></trkpt><trkpt lat="43.8472377" lon="6.2179382"><ele>594.0</ele><time>2026-05-02T11:14:36.983Z</time></trkpt><trkpt lat="43.8473438" lon="6.2180391"><ele>594.0</ele><time>2026-05-02T11:14:37.983Z</time></trkpt><trkpt lat="43.8474439" lon="6.2181388"><ele>594.0</ele><time>2026-05-02T11:14:38.983Z</time></trkpt><trkpt lat="43.8475509" lon="6.2182424"><ele>594.0</ele><time>2026-05-02T11:14:39.982Z</time></trkpt><trkpt lat="43.8476525" lon="6.2183349"><ele>596.5</ele><time>2026-05-02T11:14:40.983Z</time></trkpt><trkpt lat="43.8477515" lon="6.2184247"><ele>599.0</ele><time>2026-05-02T11:14:41.983Z</time></trkpt><trkpt lat="43.8478484" lon="6.2185197"><ele>601.5</ele><time>2026-05-02T11:14:42.982Z</time></trkpt><trkpt lat="43.8479451" lon="6.2186013"><ele>604.0</ele><time>2026-05-02T11:14:43.983Z</time></trkpt><trkpt lat="43.8480399" lon="6.2186747"><ele>604.0</ele><time>2026-05-02T11:14:44.983Z</time></trkpt><trkpt lat="43.8481328" lon="6.2187549"><ele>604.0</ele><time>2026-05-02T11:14:45.983Z</time></trkpt><trkpt lat="43.8482246" lon="6.2188399"><ele>604.0</ele><time>2026-05-02T11:14:46.983Z</time></trkpt><trkpt lat="43.8483064" lon="6.2189239"><ele>604.0</ele><time>2026-05-02T11:14:47.983Z</time></trkpt><trkpt lat="43.8483788" lon="6.2190279"><ele>604.0</ele><time>2026-05-02T11:14:48.983Z</time></trkpt><trkpt lat="43.848438" lon="6.2191333"><ele>607.0</ele><time>2026-05-02T11:14:49.983Z</time></trkpt><trkpt lat="43.8485099" lon="6.2192306"><ele>610.0</ele><time>2026-05-02T11:14:50.983Z</time></trkpt><trkpt lat="43.8486029" lon="6.2193176"><ele>613.0</ele><time>2026-05-02T11:14:51.983Z</time></trkpt><trkpt lat="43.8487075" lon="6.2193995"><ele>616.0</ele><time>2026-05-02T11:14:52.983Z</time></trkpt><trkpt lat="43.848807" lon="6.2194703"><ele>619.0</ele><time>2026-05-02T11:14:53.983Z</time></trkpt><trkpt lat="43.8489154" lon="6.2195404"><ele>619.0</ele><time>2026-05-02T11:14:54.983Z</time></trkpt><trkpt lat="43.8490158" lon="6.2196131"><ele>619.0</ele><time>2026-05-02T11:14:55.983Z</time></trkpt><trkpt lat="43.8491094" lon="6.2196828"><ele>619.0</ele><time>2026-05-02T11:14:56.982Z</time></trkpt><trkpt lat="43.8492011" lon="6.2197381"><ele>619.0</ele><time>2026-05-02T11:14:57.983Z</time></trkpt><trkpt lat="43.8493043" lon="6.2197984"><ele>619.0</ele><time>2026-05-02T11:14:58.982Z</time></trkpt><trkpt lat="43.8493949" lon="6.2198282"><ele>620.8333333333334</ele><time>2026-05-02T11:14:59.983Z</time></trkpt><trkpt lat="43.8494883" lon="6.2198225"><ele>622.6666666666667</ele><time>2026-05-02T11:15:00.983Z</time></trkpt><trkpt lat="43.8495951" lon="6.2198266"><ele>624.5</ele><time>2026-05-02T11:15:01.983Z</time></trkpt><trkpt lat="43.8496805" lon="6.2198718"><ele>626.3333333333334</ele><time>2026-05-02T11:15:02.983Z</time></trkpt><trkpt lat="43.8497593" lon="6.2199196"><ele>628.1666666666666</ele><time>2026-05-02T11:15:03.983Z</time></trkpt><trkpt lat="43.8498222" lon="6.2199549"><ele>630.0</ele><time>2026-05-02T11:15:04.983Z</time></trkpt><trkpt lat="43.8499123" lon="6.2200231"><ele>630.0</ele><time>2026-05-02T11:15:06.983Z</time></trkpt><trkpt lat="43.8499548" lon="6.2201612"><ele>630.0</ele><time>2026-05-02T11:15:08.983Z</time></trkpt><trkpt lat="43.8498452" lon="6.2202653"><ele>630.0</ele><time>2026-05-02T11:15:10.982Z</time></trkpt><trkpt lat="43.8497223" lon="6.220313"><ele>630.0</ele><time>2026-05-02T11:15:11.982Z</time></trkpt><trkpt lat="43.8496199" lon="6.2203122"><ele>630.0</ele><time>2026-05-02T11:15:12.983Z</time></trkpt><trkpt lat="43.8495242" lon="6.2203604"><ele>630.0</ele><time>2026-05-02T11:15:13.983Z</time></trkpt><trkpt lat="43.8494208" lon="6.220384"><ele>630.0</ele><time>2026-05-02T11:15:14.982Z</time></trkpt><trkpt lat="43.849335" lon="6.2204001"><ele>630.0</ele><time>2026-05-02T11:15:15.983Z</time></trkpt><trkpt lat="43.8492269" lon="6.220398"><ele>630.0</ele><time>2026-05-02T11:15:16.983Z</time></trkpt><trkpt lat="43.8491407" lon="6.2203791"><ele>626.2</ele><time>2026-05-02T11:15:17.983Z</time></trkpt><trkpt lat="43.8490517" lon="6.2203743"><ele>622.4</ele><time>2026-05-02T11:15:18.983Z</time></trkpt><trkpt lat="43.8489677" lon="6.2203673"><ele>618.6</ele><time>2026-05-02T11:15:19.982Z</time></trkpt><trkpt lat="43.8489026" lon="6.2203446"><ele>614.8</ele><time>2026-05-02T11:15:20.983Z</time></trkpt><trkpt lat="43.8487495" lon="6.2203552"><ele>611.0</ele><time>2026-05-02T11:15:22.983Z</time></trkpt><trkpt lat="43.848641" lon="6.2203567"><ele>611.0</ele><time>2026-05-02T11:15:23.983Z</time></trkpt><trkpt lat="43.8485362" lon="6.2203808"><ele>611.0</ele><time>2026-05-02T11:15:24.982Z</time></trkpt><trkpt lat="43.8484084" lon="6.2203677"><ele>611.0</ele><time>2026-05-02T11:15:25.983Z</time></trkpt><trkpt lat="43.8482824" lon="6.2203898"><ele>611.0</ele><time>2026-05-02T11:15:26.983Z</time></trkpt><trkpt lat="43.8481515" lon="6.2203644"><ele>609.8</ele><time>2026-05-02T11:15:27.983Z</time></trkpt><trkpt lat="43.8480242" lon="6.2203494"><ele>608.6</ele><time>2026-05-02T11:15:28.983Z</time></trkpt><trkpt lat="43.8479266" lon="6.2203583"><ele>607.4</ele><time>2026-05-02T11:15:29.983Z</time></trkpt><trkpt lat="43.8478294" lon="6.2203867"><ele>606.2</ele><time>2026-05-02T11:15:30.983Z</time></trkpt><trkpt lat="43.8477179" lon="6.2204072"><ele>605.0</ele><time>2026-05-02T11:15:31.983Z</time></trkpt><trkpt lat="43.8476232" lon="6.2204274"><ele>604.6666666666666</ele><time>2026-05-02T11:15:32.983Z</time></trkpt><trkpt lat="43.8475159" lon="6.2204566"><ele>604.3333333333333</ele><time>2026-05-02T11:15:33.983Z</time></trkpt><trkpt lat="43.8474444" lon="6.2204844"><ele>604.0</ele><time>2026-05-02T11:15:34.983Z</time></trkpt><trkpt lat="43.8473677" lon="6.2205012"><ele>603.6666666666666</ele><time>2026-05-02T11:15:35.983Z</time></trkpt><trkpt lat="43.8472997" lon="6.2205394"><ele>603.3333333333334</ele><time>2026-05-02T11:15:36.982Z</time></trkpt><trkpt lat="43.8472328" lon="6.2205702"><ele>603.0</ele><time>2026-05-02T11:15:37.983Z</time></trkpt><trkpt lat="43.8471552" lon="6.220687"><ele>608.1999999999999</ele><time>2026-05-02T11:15:39.983Z</time></trkpt><trkpt lat="43.8470825" lon="6.2207996"><ele>613.4</ele><time>2026-05-02T11:15:41.983Z</time></trkpt><trkpt lat="43.8470775" lon="6.2209332"><ele>618.5999999999999</ele><time>2026-05-02T11:15:43.983Z</time></trkpt><trkpt lat="43.8470738" lon="6.2210284"><ele>623.8</ele><time>2026-05-02T11:15:44.982Z</time></trkpt><trkpt lat="43.8470557" lon="6.2211172"><ele>629.0</ele><time>2026-05-02T11:15:45.983Z</time></trkpt><trkpt lat="43.847063" lon="6.2212784"><ele>629.0</ele><time>2026-05-02T11:15:47.983Z</time></trkpt><trkpt lat="43.8470332" lon="6.2214298"><ele>629.0</ele><time>2026-05-02T11:15:49.983Z</time></trkpt><trkpt lat="43.846986" lon="6.2214967"><ele>629.0</ele><time>2026-05-02T11:15:50.983Z</time></trkpt><trkpt lat="43.8469049" lon="6.2215835"><ele>629.0</ele><time>2026-05-02T11:15:52.983Z</time></trkpt><trkpt lat="43.8468481" lon="6.2216309"><ele>629.0</ele><time>2026-05-02T11:15:54.982Z</time></trkpt><trkpt lat="43.8467545" lon="6.2216479"><ele>629.0</ele><time>2026-05-02T11:15:57.983Z</time></trkpt><trkpt lat="43.8466873" lon="6.2216096"><ele>629.8571428571428</ele><time>2026-05-02T11:15:59.983Z</time></trkpt><trkpt lat="43.8466259" lon="6.2215692"><ele>630.7142857142858</ele><time>2026-05-02T11:16:01.983Z</time></trkpt><trkpt lat="43.8465656" lon="6.221518"><ele>631.5714285714286</ele><time>2026-05-02T11:16:03.983Z</time></trkpt><trkpt lat="43.8464996" lon="6.2214731"><ele>632.4285714285713</ele><time>2026-05-02T11:16:05.983Z</time></trkpt><trkpt lat="43.8464305" lon="6.2214328"><ele>633.2857142857142</ele><time>2026-05-02T11:16:07.983Z</time></trkpt><trkpt lat="43.846356" lon="6.2213979"><ele>634.1428571428571</ele><time>2026-05-02T11:16:09.983Z</time></trkpt><trkpt lat="43.8462915" lon="6.221386"><ele>635.0</ele><time>2026-05-02T11:16:11.983Z</time></trkpt><trkpt lat="43.8462181" lon="6.2214126"><ele>630.4</ele><time>2026-05-02T11:16:13.983Z</time></trkpt><trkpt lat="43.8460826" lon="6.2214161"><ele>625.8</ele><time>2026-05-02T11:16:15.983Z</time></trkpt><trkpt lat="43.8460105" lon="6.2214182"><ele>621.2</ele><time>2026-05-02T11:16:17.983Z</time></trkpt><trkpt lat="43.8459021" lon="6.2213335"><ele>616.6</ele><time>2026-05-02T11:16:19.983Z</time></trkpt><trkpt lat="43.8457994" lon="6.2212848"><ele>612.0</ele><time>2026-05-02T11:16:21.983Z</time></trkpt><trkpt lat="43.8457176" lon="6.2212689"><ele>612.0</ele><time>2026-05-02T11:16:22.983Z</time></trkpt><trkpt lat="43.8456464" lon="6.2212528"><ele>612.0</ele><time>2026-05-02T11:16:23.983Z</time></trkpt><trkpt lat="43.8455349" lon="6.221248"><ele>612.0</ele><time>2026-05-02T11:16:25.983Z</time></trkpt><trkpt lat="43.8454137" lon="6.2212385"><ele>612.0</ele><time>2026-05-02T11:16:27.983Z</time></trkpt><trkpt lat="43.8453465" lon="6.2212369"><ele>612.0</ele><time>2026-05-02T11:16:28.983Z</time></trkpt><trkpt lat="43.8452358" lon="6.2212626"><ele>612.0</ele><time>2026-05-02T11:16:30.983Z</time></trkpt><trkpt lat="43.8451565" lon="6.2212727"><ele>612.0</ele><time>2026-05-02T11:16:31.983Z</time></trkpt><trkpt lat="43.8450822" lon="6.2212842"><ele>612.0</ele><time>2026-05-02T11:16:32.983Z</time></trkpt><trkpt lat="43.8450048" lon="6.2212782"><ele>612.0</ele><time>2026-05-02T11:16:33.983Z</time></trkpt><trkpt lat="43.8449299" lon="6.2212908"><ele>612.0</ele><time>2026-05-02T11:16:34.983Z</time></trkpt><trkpt lat="43.8448493" lon="6.2212823"><ele>612.0</ele><time>2026-05-02T11:16:35.983Z</time></trkpt><trkpt lat="43.8446939" lon="6.2213038"><ele>612.0</ele><time>2026-05-02T11:16:37.983Z</time></trkpt><trkpt lat="43.8445993" lon="6.221308"><ele>612.0</ele><time>2026-05-02T11:16:38.983Z</time></trkpt><trkpt lat="43.84449" lon="6.2213054"><ele>612.0</ele><time>2026-05-02T11:16:39.983Z</time></trkpt><trkpt lat="43.8443431" lon="6.221287"><ele>612.0</ele><time>2026-05-02T11:16:41.983Z</time></trkpt><trkpt lat="43.8442657" lon="6.2212907"><ele>612.0</ele><time>2026-05-02T11:16:42.983Z</time></trkpt><trkpt lat="43.8441462" lon="6.2212951"><ele>611.0</ele><time>2026-05-02T11:16:44.983Z</time></trkpt><trkpt lat="43.8440193" lon="6.2212938"><ele>610.0</ele><time>2026-05-02T11:16:46.983Z</time></trkpt><trkpt lat="43.8439058" lon="6.2213676"><ele>609.0</ele><time>2026-05-02T11:16:48.983Z</time></trkpt><trkpt lat="43.843835" lon="6.2214438"><ele>608.0</ele><time>2026-05-02T11:16:50.983Z</time></trkpt><trkpt lat="43.8437644" lon="6.2215117"><ele>607.0</ele><time>2026-05-02T11:16:52.982Z</time></trkpt><trkpt lat="43.8436954" lon="6.2215596"><ele>607.0</ele><time>2026-05-02T11:16:54.983Z</time></trkpt><trkpt lat="43.8436321" lon="6.2215742"><ele>607.0</ele><time>2026-05-02T11:16:55.983Z</time></trkpt><trkpt lat="43.8435448" lon="6.2216238"><ele>607.0</ele><time>2026-05-02T11:16:57.983Z</time></trkpt><trkpt lat="43.8434591" lon="6.2216777"><ele>607.0</ele><time>2026-05-02T11:16:59.982Z</time></trkpt><trkpt lat="43.8434944" lon="6.2215963"><ele>607.0</ele><time>2026-05-02T11:17:04.983Z</time></trkpt><trkpt lat="43.8435408" lon="6.2215362"><ele>607.0</ele><time>2026-05-02T11:17:09.983Z</time></trkpt><trkpt lat="43.8436088" lon="6.2214814"><ele>607.0</ele><time>2026-05-02T11:17:12.983Z</time></trkpt></trkseg></trk></gpx>